<?xml version='1.0' encoding='UTF-8'?><gpx version="1.1" creator="JPX - https://github.com/jenetics/jpx" xmlns="http://www.topografix.com/GPX/1/1"><trk><trkseg><trkpt lat="45.9642257" lon="12.6116136"><ele>37.0</ele><time>2026-04-17T06:44:45.896Z</time></trkpt><trkpt lat="45.9643037" lon="12.6119396"><ele>37.0</ele><time>2026-04-17T06:44:53.32Z</time></trkpt><trkpt lat="45.965405" lon="12.6113472"><ele>40.0</ele><time>2026-04-17T06:45:05.785Z</time></trkpt><trkpt lat="45.9659007" lon="12.6111358"><ele>40.0</ele><time>2026-04-17T06:45:13.387Z</time></trkpt><trkpt lat="45.9661595" lon="12.6115606"><ele>40.0</ele><time>2026-04-17T06:45:15.949Z</time></trkpt><trkpt lat="45.967003" lon="12.6113308"><ele>42.0</ele><time>2026-04-17T06:45:25.893Z</time></trkpt><trkpt lat="45.9680732" lon="12.6112317"><ele>42.0</ele><time>2026-04-17T06:45:33.254Z</time></trkpt><trkpt lat="45.968645" lon="12.6111202"><ele>43.0</ele><time>2026-04-17T06:45:45.832Z</time></trkpt><trkpt lat="45.9692161" lon="12.6136565"><ele>41.0</ele><time>2026-04-17T06:46:06.067Z</time></trkpt><trkpt lat="45.9690008" lon="12.615437"><ele>41.0</ele><time>2026-04-17T06:46:28.72Z</time></trkpt><trkpt lat="45.9686374" lon="12.6174304"><ele>39.0</ele><time>2026-04-17T06:46:35.829Z</time></trkpt><trkpt lat="45.9687256" lon="12.6200813"><ele>42.0</ele><time>2026-04-17T06:46:50.699Z</time></trkpt><trkpt lat="45.9685249" lon="12.6214026"><ele>40.0</ele><time>2026-04-17T06:46:56.093Z</time></trkpt><trkpt lat="45.9682867" lon="12.6225162"><ele>40.0</ele><time>2026-04-17T06:47:03.455Z</time></trkpt><trkpt lat="45.9678314" lon="12.6236177"><ele>38.0</ele><time>2026-04-17T06:47:11.168Z</time></trkpt><trkpt lat="45.9676286" lon="12.6244783"><ele>39.0</ele><time>2026-04-17T06:47:16.034Z</time></trkpt><trkpt lat="45.9678703" lon="12.6253876"><ele>39.0</ele><time>2026-04-17T06:47:23.602Z</time></trkpt><trkpt lat="45.9681611" lon="12.6260207"><ele>38.0</ele><time>2026-04-17T06:47:30.924Z</time></trkpt><trkpt lat="45.9682375" lon="12.6268079"><ele>38.0</ele><time>2026-04-17T06:47:35.736Z</time></trkpt><trkpt lat="45.9684699" lon="12.6277913"><ele>40.0</ele><time>2026-04-17T06:47:43.207Z</time></trkpt><trkpt lat="45.968496" lon="12.6293611"><ele>39.0</ele><time>2026-04-17T06:47:50.629Z</time></trkpt><trkpt lat="45.969295" lon="12.6307548"><ele>39.0</ele><time>2026-04-17T06:47:55.982Z</time></trkpt><trkpt lat="45.9700001" lon="12.631484"><ele>39.0</ele><time>2026-04-17T06:48:03.414Z</time></trkpt><trkpt lat="45.9698627" lon="12.6320005"><ele>39.0</ele><time>2026-04-17T06:48:11.035Z</time></trkpt><trkpt lat="45.9699134" lon="12.6326889"><ele>39.0</ele><time>2026-04-17T06:48:18.717Z</time></trkpt><trkpt lat="45.970155" lon="12.6327283"><ele>39.0</ele><time>2026-04-17T07:00:05.526Z</time></trkpt><trkpt lat="45.96978" lon="12.6327233"><ele>39.0</ele><time>2026-04-17T07:00:09.517Z</time></trkpt><trkpt lat="45.96991" lon="12.632665"><ele>39.0</ele><time>2026-04-17T07:11:46.517Z</time></trkpt><trkpt lat="45.9698317" lon="12.632725"><ele>39.0</ele><time>2026-04-17T07:23:21.518Z</time></trkpt><trkpt lat="45.9696883" lon="12.63273"><ele>39.0</ele><time>2026-04-17T07:23:45.518Z</time></trkpt><trkpt lat="45.96965" lon="12.6326267"><ele>39.0</ele><time>2026-04-17T07:23:46.605Z</time></trkpt><trkpt lat="45.96961" lon="12.632485"><ele>39.0</ele><time>2026-04-17T07:23:47.519Z</time></trkpt><trkpt lat="45.9695667" lon="12.6323083"><ele>39.0</ele><time>2026-04-17T07:23:48.519Z</time></trkpt><trkpt lat="45.969515" lon="12.6321067"><ele>39.0</ele><time>2026-04-17T07:23:49.52Z</time></trkpt><trkpt lat="45.96946" lon="12.6318933"><ele>39.0</ele><time>2026-04-17T07:23:50.519Z</time></trkpt><trkpt lat="45.9694017" lon="12.63168"><ele>39.0</ele><time>2026-04-17T07:23:51.518Z</time></trkpt><trkpt lat="45.969345" lon="12.63149"><ele>39.0</ele><time>2026-04-17T07:23:52.519Z</time></trkpt><trkpt lat="45.9692983" lon="12.63132"><ele>39.0</ele><time>2026-04-17T07:23:53.52Z</time></trkpt><trkpt lat="45.969255" lon="12.6311683"><ele>39.0</ele><time>2026-04-17T07:23:54.518Z</time></trkpt><trkpt lat="45.9692167" lon="12.6310317"><ele>39.0</ele><time>2026-04-17T07:23:55.519Z</time></trkpt><trkpt lat="45.9691833" lon="12.6309067"><ele>39.0</ele><time>2026-04-17T07:23:56.52Z</time></trkpt><trkpt lat="45.9691517" lon="12.6307833"><ele>39.0</ele><time>2026-04-17T07:23:57.518Z</time></trkpt><trkpt lat="45.9691183" lon="12.6306633"><ele>39.0</ele><time>2026-04-17T07:23:58.518Z</time></trkpt><trkpt lat="45.9690917" lon="12.6305533"><ele>39.0</ele><time>2026-04-17T07:23:59.518Z</time></trkpt><trkpt lat="45.9690833" lon="12.6304583"><ele>39.0</ele><time>2026-04-17T07:24:00.519Z</time></trkpt><trkpt lat="45.9691367" lon="12.6303433"><ele>39.0</ele><time>2026-04-17T07:24:02.52Z</time></trkpt><trkpt lat="45.9692217" lon="12.6303267"><ele>39.0</ele><time>2026-04-17T07:24:03.518Z</time></trkpt><trkpt lat="45.9693133" lon="12.6303067"><ele>39.0</ele><time>2026-04-17T07:24:04.518Z</time></trkpt><trkpt lat="45.969425" lon="12.6302817"><ele>39.0</ele><time>2026-04-17T07:24:05.521Z</time></trkpt><trkpt lat="45.9695483" lon="12.6302467"><ele>39.0</ele><time>2026-04-17T07:24:06.518Z</time></trkpt><trkpt lat="45.9696833" lon="12.6302067"><ele>39.0</ele><time>2026-04-17T07:24:07.519Z</time></trkpt><trkpt lat="45.9698233" lon="12.63017"><ele>39.0</ele><time>2026-04-17T07:24:08.518Z</time></trkpt><trkpt lat="45.9699567" lon="12.6301417"><ele>39.25</ele><time>2026-04-17T07:24:09.518Z</time></trkpt><trkpt lat="45.97009" lon="12.6301167"><ele>39.5</ele><time>2026-04-17T07:24:10.52Z</time></trkpt><trkpt lat="45.970225" lon="12.6300883"><ele>39.75</ele><time>2026-04-17T07:24:11.518Z</time></trkpt><trkpt lat="45.9703667" lon="12.63006"><ele>40.0</ele><time>2026-04-17T07:24:12.518Z</time></trkpt><trkpt lat="45.9705083" lon="12.6300333"><ele>40.0</ele><time>2026-04-17T07:24:13.518Z</time></trkpt><trkpt lat="45.9706533" lon="12.6299983"><ele>40.0</ele><time>2026-04-17T07:24:14.519Z</time></trkpt><trkpt lat="45.9708" lon="12.6299617"><ele>40.0</ele><time>2026-04-17T07:24:15.518Z</time></trkpt><trkpt lat="45.9709483" lon="12.6299267"><ele>40.0</ele><time>2026-04-17T07:24:16.518Z</time></trkpt><trkpt lat="45.9710933" lon="12.6298933"><ele>40.2</ele><time>2026-04-17T07:24:17.521Z</time></trkpt><trkpt lat="45.971225" lon="12.6298617"><ele>40.4</ele><time>2026-04-17T07:24:18.518Z</time></trkpt><trkpt lat="45.9713483" lon="12.62983"><ele>40.599999999999994</ele><time>2026-04-17T07:24:19.519Z</time></trkpt><trkpt lat="45.9714517" lon="12.6298"><ele>40.8</ele><time>2026-04-17T07:24:20.522Z</time></trkpt><trkpt lat="45.9715333" lon="12.6297717"><ele>41.0</ele><time>2026-04-17T07:24:21.518Z</time></trkpt><trkpt lat="45.9715967" lon="12.6297283"><ele>41.0</ele><time>2026-04-17T07:24:22.518Z</time></trkpt><trkpt lat="45.97165" lon="12.6296633"><ele>41.0</ele><time>2026-04-17T07:24:23.518Z</time></trkpt><trkpt lat="45.97169" lon="12.62958"><ele>41.0</ele><time>2026-04-17T07:24:24.518Z</time></trkpt><trkpt lat="45.9717117" lon="12.6294783"><ele>41.0</ele><time>2026-04-17T07:24:25.52Z</time></trkpt><trkpt lat="45.9717167" lon="12.62936"><ele>41.0</ele><time>2026-04-17T07:24:26.519Z</time></trkpt><trkpt lat="45.9717067" lon="12.629215"><ele>41.0</ele><time>2026-04-17T07:24:27.518Z</time></trkpt><trkpt lat="45.97169" lon="12.6290467"><ele>41.0</ele><time>2026-04-17T07:24:28.518Z</time></trkpt><trkpt lat="45.9716833" lon="12.628855"><ele>41.0</ele><time>2026-04-17T07:24:29.519Z</time></trkpt><trkpt lat="45.9716883" lon="12.6286483"><ele>41.0</ele><time>2026-04-17T07:24:30.518Z</time></trkpt><trkpt lat="45.9717017" lon="12.6284483"><ele>41.0</ele><time>2026-04-17T07:24:31.52Z</time></trkpt><trkpt lat="45.97172" lon="12.628275"><ele>41.4</ele><time>2026-04-17T07:24:32.52Z</time></trkpt><trkpt lat="45.9717417" lon="12.628145"><ele>41.8</ele><time>2026-04-17T07:24:33.518Z</time></trkpt><trkpt lat="45.97177" lon="12.62805"><ele>42.199999999999996</ele><time>2026-04-17T07:24:34.519Z</time></trkpt><trkpt lat="45.9718667" lon="12.62794"><ele>42.599999999999994</ele><time>2026-04-17T07:24:36.518Z</time></trkpt><trkpt lat="45.9719533" lon="12.6279117"><ele>43.0</ele><time>2026-04-17T07:24:37.518Z</time></trkpt><trkpt lat="45.97207" lon="12.6278867"><ele>43.0</ele><time>2026-04-17T07:24:38.518Z</time></trkpt><trkpt lat="45.9722133" lon="12.6278567"><ele>43.0</ele><time>2026-04-17T07:24:39.519Z</time></trkpt><trkpt lat="45.9723717" lon="12.6278183"><ele>43.0</ele><time>2026-04-17T07:24:40.522Z</time></trkpt><trkpt lat="45.9725467" lon="12.6277717"><ele>42.66666666666667</ele><time>2026-04-17T07:24:41.521Z</time></trkpt><trkpt lat="45.9727367" lon="12.62771"><ele>42.333333333333336</ele><time>2026-04-17T07:24:42.518Z</time></trkpt><trkpt lat="45.97294" lon="12.6276417"><ele>42.0</ele><time>2026-04-17T07:24:43.521Z</time></trkpt><trkpt lat="45.9731567" lon="12.627565"><ele>43.5</ele><time>2026-04-17T07:24:44.519Z</time></trkpt><trkpt lat="45.97338" lon="12.6274867"><ele>45.0</ele><time>2026-04-17T07:24:45.519Z</time></trkpt><trkpt lat="45.97361" lon="12.627405"><ele>45.0</ele><time>2026-04-17T07:24:46.518Z</time></trkpt><trkpt lat="45.973835" lon="12.6273233"><ele>45.0</ele><time>2026-04-17T07:24:47.52Z</time></trkpt><trkpt lat="45.9740533" lon="12.6272467"><ele>45.0</ele><time>2026-04-17T07:24:48.518Z</time></trkpt><trkpt lat="45.9742567" lon="12.62718"><ele>45.0</ele><time>2026-04-17T07:24:49.52Z</time></trkpt><trkpt lat="45.974445" lon="12.62713"><ele>45.0</ele><time>2026-04-17T07:24:50.52Z</time></trkpt><trkpt lat="45.9746217" lon="12.6270817"><ele>45.0</ele><time>2026-04-17T07:24:51.52Z</time></trkpt><trkpt lat="45.97479" lon="12.6270317"><ele>45.0</ele><time>2026-04-17T07:24:52.518Z</time></trkpt><trkpt lat="45.974955" lon="12.62698"><ele>45.0</ele><time>2026-04-17T07:24:53.519Z</time></trkpt><trkpt lat="45.9751267" lon="12.6269183"><ele>46.33333333333333</ele><time>2026-04-17T07:24:54.518Z</time></trkpt><trkpt lat="45.975305" lon="12.6268417"><ele>47.666666666666664</ele><time>2026-04-17T07:24:55.519Z</time></trkpt><trkpt lat="45.9754867" lon="12.62676"><ele>49.0</ele><time>2026-04-17T07:24:56.519Z</time></trkpt><trkpt lat="45.9756683" lon="12.6266783"><ele>49.0</ele><time>2026-04-17T07:24:57.526Z</time></trkpt><trkpt lat="45.9758533" lon="12.6265967"><ele>49.0</ele><time>2026-04-17T07:24:58.517Z</time></trkpt><trkpt lat="45.9760367" lon="12.6265167"><ele>49.0</ele><time>2026-04-17T07:24:59.522Z</time></trkpt><trkpt lat="45.9762183" lon="12.626435"><ele>49.0</ele><time>2026-04-17T07:25:00.517Z</time></trkpt><trkpt lat="45.9763983" lon="12.6263567"><ele>49.0</ele><time>2026-04-17T07:25:01.518Z</time></trkpt><trkpt lat="45.9765783" lon="12.6262767"><ele>49.0</ele><time>2026-04-17T07:25:02.518Z</time></trkpt><trkpt lat="45.9767617" lon="12.6261933"><ele>49.0</ele><time>2026-04-17T07:25:03.524Z</time></trkpt><trkpt lat="45.9769467" lon="12.6261117"><ele>49.0</ele><time>2026-04-17T07:25:04.521Z</time></trkpt><trkpt lat="45.9771333" lon="12.626025"><ele>49.0</ele><time>2026-04-17T07:25:05.518Z</time></trkpt><trkpt lat="45.9773233" lon="12.62594"><ele>49.33333333333333</ele><time>2026-04-17T07:25:06.519Z</time></trkpt><trkpt lat="45.9775217" lon="12.62585"><ele>49.66666666666667</ele><time>2026-04-17T07:25:07.518Z</time></trkpt><trkpt lat="45.9777283" lon="12.62576"><ele>50.0</ele><time>2026-04-17T07:25:08.519Z</time></trkpt><trkpt lat="45.9779467" lon="12.625665"><ele>50.0</ele><time>2026-04-17T07:25:09.519Z</time></trkpt><trkpt lat="45.978175" lon="12.6255633"><ele>50.0</ele><time>2026-04-17T07:25:10.517Z</time></trkpt><trkpt lat="45.9784117" lon="12.6254583"><ele>50.5</ele><time>2026-04-17T07:25:11.517Z</time></trkpt><trkpt lat="45.9786533" lon="12.6253483"><ele>51.0</ele><time>2026-04-17T07:25:12.52Z</time></trkpt><trkpt lat="45.9789083" lon="12.6252333"><ele>51.0</ele><time>2026-04-17T07:25:13.521Z</time></trkpt><trkpt lat="45.979165" lon="12.6251083"><ele>51.0</ele><time>2026-04-17T07:25:14.52Z</time></trkpt><trkpt lat="45.9794267" lon="12.6249817"><ele>52.5</ele><time>2026-04-17T07:25:15.519Z</time></trkpt><trkpt lat="45.979695" lon="12.6248517"><ele>54.0</ele><time>2026-04-17T07:25:16.519Z</time></trkpt><trkpt lat="45.9799667" lon="12.6247217"><ele>54.5</ele><time>2026-04-17T07:25:17.523Z</time></trkpt><trkpt lat="45.980245" lon="12.6246017"><ele>55.0</ele><time>2026-04-17T07:25:18.519Z</time></trkpt><trkpt lat="45.980525" lon="12.624485"><ele>55.5</ele><time>2026-04-17T07:25:19.522Z</time></trkpt><trkpt lat="45.9807983" lon="12.6243733"><ele>56.0</ele><time>2026-04-17T07:25:20.519Z</time></trkpt><trkpt lat="45.9810633" lon="12.624265"><ele>57.5</ele><time>2026-04-17T07:25:21.519Z</time></trkpt><trkpt lat="45.9813167" lon="12.6241617"><ele>59.0</ele><time>2026-04-17T07:25:22.518Z</time></trkpt><trkpt lat="45.981565" lon="12.6240633"><ele>57.5</ele><time>2026-04-17T07:25:23.52Z</time></trkpt><trkpt lat="45.981815" lon="12.6239617"><ele>56.0</ele><time>2026-04-17T07:25:24.518Z</time></trkpt><trkpt lat="45.982065" lon="12.62386"><ele>56.0</ele><time>2026-04-17T07:25:25.519Z</time></trkpt><trkpt lat="45.982315" lon="12.6237583"><ele>56.0</ele><time>2026-04-17T07:25:26.52Z</time></trkpt><trkpt lat="45.9825633" lon="12.6236733"><ele>57.0</ele><time>2026-04-17T07:25:27.518Z</time></trkpt><trkpt lat="45.9828" lon="12.6235833"><ele>58.0</ele><time>2026-04-17T07:25:28.518Z</time></trkpt><trkpt lat="45.9830183" lon="12.6234883"><ele>58.0</ele><time>2026-04-17T07:25:29.522Z</time></trkpt><trkpt lat="45.9832283" lon="12.6234"><ele>58.0</ele><time>2026-04-17T07:25:30.518Z</time></trkpt><trkpt lat="45.9834333" lon="12.623315"><ele>58.0</ele><time>2026-04-17T07:25:31.518Z</time></trkpt><trkpt lat="45.9836317" lon="12.623235"><ele>58.33333333333333</ele><time>2026-04-17T07:25:32.519Z</time></trkpt><trkpt lat="45.98382" lon="12.6231583"><ele>58.66666666666667</ele><time>2026-04-17T07:25:33.518Z</time></trkpt><trkpt lat="45.9839983" lon="12.6230883"><ele>59.0</ele><time>2026-04-17T07:25:34.52Z</time></trkpt><trkpt lat="45.9841533" lon="12.623025"><ele>60.0</ele><time>2026-04-17T07:25:35.519Z</time></trkpt><trkpt lat="45.984295" lon="12.6229667"><ele>61.0</ele><time>2026-04-17T07:25:36.518Z</time></trkpt><trkpt lat="45.9844233" lon="12.62292"><ele>62.0</ele><time>2026-04-17T07:25:37.517Z</time></trkpt><trkpt lat="45.9845367" lon="12.62288"><ele>63.0</ele><time>2026-04-17T07:25:38.521Z</time></trkpt><trkpt lat="45.9846417" lon="12.622845"><ele>63.0</ele><time>2026-04-17T07:25:39.518Z</time></trkpt><trkpt lat="45.9847483" lon="12.622825"><ele>63.0</ele><time>2026-04-17T07:25:40.519Z</time></trkpt><trkpt lat="45.9848483" lon="12.6228217"><ele>63.0</ele><time>2026-04-17T07:25:41.52Z</time></trkpt><trkpt lat="45.9849383" lon="12.6228183"><ele>63.0</ele><time>2026-04-17T07:25:42.518Z</time></trkpt><trkpt lat="45.985015" lon="12.6227933"><ele>63.0</ele><time>2026-04-17T07:25:43.522Z</time></trkpt><trkpt lat="45.985075" lon="12.6227383"><ele>63.0</ele><time>2026-04-17T07:25:44.521Z</time></trkpt><trkpt lat="45.9851233" lon="12.622645"><ele>61.75</ele><time>2026-04-17T07:25:45.518Z</time></trkpt><trkpt lat="45.9851717" lon="12.62251"><ele>60.5</ele><time>2026-04-17T07:25:46.519Z</time></trkpt><trkpt lat="45.985235" lon="12.6223583"><ele>59.25</ele><time>2026-04-17T07:25:47.523Z</time></trkpt><trkpt lat="45.98532" lon="12.6222017"><ele>58.0</ele><time>2026-04-17T07:25:48.517Z</time></trkpt><trkpt lat="45.9854217" lon="12.6220467"><ele>59.666666666666664</ele><time>2026-04-17T07:25:49.518Z</time></trkpt><trkpt lat="45.9855333" lon="12.621885"><ele>61.33333333333333</ele><time>2026-04-17T07:25:50.518Z</time></trkpt><trkpt lat="45.98566" lon="12.621725"><ele>63.0</ele><time>2026-04-17T07:25:51.518Z</time></trkpt><trkpt lat="45.9858" lon="12.62158"><ele>62.33333333333333</ele><time>2026-04-17T07:25:52.52Z</time></trkpt><trkpt lat="45.98595" lon="12.6214633"><ele>61.666666666666664</ele><time>2026-04-17T07:25:53.519Z</time></trkpt><trkpt lat="45.98611" lon="12.621365"><ele>61.0</ele><time>2026-04-17T07:25:54.518Z</time></trkpt><trkpt lat="45.986275" lon="12.62127"><ele>61.0</ele><time>2026-04-17T07:25:55.517Z</time></trkpt><trkpt lat="45.9864317" lon="12.6211733"><ele>61.0</ele><time>2026-04-17T07:25:56.519Z</time></trkpt><trkpt lat="45.9865683" lon="12.6210633"><ele>61.0</ele><time>2026-04-17T07:25:57.518Z</time></trkpt><trkpt lat="45.9866767" lon="12.6209383"><ele>61.75</ele><time>2026-04-17T07:25:58.517Z</time></trkpt><trkpt lat="45.9867567" lon="12.6207983"><ele>62.5</ele><time>2026-04-17T07:25:59.519Z</time></trkpt><trkpt lat="45.9868033" lon="12.620645"><ele>63.25</ele><time>2026-04-17T07:26:00.519Z</time></trkpt><trkpt lat="45.9868283" lon="12.6204767"><ele>64.0</ele><time>2026-04-17T07:26:01.519Z</time></trkpt><trkpt lat="45.9868383" lon="12.6202817"><ele>64.66666666666666</ele><time>2026-04-17T07:26:02.519Z</time></trkpt><trkpt lat="45.98685" lon="12.6200633"><ele>65.33333333333333</ele><time>2026-04-17T07:26:03.517Z</time></trkpt><trkpt lat="45.9868733" lon="12.61982"><ele>66.0</ele><time>2026-04-17T07:26:04.519Z</time></trkpt><trkpt lat="45.9869083" lon="12.619565"><ele>66.0</ele><time>2026-04-17T07:26:05.519Z</time></trkpt><trkpt lat="45.9869483" lon="12.6192967"><ele>66.0</ele><time>2026-04-17T07:26:06.519Z</time></trkpt><trkpt lat="45.98699" lon="12.6190167"><ele>66.0</ele><time>2026-04-17T07:26:07.518Z</time></trkpt><trkpt lat="45.98703" lon="12.6187333"><ele>65.66666666666667</ele><time>2026-04-17T07:26:08.52Z</time></trkpt><trkpt lat="45.9870667" lon="12.6184617"><ele>65.33333333333334</ele><time>2026-04-17T07:26:09.518Z</time></trkpt><trkpt lat="45.9871017" lon="12.6182133"><ele>65.0</ele><time>2026-04-17T07:26:10.519Z</time></trkpt><trkpt lat="45.98713" lon="12.6179967"><ele>65.25</ele><time>2026-04-17T07:26:11.52Z</time></trkpt><trkpt lat="45.9871533" lon="12.61779"><ele>65.5</ele><time>2026-04-17T07:26:12.518Z</time></trkpt><trkpt lat="45.9871667" lon="12.6175833"><ele>65.75</ele><time>2026-04-17T07:26:13.519Z</time></trkpt><trkpt lat="45.9871717" lon="12.6173733"><ele>66.0</ele><time>2026-04-17T07:26:14.523Z</time></trkpt><trkpt lat="45.987175" lon="12.617175"><ele>66.0</ele><time>2026-04-17T07:26:15.519Z</time></trkpt><trkpt lat="45.9871733" lon="12.6170033"><ele>66.0</ele><time>2026-04-17T07:26:16.519Z</time></trkpt><trkpt lat="45.9871767" lon="12.6168567"><ele>66.0</ele><time>2026-04-17T07:26:17.519Z</time></trkpt><trkpt lat="45.9871783" lon="12.6167283"><ele>66.0</ele><time>2026-04-17T07:26:18.519Z</time></trkpt><trkpt lat="45.9871867" lon="12.616615"><ele>66.0</ele><time>2026-04-17T07:26:19.519Z</time></trkpt><trkpt lat="45.9872" lon="12.616515"><ele>66.0</ele><time>2026-04-17T07:26:20.518Z</time></trkpt><trkpt lat="45.9872483" lon="12.616365"><ele>66.0</ele><time>2026-04-17T07:26:22.519Z</time></trkpt><trkpt lat="45.9873083" lon="12.6163033"><ele>66.0</ele><time>2026-04-17T07:26:23.519Z</time></trkpt><trkpt lat="45.987395" lon="12.6162583"><ele>66.0</ele><time>2026-04-17T07:26:24.519Z</time></trkpt><trkpt lat="45.9875067" lon="12.6162333"><ele>66.0</ele><time>2026-04-17T07:26:25.519Z</time></trkpt><trkpt lat="45.9876233" lon="12.6162117"><ele>66.0</ele><time>2026-04-17T07:26:26.519Z</time></trkpt><trkpt lat="45.9877417" lon="12.6161883"><ele>66.0</ele><time>2026-04-17T07:26:27.522Z</time></trkpt><trkpt lat="45.9878617" lon="12.6161683"><ele>66.0</ele><time>2026-04-17T07:26:28.517Z</time></trkpt><trkpt lat="45.9879817" lon="12.6161467"><ele>66.0</ele><time>2026-04-17T07:26:29.519Z</time></trkpt><trkpt lat="45.988105" lon="12.6161233"><ele>66.0</ele><time>2026-04-17T07:26:30.521Z</time></trkpt><trkpt lat="45.98823" lon="12.6161"><ele>66.0</ele><time>2026-04-17T07:26:31.519Z</time></trkpt><trkpt lat="45.988365" lon="12.6160767"><ele>66.0</ele><time>2026-04-17T07:26:32.519Z</time></trkpt><trkpt lat="45.9885033" lon="12.6160567"><ele>66.0</ele><time>2026-04-17T07:26:33.518Z</time></trkpt><trkpt lat="45.988645" lon="12.6160483"><ele>66.75</ele><time>2026-04-17T07:26:34.518Z</time></trkpt><trkpt lat="45.9887883" lon="12.6160467"><ele>67.5</ele><time>2026-04-17T07:26:35.519Z</time></trkpt><trkpt lat="45.988935" lon="12.6160567"><ele>68.25</ele><time>2026-04-17T07:26:36.519Z</time></trkpt><trkpt lat="45.989085" lon="12.6160733"><ele>69.0</ele><time>2026-04-17T07:26:37.518Z</time></trkpt><trkpt lat="45.98923" lon="12.6160967"><ele>69.0</ele><time>2026-04-17T07:26:38.517Z</time></trkpt><trkpt lat="45.9893717" lon="12.6161167"><ele>69.0</ele><time>2026-04-17T07:26:39.518Z</time></trkpt><trkpt lat="45.9895083" lon="12.6161383"><ele>69.0</ele><time>2026-04-17T07:26:40.516Z</time></trkpt><trkpt lat="45.9896433" lon="12.6161567"><ele>69.0</ele><time>2026-04-17T07:26:41.519Z</time></trkpt><trkpt lat="45.989775" lon="12.616175"><ele>69.0</ele><time>2026-04-17T07:26:42.519Z</time></trkpt><trkpt lat="45.9899083" lon="12.616195"><ele>69.0</ele><time>2026-04-17T07:26:43.518Z</time></trkpt><trkpt lat="45.99005" lon="12.6162133"><ele>69.0</ele><time>2026-04-17T07:26:44.518Z</time></trkpt><trkpt lat="45.990195" lon="12.6162317"><ele>69.0</ele><time>2026-04-17T07:26:45.517Z</time></trkpt><trkpt lat="45.9903383" lon="12.61625"><ele>69.0</ele><time>2026-04-17T07:26:46.517Z</time></trkpt><trkpt lat="45.990485" lon="12.6162683"><ele>69.0</ele><time>2026-04-17T07:26:47.518Z</time></trkpt><trkpt lat="45.99063" lon="12.61629"><ele>69.0</ele><time>2026-04-17T07:26:48.517Z</time></trkpt><trkpt lat="45.9907717" lon="12.61631"><ele>69.0</ele><time>2026-04-17T07:26:49.519Z</time></trkpt><trkpt lat="45.9909067" lon="12.6163317"><ele>69.5</ele><time>2026-04-17T07:26:50.519Z</time></trkpt><trkpt lat="45.9910417" lon="12.6163533"><ele>70.0</ele><time>2026-04-17T07:26:51.519Z</time></trkpt><trkpt lat="45.9911833" lon="12.6163783"><ele>70.5</ele><time>2026-04-17T07:26:52.518Z</time></trkpt><trkpt lat="45.9913267" lon="12.6164117"><ele>71.0</ele><time>2026-04-17T07:26:53.518Z</time></trkpt><trkpt lat="45.991475" lon="12.6164517"><ele>71.0</ele><time>2026-04-17T07:26:54.518Z</time></trkpt><trkpt lat="45.9916167" lon="12.616495"><ele>71.0</ele><time>2026-04-17T07:26:55.517Z</time></trkpt><trkpt lat="45.9917533" lon="12.6165367"><ele>71.0</ele><time>2026-04-17T07:26:56.519Z</time></trkpt><trkpt lat="45.9918817" lon="12.6165767"><ele>71.0</ele><time>2026-04-17T07:26:57.518Z</time></trkpt><trkpt lat="45.9920083" lon="12.61662"><ele>71.25</ele><time>2026-04-17T07:26:58.518Z</time></trkpt><trkpt lat="45.9921333" lon="12.6166667"><ele>71.5</ele><time>2026-04-17T07:26:59.52Z</time></trkpt><trkpt lat="45.9922583" lon="12.6167133"><ele>71.75</ele><time>2026-04-17T07:27:00.519Z</time></trkpt><trkpt lat="45.9923883" lon="12.6167633"><ele>72.0</ele><time>2026-04-17T07:27:01.519Z</time></trkpt><trkpt lat="45.9925117" lon="12.6168167"><ele>72.25</ele><time>2026-04-17T07:27:02.519Z</time></trkpt><trkpt lat="45.9926333" lon="12.6168717"><ele>72.5</ele><time>2026-04-17T07:27:03.52Z</time></trkpt><trkpt lat="45.9927567" lon="12.616925"><ele>72.75</ele><time>2026-04-17T07:27:04.518Z</time></trkpt><trkpt lat="45.99288" lon="12.61698"><ele>73.0</ele><time>2026-04-17T07:27:05.519Z</time></trkpt><trkpt lat="45.993005" lon="12.617035"><ele>73.0</ele><time>2026-04-17T07:27:06.519Z</time></trkpt><trkpt lat="45.99313" lon="12.6170917"><ele>73.0</ele><time>2026-04-17T07:27:07.518Z</time></trkpt><trkpt lat="45.9932533" lon="12.617145"><ele>73.0</ele><time>2026-04-17T07:27:08.519Z</time></trkpt><trkpt lat="45.99338" lon="12.6171983"><ele>73.0</ele><time>2026-04-17T07:27:09.519Z</time></trkpt><trkpt lat="45.9935083" lon="12.6172533"><ele>73.75</ele><time>2026-04-17T07:27:10.518Z</time></trkpt><trkpt lat="45.9936383" lon="12.6173067"><ele>74.5</ele><time>2026-04-17T07:27:11.519Z</time></trkpt><trkpt lat="45.99377" lon="12.6173517"><ele>75.25</ele><time>2026-04-17T07:27:12.519Z</time></trkpt><trkpt lat="45.9938933" lon="12.617385"><ele>76.0</ele><time>2026-04-17T07:27:13.519Z</time></trkpt><trkpt lat="45.9940117" lon="12.6174033"><ele>76.0</ele><time>2026-04-17T07:27:14.519Z</time></trkpt><trkpt lat="45.9941233" lon="12.6174083"><ele>76.0</ele><time>2026-04-17T07:27:15.517Z</time></trkpt><trkpt lat="45.9942217" lon="12.6174083"><ele>76.0</ele><time>2026-04-17T07:27:16.518Z</time></trkpt><trkpt lat="45.99431" lon="12.6174"><ele>76.0</ele><time>2026-04-17T07:27:17.518Z</time></trkpt><trkpt lat="45.9943917" lon="12.61739"><ele>76.0</ele><time>2026-04-17T07:27:18.518Z</time></trkpt><trkpt lat="45.9944833" lon="12.617375"><ele>76.25</ele><time>2026-04-17T07:27:19.519Z</time></trkpt><trkpt lat="45.9945817" lon="12.6173483"><ele>76.5</ele><time>2026-04-17T07:27:20.519Z</time></trkpt><trkpt lat="45.9946933" lon="12.617305"><ele>76.75</ele><time>2026-04-17T07:27:21.519Z</time></trkpt><trkpt lat="45.9948167" lon="12.617245"><ele>77.0</ele><time>2026-04-17T07:27:22.52Z</time></trkpt><trkpt lat="45.994955" lon="12.6171533"><ele>77.0</ele><time>2026-04-17T07:27:23.518Z</time></trkpt><trkpt lat="45.9950983" lon="12.61704"><ele>77.0</ele><time>2026-04-17T07:27:24.518Z</time></trkpt><trkpt lat="45.9952433" lon="12.6168967"><ele>77.0</ele><time>2026-04-17T07:27:25.518Z</time></trkpt><trkpt lat="45.995385" lon="12.616725"><ele>76.66666666666667</ele><time>2026-04-17T07:27:26.52Z</time></trkpt><trkpt lat="45.9955267" lon="12.6165233"><ele>76.33333333333333</ele><time>2026-04-17T07:27:27.518Z</time></trkpt><trkpt lat="45.995665" lon="12.6163017"><ele>76.0</ele><time>2026-04-17T07:27:28.517Z</time></trkpt><trkpt lat="45.9958083" lon="12.6160633"><ele>76.5</ele><time>2026-04-17T07:27:29.519Z</time></trkpt><trkpt lat="45.9959567" lon="12.6158167"><ele>77.0</ele><time>2026-04-17T07:27:30.518Z</time></trkpt><trkpt lat="45.9961083" lon="12.61556"><ele>76.0</ele><time>2026-04-17T07:27:31.518Z</time></trkpt><trkpt lat="45.996265" lon="12.615295"><ele>75.0</ele><time>2026-04-17T07:27:32.519Z</time></trkpt><trkpt lat="45.9964283" lon="12.6150183"><ele>75.0</ele><time>2026-04-17T07:27:33.518Z</time></trkpt><trkpt lat="45.9965967" lon="12.61474"><ele>75.0</ele><time>2026-04-17T07:27:34.518Z</time></trkpt><trkpt lat="45.9967667" lon="12.6144567"><ele>77.0</ele><time>2026-04-17T07:27:35.519Z</time></trkpt><trkpt lat="45.9969417" lon="12.6141633"><ele>79.0</ele><time>2026-04-17T07:27:36.519Z</time></trkpt><trkpt lat="45.9971233" lon="12.613865"><ele>79.5</ele><time>2026-04-17T07:27:37.517Z</time></trkpt><trkpt lat="45.9973067" lon="12.6135633"><ele>80.0</ele><time>2026-04-17T07:27:38.522Z</time></trkpt><trkpt lat="45.9974917" lon="12.6132567"><ele>80.5</ele><time>2026-04-17T07:27:39.518Z</time></trkpt><trkpt lat="45.9976783" lon="12.6129483"><ele>81.0</ele><time>2026-04-17T07:27:40.518Z</time></trkpt><trkpt lat="45.99786" lon="12.6126483"><ele>81.0</ele><time>2026-04-17T07:27:41.518Z</time></trkpt><trkpt lat="45.99804" lon="12.6123667"><ele>81.0</ele><time>2026-04-17T07:27:42.518Z</time></trkpt><trkpt lat="45.9982183" lon="12.612095"><ele>80.5</ele><time>2026-04-17T07:27:43.519Z</time></trkpt><trkpt lat="45.9984017" lon="12.611835"><ele>80.0</ele><time>2026-04-17T07:27:44.518Z</time></trkpt><trkpt lat="45.998585" lon="12.6115883"><ele>80.0</ele><time>2026-04-17T07:27:45.517Z</time></trkpt><trkpt lat="45.998765" lon="12.6113617"><ele>80.0</ele><time>2026-04-17T07:27:46.518Z</time></trkpt><trkpt lat="45.998935" lon="12.611155"><ele>79.66666666666667</ele><time>2026-04-17T07:27:47.518Z</time></trkpt><trkpt lat="45.999095" lon="12.6109683"><ele>79.33333333333333</ele><time>2026-04-17T07:27:48.518Z</time></trkpt><trkpt lat="45.9992467" lon="12.6107933"><ele>79.0</ele><time>2026-04-17T07:27:49.521Z</time></trkpt><trkpt lat="45.9993883" lon="12.6106283"><ele>79.66666666666666</ele><time>2026-04-17T07:27:50.518Z</time></trkpt><trkpt lat="45.9995217" lon="12.6104783"><ele>80.33333333333333</ele><time>2026-04-17T07:27:51.518Z</time></trkpt><trkpt lat="45.9996467" lon="12.6103417"><ele>81.0</ele><time>2026-04-17T07:27:52.518Z</time></trkpt><trkpt lat="45.9997683" lon="12.6102183"><ele>81.0</ele><time>2026-04-17T07:27:53.52Z</time></trkpt><trkpt lat="45.99988" lon="12.610115"><ele>81.0</ele><time>2026-04-17T07:27:54.518Z</time></trkpt><trkpt lat="45.9999733" lon="12.61004"><ele>81.0</ele><time>2026-04-17T07:27:55.518Z</time></trkpt><trkpt lat="46.0000433" lon="12.6099967"><ele>81.0</ele><time>2026-04-17T07:27:56.519Z</time></trkpt><trkpt lat="46.0001117" lon="12.6099617"><ele>81.0</ele><time>2026-04-17T07:27:58.518Z</time></trkpt><trkpt lat="46.0002017" lon="12.60995"><ele>81.0</ele><time>2026-04-17T07:28:00.519Z</time></trkpt><trkpt lat="46.0002783" lon="12.6099533"><ele>81.0</ele><time>2026-04-17T07:28:01.518Z</time></trkpt><trkpt lat="46.0003667" lon="12.6099383"><ele>81.0</ele><time>2026-04-17T07:28:02.519Z</time></trkpt><trkpt lat="46.0004517" lon="12.6098883"><ele>81.0</ele><time>2026-04-17T07:28:03.518Z</time></trkpt><trkpt lat="46.000515" lon="12.6098067"><ele>81.0</ele><time>2026-04-17T07:28:04.518Z</time></trkpt><trkpt lat="46.0005533" lon="12.6096883"><ele>81.0</ele><time>2026-04-17T07:28:05.517Z</time></trkpt><trkpt lat="46.00056" lon="12.609545"><ele>80.8</ele><time>2026-04-17T07:28:06.518Z</time></trkpt><trkpt lat="46.0005567" lon="12.6093933"><ele>80.6</ele><time>2026-04-17T07:28:07.518Z</time></trkpt><trkpt lat="46.000565" lon="12.60924"><ele>80.4</ele><time>2026-04-17T07:28:08.52Z</time></trkpt><trkpt lat="46.000605" lon="12.6090933"><ele>80.2</ele><time>2026-04-17T07:28:09.518Z</time></trkpt><trkpt lat="46.0006733" lon="12.6089567"><ele>80.0</ele><time>2026-04-17T07:28:10.518Z</time></trkpt><trkpt lat="46.00077" lon="12.60882"><ele>80.33333333333334</ele><time>2026-04-17T07:28:11.518Z</time></trkpt><trkpt lat="46.0008817" lon="12.6086783"><ele>80.66666666666667</ele><time>2026-04-17T07:28:12.518Z</time></trkpt><trkpt lat="46.0010017" lon="12.6085233"><ele>81.0</ele><time>2026-04-17T07:28:13.524Z</time></trkpt><trkpt lat="46.00113" lon="12.6083533"><ele>81.0</ele><time>2026-04-17T07:28:14.522Z</time></trkpt><trkpt lat="46.0012667" lon="12.6081767"><ele>81.0</ele><time>2026-04-17T07:28:15.518Z</time></trkpt><trkpt lat="46.0014067" lon="12.6079967"><ele>81.0</ele><time>2026-04-17T07:28:16.518Z</time></trkpt><trkpt lat="46.0015567" lon="12.6078067"><ele>80.66666666666667</ele><time>2026-04-17T07:28:17.522Z</time></trkpt><trkpt lat="46.0017083" lon="12.6076033"><ele>80.33333333333334</ele><time>2026-04-17T07:28:18.518Z</time></trkpt><trkpt lat="46.00186" lon="12.6073883"><ele>80.0</ele><time>2026-04-17T07:28:19.52Z</time></trkpt><trkpt lat="46.00201" lon="12.6071567"><ele>79.5</ele><time>2026-04-17T07:28:20.519Z</time></trkpt><trkpt lat="46.00216" lon="12.6069117"><ele>79.0</ele><time>2026-04-17T07:28:21.519Z</time></trkpt><trkpt lat="46.00231" lon="12.6066567"><ele>79.0</ele><time>2026-04-17T07:28:22.519Z</time></trkpt><trkpt lat="46.00246" lon="12.6063917"><ele>79.0</ele><time>2026-04-17T07:28:23.522Z</time></trkpt><trkpt lat="46.00261" lon="12.606125"><ele>80.5</ele><time>2026-04-17T07:28:24.518Z</time></trkpt><trkpt lat="46.00276" lon="12.6058517"><ele>82.0</ele><time>2026-04-17T07:28:25.519Z</time></trkpt><trkpt lat="46.0029117" lon="12.6055783"><ele>81.0</ele><time>2026-04-17T07:28:26.521Z</time></trkpt><trkpt lat="46.00306" lon="12.6053067"><ele>80.0</ele><time>2026-04-17T07:28:27.518Z</time></trkpt><trkpt lat="46.003205" lon="12.6050383"><ele>80.5</ele><time>2026-04-17T07:28:28.518Z</time></trkpt><trkpt lat="46.0033517" lon="12.604775"><ele>81.0</ele><time>2026-04-17T07:28:29.517Z</time></trkpt><trkpt lat="46.003495" lon="12.604515"><ele>80.0</ele><time>2026-04-17T07:28:30.517Z</time></trkpt><trkpt lat="46.00364" lon="12.6042567"><ele>79.0</ele><time>2026-04-17T07:28:31.518Z</time></trkpt><trkpt lat="46.0037883" lon="12.6040083"><ele>79.0</ele><time>2026-04-17T07:28:32.52Z</time></trkpt><trkpt lat="46.0039383" lon="12.6037667"><ele>79.0</ele><time>2026-04-17T07:28:33.518Z</time></trkpt><trkpt lat="46.00409" lon="12.60353"><ele>79.0</ele><time>2026-04-17T07:28:34.52Z</time></trkpt><trkpt lat="46.004245" lon="12.6033017"><ele>80.0</ele><time>2026-04-17T07:28:35.519Z</time></trkpt><trkpt lat="46.0044" lon="12.6030833"><ele>81.0</ele><time>2026-04-17T07:28:36.518Z</time></trkpt><trkpt lat="46.004555" lon="12.6028767"><ele>82.0</ele><time>2026-04-17T07:28:37.519Z</time></trkpt><trkpt lat="46.0047083" lon="12.6026733"><ele>82.0</ele><time>2026-04-17T07:28:38.518Z</time></trkpt><trkpt lat="46.0048617" lon="12.6024717"><ele>82.0</ele><time>2026-04-17T07:28:39.518Z</time></trkpt><trkpt lat="46.0050217" lon="12.60226"><ele>82.0</ele><time>2026-04-17T07:28:40.52Z</time></trkpt><trkpt lat="46.0051883" lon="12.6020317"><ele>83.0</ele><time>2026-04-17T07:28:41.518Z</time></trkpt><trkpt lat="46.0053667" lon="12.6017917"><ele>84.0</ele><time>2026-04-17T07:28:42.519Z</time></trkpt><trkpt lat="46.0055533" lon="12.6015367"><ele>84.0</ele><time>2026-04-17T07:28:43.519Z</time></trkpt><trkpt lat="46.005755" lon="12.601265"><ele>84.0</ele><time>2026-04-17T07:28:44.519Z</time></trkpt><trkpt lat="46.0059617" lon="12.60098"><ele>83.5</ele><time>2026-04-17T07:28:45.517Z</time></trkpt><trkpt lat="46.0061767" lon="12.6006817"><ele>83.0</ele><time>2026-04-17T07:28:46.518Z</time></trkpt><trkpt lat="46.0064067" lon="12.6003617"><ele>83.5</ele><time>2026-04-17T07:28:47.52Z</time></trkpt><trkpt lat="46.0066533" lon="12.6000183"><ele>84.0</ele><time>2026-04-17T07:28:48.517Z</time></trkpt><trkpt lat="46.0069133" lon="12.599665"><ele>85.5</ele><time>2026-04-17T07:28:49.52Z</time></trkpt><trkpt lat="46.007175" lon="12.599325"><ele>87.0</ele><time>2026-04-17T07:28:50.519Z</time></trkpt><trkpt lat="46.0074233" lon="12.5990117"><ele>87.0</ele><time>2026-04-17T07:28:51.52Z</time></trkpt><trkpt lat="46.0076583" lon="12.598725"><ele>87.0</ele><time>2026-04-17T07:28:52.518Z</time></trkpt><trkpt lat="46.00788" lon="12.5984567"><ele>87.5</ele><time>2026-04-17T07:28:53.519Z</time></trkpt><trkpt lat="46.008095" lon="12.5982"><ele>88.0</ele><time>2026-04-17T07:28:54.518Z</time></trkpt><trkpt lat="46.0083033" lon="12.5979467"><ele>88.0</ele><time>2026-04-17T07:28:55.52Z</time></trkpt><trkpt lat="46.008515" lon="12.5976883"><ele>88.0</ele><time>2026-04-17T07:28:56.521Z</time></trkpt><trkpt lat="46.0087217" lon="12.5974333"><ele>88.0</ele><time>2026-04-17T07:28:57.518Z</time></trkpt><trkpt lat="46.00893" lon="12.5971767"><ele>88.0</ele><time>2026-04-17T07:28:58.518Z</time></trkpt><trkpt lat="46.0091367" lon="12.5969217"><ele>88.0</ele><time>2026-04-17T07:28:59.518Z</time></trkpt><trkpt lat="46.0093467" lon="12.596675"><ele>88.0</ele><time>2026-04-17T07:29:00.518Z</time></trkpt><trkpt lat="46.009545" lon="12.5964217"><ele>88.0</ele><time>2026-04-17T07:29:01.519Z</time></trkpt><trkpt lat="46.0097367" lon="12.5961767"><ele>88.0</ele><time>2026-04-17T07:29:02.518Z</time></trkpt><trkpt lat="46.00993" lon="12.5959433"><ele>89.0</ele><time>2026-04-17T07:29:03.519Z</time></trkpt><trkpt lat="46.0101367" lon="12.5957217"><ele>90.0</ele><time>2026-04-17T07:29:04.518Z</time></trkpt><trkpt lat="46.010295" lon="12.5954367"><ele>89.0</ele><time>2026-04-17T07:29:05.52Z</time></trkpt><trkpt lat="46.010465" lon="12.5951833"><ele>88.0</ele><time>2026-04-17T07:29:06.519Z</time></trkpt><trkpt lat="46.010635" lon="12.5949383"><ele>88.0</ele><time>2026-04-17T07:29:07.518Z</time></trkpt><trkpt lat="46.010795" lon="12.594705"><ele>88.0</ele><time>2026-04-17T07:29:08.519Z</time></trkpt><trkpt lat="46.0109467" lon="12.59448"><ele>88.0</ele><time>2026-04-17T07:29:09.518Z</time></trkpt><trkpt lat="46.01109" lon="12.5942667"><ele>88.0</ele><time>2026-04-17T07:29:10.518Z</time></trkpt><trkpt lat="46.0112283" lon="12.594065"><ele>88.0</ele><time>2026-04-17T07:29:11.518Z</time></trkpt><trkpt lat="46.0113633" lon="12.5938683"><ele>88.0</ele><time>2026-04-17T07:29:12.518Z</time></trkpt><trkpt lat="46.0114933" lon="12.59368"><ele>88.0</ele><time>2026-04-17T07:29:13.518Z</time></trkpt><trkpt lat="46.01162" lon="12.593495"><ele>88.0</ele><time>2026-04-17T07:29:14.518Z</time></trkpt><trkpt lat="46.0117417" lon="12.5933183"><ele>88.0</ele><time>2026-04-17T07:29:15.517Z</time></trkpt><trkpt lat="46.0118517" lon="12.59316"><ele>88.0</ele><time>2026-04-17T07:29:16.517Z</time></trkpt><trkpt lat="46.0119583" lon="12.59302"><ele>88.0</ele><time>2026-04-17T07:29:17.519Z</time></trkpt><trkpt lat="46.0120617" lon="12.5928967"><ele>88.0</ele><time>2026-04-17T07:29:18.518Z</time></trkpt><trkpt lat="46.01216" lon="12.5927883"><ele>88.0</ele><time>2026-04-17T07:29:19.518Z</time></trkpt><trkpt lat="46.0122517" lon="12.59269"><ele>88.0</ele><time>2026-04-17T07:29:20.519Z</time></trkpt><trkpt lat="46.0123383" lon="12.5926083"><ele>88.0</ele><time>2026-04-17T07:29:21.518Z</time></trkpt><trkpt lat="46.0124233" lon="12.5925583"><ele>88.0</ele><time>2026-04-17T07:29:22.518Z</time></trkpt><trkpt lat="46.0125067" lon="12.5925417"><ele>88.0</ele><time>2026-04-17T07:29:23.517Z</time></trkpt><trkpt lat="46.0125883" lon="12.5925733"><ele>88.0</ele><time>2026-04-17T07:29:24.518Z</time></trkpt><trkpt lat="46.01266" lon="12.592675"><ele>88.66666666666666</ele><time>2026-04-17T07:29:25.52Z</time></trkpt><trkpt lat="46.0127317" lon="12.5928283"><ele>89.33333333333333</ele><time>2026-04-17T07:29:26.518Z</time></trkpt><trkpt lat="46.0128083" lon="12.5930317"><ele>90.0</ele><time>2026-04-17T07:29:27.521Z</time></trkpt><trkpt lat="46.0128983" lon="12.59327"><ele>90.0</ele><time>2026-04-17T07:29:28.518Z</time></trkpt><trkpt lat="46.013005" lon="12.59353"><ele>90.0</ele><time>2026-04-17T07:29:29.519Z</time></trkpt><trkpt lat="46.0131233" lon="12.593805"><ele>90.0</ele><time>2026-04-17T07:29:30.518Z</time></trkpt><trkpt lat="46.0132517" lon="12.5940967"><ele>90.0</ele><time>2026-04-17T07:29:31.518Z</time></trkpt><trkpt lat="46.0133817" lon="12.5943983"><ele>90.0</ele><time>2026-04-17T07:29:32.518Z</time></trkpt><trkpt lat="46.0135083" lon="12.5946983"><ele>91.5</ele><time>2026-04-17T07:29:33.518Z</time></trkpt><trkpt lat="46.0136317" lon="12.594995"><ele>93.0</ele><time>2026-04-17T07:29:34.52Z</time></trkpt><trkpt lat="46.0137567" lon="12.5952867"><ele>93.0</ele><time>2026-04-17T07:29:35.522Z</time></trkpt><trkpt lat="46.01388" lon="12.5955733"><ele>93.0</ele><time>2026-04-17T07:29:36.517Z</time></trkpt><trkpt lat="46.0140017" lon="12.595855"><ele>93.0</ele><time>2026-04-17T07:29:37.519Z</time></trkpt><trkpt lat="46.0141217" lon="12.5961333"><ele>93.0</ele><time>2026-04-17T07:29:38.519Z</time></trkpt><trkpt lat="46.01424" lon="12.5964083"><ele>92.5</ele><time>2026-04-17T07:29:39.519Z</time></trkpt><trkpt lat="46.0143583" lon="12.5966817"><ele>92.0</ele><time>2026-04-17T07:29:40.518Z</time></trkpt><trkpt lat="46.0144817" lon="12.5969617"><ele>92.5</ele><time>2026-04-17T07:29:41.518Z</time></trkpt><trkpt lat="46.0146067" lon="12.5972467"><ele>93.0</ele><time>2026-04-17T07:29:42.518Z</time></trkpt><trkpt lat="46.0147367" lon="12.5975417"><ele>93.0</ele><time>2026-04-17T07:29:43.519Z</time></trkpt><trkpt lat="46.0148733" lon="12.5978517"><ele>93.0</ele><time>2026-04-17T07:29:44.519Z</time></trkpt><trkpt lat="46.0150133" lon="12.598175"><ele>93.5</ele><time>2026-04-17T07:29:45.518Z</time></trkpt><trkpt lat="46.0151583" lon="12.5985117"><ele>94.0</ele><time>2026-04-17T07:29:46.517Z</time></trkpt><trkpt lat="46.0153083" lon="12.5988533"><ele>94.0</ele><time>2026-04-17T07:29:47.518Z</time></trkpt><trkpt lat="46.0154583" lon="12.599195"><ele>94.0</ele><time>2026-04-17T07:29:48.519Z</time></trkpt><trkpt lat="46.0156067" lon="12.59953"><ele>94.0</ele><time>2026-04-17T07:29:49.519Z</time></trkpt><trkpt lat="46.0157517" lon="12.599865"><ele>94.0</ele><time>2026-04-17T07:29:50.518Z</time></trkpt><trkpt lat="46.0158933" lon="12.6001967"><ele>94.5</ele><time>2026-04-17T07:29:51.518Z</time></trkpt><trkpt lat="46.0160233" lon="12.60053"><ele>95.0</ele><time>2026-04-17T07:29:52.518Z</time></trkpt><trkpt lat="46.0161367" lon="12.6008767"><ele>95.5</ele><time>2026-04-17T07:29:53.519Z</time></trkpt><trkpt lat="46.0162383" lon="12.6012317"><ele>96.0</ele><time>2026-04-17T07:29:54.518Z</time></trkpt><trkpt lat="46.0163333" lon="12.6015917"><ele>96.0</ele><time>2026-04-17T07:29:55.519Z</time></trkpt><trkpt lat="46.0164317" lon="12.60196"><ele>96.0</ele><time>2026-04-17T07:29:56.52Z</time></trkpt><trkpt lat="46.0165317" lon="12.602335"><ele>97.0</ele><time>2026-04-17T07:29:57.519Z</time></trkpt><trkpt lat="46.0166333" lon="12.60272"><ele>98.0</ele><time>2026-04-17T07:29:58.519Z</time></trkpt><trkpt lat="46.0167433" lon="12.60312"><ele>98.0</ele><time>2026-04-17T07:29:59.518Z</time></trkpt><trkpt lat="46.0168533" lon="12.6035317"><ele>98.0</ele><time>2026-04-17T07:30:00.518Z</time></trkpt><trkpt lat="46.01697" lon="12.6039533"><ele>98.5</ele><time>2026-04-17T07:30:01.523Z</time></trkpt><trkpt lat="46.0170883" lon="12.60438"><ele>99.0</ele><time>2026-04-17T07:30:02.518Z</time></trkpt><trkpt lat="46.0172067" lon="12.604815"><ele>99.0</ele><time>2026-04-17T07:30:03.523Z</time></trkpt><trkpt lat="46.01733" lon="12.6052583"><ele>99.0</ele><time>2026-04-17T07:30:04.519Z</time></trkpt><trkpt lat="46.017455" lon="12.6057083"><ele>100.0</ele><time>2026-04-17T07:30:05.519Z</time></trkpt><trkpt lat="46.0175783" lon="12.6061617"><ele>101.0</ele><time>2026-04-17T07:30:06.519Z</time></trkpt><trkpt lat="46.0177" lon="12.6066167"><ele>101.0</ele><time>2026-04-17T07:30:07.521Z</time></trkpt><trkpt lat="46.0178117" lon="12.6070767"><ele>101.0</ele><time>2026-04-17T07:30:08.518Z</time></trkpt><trkpt lat="46.0179117" lon="12.6075433"><ele>100.0</ele><time>2026-04-17T07:30:09.518Z</time></trkpt><trkpt lat="46.017995" lon="12.6079967"><ele>99.0</ele><time>2026-04-17T07:30:10.518Z</time></trkpt><trkpt lat="46.0180683" lon="12.6084233"><ele>98.5</ele><time>2026-04-17T07:30:11.52Z</time></trkpt><trkpt lat="46.0181367" lon="12.6088267"><ele>98.0</ele><time>2026-04-17T07:30:12.518Z</time></trkpt><trkpt lat="46.0182067" lon="12.6092"><ele>99.5</ele><time>2026-04-17T07:30:13.519Z</time></trkpt><trkpt lat="46.0182967" lon="12.6095517"><ele>101.0</ele><time>2026-04-17T07:30:14.519Z</time></trkpt><trkpt lat="46.0184233" lon="12.609885"><ele>101.0</ele><time>2026-04-17T07:30:15.518Z</time></trkpt><trkpt lat="46.0185867" lon="12.6102033"><ele>101.0</ele><time>2026-04-17T07:30:16.519Z</time></trkpt><trkpt lat="46.018775" lon="12.6105083"><ele>101.0</ele><time>2026-04-17T07:30:17.518Z</time></trkpt><trkpt lat="46.01898" lon="12.6107917"><ele>101.0</ele><time>2026-04-17T07:30:18.518Z</time></trkpt><trkpt lat="46.019205" lon="12.6110633"><ele>100.5</ele><time>2026-04-17T07:30:19.52Z</time></trkpt><trkpt lat="46.01943" lon="12.6113333"><ele>100.0</ele><time>2026-04-17T07:30:20.519Z</time></trkpt><trkpt lat="46.019655" lon="12.6116017"><ele>100.0</ele><time>2026-04-17T07:30:21.518Z</time></trkpt><trkpt lat="46.0198817" lon="12.61187"><ele>100.0</ele><time>2026-04-17T07:30:22.519Z</time></trkpt><trkpt lat="46.0201083" lon="12.612145"><ele>101.0</ele><time>2026-04-17T07:30:23.518Z</time></trkpt><trkpt lat="46.0203383" lon="12.6124183"><ele>102.0</ele><time>2026-04-17T07:30:24.518Z</time></trkpt><trkpt lat="46.020565" lon="12.61269"><ele>103.0</ele><time>2026-04-17T07:30:25.517Z</time></trkpt><trkpt lat="46.0207833" lon="12.6129517"><ele>104.0</ele><time>2026-04-17T07:30:26.519Z</time></trkpt><trkpt lat="46.02099" lon="12.6132"><ele>104.0</ele><time>2026-04-17T07:30:27.519Z</time></trkpt><trkpt lat="46.0211833" lon="12.61343"><ele>104.0</ele><time>2026-04-17T07:30:28.519Z</time></trkpt><trkpt lat="46.02138" lon="12.6136483"><ele>104.5</ele><time>2026-04-17T07:30:29.52Z</time></trkpt><trkpt lat="46.0215817" lon="12.6138517"><ele>105.0</ele><time>2026-04-17T07:30:30.519Z</time></trkpt><trkpt lat="46.021795" lon="12.6140467"><ele>106.0</ele><time>2026-04-17T07:30:31.519Z</time></trkpt><trkpt lat="46.022015" lon="12.614235"><ele>107.0</ele><time>2026-04-17T07:30:32.52Z</time></trkpt><trkpt lat="46.0222417" lon="12.6144217"><ele>107.0</ele><time>2026-04-17T07:30:33.518Z</time></trkpt><trkpt lat="46.0224717" lon="12.61461"><ele>107.0</ele><time>2026-04-17T07:30:34.518Z</time></trkpt><trkpt lat="46.022695" lon="12.6147917"><ele>108.0</ele><time>2026-04-17T07:30:35.518Z</time></trkpt><trkpt lat="46.0229083" lon="12.6149683"><ele>109.0</ele><time>2026-04-17T07:30:36.518Z</time></trkpt><trkpt lat="46.02311" lon="12.61515"><ele>109.5</ele><time>2026-04-17T07:30:37.52Z</time></trkpt><trkpt lat="46.0232917" lon="12.6153533"><ele>110.0</ele><time>2026-04-17T07:30:38.522Z</time></trkpt><trkpt lat="46.0234517" lon="12.615585"><ele>110.5</ele><time>2026-04-17T07:30:39.519Z</time></trkpt><trkpt lat="46.0235933" lon="12.615845"><ele>111.0</ele><time>2026-04-17T07:30:40.519Z</time></trkpt><trkpt lat="46.023715" lon="12.6161333"><ele>110.5</ele><time>2026-04-17T07:30:41.518Z</time></trkpt><trkpt lat="46.02382" lon="12.6164417"><ele>110.0</ele><time>2026-04-17T07:30:42.519Z</time></trkpt><trkpt lat="46.02392" lon="12.61675"><ele>109.66666666666666</ele><time>2026-04-17T07:30:43.519Z</time></trkpt><trkpt lat="46.0240167" lon="12.6170433"><ele>109.33333333333334</ele><time>2026-04-17T07:30:44.523Z</time></trkpt><trkpt lat="46.02411" lon="12.61732"><ele>109.0</ele><time>2026-04-17T07:30:45.519Z</time></trkpt><trkpt lat="46.0242" lon="12.6175733"><ele>109.0</ele><time>2026-04-17T07:30:46.518Z</time></trkpt><trkpt lat="46.0242867" lon="12.6178"><ele>109.0</ele><time>2026-04-17T07:30:47.519Z</time></trkpt><trkpt lat="46.0243767" lon="12.6180033"><ele>109.0</ele><time>2026-04-17T07:30:48.519Z</time></trkpt><trkpt lat="46.0244617" lon="12.618185"><ele>109.5</ele><time>2026-04-17T07:30:49.521Z</time></trkpt><trkpt lat="46.02454" lon="12.6183467"><ele>110.0</ele><time>2026-04-17T07:30:50.525Z</time></trkpt><trkpt lat="46.0246167" lon="12.6185"><ele>110.5</ele><time>2026-04-17T07:30:51.519Z</time></trkpt><trkpt lat="46.0246867" lon="12.61864"><ele>111.0</ele><time>2026-04-17T07:30:52.518Z</time></trkpt><trkpt lat="46.0247517" lon="12.618775"><ele>111.0</ele><time>2026-04-17T07:30:53.518Z</time></trkpt><trkpt lat="46.0248133" lon="12.6189"><ele>111.0</ele><time>2026-04-17T07:30:54.519Z</time></trkpt><trkpt lat="46.02487" lon="12.6190183"><ele>111.0</ele><time>2026-04-17T07:30:55.518Z</time></trkpt><trkpt lat="46.0249167" lon="12.6191217"><ele>111.0</ele><time>2026-04-17T07:30:56.52Z</time></trkpt><trkpt lat="46.02496" lon="12.61921"><ele>111.0</ele><time>2026-04-17T07:30:57.518Z</time></trkpt><trkpt lat="46.0250233" lon="12.61935"><ele>111.16666666666667</ele><time>2026-04-17T07:30:59.518Z</time></trkpt><trkpt lat="46.0250733" lon="12.6194617"><ele>111.33333333333334</ele><time>2026-04-17T07:31:01.519Z</time></trkpt><trkpt lat="46.0251183" lon="12.6195833"><ele>111.5</ele><time>2026-04-17T07:31:03.517Z</time></trkpt><trkpt lat="46.0251383" lon="12.6196717"><ele>111.66666666666667</ele><time>2026-04-17T07:31:05.518Z</time></trkpt><trkpt lat="46.0251617" lon="12.61978"><ele>111.83333333333334</ele><time>2026-04-17T07:31:08.52Z</time></trkpt><trkpt lat="46.0251717" lon="12.61989"><ele>112.0</ele><time>2026-04-17T07:31:12.519Z</time></trkpt><trkpt lat="46.0252017" lon="12.6199717"><ele>112.19999999999999</ele><time>2026-04-17T07:31:16.52Z</time></trkpt><trkpt lat="46.025275" lon="12.6200667"><ele>112.39999999999999</ele><time>2026-04-17T07:31:19.519Z</time></trkpt><trkpt lat="46.0253617" lon="12.6200933"><ele>112.60000000000001</ele><time>2026-04-17T07:31:20.519Z</time></trkpt><trkpt lat="46.0254733" lon="12.6201033"><ele>112.80000000000001</ele><time>2026-04-17T07:31:21.518Z</time></trkpt><trkpt lat="46.0255917" lon="12.6200967"><ele>113.0</ele><time>2026-04-17T07:31:22.518Z</time></trkpt><trkpt lat="46.02571" lon="12.6200817"><ele>113.5</ele><time>2026-04-17T07:31:23.519Z</time></trkpt><trkpt lat="46.025825" lon="12.6200667"><ele>114.0</ele><time>2026-04-17T07:31:24.519Z</time></trkpt><trkpt lat="46.02594" lon="12.6200517"><ele>114.5</ele><time>2026-04-17T07:31:25.518Z</time></trkpt><trkpt lat="46.0260517" lon="12.620035"><ele>115.0</ele><time>2026-04-17T07:31:26.518Z</time></trkpt><trkpt lat="46.026165" lon="12.620015"><ele>115.0</ele><time>2026-04-17T07:31:27.519Z</time></trkpt><trkpt lat="46.0262733" lon="12.6199967"><ele>115.0</ele><time>2026-04-17T07:31:28.517Z</time></trkpt><trkpt lat="46.0263767" lon="12.61998"><ele>115.0</ele><time>2026-04-17T07:31:29.517Z</time></trkpt><trkpt lat="46.02648" lon="12.6199633"><ele>115.0</ele><time>2026-04-17T07:31:30.518Z</time></trkpt><trkpt lat="46.0265833" lon="12.6199417"><ele>115.0</ele><time>2026-04-17T07:31:31.518Z</time></trkpt><trkpt lat="46.0266867" lon="12.619915"><ele>115.2</ele><time>2026-04-17T07:31:32.519Z</time></trkpt><trkpt lat="46.0267883" lon="12.6198833"><ele>115.4</ele><time>2026-04-17T07:31:33.517Z</time></trkpt><trkpt lat="46.0268917" lon="12.61984"><ele>115.6</ele><time>2026-04-17T07:31:34.519Z</time></trkpt><trkpt lat="46.02699" lon="12.6197933"><ele>115.8</ele><time>2026-04-17T07:31:35.518Z</time></trkpt><trkpt lat="46.02708" lon="12.6197367"><ele>116.0</ele><time>2026-04-17T07:31:36.517Z</time></trkpt><trkpt lat="46.0271667" lon="12.6196733"><ele>115.99999999999999</ele><time>2026-04-17T07:31:37.518Z</time></trkpt><trkpt lat="46.0272433" lon="12.619605"><ele>116.0</ele><time>2026-04-17T07:31:38.518Z</time></trkpt><trkpt lat="46.02731" lon="12.6195367"><ele>116.0</ele><time>2026-04-17T07:31:39.517Z</time></trkpt><trkpt lat="46.0273683" lon="12.6194717"><ele>116.0</ele><time>2026-04-17T07:31:40.517Z</time></trkpt><trkpt lat="46.0274217" lon="12.61941"><ele>115.99999999999999</ele><time>2026-04-17T07:31:41.516Z</time></trkpt><trkpt lat="46.0275267" lon="12.6193417"><ele>116.0</ele><time>2026-04-17T07:31:43.521Z</time></trkpt><trkpt lat="46.02765" lon="12.6193517"><ele>115.99999999999999</ele><time>2026-04-17T07:31:45.52Z</time></trkpt><trkpt lat="46.0277233" lon="12.61937"><ele>116.0</ele><time>2026-04-17T07:31:46.518Z</time></trkpt><trkpt lat="46.0278067" lon="12.619375"><ele>116.0</ele><time>2026-04-17T07:31:47.518Z</time></trkpt><trkpt lat="46.0278883" lon="12.61936"><ele>116.0</ele><time>2026-04-17T07:31:48.517Z</time></trkpt><trkpt lat="46.027965" lon="12.61931"><ele>115.99999999999999</ele><time>2026-04-17T07:31:49.518Z</time></trkpt><trkpt lat="46.0280383" lon="12.6192317"><ele>116.0</ele><time>2026-04-17T07:31:50.519Z</time></trkpt><trkpt lat="46.0281067" lon="12.619135"><ele>116.0</ele><time>2026-04-17T07:31:51.518Z</time></trkpt><trkpt lat="46.028185" lon="12.6190333"><ele>116.0</ele><time>2026-04-17T07:31:52.518Z</time></trkpt><trkpt lat="46.0282783" lon="12.6189467"><ele>116.0</ele><time>2026-04-17T07:31:53.517Z</time></trkpt><trkpt lat="46.0283833" lon="12.618885"><ele>116.0</ele><time>2026-04-17T07:31:54.518Z</time></trkpt><trkpt lat="46.0284983" lon="12.6188533"><ele>116.0</ele><time>2026-04-17T07:31:55.517Z</time></trkpt><trkpt lat="46.028625" lon="12.6188367"><ele>116.0</ele><time>2026-04-17T07:31:56.52Z</time></trkpt><trkpt lat="46.0287567" lon="12.6188267"><ele>116.0</ele><time>2026-04-17T07:31:57.519Z</time></trkpt><trkpt lat="46.02889" lon="12.61882"><ele>116.0</ele><time>2026-04-17T07:31:58.517Z</time></trkpt><trkpt lat="46.02902" lon="12.618825"><ele>116.0</ele><time>2026-04-17T07:31:59.518Z</time></trkpt><trkpt lat="46.02914" lon="12.61884"><ele>116.19999999999999</ele><time>2026-04-17T07:32:00.518Z</time></trkpt><trkpt lat="46.0292517" lon="12.6188667"><ele>116.39999999999999</ele><time>2026-04-17T07:32:01.518Z</time></trkpt><trkpt lat="46.0293517" lon="12.6188983"><ele>116.6</ele><time>2026-04-17T07:32:02.519Z</time></trkpt><trkpt lat="46.0294433" lon="12.6189333"><ele>116.8</ele><time>2026-04-17T07:32:03.519Z</time></trkpt><trkpt lat="46.0295283" lon="12.6189717"><ele>117.0</ele><time>2026-04-17T07:32:04.518Z</time></trkpt><trkpt lat="46.0296067" lon="12.6190233"><ele>117.0</ele><time>2026-04-17T07:32:05.518Z</time></trkpt><trkpt lat="46.029675" lon="12.6190967"><ele>117.0</ele><time>2026-04-17T07:32:06.517Z</time></trkpt><trkpt lat="46.02973" lon="12.6191917"><ele>117.0</ele><time>2026-04-17T07:32:07.518Z</time></trkpt><trkpt lat="46.0297967" lon="12.6192817"><ele>117.0</ele><time>2026-04-17T07:32:08.518Z</time></trkpt><trkpt lat="46.0298733" lon="12.6193417"><ele>117.0</ele><time>2026-04-17T07:32:09.518Z</time></trkpt><trkpt lat="46.029955" lon="12.6193667"><ele>117.0</ele><time>2026-04-17T07:32:10.518Z</time></trkpt><trkpt lat="46.03004" lon="12.6193483"><ele>117.19999999999999</ele><time>2026-04-17T07:32:11.52Z</time></trkpt><trkpt lat="46.0301183" lon="12.6192917"><ele>117.39999999999999</ele><time>2026-04-17T07:32:12.519Z</time></trkpt><trkpt lat="46.0301867" lon="12.6192033"><ele>117.60000000000001</ele><time>2026-04-17T07:32:13.519Z</time></trkpt><trkpt lat="46.03024" lon="12.6190783"><ele>117.80000000000001</ele><time>2026-04-17T07:32:14.518Z</time></trkpt><trkpt lat="46.03029" lon="12.6189333"><ele>118.0</ele><time>2026-04-17T07:32:15.516Z</time></trkpt><trkpt lat="46.0303533" lon="12.6187883"><ele>118.0</ele><time>2026-04-17T07:32:16.518Z</time></trkpt><trkpt lat="46.0304333" lon="12.61866"><ele>118.0</ele><time>2026-04-17T07:32:17.519Z</time></trkpt><trkpt lat="46.0305267" lon="12.6185467"><ele>118.0</ele><time>2026-04-17T07:32:18.518Z</time></trkpt><trkpt lat="46.03063" lon="12.61844"><ele>118.0</ele><time>2026-04-17T07:32:19.523Z</time></trkpt><trkpt lat="46.03074" lon="12.6183383"><ele>117.75</ele><time>2026-04-17T07:32:20.523Z</time></trkpt><trkpt lat="46.0308617" lon="12.618235"><ele>117.5</ele><time>2026-04-17T07:32:21.521Z</time></trkpt><trkpt lat="46.030985" lon="12.61814"><ele>117.25</ele><time>2026-04-17T07:32:22.521Z</time></trkpt><trkpt lat="46.0311183" lon="12.6180467"><ele>117.0</ele><time>2026-04-17T07:32:23.519Z</time></trkpt><trkpt lat="46.03126" lon="12.6179617"><ele>117.0</ele><time>2026-04-17T07:32:24.518Z</time></trkpt><trkpt lat="46.031405" lon="12.6178817"><ele>117.0</ele><time>2026-04-17T07:32:25.518Z</time></trkpt><trkpt lat="46.031555" lon="12.617805"><ele>117.0</ele><time>2026-04-17T07:32:26.521Z</time></trkpt><trkpt lat="46.0317067" lon="12.617725"><ele>117.25</ele><time>2026-04-17T07:32:27.518Z</time></trkpt><trkpt lat="46.03185" lon="12.6176483"><ele>117.5</ele><time>2026-04-17T07:32:28.517Z</time></trkpt><trkpt lat="46.031985" lon="12.617575"><ele>117.75</ele><time>2026-04-17T07:32:29.518Z</time></trkpt><trkpt lat="46.0321167" lon="12.6175017"><ele>118.0</ele><time>2026-04-17T07:32:30.518Z</time></trkpt><trkpt lat="46.0322467" lon="12.6174283"><ele>118.0</ele><time>2026-04-17T07:32:31.518Z</time></trkpt><trkpt lat="46.0323733" lon="12.6173633"><ele>118.0</ele><time>2026-04-17T07:32:32.518Z</time></trkpt><trkpt lat="46.0325017" lon="12.6172967"><ele>118.0</ele><time>2026-04-17T07:32:33.518Z</time></trkpt><trkpt lat="46.03263" lon="12.6172317"><ele>118.0</ele><time>2026-04-17T07:32:34.518Z</time></trkpt><trkpt lat="46.032765" lon="12.6171633"><ele>118.33333333333334</ele><time>2026-04-17T07:32:35.521Z</time></trkpt><trkpt lat="46.0329033" lon="12.6170933"><ele>118.66666666666666</ele><time>2026-04-17T07:32:36.518Z</time></trkpt><trkpt lat="46.0330467" lon="12.6170183"><ele>119.0</ele><time>2026-04-17T07:32:37.519Z</time></trkpt><trkpt lat="46.0331983" lon="12.6169367"><ele>119.33333333333333</ele><time>2026-04-17T07:32:38.519Z</time></trkpt><trkpt lat="46.0333533" lon="12.6168533"><ele>119.66666666666666</ele><time>2026-04-17T07:32:39.517Z</time></trkpt><trkpt lat="46.03351" lon="12.6167683"><ele>120.0</ele><time>2026-04-17T07:32:40.518Z</time></trkpt><trkpt lat="46.0336667" lon="12.616685"><ele>120.0</ele><time>2026-04-17T07:32:41.518Z</time></trkpt><trkpt lat="46.033825" lon="12.6166033"><ele>120.0</ele><time>2026-04-17T07:32:42.517Z</time></trkpt><trkpt lat="46.03398" lon="12.6165217"><ele>120.0</ele><time>2026-04-17T07:32:43.518Z</time></trkpt><trkpt lat="46.0341333" lon="12.61644"><ele>120.0</ele><time>2026-04-17T07:32:44.519Z</time></trkpt><trkpt lat="46.03428" lon="12.61636"><ele>120.0</ele><time>2026-04-17T07:32:45.518Z</time></trkpt><trkpt lat="46.0344267" lon="12.616275"><ele>120.0</ele><time>2026-04-17T07:32:46.518Z</time></trkpt><trkpt lat="46.0345767" lon="12.6161917"><ele>120.0</ele><time>2026-04-17T07:32:47.518Z</time></trkpt><trkpt lat="46.034725" lon="12.6161067"><ele>120.0</ele><time>2026-04-17T07:32:48.518Z</time></trkpt><trkpt lat="46.0348667" lon="12.6160283"><ele>120.0</ele><time>2026-04-17T07:32:49.519Z</time></trkpt><trkpt lat="46.0350133" lon="12.61595"><ele>120.66666666666666</ele><time>2026-04-17T07:32:50.519Z</time></trkpt><trkpt lat="46.0351633" lon="12.615865"><ele>121.33333333333333</ele><time>2026-04-17T07:32:51.518Z</time></trkpt><trkpt lat="46.0353183" lon="12.6157783"><ele>122.0</ele><time>2026-04-17T07:32:52.518Z</time></trkpt><trkpt lat="46.03548" lon="12.6156917"><ele>122.0</ele><time>2026-04-17T07:32:53.517Z</time></trkpt><trkpt lat="46.0356433" lon="12.615605"><ele>122.0</ele><time>2026-04-17T07:32:54.518Z</time></trkpt><trkpt lat="46.0358117" lon="12.61552"><ele>122.0</ele><time>2026-04-17T07:32:55.519Z</time></trkpt><trkpt lat="46.03598" lon="12.6154367"><ele>122.33333333333333</ele><time>2026-04-17T07:32:56.519Z</time></trkpt><trkpt lat="46.0361517" lon="12.6153533"><ele>122.66666666666666</ele><time>2026-04-17T07:32:57.517Z</time></trkpt><trkpt lat="46.0363283" lon="12.6152617"><ele>123.0</ele><time>2026-04-17T07:32:58.518Z</time></trkpt><trkpt lat="46.036505" lon="12.61516"><ele>124.0</ele><time>2026-04-17T07:32:59.517Z</time></trkpt><trkpt lat="46.036685" lon="12.615055"><ele>125.0</ele><time>2026-04-17T07:33:00.518Z</time></trkpt><trkpt lat="46.0368617" lon="12.61494"><ele>126.0</ele><time>2026-04-17T07:33:01.518Z</time></trkpt><trkpt lat="46.0370433" lon="12.6148083"><ele>126.0</ele><time>2026-04-17T07:33:02.52Z</time></trkpt><trkpt lat="46.0372267" lon="12.6146667"><ele>126.0</ele><time>2026-04-17T07:33:03.517Z</time></trkpt><trkpt lat="46.0374117" lon="12.6145167"><ele>126.0</ele><time>2026-04-17T07:33:04.518Z</time></trkpt><trkpt lat="46.0375983" lon="12.61437"><ele>126.0</ele><time>2026-04-17T07:33:05.52Z</time></trkpt><trkpt lat="46.037775" lon="12.61423"><ele>126.0</ele><time>2026-04-17T07:33:06.518Z</time></trkpt><trkpt lat="46.03795" lon="12.6140933"><ele>126.0</ele><time>2026-04-17T07:33:07.519Z</time></trkpt><trkpt lat="46.0381217" lon="12.6139583"><ele>126.0</ele><time>2026-04-17T07:33:08.519Z</time></trkpt><trkpt lat="46.0382917" lon="12.613825"><ele>126.0</ele><time>2026-04-17T07:33:09.518Z</time></trkpt><trkpt lat="46.0384583" lon="12.6136983"><ele>126.0</ele><time>2026-04-17T07:33:10.517Z</time></trkpt><trkpt lat="46.0386267" lon="12.61357"><ele>126.33333333333334</ele><time>2026-04-17T07:33:11.518Z</time></trkpt><trkpt lat="46.038795" lon="12.6134383"><ele>126.66666666666667</ele><time>2026-04-17T07:33:12.517Z</time></trkpt><trkpt lat="46.0389633" lon="12.6133067"><ele>127.0</ele><time>2026-04-17T07:33:13.518Z</time></trkpt><trkpt lat="46.0391267" lon="12.61318"><ele>126.66666666666667</ele><time>2026-04-17T07:33:14.518Z</time></trkpt><trkpt lat="46.0392867" lon="12.6130567"><ele>126.33333333333334</ele><time>2026-04-17T07:33:15.518Z</time></trkpt><trkpt lat="46.039445" lon="12.612935"><ele>126.0</ele><time>2026-04-17T07:33:16.519Z</time></trkpt><trkpt lat="46.0396017" lon="12.6128117"><ele>126.0</ele><time>2026-04-17T07:33:17.518Z</time></trkpt><trkpt lat="46.0397583" lon="12.61269"><ele>126.0</ele><time>2026-04-17T07:33:18.518Z</time></trkpt><trkpt lat="46.03992" lon="12.612565"><ele>126.0</ele><time>2026-04-17T07:33:19.518Z</time></trkpt><trkpt lat="46.0400883" lon="12.612435"><ele>127.0</ele><time>2026-04-17T07:33:20.519Z</time></trkpt><trkpt lat="46.0402667" lon="12.612295"><ele>128.0</ele><time>2026-04-17T07:33:21.518Z</time></trkpt><trkpt lat="46.040455" lon="12.6121483"><ele>129.0</ele><time>2026-04-17T07:33:22.518Z</time></trkpt><trkpt lat="46.040645" lon="12.6119983"><ele>128.0</ele><time>2026-04-17T07:33:23.519Z</time></trkpt><trkpt lat="46.0408383" lon="12.6118483"><ele>127.0</ele><time>2026-04-17T07:33:24.519Z</time></trkpt><trkpt lat="46.0410283" lon="12.6117017"><ele>126.0</ele><time>2026-04-17T07:33:25.519Z</time></trkpt><trkpt lat="46.04122" lon="12.6115533"><ele>126.0</ele><time>2026-04-17T07:33:26.519Z</time></trkpt><trkpt lat="46.0414117" lon="12.611405"><ele>126.0</ele><time>2026-04-17T07:33:27.518Z</time></trkpt><trkpt lat="46.0416033" lon="12.6112567"><ele>126.0</ele><time>2026-04-17T07:33:28.518Z</time></trkpt><trkpt lat="46.0417967" lon="12.6111067"><ele>126.33333333333334</ele><time>2026-04-17T07:33:29.52Z</time></trkpt><trkpt lat="46.0419867" lon="12.6109567"><ele>126.66666666666667</ele><time>2026-04-17T07:33:30.518Z</time></trkpt><trkpt lat="46.0421767" lon="12.61081"><ele>127.0</ele><time>2026-04-17T07:33:31.519Z</time></trkpt><trkpt lat="46.0423567" lon="12.6106667"><ele>128.0</ele><time>2026-04-17T07:33:32.519Z</time></trkpt><trkpt lat="46.0425317" lon="12.6105317"><ele>129.0</ele><time>2026-04-17T07:33:33.521Z</time></trkpt><trkpt lat="46.042705" lon="12.6103967"><ele>130.0</ele><time>2026-04-17T07:33:34.518Z</time></trkpt><trkpt lat="46.042885" lon="12.61026"><ele>131.0</ele><time>2026-04-17T07:33:35.519Z</time></trkpt><trkpt lat="46.043065" lon="12.61012"><ele>132.0</ele><time>2026-04-17T07:33:36.517Z</time></trkpt><trkpt lat="46.0432467" lon="12.60998"><ele>133.0</ele><time>2026-04-17T07:33:37.519Z</time></trkpt><trkpt lat="46.04343" lon="12.609835"><ele>133.0</ele><time>2026-04-17T07:33:38.518Z</time></trkpt><trkpt lat="46.0436133" lon="12.6096917"><ele>133.0</ele><time>2026-04-17T07:33:39.518Z</time></trkpt><trkpt lat="46.0437933" lon="12.6095533"><ele>133.0</ele><time>2026-04-17T07:33:40.523Z</time></trkpt><trkpt lat="46.043975" lon="12.6094117"><ele>132.66666666666669</ele><time>2026-04-17T07:33:41.519Z</time></trkpt><trkpt lat="46.0441583" lon="12.6092667"><ele>132.33333333333334</ele><time>2026-04-17T07:33:42.518Z</time></trkpt><trkpt lat="46.0443367" lon="12.6091317"><ele>132.0</ele><time>2026-04-17T07:33:43.519Z</time></trkpt><trkpt lat="46.0445017" lon="12.6090033"><ele>132.0</ele><time>2026-04-17T07:33:44.519Z</time></trkpt><trkpt lat="46.0446617" lon="12.60888"><ele>132.0</ele><time>2026-04-17T07:33:45.518Z</time></trkpt><trkpt lat="46.04482" lon="12.608755"><ele>132.0</ele><time>2026-04-17T07:33:46.518Z</time></trkpt><trkpt lat="46.0449883" lon="12.6086283"><ele>132.33333333333334</ele><time>2026-04-17T07:33:47.519Z</time></trkpt><trkpt lat="46.0451583" lon="12.608495"><ele>132.66666666666669</ele><time>2026-04-17T07:33:48.517Z</time></trkpt><trkpt lat="46.04533" lon="12.6083617"><ele>133.0</ele><time>2026-04-17T07:33:49.518Z</time></trkpt><trkpt lat="46.0455067" lon="12.6082183"><ele>133.0</ele><time>2026-04-17T07:33:50.519Z</time></trkpt><trkpt lat="46.0456917" lon="12.6080617"><ele>133.0</ele><time>2026-04-17T07:33:51.518Z</time></trkpt><trkpt lat="46.0458733" lon="12.607905"><ele>133.0</ele><time>2026-04-17T07:33:52.518Z</time></trkpt><trkpt lat="46.0460533" lon="12.6077467"><ele>132.33333333333334</ele><time>2026-04-17T07:33:53.518Z</time></trkpt><trkpt lat="46.0462433" lon="12.6075767"><ele>131.66666666666666</ele><time>2026-04-17T07:33:54.518Z</time></trkpt><trkpt lat="46.04643" lon="12.6074067"><ele>131.0</ele><time>2026-04-17T07:33:55.517Z</time></trkpt><trkpt lat="46.0466167" lon="12.6072367"><ele>131.0</ele><time>2026-04-17T07:33:56.519Z</time></trkpt><trkpt lat="46.0468083" lon="12.6070617"><ele>131.0</ele><time>2026-04-17T07:33:57.518Z</time></trkpt><trkpt lat="46.0469933" lon="12.60689"><ele>131.0</ele><time>2026-04-17T07:33:58.519Z</time></trkpt><trkpt lat="46.0471717" lon="12.6067183"><ele>131.0</ele><time>2026-04-17T07:33:59.519Z</time></trkpt><trkpt lat="46.047345" lon="12.606545"><ele>131.0</ele><time>2026-04-17T07:34:00.518Z</time></trkpt><trkpt lat="46.0475133" lon="12.60637"><ele>131.0</ele><time>2026-04-17T07:34:01.518Z</time></trkpt><trkpt lat="46.0476767" lon="12.6061933"><ele>131.0</ele><time>2026-04-17T07:34:02.519Z</time></trkpt><trkpt lat="46.0478317" lon="12.6060167"><ele>131.0</ele><time>2026-04-17T07:34:03.518Z</time></trkpt><trkpt lat="46.0479817" lon="12.6058417"><ele>131.0</ele><time>2026-04-17T07:34:04.518Z</time></trkpt><trkpt lat="46.0481267" lon="12.605665"><ele>131.0</ele><time>2026-04-17T07:34:05.518Z</time></trkpt><trkpt lat="46.0482667" lon="12.6054917"><ele>131.0</ele><time>2026-04-17T07:34:06.519Z</time></trkpt><trkpt lat="46.048405" lon="12.6053217"><ele>131.0</ele><time>2026-04-17T07:34:07.52Z</time></trkpt><trkpt lat="46.048535" lon="12.6051583"><ele>131.33333333333331</ele><time>2026-04-17T07:34:08.519Z</time></trkpt><trkpt lat="46.04866" lon="12.6049967"><ele>131.66666666666666</ele><time>2026-04-17T07:34:09.519Z</time></trkpt><trkpt lat="46.0487833" lon="12.60484"><ele>132.0</ele><time>2026-04-17T07:34:10.519Z</time></trkpt><trkpt lat="46.0489083" lon="12.6046833"><ele>132.0</ele><time>2026-04-17T07:34:11.52Z</time></trkpt><trkpt lat="46.0490317" lon="12.6045283"><ele>132.0</ele><time>2026-04-17T07:34:12.519Z</time></trkpt><trkpt lat="46.0491567" lon="12.6043733"><ele>132.0</ele><time>2026-04-17T07:34:13.518Z</time></trkpt><trkpt lat="46.0492867" lon="12.6042183"><ele>131.66666666666666</ele><time>2026-04-17T07:34:14.52Z</time></trkpt><trkpt lat="46.04942" lon="12.6040683"><ele>131.33333333333331</ele><time>2026-04-17T07:34:15.519Z</time></trkpt><trkpt lat="46.0495667" lon="12.60392"><ele>131.0</ele><time>2026-04-17T07:34:16.519Z</time></trkpt><trkpt lat="46.04972" lon="12.6037817"><ele>131.0</ele><time>2026-04-17T07:34:17.52Z</time></trkpt><trkpt lat="46.0498767" lon="12.6036533"><ele>131.0</ele><time>2026-04-17T07:34:18.519Z</time></trkpt><trkpt lat="46.050035" lon="12.6035367"><ele>131.0</ele><time>2026-04-17T07:34:19.519Z</time></trkpt><trkpt lat="46.050195" lon="12.6034317"><ele>131.0</ele><time>2026-04-17T07:34:20.52Z</time></trkpt><trkpt lat="46.0503567" lon="12.6033417"><ele>131.0</ele><time>2026-04-17T07:34:21.519Z</time></trkpt><trkpt lat="46.0505217" lon="12.6032667"><ele>131.0</ele><time>2026-04-17T07:34:22.519Z</time></trkpt><trkpt lat="46.0506883" lon="12.603205"><ele>131.66666666666666</ele><time>2026-04-17T07:34:23.52Z</time></trkpt><trkpt lat="46.050855" lon="12.603155"><ele>132.33333333333334</ele><time>2026-04-17T07:34:24.519Z</time></trkpt><trkpt lat="46.0510183" lon="12.6031133"><ele>133.0</ele><time>2026-04-17T07:34:25.52Z</time></trkpt><trkpt lat="46.0511833" lon="12.60308"><ele>133.0</ele><time>2026-04-17T07:34:26.518Z</time></trkpt><trkpt lat="46.05135" lon="12.6030483"><ele>133.0</ele><time>2026-04-17T07:34:27.518Z</time></trkpt><trkpt lat="46.0515167" lon="12.60302"><ele>133.0</ele><time>2026-04-17T07:34:28.518Z</time></trkpt><trkpt lat="46.051685" lon="12.6029967"><ele>132.33333333333334</ele><time>2026-04-17T07:34:29.52Z</time></trkpt><trkpt lat="46.0518533" lon="12.6029733"><ele>131.66666666666666</ele><time>2026-04-17T07:34:30.519Z</time></trkpt><trkpt lat="46.052025" lon="12.6029467"><ele>131.0</ele><time>2026-04-17T07:34:31.519Z</time></trkpt><trkpt lat="46.0522017" lon="12.6029167"><ele>131.0</ele><time>2026-04-17T07:34:32.518Z</time></trkpt><trkpt lat="46.0523783" lon="12.60289"><ele>131.0</ele><time>2026-04-17T07:34:33.519Z</time></trkpt><trkpt lat="46.0525533" lon="12.602865"><ele>131.0</ele><time>2026-04-17T07:34:34.519Z</time></trkpt><trkpt lat="46.052725" lon="12.6028367"><ele>131.66666666666666</ele><time>2026-04-17T07:34:35.519Z</time></trkpt><trkpt lat="46.05289" lon="12.6028083"><ele>132.33333333333334</ele><time>2026-04-17T07:34:36.519Z</time></trkpt><trkpt lat="46.05305" lon="12.6027833"><ele>133.0</ele><time>2026-04-17T07:34:37.519Z</time></trkpt><trkpt lat="46.05321" lon="12.6027567"><ele>133.66666666666669</ele><time>2026-04-17T07:34:38.52Z</time></trkpt><trkpt lat="46.0533717" lon="12.602725"><ele>134.33333333333334</ele><time>2026-04-17T07:34:39.521Z</time></trkpt><trkpt lat="46.0535367" lon="12.6026967"><ele>135.0</ele><time>2026-04-17T07:34:40.519Z</time></trkpt><trkpt lat="46.053705" lon="12.60267"><ele>135.0</ele><time>2026-04-17T07:34:41.52Z</time></trkpt><trkpt lat="46.0538733" lon="12.602645"><ele>135.0</ele><time>2026-04-17T07:34:42.524Z</time></trkpt><trkpt lat="46.054045" lon="12.6026233"><ele>135.0</ele><time>2026-04-17T07:34:43.519Z</time></trkpt><trkpt lat="46.0542183" lon="12.6025983"><ele>135.33333333333334</ele><time>2026-04-17T07:34:44.519Z</time></trkpt><trkpt lat="46.054385" lon="12.6025733"><ele>135.66666666666669</ele><time>2026-04-17T07:34:45.519Z</time></trkpt><trkpt lat="46.0545517" lon="12.602545"><ele>136.0</ele><time>2026-04-17T07:34:46.52Z</time></trkpt><trkpt lat="46.0547183" lon="12.60252"><ele>136.0</ele><time>2026-04-17T07:34:47.519Z</time></trkpt><trkpt lat="46.0548783" lon="12.6024967"><ele>136.0</ele><time>2026-04-17T07:34:48.52Z</time></trkpt><trkpt lat="46.05503" lon="12.6024717"><ele>136.0</ele><time>2026-04-17T07:34:49.52Z</time></trkpt><trkpt lat="46.0551767" lon="12.6024467"><ele>136.0</ele><time>2026-04-17T07:34:50.52Z</time></trkpt><trkpt lat="46.055325" lon="12.6024183"><ele>136.0</ele><time>2026-04-17T07:34:51.519Z</time></trkpt><trkpt lat="46.0554767" lon="12.602395"><ele>136.0</ele><time>2026-04-17T07:34:52.519Z</time></trkpt><trkpt lat="46.0556333" lon="12.6023717"><ele>136.33333333333334</ele><time>2026-04-17T07:34:53.52Z</time></trkpt><trkpt lat="46.0557983" lon="12.6023433"><ele>136.66666666666666</ele><time>2026-04-17T07:34:54.519Z</time></trkpt><trkpt lat="46.05596" lon="12.6023083"><ele>137.0</ele><time>2026-04-17T07:34:55.519Z</time></trkpt><trkpt lat="46.0561233" lon="12.602265"><ele>137.0</ele><time>2026-04-17T07:34:56.519Z</time></trkpt><trkpt lat="46.0562867" lon="12.602205"><ele>137.0</ele><time>2026-04-17T07:34:57.519Z</time></trkpt><trkpt lat="46.0564467" lon="12.60213"><ele>137.0</ele><time>2026-04-17T07:34:58.518Z</time></trkpt><trkpt lat="46.0566083" lon="12.6020417"><ele>136.66666666666666</ele><time>2026-04-17T07:34:59.52Z</time></trkpt><trkpt lat="46.0567683" lon="12.6019333"><ele>136.33333333333334</ele><time>2026-04-17T07:35:00.519Z</time></trkpt><trkpt lat="46.05692" lon="12.6018117"><ele>136.0</ele><time>2026-04-17T07:35:01.52Z</time></trkpt><trkpt lat="46.0570617" lon="12.6016833"><ele>136.0</ele><time>2026-04-17T07:35:02.52Z</time></trkpt><trkpt lat="46.057195" lon="12.6015567"><ele>136.0</ele><time>2026-04-17T07:35:03.519Z</time></trkpt><trkpt lat="46.05732" lon="12.6014367"><ele>136.0</ele><time>2026-04-17T07:35:04.519Z</time></trkpt><trkpt lat="46.05744" lon="12.60132"><ele>136.5</ele><time>2026-04-17T07:35:05.519Z</time></trkpt><trkpt lat="46.0575617" lon="12.6012033"><ele>137.0</ele><time>2026-04-17T07:35:06.519Z</time></trkpt><trkpt lat="46.0576867" lon="12.601085"><ele>137.5</ele><time>2026-04-17T07:35:07.519Z</time></trkpt><trkpt lat="46.0578117" lon="12.6009683"><ele>138.0</ele><time>2026-04-17T07:35:08.52Z</time></trkpt><trkpt lat="46.0579317" lon="12.6008567"><ele>138.0</ele><time>2026-04-17T07:35:09.519Z</time></trkpt><trkpt lat="46.0580517" lon="12.6007417"><ele>138.0</ele><time>2026-04-17T07:35:10.519Z</time></trkpt><trkpt lat="46.0581667" lon="12.6006317"><ele>138.0</ele><time>2026-04-17T07:35:11.519Z</time></trkpt><trkpt lat="46.0582783" lon="12.600525"><ele>138.0</ele><time>2026-04-17T07:35:12.519Z</time></trkpt><trkpt lat="46.0583867" lon="12.60042"><ele>138.25</ele><time>2026-04-17T07:35:13.519Z</time></trkpt><trkpt lat="46.0584967" lon="12.6003167"><ele>138.5</ele><time>2026-04-17T07:35:14.52Z</time></trkpt><trkpt lat="46.05861" lon="12.6002133"><ele>138.75</ele><time>2026-04-17T07:35:15.519Z</time></trkpt><trkpt lat="46.0587217" lon="12.600105"><ele>139.0</ele><time>2026-04-17T07:35:16.52Z</time></trkpt><trkpt lat="46.058835" lon="12.5999967"><ele>139.0</ele><time>2026-04-17T07:35:17.519Z</time></trkpt><trkpt lat="46.0589467" lon="12.5998917"><ele>139.0</ele><time>2026-04-17T07:35:18.52Z</time></trkpt><trkpt lat="46.059055" lon="12.59979"><ele>139.0</ele><time>2026-04-17T07:35:19.519Z</time></trkpt><trkpt lat="46.0591567" lon="12.599695"><ele>139.0</ele><time>2026-04-17T07:35:20.519Z</time></trkpt><trkpt lat="46.05926" lon="12.5995967"><ele>139.25</ele><time>2026-04-17T07:35:21.519Z</time></trkpt><trkpt lat="46.0593667" lon="12.5994967"><ele>139.5</ele><time>2026-04-17T07:35:22.52Z</time></trkpt><trkpt lat="46.0594733" lon="12.599395"><ele>139.75</ele><time>2026-04-17T07:35:23.519Z</time></trkpt><trkpt lat="46.059585" lon="12.5992867"><ele>140.0</ele><time>2026-04-17T07:35:24.519Z</time></trkpt><trkpt lat="46.0596967" lon="12.59918"><ele>140.0</ele><time>2026-04-17T07:35:25.52Z</time></trkpt><trkpt lat="46.0598083" lon="12.5990733"><ele>140.0</ele><time>2026-04-17T07:35:26.52Z</time></trkpt><trkpt lat="46.0599183" lon="12.5989667"><ele>140.0</ele><time>2026-04-17T07:35:27.519Z</time></trkpt><trkpt lat="46.0600267" lon="12.5988617"><ele>140.0</ele><time>2026-04-17T07:35:28.519Z</time></trkpt><trkpt lat="46.0601383" lon="12.5987583"><ele>140.25</ele><time>2026-04-17T07:35:29.52Z</time></trkpt><trkpt lat="46.0602517" lon="12.59866"><ele>140.5</ele><time>2026-04-17T07:35:30.519Z</time></trkpt><trkpt lat="46.0603683" lon="12.59856"><ele>140.75</ele><time>2026-04-17T07:35:31.519Z</time></trkpt><trkpt lat="46.0604883" lon="12.598465"><ele>141.0</ele><time>2026-04-17T07:35:32.52Z</time></trkpt><trkpt lat="46.0606083" lon="12.5983783"><ele>141.0</ele><time>2026-04-17T07:35:33.519Z</time></trkpt><trkpt lat="46.0607367" lon="12.5982917"><ele>141.0</ele><time>2026-04-17T07:35:34.519Z</time></trkpt><trkpt lat="46.06087" lon="12.5982133"><ele>141.0</ele><time>2026-04-17T07:35:35.519Z</time></trkpt><trkpt lat="46.0610117" lon="12.5981417"><ele>141.0</ele><time>2026-04-17T07:35:36.519Z</time></trkpt><trkpt lat="46.061155" lon="12.5980817"><ele>141.25</ele><time>2026-04-17T07:35:37.52Z</time></trkpt><trkpt lat="46.0613017" lon="12.5980283"><ele>141.5</ele><time>2026-04-17T07:35:38.519Z</time></trkpt><trkpt lat="46.0614467" lon="12.5979817"><ele>141.75</ele><time>2026-04-17T07:35:39.518Z</time></trkpt><trkpt lat="46.0615917" lon="12.59794"><ele>142.0</ele><time>2026-04-17T07:35:40.52Z</time></trkpt><trkpt lat="46.06173" lon="12.597905"><ele>142.25</ele><time>2026-04-17T07:35:41.521Z</time></trkpt><trkpt lat="46.0618717" lon="12.5978683"><ele>142.5</ele><time>2026-04-17T07:35:42.52Z</time></trkpt><trkpt lat="46.0620133" lon="12.5978333"><ele>142.75</ele><time>2026-04-17T07:35:43.521Z</time></trkpt><trkpt lat="46.0621533" lon="12.5977983"><ele>143.0</ele><time>2026-04-17T07:35:44.52Z</time></trkpt><trkpt lat="46.062295" lon="12.5977633"><ele>143.0</ele><time>2026-04-17T07:35:45.519Z</time></trkpt><trkpt lat="46.062435" lon="12.59773"><ele>143.0</ele><time>2026-04-17T07:35:46.519Z</time></trkpt><trkpt lat="46.0625767" lon="12.5976967"><ele>143.0</ele><time>2026-04-17T07:35:47.521Z</time></trkpt><trkpt lat="46.0627183" lon="12.5976633"><ele>143.0</ele><time>2026-04-17T07:35:48.519Z</time></trkpt><trkpt lat="46.06286" lon="12.59763"><ele>143.5</ele><time>2026-04-17T07:35:49.519Z</time></trkpt><trkpt lat="46.0630017" lon="12.5975967"><ele>144.0</ele><time>2026-04-17T07:35:50.52Z</time></trkpt><trkpt lat="46.063135" lon="12.5975633"><ele>144.5</ele><time>2026-04-17T07:35:51.518Z</time></trkpt><trkpt lat="46.0632667" lon="12.5975317"><ele>145.0</ele><time>2026-04-17T07:35:52.518Z</time></trkpt><trkpt lat="46.063395" lon="12.597495"><ele>145.0</ele><time>2026-04-17T07:35:53.522Z</time></trkpt><trkpt lat="46.0635267" lon="12.5974617"><ele>145.0</ele><time>2026-04-17T07:35:54.52Z</time></trkpt><trkpt lat="46.06366" lon="12.5974283"><ele>145.0</ele><time>2026-04-17T07:35:55.52Z</time></trkpt><trkpt lat="46.06379" lon="12.5973967"><ele>145.0</ele><time>2026-04-17T07:35:56.519Z</time></trkpt><trkpt lat="46.0639183" lon="12.597365"><ele>145.0</ele><time>2026-04-17T07:35:57.518Z</time></trkpt><trkpt lat="46.0640483" lon="12.59733"><ele>145.0</ele><time>2026-04-17T07:35:58.519Z</time></trkpt><trkpt lat="46.0641783" lon="12.5972917"><ele>145.0</ele><time>2026-04-17T07:35:59.518Z</time></trkpt><trkpt lat="46.0643067" lon="12.5972567"><ele>145.0</ele><time>2026-04-17T07:36:00.52Z</time></trkpt><trkpt lat="46.06443" lon="12.5972233"><ele>145.2</ele><time>2026-04-17T07:36:01.522Z</time></trkpt><trkpt lat="46.0645467" lon="12.5971933"><ele>145.4</ele><time>2026-04-17T07:36:02.52Z</time></trkpt><trkpt lat="46.0646533" lon="12.5971683"><ele>145.6</ele><time>2026-04-17T07:36:03.519Z</time></trkpt><trkpt lat="46.0647567" lon="12.5971417"><ele>145.8</ele><time>2026-04-17T07:36:04.519Z</time></trkpt><trkpt lat="46.064855" lon="12.5971167"><ele>146.0</ele><time>2026-04-17T07:36:05.52Z</time></trkpt><trkpt lat="46.06494" lon="12.5970967"><ele>146.16666666666666</ele><time>2026-04-17T07:36:06.519Z</time></trkpt><trkpt lat="46.0650183" lon="12.5970867"><ele>146.33333333333331</ele><time>2026-04-17T07:36:07.519Z</time></trkpt><trkpt lat="46.065085" lon="12.597095"><ele>146.5</ele><time>2026-04-17T07:36:08.52Z</time></trkpt><trkpt lat="46.0651817" lon="12.5971917"><ele>146.66666666666666</ele><time>2026-04-17T07:36:10.52Z</time></trkpt><trkpt lat="46.0652083" lon="12.5972833"><ele>146.83333333333334</ele><time>2026-04-17T07:36:11.519Z</time></trkpt><trkpt lat="46.065215" lon="12.5973933"><ele>147.0</ele><time>2026-04-17T07:36:12.519Z</time></trkpt><trkpt lat="46.0652017" lon="12.5975"><ele>147.0</ele><time>2026-04-17T07:36:13.519Z</time></trkpt><trkpt lat="46.065165" lon="12.5975933"><ele>147.0</ele><time>2026-04-17T07:36:14.52Z</time></trkpt><trkpt lat="46.0651" lon="12.5976717"><ele>147.0</ele><time>2026-04-17T07:36:15.517Z</time></trkpt><trkpt lat="46.06502" lon="12.59774"><ele>147.0</ele><time>2026-04-17T07:36:16.517Z</time></trkpt><trkpt lat="46.0649267" lon="12.5978133"><ele>147.0</ele><time>2026-04-17T07:36:17.518Z</time></trkpt><trkpt lat="46.0648333" lon="12.5979133"><ele>147.0</ele><time>2026-04-17T07:36:18.518Z</time></trkpt><trkpt lat="46.064735" lon="12.5980417"><ele>147.0</ele><time>2026-04-17T07:36:19.518Z</time></trkpt><trkpt lat="46.0646317" lon="12.59821"><ele>147.0</ele><time>2026-04-17T07:36:20.517Z</time></trkpt><trkpt lat="46.0645267" lon="12.5984017"><ele>147.0</ele><time>2026-04-17T07:36:21.517Z</time></trkpt><trkpt lat="46.06441" lon="12.5986067"><ele>147.0</ele><time>2026-04-17T07:36:22.517Z</time></trkpt><trkpt lat="46.0643067" lon="12.5987933"><ele>147.0</ele><time>2026-04-17T07:36:23.517Z</time></trkpt><trkpt lat="46.0642133" lon="12.5989483"><ele>147.0</ele><time>2026-04-17T07:36:24.519Z</time></trkpt><trkpt lat="46.0641283" lon="12.59908"><ele>147.0</ele><time>2026-04-17T07:36:25.518Z</time></trkpt><trkpt lat="46.0640583" lon="12.599195"><ele>147.0</ele><time>2026-04-17T07:36:26.517Z</time></trkpt><trkpt lat="46.0639883" lon="12.5993033"><ele>147.0</ele><time>2026-04-17T07:36:27.517Z</time></trkpt><trkpt lat="46.0639183" lon="12.59942"><ele>147.0</ele><time>2026-04-17T07:36:28.518Z</time></trkpt><trkpt lat="46.0638483" lon="12.5995433"><ele>146.79999999999998</ele><time>2026-04-17T07:36:29.518Z</time></trkpt><trkpt lat="46.06378" lon="12.599665"><ele>146.6</ele><time>2026-04-17T07:36:30.518Z</time></trkpt><trkpt lat="46.0637117" lon="12.5997867"><ele>146.39999999999998</ele><time>2026-04-17T07:36:31.518Z</time></trkpt><trkpt lat="46.0636383" lon="12.5999083"><ele>146.2</ele><time>2026-04-17T07:36:32.518Z</time></trkpt><trkpt lat="46.0635633" lon="12.600035"><ele>146.0</ele><time>2026-04-17T07:36:33.517Z</time></trkpt><trkpt lat="46.0634883" lon="12.6001633"><ele>146.0</ele><time>2026-04-17T07:36:34.517Z</time></trkpt><trkpt lat="46.0634133" lon="12.600295"><ele>146.0</ele><time>2026-04-17T07:36:35.517Z</time></trkpt><trkpt lat="46.0633383" lon="12.6004267"><ele>146.0</ele><time>2026-04-17T07:36:36.517Z</time></trkpt><trkpt lat="46.063265" lon="12.6005633"><ele>146.0</ele><time>2026-04-17T07:36:37.518Z</time></trkpt><trkpt lat="46.0631883" lon="12.6006983"><ele>146.0</ele><time>2026-04-17T07:36:38.517Z</time></trkpt><trkpt lat="46.06311" lon="12.60084"><ele>146.0</ele><time>2026-04-17T07:36:39.517Z</time></trkpt><trkpt lat="46.0630317" lon="12.6009783"><ele>146.0</ele><time>2026-04-17T07:36:40.518Z</time></trkpt><trkpt lat="46.0629533" lon="12.6011133"><ele>146.0</ele><time>2026-04-17T07:36:41.518Z</time></trkpt><trkpt lat="46.0628767" lon="12.601245"><ele>146.6</ele><time>2026-04-17T07:36:42.518Z</time></trkpt><trkpt lat="46.062805" lon="12.6013733"><ele>147.2</ele><time>2026-04-17T07:36:43.517Z</time></trkpt><trkpt lat="46.062735" lon="12.6014933"><ele>147.8</ele><time>2026-04-17T07:36:44.518Z</time></trkpt><trkpt lat="46.0626717" lon="12.6016083"><ele>148.4</ele><time>2026-04-17T07:36:45.518Z</time></trkpt><trkpt lat="46.06261" lon="12.6017133"><ele>149.0</ele><time>2026-04-17T07:36:46.518Z</time></trkpt><trkpt lat="46.06255" lon="12.60181"><ele>149.0</ele><time>2026-04-17T07:36:47.519Z</time></trkpt><trkpt lat="46.0625" lon="12.6018983"><ele>149.0</ele><time>2026-04-17T07:36:48.518Z</time></trkpt><trkpt lat="46.0624733" lon="12.601985"><ele>149.0</ele><time>2026-04-17T07:36:49.518Z</time></trkpt><trkpt lat="46.0625" lon="12.6021433"><ele>149.0</ele><time>2026-04-17T07:36:51.518Z</time></trkpt><trkpt lat="46.0625517" lon="12.6022183"><ele>149.0</ele><time>2026-04-17T07:36:52.523Z</time></trkpt><trkpt lat="46.0626217" lon="12.6022867"><ele>149.0</ele><time>2026-04-17T07:36:53.519Z</time></trkpt><trkpt lat="46.0627117" lon="12.602365"><ele>148.75</ele><time>2026-04-17T07:36:54.519Z</time></trkpt><trkpt lat="46.062805" lon="12.6024567"><ele>148.5</ele><time>2026-04-17T07:36:55.522Z</time></trkpt><trkpt lat="46.0628983" lon="12.6025567"><ele>148.25</ele><time>2026-04-17T07:36:56.518Z</time></trkpt><trkpt lat="46.0629917" lon="12.6026567"><ele>148.0</ele><time>2026-04-17T07:36:57.518Z</time></trkpt><trkpt lat="46.0630917" lon="12.6027517"><ele>148.0</ele><time>2026-04-17T07:36:58.518Z</time></trkpt><trkpt lat="46.0631933" lon="12.6028617"><ele>148.0</ele><time>2026-04-17T07:36:59.518Z</time></trkpt><trkpt lat="46.0633117" lon="12.6029767"><ele>148.0</ele><time>2026-04-17T07:37:00.518Z</time></trkpt><trkpt lat="46.063445" lon="12.6031033"><ele>148.0</ele><time>2026-04-17T07:37:01.522Z</time></trkpt><trkpt lat="46.06359" lon="12.6032483"><ele>148.0</ele><time>2026-04-17T07:37:02.519Z</time></trkpt><trkpt lat="46.0637467" lon="12.6034133"><ele>148.0</ele><time>2026-04-17T07:37:03.518Z</time></trkpt><trkpt lat="46.0639083" lon="12.60359"><ele>148.0</ele><time>2026-04-17T07:37:04.518Z</time></trkpt><trkpt lat="46.064065" lon="12.6037667"><ele>149.66666666666669</ele><time>2026-04-17T07:37:05.517Z</time></trkpt><trkpt lat="46.0642183" lon="12.6039367"><ele>151.33333333333334</ele><time>2026-04-17T07:37:06.518Z</time></trkpt><trkpt lat="46.0643733" lon="12.6041"><ele>153.0</ele><time>2026-04-17T07:37:07.518Z</time></trkpt><trkpt lat="46.0645267" lon="12.60426"><ele>153.0</ele><time>2026-04-17T07:37:08.518Z</time></trkpt><trkpt lat="46.06467" lon="12.6044133"><ele>153.0</ele><time>2026-04-17T07:37:09.517Z</time></trkpt><trkpt lat="46.0648167" lon="12.6045583"><ele>153.0</ele><time>2026-04-17T07:37:10.517Z</time></trkpt><trkpt lat="46.064965" lon="12.6046817"><ele>152.33333333333334</ele><time>2026-04-17T07:37:11.518Z</time></trkpt><trkpt lat="46.065125" lon="12.604775"><ele>151.66666666666669</ele><time>2026-04-17T07:37:12.518Z</time></trkpt><trkpt lat="46.0652917" lon="12.6048367"><ele>151.0</ele><time>2026-04-17T07:37:13.519Z</time></trkpt><trkpt lat="46.0654567" lon="12.6048733"><ele>151.0</ele><time>2026-04-17T07:37:14.523Z</time></trkpt><trkpt lat="46.0656117" lon="12.604895"><ele>151.0</ele><time>2026-04-17T07:37:15.518Z</time></trkpt><trkpt lat="46.0657533" lon="12.60492"><ele>151.0</ele><time>2026-04-17T07:37:16.518Z</time></trkpt><trkpt lat="46.065875" lon="12.6049633"><ele>151.0</ele><time>2026-04-17T07:37:17.517Z</time></trkpt><trkpt lat="46.0659733" lon="12.60503"><ele>151.0</ele><time>2026-04-17T07:37:18.518Z</time></trkpt><trkpt lat="46.0660567" lon="12.605105"><ele>151.0</ele><time>2026-04-17T07:37:19.518Z</time></trkpt><trkpt lat="46.0661433" lon="12.6051667"><ele>151.0</ele><time>2026-04-17T07:37:20.518Z</time></trkpt><trkpt lat="46.066245" lon="12.6052033"><ele>151.0</ele><time>2026-04-17T07:37:21.518Z</time></trkpt><trkpt lat="46.066365" lon="12.6052533"><ele>151.0</ele><time>2026-04-17T07:37:22.518Z</time></trkpt><trkpt lat="46.0664933" lon="12.6053283"><ele>152.0</ele><time>2026-04-17T07:37:23.519Z</time></trkpt><trkpt lat="46.06663" lon="12.60543"><ele>153.0</ele><time>2026-04-17T07:37:24.518Z</time></trkpt><trkpt lat="46.0667717" lon="12.6055517"><ele>154.0</ele><time>2026-04-17T07:37:25.518Z</time></trkpt><trkpt lat="46.06692" lon="12.605695"><ele>154.0</ele><time>2026-04-17T07:37:26.519Z</time></trkpt><trkpt lat="46.06707" lon="12.6058667"><ele>154.0</ele><time>2026-04-17T07:37:27.518Z</time></trkpt><trkpt lat="46.0672133" lon="12.6060667"><ele>154.0</ele><time>2026-04-17T07:37:28.518Z</time></trkpt><trkpt lat="46.0673383" lon="12.60629"><ele>154.33333333333334</ele><time>2026-04-17T07:37:29.519Z</time></trkpt><trkpt lat="46.0674433" lon="12.6065467"><ele>154.66666666666666</ele><time>2026-04-17T07:37:30.517Z</time></trkpt><trkpt lat="46.0675317" lon="12.60683"><ele>155.0</ele><time>2026-04-17T07:37:31.518Z</time></trkpt><trkpt lat="46.0676083" lon="12.60713"><ele>155.5</ele><time>2026-04-17T07:37:32.523Z</time></trkpt><trkpt lat="46.06768" lon="12.6074433"><ele>156.0</ele><time>2026-04-17T07:37:33.518Z</time></trkpt><trkpt lat="46.0677467" lon="12.60777"><ele>156.5</ele><time>2026-04-17T07:37:34.518Z</time></trkpt><trkpt lat="46.0678133" lon="12.6081067"><ele>157.0</ele><time>2026-04-17T07:37:35.518Z</time></trkpt><trkpt lat="46.0678817" lon="12.608455"><ele>156.5</ele><time>2026-04-17T07:37:36.518Z</time></trkpt><trkpt lat="46.06795" lon="12.608805"><ele>156.0</ele><time>2026-04-17T07:37:37.518Z</time></trkpt><trkpt lat="46.0680217" lon="12.6091617"><ele>157.5</ele><time>2026-04-17T07:37:38.519Z</time></trkpt><trkpt lat="46.0680967" lon="12.60953"><ele>159.0</ele><time>2026-04-17T07:37:39.519Z</time></trkpt><trkpt lat="46.0681683" lon="12.609905"><ele>159.0</ele><time>2026-04-17T07:37:40.518Z</time></trkpt><trkpt lat="46.0682417" lon="12.6102917"><ele>159.0</ele><time>2026-04-17T07:37:41.518Z</time></trkpt><trkpt lat="46.0683217" lon="12.6106817"><ele>160.5</ele><time>2026-04-17T07:37:42.517Z</time></trkpt><trkpt lat="46.0684" lon="12.6110633"><ele>162.0</ele><time>2026-04-17T07:37:43.518Z</time></trkpt><trkpt lat="46.068475" lon="12.611435"><ele>162.5</ele><time>2026-04-17T07:37:44.518Z</time></trkpt><trkpt lat="46.06855" lon="12.6117983"><ele>163.0</ele><time>2026-04-17T07:37:45.518Z</time></trkpt><trkpt lat="46.068625" lon="12.6121567"><ele>163.0</ele><time>2026-04-17T07:37:46.518Z</time></trkpt><trkpt lat="46.0686983" lon="12.61251"><ele>163.0</ele><time>2026-04-17T07:37:47.517Z</time></trkpt><trkpt lat="46.0687683" lon="12.6128567"><ele>163.5</ele><time>2026-04-17T07:37:48.518Z</time></trkpt><trkpt lat="46.0688417" lon="12.61321"><ele>164.0</ele><time>2026-04-17T07:37:49.519Z</time></trkpt><trkpt lat="46.0689133" lon="12.6135617"><ele>163.0</ele><time>2026-04-17T07:37:50.518Z</time></trkpt><trkpt lat="46.068985" lon="12.6139167"><ele>162.0</ele><time>2026-04-17T07:37:51.518Z</time></trkpt><trkpt lat="46.0690617" lon="12.61428"><ele>163.0</ele><time>2026-04-17T07:37:52.518Z</time></trkpt><trkpt lat="46.0691383" lon="12.6146483"><ele>164.0</ele><time>2026-04-17T07:37:53.518Z</time></trkpt><trkpt lat="46.0692117" lon="12.6150183"><ele>165.0</ele><time>2026-04-17T07:37:54.518Z</time></trkpt><trkpt lat="46.0692833" lon="12.6153867"><ele>166.0</ele><time>2026-04-17T07:37:55.518Z</time></trkpt><trkpt lat="46.0693583" lon="12.61575"><ele>166.0</ele><time>2026-04-17T07:37:56.518Z</time></trkpt><trkpt lat="46.0694333" lon="12.616115"><ele>166.0</ele><time>2026-04-17T07:37:57.517Z</time></trkpt><trkpt lat="46.069505" lon="12.61648"><ele>166.0</ele><time>2026-04-17T07:37:58.518Z</time></trkpt><trkpt lat="46.0695783" lon="12.6168417"><ele>166.0</ele><time>2026-04-17T07:37:59.518Z</time></trkpt><trkpt lat="46.0696517" lon="12.6172033"><ele>166.0</ele><time>2026-04-17T07:38:00.518Z</time></trkpt><trkpt lat="46.0697233" lon="12.6175583"><ele>166.0</ele><time>2026-04-17T07:38:01.518Z</time></trkpt><trkpt lat="46.0697967" lon="12.6179183"><ele>166.0</ele><time>2026-04-17T07:38:02.519Z</time></trkpt><trkpt lat="46.06987" lon="12.6182783"><ele>166.0</ele><time>2026-04-17T07:38:03.518Z</time></trkpt><trkpt lat="46.0699417" lon="12.6186417"><ele>166.5</ele><time>2026-04-17T07:38:04.518Z</time></trkpt><trkpt lat="46.0700133" lon="12.6190083"><ele>167.0</ele><time>2026-04-17T07:38:05.518Z</time></trkpt><trkpt lat="46.0700817" lon="12.6193667"><ele>168.0</ele><time>2026-04-17T07:38:06.518Z</time></trkpt><trkpt lat="46.0701483" lon="12.619715"><ele>169.0</ele><time>2026-04-17T07:38:07.517Z</time></trkpt><trkpt lat="46.070215" lon="12.62006"><ele>168.5</ele><time>2026-04-17T07:38:08.519Z</time></trkpt><trkpt lat="46.0702833" lon="12.620405"><ele>168.0</ele><time>2026-04-17T07:38:09.518Z</time></trkpt><trkpt lat="46.07035" lon="12.6207533"><ele>168.0</ele><time>2026-04-17T07:38:10.518Z</time></trkpt><trkpt lat="46.0704167" lon="12.621105"><ele>168.0</ele><time>2026-04-17T07:38:11.52Z</time></trkpt><trkpt lat="46.0704833" lon="12.6214667"><ele>168.0</ele><time>2026-04-17T07:38:12.518Z</time></trkpt><trkpt lat="46.07055" lon="12.6218317"><ele>168.0</ele><time>2026-04-17T07:38:13.518Z</time></trkpt><trkpt lat="46.0706167" lon="12.62219"><ele>168.0</ele><time>2026-04-17T07:38:14.52Z</time></trkpt><trkpt lat="46.0706783" lon="12.6225367"><ele>168.0</ele><time>2026-04-17T07:38:15.518Z</time></trkpt><trkpt lat="46.07074" lon="12.6228617"><ele>169.33333333333334</ele><time>2026-04-17T07:38:16.517Z</time></trkpt><trkpt lat="46.0708033" lon="12.6231667"><ele>170.66666666666669</ele><time>2026-04-17T07:38:17.52Z</time></trkpt><trkpt lat="46.0708733" lon="12.6234517"><ele>172.0</ele><time>2026-04-17T07:38:18.525Z</time></trkpt><trkpt lat="46.0709633" lon="12.6237267"><ele>172.0</ele><time>2026-04-17T07:38:19.518Z</time></trkpt><trkpt lat="46.0710767" lon="12.6239883"><ele>172.0</ele><time>2026-04-17T07:38:20.525Z</time></trkpt><trkpt lat="46.0712133" lon="12.6242417"><ele>172.0</ele><time>2026-04-17T07:38:21.519Z</time></trkpt><trkpt lat="46.0713733" lon="12.62447"><ele>172.0</ele><time>2026-04-17T07:38:22.519Z</time></trkpt><trkpt lat="46.0715517" lon="12.624675"><ele>172.0</ele><time>2026-04-17T07:38:23.52Z</time></trkpt><trkpt lat="46.0717467" lon="12.6248517"><ele>172.0</ele><time>2026-04-17T07:38:24.521Z</time></trkpt><trkpt lat="46.0719617" lon="12.625005"><ele>172.0</ele><time>2026-04-17T07:38:25.521Z</time></trkpt><trkpt lat="46.07219" lon="12.6251417"><ele>172.0</ele><time>2026-04-17T07:38:26.52Z</time></trkpt><trkpt lat="46.0724233" lon="12.6252667"><ele>172.0</ele><time>2026-04-17T07:38:27.518Z</time></trkpt><trkpt lat="46.0726417" lon="12.6253767"><ele>171.66666666666669</ele><time>2026-04-17T07:38:28.52Z</time></trkpt><trkpt lat="46.0728317" lon="12.6254817"><ele>171.33333333333334</ele><time>2026-04-17T07:38:29.519Z</time></trkpt><trkpt lat="46.0729883" lon="12.6256133"><ele>171.0</ele><time>2026-04-17T07:38:30.518Z</time></trkpt><trkpt lat="46.073105" lon="12.6257733"><ele>171.0</ele><time>2026-04-17T07:38:31.518Z</time></trkpt><trkpt lat="46.0731867" lon="12.6259783"><ele>171.0</ele><time>2026-04-17T07:38:32.519Z</time></trkpt><trkpt lat="46.0732317" lon="12.626215"><ele>171.0</ele><time>2026-04-17T07:38:33.519Z</time></trkpt><trkpt lat="46.0732367" lon="12.6264667"><ele>171.0</ele><time>2026-04-17T07:38:34.519Z</time></trkpt><trkpt lat="46.0732117" lon="12.6267367"><ele>171.0</ele><time>2026-04-17T07:38:35.52Z</time></trkpt><trkpt lat="46.0731567" lon="12.6270117"><ele>171.0</ele><time>2026-04-17T07:38:36.519Z</time></trkpt><trkpt lat="46.073105" lon="12.6273033"><ele>171.0</ele><time>2026-04-17T07:38:37.518Z</time></trkpt><trkpt lat="46.07306" lon="12.62761"><ele>171.0</ele><time>2026-04-17T07:38:38.519Z</time></trkpt><trkpt lat="46.07302" lon="12.6279333"><ele>171.0</ele><time>2026-04-17T07:38:39.519Z</time></trkpt><trkpt lat="46.0729867" lon="12.6282533"><ele>170.66666666666666</ele><time>2026-04-17T07:38:40.52Z</time></trkpt><trkpt lat="46.072955" lon="12.628555"><ele>170.33333333333331</ele><time>2026-04-17T07:38:41.523Z</time></trkpt><trkpt lat="46.07293" lon="12.6288217"><ele>170.0</ele><time>2026-04-17T07:38:42.519Z</time></trkpt><trkpt lat="46.0729217" lon="12.6290467"><ele>170.0</ele><time>2026-04-17T07:38:43.518Z</time></trkpt><trkpt lat="46.0729467" lon="12.629245"><ele>170.0</ele><time>2026-04-17T07:38:44.52Z</time></trkpt><trkpt lat="46.0730017" lon="12.62942"><ele>170.0</ele><time>2026-04-17T07:38:45.52Z</time></trkpt><trkpt lat="46.0730883" lon="12.629595"><ele>170.0</ele><time>2026-04-17T07:38:46.518Z</time></trkpt><trkpt lat="46.0731933" lon="12.6297783"><ele>171.0</ele><time>2026-04-17T07:38:47.52Z</time></trkpt><trkpt lat="46.0733133" lon="12.6299783"><ele>172.0</ele><time>2026-04-17T07:38:48.519Z</time></trkpt><trkpt lat="46.073445" lon="12.6302"><ele>173.0</ele><time>2026-04-17T07:38:49.519Z</time></trkpt><trkpt lat="46.0735867" lon="12.6304317"><ele>173.0</ele><time>2026-04-17T07:38:50.521Z</time></trkpt><trkpt lat="46.0737367" lon="12.6306767"><ele>173.0</ele><time>2026-04-17T07:38:51.521Z</time></trkpt><trkpt lat="46.073895" lon="12.630935"><ele>173.0</ele><time>2026-04-17T07:38:52.519Z</time></trkpt><trkpt lat="46.0740617" lon="12.6312083"><ele>173.0</ele><time>2026-04-17T07:38:53.52Z</time></trkpt><trkpt lat="46.0742367" lon="12.6314967"><ele>173.0</ele><time>2026-04-17T07:38:54.523Z</time></trkpt><trkpt lat="46.0744133" lon="12.6317933"><ele>173.0</ele><time>2026-04-17T07:38:55.521Z</time></trkpt><trkpt lat="46.0745917" lon="12.632095"><ele>173.0</ele><time>2026-04-17T07:38:56.519Z</time></trkpt><trkpt lat="46.0747717" lon="12.6323983"><ele>173.0</ele><time>2026-04-17T07:38:57.519Z</time></trkpt><trkpt lat="46.0749533" lon="12.6327"><ele>174.5</ele><time>2026-04-17T07:38:58.519Z</time></trkpt><trkpt lat="46.0751383" lon="12.63301"><ele>176.0</ele><time>2026-04-17T07:38:59.519Z</time></trkpt><trkpt lat="46.0753167" lon="12.6333333"><ele>176.0</ele><time>2026-04-17T07:39:00.519Z</time></trkpt><trkpt lat="46.0754767" lon="12.63367"><ele>176.0</ele><time>2026-04-17T07:39:01.52Z</time></trkpt><trkpt lat="46.0756233" lon="12.6340233"><ele>176.0</ele><time>2026-04-17T07:39:02.52Z</time></trkpt><trkpt lat="46.0757617" lon="12.6343883"><ele>176.0</ele><time>2026-04-17T07:39:03.519Z</time></trkpt><trkpt lat="46.0758967" lon="12.63476"><ele>177.0</ele><time>2026-04-17T07:39:04.52Z</time></trkpt><trkpt lat="46.076035" lon="12.6351417"><ele>178.0</ele><time>2026-04-17T07:39:05.52Z</time></trkpt><trkpt lat="46.0761783" lon="12.63553"><ele>178.5</ele><time>2026-04-17T07:39:06.519Z</time></trkpt><trkpt lat="46.076325" lon="12.6359217"><ele>179.0</ele><time>2026-04-17T07:39:07.519Z</time></trkpt><trkpt lat="46.0764517" lon="12.63634"><ele>179.5</ele><time>2026-04-17T07:39:08.523Z</time></trkpt><trkpt lat="46.0766267" lon="12.63672"><ele>180.0</ele><time>2026-04-17T07:39:09.52Z</time></trkpt><trkpt lat="46.0767967" lon="12.6370967"><ele>180.0</ele><time>2026-04-17T07:39:10.519Z</time></trkpt><trkpt lat="46.0769633" lon="12.6374767"><ele>180.0</ele><time>2026-04-17T07:39:11.519Z</time></trkpt><trkpt lat="46.0771267" lon="12.6378483"><ele>180.0</ele><time>2026-04-17T07:39:12.519Z</time></trkpt><trkpt lat="46.07729" lon="12.638215"><ele>180.0</ele><time>2026-04-17T07:39:13.519Z</time></trkpt><trkpt lat="46.077455" lon="12.6385867"><ele>180.5</ele><time>2026-04-17T07:39:14.52Z</time></trkpt><trkpt lat="46.07762" lon="12.6389567"><ele>181.0</ele><time>2026-04-17T07:39:15.519Z</time></trkpt><trkpt lat="46.0777867" lon="12.6393267"><ele>181.0</ele><time>2026-04-17T07:39:16.519Z</time></trkpt><trkpt lat="46.07795" lon="12.6396967"><ele>181.0</ele><time>2026-04-17T07:39:17.52Z</time></trkpt><trkpt lat="46.0781133" lon="12.64007"><ele>181.0</ele><time>2026-04-17T07:39:18.519Z</time></trkpt><trkpt lat="46.0782817" lon="12.64044"><ele>181.0</ele><time>2026-04-17T07:39:19.52Z</time></trkpt><trkpt lat="46.0784467" lon="12.64081"><ele>181.0</ele><time>2026-04-17T07:39:20.52Z</time></trkpt><trkpt lat="46.0786133" lon="12.6411783"><ele>181.0</ele><time>2026-04-17T07:39:21.519Z</time></trkpt><trkpt lat="46.0787783" lon="12.6415483"><ele>181.0</ele><time>2026-04-17T07:39:22.52Z</time></trkpt><trkpt lat="46.0789433" lon="12.6419183"><ele>181.0</ele><time>2026-04-17T07:39:23.52Z</time></trkpt><trkpt lat="46.07911" lon="12.6422933"><ele>182.0</ele><time>2026-04-17T07:39:24.519Z</time></trkpt><trkpt lat="46.0792767" lon="12.6426733"><ele>183.0</ele><time>2026-04-17T07:39:25.524Z</time></trkpt><trkpt lat="46.0794467" lon="12.6430583"><ele>184.0</ele><time>2026-04-17T07:39:26.521Z</time></trkpt><trkpt lat="46.0796167" lon="12.6434483"><ele>185.0</ele><time>2026-04-17T07:39:27.519Z</time></trkpt><trkpt lat="46.0797833" lon="12.6438417"><ele>185.5</ele><time>2026-04-17T07:39:28.519Z</time></trkpt><trkpt lat="46.0799483" lon="12.6442417"><ele>186.0</ele><time>2026-04-17T07:39:29.519Z</time></trkpt><trkpt lat="46.0801533" lon="12.64461"><ele>187.0</ele><time>2026-04-17T07:39:30.519Z</time></trkpt><trkpt lat="46.080305" lon="12.6449983"><ele>188.0</ele><time>2026-04-17T07:39:31.519Z</time></trkpt><trkpt lat="46.0804483" lon="12.6453817"><ele>188.0</ele><time>2026-04-17T07:39:32.525Z</time></trkpt><trkpt lat="46.0805783" lon="12.6457617"><ele>188.0</ele><time>2026-04-17T07:39:33.519Z</time></trkpt><trkpt lat="46.080695" lon="12.6461433"><ele>188.0</ele><time>2026-04-17T07:39:34.519Z</time></trkpt><trkpt lat="46.0808083" lon="12.64653"><ele>188.0</ele><time>2026-04-17T07:39:35.519Z</time></trkpt><trkpt lat="46.0809183" lon="12.6469217"><ele>188.5</ele><time>2026-04-17T07:39:36.519Z</time></trkpt><trkpt lat="46.08103" lon="12.6473167"><ele>189.0</ele><time>2026-04-17T07:39:37.519Z</time></trkpt><trkpt lat="46.0811433" lon="12.6477117"><ele>189.0</ele><time>2026-04-17T07:39:38.52Z</time></trkpt><trkpt lat="46.081255" lon="12.6480967"><ele>189.0</ele><time>2026-04-17T07:39:39.519Z</time></trkpt><trkpt lat="46.0813583" lon="12.6484617"><ele>189.0</ele><time>2026-04-17T07:39:40.519Z</time></trkpt><trkpt lat="46.0814617" lon="12.6488117"><ele>189.0</ele><time>2026-04-17T07:39:41.519Z</time></trkpt><trkpt lat="46.0815633" lon="12.6491567"><ele>190.0</ele><time>2026-04-17T07:39:42.519Z</time></trkpt><trkpt lat="46.0816617" lon="12.6494933"><ele>191.0</ele><time>2026-04-17T07:39:43.52Z</time></trkpt><trkpt lat="46.0817567" lon="12.6498217"><ele>191.0</ele><time>2026-04-17T07:39:44.52Z</time></trkpt><trkpt lat="46.0818467" lon="12.650135"><ele>191.0</ele><time>2026-04-17T07:39:45.52Z</time></trkpt><trkpt lat="46.081935" lon="12.6504333"><ele>191.0</ele><time>2026-04-17T07:39:46.519Z</time></trkpt><trkpt lat="46.0820167" lon="12.6507133"><ele>191.0</ele><time>2026-04-17T07:39:47.519Z</time></trkpt><trkpt lat="46.0821" lon="12.650975"><ele>191.0</ele><time>2026-04-17T07:39:48.519Z</time></trkpt><trkpt lat="46.0821867" lon="12.6512117"><ele>191.25</ele><time>2026-04-17T07:39:49.519Z</time></trkpt><trkpt lat="46.0822733" lon="12.65142"><ele>191.5</ele><time>2026-04-17T07:39:50.52Z</time></trkpt><trkpt lat="46.0823567" lon="12.6515917"><ele>191.75</ele><time>2026-04-17T07:39:51.519Z</time></trkpt><trkpt lat="46.0824267" lon="12.6517283"><ele>192.0</ele><time>2026-04-17T07:39:52.519Z</time></trkpt><trkpt lat="46.0824717" lon="12.6518317"><ele>192.0</ele><time>2026-04-17T07:39:53.52Z</time></trkpt><trkpt lat="46.0825283" lon="12.6519567"><ele>192.0</ele><time>2026-04-17T07:39:55.519Z</time></trkpt><trkpt lat="46.0825533" lon="12.6520417"><ele>192.0</ele><time>2026-04-17T07:39:57.518Z</time></trkpt><trkpt lat="46.082555" lon="12.652135"><ele>192.0</ele><time>2026-04-17T07:39:59.519Z</time></trkpt><trkpt lat="46.0825317" lon="12.65228"><ele>192.0</ele><time>2026-04-17T07:40:01.52Z</time></trkpt><trkpt lat="46.0825067" lon="12.652365"><ele>192.0</ele><time>2026-04-17T07:40:02.52Z</time></trkpt><trkpt lat="46.0824833" lon="12.65246"><ele>192.0</ele><time>2026-04-17T07:40:03.518Z</time></trkpt><trkpt lat="46.0824717" lon="12.6525633"><ele>192.0</ele><time>2026-04-17T07:40:04.519Z</time></trkpt><trkpt lat="46.0824767" lon="12.6526767"><ele>192.0</ele><time>2026-04-17T07:40:05.52Z</time></trkpt><trkpt lat="46.0825017" lon="12.6527967"><ele>192.0</ele><time>2026-04-17T07:40:06.519Z</time></trkpt><trkpt lat="46.0825467" lon="12.6529083"><ele>192.0</ele><time>2026-04-17T07:40:07.519Z</time></trkpt><trkpt lat="46.0826117" lon="12.6530017"><ele>192.0</ele><time>2026-04-17T07:40:08.52Z</time></trkpt><trkpt lat="46.082695" lon="12.653075"><ele>192.0</ele><time>2026-04-17T07:40:09.519Z</time></trkpt><trkpt lat="46.0827883" lon="12.653115"><ele>192.0</ele><time>2026-04-17T07:40:10.518Z</time></trkpt><trkpt lat="46.0828833" lon="12.6531117"><ele>192.0</ele><time>2026-04-17T07:40:11.52Z</time></trkpt><trkpt lat="46.08298" lon="12.6530683"><ele>192.0</ele><time>2026-04-17T07:40:12.521Z</time></trkpt><trkpt lat="46.083065" lon="12.65298"><ele>192.0</ele><time>2026-04-17T07:40:13.521Z</time></trkpt><trkpt lat="46.08314" lon="12.6528567"><ele>192.25</ele><time>2026-04-17T07:40:14.52Z</time></trkpt><trkpt lat="46.083215" lon="12.652725"><ele>192.5</ele><time>2026-04-17T07:40:15.518Z</time></trkpt><trkpt lat="46.0833067" lon="12.6526117"><ele>192.75</ele><time>2026-04-17T07:40:16.519Z</time></trkpt><trkpt lat="46.083415" lon="12.6525367"><ele>193.0</ele><time>2026-04-17T07:40:17.519Z</time></trkpt><trkpt lat="46.0835467" lon="12.6524983"><ele>193.33333333333331</ele><time>2026-04-17T07:40:18.518Z</time></trkpt><trkpt lat="46.0836983" lon="12.652485"><ele>193.66666666666669</ele><time>2026-04-17T07:40:19.518Z</time></trkpt><trkpt lat="46.0838683" lon="12.6524817"><ele>194.0</ele><time>2026-04-17T07:40:20.519Z</time></trkpt><trkpt lat="46.0840533" lon="12.6524783"><ele>194.66666666666669</ele><time>2026-04-17T07:40:21.518Z</time></trkpt><trkpt lat="46.0842617" lon="12.6524633"><ele>195.33333333333331</ele><time>2026-04-17T07:40:22.518Z</time></trkpt><trkpt lat="46.084485" lon="12.652445"><ele>196.0</ele><time>2026-04-17T07:40:23.519Z</time></trkpt><trkpt lat="46.0847233" lon="12.65243"><ele>196.5</ele><time>2026-04-17T07:40:24.52Z</time></trkpt><trkpt lat="46.0849717" lon="12.6524167"><ele>197.0</ele><time>2026-04-17T07:40:25.519Z</time></trkpt><trkpt lat="46.085225" lon="12.6524083"><ele>197.0</ele><time>2026-04-17T07:40:26.522Z</time></trkpt><trkpt lat="46.085485" lon="12.6523983"><ele>197.0</ele><time>2026-04-17T07:40:27.519Z</time></trkpt><trkpt lat="46.08575" lon="12.65239"><ele>197.5</ele><time>2026-04-17T07:40:28.519Z</time></trkpt><trkpt lat="46.0860233" lon="12.65239"><ele>198.0</ele><time>2026-04-17T07:40:29.518Z</time></trkpt><trkpt lat="46.0863" lon="12.6523933"><ele>198.0</ele><time>2026-04-17T07:40:30.519Z</time></trkpt><trkpt lat="46.0865783" lon="12.652395"><ele>198.0</ele><time>2026-04-17T07:40:31.519Z</time></trkpt><trkpt lat="46.086855" lon="12.6523933"><ele>198.0</ele><time>2026-04-17T07:40:32.522Z</time></trkpt><trkpt lat="46.0871317" lon="12.6523883"><ele>198.0</ele><time>2026-04-17T07:40:33.519Z</time></trkpt><trkpt lat="46.08741" lon="12.6523833"><ele>198.0</ele><time>2026-04-17T07:40:34.519Z</time></trkpt><trkpt lat="46.087695" lon="12.65237"><ele>198.0</ele><time>2026-04-17T07:40:35.52Z</time></trkpt><trkpt lat="46.087985" lon="12.6523533"><ele>199.0</ele><time>2026-04-17T07:40:36.519Z</time></trkpt><trkpt lat="46.08829" lon="12.6523333"><ele>200.0</ele><time>2026-04-17T07:40:37.519Z</time></trkpt><trkpt lat="46.088615" lon="12.652315"><ele>200.0</ele><time>2026-04-17T07:40:38.52Z</time></trkpt><trkpt lat="46.0889483" lon="12.652305"><ele>200.0</ele><time>2026-04-17T07:40:39.519Z</time></trkpt><trkpt lat="46.0892867" lon="12.6523"><ele>201.0</ele><time>2026-04-17T07:40:40.52Z</time></trkpt><trkpt lat="46.0896183" lon="12.6523067"><ele>202.0</ele><time>2026-04-17T07:40:41.52Z</time></trkpt><trkpt lat="46.08993" lon="12.6523133"><ele>203.5</ele><time>2026-04-17T07:40:42.52Z</time></trkpt><trkpt lat="46.0902217" lon="12.6523167"><ele>205.0</ele><time>2026-04-17T07:40:43.519Z</time></trkpt><trkpt lat="46.0905" lon="12.6523117"><ele>205.5</ele><time>2026-04-17T07:40:44.52Z</time></trkpt><trkpt lat="46.09077" lon="12.6523"><ele>206.0</ele><time>2026-04-17T07:40:45.52Z</time></trkpt><trkpt lat="46.09104" lon="12.6522867"><ele>206.0</ele><time>2026-04-17T07:40:46.519Z</time></trkpt><trkpt lat="46.091305" lon="12.65228"><ele>206.0</ele><time>2026-04-17T07:40:47.52Z</time></trkpt><trkpt lat="46.091575" lon="12.652275"><ele>206.5</ele><time>2026-04-17T07:40:48.52Z</time></trkpt><trkpt lat="46.09185" lon="12.6522683"><ele>207.0</ele><time>2026-04-17T07:40:49.519Z</time></trkpt><trkpt lat="46.09213" lon="12.65226"><ele>207.0</ele><time>2026-04-17T07:40:50.519Z</time></trkpt><trkpt lat="46.0924117" lon="12.6522517"><ele>207.0</ele><time>2026-04-17T07:40:51.519Z</time></trkpt><trkpt lat="46.092695" lon="12.6522467"><ele>207.0</ele><time>2026-04-17T07:40:52.518Z</time></trkpt><trkpt lat="46.09298" lon="12.6522333"><ele>207.0</ele><time>2026-04-17T07:40:53.52Z</time></trkpt><trkpt lat="46.093265" lon="12.652205"><ele>207.5</ele><time>2026-04-17T07:40:54.52Z</time></trkpt><trkpt lat="46.0935533" lon="12.6521633"><ele>208.0</ele><time>2026-04-17T07:40:55.518Z</time></trkpt><trkpt lat="46.0938417" lon="12.6521067"><ele>208.5</ele><time>2026-04-17T07:40:56.519Z</time></trkpt><trkpt lat="46.09413" lon="12.65204"><ele>209.0</ele><time>2026-04-17T07:40:57.518Z</time></trkpt><trkpt lat="46.0944233" lon="12.6519667"><ele>210.0</ele><time>2026-04-17T07:40:58.518Z</time></trkpt><trkpt lat="46.09472" lon="12.6518967"><ele>211.0</ele><time>2026-04-17T07:40:59.521Z</time></trkpt><trkpt lat="46.0950183" lon="12.6518283"><ele>211.5</ele><time>2026-04-17T07:41:00.518Z</time></trkpt><trkpt lat="46.095315" lon="12.65176"><ele>212.0</ele><time>2026-04-17T07:41:01.519Z</time></trkpt><trkpt lat="46.0956083" lon="12.6517017"><ele>213.0</ele><time>2026-04-17T07:41:02.519Z</time></trkpt><trkpt lat="46.0959" lon="12.6516633"><ele>214.0</ele><time>2026-04-17T07:41:03.519Z</time></trkpt><trkpt lat="46.096195" lon="12.651645"><ele>214.0</ele><time>2026-04-17T07:41:04.518Z</time></trkpt><trkpt lat="46.09649" lon="12.65164"><ele>214.0</ele><time>2026-04-17T07:41:05.519Z</time></trkpt><trkpt lat="46.09679" lon="12.651645"><ele>214.0</ele><time>2026-04-17T07:41:06.52Z</time></trkpt><trkpt lat="46.0970883" lon="12.6516417"><ele>214.0</ele><time>2026-04-17T07:41:07.519Z</time></trkpt><trkpt lat="46.0973967" lon="12.6516517"><ele>215.0</ele><time>2026-04-17T07:41:08.518Z</time></trkpt><trkpt lat="46.097695" lon="12.6516467"><ele>216.0</ele><time>2026-04-17T07:41:09.521Z</time></trkpt><trkpt lat="46.097995" lon="12.651645"><ele>215.5</ele><time>2026-04-17T07:41:10.518Z</time></trkpt><trkpt lat="46.0982967" lon="12.6516417"><ele>215.0</ele><time>2026-04-17T07:41:11.519Z</time></trkpt><trkpt lat="46.098605" lon="12.6516383"><ele>215.0</ele><time>2026-04-17T07:41:12.517Z</time></trkpt><trkpt lat="46.0989167" lon="12.6516383"><ele>215.0</ele><time>2026-04-17T07:41:13.519Z</time></trkpt><trkpt lat="46.0992317" lon="12.65164"><ele>216.5</ele><time>2026-04-17T07:41:14.519Z</time></trkpt><trkpt lat="46.0995483" lon="12.6516433"><ele>218.0</ele><time>2026-04-17T07:41:15.518Z</time></trkpt><trkpt lat="46.0998633" lon="12.6516433"><ele>219.5</ele><time>2026-04-17T07:41:16.519Z</time></trkpt><trkpt lat="46.1001783" lon="12.651645"><ele>221.0</ele><time>2026-04-17T07:41:17.519Z</time></trkpt><trkpt lat="46.1004967" lon="12.6516483"><ele>221.5</ele><time>2026-04-17T07:41:18.519Z</time></trkpt><trkpt lat="46.1008133" lon="12.6516583"><ele>222.0</ele><time>2026-04-17T07:41:19.519Z</time></trkpt><trkpt lat="46.10113" lon="12.65168"><ele>222.0</ele><time>2026-04-17T07:41:20.522Z</time></trkpt><trkpt lat="46.1014467" lon="12.6517183"><ele>222.0</ele><time>2026-04-17T07:41:21.518Z</time></trkpt><trkpt lat="46.101765" lon="12.6517717"><ele>223.0</ele><time>2026-04-17T07:41:22.52Z</time></trkpt><trkpt lat="46.1020833" lon="12.6518267"><ele>224.0</ele><time>2026-04-17T07:41:23.518Z</time></trkpt><trkpt lat="46.1023967" lon="12.6518817"><ele>224.0</ele><time>2026-04-17T07:41:24.517Z</time></trkpt><trkpt lat="46.1026983" lon="12.6519367"><ele>224.0</ele><time>2026-04-17T07:41:25.519Z</time></trkpt><trkpt lat="46.1029933" lon="12.651995"><ele>224.5</ele><time>2026-04-17T07:41:26.519Z</time></trkpt><trkpt lat="46.1032817" lon="12.6520767"><ele>225.0</ele><time>2026-04-17T07:41:27.517Z</time></trkpt><trkpt lat="46.103565" lon="12.6521917"><ele>225.0</ele><time>2026-04-17T07:41:28.518Z</time></trkpt><trkpt lat="46.1038533" lon="12.65232"><ele>225.0</ele><time>2026-04-17T07:41:29.52Z</time></trkpt><trkpt lat="46.1041417" lon="12.6524517"><ele>226.5</ele><time>2026-04-17T07:41:30.518Z</time></trkpt><trkpt lat="46.1044383" lon="12.6525867"><ele>228.0</ele><time>2026-04-17T07:41:31.519Z</time></trkpt><trkpt lat="46.1047433" lon="12.6527233"><ele>228.0</ele><time>2026-04-17T07:41:32.521Z</time></trkpt><trkpt lat="46.1050517" lon="12.65286"><ele>228.0</ele><time>2026-04-17T07:41:33.52Z</time></trkpt><trkpt lat="46.105365" lon="12.65298"><ele>228.0</ele><time>2026-04-17T07:41:34.517Z</time></trkpt><trkpt lat="46.1056833" lon="12.6530683"><ele>228.0</ele><time>2026-04-17T07:41:35.52Z</time></trkpt><trkpt lat="46.1060067" lon="12.65313"><ele>228.5</ele><time>2026-04-17T07:41:36.518Z</time></trkpt><trkpt lat="46.10632" lon="12.6531733"><ele>229.0</ele><time>2026-04-17T07:41:37.519Z</time></trkpt><trkpt lat="46.10662" lon="12.65321"><ele>229.0</ele><time>2026-04-17T07:41:38.519Z</time></trkpt><trkpt lat="46.1069067" lon="12.6532467"><ele>229.0</ele><time>2026-04-17T07:41:39.52Z</time></trkpt><trkpt lat="46.1071833" lon="12.65328"><ele>230.5</ele><time>2026-04-17T07:41:40.517Z</time></trkpt><trkpt lat="46.1074517" lon="12.6533133"><ele>232.0</ele><time>2026-04-17T07:41:41.519Z</time></trkpt><trkpt lat="46.107715" lon="12.653345"><ele>232.0</ele><time>2026-04-17T07:41:42.518Z</time></trkpt><trkpt lat="46.107975" lon="12.653375"><ele>232.0</ele><time>2026-04-17T07:41:43.518Z</time></trkpt><trkpt lat="46.1082317" lon="12.653405"><ele>233.0</ele><time>2026-04-17T07:41:44.52Z</time></trkpt><trkpt lat="46.10848" lon="12.653435"><ele>234.0</ele><time>2026-04-17T07:41:45.518Z</time></trkpt><trkpt lat="46.1087233" lon="12.653465"><ele>234.0</ele><time>2026-04-17T07:41:46.519Z</time></trkpt><trkpt lat="46.108965" lon="12.653495"><ele>234.0</ele><time>2026-04-17T07:41:47.519Z</time></trkpt><trkpt lat="46.109205" lon="12.6535233"><ele>234.5</ele><time>2026-04-17T07:41:48.519Z</time></trkpt><trkpt lat="46.1094483" lon="12.653555"><ele>235.0</ele><time>2026-04-17T07:41:49.52Z</time></trkpt><trkpt lat="46.1096883" lon="12.6535883"><ele>236.0</ele><time>2026-04-17T07:41:50.52Z</time></trkpt><trkpt lat="46.1099333" lon="12.6536217"><ele>237.0</ele><time>2026-04-17T07:41:51.517Z</time></trkpt><trkpt lat="46.1101783" lon="12.653655"><ele>237.0</ele><time>2026-04-17T07:41:52.517Z</time></trkpt><trkpt lat="46.1104217" lon="12.653685"><ele>237.0</ele><time>2026-04-17T07:41:53.518Z</time></trkpt><trkpt lat="46.1106667" lon="12.6537183"><ele>236.5</ele><time>2026-04-17T07:41:54.518Z</time></trkpt><trkpt lat="46.110915" lon="12.6537467"><ele>236.0</ele><time>2026-04-17T07:41:55.518Z</time></trkpt><trkpt lat="46.1111667" lon="12.653775"><ele>236.0</ele><time>2026-04-17T07:41:56.517Z</time></trkpt><trkpt lat="46.1114233" lon="12.6538117"><ele>236.0</ele><time>2026-04-17T07:41:57.517Z</time></trkpt><trkpt lat="46.1116867" lon="12.65386"><ele>237.0</ele><time>2026-04-17T07:41:58.518Z</time></trkpt><trkpt lat="46.1119617" lon="12.6539283"><ele>238.0</ele><time>2026-04-17T07:41:59.517Z</time></trkpt><trkpt lat="46.1122383" lon="12.6540117"><ele>238.5</ele><time>2026-04-17T07:42:00.519Z</time></trkpt><trkpt lat="46.1125183" lon="12.6541067"><ele>239.0</ele><time>2026-04-17T07:42:01.519Z</time></trkpt><trkpt lat="46.1128" lon="12.6542033"><ele>239.0</ele><time>2026-04-17T07:42:02.519Z</time></trkpt><trkpt lat="46.1130833" lon="12.6542983"><ele>239.0</ele><time>2026-04-17T07:42:03.518Z</time></trkpt><trkpt lat="46.1133683" lon="12.6543983"><ele>240.5</ele><time>2026-04-17T07:42:04.517Z</time></trkpt><trkpt lat="46.1136533" lon="12.654495"><ele>242.0</ele><time>2026-04-17T07:42:05.519Z</time></trkpt><trkpt lat="46.1139383" lon="12.6545883"><ele>243.0</ele><time>2026-04-17T07:42:06.517Z</time></trkpt><trkpt lat="46.114225" lon="12.654685"><ele>244.0</ele><time>2026-04-17T07:42:07.519Z</time></trkpt><trkpt lat="46.114515" lon="12.6547817"><ele>244.0</ele><time>2026-04-17T07:42:08.519Z</time></trkpt><trkpt lat="46.1148017" lon="12.6548767"><ele>244.0</ele><time>2026-04-17T07:42:09.518Z</time></trkpt><trkpt lat="46.1150883" lon="12.65497"><ele>245.0</ele><time>2026-04-17T07:42:10.517Z</time></trkpt><trkpt lat="46.1153767" lon="12.655065"><ele>246.0</ele><time>2026-04-17T07:42:11.519Z</time></trkpt><trkpt lat="46.1156633" lon="12.6551567"><ele>246.5</ele><time>2026-04-17T07:42:12.522Z</time></trkpt><trkpt lat="46.11595" lon="12.6552517"><ele>247.0</ele><time>2026-04-17T07:42:13.518Z</time></trkpt><trkpt lat="46.1162383" lon="12.6553467"><ele>247.0</ele><time>2026-04-17T07:42:14.519Z</time></trkpt><trkpt lat="46.1165283" lon="12.6554417"><ele>247.0</ele><time>2026-04-17T07:42:15.52Z</time></trkpt><trkpt lat="46.1168183" lon="12.65554"><ele>248.0</ele><time>2026-04-17T07:42:16.518Z</time></trkpt><trkpt lat="46.1171083" lon="12.6556367"><ele>249.0</ele><time>2026-04-17T07:42:17.519Z</time></trkpt><trkpt lat="46.1174" lon="12.6557333"><ele>249.5</ele><time>2026-04-17T07:42:18.519Z</time></trkpt><trkpt lat="46.11769" lon="12.6558217"><ele>250.0</ele><time>2026-04-17T07:42:19.519Z</time></trkpt><trkpt lat="46.11798" lon="12.6559033"><ele>250.5</ele><time>2026-04-17T07:42:20.519Z</time></trkpt><trkpt lat="46.118275" lon="12.6559783"><ele>251.0</ele><time>2026-04-17T07:42:21.52Z</time></trkpt><trkpt lat="46.118575" lon="12.6560467"><ele>251.0</ele><time>2026-04-17T07:42:22.519Z</time></trkpt><trkpt lat="46.1188767" lon="12.6561117"><ele>251.0</ele><time>2026-04-17T07:42:23.519Z</time></trkpt><trkpt lat="46.1191817" lon="12.6561783"><ele>251.5</ele><time>2026-04-17T07:42:24.519Z</time></trkpt><trkpt lat="46.119485" lon="12.6562433"><ele>252.0</ele><time>2026-04-17T07:42:25.519Z</time></trkpt><trkpt lat="46.1197867" lon="12.65631"><ele>252.5</ele><time>2026-04-17T07:42:26.518Z</time></trkpt><trkpt lat="46.1200883" lon="12.6563767"><ele>253.0</ele><time>2026-04-17T07:42:27.518Z</time></trkpt><trkpt lat="46.12039" lon="12.656445"><ele>253.0</ele><time>2026-04-17T07:42:28.518Z</time></trkpt><trkpt lat="46.1206883" lon="12.6565117"><ele>253.0</ele><time>2026-04-17T07:42:29.521Z</time></trkpt><trkpt lat="46.1209883" lon="12.6565733"><ele>253.5</ele><time>2026-04-17T07:42:30.518Z</time></trkpt><trkpt lat="46.12129" lon="12.65664"><ele>254.0</ele><time>2026-04-17T07:42:31.519Z</time></trkpt><trkpt lat="46.1215933" lon="12.6567067"><ele>255.0</ele><time>2026-04-17T07:42:32.52Z</time></trkpt><trkpt lat="46.1219017" lon="12.656775"><ele>256.0</ele><time>2026-04-17T07:42:33.519Z</time></trkpt><trkpt lat="46.1222133" lon="12.6568417"><ele>256.0</ele><time>2026-04-17T07:42:34.518Z</time></trkpt><trkpt lat="46.12253" lon="12.6569083"><ele>256.0</ele><time>2026-04-17T07:42:35.519Z</time></trkpt><trkpt lat="46.1228517" lon="12.6569767"><ele>257.0</ele><time>2026-04-17T07:42:36.519Z</time></trkpt><trkpt lat="46.1231717" lon="12.6570467"><ele>258.0</ele><time>2026-04-17T07:42:37.518Z</time></trkpt><trkpt lat="46.1234917" lon="12.657115"><ele>258.5</ele><time>2026-04-17T07:42:38.52Z</time></trkpt><trkpt lat="46.1238117" lon="12.657185"><ele>259.0</ele><time>2026-04-17T07:42:39.519Z</time></trkpt><trkpt lat="46.1241383" lon="12.6572567"><ele>260.0</ele><time>2026-04-17T07:42:40.519Z</time></trkpt><trkpt lat="46.1244683" lon="12.65733"><ele>261.0</ele><time>2026-04-17T07:42:41.518Z</time></trkpt><trkpt lat="46.1248083" lon="12.6574033"><ele>262.0</ele><time>2026-04-17T07:42:42.519Z</time></trkpt><trkpt lat="46.125155" lon="12.6574767"><ele>263.0</ele><time>2026-04-17T07:42:43.521Z</time></trkpt><trkpt lat="46.125505" lon="12.6575483"><ele>264.0</ele><time>2026-04-17T07:42:44.519Z</time></trkpt><trkpt lat="46.1258583" lon="12.657615"><ele>265.0</ele><time>2026-04-17T07:42:45.518Z</time></trkpt><trkpt lat="46.1262117" lon="12.6576783"><ele>265.0</ele><time>2026-04-17T07:42:46.518Z</time></trkpt><trkpt lat="46.1265683" lon="12.6577383"><ele>265.0</ele><time>2026-04-17T07:42:47.52Z</time></trkpt><trkpt lat="46.1269267" lon="12.657795"><ele>265.0</ele><time>2026-04-17T07:42:48.518Z</time></trkpt><trkpt lat="46.1272867" lon="12.6578483"><ele>265.0</ele><time>2026-04-17T07:42:49.52Z</time></trkpt><trkpt lat="46.127645" lon="12.6579017"><ele>266.0</ele><time>2026-04-17T07:42:50.519Z</time></trkpt><trkpt lat="46.1280017" lon="12.6579517"><ele>267.0</ele><time>2026-04-17T07:42:51.519Z</time></trkpt><trkpt lat="46.12835" lon="12.6580033"><ele>267.5</ele><time>2026-04-17T07:42:52.518Z</time></trkpt><trkpt lat="46.128685" lon="12.658065"><ele>268.0</ele><time>2026-04-17T07:42:53.518Z</time></trkpt><trkpt lat="46.12901" lon="12.658145"><ele>269.0</ele><time>2026-04-17T07:42:54.519Z</time></trkpt><trkpt lat="46.1293283" lon="12.658245"><ele>270.0</ele><time>2026-04-17T07:42:55.518Z</time></trkpt><trkpt lat="46.129635" lon="12.6583617"><ele>271.5</ele><time>2026-04-17T07:42:56.519Z</time></trkpt><trkpt lat="46.129925" lon="12.65849"><ele>273.0</ele><time>2026-04-17T07:42:57.519Z</time></trkpt><trkpt lat="46.1301983" lon="12.6586317"><ele>273.0</ele><time>2026-04-17T07:42:58.52Z</time></trkpt><trkpt lat="46.1304583" lon="12.6587867"><ele>273.0</ele><time>2026-04-17T07:42:59.518Z</time></trkpt><trkpt lat="46.1307033" lon="12.6589517"><ele>274.0</ele><time>2026-04-17T07:43:00.518Z</time></trkpt><trkpt lat="46.1309367" lon="12.6591233"><ele>275.0</ele><time>2026-04-17T07:43:01.519Z</time></trkpt><trkpt lat="46.1311633" lon="12.6592933"><ele>274.5</ele><time>2026-04-17T07:43:02.519Z</time></trkpt><trkpt lat="46.131385" lon="12.6594533"><ele>274.0</ele><time>2026-04-17T07:43:03.519Z</time></trkpt><trkpt lat="46.1315933" lon="12.6596067"><ele>274.66666666666663</ele><time>2026-04-17T07:43:04.518Z</time></trkpt><trkpt lat="46.1317867" lon="12.659755"><ele>275.3333333333333</ele><time>2026-04-17T07:43:05.519Z</time></trkpt><trkpt lat="46.1319717" lon="12.6598983"><ele>276.0</ele><time>2026-04-17T07:43:06.518Z</time></trkpt><trkpt lat="46.13215" lon="12.6600367"><ele>276.0</ele><time>2026-04-17T07:43:07.518Z</time></trkpt><trkpt lat="46.1323283" lon="12.6601733"><ele>276.0</ele><time>2026-04-17T07:43:08.519Z</time></trkpt><trkpt lat="46.1325017" lon="12.6603067"><ele>276.0</ele><time>2026-04-17T07:43:09.519Z</time></trkpt><trkpt lat="46.1326767" lon="12.66044"><ele>276.0</ele><time>2026-04-17T07:43:10.519Z</time></trkpt><trkpt lat="46.1328633" lon="12.6605733"><ele>276.0</ele><time>2026-04-17T07:43:11.52Z</time></trkpt><trkpt lat="46.1330583" lon="12.660705"><ele>276.0</ele><time>2026-04-17T07:43:12.519Z</time></trkpt><trkpt lat="46.1332717" lon="12.6608517"><ele>276.5</ele><time>2026-04-17T07:43:13.519Z</time></trkpt><trkpt lat="46.1335" lon="12.6610083"><ele>277.0</ele><time>2026-04-17T07:43:14.519Z</time></trkpt><trkpt lat="46.1337383" lon="12.661175"><ele>277.0</ele><time>2026-04-17T07:43:15.518Z</time></trkpt><trkpt lat="46.1339883" lon="12.6613517"><ele>277.0</ele><time>2026-04-17T07:43:16.518Z</time></trkpt><trkpt lat="46.1342483" lon="12.6615283"><ele>277.5</ele><time>2026-04-17T07:43:17.519Z</time></trkpt><trkpt lat="46.1345183" lon="12.6616933"><ele>278.0</ele><time>2026-04-17T07:43:18.519Z</time></trkpt><trkpt lat="46.13479" lon="12.6618483"><ele>278.5</ele><time>2026-04-17T07:43:19.521Z</time></trkpt><trkpt lat="46.135055" lon="12.661995"><ele>279.0</ele><time>2026-04-17T07:43:20.519Z</time></trkpt><trkpt lat="46.1353117" lon="12.6621367"><ele>279.0</ele><time>2026-04-17T07:43:21.519Z</time></trkpt><trkpt lat="46.1355633" lon="12.6622767"><ele>279.0</ele><time>2026-04-17T07:43:22.518Z</time></trkpt><trkpt lat="46.13581" lon="12.66241"><ele>281.0</ele><time>2026-04-17T07:43:23.518Z</time></trkpt><trkpt lat="46.1360517" lon="12.6625417"><ele>283.0</ele><time>2026-04-17T07:43:24.52Z</time></trkpt><trkpt lat="46.1362933" lon="12.662675"><ele>284.0</ele><time>2026-04-17T07:43:25.519Z</time></trkpt><trkpt lat="46.13653" lon="12.662805"><ele>285.0</ele><time>2026-04-17T07:43:26.518Z</time></trkpt><trkpt lat="46.1367617" lon="12.662925"><ele>285.0</ele><time>2026-04-17T07:43:27.518Z</time></trkpt><trkpt lat="46.136985" lon="12.66304"><ele>285.0</ele><time>2026-04-17T07:43:28.518Z</time></trkpt><trkpt lat="46.1372033" lon="12.663145"><ele>285.5</ele><time>2026-04-17T07:43:29.519Z</time></trkpt><trkpt lat="46.1374217" lon="12.663245"><ele>286.0</ele><time>2026-04-17T07:43:30.518Z</time></trkpt><trkpt lat="46.1376383" lon="12.6633383"><ele>286.0</ele><time>2026-04-17T07:43:31.519Z</time></trkpt><trkpt lat="46.1378517" lon="12.66343"><ele>286.0</ele><time>2026-04-17T07:43:32.519Z</time></trkpt><trkpt lat="46.138065" lon="12.6635133"><ele>286.0</ele><time>2026-04-17T07:43:33.518Z</time></trkpt><trkpt lat="46.138285" lon="12.6635883"><ele>286.0</ele><time>2026-04-17T07:43:34.518Z</time></trkpt><trkpt lat="46.1385183" lon="12.6636583"><ele>286.0</ele><time>2026-04-17T07:43:35.518Z</time></trkpt><trkpt lat="46.1387683" lon="12.6637333"><ele>286.0</ele><time>2026-04-17T07:43:36.518Z</time></trkpt><trkpt lat="46.1390283" lon="12.6638167"><ele>286.0</ele><time>2026-04-17T07:43:37.519Z</time></trkpt><trkpt lat="46.1392983" lon="12.6639067"><ele>286.5</ele><time>2026-04-17T07:43:38.524Z</time></trkpt><trkpt lat="46.1395683" lon="12.6640067"><ele>287.0</ele><time>2026-04-17T07:43:39.52Z</time></trkpt><trkpt lat="46.1398433" lon="12.6641067"><ele>289.0</ele><time>2026-04-17T07:43:40.519Z</time></trkpt><trkpt lat="46.14011" lon="12.6642083"><ele>291.0</ele><time>2026-04-17T07:43:41.519Z</time></trkpt><trkpt lat="46.1403633" lon="12.6643083"><ele>291.0</ele><time>2026-04-17T07:43:42.519Z</time></trkpt><trkpt lat="46.140605" lon="12.66441"><ele>291.0</ele><time>2026-04-17T07:43:43.519Z</time></trkpt><trkpt lat="46.1408367" lon="12.6645117"><ele>290.0</ele><time>2026-04-17T07:43:44.519Z</time></trkpt><trkpt lat="46.141065" lon="12.664615"><ele>289.0</ele><time>2026-04-17T07:43:45.519Z</time></trkpt><trkpt lat="46.1412933" lon="12.6647233"><ele>289.0</ele><time>2026-04-17T07:43:46.518Z</time></trkpt><trkpt lat="46.141525" lon="12.6648367"><ele>289.0</ele><time>2026-04-17T07:43:47.519Z</time></trkpt><trkpt lat="46.1417667" lon="12.66496"><ele>289.5</ele><time>2026-04-17T07:43:48.519Z</time></trkpt><trkpt lat="46.1420167" lon="12.665095"><ele>290.0</ele><time>2026-04-17T07:43:49.518Z</time></trkpt><trkpt lat="46.142275" lon="12.6652483"><ele>291.0</ele><time>2026-04-17T07:43:50.519Z</time></trkpt><trkpt lat="46.1425383" lon="12.665415"><ele>292.0</ele><time>2026-04-17T07:43:51.519Z</time></trkpt><trkpt lat="46.1428067" lon="12.6655967"><ele>292.0</ele><time>2026-04-17T07:43:52.519Z</time></trkpt><trkpt lat="46.143075" lon="12.66579"><ele>292.0</ele><time>2026-04-17T07:43:53.52Z</time></trkpt><trkpt lat="46.1433367" lon="12.6659867"><ele>293.0</ele><time>2026-04-17T07:43:54.519Z</time></trkpt><trkpt lat="46.14359" lon="12.6661783"><ele>294.0</ele><time>2026-04-17T07:43:55.519Z</time></trkpt><trkpt lat="46.1438417" lon="12.6663683"><ele>294.0</ele><time>2026-04-17T07:43:56.519Z</time></trkpt><trkpt lat="46.1440867" lon="12.6665517"><ele>294.0</ele><time>2026-04-17T07:43:57.519Z</time></trkpt><trkpt lat="46.1443267" lon="12.6667333"><ele>294.0</ele><time>2026-04-17T07:43:58.52Z</time></trkpt><trkpt lat="46.1445567" lon="12.666915"><ele>294.0</ele><time>2026-04-17T07:43:59.519Z</time></trkpt><trkpt lat="46.1447733" lon="12.6670933"><ele>296.0</ele><time>2026-04-17T07:44:00.521Z</time></trkpt><trkpt lat="46.1449817" lon="12.6672717"><ele>298.0</ele><time>2026-04-17T07:44:01.519Z</time></trkpt><trkpt lat="46.14518" lon="12.6674483"><ele>298.0</ele><time>2026-04-17T07:44:02.519Z</time></trkpt><trkpt lat="46.1453717" lon="12.667625"><ele>298.0</ele><time>2026-04-17T07:44:03.519Z</time></trkpt><trkpt lat="46.14555" lon="12.6677967"><ele>298.0</ele><time>2026-04-17T07:44:04.519Z</time></trkpt><trkpt lat="46.1457183" lon="12.6679683"><ele>297.3333333333333</ele><time>2026-04-17T07:44:05.519Z</time></trkpt><trkpt lat="46.1458667" lon="12.66814"><ele>296.6666666666667</ele><time>2026-04-17T07:44:06.519Z</time></trkpt><trkpt lat="46.1460017" lon="12.6683083"><ele>296.0</ele><time>2026-04-17T07:44:07.519Z</time></trkpt><trkpt lat="46.1461333" lon="12.6684783"><ele>296.0</ele><time>2026-04-17T07:44:08.519Z</time></trkpt><trkpt lat="46.1462633" lon="12.668655"><ele>296.0</ele><time>2026-04-17T07:44:09.519Z</time></trkpt><trkpt lat="46.1463917" lon="12.6688367"><ele>296.0</ele><time>2026-04-17T07:44:10.519Z</time></trkpt><trkpt lat="46.14651" lon="12.6690133"><ele>295.75</ele><time>2026-04-17T07:44:11.519Z</time></trkpt><trkpt lat="46.1466167" lon="12.6691817"><ele>295.5</ele><time>2026-04-17T07:44:12.519Z</time></trkpt><trkpt lat="46.146715" lon="12.6693133"><ele>295.25</ele><time>2026-04-17T07:44:13.519Z</time></trkpt><trkpt lat="46.1468083" lon="12.6693933"><ele>295.0</ele><time>2026-04-17T07:44:14.519Z</time></trkpt><trkpt lat="46.146895" lon="12.6694217"><ele>295.0</ele><time>2026-04-17T07:44:15.519Z</time></trkpt><trkpt lat="46.1469733" lon="12.6694033"><ele>295.0</ele><time>2026-04-17T07:44:16.518Z</time></trkpt><trkpt lat="46.14705" lon="12.6693367"><ele>295.0</ele><time>2026-04-17T07:44:17.522Z</time></trkpt><trkpt lat="46.1471167" lon="12.669215"><ele>295.0</ele><time>2026-04-17T07:44:18.519Z</time></trkpt><trkpt lat="46.1471667" lon="12.66906"><ele>295.0</ele><time>2026-04-17T07:44:19.52Z</time></trkpt><trkpt lat="46.1471933" lon="12.6688683"><ele>295.0</ele><time>2026-04-17T07:44:20.519Z</time></trkpt><trkpt lat="46.1472067" lon="12.6686467"><ele>295.0</ele><time>2026-04-17T07:44:21.518Z</time></trkpt><trkpt lat="46.1472217" lon="12.66839"><ele>295.0</ele><time>2026-04-17T07:44:22.519Z</time></trkpt><trkpt lat="46.1472467" lon="12.668105"><ele>295.3333333333333</ele><time>2026-04-17T07:44:23.519Z</time></trkpt><trkpt lat="46.147275" lon="12.6677967"><ele>295.6666666666667</ele><time>2026-04-17T07:44:24.519Z</time></trkpt><trkpt lat="46.147315" lon="12.66748"><ele>296.0</ele><time>2026-04-17T07:44:25.519Z</time></trkpt><trkpt lat="46.1473717" lon="12.6671533"><ele>296.5</ele><time>2026-04-17T07:44:26.52Z</time></trkpt><trkpt lat="46.1474483" lon="12.6668233"><ele>297.0</ele><time>2026-04-17T07:44:27.519Z</time></trkpt><trkpt lat="46.147545" lon="12.6664967"><ele>297.0</ele><time>2026-04-17T07:44:28.519Z</time></trkpt><trkpt lat="46.1476617" lon="12.666185"><ele>297.0</ele><time>2026-04-17T07:44:29.52Z</time></trkpt><trkpt lat="46.14779" lon="12.6659117"><ele>297.3333333333333</ele><time>2026-04-17T07:44:30.519Z</time></trkpt><trkpt lat="46.14793" lon="12.6656767"><ele>297.66666666666663</ele><time>2026-04-17T07:44:31.52Z</time></trkpt><trkpt lat="46.1480783" lon="12.66548"><ele>298.0</ele><time>2026-04-17T07:44:32.52Z</time></trkpt><trkpt lat="46.1482267" lon="12.6653183"><ele>298.0</ele><time>2026-04-17T07:44:33.518Z</time></trkpt><trkpt lat="46.14838" lon="12.6651767"><ele>298.0</ele><time>2026-04-17T07:44:34.518Z</time></trkpt><trkpt lat="46.1485433" lon="12.6650367"><ele>298.0</ele><time>2026-04-17T07:44:35.518Z</time></trkpt><trkpt lat="46.1487217" lon="12.66489"><ele>298.0</ele><time>2026-04-17T07:44:36.518Z</time></trkpt><trkpt lat="46.1489217" lon="12.66474"><ele>298.0</ele><time>2026-04-17T07:44:37.519Z</time></trkpt><trkpt lat="46.149135" lon="12.6645867"><ele>299.5</ele><time>2026-04-17T07:44:38.523Z</time></trkpt><trkpt lat="46.1493583" lon="12.66443"><ele>301.0</ele><time>2026-04-17T07:44:39.519Z</time></trkpt><trkpt lat="46.1495883" lon="12.664275"><ele>301.0</ele><time>2026-04-17T07:44:40.519Z</time></trkpt><trkpt lat="46.1498283" lon="12.6641083"><ele>301.0</ele><time>2026-04-17T07:44:41.519Z</time></trkpt><trkpt lat="46.1500733" lon="12.6639383"><ele>300.5</ele><time>2026-04-17T07:44:42.519Z</time></trkpt><trkpt lat="46.1503267" lon="12.6637617"><ele>300.0</ele><time>2026-04-17T07:44:43.519Z</time></trkpt><trkpt lat="46.150585" lon="12.6635767"><ele>301.0</ele><time>2026-04-17T07:44:44.52Z</time></trkpt><trkpt lat="46.1508483" lon="12.6633867"><ele>302.0</ele><time>2026-04-17T07:44:45.519Z</time></trkpt><trkpt lat="46.151105" lon="12.6632033"><ele>302.0</ele><time>2026-04-17T07:44:46.519Z</time></trkpt><trkpt lat="46.1513467" lon="12.66303"><ele>302.0</ele><time>2026-04-17T07:44:47.521Z</time></trkpt><trkpt lat="46.1515733" lon="12.6628633"><ele>302.0</ele><time>2026-04-17T07:44:48.518Z</time></trkpt><trkpt lat="46.1517767" lon="12.6627"><ele>302.0</ele><time>2026-04-17T07:44:49.519Z</time></trkpt><trkpt lat="46.1519517" lon="12.6625517"><ele>302.0</ele><time>2026-04-17T07:44:50.519Z</time></trkpt><trkpt lat="46.1521083" lon="12.6624033"><ele>302.0</ele><time>2026-04-17T07:44:51.519Z</time></trkpt><trkpt lat="46.152245" lon="12.6622533"><ele>302.0</ele><time>2026-04-17T07:44:52.52Z</time></trkpt><trkpt lat="46.1523567" lon="12.662125"><ele>302.0</ele><time>2026-04-17T07:44:53.52Z</time></trkpt><trkpt lat="46.1524483" lon="12.66203"><ele>302.0</ele><time>2026-04-17T07:44:54.518Z</time></trkpt><trkpt lat="46.1525417" lon="12.6619617"><ele>302.5</ele><time>2026-04-17T07:44:55.519Z</time></trkpt><trkpt lat="46.1526433" lon="12.6619217"><ele>303.0</ele><time>2026-04-17T07:44:56.522Z</time></trkpt><trkpt lat="46.1527467" lon="12.661925"><ele>303.5</ele><time>2026-04-17T07:44:57.518Z</time></trkpt><trkpt lat="46.152855" lon="12.6619733"><ele>304.0</ele><time>2026-04-17T07:44:58.519Z</time></trkpt><trkpt lat="46.1529867" lon="12.6620633"><ele>304.0</ele><time>2026-04-17T07:44:59.52Z</time></trkpt><trkpt lat="46.1531333" lon="12.6621617"><ele>304.0</ele><time>2026-04-17T07:45:00.519Z</time></trkpt><trkpt lat="46.1532967" lon="12.66227"><ele>304.0</ele><time>2026-04-17T07:45:01.52Z</time></trkpt><trkpt lat="46.1534683" lon="12.6623833"><ele>304.3333333333333</ele><time>2026-04-17T07:45:02.52Z</time></trkpt><trkpt lat="46.153645" lon="12.662495"><ele>304.6666666666667</ele><time>2026-04-17T07:45:03.519Z</time></trkpt><trkpt lat="46.1538233" lon="12.6626033"><ele>305.0</ele><time>2026-04-17T07:45:04.518Z</time></trkpt><trkpt lat="46.1539983" lon="12.6627033"><ele>306.33333333333337</ele><time>2026-04-17T07:45:05.521Z</time></trkpt><trkpt lat="46.154165" lon="12.6627917"><ele>307.6666666666667</ele><time>2026-04-17T07:45:06.519Z</time></trkpt><trkpt lat="46.1543283" lon="12.6628683"><ele>309.0</ele><time>2026-04-17T07:45:07.519Z</time></trkpt><trkpt lat="46.1544883" lon="12.6629417"><ele>309.0</ele><time>2026-04-17T07:45:08.518Z</time></trkpt><trkpt lat="46.15465" lon="12.6630033"><ele>309.0</ele><time>2026-04-17T07:45:09.518Z</time></trkpt><trkpt lat="46.1548117" lon="12.6630567"><ele>309.0</ele><time>2026-04-17T07:45:10.518Z</time></trkpt><trkpt lat="46.15497" lon="12.6631083"><ele>308.75</ele><time>2026-04-17T07:45:11.518Z</time></trkpt><trkpt lat="46.1551167" lon="12.6631583"><ele>308.5</ele><time>2026-04-17T07:45:12.517Z</time></trkpt><trkpt lat="46.155255" lon="12.6632033"><ele>308.25</ele><time>2026-04-17T07:45:13.518Z</time></trkpt><trkpt lat="46.1553833" lon="12.6632467"><ele>308.0</ele><time>2026-04-17T07:45:14.518Z</time></trkpt><trkpt lat="46.1555083" lon="12.6632867"><ele>308.0</ele><time>2026-04-17T07:45:15.518Z</time></trkpt><trkpt lat="46.1556233" lon="12.663325"><ele>308.0</ele><time>2026-04-17T07:45:16.518Z</time></trkpt><trkpt lat="46.1557383" lon="12.663365"><ele>308.0</ele><time>2026-04-17T07:45:17.518Z</time></trkpt><trkpt lat="46.1558617" lon="12.6634067"><ele>308.0</ele><time>2026-04-17T07:45:18.518Z</time></trkpt><trkpt lat="46.155995" lon="12.663455"><ele>308.25</ele><time>2026-04-17T07:45:19.518Z</time></trkpt><trkpt lat="46.156125" lon="12.6635033"><ele>308.5</ele><time>2026-04-17T07:45:20.519Z</time></trkpt><trkpt lat="46.1562517" lon="12.66355"><ele>308.75</ele><time>2026-04-17T07:45:21.518Z</time></trkpt><trkpt lat="46.1563717" lon="12.6635967"><ele>309.0</ele><time>2026-04-17T07:45:22.518Z</time></trkpt><trkpt lat="46.1564967" lon="12.6636417"><ele>309.5</ele><time>2026-04-17T07:45:23.518Z</time></trkpt><trkpt lat="46.156625" lon="12.6636867"><ele>310.0</ele><time>2026-04-17T07:45:24.518Z</time></trkpt><trkpt lat="46.15676" lon="12.663725"><ele>310.5</ele><time>2026-04-17T07:45:25.52Z</time></trkpt><trkpt lat="46.1569017" lon="12.6637517"><ele>311.0</ele><time>2026-04-17T07:45:26.518Z</time></trkpt><trkpt lat="46.1570517" lon="12.6637667"><ele>311.0</ele><time>2026-04-17T07:45:27.518Z</time></trkpt><trkpt lat="46.1572033" lon="12.663775"><ele>311.0</ele><time>2026-04-17T07:45:28.518Z</time></trkpt><trkpt lat="46.1573567" lon="12.6637733"><ele>311.0</ele><time>2026-04-17T07:45:29.518Z</time></trkpt><trkpt lat="46.1575067" lon="12.6637633"><ele>311.25</ele><time>2026-04-17T07:45:30.518Z</time></trkpt><trkpt lat="46.157645" lon="12.66375"><ele>311.5</ele><time>2026-04-17T07:45:31.519Z</time></trkpt><trkpt lat="46.1577783" lon="12.6637283"><ele>311.75</ele><time>2026-04-17T07:45:32.518Z</time></trkpt><trkpt lat="46.1579033" lon="12.6637033"><ele>312.0</ele><time>2026-04-17T07:45:33.518Z</time></trkpt><trkpt lat="46.158025" lon="12.6636717"><ele>312.0</ele><time>2026-04-17T07:45:34.518Z</time></trkpt><trkpt lat="46.15814" lon="12.663625"><ele>312.0</ele><time>2026-04-17T07:45:35.518Z</time></trkpt><trkpt lat="46.1582483" lon="12.6635467"><ele>312.0</ele><time>2026-04-17T07:45:36.518Z</time></trkpt><trkpt lat="46.1583583" lon="12.6634667"><ele>312.0</ele><time>2026-04-17T07:45:37.518Z</time></trkpt><trkpt lat="46.1584767" lon="12.6634"><ele>312.0</ele><time>2026-04-17T07:45:38.522Z</time></trkpt><trkpt lat="46.158605" lon="12.6633433"><ele>312.0</ele><time>2026-04-17T07:45:39.522Z</time></trkpt><trkpt lat="46.1587433" lon="12.66329"><ele>312.0</ele><time>2026-04-17T07:45:40.518Z</time></trkpt><trkpt lat="46.15889" lon="12.6632417"><ele>312.0</ele><time>2026-04-17T07:45:41.518Z</time></trkpt><trkpt lat="46.159035" lon="12.66319"><ele>312.75</ele><time>2026-04-17T07:45:42.518Z</time></trkpt><trkpt lat="46.159175" lon="12.663145"><ele>313.5</ele><time>2026-04-17T07:45:43.518Z</time></trkpt><trkpt lat="46.1593133" lon="12.6631033"><ele>314.25</ele><time>2026-04-17T07:45:44.519Z</time></trkpt><trkpt lat="46.1594483" lon="12.6630667"><ele>315.0</ele><time>2026-04-17T07:45:45.518Z</time></trkpt><trkpt lat="46.159575" lon="12.6630383"><ele>315.0</ele><time>2026-04-17T07:45:46.522Z</time></trkpt><trkpt lat="46.1596917" lon="12.6630033"><ele>315.0</ele><time>2026-04-17T07:45:47.521Z</time></trkpt><trkpt lat="46.159805" lon="12.6629783"><ele>315.0</ele><time>2026-04-17T07:45:48.518Z</time></trkpt><trkpt lat="46.1599117" lon="12.6629483"><ele>315.0</ele><time>2026-04-17T07:45:49.522Z</time></trkpt><trkpt lat="46.1600167" lon="12.6629183"><ele>315.2</ele><time>2026-04-17T07:45:50.518Z</time></trkpt><trkpt lat="46.1601183" lon="12.6628833"><ele>315.4</ele><time>2026-04-17T07:45:51.518Z</time></trkpt><trkpt lat="46.1602133" lon="12.6628517"><ele>315.6</ele><time>2026-04-17T07:45:52.523Z</time></trkpt><trkpt lat="46.16031" lon="12.66282"><ele>315.8</ele><time>2026-04-17T07:45:53.519Z</time></trkpt><trkpt lat="46.1604083" lon="12.662785"><ele>316.0</ele><time>2026-04-17T07:45:54.519Z</time></trkpt><trkpt lat="46.1605083" lon="12.6627467"><ele>316.2</ele><time>2026-04-17T07:45:55.52Z</time></trkpt><trkpt lat="46.1606117" lon="12.6627067"><ele>316.40000000000003</ele><time>2026-04-17T07:45:56.519Z</time></trkpt><trkpt lat="46.1607117" lon="12.662655"><ele>316.6</ele><time>2026-04-17T07:45:57.519Z</time></trkpt><trkpt lat="46.16081" lon="12.6626117"><ele>316.8</ele><time>2026-04-17T07:45:58.519Z</time></trkpt><trkpt lat="46.1609133" lon="12.66256"><ele>317.0</ele><time>2026-04-17T07:45:59.52Z</time></trkpt><trkpt lat="46.161015" lon="12.6625133"><ele>317.0</ele><time>2026-04-17T07:46:00.521Z</time></trkpt><trkpt lat="46.161125" lon="12.6624817"><ele>317.0</ele><time>2026-04-17T07:46:01.519Z</time></trkpt><trkpt lat="46.1612433" lon="12.6624267"><ele>317.0</ele><time>2026-04-17T07:46:02.52Z</time></trkpt><trkpt lat="46.1613583" lon="12.6623667"><ele>317.0</ele><time>2026-04-17T07:46:03.518Z</time></trkpt><trkpt lat="46.1614767" lon="12.6622983"><ele>317.5</ele><time>2026-04-17T07:46:04.519Z</time></trkpt><trkpt lat="46.1616" lon="12.662255"><ele>318.0</ele><time>2026-04-17T07:46:05.519Z</time></trkpt><trkpt lat="46.1617233" lon="12.6621817"><ele>318.5</ele><time>2026-04-17T07:46:06.521Z</time></trkpt><trkpt lat="46.1618583" lon="12.66211"><ele>319.0</ele><time>2026-04-17T07:46:07.517Z</time></trkpt><trkpt lat="46.1619967" lon="12.6620283"><ele>319.0</ele><time>2026-04-17T07:46:08.519Z</time></trkpt><trkpt lat="46.1621333" lon="12.66193"><ele>319.0</ele><time>2026-04-17T07:46:09.519Z</time></trkpt><trkpt lat="46.1622733" lon="12.6618167"><ele>319.0</ele><time>2026-04-17T07:46:10.52Z</time></trkpt><trkpt lat="46.162415" lon="12.6616917"><ele>319.0</ele><time>2026-04-17T07:46:11.521Z</time></trkpt><trkpt lat="46.1625467" lon="12.661575"><ele>319.0</ele><time>2026-04-17T07:46:12.518Z</time></trkpt><trkpt lat="46.1626733" lon="12.6614783"><ele>319.0</ele><time>2026-04-17T07:46:13.52Z</time></trkpt><trkpt lat="46.1627917" lon="12.6613983"><ele>319.0</ele><time>2026-04-17T07:46:14.523Z</time></trkpt><trkpt lat="46.1629" lon="12.66133"><ele>319.0</ele><time>2026-04-17T07:46:15.519Z</time></trkpt><trkpt lat="46.1629933" lon="12.6612467"><ele>319.0</ele><time>2026-04-17T07:46:16.521Z</time></trkpt><trkpt lat="46.1630583" lon="12.6611383"><ele>319.0</ele><time>2026-04-17T07:46:17.519Z</time></trkpt><trkpt lat="46.1631033" lon="12.6610017"><ele>319.0</ele><time>2026-04-17T07:46:18.519Z</time></trkpt><trkpt lat="46.1631383" lon="12.660835"><ele>319.0</ele><time>2026-04-17T07:46:19.518Z</time></trkpt><trkpt lat="46.163165" lon="12.66066"><ele>319.3333333333333</ele><time>2026-04-17T07:46:20.519Z</time></trkpt><trkpt lat="46.163195" lon="12.6604783"><ele>319.6666666666667</ele><time>2026-04-17T07:46:21.518Z</time></trkpt><trkpt lat="46.1632233" lon="12.6602583"><ele>320.0</ele><time>2026-04-17T07:46:22.519Z</time></trkpt><trkpt lat="46.1632633" lon="12.65999"><ele>321.0</ele><time>2026-04-17T07:46:23.519Z</time></trkpt><trkpt lat="46.1633033" lon="12.6597217"><ele>322.0</ele><time>2026-04-17T07:46:24.518Z</time></trkpt><trkpt lat="46.1633433" lon="12.6594633"><ele>323.0</ele><time>2026-04-17T07:46:25.518Z</time></trkpt><trkpt lat="46.1633817" lon="12.6592067"><ele>325.0</ele><time>2026-04-17T07:46:26.519Z</time></trkpt><trkpt lat="46.1634183" lon="12.6589567"><ele>327.0</ele><time>2026-04-17T07:46:27.518Z</time></trkpt><trkpt lat="46.1634533" lon="12.6587067"><ele>329.0</ele><time>2026-04-17T07:46:28.518Z</time></trkpt><trkpt lat="46.16348" lon="12.6584517"><ele>331.33333333333337</ele><time>2026-04-17T07:46:29.518Z</time></trkpt><trkpt lat="46.1634883" lon="12.658195"><ele>333.6666666666667</ele><time>2026-04-17T07:46:30.518Z</time></trkpt><trkpt lat="46.1634767" lon="12.6579467"><ele>336.0</ele><time>2026-04-17T07:46:31.518Z</time></trkpt><trkpt lat="46.1634333" lon="12.657735"><ele>335.0</ele><time>2026-04-17T07:46:32.519Z</time></trkpt><trkpt lat="46.1633467" lon="12.657555"><ele>334.0</ele><time>2026-04-17T07:46:33.518Z</time></trkpt><trkpt lat="46.1632267" lon="12.6573883"><ele>333.0</ele><time>2026-04-17T07:46:34.518Z</time></trkpt><trkpt lat="46.163075" lon="12.6572367"><ele>333.0</ele><time>2026-04-17T07:46:35.522Z</time></trkpt><trkpt lat="46.1629167" lon="12.6570883"><ele>333.0</ele><time>2026-04-17T07:46:36.518Z</time></trkpt><trkpt lat="46.1627783" lon="12.656955"><ele>333.0</ele><time>2026-04-17T07:46:37.518Z</time></trkpt><trkpt lat="46.1626833" lon="12.6568217"><ele>335.2</ele><time>2026-04-17T07:46:38.518Z</time></trkpt><trkpt lat="46.1626367" lon="12.65669"><ele>337.4</ele><time>2026-04-17T07:46:39.518Z</time></trkpt><trkpt lat="46.1626383" lon="12.6565833"><ele>339.59999999999997</ele><time>2026-04-17T07:46:40.524Z</time></trkpt><trkpt lat="46.1627567" lon="12.6564933"><ele>341.79999999999995</ele><time>2026-04-17T07:46:42.521Z</time></trkpt><trkpt lat="46.1628817" lon="12.6565083"><ele>344.0</ele><time>2026-04-17T07:46:43.518Z</time></trkpt><trkpt lat="46.1630217" lon="12.6565283"><ele>344.0</ele><time>2026-04-17T07:46:44.519Z</time></trkpt><trkpt lat="46.1631733" lon="12.656515"><ele>344.0</ele><time>2026-04-17T07:46:45.518Z</time></trkpt><trkpt lat="46.163315" lon="12.6564483"><ele>344.0</ele><time>2026-04-17T07:46:46.518Z</time></trkpt><trkpt lat="46.1634433" lon="12.656325"><ele>349.6666666666667</ele><time>2026-04-17T07:46:47.518Z</time></trkpt><trkpt lat="46.1635467" lon="12.6561433"><ele>355.3333333333333</ele><time>2026-04-17T07:46:48.52Z</time></trkpt><trkpt lat="46.16365" lon="12.65594"><ele>361.0</ele><time>2026-04-17T07:46:49.519Z</time></trkpt><trkpt lat="46.163755" lon="12.655735"><ele>348.0</ele><time>2026-04-17T07:46:50.522Z</time></trkpt><trkpt lat="46.16487" lon="12.651895"><ele>374.33333333333337</ele><time>2026-04-17T07:47:04.52Z</time></trkpt><trkpt lat="46.1648117" lon="12.65161"><ele>400.6666666666667</ele><time>2026-04-17T07:47:05.519Z</time></trkpt><trkpt lat="46.16477" lon="12.651355"><ele>427.0</ele><time>2026-04-17T07:47:06.519Z</time></trkpt><trkpt lat="46.164745" lon="12.6510833"><ele>427.0</ele><time>2026-04-17T07:47:07.52Z</time></trkpt><trkpt lat="46.16473" lon="12.65081"><ele>427.0</ele><time>2026-04-17T07:47:08.52Z</time></trkpt><trkpt lat="46.164725" lon="12.6505233"><ele>427.0</ele><time>2026-04-17T07:47:09.518Z</time></trkpt><trkpt lat="46.1647233" lon="12.650225"><ele>423.33333333333337</ele><time>2026-04-17T07:47:10.518Z</time></trkpt><trkpt lat="46.1647433" lon="12.6499283"><ele>419.66666666666663</ele><time>2026-04-17T07:47:11.518Z</time></trkpt><trkpt lat="46.1647733" lon="12.6496183"><ele>416.0</ele><time>2026-04-17T07:47:12.517Z</time></trkpt><trkpt lat="46.1648117" lon="12.6492933"><ele>416.0</ele><time>2026-04-17T07:47:13.519Z</time></trkpt><trkpt lat="46.1648533" lon="12.6489617"><ele>416.0</ele><time>2026-04-17T07:47:14.519Z</time></trkpt><trkpt lat="46.164895" lon="12.6486233"><ele>382.0</ele><time>2026-04-17T07:47:15.518Z</time></trkpt><trkpt lat="46.1649367" lon="12.6482817"><ele>348.0</ele><time>2026-04-17T07:47:16.519Z</time></trkpt><trkpt lat="46.16498" lon="12.6479383"><ele>348.5</ele><time>2026-04-17T07:47:17.52Z</time></trkpt><trkpt lat="46.1650217" lon="12.64759"><ele>349.0</ele><time>2026-04-17T07:47:18.521Z</time></trkpt><trkpt lat="46.1650633" lon="12.6472283"><ele>349.0</ele><time>2026-04-17T07:47:19.519Z</time></trkpt><trkpt lat="46.1650983" lon="12.646855"><ele>349.0</ele><time>2026-04-17T07:47:20.521Z</time></trkpt><trkpt lat="46.1651167" lon="12.6464667"><ele>351.5</ele><time>2026-04-17T07:47:21.519Z</time></trkpt><trkpt lat="46.1651217" lon="12.6460617"><ele>354.0</ele><time>2026-04-17T07:47:22.519Z</time></trkpt><trkpt lat="46.1651167" lon="12.6456383"><ele>354.0</ele><time>2026-04-17T07:47:23.519Z</time></trkpt><trkpt lat="46.165105" lon="12.6452"><ele>354.0</ele><time>2026-04-17T07:47:24.519Z</time></trkpt><trkpt lat="46.165095" lon="12.64475"><ele>352.0</ele><time>2026-04-17T07:47:25.52Z</time></trkpt><trkpt lat="46.1650833" lon="12.6442933"><ele>350.0</ele><time>2026-04-17T07:47:26.52Z</time></trkpt><trkpt lat="46.165075" lon="12.6438267"><ele>349.5</ele><time>2026-04-17T07:47:27.518Z</time></trkpt><trkpt lat="46.1650667" lon="12.6433483"><ele>349.0</ele><time>2026-04-17T07:47:28.518Z</time></trkpt><trkpt lat="46.1650533" lon="12.6428633"><ele>348.5</ele><time>2026-04-17T07:47:29.519Z</time></trkpt><trkpt lat="46.16504" lon="12.64239"><ele>348.0</ele><time>2026-04-17T07:47:30.518Z</time></trkpt><trkpt lat="46.1650283" lon="12.6419317"><ele>348.0</ele><time>2026-04-17T07:47:31.519Z</time></trkpt><trkpt lat="46.1650133" lon="12.6414683"><ele>348.0</ele><time>2026-04-17T07:47:32.52Z</time></trkpt><trkpt lat="46.164995" lon="12.6409733"><ele>347.0</ele><time>2026-04-17T07:47:33.52Z</time></trkpt><trkpt lat="46.1649717" lon="12.6404333"><ele>346.0</ele><time>2026-04-17T07:47:34.518Z</time></trkpt><trkpt lat="46.1649483" lon="12.6398483"><ele>337.0</ele><time>2026-04-17T07:47:35.519Z</time></trkpt><trkpt lat="46.16493" lon="12.639225"><ele>328.0</ele><time>2026-04-17T07:47:36.518Z</time></trkpt><trkpt lat="46.1649133" lon="12.6385683"><ele>325.0</ele><time>2026-04-17T07:47:37.521Z</time></trkpt><trkpt lat="46.1649017" lon="12.637905"><ele>325.0</ele><time>2026-04-17T07:47:38.519Z</time></trkpt><trkpt lat="46.1649033" lon="12.637275"><ele>325.0</ele><time>2026-04-17T07:47:39.518Z</time></trkpt><trkpt lat="46.1649233" lon="12.6366833"><ele>331.5</ele><time>2026-04-17T07:47:40.518Z</time></trkpt><trkpt lat="46.16496" lon="12.636115"><ele>338.0</ele><time>2026-04-17T07:47:41.519Z</time></trkpt><trkpt lat="46.1650117" lon="12.6355667"><ele>336.5</ele><time>2026-04-17T07:47:42.518Z</time></trkpt><trkpt lat="46.16508" lon="12.6350383"><ele>335.0</ele><time>2026-04-17T07:47:43.518Z</time></trkpt><trkpt lat="46.1651633" lon="12.6345367"><ele>325.5</ele><time>2026-04-17T07:47:44.519Z</time></trkpt><trkpt lat="46.16526" lon="12.634065"><ele>316.0</ele><time>2026-04-17T07:47:45.518Z</time></trkpt><trkpt lat="46.165365" lon="12.6336283"><ele>315.0</ele><time>2026-04-17T07:47:46.517Z</time></trkpt><trkpt lat="46.165475" lon="12.6332283"><ele>314.0</ele><time>2026-04-17T07:47:47.519Z</time></trkpt><trkpt lat="46.1655867" lon="12.6328517"><ele>343.0</ele><time>2026-04-17T07:47:48.519Z</time></trkpt><trkpt lat="46.1657017" lon="12.6325"><ele>372.0</ele><time>2026-04-17T07:47:49.52Z</time></trkpt><trkpt lat="46.1658133" lon="12.6321533"><ele>392.0</ele><time>2026-04-17T07:47:50.52Z</time></trkpt><trkpt lat="46.195465" lon="12.59929"><ele>396.0</ele><time>2026-04-17T07:50:44.521Z</time></trkpt><trkpt lat="46.195215" lon="12.5985467"><ele>396.0</ele><time>2026-04-17T07:50:46.52Z</time></trkpt><trkpt lat="46.1951033" lon="12.5982167"><ele>396.0</ele><time>2026-04-17T07:50:47.52Z</time></trkpt><trkpt lat="46.194995" lon="12.5978983"><ele>398.66666666666663</ele><time>2026-04-17T07:50:48.519Z</time></trkpt><trkpt lat="46.1948933" lon="12.5975967"><ele>401.3333333333333</ele><time>2026-04-17T07:50:49.52Z</time></trkpt><trkpt lat="46.1948017" lon="12.5973267"><ele>404.0</ele><time>2026-04-17T07:50:50.52Z</time></trkpt><trkpt lat="46.1947183" lon="12.5970667"><ele>404.0</ele><time>2026-04-17T07:50:51.519Z</time></trkpt><trkpt lat="46.194635" lon="12.5968183"><ele>404.0</ele><time>2026-04-17T07:50:52.519Z</time></trkpt><trkpt lat="46.194555" lon="12.5965733"><ele>404.0</ele><time>2026-04-17T07:50:53.519Z</time></trkpt><trkpt lat="46.1944733" lon="12.5963333"><ele>403.0</ele><time>2026-04-17T07:50:54.521Z</time></trkpt><trkpt lat="46.1943917" lon="12.5960917"><ele>402.0</ele><time>2026-04-17T07:50:55.519Z</time></trkpt><trkpt lat="46.19431" lon="12.5958383"><ele>401.0</ele><time>2026-04-17T07:50:56.52Z</time></trkpt><trkpt lat="46.19422" lon="12.5955833"><ele>399.66666666666663</ele><time>2026-04-17T07:50:57.519Z</time></trkpt><trkpt lat="46.1941267" lon="12.5953183"><ele>398.33333333333337</ele><time>2026-04-17T07:50:58.519Z</time></trkpt><trkpt lat="46.194035" lon="12.59506"><ele>397.0</ele><time>2026-04-17T07:50:59.519Z</time></trkpt><trkpt lat="46.1939517" lon="12.5947933"><ele>402.5</ele><time>2026-04-17T07:51:00.521Z</time></trkpt><trkpt lat="46.1938733" lon="12.5945283"><ele>408.0</ele><time>2026-04-17T07:51:01.519Z</time></trkpt><trkpt lat="46.19201" lon="12.5809433"><ele>408.0</ele><time>2026-04-17T07:51:38.521Z</time></trkpt><trkpt lat="46.191935" lon="12.5805283"><ele>408.0</ele><time>2026-04-17T07:51:39.519Z</time></trkpt><trkpt lat="46.1918633" lon="12.5801467"><ele>408.0</ele><time>2026-04-17T07:51:40.52Z</time></trkpt><trkpt lat="46.1917917" lon="12.579795"><ele>408.0</ele><time>2026-04-17T07:51:41.519Z</time></trkpt><trkpt lat="46.1917083" lon="12.5794417"><ele>408.0</ele><time>2026-04-17T07:51:42.519Z</time></trkpt><trkpt lat="46.191615" lon="12.579115"><ele>408.0</ele><time>2026-04-17T07:51:43.52Z</time></trkpt><trkpt lat="46.1915133" lon="12.5787933"><ele>404.5</ele><time>2026-04-17T07:51:44.523Z</time></trkpt><trkpt lat="46.191395" lon="12.57847"><ele>401.0</ele><time>2026-04-17T07:51:45.519Z</time></trkpt><trkpt lat="46.1912717" lon="12.5781667"><ele>401.0</ele><time>2026-04-17T07:51:46.521Z</time></trkpt><trkpt lat="46.1911467" lon="12.577885"><ele>401.0</ele><time>2026-04-17T07:51:47.522Z</time></trkpt><trkpt lat="46.191025" lon="12.57762"><ele>401.66666666666663</ele><time>2026-04-17T07:51:48.519Z</time></trkpt><trkpt lat="46.1909117" lon="12.5773783"><ele>402.33333333333337</ele><time>2026-04-17T07:51:49.52Z</time></trkpt><trkpt lat="46.19081" lon="12.577165"><ele>403.0</ele><time>2026-04-17T07:51:50.521Z</time></trkpt><trkpt lat="46.1907233" lon="12.5769667"><ele>400.25</ele><time>2026-04-17T07:51:51.519Z</time></trkpt><trkpt lat="46.1906467" lon="12.5767767"><ele>397.5</ele><time>2026-04-17T07:51:52.519Z</time></trkpt><trkpt lat="46.1905817" lon="12.5765917"><ele>394.75</ele><time>2026-04-17T07:51:53.52Z</time></trkpt><trkpt lat="46.1905283" lon="12.576415"><ele>392.0</ele><time>2026-04-17T07:51:54.519Z</time></trkpt><trkpt lat="46.1904917" lon="12.57623"><ele>391.3333333333333</ele><time>2026-04-17T07:51:55.519Z</time></trkpt><trkpt lat="46.190485" lon="12.576025"><ele>390.66666666666663</ele><time>2026-04-17T07:51:56.52Z</time></trkpt><trkpt lat="46.1905183" lon="12.5757933"><ele>390.0</ele><time>2026-04-17T07:51:57.519Z</time></trkpt><trkpt lat="46.19058" lon="12.5755467"><ele>390.66666666666663</ele><time>2026-04-17T07:51:58.52Z</time></trkpt><trkpt lat="46.19065" lon="12.5752983"><ele>391.3333333333333</ele><time>2026-04-17T07:51:59.52Z</time></trkpt><trkpt lat="46.1907217" lon="12.5750583"><ele>392.0</ele><time>2026-04-17T07:52:00.52Z</time></trkpt><trkpt lat="46.1908" lon="12.5748167"><ele>396.3333333333333</ele><time>2026-04-17T07:52:01.52Z</time></trkpt><trkpt lat="46.190895" lon="12.5746"><ele>400.66666666666663</ele><time>2026-04-17T07:52:02.519Z</time></trkpt><trkpt lat="46.191005" lon="12.5744367"><ele>405.0</ele><time>2026-04-17T07:52:03.519Z</time></trkpt><trkpt lat="46.1911267" lon="12.57434"><ele>405.0</ele><time>2026-04-17T07:52:04.519Z</time></trkpt><trkpt lat="46.1912717" lon="12.5742983"><ele>405.0</ele><time>2026-04-17T07:52:05.52Z</time></trkpt><trkpt lat="46.1914217" lon="12.574275"><ele>405.0</ele><time>2026-04-17T07:52:06.519Z</time></trkpt><trkpt lat="46.1915583" lon="12.5742467"><ele>405.0</ele><time>2026-04-17T07:52:07.519Z</time></trkpt><trkpt lat="46.191675" lon="12.5741783"><ele>407.75</ele><time>2026-04-17T07:52:08.521Z</time></trkpt><trkpt lat="46.19177" lon="12.5740633"><ele>410.5</ele><time>2026-04-17T07:52:09.52Z</time></trkpt><trkpt lat="46.1918367" lon="12.5739117"><ele>413.25</ele><time>2026-04-17T07:52:10.519Z</time></trkpt><trkpt lat="46.1918733" lon="12.5737267"><ele>416.0</ele><time>2026-04-17T07:52:11.519Z</time></trkpt><trkpt lat="46.1918617" lon="12.5735333"><ele>416.75</ele><time>2026-04-17T07:52:12.519Z</time></trkpt><trkpt lat="46.191815" lon="12.5733667"><ele>417.5</ele><time>2026-04-17T07:52:13.519Z</time></trkpt><trkpt lat="46.1917183" lon="12.5732267"><ele>418.25</ele><time>2026-04-17T07:52:14.519Z</time></trkpt><trkpt lat="46.1915817" lon="12.5730967"><ele>419.0</ele><time>2026-04-17T07:52:15.518Z</time></trkpt><trkpt lat="46.191425" lon="12.57297"><ele>415.3333333333333</ele><time>2026-04-17T07:52:16.52Z</time></trkpt><trkpt lat="46.1912717" lon="12.5728467"><ele>411.66666666666663</ele><time>2026-04-17T07:52:17.519Z</time></trkpt><trkpt lat="46.1911383" lon="12.5727233"><ele>408.0</ele><time>2026-04-17T07:52:18.519Z</time></trkpt><trkpt lat="46.1910283" lon="12.5725867"><ele>408.0</ele><time>2026-04-17T07:52:19.519Z</time></trkpt><trkpt lat="46.1909467" lon="12.5724183"><ele>408.0</ele><time>2026-04-17T07:52:20.52Z</time></trkpt><trkpt lat="46.190885" lon="12.5722417"><ele>408.0</ele><time>2026-04-17T07:52:21.519Z</time></trkpt><trkpt lat="46.190855" lon="12.5720383"><ele>408.0</ele><time>2026-04-17T07:52:22.519Z</time></trkpt><trkpt lat="46.190855" lon="12.5718383"><ele>408.33333333333337</ele><time>2026-04-17T07:52:23.52Z</time></trkpt><trkpt lat="46.190895" lon="12.5716333"><ele>408.6666666666667</ele><time>2026-04-17T07:52:24.519Z</time></trkpt><trkpt lat="46.19094" lon="12.5714183"><ele>409.0</ele><time>2026-04-17T07:52:25.52Z</time></trkpt><trkpt lat="46.190965" lon="12.571185"><ele>409.0</ele><time>2026-04-17T07:52:26.519Z</time></trkpt><trkpt lat="46.19096" lon="12.5709367"><ele>409.0</ele><time>2026-04-17T07:52:27.519Z</time></trkpt><trkpt lat="46.1909467" lon="12.5706917"><ele>409.0</ele><time>2026-04-17T07:52:28.52Z</time></trkpt><trkpt lat="46.1909467" lon="12.570445"><ele>408.6666666666667</ele><time>2026-04-17T07:52:29.52Z</time></trkpt><trkpt lat="46.190975" lon="12.5701983"><ele>408.33333333333337</ele><time>2026-04-17T07:52:30.519Z</time></trkpt><trkpt lat="46.1910183" lon="12.5699367"><ele>408.0</ele><time>2026-04-17T07:52:31.52Z</time></trkpt><trkpt lat="46.1910633" lon="12.5696633"><ele>407.66666666666663</ele><time>2026-04-17T07:52:32.52Z</time></trkpt><trkpt lat="46.1910917" lon="12.5694033"><ele>407.3333333333333</ele><time>2026-04-17T07:52:33.52Z</time></trkpt><trkpt lat="46.1911083" lon="12.569175"><ele>407.0</ele><time>2026-04-17T07:52:34.519Z</time></trkpt><trkpt lat="46.1911367" lon="12.5689833"><ele>407.0</ele><time>2026-04-17T07:52:35.519Z</time></trkpt><trkpt lat="46.191195" lon="12.56884"><ele>407.0</ele><time>2026-04-17T07:52:36.519Z</time></trkpt><trkpt lat="46.19128" lon="12.568735"><ele>407.0</ele><time>2026-04-17T07:52:37.519Z</time></trkpt><trkpt lat="46.1913917" lon="12.568645"><ele>407.0</ele><time>2026-04-17T07:52:38.521Z</time></trkpt><trkpt lat="46.191505" lon="12.5685433"><ele>408.5</ele><time>2026-04-17T07:52:39.519Z</time></trkpt><trkpt lat="46.191595" lon="12.5684117"><ele>410.0</ele><time>2026-04-17T07:52:40.519Z</time></trkpt><trkpt lat="46.19165" lon="12.5682517"><ele>411.5</ele><time>2026-04-17T07:52:41.52Z</time></trkpt><trkpt lat="46.1916717" lon="12.56806"><ele>413.0</ele><time>2026-04-17T07:52:42.519Z</time></trkpt><trkpt lat="46.191665" lon="12.5678433"><ele>413.0</ele><time>2026-04-17T07:52:43.519Z</time></trkpt><trkpt lat="46.19163" lon="12.567625"><ele>413.0</ele><time>2026-04-17T07:52:44.519Z</time></trkpt><trkpt lat="46.191565" lon="12.567435"><ele>413.0</ele><time>2026-04-17T07:52:45.519Z</time></trkpt><trkpt lat="46.191475" lon="12.5672917"><ele>413.0</ele><time>2026-04-17T07:52:46.518Z</time></trkpt><trkpt lat="46.1913883" lon="12.56717"><ele>408.5</ele><time>2026-04-17T07:52:47.519Z</time></trkpt><trkpt lat="46.1913267" lon="12.5670333"><ele>404.0</ele><time>2026-04-17T07:52:48.519Z</time></trkpt><trkpt lat="46.1912983" lon="12.5668683"><ele>399.5</ele><time>2026-04-17T07:52:49.519Z</time></trkpt><trkpt lat="46.1913" lon="12.566655"><ele>395.0</ele><time>2026-04-17T07:52:50.52Z</time></trkpt><trkpt lat="46.1913233" lon="12.5664167"><ele>396.0</ele><time>2026-04-17T07:52:51.519Z</time></trkpt><trkpt lat="46.1913567" lon="12.5661683"><ele>397.0</ele><time>2026-04-17T07:52:52.519Z</time></trkpt><trkpt lat="46.1913867" lon="12.5659233"><ele>398.0</ele><time>2026-04-17T07:52:53.521Z</time></trkpt><trkpt lat="46.19141" lon="12.565685"><ele>398.0</ele><time>2026-04-17T07:52:54.519Z</time></trkpt><trkpt lat="46.1914117" lon="12.565445"><ele>398.0</ele><time>2026-04-17T07:52:55.52Z</time></trkpt><trkpt lat="46.1913917" lon="12.5652017"><ele>398.0</ele><time>2026-04-17T07:52:56.52Z</time></trkpt><trkpt lat="46.1913617" lon="12.5649533"><ele>400.0</ele><time>2026-04-17T07:52:57.519Z</time></trkpt><trkpt lat="46.1913233" lon="12.5647183"><ele>402.0</ele><time>2026-04-17T07:52:58.52Z</time></trkpt><trkpt lat="46.1912833" lon="12.5644967"><ele>404.0</ele><time>2026-04-17T07:52:59.52Z</time></trkpt><trkpt lat="46.1912433" lon="12.564295"><ele>404.25</ele><time>2026-04-17T07:53:00.519Z</time></trkpt><trkpt lat="46.1912083" lon="12.5640983"><ele>404.5</ele><time>2026-04-17T07:53:01.52Z</time></trkpt><trkpt lat="46.191175" lon="12.5639017"><ele>404.75</ele><time>2026-04-17T07:53:02.521Z</time></trkpt><trkpt lat="46.1911383" lon="12.563705"><ele>405.0</ele><time>2026-04-17T07:53:03.519Z</time></trkpt><trkpt lat="46.191105" lon="12.5635083"><ele>405.0</ele><time>2026-04-17T07:53:04.52Z</time></trkpt><trkpt lat="46.1910733" lon="12.5633133"><ele>405.0</ele><time>2026-04-17T07:53:05.52Z</time></trkpt><trkpt lat="46.1910383" lon="12.5631233"><ele>405.0</ele><time>2026-04-17T07:53:06.519Z</time></trkpt><trkpt lat="46.1910067" lon="12.5629417"><ele>405.0</ele><time>2026-04-17T07:53:07.521Z</time></trkpt><trkpt lat="46.1909767" lon="12.5627717"><ele>405.0</ele><time>2026-04-17T07:53:08.521Z</time></trkpt><trkpt lat="46.1909467" lon="12.5626067"><ele>405.0</ele><time>2026-04-17T07:53:09.519Z</time></trkpt><trkpt lat="46.1909183" lon="12.56245"><ele>405.0</ele><time>2026-04-17T07:53:10.518Z</time></trkpt><trkpt lat="46.19089" lon="12.5622983"><ele>405.0</ele><time>2026-04-17T07:53:11.519Z</time></trkpt><trkpt lat="46.190865" lon="12.5621467"><ele>405.0</ele><time>2026-04-17T07:53:12.52Z</time></trkpt><trkpt lat="46.19085" lon="12.5619983"><ele>405.8</ele><time>2026-04-17T07:53:13.52Z</time></trkpt><trkpt lat="46.1908417" lon="12.5618417"><ele>406.6</ele><time>2026-04-17T07:53:14.52Z</time></trkpt><trkpt lat="46.1908433" lon="12.5616867"><ele>407.4</ele><time>2026-04-17T07:53:15.519Z</time></trkpt><trkpt lat="46.1908433" lon="12.5615317"><ele>408.2</ele><time>2026-04-17T07:53:16.52Z</time></trkpt><trkpt lat="46.190845" lon="12.5613717"><ele>409.0</ele><time>2026-04-17T07:53:17.52Z</time></trkpt><trkpt lat="46.190845" lon="12.5612117"><ele>409.79999999999995</ele><time>2026-04-17T07:53:18.519Z</time></trkpt><trkpt lat="46.190845" lon="12.5610467"><ele>410.59999999999997</ele><time>2026-04-17T07:53:19.519Z</time></trkpt><trkpt lat="46.190845" lon="12.5608917"><ele>411.4</ele><time>2026-04-17T07:53:20.52Z</time></trkpt><trkpt lat="46.19085" lon="12.560745"><ele>412.2</ele><time>2026-04-17T07:53:21.519Z</time></trkpt><trkpt lat="46.1908517" lon="12.5606117"><ele>413.0</ele><time>2026-04-17T07:53:22.519Z</time></trkpt><trkpt lat="46.1908533" lon="12.5604833"><ele>413.3333333333333</ele><time>2026-04-17T07:53:23.52Z</time></trkpt><trkpt lat="46.1908633" lon="12.5603567"><ele>413.66666666666663</ele><time>2026-04-17T07:53:24.519Z</time></trkpt><trkpt lat="46.1908717" lon="12.5602317"><ele>414.0</ele><time>2026-04-17T07:53:25.519Z</time></trkpt><trkpt lat="46.190865" lon="12.5601167"><ele>414.33333333333337</ele><time>2026-04-17T07:53:26.52Z</time></trkpt><trkpt lat="46.190855" lon="12.5600117"><ele>414.6666666666667</ele><time>2026-04-17T07:53:27.519Z</time></trkpt><trkpt lat="46.1908433" lon="12.55991"><ele>415.0</ele><time>2026-04-17T07:53:28.519Z</time></trkpt><trkpt lat="46.19083" lon="12.5598033"><ele>415.00000000000006</ele><time>2026-04-17T07:53:29.519Z</time></trkpt><trkpt lat="46.190815" lon="12.55969"><ele>415.0</ele><time>2026-04-17T07:53:30.519Z</time></trkpt><trkpt lat="46.1907983" lon="12.5595683"><ele>415.0</ele><time>2026-04-17T07:53:31.52Z</time></trkpt><trkpt lat="46.1907933" lon="12.5594367"><ele>415.0</ele><time>2026-04-17T07:53:32.523Z</time></trkpt><trkpt lat="46.190795" lon="12.5593083"><ele>415.00000000000006</ele><time>2026-04-17T07:53:33.518Z</time></trkpt><trkpt lat="46.1908067" lon="12.55918"><ele>415.0</ele><time>2026-04-17T07:53:34.521Z</time></trkpt><trkpt lat="46.1907983" lon="12.5590467"><ele>414.6</ele><time>2026-04-17T07:53:35.522Z</time></trkpt><trkpt lat="46.19078" lon="12.5588967"><ele>414.2</ele><time>2026-04-17T07:53:36.519Z</time></trkpt><trkpt lat="46.1907533" lon="12.5587483"><ele>413.79999999999995</ele><time>2026-04-17T07:53:37.52Z</time></trkpt><trkpt lat="46.19073" lon="12.5586033"><ele>413.4</ele><time>2026-04-17T07:53:38.52Z</time></trkpt><trkpt lat="46.1907117" lon="12.5584633"><ele>413.0</ele><time>2026-04-17T07:53:39.518Z</time></trkpt><trkpt lat="46.190695" lon="12.55833"><ele>412.99999999999994</ele><time>2026-04-17T07:53:40.518Z</time></trkpt><trkpt lat="46.1906917" lon="12.5582083"><ele>413.0</ele><time>2026-04-17T07:53:41.52Z</time></trkpt><trkpt lat="46.190695" lon="12.55809"><ele>413.0</ele><time>2026-04-17T07:53:42.519Z</time></trkpt><trkpt lat="46.1907033" lon="12.5579683"><ele>413.0</ele><time>2026-04-17T07:53:43.52Z</time></trkpt><trkpt lat="46.1907067" lon="12.5578417"><ele>412.99999999999994</ele><time>2026-04-17T07:53:44.52Z</time></trkpt><trkpt lat="46.1907017" lon="12.5576983"><ele>413.0</ele><time>2026-04-17T07:53:45.52Z</time></trkpt><trkpt lat="46.190685" lon="12.5575517"><ele>410.2</ele><time>2026-04-17T07:53:46.519Z</time></trkpt><trkpt lat="46.1906583" lon="12.5574033"><ele>407.4</ele><time>2026-04-17T07:53:47.52Z</time></trkpt><trkpt lat="46.190635" lon="12.5572533"><ele>404.59999999999997</ele><time>2026-04-17T07:53:48.52Z</time></trkpt><trkpt lat="46.1906217" lon="12.5571033"><ele>401.79999999999995</ele><time>2026-04-17T07:53:49.52Z</time></trkpt><trkpt lat="46.1906067" lon="12.5569533"><ele>399.0</ele><time>2026-04-17T07:53:50.52Z</time></trkpt><trkpt lat="46.1905833" lon="12.5567983"><ele>399.0</ele><time>2026-04-17T07:53:51.518Z</time></trkpt><trkpt lat="46.1905633" lon="12.5566317"><ele>399.0</ele><time>2026-04-17T07:53:52.519Z</time></trkpt><trkpt lat="46.1905417" lon="12.55646"><ele>399.0</ele><time>2026-04-17T07:53:53.519Z</time></trkpt><trkpt lat="46.1905217" lon="12.5562717"><ele>399.0</ele><time>2026-04-17T07:53:54.519Z</time></trkpt><trkpt lat="46.1905" lon="12.5560767"><ele>399.0</ele><time>2026-04-17T07:53:55.52Z</time></trkpt><trkpt lat="46.1904767" lon="12.555875"><ele>399.0</ele><time>2026-04-17T07:53:56.52Z</time></trkpt><trkpt lat="46.1904517" lon="12.55567"><ele>399.0</ele><time>2026-04-17T07:53:57.519Z</time></trkpt><trkpt lat="46.1904317" lon="12.555465"><ele>399.0</ele><time>2026-04-17T07:53:58.518Z</time></trkpt><trkpt lat="46.1904117" lon="12.5552583"><ele>398.75</ele><time>2026-04-17T07:53:59.521Z</time></trkpt><trkpt lat="46.1903917" lon="12.5550483"><ele>398.5</ele><time>2026-04-17T07:54:00.519Z</time></trkpt><trkpt lat="46.1903683" lon="12.55484"><ele>398.25</ele><time>2026-04-17T07:54:01.52Z</time></trkpt><trkpt lat="46.1903483" lon="12.554635"><ele>398.0</ele><time>2026-04-17T07:54:02.519Z</time></trkpt><trkpt lat="46.1903333" lon="12.5544583"><ele>398.4</ele><time>2026-04-17T07:54:03.519Z</time></trkpt><trkpt lat="46.19032" lon="12.554305"><ele>398.79999999999995</ele><time>2026-04-17T07:54:04.519Z</time></trkpt><trkpt lat="46.1903067" lon="12.5541667"><ele>399.2</ele><time>2026-04-17T07:54:05.52Z</time></trkpt><trkpt lat="46.1902933" lon="12.5540367"><ele>399.6</ele><time>2026-04-17T07:54:06.519Z</time></trkpt><trkpt lat="46.190285" lon="12.55391"><ele>400.0</ele><time>2026-04-17T07:54:07.519Z</time></trkpt><trkpt lat="46.1902733" lon="12.5537767"><ele>400.8</ele><time>2026-04-17T07:54:08.521Z</time></trkpt><trkpt lat="46.1902617" lon="12.55364"><ele>401.6</ele><time>2026-04-17T07:54:09.52Z</time></trkpt><trkpt lat="46.1902517" lon="12.5534983"><ele>402.4</ele><time>2026-04-17T07:54:10.52Z</time></trkpt><trkpt lat="46.1902383" lon="12.5533567"><ele>403.2</ele><time>2026-04-17T07:54:11.52Z</time></trkpt><trkpt lat="46.1902217" lon="12.5532083"><ele>404.0</ele><time>2026-04-17T07:54:12.518Z</time></trkpt><trkpt lat="46.1902033" lon="12.5530567"><ele>404.0</ele><time>2026-04-17T07:54:13.52Z</time></trkpt><trkpt lat="46.1901883" lon="12.552905"><ele>404.0</ele><time>2026-04-17T07:54:14.524Z</time></trkpt><trkpt lat="46.19017" lon="12.5527433"><ele>404.0</ele><time>2026-04-17T07:54:15.519Z</time></trkpt><trkpt lat="46.19015" lon="12.5525783"><ele>404.0</ele><time>2026-04-17T07:54:16.52Z</time></trkpt><trkpt lat="46.19013" lon="12.5524067"><ele>404.5</ele><time>2026-04-17T07:54:17.52Z</time></trkpt><trkpt lat="46.1901083" lon="12.5522333"><ele>405.0</ele><time>2026-04-17T07:54:18.52Z</time></trkpt><trkpt lat="46.1900883" lon="12.55206"><ele>405.5</ele><time>2026-04-17T07:54:19.521Z</time></trkpt><trkpt lat="46.1900717" lon="12.5518883"><ele>406.0</ele><time>2026-04-17T07:54:20.52Z</time></trkpt><trkpt lat="46.190055" lon="12.55172"><ele>407.0</ele><time>2026-04-17T07:54:21.518Z</time></trkpt><trkpt lat="46.1900417" lon="12.5515533"><ele>408.0</ele><time>2026-04-17T07:54:22.519Z</time></trkpt><trkpt lat="46.190035" lon="12.55138"><ele>409.0</ele><time>2026-04-17T07:54:23.519Z</time></trkpt><trkpt lat="46.19001" lon="12.5512033"><ele>410.0</ele><time>2026-04-17T07:54:24.522Z</time></trkpt><trkpt lat="46.1900267" lon="12.5510317"><ele>410.0</ele><time>2026-04-17T07:54:25.52Z</time></trkpt><trkpt lat="46.1900317" lon="12.5508567"><ele>410.0</ele><time>2026-04-17T07:54:26.52Z</time></trkpt><trkpt lat="46.1900633" lon="12.5506867"><ele>410.0</ele><time>2026-04-17T07:54:27.518Z</time></trkpt><trkpt lat="46.1901067" lon="12.5505133"><ele>410.0</ele><time>2026-04-17T07:54:28.519Z</time></trkpt><trkpt lat="46.190145" lon="12.5503317"><ele>409.0</ele><time>2026-04-17T07:54:29.521Z</time></trkpt><trkpt lat="46.1901733" lon="12.5501367"><ele>408.0</ele><time>2026-04-17T07:54:30.519Z</time></trkpt><trkpt lat="46.19018" lon="12.5499267"><ele>407.0</ele><time>2026-04-17T07:54:31.52Z</time></trkpt><trkpt lat="46.190175" lon="12.5497167"><ele>406.0</ele><time>2026-04-17T07:54:32.52Z</time></trkpt><trkpt lat="46.1901683" lon="12.5495033"><ele>405.75</ele><time>2026-04-17T07:54:33.519Z</time></trkpt><trkpt lat="46.1901667" lon="12.5493"><ele>405.5</ele><time>2026-04-17T07:54:34.52Z</time></trkpt><trkpt lat="46.19018" lon="12.5490867"><ele>405.25</ele><time>2026-04-17T07:54:35.519Z</time></trkpt><trkpt lat="46.190205" lon="12.54887"><ele>405.0</ele><time>2026-04-17T07:54:36.519Z</time></trkpt><trkpt lat="46.1902417" lon="12.5486517"><ele>404.66666666666663</ele><time>2026-04-17T07:54:37.521Z</time></trkpt><trkpt lat="46.1902767" lon="12.5484317"><ele>404.3333333333333</ele><time>2026-04-17T07:54:38.519Z</time></trkpt><trkpt lat="46.190315" lon="12.5482117"><ele>404.0</ele><time>2026-04-17T07:54:39.52Z</time></trkpt><trkpt lat="46.19037" lon="12.5480033"><ele>402.0</ele><time>2026-04-17T07:54:40.52Z</time></trkpt><trkpt lat="46.190455" lon="12.5477967"><ele>400.0</ele><time>2026-04-17T07:54:41.521Z</time></trkpt><trkpt lat="46.190555" lon="12.5475983"><ele>398.0</ele><time>2026-04-17T07:54:42.52Z</time></trkpt><trkpt lat="46.1906567" lon="12.5473967"><ele>401.0</ele><time>2026-04-17T07:54:43.519Z</time></trkpt><trkpt lat="46.190745" lon="12.5471867"><ele>404.0</ele><time>2026-04-17T07:54:44.52Z</time></trkpt><trkpt lat="46.1908117" lon="12.5469833"><ele>407.0</ele><time>2026-04-17T07:54:45.519Z</time></trkpt><trkpt lat="46.190885" lon="12.54679"><ele>407.0</ele><time>2026-04-17T07:54:46.52Z</time></trkpt><trkpt lat="46.1909717" lon="12.5466183"><ele>407.0</ele><time>2026-04-17T07:54:47.519Z</time></trkpt><trkpt lat="46.1910833" lon="12.5464733"><ele>407.0</ele><time>2026-04-17T07:54:48.519Z</time></trkpt><trkpt lat="46.191215" lon="12.5463467"><ele>407.0</ele><time>2026-04-17T07:54:49.521Z</time></trkpt><trkpt lat="46.191355" lon="12.5462267"><ele>407.0</ele><time>2026-04-17T07:54:50.52Z</time></trkpt><trkpt lat="46.191495" lon="12.5461433"><ele>407.0</ele><time>2026-04-17T07:54:51.519Z</time></trkpt><trkpt lat="46.1916267" lon="12.5460767"><ele>406.5</ele><time>2026-04-17T07:54:52.521Z</time></trkpt><trkpt lat="46.191755" lon="12.5460267"><ele>406.0</ele><time>2026-04-17T07:54:53.52Z</time></trkpt><trkpt lat="46.1918783" lon="12.54599"><ele>405.5</ele><time>2026-04-17T07:54:54.521Z</time></trkpt><trkpt lat="46.1919983" lon="12.545955"><ele>405.0</ele><time>2026-04-17T07:54:55.52Z</time></trkpt><trkpt lat="46.1921267" lon="12.5459067"><ele>405.0</ele><time>2026-04-17T07:54:56.519Z</time></trkpt><trkpt lat="46.1922567" lon="12.5458583"><ele>405.0</ele><time>2026-04-17T07:54:57.521Z</time></trkpt><trkpt lat="46.192385" lon="12.5458067"><ele>405.0</ele><time>2026-04-17T07:54:58.521Z</time></trkpt><trkpt lat="46.1929583" lon="12.5453933"><ele>404.0</ele><time>2026-04-17T07:55:02.521Z</time></trkpt><trkpt lat="46.1931183" lon="12.5451883"><ele>403.0</ele><time>2026-04-17T07:55:03.519Z</time></trkpt><trkpt lat="46.193275" lon="12.54498"><ele>402.0</ele><time>2026-04-17T07:55:04.519Z</time></trkpt><trkpt lat="46.1934217" lon="12.544775"><ele>404.66666666666663</ele><time>2026-04-17T07:55:05.523Z</time></trkpt><trkpt lat="46.1935383" lon="12.5446067"><ele>407.3333333333333</ele><time>2026-04-17T07:55:06.518Z</time></trkpt><trkpt lat="46.19363" lon="12.544405"><ele>410.0</ele><time>2026-04-17T07:55:07.519Z</time></trkpt><trkpt lat="46.1937167" lon="12.5441733"><ele>410.0</ele><time>2026-04-17T07:55:08.519Z</time></trkpt><trkpt lat="46.1937983" lon="12.5439233"><ele>410.0</ele><time>2026-04-17T07:55:09.518Z</time></trkpt><trkpt lat="46.1938717" lon="12.543675"><ele>410.0</ele><time>2026-04-17T07:55:10.519Z</time></trkpt><trkpt lat="46.1939367" lon="12.5434433"><ele>409.75</ele><time>2026-04-17T07:55:11.522Z</time></trkpt><trkpt lat="46.1939933" lon="12.5432333"><ele>409.5</ele><time>2026-04-17T07:55:12.518Z</time></trkpt><trkpt lat="46.1940467" lon="12.5430583"><ele>409.25</ele><time>2026-04-17T07:55:13.517Z</time></trkpt><trkpt lat="46.1941133" lon="12.5429133"><ele>409.0</ele><time>2026-04-17T07:55:14.519Z</time></trkpt><trkpt lat="46.1941933" lon="12.5428083"><ele>409.0</ele><time>2026-04-17T07:55:15.518Z</time></trkpt><trkpt lat="46.194275" lon="12.5427183"><ele>409.0</ele><time>2026-04-17T07:55:16.518Z</time></trkpt><trkpt lat="46.194345" lon="12.54263"><ele>409.0</ele><time>2026-04-17T07:55:17.519Z</time></trkpt><trkpt lat="46.1944" lon="12.5425267"><ele>409.0</ele><time>2026-04-17T07:55:18.518Z</time></trkpt><trkpt lat="46.1944417" lon="12.5424067"><ele>409.0</ele><time>2026-04-17T07:55:19.519Z</time></trkpt><trkpt lat="46.194485" lon="12.5422733"><ele>409.0</ele><time>2026-04-17T07:55:20.52Z</time></trkpt><trkpt lat="46.194535" lon="12.54211"><ele>409.0</ele><time>2026-04-17T07:55:21.519Z</time></trkpt><trkpt lat="46.1945933" lon="12.5419183"><ele>409.0</ele><time>2026-04-17T07:55:22.523Z</time></trkpt><trkpt lat="46.1946583" lon="12.5416967"><ele>409.0</ele><time>2026-04-17T07:55:23.52Z</time></trkpt><trkpt lat="46.194725" lon="12.5414567"><ele>412.0</ele><time>2026-04-17T07:55:24.519Z</time></trkpt><trkpt lat="46.1947917" lon="12.5411967"><ele>415.0</ele><time>2026-04-17T07:55:25.52Z</time></trkpt><trkpt lat="46.1948517" lon="12.54092"><ele>418.0</ele><time>2026-04-17T07:55:26.52Z</time></trkpt><trkpt lat="46.1948967" lon="12.5406167"><ele>416.0</ele><time>2026-04-17T07:55:27.519Z</time></trkpt><trkpt lat="46.1949383" lon="12.5402983"><ele>414.0</ele><time>2026-04-17T07:55:28.519Z</time></trkpt><trkpt lat="46.194985" lon="12.5399717"><ele>414.0</ele><time>2026-04-17T07:55:29.52Z</time></trkpt><trkpt lat="46.19504" lon="12.539635"><ele>414.0</ele><time>2026-04-17T07:55:30.519Z</time></trkpt><trkpt lat="46.1951083" lon="12.5392983"><ele>413.5</ele><time>2026-04-17T07:55:31.519Z</time></trkpt><trkpt lat="46.1951767" lon="12.5389633"><ele>413.0</ele><time>2026-04-17T07:55:32.52Z</time></trkpt><trkpt lat="46.1952467" lon="12.5386267"><ele>412.0</ele><time>2026-04-17T07:55:33.519Z</time></trkpt><trkpt lat="46.19533" lon="12.538295"><ele>411.0</ele><time>2026-04-17T07:55:34.519Z</time></trkpt><trkpt lat="46.1954183" lon="12.537965"><ele>411.5</ele><time>2026-04-17T07:55:35.519Z</time></trkpt><trkpt lat="46.195515" lon="12.5376533"><ele>412.0</ele><time>2026-04-17T07:55:36.52Z</time></trkpt><trkpt lat="46.1956217" lon="12.5373783"><ele>413.33333333333337</ele><time>2026-04-17T07:55:37.521Z</time></trkpt><trkpt lat="46.1957317" lon="12.5371283"><ele>414.66666666666663</ele><time>2026-04-17T07:55:38.52Z</time></trkpt><trkpt lat="46.1958467" lon="12.53687"><ele>416.0</ele><time>2026-04-17T07:55:39.519Z</time></trkpt><trkpt lat="46.195945" lon="12.5365867"><ele>416.0</ele><time>2026-04-17T07:55:40.518Z</time></trkpt><trkpt lat="46.1960283" lon="12.5362617"><ele>416.0</ele><time>2026-04-17T07:55:41.52Z</time></trkpt><trkpt lat="46.1961" lon="12.5359033"><ele>416.5</ele><time>2026-04-17T07:55:42.519Z</time></trkpt><trkpt lat="46.1961667" lon="12.5355283"><ele>417.0</ele><time>2026-04-17T07:55:43.52Z</time></trkpt><trkpt lat="46.1962333" lon="12.5351517"><ele>417.0</ele><time>2026-04-17T07:55:44.519Z</time></trkpt><trkpt lat="46.1963067" lon="12.5347883"><ele>417.0</ele><time>2026-04-17T07:55:45.52Z</time></trkpt><trkpt lat="46.1963867" lon="12.534445"><ele>415.5</ele><time>2026-04-17T07:55:46.52Z</time></trkpt><trkpt lat="46.1964667" lon="12.5341233"><ele>414.0</ele><time>2026-04-17T07:55:47.52Z</time></trkpt><trkpt lat="46.19656" lon="12.5338333"><ele>414.5</ele><time>2026-04-17T07:55:48.519Z</time></trkpt><trkpt lat="46.1966883" lon="12.5335617"><ele>415.0</ele><time>2026-04-17T07:55:49.519Z</time></trkpt><trkpt lat="46.196865" lon="12.5333067"><ele>415.0</ele><time>2026-04-17T07:55:50.52Z</time></trkpt><trkpt lat="46.1970617" lon="12.533075"><ele>415.0</ele><time>2026-04-17T07:55:51.519Z</time></trkpt><trkpt lat="46.1972683" lon="12.532875"><ele>411.5</ele><time>2026-04-17T07:55:52.519Z</time></trkpt><trkpt lat="46.1974983" lon="12.5326917"><ele>408.0</ele><time>2026-04-17T07:55:53.52Z</time></trkpt><trkpt lat="46.1977283" lon="12.5325167"><ele>408.0</ele><time>2026-04-17T07:55:54.521Z</time></trkpt><trkpt lat="46.1979417" lon="12.5323567"><ele>408.0</ele><time>2026-04-17T07:55:55.52Z</time></trkpt><trkpt lat="46.1981383" lon="12.532205"><ele>412.0</ele><time>2026-04-17T07:55:56.523Z</time></trkpt><trkpt lat="46.198325" lon="12.53205"><ele>416.0</ele><time>2026-04-17T07:55:57.52Z</time></trkpt><trkpt lat="46.1985017" lon="12.5318833"><ele>420.0</ele><time>2026-04-17T07:55:58.52Z</time></trkpt><trkpt lat="46.19867" lon="12.5317167"><ele>420.0</ele><time>2026-04-17T07:55:59.52Z</time></trkpt><trkpt lat="46.1988233" lon="12.5315567"><ele>420.0</ele><time>2026-04-17T07:56:00.521Z</time></trkpt><trkpt lat="46.198955" lon="12.5313967"><ele>420.0</ele><time>2026-04-17T07:56:01.524Z</time></trkpt><trkpt lat="46.199075" lon="12.5312333"><ele>420.0</ele><time>2026-04-17T07:56:02.52Z</time></trkpt><trkpt lat="46.1991733" lon="12.53103"><ele>420.0</ele><time>2026-04-17T07:56:03.519Z</time></trkpt><trkpt lat="46.19925" lon="12.53079"><ele>420.0</ele><time>2026-04-17T07:56:04.52Z</time></trkpt><trkpt lat="46.1993067" lon="12.53052"><ele>421.0</ele><time>2026-04-17T07:56:05.52Z</time></trkpt><trkpt lat="46.199345" lon="12.530205"><ele>422.0</ele><time>2026-04-17T07:56:06.522Z</time></trkpt><trkpt lat="46.1993767" lon="12.52984"><ele>422.0</ele><time>2026-04-17T07:56:07.521Z</time></trkpt><trkpt lat="46.1993933" lon="12.5293967"><ele>422.0</ele><time>2026-04-17T07:56:08.52Z</time></trkpt><trkpt lat="46.1994083" lon="12.5288967"><ele>422.0</ele><time>2026-04-17T07:56:09.52Z</time></trkpt><trkpt lat="46.1994267" lon="12.5283883"><ele>422.0</ele><time>2026-04-17T07:56:10.52Z</time></trkpt><trkpt lat="46.1994467" lon="12.52792"><ele>419.5</ele><time>2026-04-17T07:56:11.52Z</time></trkpt><trkpt lat="46.1994383" lon="12.5274983"><ele>417.0</ele><time>2026-04-17T07:56:12.52Z</time></trkpt><trkpt lat="46.19941" lon="12.527125"><ele>418.0</ele><time>2026-04-17T07:56:13.521Z</time></trkpt><trkpt lat="46.1993533" lon="12.5267783"><ele>419.0</ele><time>2026-04-17T07:56:14.52Z</time></trkpt><trkpt lat="46.1993017" lon="12.5264717"><ele>420.3333333333333</ele><time>2026-04-17T07:56:15.52Z</time></trkpt><trkpt lat="46.1992717" lon="12.5261967"><ele>421.66666666666663</ele><time>2026-04-17T07:56:16.519Z</time></trkpt><trkpt lat="46.1992833" lon="12.525965"><ele>423.0</ele><time>2026-04-17T07:56:17.521Z</time></trkpt><trkpt lat="46.199345" lon="12.5257433"><ele>423.0</ele><time>2026-04-17T07:56:18.519Z</time></trkpt><trkpt lat="46.19948" lon="12.5255467"><ele>423.0</ele><time>2026-04-17T07:56:19.52Z</time></trkpt><trkpt lat="46.1996467" lon="12.5253567"><ele>423.0</ele><time>2026-04-17T07:56:20.52Z</time></trkpt><trkpt lat="46.199805" lon="12.5251683"><ele>425.0</ele><time>2026-04-17T07:56:21.52Z</time></trkpt><trkpt lat="46.1999233" lon="12.5249483"><ele>427.0</ele><time>2026-04-17T07:56:22.52Z</time></trkpt><trkpt lat="46.200015" lon="12.5246683"><ele>429.0</ele><time>2026-04-17T07:56:23.521Z</time></trkpt><trkpt lat="46.2001" lon="12.5243217"><ele>429.0</ele><time>2026-04-17T07:56:24.519Z</time></trkpt><trkpt lat="46.2001617" lon="12.5239067"><ele>429.0</ele><time>2026-04-17T07:56:25.52Z</time></trkpt><trkpt lat="46.200215" lon="12.5234817"><ele>429.0</ele><time>2026-04-17T07:56:26.521Z</time></trkpt><trkpt lat="46.2002617" lon="12.5230833"><ele>429.0</ele><time>2026-04-17T07:56:27.52Z</time></trkpt><trkpt lat="46.200315" lon="12.5226967"><ele>428.0</ele><time>2026-04-17T07:56:28.52Z</time></trkpt><trkpt lat="46.2003833" lon="12.5222917"><ele>427.0</ele><time>2026-04-17T07:56:29.52Z</time></trkpt><trkpt lat="46.20047" lon="12.52186"><ele>424.0</ele><time>2026-04-17T07:56:30.52Z</time></trkpt><trkpt lat="46.2005683" lon="12.5214033"><ele>421.0</ele><time>2026-04-17T07:56:31.52Z</time></trkpt><trkpt lat="46.20067" lon="12.520945"><ele>427.0</ele><time>2026-04-17T07:56:32.519Z</time></trkpt><trkpt lat="46.2007583" lon="12.5205333"><ele>433.0</ele><time>2026-04-17T07:56:33.519Z</time></trkpt><trkpt lat="46.2008317" lon="12.5201883"><ele>433.0</ele><time>2026-04-17T07:56:34.519Z</time></trkpt><trkpt lat="46.20091" lon="12.5198817"><ele>433.0</ele><time>2026-04-17T07:56:35.519Z</time></trkpt><trkpt lat="46.2010133" lon="12.5195733"><ele>428.5</ele><time>2026-04-17T07:56:36.52Z</time></trkpt><trkpt lat="46.2011517" lon="12.5192567"><ele>424.0</ele><time>2026-04-17T07:56:37.52Z</time></trkpt><trkpt lat="46.20131" lon="12.5189317"><ele>422.5</ele><time>2026-04-17T07:56:38.52Z</time></trkpt><trkpt lat="46.2014683" lon="12.5186"><ele>421.0</ele><time>2026-04-17T07:56:39.52Z</time></trkpt><trkpt lat="46.2016183" lon="12.51828"><ele>425.0</ele><time>2026-04-17T07:56:40.522Z</time></trkpt><trkpt lat="46.201765" lon="12.5179567"><ele>429.0</ele><time>2026-04-17T07:56:41.52Z</time></trkpt><trkpt lat="46.2019283" lon="12.5176183"><ele>429.0</ele><time>2026-04-17T07:56:42.519Z</time></trkpt><trkpt lat="46.2021" lon="12.51731"><ele>429.0</ele><time>2026-04-17T07:56:43.518Z</time></trkpt><trkpt lat="46.202275" lon="12.517045"><ele>435.0</ele><time>2026-04-17T07:56:44.519Z</time></trkpt><trkpt lat="46.202455" lon="12.5168117"><ele>441.0</ele><time>2026-04-17T07:56:45.52Z</time></trkpt><trkpt lat="46.2026167" lon="12.5166117"><ele>441.0</ele><time>2026-04-17T07:56:46.519Z</time></trkpt><trkpt lat="46.2027533" lon="12.5164133"><ele>441.0</ele><time>2026-04-17T07:56:47.522Z</time></trkpt><trkpt lat="46.2028733" lon="12.5162183"><ele>441.0</ele><time>2026-04-17T07:56:48.522Z</time></trkpt><trkpt lat="46.20299" lon="12.5160483"><ele>440.5</ele><time>2026-04-17T07:56:49.519Z</time></trkpt><trkpt lat="46.2031083" lon="12.515905"><ele>440.0</ele><time>2026-04-17T07:56:50.52Z</time></trkpt><trkpt lat="46.2032267" lon="12.5157917"><ele>439.5</ele><time>2026-04-17T07:56:51.52Z</time></trkpt><trkpt lat="46.20334" lon="12.51569"><ele>439.0</ele><time>2026-04-17T07:56:52.519Z</time></trkpt><trkpt lat="46.2034417" lon="12.515585"><ele>439.0</ele><time>2026-04-17T07:56:53.521Z</time></trkpt><trkpt lat="46.2035333" lon="12.5154717"><ele>439.0</ele><time>2026-04-17T07:56:54.519Z</time></trkpt><trkpt lat="46.2036233" lon="12.51535"><ele>439.0</ele><time>2026-04-17T07:56:55.519Z</time></trkpt><trkpt lat="46.2037133" lon="12.5152217"><ele>439.0</ele><time>2026-04-17T07:56:56.519Z</time></trkpt><trkpt lat="46.203805" lon="12.51509"><ele>436.75</ele><time>2026-04-17T07:56:57.519Z</time></trkpt><trkpt lat="46.20389" lon="12.5149467"><ele>434.5</ele><time>2026-04-17T07:56:58.518Z</time></trkpt><trkpt lat="46.2039667" lon="12.5148067"><ele>432.25</ele><time>2026-04-17T07:56:59.518Z</time></trkpt><trkpt lat="46.20405" lon="12.5146783"><ele>430.0</ele><time>2026-04-17T07:57:00.525Z</time></trkpt><trkpt lat="46.2041333" lon="12.5145583"><ele>429.75</ele><time>2026-04-17T07:57:01.518Z</time></trkpt><trkpt lat="46.2042217" lon="12.5144433"><ele>429.5</ele><time>2026-04-17T07:57:02.52Z</time></trkpt><trkpt lat="46.204325" lon="12.5143367"><ele>429.25</ele><time>2026-04-17T07:57:03.518Z</time></trkpt><trkpt lat="46.20443" lon="12.51423"><ele>429.0</ele><time>2026-04-17T07:57:04.518Z</time></trkpt><trkpt lat="46.2045433" lon="12.5141333"><ele>429.0</ele><time>2026-04-17T07:57:05.522Z</time></trkpt><trkpt lat="46.2046583" lon="12.5140317"><ele>429.0</ele><time>2026-04-17T07:57:06.519Z</time></trkpt><trkpt lat="46.2047717" lon="12.5139267"><ele>429.0</ele><time>2026-04-17T07:57:07.518Z</time></trkpt><trkpt lat="46.2048983" lon="12.5138067"><ele>429.0</ele><time>2026-04-17T07:57:08.519Z</time></trkpt><trkpt lat="46.20505" lon="12.5136833"><ele>439.0</ele><time>2026-04-17T07:57:09.518Z</time></trkpt><trkpt lat="46.20525" lon="12.5135533"><ele>449.0</ele><time>2026-04-17T07:57:10.518Z</time></trkpt><trkpt lat="46.2054833" lon="12.5134067"><ele>450.0</ele><time>2026-04-17T07:57:11.519Z</time></trkpt><trkpt lat="46.2057517" lon="12.51327"><ele>451.0</ele><time>2026-04-17T07:57:12.518Z</time></trkpt><trkpt lat="46.206035" lon="12.513135"><ele>451.0</ele><time>2026-04-17T07:57:13.519Z</time></trkpt><trkpt lat="46.20631" lon="12.513005"><ele>451.0</ele><time>2026-04-17T07:57:14.519Z</time></trkpt><trkpt lat="46.206585" lon="12.51289"><ele>442.5</ele><time>2026-04-17T07:57:15.517Z</time></trkpt><trkpt lat="46.20686" lon="12.5127483"><ele>434.0</ele><time>2026-04-17T07:57:16.518Z</time></trkpt><trkpt lat="46.2071267" lon="12.512575"><ele>442.0</ele><time>2026-04-17T07:57:17.519Z</time></trkpt><trkpt lat="46.20738" lon="12.5123867"><ele>450.0</ele><time>2026-04-17T07:57:18.518Z</time></trkpt><trkpt lat="46.207615" lon="12.5121833"><ele>443.5</ele><time>2026-04-17T07:57:19.518Z</time></trkpt><trkpt lat="46.207845" lon="12.5119667"><ele>437.0</ele><time>2026-04-17T07:57:20.518Z</time></trkpt><trkpt lat="46.2080483" lon="12.5117483"><ele>437.66666666666663</ele><time>2026-04-17T07:57:21.518Z</time></trkpt><trkpt lat="46.20822" lon="12.5115467"><ele>438.33333333333337</ele><time>2026-04-17T07:57:22.518Z</time></trkpt><trkpt lat="46.208375" lon="12.5113267"><ele>439.0</ele><time>2026-04-17T07:57:23.519Z</time></trkpt><trkpt lat="46.20852" lon="12.5110617"><ele>439.0</ele><time>2026-04-17T07:57:24.519Z</time></trkpt><trkpt lat="46.20867" lon="12.5107767"><ele>439.0</ele><time>2026-04-17T07:57:25.519Z</time></trkpt><trkpt lat="46.2088367" lon="12.5105067"><ele>441.5</ele><time>2026-04-17T07:57:26.521Z</time></trkpt><trkpt lat="46.209025" lon="12.5102667"><ele>444.0</ele><time>2026-04-17T07:57:27.518Z</time></trkpt><trkpt lat="46.2092033" lon="12.5100617"><ele>444.0</ele><time>2026-04-17T07:57:28.519Z</time></trkpt><trkpt lat="46.2093717" lon="12.5098817"><ele>444.0</ele><time>2026-04-17T07:57:29.519Z</time></trkpt><trkpt lat="46.2095383" lon="12.5096833"><ele>444.0</ele><time>2026-04-17T07:57:30.519Z</time></trkpt><trkpt lat="46.2097" lon="12.5094717"><ele>441.66666666666663</ele><time>2026-04-17T07:57:31.519Z</time></trkpt><trkpt lat="46.2098383" lon="12.5092867"><ele>439.3333333333333</ele><time>2026-04-17T07:57:32.52Z</time></trkpt><trkpt lat="46.20996" lon="12.50916"><ele>437.0</ele><time>2026-04-17T07:57:33.518Z</time></trkpt><trkpt lat="46.2100717" lon="12.5090733"><ele>437.0</ele><time>2026-04-17T07:57:34.52Z</time></trkpt><trkpt lat="46.2101917" lon="12.509045"><ele>437.0</ele><time>2026-04-17T07:57:35.519Z</time></trkpt><trkpt lat="46.2103233" lon="12.50907"><ele>437.0</ele><time>2026-04-17T07:57:36.519Z</time></trkpt><trkpt lat="46.2104583" lon="12.5091533"><ele>437.0</ele><time>2026-04-17T07:57:37.519Z</time></trkpt><trkpt lat="46.2106217" lon="12.5093133"><ele>437.5</ele><time>2026-04-17T07:57:38.52Z</time></trkpt><trkpt lat="46.2108083" lon="12.5095467"><ele>438.0</ele><time>2026-04-17T07:57:39.518Z</time></trkpt><trkpt lat="46.211015" lon="12.5098133"><ele>447.0</ele><time>2026-04-17T07:57:40.524Z</time></trkpt><trkpt lat="46.211245" lon="12.5100983"><ele>456.0</ele><time>2026-04-17T07:57:41.521Z</time></trkpt><trkpt lat="46.2114533" lon="12.51038"><ele>452.33333333333337</ele><time>2026-04-17T07:57:42.519Z</time></trkpt><trkpt lat="46.211615" lon="12.5106183"><ele>448.6666666666667</ele><time>2026-04-17T07:57:43.52Z</time></trkpt><trkpt lat="46.2117367" lon="12.5108167"><ele>445.0</ele><time>2026-04-17T07:57:44.52Z</time></trkpt><trkpt lat="46.2118433" lon="12.5109817"><ele>445.0</ele><time>2026-04-17T07:57:45.52Z</time></trkpt><trkpt lat="46.2119533" lon="12.5111017"><ele>445.0</ele><time>2026-04-17T07:57:46.52Z</time></trkpt><trkpt lat="46.2120717" lon="12.5111683"><ele>445.0</ele><time>2026-04-17T07:57:47.521Z</time></trkpt><trkpt lat="46.212195" lon="12.511185"><ele>445.0</ele><time>2026-04-17T07:57:48.52Z</time></trkpt><trkpt lat="46.2123167" lon="12.51114"><ele>441.6666666666667</ele><time>2026-04-17T07:57:49.521Z</time></trkpt><trkpt lat="46.2124433" lon="12.5110417"><ele>438.33333333333337</ele><time>2026-04-17T07:57:50.521Z</time></trkpt><trkpt lat="46.2125883" lon="12.5108833"><ele>435.0</ele><time>2026-04-17T07:57:51.522Z</time></trkpt><trkpt lat="46.2127617" lon="12.5106933"><ele>435.0</ele><time>2026-04-17T07:57:52.521Z</time></trkpt><trkpt lat="46.212955" lon="12.5104867"><ele>435.0</ele><time>2026-04-17T07:57:53.522Z</time></trkpt><trkpt lat="46.2131417" lon="12.510275"><ele>438.66666666666663</ele><time>2026-04-17T07:57:54.519Z</time></trkpt><trkpt lat="46.21331" lon="12.5100633"><ele>442.3333333333333</ele><time>2026-04-17T07:57:55.521Z</time></trkpt><trkpt lat="46.2134633" lon="12.5098233"><ele>446.0</ele><time>2026-04-17T07:57:56.522Z</time></trkpt><trkpt lat="46.2136133" lon="12.5095483"><ele>456.5</ele><time>2026-04-17T07:57:57.519Z</time></trkpt><trkpt lat="46.21377" lon="12.50925"><ele>467.0</ele><time>2026-04-17T07:57:58.52Z</time></trkpt><trkpt lat="46.2139317" lon="12.508945"><ele>462.0</ele><time>2026-04-17T07:57:59.518Z</time></trkpt><trkpt lat="46.2140867" lon="12.5086533"><ele>457.0</ele><time>2026-04-17T07:58:00.519Z</time></trkpt><trkpt lat="46.2142317" lon="12.50837"><ele>457.0</ele><time>2026-04-17T07:58:01.52Z</time></trkpt><trkpt lat="46.2143667" lon="12.5081"><ele>457.0</ele><time>2026-04-17T07:58:02.519Z</time></trkpt><trkpt lat="46.2144917" lon="12.507845"><ele>457.0</ele><time>2026-04-17T07:58:03.518Z</time></trkpt><trkpt lat="46.2145983" lon="12.5076167"><ele>455.75</ele><time>2026-04-17T07:58:04.519Z</time></trkpt><trkpt lat="46.2146883" lon="12.507415"><ele>454.5</ele><time>2026-04-17T07:58:05.519Z</time></trkpt><trkpt lat="46.214765" lon="12.5072333"><ele>453.25</ele><time>2026-04-17T07:58:06.518Z</time></trkpt><trkpt lat="46.2148283" lon="12.50706"><ele>452.0</ele><time>2026-04-17T07:58:07.518Z</time></trkpt><trkpt lat="46.2148917" lon="12.5068967"><ele>452.0</ele><time>2026-04-17T07:58:08.519Z</time></trkpt><trkpt lat="46.214955" lon="12.5067333"><ele>452.0</ele><time>2026-04-17T07:58:09.518Z</time></trkpt><trkpt lat="46.215015" lon="12.5065567"><ele>452.0</ele><time>2026-04-17T07:58:10.519Z</time></trkpt><trkpt lat="46.2150717" lon="12.50634"><ele>452.0</ele><time>2026-04-17T07:58:11.518Z</time></trkpt><trkpt lat="46.215135" lon="12.506075"><ele>457.66666666666663</ele><time>2026-04-17T07:58:12.518Z</time></trkpt><trkpt lat="46.2152" lon="12.5057767"><ele>463.33333333333337</ele><time>2026-04-17T07:58:13.519Z</time></trkpt><trkpt lat="46.2152683" lon="12.5054717"><ele>469.0</ele><time>2026-04-17T07:58:14.519Z</time></trkpt><trkpt lat="46.215335" lon="12.5051917"><ele>474.6666666666667</ele><time>2026-04-17T07:58:15.52Z</time></trkpt><trkpt lat="46.215395" lon="12.5049283"><ele>480.33333333333337</ele><time>2026-04-17T07:58:16.518Z</time></trkpt><trkpt lat="46.2154417" lon="12.5046833"><ele>486.0</ele><time>2026-04-17T07:58:17.519Z</time></trkpt><trkpt lat="46.21548" lon="12.5044617"><ele>489.75</ele><time>2026-04-17T07:58:18.519Z</time></trkpt><trkpt lat="46.2155133" lon="12.5042567"><ele>493.5</ele><time>2026-04-17T07:58:19.518Z</time></trkpt><trkpt lat="46.2155433" lon="12.50406"><ele>497.25</ele><time>2026-04-17T07:58:20.518Z</time></trkpt><trkpt lat="46.21557" lon="12.50387"><ele>501.0</ele><time>2026-04-17T07:58:21.518Z</time></trkpt><trkpt lat="46.215605" lon="12.5036767"><ele>506.25</ele><time>2026-04-17T07:58:22.519Z</time></trkpt><trkpt lat="46.21565" lon="12.5034767"><ele>511.5</ele><time>2026-04-17T07:58:23.519Z</time></trkpt><trkpt lat="46.2156967" lon="12.5032883"><ele>516.75</ele><time>2026-04-17T07:58:24.518Z</time></trkpt><trkpt lat="46.2157417" lon="12.5031133"><ele>522.0</ele><time>2026-04-17T07:58:25.519Z</time></trkpt><trkpt lat="46.2157833" lon="12.502945"><ele>507.25</ele><time>2026-04-17T07:58:26.519Z</time></trkpt><trkpt lat="46.215825" lon="12.5027783"><ele>492.5</ele><time>2026-04-17T07:58:27.518Z</time></trkpt><trkpt lat="46.2158683" lon="12.5026067"><ele>477.75</ele><time>2026-04-17T07:58:28.519Z</time></trkpt><trkpt lat="46.2159167" lon="12.50243"><ele>463.0</ele><time>2026-04-17T07:58:29.522Z</time></trkpt><trkpt lat="46.2159733" lon="12.50225"><ele>467.5</ele><time>2026-04-17T07:58:30.519Z</time></trkpt><trkpt lat="46.2160367" lon="12.50207"><ele>472.0</ele><time>2026-04-17T07:58:31.519Z</time></trkpt><trkpt lat="46.216105" lon="12.5018933"><ele>476.5</ele><time>2026-04-17T07:58:32.519Z</time></trkpt><trkpt lat="46.21618" lon="12.5017217"><ele>481.0</ele><time>2026-04-17T07:58:33.518Z</time></trkpt><trkpt lat="46.21626" lon="12.5015583"><ele>481.0</ele><time>2026-04-17T07:58:34.519Z</time></trkpt><trkpt lat="46.2163433" lon="12.5014"><ele>481.0</ele><time>2026-04-17T07:58:35.518Z</time></trkpt><trkpt lat="46.21643" lon="12.5012417"><ele>481.0</ele><time>2026-04-17T07:58:36.518Z</time></trkpt><trkpt lat="46.2165217" lon="12.50108"><ele>481.0</ele><time>2026-04-17T07:58:37.519Z</time></trkpt><trkpt lat="46.2166133" lon="12.50092"><ele>480.75</ele><time>2026-04-17T07:58:38.52Z</time></trkpt><trkpt lat="46.2167083" lon="12.50076"><ele>480.5</ele><time>2026-04-17T07:58:39.52Z</time></trkpt><trkpt lat="46.216805" lon="12.5006"><ele>480.25</ele><time>2026-04-17T07:58:40.521Z</time></trkpt><trkpt lat="46.2169" lon="12.500435"><ele>480.0</ele><time>2026-04-17T07:58:41.52Z</time></trkpt><trkpt lat="46.2169917" lon="12.5002667"><ele>480.0</ele><time>2026-04-17T07:58:42.521Z</time></trkpt><trkpt lat="46.2170783" lon="12.5000983"><ele>480.0</ele><time>2026-04-17T07:58:43.52Z</time></trkpt><trkpt lat="46.2171683" lon="12.49993"><ele>480.0</ele><time>2026-04-17T07:58:44.52Z</time></trkpt><trkpt lat="46.217255" lon="12.499755"><ele>480.0</ele><time>2026-04-17T07:58:45.519Z</time></trkpt><trkpt lat="46.2173367" lon="12.4995783"><ele>474.25</ele><time>2026-04-17T07:58:46.519Z</time></trkpt><trkpt lat="46.2174133" lon="12.4993967"><ele>468.5</ele><time>2026-04-17T07:58:47.52Z</time></trkpt><trkpt lat="46.2174867" lon="12.4992167"><ele>462.75</ele><time>2026-04-17T07:58:48.52Z</time></trkpt><trkpt lat="46.2175567" lon="12.499035"><ele>457.0</ele><time>2026-04-17T07:58:49.518Z</time></trkpt><trkpt lat="46.2176233" lon="12.4988217"><ele>463.5</ele><time>2026-04-17T07:58:50.518Z</time></trkpt><trkpt lat="46.2176983" lon="12.4985483"><ele>470.0</ele><time>2026-04-17T07:58:51.518Z</time></trkpt><trkpt lat="46.217785" lon="12.498205"><ele>476.5</ele><time>2026-04-17T07:58:52.518Z</time></trkpt><trkpt lat="46.217875" lon="12.4978333"><ele>483.0</ele><time>2026-04-17T07:58:53.518Z</time></trkpt><trkpt lat="46.21797" lon="12.4974683"><ele>483.0</ele><time>2026-04-17T07:58:54.517Z</time></trkpt><trkpt lat="46.21808" lon="12.49713"><ele>483.0</ele><time>2026-04-17T07:58:55.518Z</time></trkpt><trkpt lat="46.21822" lon="12.4968117"><ele>476.5</ele><time>2026-04-17T07:58:56.519Z</time></trkpt><trkpt lat="46.2183933" lon="12.496505"><ele>470.0</ele><time>2026-04-17T07:58:57.518Z</time></trkpt><trkpt lat="46.2185817" lon="12.4962067"><ele>470.0</ele><time>2026-04-17T07:58:58.517Z</time></trkpt><trkpt lat="46.2187767" lon="12.4959117"><ele>470.0</ele><time>2026-04-17T07:58:59.519Z</time></trkpt><trkpt lat="46.2189617" lon="12.4956217"><ele>465.0</ele><time>2026-04-17T07:59:00.518Z</time></trkpt><trkpt lat="46.2191317" lon="12.4953383"><ele>460.0</ele><time>2026-04-17T07:59:01.518Z</time></trkpt><trkpt lat="46.2192883" lon="12.4950733"><ele>460.0</ele><time>2026-04-17T07:59:02.518Z</time></trkpt><trkpt lat="46.21944" lon="12.49483"><ele>460.0</ele><time>2026-04-17T07:59:03.519Z</time></trkpt><trkpt lat="46.219605" lon="12.4946183"><ele>460.0</ele><time>2026-04-17T07:59:04.519Z</time></trkpt><trkpt lat="46.2197883" lon="12.4944183"><ele>457.5</ele><time>2026-04-17T07:59:05.518Z</time></trkpt><trkpt lat="46.2199783" lon="12.4942117"><ele>455.0</ele><time>2026-04-17T07:59:06.519Z</time></trkpt><trkpt lat="46.22017" lon="12.4939867"><ele>464.0</ele><time>2026-04-17T07:59:07.519Z</time></trkpt><trkpt lat="46.2203683" lon="12.49374"><ele>473.0</ele><time>2026-04-17T07:59:08.518Z</time></trkpt><trkpt lat="46.2205667" lon="12.4935017"><ele>465.0</ele><time>2026-04-17T07:59:09.52Z</time></trkpt><trkpt lat="46.2207667" lon="12.4932933"><ele>457.0</ele><time>2026-04-17T07:59:10.519Z</time></trkpt><trkpt lat="46.2209817" lon="12.4931067"><ele>457.0</ele><time>2026-04-17T07:59:11.518Z</time></trkpt><trkpt lat="46.2212233" lon="12.4929417"><ele>457.0</ele><time>2026-04-17T07:59:12.519Z</time></trkpt><trkpt lat="46.22149" lon="12.4927833"><ele>463.0</ele><time>2026-04-17T07:59:13.518Z</time></trkpt><trkpt lat="46.22177" lon="12.4926067"><ele>469.0</ele><time>2026-04-17T07:59:14.519Z</time></trkpt><trkpt lat="46.2220567" lon="12.4923983"><ele>476.0</ele><time>2026-04-17T07:59:15.518Z</time></trkpt><trkpt lat="46.2223433" lon="12.4921833"><ele>483.0</ele><time>2026-04-17T07:59:16.518Z</time></trkpt><trkpt lat="46.22263" lon="12.4919633"><ele>483.0</ele><time>2026-04-17T07:59:17.518Z</time></trkpt><trkpt lat="46.2229133" lon="12.4917467"><ele>483.0</ele><time>2026-04-17T07:59:18.519Z</time></trkpt><trkpt lat="46.2231867" lon="12.49154"><ele>511.0</ele><time>2026-04-17T07:59:19.519Z</time></trkpt><trkpt lat="46.2263617" lon="12.4876233"><ele>490.5</ele><time>2026-04-17T07:59:32.521Z</time></trkpt><trkpt lat="46.2266183" lon="12.4873783"><ele>470.0</ele><time>2026-04-17T07:59:33.518Z</time></trkpt><trkpt lat="46.2268633" lon="12.4871467"><ele>493.0</ele><time>2026-04-17T07:59:34.519Z</time></trkpt><trkpt lat="46.227085" lon="12.4869433"><ele>516.0</ele><time>2026-04-17T07:59:35.518Z</time></trkpt><trkpt lat="46.22727" lon="12.48678"><ele>502.33333333333337</ele><time>2026-04-17T07:59:36.518Z</time></trkpt><trkpt lat="46.22744" lon="12.486675"><ele>488.6666666666667</ele><time>2026-04-17T07:59:37.52Z</time></trkpt><trkpt lat="46.2276133" lon="12.4866133"><ele>475.0</ele><time>2026-04-17T07:59:38.519Z</time></trkpt><trkpt lat="46.2278033" lon="12.4866033"><ele>475.0</ele><time>2026-04-17T07:59:39.518Z</time></trkpt><trkpt lat="46.2280183" lon="12.4865917"><ele>475.0</ele><time>2026-04-17T07:59:40.518Z</time></trkpt><trkpt lat="46.228255" lon="12.4865533"><ele>470.0</ele><time>2026-04-17T07:59:41.518Z</time></trkpt><trkpt lat="46.228505" lon="12.486485"><ele>465.0</ele><time>2026-04-17T07:59:42.519Z</time></trkpt><trkpt lat="46.2287683" lon="12.486395"><ele>463.0</ele><time>2026-04-17T07:59:43.518Z</time></trkpt><trkpt lat="46.229045" lon="12.4862683"><ele>461.0</ele><time>2026-04-17T07:59:44.519Z</time></trkpt><trkpt lat="46.2293167" lon="12.48612"><ele>470.0</ele><time>2026-04-17T07:59:45.517Z</time></trkpt><trkpt lat="46.22956" lon="12.4859617"><ele>479.0</ele><time>2026-04-17T07:59:46.518Z</time></trkpt><trkpt lat="46.2297683" lon="12.4858267"><ele>477.3333333333333</ele><time>2026-04-17T07:59:47.519Z</time></trkpt><trkpt lat="46.22996" lon="12.4857233"><ele>475.66666666666663</ele><time>2026-04-17T07:59:48.519Z</time></trkpt><trkpt lat="46.2301533" lon="12.485665"><ele>474.0</ele><time>2026-04-17T07:59:49.519Z</time></trkpt><trkpt lat="46.2303617" lon="12.48565"><ele>474.0</ele><time>2026-04-17T07:59:50.518Z</time></trkpt><trkpt lat="46.2305667" lon="12.48568"><ele>474.0</ele><time>2026-04-17T07:59:51.519Z</time></trkpt><trkpt lat="46.2307667" lon="12.485745"><ele>474.0</ele><time>2026-04-17T07:59:52.519Z</time></trkpt><trkpt lat="46.2309533" lon="12.4858717"><ele>475.0</ele><time>2026-04-17T07:59:53.521Z</time></trkpt><trkpt lat="46.2311467" lon="12.4860433"><ele>476.0</ele><time>2026-04-17T07:59:54.519Z</time></trkpt><trkpt lat="46.231355" lon="12.4862483"><ele>474.0</ele><time>2026-04-17T07:59:55.519Z</time></trkpt><trkpt lat="46.2315767" lon="12.4864883"><ele>472.0</ele><time>2026-04-17T07:59:56.518Z</time></trkpt><trkpt lat="46.2318267" lon="12.486725"><ele>472.0</ele><time>2026-04-17T07:59:57.518Z</time></trkpt><trkpt lat="46.2320883" lon="12.48697"><ele>472.0</ele><time>2026-04-17T07:59:58.517Z</time></trkpt><trkpt lat="46.232335" lon="12.487195"><ele>474.0</ele><time>2026-04-17T07:59:59.518Z</time></trkpt><trkpt lat="46.2325533" lon="12.4874017"><ele>476.0</ele><time>2026-04-17T08:00:00.519Z</time></trkpt><trkpt lat="46.23276" lon="12.4875983"><ele>476.0</ele><time>2026-04-17T08:00:01.519Z</time></trkpt><trkpt lat="46.2329867" lon="12.48778"><ele>476.0</ele><time>2026-04-17T08:00:02.519Z</time></trkpt><trkpt lat="46.2332317" lon="12.487965"><ele>474.5</ele><time>2026-04-17T08:00:03.519Z</time></trkpt><trkpt lat="46.2334867" lon="12.48816"><ele>473.0</ele><time>2026-04-17T08:00:04.518Z</time></trkpt><trkpt lat="46.23372" lon="12.4883383"><ele>473.0</ele><time>2026-04-17T08:00:05.519Z</time></trkpt><trkpt lat="46.23392" lon="12.4884833"><ele>473.0</ele><time>2026-04-17T08:00:06.519Z</time></trkpt><trkpt lat="46.2340967" lon="12.488595"><ele>473.0</ele><time>2026-04-17T08:00:07.519Z</time></trkpt><trkpt lat="46.2342667" lon="12.488665"><ele>475.0</ele><time>2026-04-17T08:00:08.519Z</time></trkpt><trkpt lat="46.2344433" lon="12.4886817"><ele>477.0</ele><time>2026-04-17T08:00:09.519Z</time></trkpt><trkpt lat="46.2346367" lon="12.4886433"><ele>479.0</ele><time>2026-04-17T08:00:10.519Z</time></trkpt><trkpt lat="46.234855" lon="12.4885733"><ele>479.0</ele><time>2026-04-17T08:00:11.519Z</time></trkpt><trkpt lat="46.235095" lon="12.4885083"><ele>479.0</ele><time>2026-04-17T08:00:12.519Z</time></trkpt><trkpt lat="46.23536" lon="12.488475"><ele>482.0</ele><time>2026-04-17T08:00:13.519Z</time></trkpt><trkpt lat="46.235645" lon="12.488485"><ele>485.0</ele><time>2026-04-17T08:00:14.519Z</time></trkpt><trkpt lat="46.235945" lon="12.48853"><ele>485.0</ele><time>2026-04-17T08:00:15.518Z</time></trkpt><trkpt lat="46.2362217" lon="12.48859"><ele>485.0</ele><time>2026-04-17T08:00:16.519Z</time></trkpt><trkpt lat="46.2364533" lon="12.48865"><ele>490.0</ele><time>2026-04-17T08:00:17.519Z</time></trkpt><trkpt lat="46.2366683" lon="12.4887033"><ele>495.0</ele><time>2026-04-17T08:00:18.52Z</time></trkpt><trkpt lat="46.2369" lon="12.4887183"><ele>495.0</ele><time>2026-04-17T08:00:19.518Z</time></trkpt><trkpt lat="46.23714" lon="12.4886883"><ele>495.0</ele><time>2026-04-17T08:00:20.519Z</time></trkpt><trkpt lat="46.2373683" lon="12.4886083"><ele>493.0</ele><time>2026-04-17T08:00:21.519Z</time></trkpt><trkpt lat="46.2375867" lon="12.4884867"><ele>491.0</ele><time>2026-04-17T08:00:22.519Z</time></trkpt><trkpt lat="46.237795" lon="12.48834"><ele>491.0</ele><time>2026-04-17T08:00:23.518Z</time></trkpt><trkpt lat="46.237995" lon="12.4882117"><ele>491.0</ele><time>2026-04-17T08:00:24.518Z</time></trkpt><trkpt lat="46.2382017" lon="12.4881167"><ele>491.0</ele><time>2026-04-17T08:00:25.519Z</time></trkpt><trkpt lat="46.23841" lon="12.48802"><ele>487.66666666666663</ele><time>2026-04-17T08:00:26.518Z</time></trkpt><trkpt lat="46.2386067" lon="12.4879017"><ele>484.33333333333337</ele><time>2026-04-17T08:00:27.519Z</time></trkpt><trkpt lat="46.23879" lon="12.4877367"><ele>481.0</ele><time>2026-04-17T08:00:28.519Z</time></trkpt><trkpt lat="46.2389717" lon="12.4875133"><ele>481.0</ele><time>2026-04-17T08:00:29.518Z</time></trkpt><trkpt lat="46.2391517" lon="12.4872583"><ele>481.0</ele><time>2026-04-17T08:00:30.52Z</time></trkpt><trkpt lat="46.2393283" lon="12.487005"><ele>482.6666666666667</ele><time>2026-04-17T08:00:31.521Z</time></trkpt><trkpt lat="46.2394883" lon="12.486785"><ele>484.33333333333337</ele><time>2026-04-17T08:00:32.52Z</time></trkpt><trkpt lat="46.2396517" lon="12.4866233"><ele>486.0</ele><time>2026-04-17T08:00:33.519Z</time></trkpt><trkpt lat="46.2398367" lon="12.4865283"><ele>486.0</ele><time>2026-04-17T08:00:34.519Z</time></trkpt><trkpt lat="46.2400417" lon="12.4864767"><ele>486.0</ele><time>2026-04-17T08:00:35.518Z</time></trkpt><trkpt lat="46.240275" lon="12.4864233"><ele>486.0</ele><time>2026-04-17T08:00:36.519Z</time></trkpt><trkpt lat="46.2405317" lon="12.486385"><ele>484.5</ele><time>2026-04-17T08:00:37.518Z</time></trkpt><trkpt lat="46.240815" lon="12.4863433"><ele>483.0</ele><time>2026-04-17T08:00:38.52Z</time></trkpt><trkpt lat="46.241115" lon="12.4862967"><ele>493.5</ele><time>2026-04-17T08:00:39.518Z</time></trkpt><trkpt lat="46.24143" lon="12.4862217"><ele>504.0</ele><time>2026-04-17T08:00:40.523Z</time></trkpt><trkpt lat="46.2417533" lon="12.48609"><ele>504.0</ele><time>2026-04-17T08:00:41.52Z</time></trkpt><trkpt lat="46.24207" lon="12.485925"><ele>504.0</ele><time>2026-04-17T08:00:42.519Z</time></trkpt><trkpt lat="46.2423583" lon="12.48576"><ele>497.5</ele><time>2026-04-17T08:00:43.519Z</time></trkpt><trkpt lat="46.2426" lon="12.4856117"><ele>491.0</ele><time>2026-04-17T08:00:44.519Z</time></trkpt><trkpt lat="46.242795" lon="12.4854717"><ele>494.66666666666663</ele><time>2026-04-17T08:00:45.519Z</time></trkpt><trkpt lat="46.242965" lon="12.4853117"><ele>498.33333333333337</ele><time>2026-04-17T08:00:46.521Z</time></trkpt><trkpt lat="46.243125" lon="12.4851083"><ele>502.0</ele><time>2026-04-17T08:00:47.52Z</time></trkpt><trkpt lat="46.2432717" lon="12.4848683"><ele>517.0</ele><time>2026-04-17T08:00:48.519Z</time></trkpt><trkpt lat="46.2434117" lon="12.4845933"><ele>532.0</ele><time>2026-04-17T08:00:49.519Z</time></trkpt><trkpt lat="46.243545" lon="12.4842783"><ele>532.0</ele><time>2026-04-17T08:00:50.52Z</time></trkpt><trkpt lat="46.24366" lon="12.4839767"><ele>532.0</ele><time>2026-04-17T08:00:51.518Z</time></trkpt><trkpt lat="46.2437467" lon="12.4837033"><ele>532.0</ele><time>2026-04-17T08:00:52.518Z</time></trkpt><trkpt lat="46.2437983" lon="12.483435"><ele>540.6666666666667</ele><time>2026-04-17T08:00:53.519Z</time></trkpt><trkpt lat="46.24382" lon="12.48315"><ele>549.3333333333334</ele><time>2026-04-17T08:00:54.519Z</time></trkpt><trkpt lat="46.2438333" lon="12.48284"><ele>558.0</ele><time>2026-04-17T08:00:55.52Z</time></trkpt><trkpt lat="46.2438483" lon="12.48249"><ele>560.0</ele><time>2026-04-17T08:00:56.519Z</time></trkpt><trkpt lat="46.2438633" lon="12.4820983"><ele>562.0</ele><time>2026-04-17T08:00:57.519Z</time></trkpt><trkpt lat="46.2438883" lon="12.4816717"><ele>557.5</ele><time>2026-04-17T08:00:58.519Z</time></trkpt><trkpt lat="46.2439217" lon="12.4812"><ele>553.0</ele><time>2026-04-17T08:00:59.519Z</time></trkpt><trkpt lat="46.24397" lon="12.4807017"><ele>531.5</ele><time>2026-04-17T08:01:00.52Z</time></trkpt><trkpt lat="46.2440367" lon="12.480185"><ele>510.0</ele><time>2026-04-17T08:01:01.523Z</time></trkpt><trkpt lat="46.2441167" lon="12.4796817"><ele>514.0</ele><time>2026-04-17T08:01:02.519Z</time></trkpt><trkpt lat="46.2441933" lon="12.4792083"><ele>518.0</ele><time>2026-04-17T08:01:03.518Z</time></trkpt><trkpt lat="46.2442667" lon="12.47876"><ele>521.0</ele><time>2026-04-17T08:01:04.518Z</time></trkpt><trkpt lat="46.244335" lon="12.4783367"><ele>524.0</ele><time>2026-04-17T08:01:05.519Z</time></trkpt><trkpt lat="46.244405" lon="12.4779533"><ele>523.0</ele><time>2026-04-17T08:01:06.518Z</time></trkpt><trkpt lat="46.2444767" lon="12.4775933"><ele>522.0</ele><time>2026-04-17T08:01:07.519Z</time></trkpt><trkpt lat="46.2445567" lon="12.4772433"><ele>520.5</ele><time>2026-04-17T08:01:08.519Z</time></trkpt><trkpt lat="46.2446517" lon="12.4769017"><ele>519.0</ele><time>2026-04-17T08:01:09.52Z</time></trkpt><trkpt lat="46.24475" lon="12.4765633"><ele>513.5</ele><time>2026-04-17T08:01:10.519Z</time></trkpt><trkpt lat="46.2448467" lon="12.47624"><ele>508.0</ele><time>2026-04-17T08:01:11.519Z</time></trkpt><trkpt lat="46.2449417" lon="12.4759383"><ele>508.0</ele><time>2026-04-17T08:01:12.52Z</time></trkpt><trkpt lat="46.24503" lon="12.4756583"><ele>508.0</ele><time>2026-04-17T08:01:13.519Z</time></trkpt><trkpt lat="46.24511" lon="12.4754083"><ele>508.0</ele><time>2026-04-17T08:01:14.519Z</time></trkpt><trkpt lat="46.245185" lon="12.47519"><ele>509.5</ele><time>2026-04-17T08:01:15.519Z</time></trkpt><trkpt lat="46.245255" lon="12.4750017"><ele>511.0</ele><time>2026-04-17T08:01:16.519Z</time></trkpt><trkpt lat="46.2453233" lon="12.4748433"><ele>512.5</ele><time>2026-04-17T08:01:17.52Z</time></trkpt><trkpt lat="46.2453883" lon="12.4747017"><ele>514.0</ele><time>2026-04-17T08:01:18.519Z</time></trkpt><trkpt lat="46.2454483" lon="12.474575"><ele>515.0</ele><time>2026-04-17T08:01:19.519Z</time></trkpt><trkpt lat="46.2455067" lon="12.4744583"><ele>516.0</ele><time>2026-04-17T08:01:20.518Z</time></trkpt><trkpt lat="46.2455567" lon="12.4743517"><ele>517.0</ele><time>2026-04-17T08:01:21.519Z</time></trkpt><trkpt lat="46.245605" lon="12.47425"><ele>518.0</ele><time>2026-04-17T08:01:22.519Z</time></trkpt><trkpt lat="46.2456533" lon="12.474145"><ele>519.0</ele><time>2026-04-17T08:01:23.521Z</time></trkpt><trkpt lat="46.2457067" lon="12.47403"><ele>517.0</ele><time>2026-04-17T08:01:24.519Z</time></trkpt><trkpt lat="46.24577" lon="12.4738933"><ele>515.0</ele><time>2026-04-17T08:01:25.518Z</time></trkpt><trkpt lat="46.245845" lon="12.4737267"><ele>513.0</ele><time>2026-04-17T08:01:26.518Z</time></trkpt><trkpt lat="46.245935" lon="12.4735333"><ele>511.0</ele><time>2026-04-17T08:01:27.518Z</time></trkpt><trkpt lat="46.24604" lon="12.473315"><ele>511.0</ele><time>2026-04-17T08:01:28.518Z</time></trkpt><trkpt lat="46.24616" lon="12.4730683"><ele>511.0</ele><time>2026-04-17T08:01:29.521Z</time></trkpt><trkpt lat="46.2462917" lon="12.4727833"><ele>511.0</ele><time>2026-04-17T08:01:30.518Z</time></trkpt><trkpt lat="46.2464417" lon="12.4724717"><ele>508.5</ele><time>2026-04-17T08:01:31.519Z</time></trkpt><trkpt lat="46.24661" lon="12.472165"><ele>506.0</ele><time>2026-04-17T08:01:32.519Z</time></trkpt><trkpt lat="46.2467917" lon="12.471905"><ele>506.0</ele><time>2026-04-17T08:01:33.517Z</time></trkpt><trkpt lat="46.2469883" lon="12.4717033"><ele>506.0</ele><time>2026-04-17T08:01:34.518Z</time></trkpt><trkpt lat="46.2472067" lon="12.4715567"><ele>505.0</ele><time>2026-04-17T08:01:35.518Z</time></trkpt><trkpt lat="46.24744" lon="12.4714333"><ele>504.0</ele><time>2026-04-17T08:01:36.518Z</time></trkpt><trkpt lat="46.2476567" lon="12.4713283"><ele>505.33333333333337</ele><time>2026-04-17T08:01:37.519Z</time></trkpt><trkpt lat="46.2478467" lon="12.4712133"><ele>506.6666666666667</ele><time>2026-04-17T08:01:38.518Z</time></trkpt><trkpt lat="46.2480383" lon="12.471055"><ele>508.0</ele><time>2026-04-17T08:01:39.518Z</time></trkpt><trkpt lat="46.2482383" lon="12.4708617"><ele>508.0</ele><time>2026-04-17T08:01:40.522Z</time></trkpt><trkpt lat="46.2484383" lon="12.4706433"><ele>508.0</ele><time>2026-04-17T08:01:41.518Z</time></trkpt><trkpt lat="46.24864" lon="12.4704167"><ele>507.5</ele><time>2026-04-17T08:01:42.518Z</time></trkpt><trkpt lat="46.24883" lon="12.470155"><ele>507.0</ele><time>2026-04-17T08:01:43.518Z</time></trkpt><trkpt lat="46.2490017" lon="12.4699"><ele>507.0</ele><time>2026-04-17T08:01:44.518Z</time></trkpt><trkpt lat="46.2491367" lon="12.4696583"><ele>507.0</ele><time>2026-04-17T08:01:45.518Z</time></trkpt><trkpt lat="46.2492283" lon="12.469405"><ele>507.0</ele><time>2026-04-17T08:01:46.517Z</time></trkpt><trkpt lat="46.2493017" lon="12.4691033"><ele>520.5</ele><time>2026-04-17T08:01:47.518Z</time></trkpt><trkpt lat="46.2493583" lon="12.4687583"><ele>534.0</ele><time>2026-04-17T08:01:48.518Z</time></trkpt><trkpt lat="46.2494083" lon="12.4684067"><ele>534.0</ele><time>2026-04-17T08:01:49.519Z</time></trkpt><trkpt lat="46.2494367" lon="12.46804"><ele>534.0</ele><time>2026-04-17T08:01:50.52Z</time></trkpt><trkpt lat="46.24944" lon="12.4676383"><ele>542.0</ele><time>2026-04-17T08:01:51.518Z</time></trkpt><trkpt lat="46.2494283" lon="12.46722"><ele>550.0</ele><time>2026-04-17T08:01:52.518Z</time></trkpt><trkpt lat="46.2494283" lon="12.4668117"><ele>551.0</ele><time>2026-04-17T08:01:53.518Z</time></trkpt><trkpt lat="46.249435" lon="12.4664283"><ele>552.0</ele><time>2026-04-17T08:01:54.518Z</time></trkpt><trkpt lat="46.2494433" lon="12.46608"><ele>556.6666666666666</ele><time>2026-04-17T08:01:55.519Z</time></trkpt><trkpt lat="46.249445" lon="12.4657683"><ele>561.3333333333333</ele><time>2026-04-17T08:01:56.519Z</time></trkpt><trkpt lat="46.249435" lon="12.46549"><ele>566.0</ele><time>2026-04-17T08:01:57.518Z</time></trkpt><trkpt lat="46.2494333" lon="12.4652483"><ele>572.0</ele><time>2026-04-17T08:01:58.518Z</time></trkpt><trkpt lat="46.2494433" lon="12.4650367"><ele>578.0</ele><time>2026-04-17T08:01:59.521Z</time></trkpt><trkpt lat="46.24948" lon="12.46483"><ele>584.0</ele><time>2026-04-17T08:02:00.518Z</time></trkpt><trkpt lat="46.2495567" lon="12.4646033"><ele>586.6666666666666</ele><time>2026-04-17T08:02:01.519Z</time></trkpt><trkpt lat="46.2496517" lon="12.4643433"><ele>589.3333333333334</ele><time>2026-04-17T08:02:02.518Z</time></trkpt><trkpt lat="46.2497667" lon="12.4640733"><ele>592.0</ele><time>2026-04-17T08:02:03.518Z</time></trkpt><trkpt lat="46.2498817" lon="12.4638583"><ele>575.0</ele><time>2026-04-17T08:02:04.518Z</time></trkpt><trkpt lat="46.2500067" lon="12.4637"><ele>558.0</ele><time>2026-04-17T08:02:05.52Z</time></trkpt><trkpt lat="46.2501183" lon="12.4635233"><ele>541.0</ele><time>2026-04-17T08:02:06.519Z</time></trkpt><trkpt lat="46.2502033" lon="12.4633083"><ele>541.0</ele><time>2026-04-17T08:02:07.518Z</time></trkpt><trkpt lat="46.2502617" lon="12.4630933"><ele>541.0</ele><time>2026-04-17T08:02:08.52Z</time></trkpt><trkpt lat="46.2503117" lon="12.4629233"><ele>541.0</ele><time>2026-04-17T08:02:09.517Z</time></trkpt><trkpt lat="46.250385" lon="12.4628083"><ele>541.0</ele><time>2026-04-17T08:02:10.518Z</time></trkpt><trkpt lat="46.2504917" lon="12.462725"><ele>533.6666666666667</ele><time>2026-04-17T08:02:11.518Z</time></trkpt><trkpt lat="46.250635" lon="12.4626733"><ele>526.3333333333334</ele><time>2026-04-17T08:02:12.519Z</time></trkpt><trkpt lat="46.2507983" lon="12.46267"><ele>519.0</ele><time>2026-04-17T08:02:13.517Z</time></trkpt><trkpt lat="46.2509767" lon="12.4627283"><ele>519.0</ele><time>2026-04-17T08:02:14.518Z</time></trkpt><trkpt lat="46.2511733" lon="12.462835"><ele>519.0</ele><time>2026-04-17T08:02:15.518Z</time></trkpt><trkpt lat="46.2513967" lon="12.46295"><ele>519.0</ele><time>2026-04-17T08:02:16.519Z</time></trkpt><trkpt lat="46.2516567" lon="12.4630467"><ele>517.0</ele><time>2026-04-17T08:02:17.518Z</time></trkpt><trkpt lat="46.2519483" lon="12.4631333"><ele>515.0</ele><time>2026-04-17T08:02:18.518Z</time></trkpt><trkpt lat="46.25225" lon="12.4632333"><ele>520.5</ele><time>2026-04-17T08:02:19.522Z</time></trkpt><trkpt lat="46.2525533" lon="12.4633683"><ele>526.0</ele><time>2026-04-17T08:02:20.519Z</time></trkpt><trkpt lat="46.2528417" lon="12.463535"><ele>526.0</ele><time>2026-04-17T08:02:21.52Z</time></trkpt><trkpt lat="46.253115" lon="12.4637"><ele>526.0</ele><time>2026-04-17T08:02:22.518Z</time></trkpt><trkpt lat="46.2533867" lon="12.463845"><ele>519.5</ele><time>2026-04-17T08:02:23.519Z</time></trkpt><trkpt lat="46.2536433" lon="12.4639617"><ele>513.0</ele><time>2026-04-17T08:02:24.518Z</time></trkpt><trkpt lat="46.2538833" lon="12.4640317"><ele>515.6666666666666</ele><time>2026-04-17T08:02:25.518Z</time></trkpt><trkpt lat="46.254105" lon="12.46404"><ele>518.3333333333333</ele><time>2026-04-17T08:02:26.518Z</time></trkpt><trkpt lat="46.2543217" lon="12.4639917"><ele>521.0</ele><time>2026-04-17T08:02:27.518Z</time></trkpt><trkpt lat="46.25453" lon="12.4639267"><ele>521.0</ele><time>2026-04-17T08:02:28.518Z</time></trkpt><trkpt lat="46.2547267" lon="12.463895"><ele>521.0</ele><time>2026-04-17T08:02:29.518Z</time></trkpt><trkpt lat="46.2549167" lon="12.4639283"><ele>521.0</ele><time>2026-04-17T08:02:30.518Z</time></trkpt><trkpt lat="46.2551" lon="12.46402"><ele>521.6666666666666</ele><time>2026-04-17T08:02:31.52Z</time></trkpt><trkpt lat="46.2552717" lon="12.464175"><ele>522.3333333333334</ele><time>2026-04-17T08:02:32.519Z</time></trkpt><trkpt lat="46.255435" lon="12.464395"><ele>523.0</ele><time>2026-04-17T08:02:33.518Z</time></trkpt><trkpt lat="46.2555817" lon="12.464665"><ele>523.5</ele><time>2026-04-17T08:02:34.518Z</time></trkpt><trkpt lat="46.2556983" lon="12.4649717"><ele>524.0</ele><time>2026-04-17T08:02:35.519Z</time></trkpt><trkpt lat="46.2557917" lon="12.4652633"><ele>522.3333333333333</ele><time>2026-04-17T08:02:36.517Z</time></trkpt><trkpt lat="46.2558867" lon="12.4655"><ele>520.6666666666666</ele><time>2026-04-17T08:02:37.521Z</time></trkpt><trkpt lat="46.2560033" lon="12.4656933"><ele>519.0</ele><time>2026-04-17T08:02:38.519Z</time></trkpt><trkpt lat="46.25616" lon="12.46585"><ele>519.0</ele><time>2026-04-17T08:02:39.518Z</time></trkpt><trkpt lat="46.2563533" lon="12.4660017"><ele>519.0</ele><time>2026-04-17T08:02:40.524Z</time></trkpt><trkpt lat="46.2565683" lon="12.46617"><ele>520.0</ele><time>2026-04-17T08:02:41.519Z</time></trkpt><trkpt lat="46.2567817" lon="12.4663333"><ele>521.0</ele><time>2026-04-17T08:02:42.518Z</time></trkpt><trkpt lat="46.2569833" lon="12.4664583"><ele>521.0</ele><time>2026-04-17T08:02:43.518Z</time></trkpt><trkpt lat="46.2571933" lon="12.4665417"><ele>521.0</ele><time>2026-04-17T08:02:44.521Z</time></trkpt><trkpt lat="46.2574283" lon="12.4665733"><ele>523.5</ele><time>2026-04-17T08:02:45.518Z</time></trkpt><trkpt lat="46.25767" lon="12.46658"><ele>526.0</ele><time>2026-04-17T08:02:46.518Z</time></trkpt><trkpt lat="46.2578983" lon="12.466585"><ele>526.0</ele><time>2026-04-17T08:02:47.52Z</time></trkpt><trkpt lat="46.258105" lon="12.46659"><ele>526.0</ele><time>2026-04-17T08:02:48.518Z</time></trkpt><trkpt lat="46.2583067" lon="12.466565"><ele>526.0</ele><time>2026-04-17T08:02:49.518Z</time></trkpt><trkpt lat="46.2585167" lon="12.4664917"><ele>527.3333333333334</ele><time>2026-04-17T08:02:50.52Z</time></trkpt><trkpt lat="46.2587083" lon="12.466405"><ele>528.6666666666666</ele><time>2026-04-17T08:02:51.52Z</time></trkpt><trkpt lat="46.2588767" lon="12.4663383"><ele>530.0</ele><time>2026-04-17T08:02:52.52Z</time></trkpt><trkpt lat="46.2590283" lon="12.4663017"><ele>530.25</ele><time>2026-04-17T08:02:53.518Z</time></trkpt><trkpt lat="46.2591617" lon="12.4663217"><ele>530.5</ele><time>2026-04-17T08:02:54.518Z</time></trkpt><trkpt lat="46.2592567" lon="12.4664033"><ele>530.75</ele><time>2026-04-17T08:02:55.518Z</time></trkpt><trkpt lat="46.2593167" lon="12.46654"><ele>531.0</ele><time>2026-04-17T08:02:56.517Z</time></trkpt><trkpt lat="46.259355" lon="12.46673"><ele>531.0</ele><time>2026-04-17T08:02:57.518Z</time></trkpt><trkpt lat="46.2593833" lon="12.4669567"><ele>531.0</ele><time>2026-04-17T08:02:58.517Z</time></trkpt><trkpt lat="46.2594133" lon="12.4672033"><ele>531.0</ele><time>2026-04-17T08:02:59.52Z</time></trkpt><trkpt lat="46.259445" lon="12.4674617"><ele>531.0</ele><time>2026-04-17T08:03:00.519Z</time></trkpt><trkpt lat="46.259475" lon="12.467725"><ele>531.0</ele><time>2026-04-17T08:03:01.519Z</time></trkpt><trkpt lat="46.2595083" lon="12.4679883"><ele>531.0</ele><time>2026-04-17T08:03:02.517Z</time></trkpt><trkpt lat="46.25955" lon="12.4682417"><ele>533.3333333333334</ele><time>2026-04-17T08:03:03.518Z</time></trkpt><trkpt lat="46.259605" lon="12.468475"><ele>535.6666666666667</ele><time>2026-04-17T08:03:04.518Z</time></trkpt><trkpt lat="46.25969" lon="12.468675"><ele>538.0</ele><time>2026-04-17T08:03:05.519Z</time></trkpt><trkpt lat="46.259785" lon="12.4688467"><ele>538.0</ele><time>2026-04-17T08:03:06.518Z</time></trkpt><trkpt lat="46.2598817" lon="12.4689983"><ele>538.0</ele><time>2026-04-17T08:03:07.518Z</time></trkpt><trkpt lat="46.25998" lon="12.4691317"><ele>538.0</ele><time>2026-04-17T08:03:08.518Z</time></trkpt><trkpt lat="46.2600933" lon="12.4692333"><ele>538.0</ele><time>2026-04-17T08:03:09.517Z</time></trkpt><trkpt lat="46.2602217" lon="12.4692867"><ele>538.0</ele><time>2026-04-17T08:03:10.518Z</time></trkpt><trkpt lat="46.2603633" lon="12.4692917"><ele>538.0</ele><time>2026-04-17T08:03:11.518Z</time></trkpt><trkpt lat="46.260515" lon="12.4692467"><ele>538.0</ele><time>2026-04-17T08:03:12.518Z</time></trkpt><trkpt lat="46.2606767" lon="12.4691567"><ele>540.6666666666667</ele><time>2026-04-17T08:03:13.52Z</time></trkpt><trkpt lat="46.2608467" lon="12.4690433"><ele>543.3333333333334</ele><time>2026-04-17T08:03:14.522Z</time></trkpt><trkpt lat="46.2610233" lon="12.46893"><ele>546.0</ele><time>2026-04-17T08:03:15.517Z</time></trkpt><trkpt lat="46.2612117" lon="12.4688183"><ele>546.3333333333334</ele><time>2026-04-17T08:03:16.518Z</time></trkpt><trkpt lat="46.261405" lon="12.4687033"><ele>546.6666666666667</ele><time>2026-04-17T08:03:17.518Z</time></trkpt><trkpt lat="46.2616067" lon="12.4685817"><ele>547.0</ele><time>2026-04-17T08:03:18.519Z</time></trkpt><trkpt lat="46.2618133" lon="12.468455"><ele>547.0</ele><time>2026-04-17T08:03:19.518Z</time></trkpt><trkpt lat="46.2620233" lon="12.4683267"><ele>547.0</ele><time>2026-04-17T08:03:20.518Z</time></trkpt><trkpt lat="46.26224" lon="12.46819"><ele>546.0</ele><time>2026-04-17T08:03:21.518Z</time></trkpt><trkpt lat="46.262465" lon="12.46806"><ele>545.0</ele><time>2026-04-17T08:03:22.518Z</time></trkpt><trkpt lat="46.262695" lon="12.4679217"><ele>545.0</ele><time>2026-04-17T08:03:23.519Z</time></trkpt><trkpt lat="46.2629283" lon="12.4677783"><ele>545.0</ele><time>2026-04-17T08:03:24.518Z</time></trkpt><trkpt lat="46.2631717" lon="12.4676333"><ele>548.0</ele><time>2026-04-17T08:03:25.52Z</time></trkpt><trkpt lat="46.2634217" lon="12.46748"><ele>551.0</ele><time>2026-04-17T08:03:26.52Z</time></trkpt><trkpt lat="46.263675" lon="12.46732"><ele>551.0</ele><time>2026-04-17T08:03:27.517Z</time></trkpt><trkpt lat="46.2639317" lon="12.4671467"><ele>551.0</ele><time>2026-04-17T08:03:28.521Z</time></trkpt><trkpt lat="46.26419" lon="12.46696"><ele>552.0</ele><time>2026-04-17T08:03:29.519Z</time></trkpt><trkpt lat="46.264445" lon="12.46677"><ele>553.0</ele><time>2026-04-17T08:03:30.518Z</time></trkpt><trkpt lat="46.2647067" lon="12.46658"><ele>552.5</ele><time>2026-04-17T08:03:31.518Z</time></trkpt><trkpt lat="46.2649683" lon="12.4663883"><ele>552.0</ele><time>2026-04-17T08:03:32.519Z</time></trkpt><trkpt lat="46.2652317" lon="12.4661967"><ele>552.0</ele><time>2026-04-17T08:03:33.518Z</time></trkpt><trkpt lat="46.2654967" lon="12.4660017"><ele>552.0</ele><time>2026-04-17T08:03:34.521Z</time></trkpt><trkpt lat="46.2657567" lon="12.4657883"><ele>555.0</ele><time>2026-04-17T08:03:35.518Z</time></trkpt><trkpt lat="46.2660067" lon="12.465545"><ele>558.0</ele><time>2026-04-17T08:03:36.518Z</time></trkpt><trkpt lat="46.2662483" lon="12.4652783"><ele>561.5</ele><time>2026-04-17T08:03:37.517Z</time></trkpt><trkpt lat="46.26648" lon="12.4650133"><ele>565.0</ele><time>2026-04-17T08:03:38.519Z</time></trkpt><trkpt lat="46.2667083" lon="12.4647483"><ele>563.5</ele><time>2026-04-17T08:03:39.519Z</time></trkpt><trkpt lat="46.2669283" lon="12.464485"><ele>562.0</ele><time>2026-04-17T08:03:40.518Z</time></trkpt><trkpt lat="46.2671467" lon="12.464225"><ele>566.0</ele><time>2026-04-17T08:03:41.518Z</time></trkpt><trkpt lat="46.2673667" lon="12.4639667"><ele>570.0</ele><time>2026-04-17T08:03:42.518Z</time></trkpt><trkpt lat="46.2675883" lon="12.4637067"><ele>570.0</ele><time>2026-04-17T08:03:43.521Z</time></trkpt><trkpt lat="46.2678083" lon="12.4634433"><ele>570.0</ele><time>2026-04-17T08:03:44.519Z</time></trkpt><trkpt lat="46.26803" lon="12.4631783"><ele>572.5</ele><time>2026-04-17T08:03:45.518Z</time></trkpt><trkpt lat="46.2682517" lon="12.4629133"><ele>575.0</ele><time>2026-04-17T08:03:46.521Z</time></trkpt><trkpt lat="46.2684767" lon="12.4626467"><ele>575.0</ele><time>2026-04-17T08:03:47.52Z</time></trkpt><trkpt lat="46.2687017" lon="12.4623833"><ele>575.0</ele><time>2026-04-17T08:03:48.519Z</time></trkpt><trkpt lat="46.2689283" lon="12.462115"><ele>576.5</ele><time>2026-04-17T08:03:49.518Z</time></trkpt><trkpt lat="46.2691533" lon="12.4618467"><ele>578.0</ele><time>2026-04-17T08:03:50.518Z</time></trkpt><trkpt lat="46.2693767" lon="12.46158"><ele>578.0</ele><time>2026-04-17T08:03:51.518Z</time></trkpt><trkpt lat="46.2696017" lon="12.4613117"><ele>578.0</ele><time>2026-04-17T08:03:52.519Z</time></trkpt><trkpt lat="46.2698283" lon="12.4610467"><ele>581.5</ele><time>2026-04-17T08:03:53.521Z</time></trkpt><trkpt lat="46.2700567" lon="12.4607833"><ele>585.0</ele><time>2026-04-17T08:03:54.518Z</time></trkpt><trkpt lat="46.2702933" lon="12.46054"><ele>585.0</ele><time>2026-04-17T08:03:55.518Z</time></trkpt><trkpt lat="46.27054" lon="12.4603283"><ele>585.0</ele><time>2026-04-17T08:03:56.518Z</time></trkpt><trkpt lat="46.2707983" lon="12.4601433"><ele>587.0</ele><time>2026-04-17T08:03:57.519Z</time></trkpt><trkpt lat="46.2710617" lon="12.4599683"><ele>589.0</ele><time>2026-04-17T08:03:58.518Z</time></trkpt><trkpt lat="46.2713267" lon="12.4597967"><ele>589.0</ele><time>2026-04-17T08:03:59.518Z</time></trkpt><trkpt lat="46.2715917" lon="12.459625"><ele>589.0</ele><time>2026-04-17T08:04:00.518Z</time></trkpt><trkpt lat="46.2718583" lon="12.4594467"><ele>589.0</ele><time>2026-04-17T08:04:01.518Z</time></trkpt><trkpt lat="46.272125" lon="12.459265"><ele>589.0</ele><time>2026-04-17T08:04:02.518Z</time></trkpt><trkpt lat="46.2723933" lon="12.4590817"><ele>591.5</ele><time>2026-04-17T08:04:03.518Z</time></trkpt><trkpt lat="46.2726633" lon="12.4589"><ele>594.0</ele><time>2026-04-17T08:04:04.518Z</time></trkpt><trkpt lat="46.2729333" lon="12.4587233"><ele>595.5</ele><time>2026-04-17T08:04:05.52Z</time></trkpt><trkpt lat="46.273205" lon="12.458545"><ele>597.0</ele><time>2026-04-17T08:04:06.518Z</time></trkpt><trkpt lat="46.2734767" lon="12.45836"><ele>597.0</ele><time>2026-04-17T08:04:07.518Z</time></trkpt><trkpt lat="46.273745" lon="12.4581767"><ele>597.0</ele><time>2026-04-17T08:04:08.519Z</time></trkpt><trkpt lat="46.2740083" lon="12.4579933"><ele>599.5</ele><time>2026-04-17T08:04:09.518Z</time></trkpt><trkpt lat="46.2742667" lon="12.457805"><ele>602.0</ele><time>2026-04-17T08:04:10.518Z</time></trkpt><trkpt lat="46.2745167" lon="12.4575967"><ele>602.0</ele><time>2026-04-17T08:04:11.519Z</time></trkpt><trkpt lat="46.2747583" lon="12.457365"><ele>602.0</ele><time>2026-04-17T08:04:12.518Z</time></trkpt><trkpt lat="46.27499" lon="12.4571233"><ele>603.5</ele><time>2026-04-17T08:04:13.521Z</time></trkpt><trkpt lat="46.27522" lon="12.45687"><ele>605.0</ele><time>2026-04-17T08:04:14.519Z</time></trkpt><trkpt lat="46.2754517" lon="12.4566133"><ele>607.0</ele><time>2026-04-17T08:04:15.518Z</time></trkpt><trkpt lat="46.275685" lon="12.456355"><ele>609.0</ele><time>2026-04-17T08:04:16.517Z</time></trkpt><trkpt lat="46.27592" lon="12.4561"><ele>609.0</ele><time>2026-04-17T08:04:17.518Z</time></trkpt><trkpt lat="46.2761583" lon="12.4558433"><ele>609.0</ele><time>2026-04-17T08:04:18.518Z</time></trkpt><trkpt lat="46.2763933" lon="12.4555833"><ele>611.5</ele><time>2026-04-17T08:04:19.52Z</time></trkpt><trkpt lat="46.2766317" lon="12.45532"><ele>614.0</ele><time>2026-04-17T08:04:20.519Z</time></trkpt><trkpt lat="46.2768717" lon="12.4550583"><ele>614.0</ele><time>2026-04-17T08:04:21.519Z</time></trkpt><trkpt lat="46.2771133" lon="12.4547933"><ele>614.0</ele><time>2026-04-17T08:04:22.52Z</time></trkpt><trkpt lat="46.2773533" lon="12.4545267"><ele>615.0</ele><time>2026-04-17T08:04:23.518Z</time></trkpt><trkpt lat="46.27759" lon="12.4542517"><ele>616.0</ele><time>2026-04-17T08:04:24.518Z</time></trkpt><trkpt lat="46.2778167" lon="12.4539533"><ele>617.0</ele><time>2026-04-17T08:04:25.521Z</time></trkpt><trkpt lat="46.2780183" lon="12.4536183"><ele>618.0</ele><time>2026-04-17T08:04:26.519Z</time></trkpt><trkpt lat="46.2781933" lon="12.45325"><ele>619.5</ele><time>2026-04-17T08:04:27.517Z</time></trkpt><trkpt lat="46.2783483" lon="12.4528567"><ele>621.0</ele><time>2026-04-17T08:04:28.518Z</time></trkpt><trkpt lat="46.278495" lon="12.4524567"><ele>622.0</ele><time>2026-04-17T08:04:29.518Z</time></trkpt><trkpt lat="46.2786383" lon="12.4520617"><ele>623.0</ele><time>2026-04-17T08:04:30.518Z</time></trkpt><trkpt lat="46.27878" lon="12.4516767"><ele>623.0</ele><time>2026-04-17T08:04:31.518Z</time></trkpt><trkpt lat="46.2789167" lon="12.4512983"><ele>623.0</ele><time>2026-04-17T08:04:32.518Z</time></trkpt><trkpt lat="46.2790583" lon="12.4509317"><ele>625.5</ele><time>2026-04-17T08:04:33.519Z</time></trkpt><trkpt lat="46.279215" lon="12.4505867"><ele>628.0</ele><time>2026-04-17T08:04:34.518Z</time></trkpt><trkpt lat="46.2793933" lon="12.45027"><ele>628.5</ele><time>2026-04-17T08:04:35.517Z</time></trkpt><trkpt lat="46.2795967" lon="12.4499883"><ele>629.0</ele><time>2026-04-17T08:04:36.519Z</time></trkpt><trkpt lat="46.27982" lon="12.4497517"><ele>630.0</ele><time>2026-04-17T08:04:37.52Z</time></trkpt><trkpt lat="46.2800583" lon="12.44954"><ele>631.0</ele><time>2026-04-17T08:04:38.518Z</time></trkpt><trkpt lat="46.280305" lon="12.4493383"><ele>631.0</ele><time>2026-04-17T08:04:39.518Z</time></trkpt><trkpt lat="46.280555" lon="12.4491283"><ele>631.0</ele><time>2026-04-17T08:04:40.518Z</time></trkpt><trkpt lat="46.2808067" lon="12.4489183"><ele>632.5</ele><time>2026-04-17T08:04:41.518Z</time></trkpt><trkpt lat="46.2810633" lon="12.4487083"><ele>634.0</ele><time>2026-04-17T08:04:42.517Z</time></trkpt><trkpt lat="46.2813133" lon="12.4484867"><ele>635.5</ele><time>2026-04-17T08:04:43.518Z</time></trkpt><trkpt lat="46.2815683" lon="12.4483"><ele>637.0</ele><time>2026-04-17T08:04:44.519Z</time></trkpt><trkpt lat="46.281825" lon="12.4481817"><ele>637.0</ele><time>2026-04-17T08:04:45.518Z</time></trkpt><trkpt lat="46.2820833" lon="12.4481117"><ele>637.0</ele><time>2026-04-17T08:04:46.519Z</time></trkpt><trkpt lat="46.2822933" lon="12.4479267"><ele>637.3333333333334</ele><time>2026-04-17T08:04:47.518Z</time></trkpt><trkpt lat="46.2825183" lon="12.4478483"><ele>637.6666666666666</ele><time>2026-04-17T08:04:48.517Z</time></trkpt><trkpt lat="46.2827283" lon="12.4477717"><ele>638.0</ele><time>2026-04-17T08:04:49.521Z</time></trkpt><trkpt lat="46.2829267" lon="12.447695"><ele>639.0</ele><time>2026-04-17T08:04:50.52Z</time></trkpt><trkpt lat="46.283115" lon="12.44761"><ele>640.0</ele><time>2026-04-17T08:04:51.518Z</time></trkpt><trkpt lat="46.2832917" lon="12.4475017"><ele>641.0</ele><time>2026-04-17T08:04:52.518Z</time></trkpt><trkpt lat="46.2834633" lon="12.4473633"><ele>641.0</ele><time>2026-04-17T08:04:53.52Z</time></trkpt><trkpt lat="46.28363" lon="12.4471983"><ele>641.0</ele><time>2026-04-17T08:04:54.518Z</time></trkpt><trkpt lat="46.2837917" lon="12.4470133"><ele>641.0</ele><time>2026-04-17T08:04:55.518Z</time></trkpt><trkpt lat="46.2839533" lon="12.446815"><ele>641.6666666666666</ele><time>2026-04-17T08:04:56.52Z</time></trkpt><trkpt lat="46.284115" lon="12.446615"><ele>642.3333333333334</ele><time>2026-04-17T08:04:57.518Z</time></trkpt><trkpt lat="46.2842717" lon="12.44642"><ele>643.0</ele><time>2026-04-17T08:04:58.518Z</time></trkpt><trkpt lat="46.2844167" lon="12.4462383"><ele>643.0</ele><time>2026-04-17T08:04:59.519Z</time></trkpt><trkpt lat="46.2845617" lon="12.4460567"><ele>643.0</ele><time>2026-04-17T08:05:00.519Z</time></trkpt><trkpt lat="46.2847033" lon="12.4458783"><ele>643.0</ele><time>2026-04-17T08:05:01.517Z</time></trkpt><trkpt lat="46.284845" lon="12.4456917"><ele>643.3333333333334</ele><time>2026-04-17T08:05:02.519Z</time></trkpt><trkpt lat="46.2849783" lon="12.4454967"><ele>643.6666666666666</ele><time>2026-04-17T08:05:03.518Z</time></trkpt><trkpt lat="46.2851" lon="12.445285"><ele>644.0</ele><time>2026-04-17T08:05:04.518Z</time></trkpt><trkpt lat="46.2852033" lon="12.445055"><ele>642.6666666666666</ele><time>2026-04-17T08:05:05.517Z</time></trkpt><trkpt lat="46.2852817" lon="12.4448"><ele>641.3333333333334</ele><time>2026-04-17T08:05:06.518Z</time></trkpt><trkpt lat="46.2853483" lon="12.444525"><ele>640.0</ele><time>2026-04-17T08:05:07.519Z</time></trkpt><trkpt lat="46.28541" lon="12.444235"><ele>639.0</ele><time>2026-04-17T08:05:08.518Z</time></trkpt><trkpt lat="46.2854717" lon="12.4439433"><ele>638.0</ele><time>2026-04-17T08:05:09.518Z</time></trkpt><trkpt lat="46.285535" lon="12.443645"><ele>637.0</ele><time>2026-04-17T08:05:10.519Z</time></trkpt><trkpt lat="46.2856" lon="12.4433417"><ele>637.3333333333334</ele><time>2026-04-17T08:05:11.519Z</time></trkpt><trkpt lat="46.2856633" lon="12.4430367"><ele>637.6666666666666</ele><time>2026-04-17T08:05:12.518Z</time></trkpt><trkpt lat="46.285725" lon="12.4427417"><ele>638.0</ele><time>2026-04-17T08:05:13.518Z</time></trkpt><trkpt lat="46.2857817" lon="12.4424633"><ele>638.0</ele><time>2026-04-17T08:05:14.519Z</time></trkpt><trkpt lat="46.2858367" lon="12.4422"><ele>638.0</ele><time>2026-04-17T08:05:15.52Z</time></trkpt><trkpt lat="46.2858883" lon="12.4419467"><ele>638.0</ele><time>2026-04-17T08:05:16.521Z</time></trkpt><trkpt lat="46.285935" lon="12.4417017"><ele>637.3333333333333</ele><time>2026-04-17T08:05:17.518Z</time></trkpt><trkpt lat="46.2859833" lon="12.441455"><ele>636.6666666666666</ele><time>2026-04-17T08:05:18.518Z</time></trkpt><trkpt lat="46.28603" lon="12.4412133"><ele>636.0</ele><time>2026-04-17T08:05:19.519Z</time></trkpt><trkpt lat="46.286075" lon="12.44097"><ele>637.3333333333334</ele><time>2026-04-17T08:05:20.52Z</time></trkpt><trkpt lat="46.2861233" lon="12.4407283"><ele>638.6666666666667</ele><time>2026-04-17T08:05:21.517Z</time></trkpt><trkpt lat="46.2861683" lon="12.4404833"><ele>640.0</ele><time>2026-04-17T08:05:22.518Z</time></trkpt><trkpt lat="46.28621" lon="12.4402433"><ele>640.3333333333334</ele><time>2026-04-17T08:05:23.519Z</time></trkpt><trkpt lat="46.2862517" lon="12.4400167"><ele>640.6666666666666</ele><time>2026-04-17T08:05:24.519Z</time></trkpt><trkpt lat="46.2862917" lon="12.4398017"><ele>641.0</ele><time>2026-04-17T08:05:25.52Z</time></trkpt><trkpt lat="46.28633" lon="12.4395967"><ele>641.5999999999999</ele><time>2026-04-17T08:05:26.519Z</time></trkpt><trkpt lat="46.2863667" lon="12.43941"><ele>642.2</ele><time>2026-04-17T08:05:27.518Z</time></trkpt><trkpt lat="46.2863967" lon="12.4392533"><ele>642.8</ele><time>2026-04-17T08:05:28.519Z</time></trkpt><trkpt lat="46.2864233" lon="12.4391217"><ele>643.4000000000001</ele><time>2026-04-17T08:05:29.517Z</time></trkpt><trkpt lat="46.2864467" lon="12.439"><ele>644.0</ele><time>2026-04-17T08:05:30.518Z</time></trkpt><trkpt lat="46.28647" lon="12.4388767"><ele>645.0</ele><time>2026-04-17T08:05:31.517Z</time></trkpt><trkpt lat="46.2864933" lon="12.43875"><ele>646.0</ele><time>2026-04-17T08:05:32.52Z</time></trkpt><trkpt lat="46.2865233" lon="12.4386033"><ele>647.0</ele><time>2026-04-17T08:05:33.518Z</time></trkpt><trkpt lat="46.2865567" lon="12.4384433"><ele>648.0</ele><time>2026-04-17T08:05:34.518Z</time></trkpt><trkpt lat="46.2865917" lon="12.4382817"><ele>649.0</ele><time>2026-04-17T08:05:35.518Z</time></trkpt><trkpt lat="46.286625" lon="12.4381133"><ele>648.5</ele><time>2026-04-17T08:05:36.518Z</time></trkpt><trkpt lat="46.2866583" lon="12.4379383"><ele>648.0</ele><time>2026-04-17T08:05:37.518Z</time></trkpt><trkpt lat="46.286685" lon="12.4377567"><ele>647.5</ele><time>2026-04-17T08:05:38.518Z</time></trkpt><trkpt lat="46.2867033" lon="12.437575"><ele>647.0</ele><time>2026-04-17T08:05:39.52Z</time></trkpt><trkpt lat="46.286715" lon="12.4373867"><ele>647.0</ele><time>2026-04-17T08:05:40.521Z</time></trkpt><trkpt lat="46.2867183" lon="12.437195"><ele>647.0</ele><time>2026-04-17T08:05:41.518Z</time></trkpt><trkpt lat="46.286715" lon="12.4369933"><ele>647.0</ele><time>2026-04-17T08:05:42.518Z</time></trkpt><trkpt lat="46.2867117" lon="12.43679"><ele>647.0</ele><time>2026-04-17T08:05:43.518Z</time></trkpt><trkpt lat="46.2867067" lon="12.4365867"><ele>646.75</ele><time>2026-04-17T08:05:44.519Z</time></trkpt><trkpt lat="46.286705" lon="12.4363783"><ele>646.5</ele><time>2026-04-17T08:05:45.518Z</time></trkpt><trkpt lat="46.286705" lon="12.4361683"><ele>646.25</ele><time>2026-04-17T08:05:46.517Z</time></trkpt><trkpt lat="46.2867133" lon="12.4359567"><ele>646.0</ele><time>2026-04-17T08:05:47.518Z</time></trkpt><trkpt lat="46.2867283" lon="12.4357433"><ele>646.0</ele><time>2026-04-17T08:05:48.518Z</time></trkpt><trkpt lat="46.28675" lon="12.4355283"><ele>646.0</ele><time>2026-04-17T08:05:49.517Z</time></trkpt><trkpt lat="46.2867733" lon="12.4353167"><ele>646.0</ele><time>2026-04-17T08:05:50.519Z</time></trkpt><trkpt lat="46.2867983" lon="12.4351017"><ele>646.0</ele><time>2026-04-17T08:05:51.517Z</time></trkpt><trkpt lat="46.28682" lon="12.4348833"><ele>646.0</ele><time>2026-04-17T08:05:52.519Z</time></trkpt><trkpt lat="46.2868383" lon="12.434665"><ele>646.0</ele><time>2026-04-17T08:05:53.518Z</time></trkpt><trkpt lat="46.2868583" lon="12.43444"><ele>646.0</ele><time>2026-04-17T08:05:54.518Z</time></trkpt><trkpt lat="46.2868767" lon="12.434215"><ele>646.0</ele><time>2026-04-17T08:05:55.519Z</time></trkpt><trkpt lat="46.2868967" lon="12.433985"><ele>646.0</ele><time>2026-04-17T08:05:56.518Z</time></trkpt><trkpt lat="46.2869167" lon="12.4337517"><ele>646.0</ele><time>2026-04-17T08:05:57.517Z</time></trkpt><trkpt lat="46.286935" lon="12.4335183"><ele>646.0</ele><time>2026-04-17T08:05:58.518Z</time></trkpt><trkpt lat="46.286955" lon="12.4332867"><ele>646.0</ele><time>2026-04-17T08:05:59.519Z</time></trkpt><trkpt lat="46.2869767" lon="12.4330467"><ele>646.0</ele><time>2026-04-17T08:06:00.519Z</time></trkpt><trkpt lat="46.2869967" lon="12.4327983"><ele>646.6666666666667</ele><time>2026-04-17T08:06:01.519Z</time></trkpt><trkpt lat="46.2870217" lon="12.4325367"><ele>647.3333333333334</ele><time>2026-04-17T08:06:02.519Z</time></trkpt><trkpt lat="46.287045" lon="12.4322667"><ele>648.0</ele><time>2026-04-17T08:06:03.517Z</time></trkpt><trkpt lat="46.2870767" lon="12.4319867"><ele>650.3333333333334</ele><time>2026-04-17T08:06:04.518Z</time></trkpt><trkpt lat="46.2871183" lon="12.4317017"><ele>652.6666666666667</ele><time>2026-04-17T08:06:05.519Z</time></trkpt><trkpt lat="46.28718" lon="12.4314"><ele>655.0</ele><time>2026-04-17T08:06:06.518Z</time></trkpt><trkpt lat="46.2872683" lon="12.4311017"><ele>658.6666666666667</ele><time>2026-04-17T08:06:07.518Z</time></trkpt><trkpt lat="46.287375" lon="12.4308233"><ele>662.3333333333334</ele><time>2026-04-17T08:06:08.518Z</time></trkpt><trkpt lat="46.287505" lon="12.4305933"><ele>666.0</ele><time>2026-04-17T08:06:09.518Z</time></trkpt><trkpt lat="46.287635" lon="12.4304083"><ele>668.3333333333334</ele><time>2026-04-17T08:06:10.522Z</time></trkpt><trkpt lat="46.287755" lon="12.4302167"><ele>670.6666666666667</ele><time>2026-04-17T08:06:11.518Z</time></trkpt><trkpt lat="46.2878517" lon="12.4299817"><ele>673.0</ele><time>2026-04-17T08:06:12.518Z</time></trkpt><trkpt lat="46.28792" lon="12.4296933"><ele>681.0</ele><time>2026-04-17T08:06:13.519Z</time></trkpt><trkpt lat="46.2879467" lon="12.4293567"><ele>689.0</ele><time>2026-04-17T08:06:14.518Z</time></trkpt><trkpt lat="46.287925" lon="12.42901"><ele>693.3333333333333</ele><time>2026-04-17T08:06:15.519Z</time></trkpt><trkpt lat="46.2878633" lon="12.4286833"><ele>697.6666666666666</ele><time>2026-04-17T08:06:16.518Z</time></trkpt><trkpt lat="46.2877933" lon="12.4284083"><ele>702.0</ele><time>2026-04-17T08:06:17.519Z</time></trkpt><trkpt lat="46.287725" lon="12.4281983"><ele>702.0</ele><time>2026-04-17T08:06:18.518Z</time></trkpt><trkpt lat="46.2876617" lon="12.42805"><ele>702.0</ele><time>2026-04-17T08:06:19.518Z</time></trkpt><trkpt lat="46.2875867" lon="12.4279667"><ele>702.0</ele><time>2026-04-17T08:06:20.519Z</time></trkpt><trkpt lat="46.2875117" lon="12.42796"><ele>702.0</ele><time>2026-04-17T08:06:21.518Z</time></trkpt><trkpt lat="46.2874333" lon="12.4280483"><ele>702.0</ele><time>2026-04-17T08:06:22.518Z</time></trkpt><trkpt lat="46.2873483" lon="12.4282117"><ele>702.0</ele><time>2026-04-17T08:06:23.519Z</time></trkpt><trkpt lat="46.2872617" lon="12.4284633"><ele>702.0</ele><time>2026-04-17T08:06:24.519Z</time></trkpt><trkpt lat="46.2871967" lon="12.4286883"><ele>702.0</ele><time>2026-04-17T08:06:25.518Z</time></trkpt><trkpt lat="46.2871483" lon="12.42887"><ele>707.6</ele><time>2026-04-17T08:06:26.519Z</time></trkpt><trkpt lat="46.287095" lon="12.4289817"><ele>713.2</ele><time>2026-04-17T08:06:27.519Z</time></trkpt><trkpt lat="46.2870383" lon="12.429045"><ele>718.8</ele><time>2026-04-17T08:06:28.521Z</time></trkpt><trkpt lat="46.2870183" lon="12.4288917"><ele>724.4</ele><time>2026-04-17T08:06:30.518Z</time></trkpt><trkpt lat="46.2870683" lon="12.4287283"><ele>730.0</ele><time>2026-04-17T08:06:31.519Z</time></trkpt><trkpt lat="46.2871367" lon="12.4285117"><ele>734.0</ele><time>2026-04-17T08:06:32.518Z</time></trkpt><trkpt lat="46.2871983" lon="12.428235"><ele>738.0</ele><time>2026-04-17T08:06:33.517Z</time></trkpt><trkpt lat="46.2872283" lon="12.4279067"><ele>742.0</ele><time>2026-04-17T08:06:34.519Z</time></trkpt><trkpt lat="46.2872233" lon="12.4275483"><ele>742.5</ele><time>2026-04-17T08:06:35.52Z</time></trkpt><trkpt lat="46.28718" lon="12.4271883"><ele>743.0</ele><time>2026-04-17T08:06:36.518Z</time></trkpt><trkpt lat="46.2871017" lon="12.4268583"><ele>742.3333333333333</ele><time>2026-04-17T08:06:37.518Z</time></trkpt><trkpt lat="46.2870117" lon="12.4265817"><ele>741.6666666666666</ele><time>2026-04-17T08:06:38.519Z</time></trkpt><trkpt lat="46.2869367" lon="12.4263383"><ele>741.0</ele><time>2026-04-17T08:06:39.518Z</time></trkpt><trkpt lat="46.2869033" lon="12.4261033"><ele>741.0</ele><time>2026-04-17T08:06:40.518Z</time></trkpt><trkpt lat="46.28691" lon="12.4258683"><ele>741.0</ele><time>2026-04-17T08:06:41.519Z</time></trkpt><trkpt lat="46.286945" lon="12.4256183"><ele>741.0</ele><time>2026-04-17T08:06:42.518Z</time></trkpt><trkpt lat="46.2869883" lon="12.4253367"><ele>743.0</ele><time>2026-04-17T08:06:43.521Z</time></trkpt><trkpt lat="46.28701" lon="12.4250433"><ele>745.0</ele><time>2026-04-17T08:06:44.52Z</time></trkpt><trkpt lat="46.2870017" lon="12.4247533"><ele>747.0</ele><time>2026-04-17T08:06:45.518Z</time></trkpt><trkpt lat="46.2869917" lon="12.4245167"><ele>747.2</ele><time>2026-04-17T08:06:46.518Z</time></trkpt><trkpt lat="46.2870033" lon="12.4243167"><ele>747.4000000000001</ele><time>2026-04-17T08:06:47.518Z</time></trkpt><trkpt lat="46.2870467" lon="12.424165"><ele>747.5999999999999</ele><time>2026-04-17T08:06:48.518Z</time></trkpt><trkpt lat="46.2871133" lon="12.4240817"><ele>747.8</ele><time>2026-04-17T08:06:49.519Z</time></trkpt><trkpt lat="46.287195" lon="12.4241017"><ele>748.0</ele><time>2026-04-17T08:06:50.52Z</time></trkpt><trkpt lat="46.2872633" lon="12.424215"><ele>748.0</ele><time>2026-04-17T08:06:51.518Z</time></trkpt><trkpt lat="46.2873117" lon="12.4243983"><ele>748.0</ele><time>2026-04-17T08:06:52.518Z</time></trkpt><trkpt lat="46.2873617" lon="12.42458"><ele>748.0</ele><time>2026-04-17T08:06:53.518Z</time></trkpt><trkpt lat="46.2874183" lon="12.4247183"><ele>748.0</ele><time>2026-04-17T08:06:54.518Z</time></trkpt><trkpt lat="46.287495" lon="12.42477"><ele>748.0</ele><time>2026-04-17T08:06:55.518Z</time></trkpt><trkpt lat="46.28757" lon="12.4247783"><ele>748.0</ele><time>2026-04-17T08:06:56.52Z</time></trkpt><trkpt lat="46.287595" lon="12.42465"><ele>748.0</ele><time>2026-04-17T08:06:57.517Z</time></trkpt><trkpt lat="46.28755" lon="12.424445"><ele>748.0</ele><time>2026-04-17T08:06:58.518Z</time></trkpt><trkpt lat="46.28747" lon="12.42422"><ele>748.0</ele><time>2026-04-17T08:06:59.519Z</time></trkpt><trkpt lat="46.2873483" lon="12.4239533"><ele>748.0</ele><time>2026-04-17T08:07:00.518Z</time></trkpt><trkpt lat="46.287225" lon="12.42367"><ele>748.5</ele><time>2026-04-17T08:07:01.518Z</time></trkpt><trkpt lat="46.2871217" lon="12.4233517"><ele>749.0</ele><time>2026-04-17T08:07:02.519Z</time></trkpt><trkpt lat="46.2870333" lon="12.422985"><ele>753.0</ele><time>2026-04-17T08:07:03.518Z</time></trkpt><trkpt lat="46.2869583" lon="12.42262"><ele>757.0</ele><time>2026-04-17T08:07:04.518Z</time></trkpt><trkpt lat="46.2869083" lon="12.422265"><ele>762.0</ele><time>2026-04-17T08:07:05.521Z</time></trkpt><trkpt lat="46.286895" lon="12.42191"><ele>767.0</ele><time>2026-04-17T08:07:06.518Z</time></trkpt><trkpt lat="46.2868933" lon="12.4215633"><ele>769.6666666666666</ele><time>2026-04-17T08:07:07.52Z</time></trkpt><trkpt lat="46.2868917" lon="12.4212533"><ele>772.3333333333333</ele><time>2026-04-17T08:07:08.52Z</time></trkpt><trkpt lat="46.2868683" lon="12.42096"><ele>775.0</ele><time>2026-04-17T08:07:09.52Z</time></trkpt><trkpt lat="46.2868033" lon="12.4206817"><ele>779.0</ele><time>2026-04-17T08:07:10.521Z</time></trkpt><trkpt lat="46.2867083" lon="12.4204183"><ele>783.0</ele><time>2026-04-17T08:07:11.52Z</time></trkpt><trkpt lat="46.2866317" lon="12.420145"><ele>787.0</ele><time>2026-04-17T08:07:12.519Z</time></trkpt><trkpt lat="46.286585" lon="12.4198783"><ele>787.3333333333333</ele><time>2026-04-17T08:07:13.52Z</time></trkpt><trkpt lat="46.28653" lon="12.4196383"><ele>787.6666666666667</ele><time>2026-04-17T08:07:14.52Z</time></trkpt><trkpt lat="46.2864417" lon="12.4194417"><ele>788.0</ele><time>2026-04-17T08:07:15.52Z</time></trkpt><trkpt lat="46.2863267" lon="12.4192633"><ele>788.0</ele><time>2026-04-17T08:07:16.524Z</time></trkpt><trkpt lat="46.28622" lon="12.419085"><ele>788.0</ele><time>2026-04-17T08:07:17.521Z</time></trkpt><trkpt lat="46.2861667" lon="12.4188967"><ele>788.0</ele><time>2026-04-17T08:07:18.519Z</time></trkpt><trkpt lat="46.2861633" lon="12.4186983"><ele>788.0</ele><time>2026-04-17T08:07:19.52Z</time></trkpt><trkpt lat="46.2861967" lon="12.41847"><ele>790.3333333333334</ele><time>2026-04-17T08:07:20.526Z</time></trkpt><trkpt lat="46.28625" lon="12.4182067"><ele>792.6666666666667</ele><time>2026-04-17T08:07:21.519Z</time></trkpt><trkpt lat="46.286315" lon="12.417905"><ele>795.0</ele><time>2026-04-17T08:07:22.52Z</time></trkpt><trkpt lat="46.2863833" lon="12.417605"><ele>797.0</ele><time>2026-04-17T08:07:23.521Z</time></trkpt><trkpt lat="46.2864367" lon="12.417325"><ele>799.0</ele><time>2026-04-17T08:07:24.519Z</time></trkpt><trkpt lat="46.28646" lon="12.4170283"><ele>801.0</ele><time>2026-04-17T08:07:25.52Z</time></trkpt><trkpt lat="46.2864567" lon="12.4167183"><ele>801.6666666666667</ele><time>2026-04-17T08:07:26.52Z</time></trkpt><trkpt lat="46.2864633" lon="12.4163967"><ele>802.3333333333334</ele><time>2026-04-17T08:07:27.519Z</time></trkpt><trkpt lat="46.2864733" lon="12.41608"><ele>803.0</ele><time>2026-04-17T08:07:28.518Z</time></trkpt><trkpt lat="46.28647" lon="12.4157867"><ele>803.0</ele><time>2026-04-17T08:07:29.521Z</time></trkpt><trkpt lat="46.286455" lon="12.415545"><ele>803.0</ele><time>2026-04-17T08:07:30.52Z</time></trkpt><trkpt lat="46.2864367" lon="12.4153533"><ele>803.0</ele><time>2026-04-17T08:07:31.52Z</time></trkpt><trkpt lat="46.2864233" lon="12.4152133"><ele>803.0</ele><time>2026-04-17T08:07:32.52Z</time></trkpt><trkpt lat="46.2864117" lon="12.4151033"><ele>802.4</ele><time>2026-04-17T08:07:33.52Z</time></trkpt><trkpt lat="46.286395" lon="12.414935"><ele>801.8</ele><time>2026-04-17T08:07:35.52Z</time></trkpt><trkpt lat="46.2863633" lon="12.4147717"><ele>801.2</ele><time>2026-04-17T08:07:37.52Z</time></trkpt><trkpt lat="46.2863433" lon="12.41466"><ele>800.6</ele><time>2026-04-17T08:07:38.521Z</time></trkpt><trkpt lat="46.2863183" lon="12.4145267"><ele>800.0</ele><time>2026-04-17T08:07:39.518Z</time></trkpt><trkpt lat="46.2862883" lon="12.4143733"><ele>800.0</ele><time>2026-04-17T08:07:40.522Z</time></trkpt><trkpt lat="46.2862583" lon="12.414205"><ele>800.0</ele><time>2026-04-17T08:07:41.521Z</time></trkpt><trkpt lat="46.2862333" lon="12.4140333"><ele>800.0</ele><time>2026-04-17T08:07:42.519Z</time></trkpt><trkpt lat="46.2862167" lon="12.4138533"><ele>800.0</ele><time>2026-04-17T08:07:43.52Z</time></trkpt><trkpt lat="46.2862067" lon="12.41367"><ele>799.5</ele><time>2026-04-17T08:07:44.521Z</time></trkpt><trkpt lat="46.286205" lon="12.41349"><ele>799.0</ele><time>2026-04-17T08:07:45.518Z</time></trkpt><trkpt lat="46.2862083" lon="12.4133183"><ele>798.5</ele><time>2026-04-17T08:07:46.519Z</time></trkpt><trkpt lat="46.2862133" lon="12.4131517"><ele>798.0</ele><time>2026-04-17T08:07:47.52Z</time></trkpt><trkpt lat="46.2862133" lon="12.4129967"><ele>800.25</ele><time>2026-04-17T08:07:48.52Z</time></trkpt><trkpt lat="46.2861967" lon="12.4128417"><ele>802.5</ele><time>2026-04-17T08:07:49.52Z</time></trkpt><trkpt lat="46.2861567" lon="12.4126667"><ele>804.75</ele><time>2026-04-17T08:07:50.52Z</time></trkpt><trkpt lat="46.2861" lon="12.41246"><ele>807.0</ele><time>2026-04-17T08:07:51.519Z</time></trkpt><trkpt lat="46.2860233" lon="12.4122333"><ele>810.6666666666667</ele><time>2026-04-17T08:07:52.52Z</time></trkpt><trkpt lat="46.2859433" lon="12.4119833"><ele>814.3333333333334</ele><time>2026-04-17T08:07:53.521Z</time></trkpt><trkpt lat="46.285865" lon="12.4117167"><ele>818.0</ele><time>2026-04-17T08:07:54.519Z</time></trkpt><trkpt lat="46.2858017" lon="12.4114267"><ele>819.3333333333334</ele><time>2026-04-17T08:07:55.523Z</time></trkpt><trkpt lat="46.2857367" lon="12.4111283"><ele>820.6666666666667</ele><time>2026-04-17T08:07:56.52Z</time></trkpt><trkpt lat="46.285675" lon="12.410835"><ele>822.0</ele><time>2026-04-17T08:07:57.519Z</time></trkpt><trkpt lat="46.2856183" lon="12.4105683"><ele>830.0</ele><time>2026-04-17T08:07:58.52Z</time></trkpt><trkpt lat="46.285565" lon="12.410325"><ele>838.0</ele><time>2026-04-17T08:07:59.52Z</time></trkpt><trkpt lat="46.285515" lon="12.41011"><ele>846.0</ele><time>2026-04-17T08:08:00.519Z</time></trkpt><trkpt lat="46.28548" lon="12.4099333"><ele>846.0</ele><time>2026-04-17T08:08:01.521Z</time></trkpt><trkpt lat="46.2854533" lon="12.4098"><ele>846.0</ele><time>2026-04-17T08:08:02.52Z</time></trkpt><trkpt lat="46.2854367" lon="12.409685"><ele>846.0</ele><time>2026-04-17T08:08:03.519Z</time></trkpt><trkpt lat="46.2854283" lon="12.4095317"><ele>846.0</ele><time>2026-04-17T08:08:05.52Z</time></trkpt><trkpt lat="46.2854233" lon="12.4093783"><ele>846.0</ele><time>2026-04-17T08:08:07.521Z</time></trkpt><trkpt lat="46.28542" lon="12.4092833"><ele>846.3333333333334</ele><time>2026-04-17T08:08:08.519Z</time></trkpt><trkpt lat="46.28542" lon="12.40918"><ele>846.6666666666667</ele><time>2026-04-17T08:08:09.519Z</time></trkpt><trkpt lat="46.2854233" lon="12.4090833"><ele>847.0</ele><time>2026-04-17T08:08:10.519Z</time></trkpt><trkpt lat="46.2854283" lon="12.4089233"><ele>847.3333333333334</ele><time>2026-04-17T08:08:12.52Z</time></trkpt><trkpt lat="46.28543" lon="12.4088067"><ele>847.6666666666667</ele><time>2026-04-17T08:08:14.521Z</time></trkpt><trkpt lat="46.285435" lon="12.408685"><ele>848.0</ele><time>2026-04-17T08:08:16.52Z</time></trkpt><trkpt lat="46.2854467" lon="12.408515"><ele>848.0</ele><time>2026-04-17T08:08:18.522Z</time></trkpt><trkpt lat="46.2854633" lon="12.4084267"><ele>848.0</ele><time>2026-04-17T08:08:19.52Z</time></trkpt><trkpt lat="46.2854967" lon="12.4082583"><ele>848.0</ele><time>2026-04-17T08:08:21.52Z</time></trkpt><trkpt lat="46.285555" lon="12.4081017"><ele>848.0</ele><time>2026-04-17T08:08:23.52Z</time></trkpt><trkpt lat="46.2856317" lon="12.4079567"><ele>848.0</ele><time>2026-04-17T08:08:25.52Z</time></trkpt><trkpt lat="46.2856717" lon="12.4078817"><ele>844.2857142857143</ele><time>2026-04-17T08:08:26.521Z</time></trkpt><trkpt lat="46.2857167" lon="12.4078017"><ele>840.5714285714286</ele><time>2026-04-17T08:08:27.52Z</time></trkpt><trkpt lat="46.2857667" lon="12.4077117"><ele>836.8571428571429</ele><time>2026-04-17T08:08:28.52Z</time></trkpt><trkpt lat="46.2858133" lon="12.407625"><ele>833.1428571428571</ele><time>2026-04-17T08:08:29.521Z</time></trkpt><trkpt lat="46.2858583" lon="12.407545"><ele>829.4285714285713</ele><time>2026-04-17T08:08:30.52Z</time></trkpt><trkpt lat="46.2859067" lon="12.4074667"><ele>825.7142857142857</ele><time>2026-04-17T08:08:31.52Z</time></trkpt><trkpt lat="46.2859567" lon="12.407385"><ele>822.0</ele><time>2026-04-17T08:08:32.52Z</time></trkpt><trkpt lat="46.2860033" lon="12.40729"><ele>822.0</ele><time>2026-04-17T08:08:33.52Z</time></trkpt><trkpt lat="46.28608" lon="12.40723"><ele>822.0</ele><time>2026-04-17T08:08:34.52Z</time></trkpt><trkpt lat="46.2861433" lon="12.4071417"><ele>822.0</ele><time>2026-04-17T08:08:35.522Z</time></trkpt><trkpt lat="46.2862233" lon="12.407105"><ele>822.0</ele><time>2026-04-17T08:08:36.519Z</time></trkpt><trkpt lat="46.286305" lon="12.4070917"><ele>822.0</ele><time>2026-04-17T08:08:37.52Z</time></trkpt><trkpt lat="46.28638" lon="12.40708"><ele>822.0</ele><time>2026-04-17T08:08:38.521Z</time></trkpt><trkpt lat="46.2864583" lon="12.407075"><ele>821.0</ele><time>2026-04-17T08:08:39.52Z</time></trkpt><trkpt lat="46.2865383" lon="12.4070817"><ele>820.0</ele><time>2026-04-17T08:08:40.52Z</time></trkpt><trkpt lat="46.2866117" lon="12.4071033"><ele>819.0</ele><time>2026-04-17T08:08:41.521Z</time></trkpt><trkpt lat="46.28668" lon="12.4071433"><ele>818.0</ele><time>2026-04-17T08:08:42.519Z</time></trkpt><trkpt lat="46.2867467" lon="12.40718"><ele>817.0</ele><time>2026-04-17T08:08:43.52Z</time></trkpt><trkpt lat="46.2868167" lon="12.40721"><ele>816.0</ele><time>2026-04-17T08:08:44.521Z</time></trkpt><trkpt lat="46.2868833" lon="12.4072217"><ele>815.0</ele><time>2026-04-17T08:08:45.52Z</time></trkpt><trkpt lat="46.2869933" lon="12.407155"><ele>815.0</ele><time>2026-04-17T08:08:47.52Z</time></trkpt><trkpt lat="46.2870233" lon="12.4070467"><ele>815.0</ele><time>2026-04-17T08:08:48.52Z</time></trkpt><trkpt lat="46.2870083" lon="12.4069083"><ele>815.0</ele><time>2026-04-17T08:08:49.52Z</time></trkpt><trkpt lat="46.286945" lon="12.4067833"><ele>815.0</ele><time>2026-04-17T08:08:50.519Z</time></trkpt><trkpt lat="46.2868317" lon="12.40667"><ele>815.0</ele><time>2026-04-17T08:08:51.522Z</time></trkpt><trkpt lat="46.28667" lon="12.4065467"><ele>815.0</ele><time>2026-04-17T08:08:52.52Z</time></trkpt><trkpt lat="46.2864483" lon="12.4063633"><ele>815.0</ele><time>2026-04-17T08:08:53.52Z</time></trkpt><trkpt lat="46.2862033" lon="12.4061517"><ele>815.0</ele><time>2026-04-17T08:08:54.518Z</time></trkpt><trkpt lat="46.2859817" lon="12.4059167"><ele>815.0</ele><time>2026-04-17T08:08:55.52Z</time></trkpt><trkpt lat="46.2857767" lon="12.4056383"><ele>813.0</ele><time>2026-04-17T08:08:56.52Z</time></trkpt><trkpt lat="46.2855883" lon="12.4053183"><ele>811.0</ele><time>2026-04-17T08:08:57.52Z</time></trkpt><trkpt lat="46.2854133" lon="12.4049917"><ele>811.0</ele><time>2026-04-17T08:08:58.519Z</time></trkpt><trkpt lat="46.2852617" lon="12.40468"><ele>811.0</ele><time>2026-04-17T08:08:59.52Z</time></trkpt><trkpt lat="46.2851317" lon="12.40437"><ele>810.5</ele><time>2026-04-17T08:09:00.52Z</time></trkpt><trkpt lat="46.2850267" lon="12.4040467"><ele>810.0</ele><time>2026-04-17T08:09:01.52Z</time></trkpt><trkpt lat="46.2849333" lon="12.4037083"><ele>811.0</ele><time>2026-04-17T08:09:02.52Z</time></trkpt><trkpt lat="46.28485" lon="12.403375"><ele>812.0</ele><time>2026-04-17T08:09:03.52Z</time></trkpt><trkpt lat="46.2847733" lon="12.4030583"><ele>813.3333333333334</ele><time>2026-04-17T08:09:04.522Z</time></trkpt><trkpt lat="46.2847" lon="12.4027567"><ele>814.6666666666667</ele><time>2026-04-17T08:09:05.52Z</time></trkpt><trkpt lat="46.2846333" lon="12.4024567"><ele>816.0</ele><time>2026-04-17T08:09:06.519Z</time></trkpt><trkpt lat="46.284585" lon="12.4021433"><ele>816.0</ele><time>2026-04-17T08:09:07.52Z</time></trkpt><trkpt lat="46.2845483" lon="12.4018383"><ele>816.0</ele><time>2026-04-17T08:09:08.52Z</time></trkpt><trkpt lat="46.28452" lon="12.4015633"><ele>816.0</ele><time>2026-04-17T08:09:09.519Z</time></trkpt><trkpt lat="46.2844767" lon="12.401315"><ele>814.0</ele><time>2026-04-17T08:09:10.52Z</time></trkpt><trkpt lat="46.2844033" lon="12.4010817"><ele>812.0</ele><time>2026-04-17T08:09:11.52Z</time></trkpt><trkpt lat="46.284295" lon="12.4008667"><ele>810.0</ele><time>2026-04-17T08:09:12.519Z</time></trkpt><trkpt lat="46.2841517" lon="12.4006633"><ele>808.6666666666667</ele><time>2026-04-17T08:09:13.52Z</time></trkpt><trkpt lat="46.283985" lon="12.4004583"><ele>807.3333333333334</ele><time>2026-04-17T08:09:14.52Z</time></trkpt><trkpt lat="46.2838117" lon="12.4002433"><ele>806.0</ele><time>2026-04-17T08:09:15.522Z</time></trkpt><trkpt lat="46.2836367" lon="12.4000033"><ele>806.0</ele><time>2026-04-17T08:09:16.52Z</time></trkpt><trkpt lat="46.28346" lon="12.3997467"><ele>806.0</ele><time>2026-04-17T08:09:17.52Z</time></trkpt><trkpt lat="46.2832717" lon="12.3994883"><ele>802.0</ele><time>2026-04-17T08:09:18.519Z</time></trkpt><trkpt lat="46.2830733" lon="12.3992217"><ele>798.0</ele><time>2026-04-17T08:09:19.521Z</time></trkpt><trkpt lat="46.2828633" lon="12.39895"><ele>794.0</ele><time>2026-04-17T08:09:20.522Z</time></trkpt><trkpt lat="46.2826433" lon="12.3986717"><ele>790.0</ele><time>2026-04-17T08:09:21.519Z</time></trkpt><trkpt lat="46.2824233" lon="12.3983917"><ele>789.0</ele><time>2026-04-17T08:09:22.518Z</time></trkpt><trkpt lat="46.2822133" lon="12.3981333"><ele>788.0</ele><time>2026-04-17T08:09:23.519Z</time></trkpt><trkpt lat="46.2820183" lon="12.3979017"><ele>788.0</ele><time>2026-04-17T08:09:24.519Z</time></trkpt><trkpt lat="46.2818517" lon="12.3976917"><ele>788.0</ele><time>2026-04-17T08:09:25.521Z</time></trkpt><trkpt lat="46.281715" lon="12.3974767"><ele>788.0</ele><time>2026-04-17T08:09:26.522Z</time></trkpt><trkpt lat="46.2815983" lon="12.397235"><ele>786.0</ele><time>2026-04-17T08:09:27.519Z</time></trkpt><trkpt lat="46.28149" lon="12.39695"><ele>784.0</ele><time>2026-04-17T08:09:28.52Z</time></trkpt><trkpt lat="46.28138" lon="12.3966267"><ele>779.0</ele><time>2026-04-17T08:09:29.518Z</time></trkpt><trkpt lat="46.2812583" lon="12.3962833"><ele>774.0</ele><time>2026-04-17T08:09:30.52Z</time></trkpt><trkpt lat="46.28113" lon="12.3959367"><ele>774.0</ele><time>2026-04-17T08:09:31.52Z</time></trkpt><trkpt lat="46.2809967" lon="12.395585"><ele>774.0</ele><time>2026-04-17T08:09:32.52Z</time></trkpt><trkpt lat="46.28085" lon="12.3952383"><ele>773.5</ele><time>2026-04-17T08:09:33.52Z</time></trkpt><trkpt lat="46.2806917" lon="12.3949"><ele>773.0</ele><time>2026-04-17T08:09:34.519Z</time></trkpt><trkpt lat="46.2805083" lon="12.3945733"><ele>773.0</ele><time>2026-04-17T08:09:35.52Z</time></trkpt><trkpt lat="46.2803117" lon="12.394255"><ele>773.0</ele><time>2026-04-17T08:09:36.519Z</time></trkpt><trkpt lat="46.2801133" lon="12.393955"><ele>764.5</ele><time>2026-04-17T08:09:37.52Z</time></trkpt><trkpt lat="46.27992" lon="12.393675"><ele>756.0</ele><time>2026-04-17T08:09:38.52Z</time></trkpt><trkpt lat="46.2797467" lon="12.393415"><ele>756.0</ele><time>2026-04-17T08:09:39.519Z</time></trkpt><trkpt lat="46.2795967" lon="12.3931667"><ele>756.0</ele><time>2026-04-17T08:09:40.519Z</time></trkpt><trkpt lat="46.2794817" lon="12.3929033"><ele>756.0</ele><time>2026-04-17T08:09:41.519Z</time></trkpt><trkpt lat="46.27939" lon="12.3926067"><ele>759.0</ele><time>2026-04-17T08:09:42.52Z</time></trkpt><trkpt lat="46.2793133" lon="12.3922967"><ele>762.0</ele><time>2026-04-17T08:09:43.522Z</time></trkpt><trkpt lat="46.2792267" lon="12.3920017"><ele>765.0</ele><time>2026-04-17T08:09:44.521Z</time></trkpt><trkpt lat="46.279105" lon="12.3917167"><ele>761.5</ele><time>2026-04-17T08:09:45.519Z</time></trkpt><trkpt lat="46.2789583" lon="12.3914333"><ele>758.0</ele><time>2026-04-17T08:09:46.519Z</time></trkpt><trkpt lat="46.278805" lon="12.3911667"><ele>758.0</ele><time>2026-04-17T08:09:47.52Z</time></trkpt><trkpt lat="46.2786617" lon="12.39092"><ele>758.0</ele><time>2026-04-17T08:09:48.519Z</time></trkpt><trkpt lat="46.2785217" lon="12.3907083"><ele>758.0</ele><time>2026-04-17T08:09:49.519Z</time></trkpt><trkpt lat="46.2783733" lon="12.390535"><ele>752.6666666666666</ele><time>2026-04-17T08:09:50.521Z</time></trkpt><trkpt lat="46.2782083" lon="12.39039"><ele>747.3333333333334</ele><time>2026-04-17T08:09:51.519Z</time></trkpt><trkpt lat="46.2780417" lon="12.3902767"><ele>742.0</ele><time>2026-04-17T08:09:52.52Z</time></trkpt><trkpt lat="46.277895" lon="12.390185"><ele>742.0</ele><time>2026-04-17T08:09:53.52Z</time></trkpt><trkpt lat="46.2777833" lon="12.3900883"><ele>742.0</ele><time>2026-04-17T08:09:54.518Z</time></trkpt><trkpt lat="46.2777" lon="12.3899767"><ele>742.0</ele><time>2026-04-17T08:09:55.521Z</time></trkpt><trkpt lat="46.2776533" lon="12.3898217"><ele>742.0</ele><time>2026-04-17T08:09:56.52Z</time></trkpt><trkpt lat="46.277625" lon="12.3896367"><ele>748.3333333333334</ele><time>2026-04-17T08:09:57.519Z</time></trkpt><trkpt lat="46.2775867" lon="12.38944"><ele>754.6666666666666</ele><time>2026-04-17T08:09:58.522Z</time></trkpt><trkpt lat="46.2775317" lon="12.389235"><ele>761.0</ele><time>2026-04-17T08:09:59.52Z</time></trkpt><trkpt lat="46.27747" lon="12.3890183"><ele>763.3333333333333</ele><time>2026-04-17T08:10:00.519Z</time></trkpt><trkpt lat="46.27743" lon="12.3887917"><ele>765.6666666666666</ele><time>2026-04-17T08:10:01.523Z</time></trkpt><trkpt lat="46.2774133" lon="12.38856"><ele>768.0</ele><time>2026-04-17T08:10:02.519Z</time></trkpt><trkpt lat="46.277405" lon="12.3883167"><ele>768.0</ele><time>2026-04-17T08:10:03.519Z</time></trkpt><trkpt lat="46.2773833" lon="12.3880567"><ele>768.0</ele><time>2026-04-17T08:10:04.519Z</time></trkpt><trkpt lat="46.277365" lon="12.3877817"><ele>768.0</ele><time>2026-04-17T08:10:05.519Z</time></trkpt><trkpt lat="46.277365" lon="12.38749"><ele>768.6666666666667</ele><time>2026-04-17T08:10:06.52Z</time></trkpt><trkpt lat="46.2773733" lon="12.3871983"><ele>769.3333333333334</ele><time>2026-04-17T08:10:07.521Z</time></trkpt><trkpt lat="46.2773683" lon="12.3869267"><ele>770.0</ele><time>2026-04-17T08:10:08.521Z</time></trkpt><trkpt lat="46.2773417" lon="12.386685"><ele>771.3333333333334</ele><time>2026-04-17T08:10:09.519Z</time></trkpt><trkpt lat="46.2772783" lon="12.3864583"><ele>772.6666666666667</ele><time>2026-04-17T08:10:10.517Z</time></trkpt><trkpt lat="46.2771883" lon="12.386225"><ele>774.0</ele><time>2026-04-17T08:10:11.519Z</time></trkpt><trkpt lat="46.2771" lon="12.3859883"><ele>764.0</ele><time>2026-04-17T08:10:12.519Z</time></trkpt><trkpt lat="46.277035" lon="12.3857333"><ele>754.0</ele><time>2026-04-17T08:10:13.52Z</time></trkpt><trkpt lat="46.2769917" lon="12.38547"><ele>744.0</ele><time>2026-04-17T08:10:14.521Z</time></trkpt><trkpt lat="46.2769533" lon="12.3852083"><ele>744.0</ele><time>2026-04-17T08:10:15.518Z</time></trkpt><trkpt lat="46.2768983" lon="12.3849617"><ele>744.0</ele><time>2026-04-17T08:10:16.519Z</time></trkpt><trkpt lat="46.2768383" lon="12.38473"><ele>744.0</ele><time>2026-04-17T08:10:17.517Z</time></trkpt><trkpt lat="46.27679" lon="12.3845217"><ele>745.0</ele><time>2026-04-17T08:10:18.517Z</time></trkpt><trkpt lat="46.2767717" lon="12.3843367"><ele>746.0</ele><time>2026-04-17T08:10:19.518Z</time></trkpt><trkpt lat="46.276795" lon="12.3841733"><ele>747.0</ele><time>2026-04-17T08:10:20.52Z</time></trkpt><trkpt lat="46.27685" lon="12.3840117"><ele>748.0</ele><time>2026-04-17T08:10:21.517Z</time></trkpt><trkpt lat="46.2769217" lon="12.3838417"><ele>744.0</ele><time>2026-04-17T08:10:22.517Z</time></trkpt><trkpt lat="46.277005" lon="12.3836617"><ele>740.0</ele><time>2026-04-17T08:10:23.517Z</time></trkpt><trkpt lat="46.2770917" lon="12.383475"><ele>736.0</ele><time>2026-04-17T08:10:24.518Z</time></trkpt><trkpt lat="46.2771767" lon="12.383295"><ele>736.0</ele><time>2026-04-17T08:10:25.517Z</time></trkpt><trkpt lat="46.2772417" lon="12.38312"><ele>736.0</ele><time>2026-04-17T08:10:26.518Z</time></trkpt><trkpt lat="46.27728" lon="12.38293"><ele>736.0</ele><time>2026-04-17T08:10:27.518Z</time></trkpt><trkpt lat="46.2772933" lon="12.38271"><ele>736.0</ele><time>2026-04-17T08:10:28.519Z</time></trkpt><trkpt lat="46.277295" lon="12.3824783"><ele>744.3333333333334</ele><time>2026-04-17T08:10:29.518Z</time></trkpt><trkpt lat="46.2772967" lon="12.382245"><ele>752.6666666666666</ele><time>2026-04-17T08:10:30.518Z</time></trkpt><trkpt lat="46.277325" lon="12.3820217"><ele>761.0</ele><time>2026-04-17T08:10:31.518Z</time></trkpt><trkpt lat="46.27738" lon="12.3818"><ele>761.0</ele><time>2026-04-17T08:10:32.518Z</time></trkpt><trkpt lat="46.2774567" lon="12.3815767"><ele>761.0</ele><time>2026-04-17T08:10:33.517Z</time></trkpt><trkpt lat="46.27754" lon="12.3813533"><ele>761.0</ele><time>2026-04-17T08:10:34.518Z</time></trkpt><trkpt lat="46.2776167" lon="12.3811533"><ele>756.5</ele><time>2026-04-17T08:10:35.518Z</time></trkpt><trkpt lat="46.2777067" lon="12.380985"><ele>752.0</ele><time>2026-04-17T08:10:36.517Z</time></trkpt><trkpt lat="46.2778167" lon="12.38085"><ele>747.5</ele><time>2026-04-17T08:10:37.518Z</time></trkpt><trkpt lat="46.2779467" lon="12.380745"><ele>743.0</ele><time>2026-04-17T08:10:38.522Z</time></trkpt><trkpt lat="46.2780967" lon="12.3806533"><ele>743.0</ele><time>2026-04-17T08:10:39.52Z</time></trkpt><trkpt lat="46.2782533" lon="12.3805733"><ele>743.0</ele><time>2026-04-17T08:10:40.518Z</time></trkpt><trkpt lat="46.2784033" lon="12.3804917"><ele>743.0</ele><time>2026-04-17T08:10:41.519Z</time></trkpt><trkpt lat="46.2785367" lon="12.3804033"><ele>743.0</ele><time>2026-04-17T08:10:42.519Z</time></trkpt><trkpt lat="46.2786567" lon="12.3803233"><ele>743.0</ele><time>2026-04-17T08:10:43.519Z</time></trkpt><trkpt lat="46.2787717" lon="12.3802933"><ele>743.0</ele><time>2026-04-17T08:10:44.519Z</time></trkpt><trkpt lat="46.2788867" lon="12.3803083"><ele>743.0</ele><time>2026-04-17T08:10:45.518Z</time></trkpt><trkpt lat="46.2789933" lon="12.3803617"><ele>745.25</ele><time>2026-04-17T08:10:46.519Z</time></trkpt><trkpt lat="46.27908" lon="12.38047"><ele>747.5</ele><time>2026-04-17T08:10:47.519Z</time></trkpt><trkpt lat="46.2791717" lon="12.3806083"><ele>749.75</ele><time>2026-04-17T08:10:48.519Z</time></trkpt><trkpt lat="46.2792733" lon="12.3807683"><ele>752.0</ele><time>2026-04-17T08:10:49.518Z</time></trkpt><trkpt lat="46.2793867" lon="12.38092"><ele>757.25</ele><time>2026-04-17T08:10:50.519Z</time></trkpt><trkpt lat="46.27949" lon="12.3810533"><ele>762.5</ele><time>2026-04-17T08:10:51.518Z</time></trkpt><trkpt lat="46.2795917" lon="12.3811517"><ele>767.75</ele><time>2026-04-17T08:10:52.518Z</time></trkpt><trkpt lat="46.2796883" lon="12.3812017"><ele>773.0</ele><time>2026-04-17T08:10:53.519Z</time></trkpt><trkpt lat="46.2797817" lon="12.3811933"><ele>773.0</ele><time>2026-04-17T08:10:54.519Z</time></trkpt><trkpt lat="46.2798767" lon="12.38113"><ele>773.0</ele><time>2026-04-17T08:10:55.518Z</time></trkpt><trkpt lat="46.279975" lon="12.381025"><ele>773.0</ele><time>2026-04-17T08:10:56.518Z</time></trkpt><trkpt lat="46.2800783" lon="12.3808933"><ele>773.0</ele><time>2026-04-17T08:10:57.518Z</time></trkpt><trkpt lat="46.2801883" lon="12.380755"><ele>773.0</ele><time>2026-04-17T08:10:58.522Z</time></trkpt><trkpt lat="46.2803083" lon="12.38063"><ele>773.0</ele><time>2026-04-17T08:10:59.518Z</time></trkpt><trkpt lat="46.2817883" lon="12.377105"><ele>772.6666666666667</ele><time>2026-04-17T08:11:16.519Z</time></trkpt><trkpt lat="46.2818183" lon="12.3768683"><ele>772.3333333333333</ele><time>2026-04-17T08:11:17.524Z</time></trkpt><trkpt lat="46.2818667" lon="12.3766583"><ele>772.0</ele><time>2026-04-17T08:11:18.519Z</time></trkpt><trkpt lat="46.281925" lon="12.3764783"><ele>774.5</ele><time>2026-04-17T08:11:19.519Z</time></trkpt><trkpt lat="46.2819633" lon="12.3763167"><ele>777.0</ele><time>2026-04-17T08:11:20.519Z</time></trkpt><trkpt lat="46.2819867" lon="12.37616"><ele>779.5</ele><time>2026-04-17T08:11:21.518Z</time></trkpt><trkpt lat="46.2819683" lon="12.376005"><ele>782.0</ele><time>2026-04-17T08:11:22.518Z</time></trkpt><trkpt lat="46.2819117" lon="12.3758567"><ele>782.0</ele><time>2026-04-17T08:11:23.52Z</time></trkpt><trkpt lat="46.2818283" lon="12.3757167"><ele>782.0</ele><time>2026-04-17T08:11:24.518Z</time></trkpt><trkpt lat="46.2817333" lon="12.3755783"><ele>782.0</ele><time>2026-04-17T08:11:25.519Z</time></trkpt><trkpt lat="46.2816383" lon="12.3754567"><ele>782.0</ele><time>2026-04-17T08:11:26.52Z</time></trkpt><trkpt lat="46.28155" lon="12.3753567"><ele>785.8</ele><time>2026-04-17T08:11:27.518Z</time></trkpt><trkpt lat="46.2814567" lon="12.3753033"><ele>789.6</ele><time>2026-04-17T08:11:28.519Z</time></trkpt><trkpt lat="46.2813717" lon="12.3752917"><ele>793.4</ele><time>2026-04-17T08:11:29.519Z</time></trkpt><trkpt lat="46.2812867" lon="12.3753367"><ele>797.1999999999999</ele><time>2026-04-17T08:11:30.518Z</time></trkpt><trkpt lat="46.2812" lon="12.375415"><ele>801.0</ele><time>2026-04-17T08:11:31.52Z</time></trkpt><trkpt lat="46.2811033" lon="12.375515"><ele>797.1999999999999</ele><time>2026-04-17T08:11:32.519Z</time></trkpt><trkpt lat="46.2810117" lon="12.3756083"><ele>793.4</ele><time>2026-04-17T08:11:33.517Z</time></trkpt><trkpt lat="46.28092" lon="12.3756817"><ele>789.6</ele><time>2026-04-17T08:11:34.518Z</time></trkpt><trkpt lat="46.2808283" lon="12.3757133"><ele>785.8</ele><time>2026-04-17T08:11:35.519Z</time></trkpt><trkpt lat="46.2807267" lon="12.375705"><ele>782.0</ele><time>2026-04-17T08:11:36.52Z</time></trkpt><trkpt lat="46.28061" lon="12.37568"><ele>781.25</ele><time>2026-04-17T08:11:37.518Z</time></trkpt><trkpt lat="46.28048" lon="12.3756517"><ele>780.5</ele><time>2026-04-17T08:11:38.519Z</time></trkpt><trkpt lat="46.2803417" lon="12.3756183"><ele>779.75</ele><time>2026-04-17T08:11:39.517Z</time></trkpt><trkpt lat="46.2801967" lon="12.3755633"><ele>779.0</ele><time>2026-04-17T08:11:40.517Z</time></trkpt><trkpt lat="46.2800467" lon="12.3754867"><ele>784.0</ele><time>2026-04-17T08:11:41.518Z</time></trkpt><trkpt lat="46.2798917" lon="12.3754"><ele>789.0</ele><time>2026-04-17T08:11:42.517Z</time></trkpt><trkpt lat="46.2797317" lon="12.37531"><ele>794.0</ele><time>2026-04-17T08:11:43.519Z</time></trkpt><trkpt lat="46.2795667" lon="12.3752183"><ele>794.0</ele><time>2026-04-17T08:11:44.519Z</time></trkpt><trkpt lat="46.2794117" lon="12.3751283"><ele>794.0</ele><time>2026-04-17T08:11:45.516Z</time></trkpt><trkpt lat="46.2792683" lon="12.375035"><ele>794.0</ele><time>2026-04-17T08:11:46.518Z</time></trkpt><trkpt lat="46.27914" lon="12.3749167"><ele>794.0</ele><time>2026-04-17T08:11:47.518Z</time></trkpt><trkpt lat="46.279015" lon="12.37478"><ele>794.0</ele><time>2026-04-17T08:11:48.519Z</time></trkpt><trkpt lat="46.278905" lon="12.37462"><ele>794.0</ele><time>2026-04-17T08:11:49.518Z</time></trkpt><trkpt lat="46.2788117" lon="12.3744417"><ele>793.0</ele><time>2026-04-17T08:11:50.52Z</time></trkpt><trkpt lat="46.2787333" lon="12.3742533"><ele>792.0</ele><time>2026-04-17T08:11:51.518Z</time></trkpt><trkpt lat="46.278675" lon="12.3740667"><ele>791.0</ele><time>2026-04-17T08:11:52.518Z</time></trkpt><trkpt lat="46.2786217" lon="12.3738983"><ele>790.0</ele><time>2026-04-17T08:11:53.519Z</time></trkpt><trkpt lat="46.27856" lon="12.3737517"><ele>793.25</ele><time>2026-04-17T08:11:54.517Z</time></trkpt><trkpt lat="46.2784717" lon="12.3736367"><ele>796.5</ele><time>2026-04-17T08:11:55.518Z</time></trkpt><trkpt lat="46.27837" lon="12.37357"><ele>799.75</ele><time>2026-04-17T08:11:56.518Z</time></trkpt><trkpt lat="46.2782633" lon="12.37357"><ele>803.0</ele><time>2026-04-17T08:11:57.517Z</time></trkpt><trkpt lat="46.2781533" lon="12.3736333"><ele>803.5</ele><time>2026-04-17T08:11:58.517Z</time></trkpt><trkpt lat="46.27804" lon="12.3737267"><ele>804.0</ele><time>2026-04-17T08:11:59.518Z</time></trkpt><trkpt lat="46.277925" lon="12.3738267"><ele>804.5</ele><time>2026-04-17T08:12:00.516Z</time></trkpt><trkpt lat="46.2778067" lon="12.3739083"><ele>805.0</ele><time>2026-04-17T08:12:01.519Z</time></trkpt><trkpt lat="46.277685" lon="12.37396"><ele>805.0</ele><time>2026-04-17T08:12:02.518Z</time></trkpt><trkpt lat="46.277565" lon="12.373975"><ele>805.0</ele><time>2026-04-17T08:12:03.517Z</time></trkpt><trkpt lat="46.2774483" lon="12.3739283"><ele>805.0</ele><time>2026-04-17T08:12:04.517Z</time></trkpt><trkpt lat="46.2773317" lon="12.3738417"><ele>805.0</ele><time>2026-04-17T08:12:05.519Z</time></trkpt><trkpt lat="46.2772233" lon="12.3737283"><ele>801.75</ele><time>2026-04-17T08:12:06.517Z</time></trkpt><trkpt lat="46.2771217" lon="12.3735883"><ele>798.5</ele><time>2026-04-17T08:12:07.518Z</time></trkpt><trkpt lat="46.2770333" lon="12.3734117"><ele>795.25</ele><time>2026-04-17T08:12:08.517Z</time></trkpt><trkpt lat="46.27696" lon="12.3732167"><ele>792.0</ele><time>2026-04-17T08:12:09.517Z</time></trkpt><trkpt lat="46.276895" lon="12.3730233"><ele>794.5</ele><time>2026-04-17T08:12:10.521Z</time></trkpt><trkpt lat="46.2768233" lon="12.372855"><ele>797.0</ele><time>2026-04-17T08:12:11.518Z</time></trkpt><trkpt lat="46.2767283" lon="12.372715"><ele>799.5</ele><time>2026-04-17T08:12:12.518Z</time></trkpt><trkpt lat="46.276605" lon="12.3726067"><ele>802.0</ele><time>2026-04-17T08:12:13.518Z</time></trkpt><trkpt lat="46.2764583" lon="12.372525"><ele>799.6666666666666</ele><time>2026-04-17T08:12:14.52Z</time></trkpt><trkpt lat="46.276295" lon="12.3724633"><ele>797.3333333333333</ele><time>2026-04-17T08:12:15.52Z</time></trkpt><trkpt lat="46.2761217" lon="12.37241"><ele>795.0</ele><time>2026-04-17T08:12:16.518Z</time></trkpt><trkpt lat="46.2759433" lon="12.3723517"><ele>795.0</ele><time>2026-04-17T08:12:17.519Z</time></trkpt><trkpt lat="46.275765" lon="12.3722933"><ele>795.0</ele><time>2026-04-17T08:12:18.518Z</time></trkpt><trkpt lat="46.2755917" lon="12.3722283"><ele>795.0</ele><time>2026-04-17T08:12:19.518Z</time></trkpt><trkpt lat="46.2754233" lon="12.372155"><ele>797.3333333333333</ele><time>2026-04-17T08:12:20.518Z</time></trkpt><trkpt lat="46.2752617" lon="12.3720683"><ele>799.6666666666666</ele><time>2026-04-17T08:12:21.52Z</time></trkpt><trkpt lat="46.2751033" lon="12.3719633"><ele>802.0</ele><time>2026-04-17T08:12:22.517Z</time></trkpt><trkpt lat="46.2749567" lon="12.3718317"><ele>802.0</ele><time>2026-04-17T08:12:23.518Z</time></trkpt><trkpt lat="46.2748183" lon="12.371675"><ele>802.0</ele><time>2026-04-17T08:12:24.517Z</time></trkpt><trkpt lat="46.2746867" lon="12.3714967"><ele>802.0</ele><time>2026-04-17T08:12:25.52Z</time></trkpt><trkpt lat="46.27456" lon="12.37129"><ele>799.0</ele><time>2026-04-17T08:12:26.519Z</time></trkpt><trkpt lat="46.2744333" lon="12.3710783"><ele>796.0</ele><time>2026-04-17T08:12:27.518Z</time></trkpt><trkpt lat="46.274305" lon="12.37087"><ele>793.0</ele><time>2026-04-17T08:12:28.518Z</time></trkpt><trkpt lat="46.2741733" lon="12.3706567"><ele>797.3333333333333</ele><time>2026-04-17T08:12:29.518Z</time></trkpt><trkpt lat="46.274045" lon="12.37043"><ele>801.6666666666667</ele><time>2026-04-17T08:12:30.517Z</time></trkpt><trkpt lat="46.27393" lon="12.3701983"><ele>806.0</ele><time>2026-04-17T08:12:31.519Z</time></trkpt><trkpt lat="46.2738333" lon="12.3699583"><ele>797.0</ele><time>2026-04-17T08:12:32.518Z</time></trkpt><trkpt lat="46.273765" lon="12.3697083"><ele>788.0</ele><time>2026-04-17T08:12:33.517Z</time></trkpt><trkpt lat="46.2737133" lon="12.36946"><ele>779.0</ele><time>2026-04-17T08:12:34.518Z</time></trkpt><trkpt lat="46.27369" lon="12.3692167"><ele>779.3333333333334</ele><time>2026-04-17T08:12:35.519Z</time></trkpt><trkpt lat="46.273705" lon="12.368975"><ele>779.6666666666667</ele><time>2026-04-17T08:12:36.517Z</time></trkpt><trkpt lat="46.2737533" lon="12.36874"><ele>780.0</ele><time>2026-04-17T08:12:37.519Z</time></trkpt><trkpt lat="46.273825" lon="12.3685133"><ele>780.0</ele><time>2026-04-17T08:12:38.518Z</time></trkpt><trkpt lat="46.2738783" lon="12.368305"><ele>780.0</ele><time>2026-04-17T08:12:39.517Z</time></trkpt><trkpt lat="46.273905" lon="12.368115"><ele>780.0</ele><time>2026-04-17T08:12:40.518Z</time></trkpt><trkpt lat="46.27388" lon="12.3679483"><ele>780.0</ele><time>2026-04-17T08:12:41.518Z</time></trkpt><trkpt lat="46.2738133" lon="12.3678067"><ele>783.6666666666667</ele><time>2026-04-17T08:12:42.518Z</time></trkpt><trkpt lat="46.2737067" lon="12.367715"><ele>787.3333333333334</ele><time>2026-04-17T08:12:43.518Z</time></trkpt><trkpt lat="46.2735617" lon="12.3676883"><ele>791.0</ele><time>2026-04-17T08:12:44.521Z</time></trkpt><trkpt lat="46.2733833" lon="12.367715"><ele>791.0</ele><time>2026-04-17T08:12:45.518Z</time></trkpt><trkpt lat="46.2732117" lon="12.367715"><ele>791.0</ele><time>2026-04-17T08:12:46.519Z</time></trkpt><trkpt lat="46.2730533" lon="12.3676667"><ele>791.0</ele><time>2026-04-17T08:12:47.518Z</time></trkpt><trkpt lat="46.2729217" lon="12.3675517"><ele>786.0</ele><time>2026-04-17T08:12:48.518Z</time></trkpt><trkpt lat="46.2728233" lon="12.367365"><ele>781.0</ele><time>2026-04-17T08:12:49.518Z</time></trkpt><trkpt lat="46.27273" lon="12.36713"><ele>776.0</ele><time>2026-04-17T08:12:50.519Z</time></trkpt><trkpt lat="46.2726533" lon="12.3668533"><ele>776.0</ele><time>2026-04-17T08:12:51.518Z</time></trkpt><trkpt lat="46.2725817" lon="12.3665583"><ele>776.0</ele><time>2026-04-17T08:12:52.518Z</time></trkpt><trkpt lat="46.2725133" lon="12.366265"><ele>776.0</ele><time>2026-04-17T08:12:53.518Z</time></trkpt><trkpt lat="46.27245" lon="12.3659767"><ele>777.6666666666667</ele><time>2026-04-17T08:12:54.518Z</time></trkpt><trkpt lat="46.2723967" lon="12.3656783"><ele>779.3333333333333</ele><time>2026-04-17T08:12:55.518Z</time></trkpt><trkpt lat="46.2723567" lon="12.3653617"><ele>781.0</ele><time>2026-04-17T08:12:56.518Z</time></trkpt><trkpt lat="46.2723283" lon="12.3650383"><ele>783.0</ele><time>2026-04-17T08:12:57.517Z</time></trkpt><trkpt lat="46.2723067" lon="12.3647283"><ele>785.0</ele><time>2026-04-17T08:12:58.518Z</time></trkpt><trkpt lat="46.272295" lon="12.3644333"><ele>787.0</ele><time>2026-04-17T08:12:59.518Z</time></trkpt><trkpt lat="46.272285" lon="12.3641567"><ele>782.25</ele><time>2026-04-17T08:13:00.518Z</time></trkpt><trkpt lat="46.27227" lon="12.3639117"><ele>777.5</ele><time>2026-04-17T08:13:01.518Z</time></trkpt><trkpt lat="46.2722567" lon="12.3637083"><ele>772.75</ele><time>2026-04-17T08:13:02.519Z</time></trkpt><trkpt lat="46.272235" lon="12.3635367"><ele>768.0</ele><time>2026-04-17T08:13:03.517Z</time></trkpt><trkpt lat="46.27219" lon="12.3634017"><ele>768.0</ele><time>2026-04-17T08:13:04.517Z</time></trkpt><trkpt lat="46.2721117" lon="12.3632867"><ele>768.0</ele><time>2026-04-17T08:13:05.518Z</time></trkpt><trkpt lat="46.271995" lon="12.363175"><ele>768.0</ele><time>2026-04-17T08:13:06.517Z</time></trkpt><trkpt lat="46.2718433" lon="12.3630483"><ele>768.0</ele><time>2026-04-17T08:13:07.518Z</time></trkpt><trkpt lat="46.2716733" lon="12.3629117"><ele>767.0</ele><time>2026-04-17T08:13:08.518Z</time></trkpt><trkpt lat="46.2714933" lon="12.3628033"><ele>766.0</ele><time>2026-04-17T08:13:09.519Z</time></trkpt><trkpt lat="46.27132" lon="12.362725"><ele>765.0</ele><time>2026-04-17T08:13:10.518Z</time></trkpt><trkpt lat="46.2711633" lon="12.3626483"><ele>765.0</ele><time>2026-04-17T08:13:11.52Z</time></trkpt><trkpt lat="46.2710317" lon="12.3625683"><ele>765.0</ele><time>2026-04-17T08:13:12.518Z</time></trkpt><trkpt lat="46.270945" lon="12.362455"><ele>765.0</ele><time>2026-04-17T08:13:13.518Z</time></trkpt><trkpt lat="46.2709" lon="12.3623033"><ele>765.0</ele><time>2026-04-17T08:13:14.518Z</time></trkpt><trkpt lat="46.2708883" lon="12.36211"><ele>766.6666666666667</ele><time>2026-04-17T08:13:15.52Z</time></trkpt><trkpt lat="46.2709" lon="12.3618783"><ele>768.3333333333334</ele><time>2026-04-17T08:13:16.519Z</time></trkpt><trkpt lat="46.2709283" lon="12.36165"><ele>770.0</ele><time>2026-04-17T08:13:17.518Z</time></trkpt><trkpt lat="46.270965" lon="12.361435"><ele>769.25</ele><time>2026-04-17T08:13:18.518Z</time></trkpt><trkpt lat="46.2710183" lon="12.3612417"><ele>768.5</ele><time>2026-04-17T08:13:19.518Z</time></trkpt><trkpt lat="46.2710967" lon="12.3610667"><ele>767.75</ele><time>2026-04-17T08:13:20.521Z</time></trkpt><trkpt lat="46.2711817" lon="12.36089"><ele>767.0</ele><time>2026-04-17T08:13:21.518Z</time></trkpt><trkpt lat="46.2712417" lon="12.3606883"><ele>766.3333333333333</ele><time>2026-04-17T08:13:22.518Z</time></trkpt><trkpt lat="46.2712717" lon="12.3604583"><ele>765.6666666666666</ele><time>2026-04-17T08:13:23.519Z</time></trkpt><trkpt lat="46.2712883" lon="12.3602117"><ele>765.0</ele><time>2026-04-17T08:13:24.517Z</time></trkpt><trkpt lat="46.2713033" lon="12.35995"><ele>767.6666666666667</ele><time>2026-04-17T08:13:25.518Z</time></trkpt><trkpt lat="46.2713167" lon="12.3596817"><ele>770.3333333333334</ele><time>2026-04-17T08:13:26.518Z</time></trkpt><trkpt lat="46.2713167" lon="12.359425"><ele>773.0</ele><time>2026-04-17T08:13:27.518Z</time></trkpt><trkpt lat="46.2712883" lon="12.3591783"><ele>773.0</ele><time>2026-04-17T08:13:28.518Z</time></trkpt><trkpt lat="46.2712367" lon="12.3589417"><ele>773.0</ele><time>2026-04-17T08:13:29.517Z</time></trkpt><trkpt lat="46.2711817" lon="12.358705"><ele>773.0</ele><time>2026-04-17T08:13:30.518Z</time></trkpt><trkpt lat="46.2701733" lon="12.3538"><ele>777.3333333333334</ele><time>2026-04-17T08:13:46.522Z</time></trkpt><trkpt lat="46.2700383" lon="12.353645"><ele>781.6666666666667</ele><time>2026-04-17T08:13:47.518Z</time></trkpt><trkpt lat="46.2699033" lon="12.353535"><ele>786.0</ele><time>2026-04-17T08:13:48.518Z</time></trkpt><trkpt lat="46.2697483" lon="12.3534483"><ele>786.0</ele><time>2026-04-17T08:13:49.518Z</time></trkpt><trkpt lat="46.2695867" lon="12.3533633"><ele>786.0</ele><time>2026-04-17T08:13:50.518Z</time></trkpt><trkpt lat="46.269445" lon="12.35326"><ele>786.0</ele><time>2026-04-17T08:13:51.517Z</time></trkpt><trkpt lat="46.2693417" lon="12.3531483"><ele>789.25</ele><time>2026-04-17T08:13:52.518Z</time></trkpt><trkpt lat="46.2692783" lon="12.3530283"><ele>792.5</ele><time>2026-04-17T08:13:53.518Z</time></trkpt><trkpt lat="46.269255" lon="12.3528833"><ele>795.75</ele><time>2026-04-17T08:13:54.518Z</time></trkpt><trkpt lat="46.26927" lon="12.3526883"><ele>799.0</ele><time>2026-04-17T08:13:55.518Z</time></trkpt><trkpt lat="46.2693067" lon="12.3524533"><ele>797.3333333333333</ele><time>2026-04-17T08:13:56.524Z</time></trkpt><trkpt lat="46.269355" lon="12.35219"><ele>795.6666666666667</ele><time>2026-04-17T08:13:57.518Z</time></trkpt><trkpt lat="46.2693983" lon="12.3519117"><ele>794.0</ele><time>2026-04-17T08:13:58.518Z</time></trkpt><trkpt lat="46.26943" lon="12.3516117"><ele>796.0</ele><time>2026-04-17T08:13:59.518Z</time></trkpt><trkpt lat="46.26943" lon="12.3512933"><ele>798.0</ele><time>2026-04-17T08:14:00.518Z</time></trkpt><trkpt lat="46.2693933" lon="12.350955"><ele>798.0</ele><time>2026-04-17T08:14:01.518Z</time></trkpt><trkpt lat="46.26933" lon="12.3505967"><ele>798.0</ele><time>2026-04-17T08:14:02.52Z</time></trkpt><trkpt lat="46.2692617" lon="12.3502367"><ele>802.5</ele><time>2026-04-17T08:14:03.519Z</time></trkpt><trkpt lat="46.2691933" lon="12.3498967"><ele>807.0</ele><time>2026-04-17T08:14:04.519Z</time></trkpt><trkpt lat="46.269135" lon="12.3495633"><ele>808.6666666666667</ele><time>2026-04-17T08:14:05.519Z</time></trkpt><trkpt lat="46.269065" lon="12.3492617"><ele>810.3333333333334</ele><time>2026-04-17T08:14:06.519Z</time></trkpt><trkpt lat="46.26898" lon="12.3489883"><ele>812.0</ele><time>2026-04-17T08:14:07.521Z</time></trkpt><trkpt lat="46.2688817" lon="12.3487533"><ele>813.25</ele><time>2026-04-17T08:14:08.519Z</time></trkpt><trkpt lat="46.2687967" lon="12.34855"><ele>814.5</ele><time>2026-04-17T08:14:09.519Z</time></trkpt><trkpt lat="46.2687367" lon="12.3483683"><ele>815.75</ele><time>2026-04-17T08:14:10.52Z</time></trkpt><trkpt lat="46.2687133" lon="12.3481917"><ele>817.0</ele><time>2026-04-17T08:14:11.52Z</time></trkpt><trkpt lat="46.2687217" lon="12.3480183"><ele>817.0</ele><time>2026-04-17T08:14:12.519Z</time></trkpt><trkpt lat="46.26876" lon="12.34784"><ele>817.0</ele><time>2026-04-17T08:14:13.52Z</time></trkpt><trkpt lat="46.26883" lon="12.3476567"><ele>817.0</ele><time>2026-04-17T08:14:14.52Z</time></trkpt><trkpt lat="46.2689167" lon="12.3474583"><ele>817.0</ele><time>2026-04-17T08:14:15.519Z</time></trkpt><trkpt lat="46.269005" lon="12.3472467"><ele>815.0</ele><time>2026-04-17T08:14:16.519Z</time></trkpt><trkpt lat="46.26909" lon="12.3470133"><ele>813.0</ele><time>2026-04-17T08:14:17.519Z</time></trkpt><trkpt lat="46.2691767" lon="12.34677"><ele>811.0</ele><time>2026-04-17T08:14:18.519Z</time></trkpt><trkpt lat="46.2692567" lon="12.346515"><ele>807.3333333333333</ele><time>2026-04-17T08:14:19.519Z</time></trkpt><trkpt lat="46.2693317" lon="12.346255"><ele>803.6666666666667</ele><time>2026-04-17T08:14:20.519Z</time></trkpt><trkpt lat="46.2694033" lon="12.3459833"><ele>800.0</ele><time>2026-04-17T08:14:21.519Z</time></trkpt><trkpt lat="46.2694717" lon="12.34571"><ele>799.0</ele><time>2026-04-17T08:14:22.519Z</time></trkpt><trkpt lat="46.2695267" lon="12.345425"><ele>798.0</ele><time>2026-04-17T08:14:23.52Z</time></trkpt><trkpt lat="46.2695783" lon="12.3451383"><ele>797.0</ele><time>2026-04-17T08:14:24.518Z</time></trkpt><trkpt lat="46.26963" lon="12.3448517"><ele>800.3333333333334</ele><time>2026-04-17T08:14:25.521Z</time></trkpt><trkpt lat="46.2696783" lon="12.3445667"><ele>803.6666666666667</ele><time>2026-04-17T08:14:26.521Z</time></trkpt><trkpt lat="46.269725" lon="12.3442817"><ele>807.0</ele><time>2026-04-17T08:14:27.519Z</time></trkpt><trkpt lat="46.26977" lon="12.3439967"><ele>809.3333333333333</ele><time>2026-04-17T08:14:28.519Z</time></trkpt><trkpt lat="46.2698183" lon="12.343715"><ele>811.6666666666666</ele><time>2026-04-17T08:14:29.52Z</time></trkpt><trkpt lat="46.2698667" lon="12.3434283"><ele>814.0</ele><time>2026-04-17T08:14:30.519Z</time></trkpt><trkpt lat="46.269915" lon="12.3431433"><ele>815.6666666666666</ele><time>2026-04-17T08:14:31.52Z</time></trkpt><trkpt lat="46.2699617" lon="12.3428583"><ele>817.3333333333333</ele><time>2026-04-17T08:14:32.519Z</time></trkpt><trkpt lat="46.2700033" lon="12.3425783"><ele>819.0</ele><time>2026-04-17T08:14:33.52Z</time></trkpt><trkpt lat="46.270035" lon="12.3422983"><ele>816.3333333333333</ele><time>2026-04-17T08:14:34.519Z</time></trkpt><trkpt lat="46.2700583" lon="12.3420217"><ele>813.6666666666666</ele><time>2026-04-17T08:14:35.52Z</time></trkpt><trkpt lat="46.2700767" lon="12.3417417"><ele>811.0</ele><time>2026-04-17T08:14:36.521Z</time></trkpt><trkpt lat="46.2700933" lon="12.3414617"><ele>809.0</ele><time>2026-04-17T08:14:37.519Z</time></trkpt><trkpt lat="46.27011" lon="12.34118"><ele>807.0</ele><time>2026-04-17T08:14:38.52Z</time></trkpt><trkpt lat="46.2701317" lon="12.3408967"><ele>805.0</ele><time>2026-04-17T08:14:39.519Z</time></trkpt><trkpt lat="46.2701483" lon="12.34062"><ele>802.3333333333333</ele><time>2026-04-17T08:14:40.523Z</time></trkpt><trkpt lat="46.2701633" lon="12.34035"><ele>799.6666666666667</ele><time>2026-04-17T08:14:41.519Z</time></trkpt><trkpt lat="46.2701667" lon="12.3400917"><ele>797.0</ele><time>2026-04-17T08:14:42.52Z</time></trkpt><trkpt lat="46.270145" lon="12.3398383"><ele>797.0</ele><time>2026-04-17T08:14:43.519Z</time></trkpt><trkpt lat="46.2700933" lon="12.339585"><ele>797.0</ele><time>2026-04-17T08:14:44.521Z</time></trkpt><trkpt lat="46.2700083" lon="12.33934"><ele>797.0</ele><time>2026-04-17T08:14:45.519Z</time></trkpt><trkpt lat="46.269895" lon="12.33911"><ele>796.0</ele><time>2026-04-17T08:14:46.52Z</time></trkpt><trkpt lat="46.2697633" lon="12.33888"><ele>795.0</ele><time>2026-04-17T08:14:47.52Z</time></trkpt><trkpt lat="46.269625" lon="12.33865"><ele>794.0</ele><time>2026-04-17T08:14:48.519Z</time></trkpt><trkpt lat="46.26949" lon="12.33843"><ele>794.0</ele><time>2026-04-17T08:14:49.52Z</time></trkpt><trkpt lat="46.26936" lon="12.3382017"><ele>794.0</ele><time>2026-04-17T08:14:50.52Z</time></trkpt><trkpt lat="46.2692267" lon="12.33797"><ele>794.0</ele><time>2026-04-17T08:14:51.518Z</time></trkpt><trkpt lat="46.2690933" lon="12.33774"><ele>794.0</ele><time>2026-04-17T08:14:52.519Z</time></trkpt><trkpt lat="46.2689617" lon="12.33751"><ele>794.0</ele><time>2026-04-17T08:14:53.519Z</time></trkpt><trkpt lat="46.2688467" lon="12.3372983"><ele>794.0</ele><time>2026-04-17T08:14:54.519Z</time></trkpt><trkpt lat="46.268755" lon="12.3370867"><ele>789.6666666666667</ele><time>2026-04-17T08:14:55.518Z</time></trkpt><trkpt lat="46.2686933" lon="12.3368733"><ele>785.3333333333333</ele><time>2026-04-17T08:14:56.519Z</time></trkpt><trkpt lat="46.2686583" lon="12.3366517"><ele>781.0</ele><time>2026-04-17T08:14:57.519Z</time></trkpt><trkpt lat="46.26866" lon="12.3364217"><ele>776.3333333333333</ele><time>2026-04-17T08:14:58.518Z</time></trkpt><trkpt lat="46.2686933" lon="12.3361983"><ele>771.6666666666666</ele><time>2026-04-17T08:14:59.519Z</time></trkpt><trkpt lat="46.2687583" lon="12.3360033"><ele>767.0</ele><time>2026-04-17T08:15:00.521Z</time></trkpt><trkpt lat="46.2688483" lon="12.335825"><ele>763.0</ele><time>2026-04-17T08:15:01.519Z</time></trkpt><trkpt lat="46.268965" lon="12.3356817"><ele>759.0</ele><time>2026-04-17T08:15:02.52Z</time></trkpt><trkpt lat="46.2691033" lon="12.3355783"><ele>755.0</ele><time>2026-04-17T08:15:03.518Z</time></trkpt><trkpt lat="46.26925" lon="12.3354983"><ele>755.0</ele><time>2026-04-17T08:15:04.52Z</time></trkpt><trkpt lat="46.2694033" lon="12.3354517"><ele>755.0</ele><time>2026-04-17T08:15:05.519Z</time></trkpt><trkpt lat="46.2695533" lon="12.33538"><ele>755.0</ele><time>2026-04-17T08:15:06.519Z</time></trkpt><trkpt lat="46.269695" lon="12.33526"><ele>766.0</ele><time>2026-04-17T08:15:07.518Z</time></trkpt><trkpt lat="46.2698083" lon="12.33509"><ele>777.0</ele><time>2026-04-17T08:15:08.52Z</time></trkpt><trkpt lat="46.2698917" lon="12.3348883"><ele>788.0</ele><time>2026-04-17T08:15:09.519Z</time></trkpt><trkpt lat="46.2699667" lon="12.334665"><ele>788.0</ele><time>2026-04-17T08:15:10.518Z</time></trkpt><trkpt lat="46.27003" lon="12.334445"><ele>788.0</ele><time>2026-04-17T08:15:11.518Z</time></trkpt><trkpt lat="46.2700783" lon="12.3342433"><ele>788.0</ele><time>2026-04-17T08:15:12.519Z</time></trkpt><trkpt lat="46.2701017" lon="12.3340533"><ele>788.0</ele><time>2026-04-17T08:15:13.519Z</time></trkpt><trkpt lat="46.2700867" lon="12.333885"><ele>787.2</ele><time>2026-04-17T08:15:14.52Z</time></trkpt><trkpt lat="46.270035" lon="12.3337483"><ele>786.4</ele><time>2026-04-17T08:15:15.522Z</time></trkpt><trkpt lat="46.2699517" lon="12.333655"><ele>785.6</ele><time>2026-04-17T08:15:16.518Z</time></trkpt><trkpt lat="46.269865" lon="12.3336033"><ele>784.8000000000001</ele><time>2026-04-17T08:15:17.52Z</time></trkpt><trkpt lat="46.2697617" lon="12.3335933"><ele>784.0</ele><time>2026-04-17T08:15:18.519Z</time></trkpt><trkpt lat="46.269655" lon="12.33357"><ele>774.8000000000001</ele><time>2026-04-17T08:15:19.518Z</time></trkpt><trkpt lat="46.26956" lon="12.3335017"><ele>765.6</ele><time>2026-04-17T08:15:20.52Z</time></trkpt><trkpt lat="46.2694883" lon="12.3333933"><ele>756.4</ele><time>2026-04-17T08:15:21.519Z</time></trkpt><trkpt lat="46.26945" lon="12.333255"><ele>747.2</ele><time>2026-04-17T08:15:22.519Z</time></trkpt><trkpt lat="46.2694467" lon="12.3330733"><ele>738.0</ele><time>2026-04-17T08:15:23.519Z</time></trkpt><trkpt lat="46.2694617" lon="12.33285"><ele>738.0</ele><time>2026-04-17T08:15:24.519Z</time></trkpt><trkpt lat="46.2694667" lon="12.332615"><ele>738.0</ele><time>2026-04-17T08:15:25.519Z</time></trkpt><trkpt lat="46.2694567" lon="12.33237"><ele>738.0</ele><time>2026-04-17T08:15:26.52Z</time></trkpt><trkpt lat="46.2694167" lon="12.3321233"><ele>739.3333333333334</ele><time>2026-04-17T08:15:27.519Z</time></trkpt><trkpt lat="46.269355" lon="12.331895"><ele>740.6666666666667</ele><time>2026-04-17T08:15:28.519Z</time></trkpt><trkpt lat="46.2692867" lon="12.3316883"><ele>742.0</ele><time>2026-04-17T08:15:29.519Z</time></trkpt><trkpt lat="46.2692233" lon="12.331505"><ele>742.2</ele><time>2026-04-17T08:15:30.518Z</time></trkpt><trkpt lat="46.26917" lon="12.3313517"><ele>742.4000000000001</ele><time>2026-04-17T08:15:31.52Z</time></trkpt><trkpt lat="46.2691217" lon="12.3312233"><ele>742.5999999999999</ele><time>2026-04-17T08:15:32.52Z</time></trkpt><trkpt lat="46.269085" lon="12.3311117"><ele>742.8</ele><time>2026-04-17T08:15:33.518Z</time></trkpt><trkpt lat="46.2690483" lon="12.3309983"><ele>743.0</ele><time>2026-04-17T08:15:34.519Z</time></trkpt><trkpt lat="46.2690067" lon="12.33087"><ele>743.0</ele><time>2026-04-17T08:15:35.519Z</time></trkpt><trkpt lat="46.268955" lon="12.3307317"><ele>743.0</ele><time>2026-04-17T08:15:36.519Z</time></trkpt><trkpt lat="46.2688767" lon="12.3305833"><ele>743.0</ele><time>2026-04-17T08:15:37.521Z</time></trkpt><trkpt lat="46.26879" lon="12.3304483"><ele>743.0</ele><time>2026-04-17T08:15:38.52Z</time></trkpt><trkpt lat="46.2687067" lon="12.3303367"><ele>740.0</ele><time>2026-04-17T08:15:39.518Z</time></trkpt><trkpt lat="46.2686317" lon="12.33025"><ele>737.0</ele><time>2026-04-17T08:15:40.519Z</time></trkpt><trkpt lat="46.26856" lon="12.3301717"><ele>734.0</ele><time>2026-04-17T08:15:41.519Z</time></trkpt><trkpt lat="46.268495" lon="12.3301017"><ele>731.0</ele><time>2026-04-17T08:15:42.519Z</time></trkpt><trkpt lat="46.2684367" lon="12.33004"><ele>728.0</ele><time>2026-04-17T08:15:43.518Z</time></trkpt><trkpt lat="46.26837" lon="12.3299633"><ele>725.0</ele><time>2026-04-17T08:15:45.518Z</time></trkpt><trkpt lat="46.2683317" lon="12.3298517"><ele>728.75</ele><time>2026-04-17T08:20:47.522Z</time></trkpt><trkpt lat="46.2682217" lon="12.3296033"><ele>732.5</ele><time>2026-04-17T08:20:50.52Z</time></trkpt><trkpt lat="46.2682083" lon="12.329475"><ele>736.25</ele><time>2026-04-17T08:20:51.518Z</time></trkpt><trkpt lat="46.2681983" lon="12.32934"><ele>740.0</ele><time>2026-04-17T08:20:52.519Z</time></trkpt><trkpt lat="46.2680283" lon="12.32722"><ele>740.0</ele><time>2026-04-17T08:21:02.519Z</time></trkpt><trkpt lat="46.26801" lon="12.3270167"><ele>740.0</ele><time>2026-04-17T08:21:03.517Z</time></trkpt><trkpt lat="46.2672083" lon="12.32458"><ele>747.0</ele><time>2026-04-17T08:21:18.518Z</time></trkpt><trkpt lat="46.267195" lon="12.3244283"><ele>754.0</ele><time>2026-04-17T08:21:19.519Z</time></trkpt><trkpt lat="46.2671967" lon="12.3242717"><ele>761.0</ele><time>2026-04-17T08:21:20.518Z</time></trkpt><trkpt lat="46.270795" lon="12.3174483"><ele>761.0</ele><time>2026-04-17T08:21:58.518Z</time></trkpt><trkpt lat="46.271025" lon="12.3173683"><ele>761.0</ele><time>2026-04-17T08:21:59.52Z</time></trkpt><trkpt lat="46.271485" lon="12.3171867"><ele>730.6666666666666</ele><time>2026-04-17T08:22:01.52Z</time></trkpt><trkpt lat="46.271705" lon="12.3171283"><ele>700.3333333333334</ele><time>2026-04-17T08:22:02.519Z</time></trkpt><trkpt lat="46.2719133" lon="12.317065"><ele>670.0</ele><time>2026-04-17T08:22:03.518Z</time></trkpt><trkpt lat="46.2721167" lon="12.317055"><ele>665.3333333333334</ele><time>2026-04-17T08:22:04.518Z</time></trkpt><trkpt lat="46.2723217" lon="12.3170833"><ele>660.6666666666666</ele><time>2026-04-17T08:22:05.518Z</time></trkpt><trkpt lat="46.27254" lon="12.31715"><ele>656.0</ele><time>2026-04-17T08:22:06.518Z</time></trkpt><trkpt lat="46.2727717" lon="12.3172217"><ele>699.0</ele><time>2026-04-17T08:22:07.518Z</time></trkpt><trkpt lat="46.2730133" lon="12.3172917"><ele>742.0</ele><time>2026-04-17T08:22:08.519Z</time></trkpt><trkpt lat="46.27326" lon="12.3173533"><ele>742.0</ele><time>2026-04-17T08:22:09.518Z</time></trkpt><trkpt lat="46.2735" lon="12.3174067"><ele>742.0</ele><time>2026-04-17T08:22:10.518Z</time></trkpt><trkpt lat="46.2737367" lon="12.3174667"><ele>742.0</ele><time>2026-04-17T08:22:11.518Z</time></trkpt><trkpt lat="46.273965" lon="12.3175133"><ele>742.0</ele><time>2026-04-17T08:22:12.517Z</time></trkpt><trkpt lat="46.27419" lon="12.31755"><ele>742.0</ele><time>2026-04-17T08:22:13.518Z</time></trkpt><trkpt lat="46.2744233" lon="12.3175733"><ele>742.0</ele><time>2026-04-17T08:22:14.52Z</time></trkpt><trkpt lat="46.2746717" lon="12.3175733"><ele>694.5</ele><time>2026-04-17T08:22:15.518Z</time></trkpt><trkpt lat="46.2749233" lon="12.3175617"><ele>647.0</ele><time>2026-04-17T08:22:16.519Z</time></trkpt><trkpt lat="46.2751833" lon="12.3175517"><ele>647.0</ele><time>2026-04-17T08:22:17.519Z</time></trkpt><trkpt lat="46.2754483" lon="12.3175533"><ele>647.0</ele><time>2026-04-17T08:22:18.519Z</time></trkpt><trkpt lat="46.275715" lon="12.3175667"><ele>651.0</ele><time>2026-04-17T08:22:19.518Z</time></trkpt><trkpt lat="46.275975" lon="12.3175667"><ele>655.0</ele><time>2026-04-17T08:22:20.519Z</time></trkpt><trkpt lat="46.2762267" lon="12.317535"><ele>659.0</ele><time>2026-04-17T08:22:21.518Z</time></trkpt><trkpt lat="46.2764733" lon="12.3174917"><ele>663.0</ele><time>2026-04-17T08:22:22.52Z</time></trkpt><trkpt lat="46.2767083" lon="12.31745"><ele>663.0</ele><time>2026-04-17T08:22:23.519Z</time></trkpt><trkpt lat="46.27692" lon="12.3174167"><ele>663.0</ele><time>2026-04-17T08:22:24.519Z</time></trkpt><trkpt lat="46.2770983" lon="12.3173967"><ele>663.0</ele><time>2026-04-17T08:22:25.519Z</time></trkpt><trkpt lat="46.27725" lon="12.31739"><ele>666.1666666666666</ele><time>2026-04-17T08:22:26.519Z</time></trkpt><trkpt lat="46.2773633" lon="12.317375"><ele>669.3333333333334</ele><time>2026-04-17T08:22:27.518Z</time></trkpt><trkpt lat="46.27743" lon="12.3173217"><ele>672.5</ele><time>2026-04-17T08:22:28.518Z</time></trkpt><trkpt lat="46.2774417" lon="12.3172267"><ele>675.6666666666667</ele><time>2026-04-17T08:22:29.519Z</time></trkpt><trkpt lat="46.2773983" lon="12.3171417"><ele>678.8333333333334</ele><time>2026-04-17T08:22:30.518Z</time></trkpt><trkpt lat="46.277315" lon="12.3170967"><ele>682.0</ele><time>2026-04-17T08:22:31.519Z</time></trkpt><trkpt lat="46.277205" lon="12.31709"><ele>665.6666666666667</ele><time>2026-04-17T08:22:32.519Z</time></trkpt><trkpt lat="46.2770617" lon="12.3171033"><ele>649.3333333333334</ele><time>2026-04-17T08:22:33.519Z</time></trkpt><trkpt lat="46.276895" lon="12.3171217"><ele>633.0</ele><time>2026-04-17T08:22:34.518Z</time></trkpt><trkpt lat="46.2766983" lon="12.3171267"><ele>633.0</ele><time>2026-04-17T08:22:35.518Z</time></trkpt><trkpt lat="46.2764833" lon="12.317125"><ele>633.0</ele><time>2026-04-17T08:22:36.518Z</time></trkpt><trkpt lat="46.2762517" lon="12.3171283"><ele>633.0</ele><time>2026-04-17T08:22:37.519Z</time></trkpt><trkpt lat="46.27601" lon="12.3171267"><ele>633.0</ele><time>2026-04-17T08:22:38.523Z</time></trkpt><trkpt lat="46.2757717" lon="12.3171067"><ele>633.0</ele><time>2026-04-17T08:22:39.519Z</time></trkpt><trkpt lat="46.2755383" lon="12.3170733"><ele>633.0</ele><time>2026-04-17T08:22:40.519Z</time></trkpt><trkpt lat="46.2753117" lon="12.317035"><ele>633.0</ele><time>2026-04-17T08:22:41.519Z</time></trkpt><trkpt lat="46.2750983" lon="12.3169767"><ele>633.0</ele><time>2026-04-17T08:22:42.517Z</time></trkpt><trkpt lat="46.2748883" lon="12.3168933"><ele>633.0</ele><time>2026-04-17T08:22:43.518Z</time></trkpt><trkpt lat="46.2746783" lon="12.31679"><ele>633.0</ele><time>2026-04-17T08:22:44.519Z</time></trkpt><trkpt lat="46.274465" lon="12.3166833"><ele>633.0</ele><time>2026-04-17T08:22:45.518Z</time></trkpt><trkpt lat="46.27425" lon="12.3165767"><ele>633.0</ele><time>2026-04-17T08:22:46.52Z</time></trkpt><trkpt lat="46.274035" lon="12.316485"><ele>633.0</ele><time>2026-04-17T08:22:47.52Z</time></trkpt><trkpt lat="46.273815" lon="12.3164183"><ele>633.0</ele><time>2026-04-17T08:22:48.52Z</time></trkpt><trkpt lat="46.2736083" lon="12.3163533"><ele>625.3333333333334</ele><time>2026-04-17T08:22:49.519Z</time></trkpt><trkpt lat="46.2734267" lon="12.3162967"><ele>617.6666666666667</ele><time>2026-04-17T08:22:50.519Z</time></trkpt><trkpt lat="46.273255" lon="12.3162483"><ele>610.0</ele><time>2026-04-17T08:22:51.52Z</time></trkpt><trkpt lat="46.2731267" lon="12.3162133"><ele>612.2</ele><time>2026-04-17T08:22:52.519Z</time></trkpt><trkpt lat="46.2730117" lon="12.31618"><ele>614.4</ele><time>2026-04-17T08:22:53.517Z</time></trkpt><trkpt lat="46.2729083" lon="12.3161517"><ele>616.6</ele><time>2026-04-17T08:22:54.518Z</time></trkpt><trkpt lat="46.2728117" lon="12.3161217"><ele>618.8</ele><time>2026-04-17T08:22:55.518Z</time></trkpt><trkpt lat="46.2727167" lon="12.316095"><ele>621.0</ele><time>2026-04-17T08:22:56.518Z</time></trkpt><trkpt lat="46.272625" lon="12.3160733"><ele>621.0</ele><time>2026-04-17T08:22:57.518Z</time></trkpt><trkpt lat="46.2725317" lon="12.316055"><ele>621.0</ele><time>2026-04-17T08:22:58.519Z</time></trkpt><trkpt lat="46.2724283" lon="12.316025"><ele>621.0</ele><time>2026-04-17T08:22:59.519Z</time></trkpt><trkpt lat="46.2723017" lon="12.3159867"><ele>621.0</ele><time>2026-04-17T08:23:00.518Z</time></trkpt><trkpt lat="46.2721517" lon="12.3159467"><ele>621.6666666666666</ele><time>2026-04-17T08:23:01.519Z</time></trkpt><trkpt lat="46.2719833" lon="12.3159"><ele>622.3333333333333</ele><time>2026-04-17T08:23:02.52Z</time></trkpt><trkpt lat="46.271795" lon="12.3158467"><ele>623.0</ele><time>2026-04-17T08:23:03.519Z</time></trkpt><trkpt lat="46.2716" lon="12.3157667"><ele>623.6666666666666</ele><time>2026-04-17T08:23:04.519Z</time></trkpt><trkpt lat="46.2714167" lon="12.31568"><ele>624.3333333333334</ele><time>2026-04-17T08:23:05.519Z</time></trkpt><trkpt lat="46.271265" lon="12.3155767"><ele>625.0</ele><time>2026-04-17T08:23:06.519Z</time></trkpt><trkpt lat="46.2711383" lon="12.3154617"><ele>621.8</ele><time>2026-04-17T08:23:07.521Z</time></trkpt><trkpt lat="46.2710517" lon="12.3153333"><ele>618.6</ele><time>2026-04-17T08:23:08.519Z</time></trkpt><trkpt lat="46.2710167" lon="12.3151917"><ele>615.4</ele><time>2026-04-17T08:23:09.518Z</time></trkpt><trkpt lat="46.2710517" lon="12.3150683"><ele>612.2</ele><time>2026-04-17T08:23:10.521Z</time></trkpt><trkpt lat="46.2711617" lon="12.315015"><ele>609.0</ele><time>2026-04-17T08:23:11.519Z</time></trkpt><trkpt lat="46.271315" lon="12.3150267"><ele>607.0</ele><time>2026-04-17T08:23:12.518Z</time></trkpt><trkpt lat="46.2715233" lon="12.3150983"><ele>605.0</ele><time>2026-04-17T08:23:13.519Z</time></trkpt><trkpt lat="46.2717683" lon="12.3152183"><ele>605.0</ele><time>2026-04-17T08:23:14.519Z</time></trkpt><trkpt lat="46.2720033" lon="12.3153367"><ele>605.0</ele><time>2026-04-17T08:23:15.517Z</time></trkpt><trkpt lat="46.2722367" lon="12.3154333"><ele>604.0</ele><time>2026-04-17T08:23:16.518Z</time></trkpt><trkpt lat="46.272475" lon="12.3154883"><ele>603.0</ele><time>2026-04-17T08:23:17.518Z</time></trkpt><trkpt lat="46.2727267" lon="12.3155117"><ele>603.0</ele><time>2026-04-17T08:23:18.517Z</time></trkpt><trkpt lat="46.2729917" lon="12.31552"><ele>603.0</ele><time>2026-04-17T08:23:19.518Z</time></trkpt><trkpt lat="46.27326" lon="12.31554"><ele>606.5</ele><time>2026-04-17T08:23:20.518Z</time></trkpt><trkpt lat="46.2735183" lon="12.315575"><ele>610.0</ele><time>2026-04-17T08:23:21.517Z</time></trkpt><trkpt lat="46.27376" lon="12.3156133"><ele>609.0</ele><time>2026-04-17T08:23:22.518Z</time></trkpt><trkpt lat="46.2739683" lon="12.3156783"><ele>608.0</ele><time>2026-04-17T08:23:23.518Z</time></trkpt><trkpt lat="46.27413" lon="12.3157367"><ele>607.0</ele><time>2026-04-17T08:23:24.518Z</time></trkpt><trkpt lat="46.27425" lon="12.3157367"><ele>607.0</ele><time>2026-04-17T08:23:25.519Z</time></trkpt><trkpt lat="46.2743367" lon="12.3156717"><ele>607.0</ele><time>2026-04-17T08:23:26.518Z</time></trkpt><trkpt lat="46.2743883" lon="12.315565"><ele>607.0</ele><time>2026-04-17T08:23:27.517Z</time></trkpt><trkpt lat="46.2744033" lon="12.315405"><ele>607.0</ele><time>2026-04-17T08:23:28.523Z</time></trkpt><trkpt lat="46.2743583" lon="12.3152333"><ele>607.0</ele><time>2026-04-17T08:23:29.522Z</time></trkpt><trkpt lat="46.2742617" lon="12.3150867"><ele>602.6666666666667</ele><time>2026-04-17T08:23:30.518Z</time></trkpt><trkpt lat="46.2740783" lon="12.31499"><ele>598.3333333333334</ele><time>2026-04-17T08:23:31.519Z</time></trkpt><trkpt lat="46.273885" lon="12.314875"><ele>594.0</ele><time>2026-04-17T08:23:32.518Z</time></trkpt><trkpt lat="46.2737133" lon="12.3147567"><ele>590.0</ele><time>2026-04-17T08:23:33.517Z</time></trkpt><trkpt lat="46.2735833" lon="12.31464"><ele>586.0</ele><time>2026-04-17T08:23:34.518Z</time></trkpt><trkpt lat="46.2734917" lon="12.3145167"><ele>582.0</ele><time>2026-04-17T08:23:35.518Z</time></trkpt><trkpt lat="46.2734283" lon="12.3143967"><ele>578.0</ele><time>2026-04-17T08:23:36.517Z</time></trkpt><trkpt lat="46.2734717" lon="12.3142717"><ele>578.0</ele><time>2026-04-17T08:23:37.517Z</time></trkpt><trkpt lat="46.2735567" lon="12.3142"><ele>578.0</ele><time>2026-04-17T08:23:38.52Z</time></trkpt><trkpt lat="46.2736733" lon="12.3142017"><ele>578.0</ele><time>2026-04-17T08:23:39.518Z</time></trkpt><trkpt lat="46.273805" lon="12.3142733"><ele>578.0</ele><time>2026-04-17T08:23:40.518Z</time></trkpt><trkpt lat="46.2739567" lon="12.314415"><ele>580.0</ele><time>2026-04-17T08:23:41.518Z</time></trkpt><trkpt lat="46.2741233" lon="12.314575"><ele>582.0</ele><time>2026-04-17T08:23:42.518Z</time></trkpt><trkpt lat="46.2743017" lon="12.3147383"><ele>584.0</ele><time>2026-04-17T08:23:43.518Z</time></trkpt><trkpt lat="46.2745033" lon="12.3148917"><ele>584.0</ele><time>2026-04-17T08:23:44.518Z</time></trkpt><trkpt lat="46.274725" lon="12.31501"><ele>584.0</ele><time>2026-04-17T08:23:45.518Z</time></trkpt><trkpt lat="46.2749517" lon="12.3150817"><ele>576.5</ele><time>2026-04-17T08:23:46.518Z</time></trkpt><trkpt lat="46.2751883" lon="12.315105"><ele>569.0</ele><time>2026-04-17T08:23:47.522Z</time></trkpt><trkpt lat="46.2754383" lon="12.315095"><ele>567.0</ele><time>2026-04-17T08:23:48.518Z</time></trkpt><trkpt lat="46.2757" lon="12.31507"><ele>565.0</ele><time>2026-04-17T08:23:49.524Z</time></trkpt><trkpt lat="46.2759667" lon="12.3150567"><ele>565.0</ele><time>2026-04-17T08:23:50.518Z</time></trkpt><trkpt lat="46.2762283" lon="12.315045"><ele>565.0</ele><time>2026-04-17T08:23:51.518Z</time></trkpt><trkpt lat="46.276485" lon="12.3150217"><ele>565.0</ele><time>2026-04-17T08:23:52.518Z</time></trkpt><trkpt lat="46.2767367" lon="12.3149783"><ele>565.0</ele><time>2026-04-17T08:23:53.518Z</time></trkpt><trkpt lat="46.2769817" lon="12.314905"><ele>565.0</ele><time>2026-04-17T08:23:54.517Z</time></trkpt><trkpt lat="46.2772167" lon="12.31481"><ele>565.0</ele><time>2026-04-17T08:23:55.518Z</time></trkpt><trkpt lat="46.277435" lon="12.314685"><ele>552.5</ele><time>2026-04-17T08:23:56.518Z</time></trkpt><trkpt lat="46.2776417" lon="12.3145283"><ele>540.0</ele><time>2026-04-17T08:23:57.517Z</time></trkpt><trkpt lat="46.2778317" lon="12.3143217"><ele>540.0</ele><time>2026-04-17T08:23:58.518Z</time></trkpt><trkpt lat="46.2780167" lon="12.3140883"><ele>540.0</ele><time>2026-04-17T08:23:59.518Z</time></trkpt><trkpt lat="46.2781933" lon="12.3138683"><ele>540.6666666666666</ele><time>2026-04-17T08:24:00.516Z</time></trkpt><trkpt lat="46.2783683" lon="12.3136833"><ele>541.3333333333333</ele><time>2026-04-17T08:24:01.518Z</time></trkpt><trkpt lat="46.2785533" lon="12.313555"><ele>542.0</ele><time>2026-04-17T08:24:02.518Z</time></trkpt><trkpt lat="46.278745" lon="12.3134767"><ele>539.0</ele><time>2026-04-17T08:24:03.517Z</time></trkpt><trkpt lat="46.2789567" lon="12.31342"><ele>536.0</ele><time>2026-04-17T08:24:04.519Z</time></trkpt><trkpt lat="46.27918" lon="12.31337"><ele>533.0</ele><time>2026-04-17T08:24:05.519Z</time></trkpt><trkpt lat="46.2794183" lon="12.3133217"><ele>533.0</ele><time>2026-04-17T08:24:06.518Z</time></trkpt><trkpt lat="46.279665" lon="12.3132733"><ele>533.0</ele><time>2026-04-17T08:24:07.518Z</time></trkpt><trkpt lat="46.2799117" lon="12.313225"><ele>532.0</ele><time>2026-04-17T08:24:08.524Z</time></trkpt><trkpt lat="46.280145" lon="12.3131833"><ele>531.0</ele><time>2026-04-17T08:24:09.519Z</time></trkpt><trkpt lat="46.2803433" lon="12.3131517"><ele>530.0</ele><time>2026-04-17T08:24:10.519Z</time></trkpt><trkpt lat="46.2805067" lon="12.3131217"><ele>529.5</ele><time>2026-04-17T08:24:11.519Z</time></trkpt><trkpt lat="46.2806433" lon="12.313075"><ele>529.0</ele><time>2026-04-17T08:24:12.519Z</time></trkpt><trkpt lat="46.2807533" lon="12.3129967"><ele>528.5</ele><time>2026-04-17T08:24:13.518Z</time></trkpt><trkpt lat="46.2808333" lon="12.3128833"><ele>528.0</ele><time>2026-04-17T08:24:14.52Z</time></trkpt><trkpt lat="46.2808633" lon="12.3127333"><ele>523.75</ele><time>2026-04-17T08:24:15.519Z</time></trkpt><trkpt lat="46.2808483" lon="12.31258"><ele>519.5</ele><time>2026-04-17T08:24:16.519Z</time></trkpt><trkpt lat="46.280785" lon="12.3124433"><ele>515.25</ele><time>2026-04-17T08:24:17.52Z</time></trkpt><trkpt lat="46.280665" lon="12.3123367"><ele>511.0</ele><time>2026-04-17T08:24:18.519Z</time></trkpt><trkpt lat="46.2805183" lon="12.3122717"><ele>503.0</ele><time>2026-04-17T08:24:19.52Z</time></trkpt><trkpt lat="46.2803367" lon="12.3122367"><ele>495.0</ele><time>2026-04-17T08:24:20.522Z</time></trkpt><trkpt lat="46.2801417" lon="12.3122033"><ele>487.0</ele><time>2026-04-17T08:24:21.52Z</time></trkpt><trkpt lat="46.2799333" lon="12.31217"><ele>487.5</ele><time>2026-04-17T08:24:22.519Z</time></trkpt><trkpt lat="46.2797117" lon="12.3121417"><ele>488.0</ele><time>2026-04-17T08:24:23.519Z</time></trkpt><trkpt lat="46.27948" lon="12.3121333"><ele>488.0</ele><time>2026-04-17T08:24:24.519Z</time></trkpt><trkpt lat="46.279245" lon="12.3121383"><ele>488.0</ele><time>2026-04-17T08:24:25.519Z</time></trkpt><trkpt lat="46.2790133" lon="12.3121417"><ele>489.66666666666663</ele><time>2026-04-17T08:24:26.52Z</time></trkpt><trkpt lat="46.2787983" lon="12.31212"><ele>491.33333333333337</ele><time>2026-04-17T08:24:27.519Z</time></trkpt><trkpt lat="46.2786083" lon="12.3120817"><ele>493.0</ele><time>2026-04-17T08:24:28.52Z</time></trkpt><trkpt lat="46.2784483" lon="12.3120233"><ele>493.0</ele><time>2026-04-17T08:24:29.521Z</time></trkpt><trkpt lat="46.2783317" lon="12.3119333"><ele>492.99999999999994</ele><time>2026-04-17T08:24:30.519Z</time></trkpt><trkpt lat="46.27825" lon="12.3118333"><ele>492.99999999999994</ele><time>2026-04-17T08:24:31.519Z</time></trkpt><trkpt lat="46.2782167" lon="12.3117283"><ele>493.0</ele><time>2026-04-17T08:24:32.52Z</time></trkpt><trkpt lat="46.2782717" lon="12.311645"><ele>493.0</ele><time>2026-04-17T08:24:33.52Z</time></trkpt><trkpt lat="46.27837" lon="12.3116167"><ele>493.0</ele><time>2026-04-17T08:24:34.52Z</time></trkpt><trkpt lat="46.2784983" lon="12.311655"><ele>493.0</ele><time>2026-04-17T08:24:35.519Z</time></trkpt><trkpt lat="46.278655" lon="12.3117333"><ele>493.0</ele><time>2026-04-17T08:24:36.52Z</time></trkpt><trkpt lat="46.27883" lon="12.3118017"><ele>491.33333333333337</ele><time>2026-04-17T08:24:37.521Z</time></trkpt><trkpt lat="46.2790267" lon="12.311835"><ele>489.66666666666663</ele><time>2026-04-17T08:24:38.52Z</time></trkpt><trkpt lat="46.2792317" lon="12.31183"><ele>488.0</ele><time>2026-04-17T08:24:39.519Z</time></trkpt><trkpt lat="46.2794133" lon="12.31181"><ele>488.0</ele><time>2026-04-17T08:24:40.52Z</time></trkpt><trkpt lat="46.2795633" lon="12.311785"><ele>487.99999999999994</ele><time>2026-04-17T08:24:41.521Z</time></trkpt><trkpt lat="46.2796733" lon="12.3117333"><ele>487.99999999999994</ele><time>2026-04-17T08:24:42.521Z</time></trkpt><trkpt lat="46.2797317" lon="12.31165"><ele>488.0</ele><time>2026-04-17T08:24:43.518Z</time></trkpt><trkpt lat="46.279735" lon="12.31154"><ele>488.0</ele><time>2026-04-17T08:24:44.52Z</time></trkpt><trkpt lat="46.2796933" lon="12.3114267"><ele>484.75</ele><time>2026-04-17T08:24:45.521Z</time></trkpt><trkpt lat="46.2796083" lon="12.311325"><ele>481.5</ele><time>2026-04-17T08:24:46.52Z</time></trkpt><trkpt lat="46.2794817" lon="12.3112267"><ele>478.25</ele><time>2026-04-17T08:24:47.519Z</time></trkpt><trkpt lat="46.2793283" lon="12.311125"><ele>475.0</ele><time>2026-04-17T08:24:48.52Z</time></trkpt><trkpt lat="46.27916" lon="12.3110183"><ele>475.0</ele><time>2026-04-17T08:24:49.521Z</time></trkpt><trkpt lat="46.2789867" lon="12.3109283"><ele>475.0</ele><time>2026-04-17T08:24:50.519Z</time></trkpt><trkpt lat="46.2788183" lon="12.3108517"><ele>475.0</ele><time>2026-04-17T08:24:51.519Z</time></trkpt><trkpt lat="46.2786617" lon="12.3107817"><ele>474.0</ele><time>2026-04-17T08:24:52.52Z</time></trkpt><trkpt lat="46.27851" lon="12.3107083"><ele>473.0</ele><time>2026-04-17T08:24:53.52Z</time></trkpt><trkpt lat="46.2783683" lon="12.310635"><ele>472.0</ele><time>2026-04-17T08:24:54.519Z</time></trkpt><trkpt lat="46.2782367" lon="12.31055"><ele>470.0</ele><time>2026-04-17T08:24:55.52Z</time></trkpt><trkpt lat="46.278105" lon="12.3104617"><ele>468.0</ele><time>2026-04-17T08:24:56.522Z</time></trkpt><trkpt lat="46.277975" lon="12.3103667"><ele>466.0</ele><time>2026-04-17T08:24:57.518Z</time></trkpt><trkpt lat="46.2778417" lon="12.3102667"><ele>464.0</ele><time>2026-04-17T08:24:58.52Z</time></trkpt><trkpt lat="46.277705" lon="12.310155"><ele>464.0</ele><time>2026-04-17T08:24:59.519Z</time></trkpt><trkpt lat="46.277565" lon="12.31003"><ele>464.0</ele><time>2026-04-17T08:25:00.52Z</time></trkpt><trkpt lat="46.2774267" lon="12.3098967"><ele>464.0</ele><time>2026-04-17T08:25:01.52Z</time></trkpt><trkpt lat="46.2772933" lon="12.3097633"><ele>462.75</ele><time>2026-04-17T08:25:02.519Z</time></trkpt><trkpt lat="46.2771683" lon="12.3096317"><ele>461.5</ele><time>2026-04-17T08:25:03.519Z</time></trkpt><trkpt lat="46.2770583" lon="12.3095083"><ele>460.25</ele><time>2026-04-17T08:25:04.519Z</time></trkpt><trkpt lat="46.276975" lon="12.309405"><ele>459.0</ele><time>2026-04-17T08:25:05.519Z</time></trkpt><trkpt lat="46.2769133" lon="12.309325"><ele>459.0</ele><time>2026-04-17T08:25:06.52Z</time></trkpt><trkpt lat="46.2768633" lon="12.3092617"><ele>459.0</ele><time>2026-04-17T08:25:07.52Z</time></trkpt><trkpt lat="46.276815" lon="12.3091983"><ele>459.0</ele><time>2026-04-17T08:25:08.519Z</time></trkpt><trkpt lat="46.276755" lon="12.309125"><ele>459.0</ele><time>2026-04-17T08:25:09.521Z</time></trkpt><trkpt lat="46.2766817" lon="12.30903"><ele>459.0</ele><time>2026-04-17T08:25:10.52Z</time></trkpt><trkpt lat="46.2766067" lon="12.3089233"><ele>459.0</ele><time>2026-04-17T08:25:11.52Z</time></trkpt><trkpt lat="46.27653" lon="12.308815"><ele>458.2</ele><time>2026-04-17T08:25:12.52Z</time></trkpt><trkpt lat="46.2764533" lon="12.3087033"><ele>457.4</ele><time>2026-04-17T08:25:13.52Z</time></trkpt><trkpt lat="46.2763783" lon="12.3085967"><ele>456.6</ele><time>2026-04-17T08:25:14.522Z</time></trkpt><trkpt lat="46.2762983" lon="12.3084867"><ele>455.8</ele><time>2026-04-17T08:25:15.519Z</time></trkpt><trkpt lat="46.27621" lon="12.308385"><ele>455.0</ele><time>2026-04-17T08:25:16.521Z</time></trkpt><trkpt lat="46.2761067" lon="12.3082933"><ele>455.0</ele><time>2026-04-17T08:25:17.52Z</time></trkpt><trkpt lat="46.2759783" lon="12.3082317"><ele>455.0</ele><time>2026-04-17T08:25:18.519Z</time></trkpt><trkpt lat="46.275835" lon="12.3082017"><ele>455.0</ele><time>2026-04-17T08:25:19.52Z</time></trkpt><trkpt lat="46.275685" lon="12.3082117"><ele>455.0</ele><time>2026-04-17T08:25:20.52Z</time></trkpt><trkpt lat="46.275535" lon="12.308265"><ele>451.66666666666663</ele><time>2026-04-17T08:25:21.52Z</time></trkpt><trkpt lat="46.27538" lon="12.30835"><ele>448.33333333333337</ele><time>2026-04-17T08:25:22.519Z</time></trkpt><trkpt lat="46.2752217" lon="12.3084433"><ele>445.0</ele><time>2026-04-17T08:25:23.52Z</time></trkpt><trkpt lat="46.275055" lon="12.308545"><ele>445.0</ele><time>2026-04-17T08:25:24.519Z</time></trkpt><trkpt lat="46.2748883" lon="12.3086533"><ele>445.0</ele><time>2026-04-17T08:25:25.52Z</time></trkpt><trkpt lat="46.2747233" lon="12.3087617"><ele>445.0</ele><time>2026-04-17T08:25:26.519Z</time></trkpt><trkpt lat="46.2745683" lon="12.3088617"><ele>445.0</ele><time>2026-04-17T08:25:27.521Z</time></trkpt><trkpt lat="46.27441" lon="12.3089467"><ele>445.0</ele><time>2026-04-17T08:25:28.519Z</time></trkpt><trkpt lat="46.2742417" lon="12.3090267"><ele>445.0</ele><time>2026-04-17T08:25:29.519Z</time></trkpt><trkpt lat="46.274055" lon="12.3090933"><ele>446.33333333333337</ele><time>2026-04-17T08:25:30.519Z</time></trkpt><trkpt lat="46.2738533" lon="12.30914"><ele>447.66666666666663</ele><time>2026-04-17T08:25:31.52Z</time></trkpt><trkpt lat="46.2736317" lon="12.3091633"><ele>449.0</ele><time>2026-04-17T08:25:32.519Z</time></trkpt><trkpt lat="46.2734" lon="12.30916"><ele>449.0</ele><time>2026-04-17T08:25:33.519Z</time></trkpt><trkpt lat="46.2731617" lon="12.3091383"><ele>449.0</ele><time>2026-04-17T08:25:34.52Z</time></trkpt><trkpt lat="46.272915" lon="12.30911"><ele>453.5</ele><time>2026-04-17T08:25:35.52Z</time></trkpt><trkpt lat="46.272675" lon="12.3090783"><ele>458.0</ele><time>2026-04-17T08:25:36.519Z</time></trkpt><trkpt lat="46.27244" lon="12.3090433"><ele>457.0</ele><time>2026-04-17T08:25:37.526Z</time></trkpt><trkpt lat="46.27221" lon="12.3090067"><ele>456.0</ele><time>2026-04-17T08:25:38.521Z</time></trkpt><trkpt lat="46.271985" lon="12.3089667"><ele>456.0</ele><time>2026-04-17T08:25:39.519Z</time></trkpt><trkpt lat="46.2717717" lon="12.3089333"><ele>456.0</ele><time>2026-04-17T08:25:40.519Z</time></trkpt><trkpt lat="46.2715567" lon="12.3089283"><ele>456.0</ele><time>2026-04-17T08:25:41.521Z</time></trkpt><trkpt lat="46.27134" lon="12.308955"><ele>451.5</ele><time>2026-04-17T08:25:42.519Z</time></trkpt><trkpt lat="46.2711267" lon="12.30904"><ele>447.0</ele><time>2026-04-17T08:25:43.521Z</time></trkpt><trkpt lat="46.27091" lon="12.3091517"><ele>447.0</ele><time>2026-04-17T08:25:44.522Z</time></trkpt><trkpt lat="46.2706867" lon="12.30929"><ele>447.0</ele><time>2026-04-17T08:25:45.519Z</time></trkpt><trkpt lat="46.2704567" lon="12.3094367"><ele>445.5</ele><time>2026-04-17T08:25:46.52Z</time></trkpt><trkpt lat="46.27021" lon="12.3095967"><ele>444.0</ele><time>2026-04-17T08:25:47.521Z</time></trkpt><trkpt lat="46.26995" lon="12.3097583"><ele>444.5</ele><time>2026-04-17T08:25:48.52Z</time></trkpt><trkpt lat="46.269685" lon="12.3099233"><ele>445.0</ele><time>2026-04-17T08:25:49.52Z</time></trkpt><trkpt lat="46.269425" lon="12.3100833"><ele>445.0</ele><time>2026-04-17T08:25:50.52Z</time></trkpt><trkpt lat="46.2691733" lon="12.310235"><ele>445.0</ele><time>2026-04-17T08:25:51.519Z</time></trkpt><trkpt lat="46.2689367" lon="12.3103783"><ele>443.33333333333337</ele><time>2026-04-17T08:25:52.519Z</time></trkpt><trkpt lat="46.2687183" lon="12.3105117"><ele>441.66666666666663</ele><time>2026-04-17T08:25:53.52Z</time></trkpt><trkpt lat="46.2685317" lon="12.3106283"><ele>440.0</ele><time>2026-04-17T08:25:54.52Z</time></trkpt><trkpt lat="46.2683733" lon="12.3107267"><ele>441.6</ele><time>2026-04-17T08:25:55.519Z</time></trkpt><trkpt lat="46.2682433" lon="12.3108033"><ele>443.2</ele><time>2026-04-17T08:25:56.52Z</time></trkpt><trkpt lat="46.268135" lon="12.3108433"><ele>444.79999999999995</ele><time>2026-04-17T08:25:57.519Z</time></trkpt><trkpt lat="46.2680483" lon="12.3108417"><ele>446.4</ele><time>2026-04-17T08:25:58.518Z</time></trkpt><trkpt lat="46.26797" lon="12.3108117"><ele>448.0</ele><time>2026-04-17T08:25:59.52Z</time></trkpt><trkpt lat="46.2679433" lon="12.3107033"><ele>446.0</ele><time>2026-04-17T08:26:00.519Z</time></trkpt><trkpt lat="46.2679217" lon="12.310555"><ele>444.0</ele><time>2026-04-17T08:26:01.519Z</time></trkpt><trkpt lat="46.2679217" lon="12.3103483"><ele>442.0</ele><time>2026-04-17T08:26:02.52Z</time></trkpt><trkpt lat="46.2679083" lon="12.3100883"><ele>440.0</ele><time>2026-04-17T08:26:03.519Z</time></trkpt><trkpt lat="46.2678883" lon="12.3097933"><ele>438.5</ele><time>2026-04-17T08:26:04.519Z</time></trkpt><trkpt lat="46.2678667" lon="12.30947"><ele>437.0</ele><time>2026-04-17T08:26:05.519Z</time></trkpt><trkpt lat="46.2678467" lon="12.309125"><ele>436.0</ele><time>2026-04-17T08:26:06.519Z</time></trkpt><trkpt lat="46.2678267" lon="12.3087583"><ele>435.0</ele><time>2026-04-17T08:26:07.52Z</time></trkpt><trkpt lat="46.267805" lon="12.308375"><ele>434.5</ele><time>2026-04-17T08:26:08.52Z</time></trkpt><trkpt lat="46.2677833" lon="12.3079733"><ele>434.0</ele><time>2026-04-17T08:26:09.519Z</time></trkpt><trkpt lat="46.26776" lon="12.3075633"><ele>434.5</ele><time>2026-04-17T08:26:10.519Z</time></trkpt><trkpt lat="46.267735" lon="12.3071433"><ele>435.0</ele><time>2026-04-17T08:26:11.519Z</time></trkpt><trkpt lat="46.2677083" lon="12.3067333"><ele>436.5</ele><time>2026-04-17T08:26:12.519Z</time></trkpt><trkpt lat="46.267685" lon="12.3063433"><ele>438.0</ele><time>2026-04-17T08:26:13.52Z</time></trkpt><trkpt lat="46.267665" lon="12.3059783"><ele>438.0</ele><time>2026-04-17T08:26:14.522Z</time></trkpt><trkpt lat="46.2676517" lon="12.305655"><ele>438.0</ele><time>2026-04-17T08:26:15.518Z</time></trkpt><trkpt lat="46.2676533" lon="12.30538"><ele>438.0</ele><time>2026-04-17T08:26:16.519Z</time></trkpt><trkpt lat="46.26767" lon="12.3051383"><ele>439.0</ele><time>2026-04-17T08:26:17.519Z</time></trkpt><trkpt lat="46.2677017" lon="12.30492"><ele>440.0</ele><time>2026-04-17T08:26:18.518Z</time></trkpt><trkpt lat="46.2677383" lon="12.30472"><ele>441.0</ele><time>2026-04-17T08:26:19.52Z</time></trkpt><trkpt lat="46.2677767" lon="12.304535"><ele>442.0</ele><time>2026-04-17T08:26:20.518Z</time></trkpt><trkpt lat="46.2678167" lon="12.3043683"><ele>442.0</ele><time>2026-04-17T08:26:21.518Z</time></trkpt><trkpt lat="46.2678567" lon="12.3042133"><ele>442.00000000000006</ele><time>2026-04-17T08:26:22.519Z</time></trkpt><trkpt lat="46.2678883" lon="12.3040633"><ele>442.00000000000006</ele><time>2026-04-17T08:26:23.52Z</time></trkpt><trkpt lat="46.2679067" lon="12.303915"><ele>442.0</ele><time>2026-04-17T08:26:24.518Z</time></trkpt><trkpt lat="46.2679117" lon="12.30377"><ele>442.0</ele><time>2026-04-17T08:26:25.519Z</time></trkpt><trkpt lat="46.2679083" lon="12.303635"><ele>443.00000000000006</ele><time>2026-04-17T08:26:26.519Z</time></trkpt><trkpt lat="46.267895" lon="12.303515"><ele>444.0</ele><time>2026-04-17T08:26:27.518Z</time></trkpt><trkpt lat="46.267875" lon="12.3034033"><ele>445.0</ele><time>2026-04-17T08:26:28.518Z</time></trkpt><trkpt lat="46.26785" lon="12.3032967"><ele>446.0</ele><time>2026-04-17T08:26:29.519Z</time></trkpt><trkpt lat="46.2678183" lon="12.3031917"><ele>447.00000000000006</ele><time>2026-04-17T08:26:30.518Z</time></trkpt><trkpt lat="46.2677733" lon="12.3030933"><ele>448.0</ele><time>2026-04-17T08:26:31.519Z</time></trkpt><trkpt lat="46.267715" lon="12.30298"><ele>450.25</ele><time>2026-04-17T08:26:32.518Z</time></trkpt><trkpt lat="46.2676417" lon="12.3028583"><ele>452.5</ele><time>2026-04-17T08:26:33.518Z</time></trkpt><trkpt lat="46.2675467" lon="12.3027417"><ele>454.75</ele><time>2026-04-17T08:26:34.518Z</time></trkpt><trkpt lat="46.2674317" lon="12.3026317"><ele>457.0</ele><time>2026-04-17T08:26:35.519Z</time></trkpt><trkpt lat="46.2672967" lon="12.3025317"><ele>457.6666666666667</ele><time>2026-04-17T08:26:36.517Z</time></trkpt><trkpt lat="46.2671467" lon="12.30246"><ele>458.33333333333337</ele><time>2026-04-17T08:26:37.52Z</time></trkpt><trkpt lat="46.266985" lon="12.3024117"><ele>459.0</ele><time>2026-04-17T08:26:38.518Z</time></trkpt><trkpt lat="46.26681" lon="12.3023933"><ele>459.0</ele><time>2026-04-17T08:26:39.518Z</time></trkpt><trkpt lat="46.26663" lon="12.3023933"><ele>459.0</ele><time>2026-04-17T08:26:40.518Z</time></trkpt><trkpt lat="46.2664467" lon="12.3024283"><ele>459.0</ele><time>2026-04-17T08:26:41.518Z</time></trkpt><trkpt lat="46.2662633" lon="12.302495"><ele>460.66666666666663</ele><time>2026-04-17T08:26:42.518Z</time></trkpt><trkpt lat="46.2660917" lon="12.302585"><ele>462.3333333333333</ele><time>2026-04-17T08:26:43.518Z</time></trkpt><trkpt lat="46.2659333" lon="12.3026767"><ele>464.0</ele><time>2026-04-17T08:26:44.527Z</time></trkpt><trkpt lat="46.265795" lon="12.302765"><ele>464.0</ele><time>2026-04-17T08:26:45.518Z</time></trkpt><trkpt lat="46.265665" lon="12.3028483"><ele>464.0</ele><time>2026-04-17T08:26:46.518Z</time></trkpt><trkpt lat="46.2655467" lon="12.3029217"><ele>464.0</ele><time>2026-04-17T08:26:47.519Z</time></trkpt><trkpt lat="46.2654433" lon="12.3029733"><ele>464.0</ele><time>2026-04-17T08:26:48.518Z</time></trkpt><trkpt lat="46.265345" lon="12.3029867"><ele>465.66666666666663</ele><time>2026-04-17T08:26:49.52Z</time></trkpt><trkpt lat="46.2652483" lon="12.3029583"><ele>467.3333333333333</ele><time>2026-04-17T08:26:50.518Z</time></trkpt><trkpt lat="46.2651683" lon="12.3028967"><ele>469.0</ele><time>2026-04-17T08:26:51.518Z</time></trkpt><trkpt lat="46.2651117" lon="12.30281"><ele>470.66666666666663</ele><time>2026-04-17T08:26:52.518Z</time></trkpt><trkpt lat="46.2650733" lon="12.3027117"><ele>472.3333333333333</ele><time>2026-04-17T08:26:53.518Z</time></trkpt><trkpt lat="46.2650617" lon="12.3026017"><ele>474.0</ele><time>2026-04-17T08:26:54.517Z</time></trkpt><trkpt lat="46.2651067" lon="12.3024617"><ele>474.0</ele><time>2026-04-17T08:26:55.518Z</time></trkpt><trkpt lat="46.265175" lon="12.3023267"><ele>474.0</ele><time>2026-04-17T08:26:56.52Z</time></trkpt><trkpt lat="46.265265" lon="12.3021983"><ele>474.0</ele><time>2026-04-17T08:26:57.518Z</time></trkpt><trkpt lat="46.2653633" lon="12.3020717"><ele>474.0</ele><time>2026-04-17T08:26:58.519Z</time></trkpt><trkpt lat="46.265465" lon="12.301955"><ele>473.75</ele><time>2026-04-17T08:26:59.518Z</time></trkpt><trkpt lat="46.265565" lon="12.301855"><ele>473.5</ele><time>2026-04-17T08:27:00.518Z</time></trkpt><trkpt lat="46.2656667" lon="12.30177"><ele>473.25</ele><time>2026-04-17T08:27:01.518Z</time></trkpt><trkpt lat="46.26577" lon="12.301705"><ele>473.0</ele><time>2026-04-17T08:27:02.518Z</time></trkpt><trkpt lat="46.2658717" lon="12.3016567"><ele>473.0</ele><time>2026-04-17T08:27:03.518Z</time></trkpt><trkpt lat="46.2659717" lon="12.30162"><ele>472.99999999999994</ele><time>2026-04-17T08:27:04.519Z</time></trkpt><trkpt lat="46.26607" lon="12.3015917"><ele>472.99999999999994</ele><time>2026-04-17T08:27:05.518Z</time></trkpt><trkpt lat="46.2661683" lon="12.3015717"><ele>473.0</ele><time>2026-04-17T08:27:06.518Z</time></trkpt><trkpt lat="46.266265" lon="12.3015583"><ele>473.0</ele><time>2026-04-17T08:27:07.518Z</time></trkpt><trkpt lat="46.2663617" lon="12.3015433"><ele>471.79999999999995</ele><time>2026-04-17T08:27:08.521Z</time></trkpt><trkpt lat="46.2664583" lon="12.3015267"><ele>470.59999999999997</ele><time>2026-04-17T08:27:09.518Z</time></trkpt><trkpt lat="46.2665583" lon="12.3015067"><ele>469.40000000000003</ele><time>2026-04-17T08:27:10.518Z</time></trkpt><trkpt lat="46.2666617" lon="12.3014833"><ele>468.20000000000005</ele><time>2026-04-17T08:27:11.517Z</time></trkpt><trkpt lat="46.26677" lon="12.301455"><ele>467.0</ele><time>2026-04-17T08:27:12.518Z</time></trkpt><trkpt lat="46.266885" lon="12.3014367"><ele>467.0</ele><time>2026-04-17T08:27:13.518Z</time></trkpt><trkpt lat="46.267005" lon="12.3014367"><ele>467.0</ele><time>2026-04-17T08:27:14.52Z</time></trkpt><trkpt lat="46.26713" lon="12.301425"><ele>467.0</ele><time>2026-04-17T08:27:15.518Z</time></trkpt><trkpt lat="46.2672567" lon="12.3014467"><ele>467.0</ele><time>2026-04-17T08:27:16.518Z</time></trkpt><trkpt lat="46.2673883" lon="12.301475"><ele>467.0</ele><time>2026-04-17T08:27:17.518Z</time></trkpt><trkpt lat="46.26752" lon="12.301505"><ele>467.0</ele><time>2026-04-17T08:27:18.52Z</time></trkpt><trkpt lat="46.2676483" lon="12.3015467"><ele>467.0</ele><time>2026-04-17T08:27:19.519Z</time></trkpt><trkpt lat="46.2677767" lon="12.3015833"><ele>467.0</ele><time>2026-04-17T08:27:20.519Z</time></trkpt><trkpt lat="46.267905" lon="12.3016183"><ele>467.0</ele><time>2026-04-17T08:27:21.518Z</time></trkpt><trkpt lat="46.2680333" lon="12.3016517"><ele>467.0</ele><time>2026-04-17T08:27:22.518Z</time></trkpt><trkpt lat="46.26816" lon="12.3016833"><ele>467.0</ele><time>2026-04-17T08:27:23.518Z</time></trkpt><trkpt lat="46.2682833" lon="12.3017167"><ele>467.0</ele><time>2026-04-17T08:27:24.518Z</time></trkpt><trkpt lat="46.2684067" lon="12.301745"><ele>467.75</ele><time>2026-04-17T08:27:25.518Z</time></trkpt><trkpt lat="46.2685317" lon="12.3017733"><ele>468.5</ele><time>2026-04-17T08:27:26.519Z</time></trkpt><trkpt lat="46.2686733" lon="12.30179"><ele>469.25</ele><time>2026-04-17T08:27:27.519Z</time></trkpt><trkpt lat="46.2688283" lon="12.3017917"><ele>470.0</ele><time>2026-04-17T08:27:28.519Z</time></trkpt><trkpt lat="46.269" lon="12.3017817"><ele>470.3333333333333</ele><time>2026-04-17T08:27:29.519Z</time></trkpt><trkpt lat="46.2691917" lon="12.3017683"><ele>470.66666666666663</ele><time>2026-04-17T08:27:30.518Z</time></trkpt><trkpt lat="46.2693983" lon="12.3017567"><ele>471.0</ele><time>2026-04-17T08:27:31.518Z</time></trkpt><trkpt lat="46.269605" lon="12.3017467"><ele>470.0</ele><time>2026-04-17T08:27:32.519Z</time></trkpt><trkpt lat="46.2698" lon="12.3017267"><ele>469.0</ele><time>2026-04-17T08:27:33.519Z</time></trkpt><trkpt lat="46.2699733" lon="12.30168"><ele>468.0</ele><time>2026-04-17T08:27:34.521Z</time></trkpt><trkpt lat="46.2701367" lon="12.3016117"><ele>468.0</ele><time>2026-04-17T08:27:35.519Z</time></trkpt><trkpt lat="46.270285" lon="12.3015267"><ele>468.0</ele><time>2026-04-17T08:27:36.518Z</time></trkpt><trkpt lat="46.2704283" lon="12.301435"><ele>468.0</ele><time>2026-04-17T08:27:37.52Z</time></trkpt><trkpt lat="46.2705717" lon="12.3013433"><ele>471.0</ele><time>2026-04-17T08:27:38.519Z</time></trkpt><trkpt lat="46.2707133" lon="12.30125"><ele>474.0</ele><time>2026-04-17T08:27:39.517Z</time></trkpt><trkpt lat="46.2708567" lon="12.301155"><ele>477.0</ele><time>2026-04-17T08:27:40.518Z</time></trkpt><trkpt lat="46.2709967" lon="12.30106"><ele>477.0</ele><time>2026-04-17T08:27:41.518Z</time></trkpt><trkpt lat="46.27114" lon="12.300965"><ele>477.0</ele><time>2026-04-17T08:27:42.517Z</time></trkpt><trkpt lat="46.271285" lon="12.3008683"><ele>477.0</ele><time>2026-04-17T08:27:43.519Z</time></trkpt><trkpt lat="46.2714333" lon="12.3007733"><ele>474.0</ele><time>2026-04-17T08:27:44.519Z</time></trkpt><trkpt lat="46.2715883" lon="12.3006817"><ele>471.0</ele><time>2026-04-17T08:27:45.519Z</time></trkpt><trkpt lat="46.2717417" lon="12.3006067"><ele>468.0</ele><time>2026-04-17T08:27:46.52Z</time></trkpt><trkpt lat="46.2718933" lon="12.30055"><ele>472.75</ele><time>2026-04-17T08:27:47.519Z</time></trkpt><trkpt lat="46.27204" lon="12.3005133"><ele>477.5</ele><time>2026-04-17T08:27:48.519Z</time></trkpt><trkpt lat="46.2721867" lon="12.3005"><ele>482.25</ele><time>2026-04-17T08:27:49.519Z</time></trkpt><trkpt lat="46.2723267" lon="12.3005133"><ele>487.0</ele><time>2026-04-17T08:27:50.518Z</time></trkpt><trkpt lat="46.2724683" lon="12.300555"><ele>481.0</ele><time>2026-04-17T08:27:51.517Z</time></trkpt><trkpt lat="46.272615" lon="12.3006117"><ele>475.0</ele><time>2026-04-17T08:27:52.52Z</time></trkpt><trkpt lat="46.2727717" lon="12.3006733"><ele>469.0</ele><time>2026-04-17T08:27:53.518Z</time></trkpt><trkpt lat="46.2729367" lon="12.300735"><ele>472.33333333333337</ele><time>2026-04-17T08:27:54.518Z</time></trkpt><trkpt lat="46.2731133" lon="12.3008"><ele>475.66666666666663</ele><time>2026-04-17T08:27:55.519Z</time></trkpt><trkpt lat="46.273295" lon="12.300865"><ele>479.0</ele><time>2026-04-17T08:27:56.519Z</time></trkpt><trkpt lat="46.2734867" lon="12.30092"><ele>479.0</ele><time>2026-04-17T08:27:57.519Z</time></trkpt><trkpt lat="46.27369" lon="12.3009567"><ele>479.0</ele><time>2026-04-17T08:27:58.523Z</time></trkpt><trkpt lat="46.2738933" lon="12.3009917"><ele>479.0</ele><time>2026-04-17T08:27:59.519Z</time></trkpt><trkpt lat="46.2740967" lon="12.301015"><ele>481.66666666666663</ele><time>2026-04-17T08:28:00.519Z</time></trkpt><trkpt lat="46.2743" lon="12.30102"><ele>484.33333333333337</ele><time>2026-04-17T08:28:01.519Z</time></trkpt><trkpt lat="46.2744983" lon="12.3010133"><ele>487.0</ele><time>2026-04-17T08:28:02.52Z</time></trkpt><trkpt lat="46.27469" lon="12.3010017"><ele>488.0</ele><time>2026-04-17T08:28:03.519Z</time></trkpt><trkpt lat="46.2748833" lon="12.3009867"><ele>489.0</ele><time>2026-04-17T08:28:04.52Z</time></trkpt><trkpt lat="46.2750783" lon="12.3009733"><ele>490.0</ele><time>2026-04-17T08:28:05.52Z</time></trkpt><trkpt lat="46.27527" lon="12.3009583"><ele>490.0</ele><time>2026-04-17T08:28:06.519Z</time></trkpt><trkpt lat="46.2754617" lon="12.30094"><ele>490.0</ele><time>2026-04-17T08:28:07.52Z</time></trkpt><trkpt lat="46.2756583" lon="12.3009217"><ele>490.0</ele><time>2026-04-17T08:28:08.52Z</time></trkpt><trkpt lat="46.2758567" lon="12.3009017"><ele>491.6666666666667</ele><time>2026-04-17T08:28:09.518Z</time></trkpt><trkpt lat="46.2760517" lon="12.3008867"><ele>493.33333333333337</ele><time>2026-04-17T08:28:10.519Z</time></trkpt><trkpt lat="46.27624" lon="12.3008733"><ele>495.0</ele><time>2026-04-17T08:28:11.518Z</time></trkpt><trkpt lat="46.2764133" lon="12.3008583"><ele>496.0</ele><time>2026-04-17T08:28:12.518Z</time></trkpt><trkpt lat="46.276585" lon="12.3008433"><ele>497.0</ele><time>2026-04-17T08:28:13.519Z</time></trkpt><trkpt lat="46.276755" lon="12.3008517"><ele>498.0</ele><time>2026-04-17T08:28:14.519Z</time></trkpt><trkpt lat="46.2769233" lon="12.300895"><ele>498.0</ele><time>2026-04-17T08:28:15.519Z</time></trkpt><trkpt lat="46.2770833" lon="12.300975"><ele>498.0</ele><time>2026-04-17T08:28:16.52Z</time></trkpt><trkpt lat="46.27723" lon="12.3010983"><ele>498.0</ele><time>2026-04-17T08:28:17.521Z</time></trkpt><trkpt lat="46.2773733" lon="12.3012483"><ele>495.0</ele><time>2026-04-17T08:28:18.519Z</time></trkpt><trkpt lat="46.27752" lon="12.3014117"><ele>492.0</ele><time>2026-04-17T08:28:19.52Z</time></trkpt><trkpt lat="46.2776767" lon="12.3015733"><ele>489.0</ele><time>2026-04-17T08:28:20.519Z</time></trkpt><trkpt lat="46.27785" lon="12.30172"><ele>489.0</ele><time>2026-04-17T08:28:21.521Z</time></trkpt><trkpt lat="46.27803" lon="12.3018433"><ele>489.0</ele><time>2026-04-17T08:28:22.52Z</time></trkpt><trkpt lat="46.2782067" lon="12.3019533"><ele>489.0</ele><time>2026-04-17T08:28:23.52Z</time></trkpt><trkpt lat="46.278365" lon="12.30207"><ele>489.66666666666663</ele><time>2026-04-17T08:28:24.519Z</time></trkpt><trkpt lat="46.2784967" lon="12.3022033"><ele>490.3333333333333</ele><time>2026-04-17T08:28:25.521Z</time></trkpt><trkpt lat="46.27862" lon="12.30236"><ele>491.0</ele><time>2026-04-17T08:28:26.52Z</time></trkpt><trkpt lat="46.2787567" lon="12.3025233"><ele>491.0</ele><time>2026-04-17T08:28:27.517Z</time></trkpt><trkpt lat="46.2789167" lon="12.3026583"><ele>491.0</ele><time>2026-04-17T08:28:28.519Z</time></trkpt><trkpt lat="46.2790917" lon="12.302745"><ele>491.0</ele><time>2026-04-17T08:28:29.52Z</time></trkpt><trkpt lat="46.279285" lon="12.3027883"><ele>495.0</ele><time>2026-04-17T08:28:30.518Z</time></trkpt><trkpt lat="46.2794867" lon="12.3028133"><ele>499.0</ele><time>2026-04-17T08:28:31.519Z</time></trkpt><trkpt lat="46.2796883" lon="12.3028367"><ele>503.0</ele><time>2026-04-17T08:28:32.519Z</time></trkpt><trkpt lat="46.2798867" lon="12.3028583"><ele>507.0</ele><time>2026-04-17T08:28:33.518Z</time></trkpt><trkpt lat="46.2800833" lon="12.3028967"><ele>511.0</ele><time>2026-04-17T08:28:34.519Z</time></trkpt><trkpt lat="46.2802717" lon="12.3029683"><ele>515.0</ele><time>2026-04-17T08:28:35.519Z</time></trkpt><trkpt lat="46.2804533" lon="12.30307"><ele>511.66666666666663</ele><time>2026-04-17T08:28:36.518Z</time></trkpt><trkpt lat="46.2806267" lon="12.30319"><ele>508.33333333333337</ele><time>2026-04-17T08:28:37.519Z</time></trkpt><trkpt lat="46.280795" lon="12.3033183"><ele>505.0</ele><time>2026-04-17T08:28:38.519Z</time></trkpt><trkpt lat="46.28096" lon="12.3034333"><ele>505.0</ele><time>2026-04-17T08:28:39.518Z</time></trkpt><trkpt lat="46.2811217" lon="12.30352"><ele>505.0</ele><time>2026-04-17T08:28:40.519Z</time></trkpt><trkpt lat="46.2812783" lon="12.303585"><ele>505.0</ele><time>2026-04-17T08:28:41.519Z</time></trkpt><trkpt lat="46.28143" lon="12.3036367"><ele>510.5</ele><time>2026-04-17T08:28:42.518Z</time></trkpt><trkpt lat="46.2815717" lon="12.3036867"><ele>516.0</ele><time>2026-04-17T08:28:43.518Z</time></trkpt><trkpt lat="46.2817067" lon="12.303735"><ele>521.5</ele><time>2026-04-17T08:28:44.519Z</time></trkpt><trkpt lat="46.2818333" lon="12.30379"><ele>527.0</ele><time>2026-04-17T08:28:45.518Z</time></trkpt><trkpt lat="46.2819533" lon="12.3038583"><ele>522.25</ele><time>2026-04-17T08:28:46.518Z</time></trkpt><trkpt lat="46.282065" lon="12.3039467"><ele>517.5</ele><time>2026-04-17T08:28:47.523Z</time></trkpt><trkpt lat="46.2821733" lon="12.3040467"><ele>512.75</ele><time>2026-04-17T08:28:48.518Z</time></trkpt><trkpt lat="46.2822767" lon="12.30417"><ele>508.0</ele><time>2026-04-17T08:28:49.519Z</time></trkpt><trkpt lat="46.2823817" lon="12.30431"><ele>508.0</ele><time>2026-04-17T08:28:50.52Z</time></trkpt><trkpt lat="46.2824833" lon="12.3044617"><ele>508.0</ele><time>2026-04-17T08:28:51.519Z</time></trkpt><trkpt lat="46.2825717" lon="12.30463"><ele>508.0</ele><time>2026-04-17T08:28:52.518Z</time></trkpt><trkpt lat="46.2826367" lon="12.3048183"><ele>508.0</ele><time>2026-04-17T08:28:53.518Z</time></trkpt><trkpt lat="46.2826767" lon="12.3050267"><ele>502.0</ele><time>2026-04-17T08:28:54.518Z</time></trkpt><trkpt lat="46.28269" lon="12.30525"><ele>496.0</ele><time>2026-04-17T08:28:55.519Z</time></trkpt><trkpt lat="46.282685" lon="12.3054883"><ele>490.0</ele><time>2026-04-17T08:28:56.521Z</time></trkpt><trkpt lat="46.28267" lon="12.3057417"><ele>490.0</ele><time>2026-04-17T08:28:57.518Z</time></trkpt><trkpt lat="46.2826533" lon="12.306005"><ele>490.0</ele><time>2026-04-17T08:28:58.518Z</time></trkpt><trkpt lat="46.2826417" lon="12.306265"><ele>490.0</ele><time>2026-04-17T08:28:59.522Z</time></trkpt><trkpt lat="46.28264" lon="12.3065167"><ele>489.6666666666667</ele><time>2026-04-17T08:29:00.519Z</time></trkpt><trkpt lat="46.2826533" lon="12.3067533"><ele>489.33333333333337</ele><time>2026-04-17T08:29:01.519Z</time></trkpt><trkpt lat="46.28268" lon="12.306995"><ele>489.0</ele><time>2026-04-17T08:29:02.518Z</time></trkpt><trkpt lat="46.282715" lon="12.3072417"><ele>488.33333333333337</ele><time>2026-04-17T08:29:03.518Z</time></trkpt><trkpt lat="46.2827533" lon="12.307485"><ele>487.6666666666667</ele><time>2026-04-17T08:29:04.519Z</time></trkpt><trkpt lat="46.2827983" lon="12.3077083"><ele>487.0</ele><time>2026-04-17T08:29:05.519Z</time></trkpt><trkpt lat="46.28286" lon="12.307905"><ele>487.0</ele><time>2026-04-17T08:29:06.518Z</time></trkpt><trkpt lat="46.2829433" lon="12.3080683"><ele>487.0</ele><time>2026-04-17T08:29:07.518Z</time></trkpt><trkpt lat="46.2830533" lon="12.3082117"><ele>487.0</ele><time>2026-04-17T08:29:08.519Z</time></trkpt><trkpt lat="46.2831883" lon="12.30836"><ele>488.0</ele><time>2026-04-17T08:29:09.519Z</time></trkpt><trkpt lat="46.2833367" lon="12.3085167"><ele>489.0</ele><time>2026-04-17T08:29:10.518Z</time></trkpt><trkpt lat="46.2834883" lon="12.308675"><ele>490.0</ele><time>2026-04-17T08:29:11.523Z</time></trkpt><trkpt lat="46.283635" lon="12.3088233"><ele>490.6666666666667</ele><time>2026-04-17T08:29:12.519Z</time></trkpt><trkpt lat="46.2837767" lon="12.3089683"><ele>491.33333333333337</ele><time>2026-04-17T08:29:13.519Z</time></trkpt><trkpt lat="46.283915" lon="12.3091083"><ele>492.0</ele><time>2026-04-17T08:29:14.52Z</time></trkpt><trkpt lat="46.2840617" lon="12.309255"><ele>492.0</ele><time>2026-04-17T08:29:15.518Z</time></trkpt><trkpt lat="46.284215" lon="12.3094"><ele>492.0</ele><time>2026-04-17T08:29:16.518Z</time></trkpt><trkpt lat="46.2843783" lon="12.3095283"><ele>492.0</ele><time>2026-04-17T08:29:17.519Z</time></trkpt><trkpt lat="46.2845417" lon="12.3096417"><ele>491.0</ele><time>2026-04-17T08:29:18.518Z</time></trkpt><trkpt lat="46.2847017" lon="12.3097467"><ele>490.0</ele><time>2026-04-17T08:29:19.519Z</time></trkpt><trkpt lat="46.2848533" lon="12.309855"><ele>489.0</ele><time>2026-04-17T08:29:20.519Z</time></trkpt><trkpt lat="46.2850017" lon="12.3099783"><ele>489.0</ele><time>2026-04-17T08:29:21.518Z</time></trkpt><trkpt lat="46.28515" lon="12.3101183"><ele>489.0</ele><time>2026-04-17T08:29:22.52Z</time></trkpt><trkpt lat="46.2852917" lon="12.3102683"><ele>489.0</ele><time>2026-04-17T08:29:23.519Z</time></trkpt><trkpt lat="46.2854317" lon="12.310415"><ele>489.0</ele><time>2026-04-17T08:29:24.518Z</time></trkpt><trkpt lat="46.2855767" lon="12.3105533"><ele>489.0</ele><time>2026-04-17T08:29:25.519Z</time></trkpt><trkpt lat="46.28573" lon="12.310675"><ele>489.0</ele><time>2026-04-17T08:29:26.52Z</time></trkpt><trkpt lat="46.285895" lon="12.31078"><ele>488.0</ele><time>2026-04-17T08:29:27.518Z</time></trkpt><trkpt lat="46.2860667" lon="12.3108617"><ele>487.0</ele><time>2026-04-17T08:29:28.519Z</time></trkpt><trkpt lat="46.2862433" lon="12.3109217"><ele>486.0</ele><time>2026-04-17T08:29:29.519Z</time></trkpt><trkpt lat="46.2864283" lon="12.3109567"><ele>488.66666666666663</ele><time>2026-04-17T08:29:30.518Z</time></trkpt><trkpt lat="46.2866267" lon="12.3109667"><ele>491.3333333333333</ele><time>2026-04-17T08:29:31.519Z</time></trkpt><trkpt lat="46.2868317" lon="12.310955"><ele>494.0</ele><time>2026-04-17T08:29:32.519Z</time></trkpt><trkpt lat="46.28704" lon="12.3109283"><ele>494.0</ele><time>2026-04-17T08:29:33.518Z</time></trkpt><trkpt lat="46.2872583" lon="12.3108883"><ele>494.0</ele><time>2026-04-17T08:29:34.519Z</time></trkpt><trkpt lat="46.2874933" lon="12.3108367"><ele>489.5</ele><time>2026-04-17T08:29:35.519Z</time></trkpt><trkpt lat="46.28773" lon="12.3107917"><ele>485.0</ele><time>2026-04-17T08:29:36.518Z</time></trkpt><trkpt lat="46.2879717" lon="12.3107517"><ele>481.5</ele><time>2026-04-17T08:29:37.519Z</time></trkpt><trkpt lat="46.2882167" lon="12.310715"><ele>478.0</ele><time>2026-04-17T08:29:38.519Z</time></trkpt><trkpt lat="46.288465" lon="12.31068"><ele>478.0</ele><time>2026-04-17T08:29:39.518Z</time></trkpt><trkpt lat="46.2887183" lon="12.3106467"><ele>478.0</ele><time>2026-04-17T08:29:40.519Z</time></trkpt><trkpt lat="46.2889767" lon="12.3106117"><ele>488.5</ele><time>2026-04-17T08:29:41.519Z</time></trkpt><trkpt lat="46.2892333" lon="12.3105733"><ele>499.0</ele><time>2026-04-17T08:29:42.518Z</time></trkpt><trkpt lat="46.2894833" lon="12.31054"><ele>499.0</ele><time>2026-04-17T08:29:43.519Z</time></trkpt><trkpt lat="46.28973" lon="12.310515"><ele>499.0</ele><time>2026-04-17T08:29:44.521Z</time></trkpt><trkpt lat="46.2899817" lon="12.3105017"><ele>495.5</ele><time>2026-04-17T08:29:45.518Z</time></trkpt><trkpt lat="46.2902367" lon="12.3105033"><ele>492.0</ele><time>2026-04-17T08:29:46.519Z</time></trkpt><trkpt lat="46.290485" lon="12.3105217"><ele>492.5</ele><time>2026-04-17T08:29:47.519Z</time></trkpt><trkpt lat="46.2907267" lon="12.3105517"><ele>493.0</ele><time>2026-04-17T08:29:48.518Z</time></trkpt><trkpt lat="46.2909667" lon="12.3105917"><ele>480.5</ele><time>2026-04-17T08:29:49.519Z</time></trkpt><trkpt lat="46.2912117" lon="12.310635"><ele>468.0</ele><time>2026-04-17T08:29:50.52Z</time></trkpt><trkpt lat="46.29146" lon="12.310675"><ele>468.0</ele><time>2026-04-17T08:29:51.518Z</time></trkpt><trkpt lat="46.2917133" lon="12.3107117"><ele>468.0</ele><time>2026-04-17T08:29:52.52Z</time></trkpt><trkpt lat="46.2919733" lon="12.3107417"><ele>468.0</ele><time>2026-04-17T08:29:53.519Z</time></trkpt><trkpt lat="46.292235" lon="12.3107683"><ele>468.0</ele><time>2026-04-17T08:29:54.518Z</time></trkpt><trkpt lat="46.292495" lon="12.31079"><ele>467.0</ele><time>2026-04-17T08:29:55.519Z</time></trkpt><trkpt lat="46.2927433" lon="12.3108117"><ele>466.0</ele><time>2026-04-17T08:29:56.519Z</time></trkpt><trkpt lat="46.2929833" lon="12.3108233"><ele>469.0</ele><time>2026-04-17T08:29:57.519Z</time></trkpt><trkpt lat="46.2932133" lon="12.3108167"><ele>472.0</ele><time>2026-04-17T08:29:58.519Z</time></trkpt><trkpt lat="46.2934367" lon="12.3107767"><ele>472.0</ele><time>2026-04-17T08:29:59.519Z</time></trkpt><trkpt lat="46.29365" lon="12.31073"><ele>472.0</ele><time>2026-04-17T08:30:00.518Z</time></trkpt><trkpt lat="46.2938567" lon="12.3106967"><ele>472.0</ele><time>2026-04-17T08:30:01.519Z</time></trkpt><trkpt lat="46.2940583" lon="12.3106783"><ele>469.33333333333337</ele><time>2026-04-17T08:30:02.519Z</time></trkpt><trkpt lat="46.2942533" lon="12.3106667"><ele>466.66666666666663</ele><time>2026-04-17T08:30:03.519Z</time></trkpt><trkpt lat="46.2944417" lon="12.310635"><ele>464.0</ele><time>2026-04-17T08:30:04.519Z</time></trkpt><trkpt lat="46.29462" lon="12.3106017"><ele>467.66666666666663</ele><time>2026-04-17T08:30:05.519Z</time></trkpt><trkpt lat="46.2947967" lon="12.3105733"><ele>471.33333333333337</ele><time>2026-04-17T08:30:06.519Z</time></trkpt><trkpt lat="46.2949633" lon="12.3105967"><ele>475.0</ele><time>2026-04-17T08:30:07.52Z</time></trkpt><trkpt lat="46.2951217" lon="12.3106917"><ele>475.0</ele><time>2026-04-17T08:30:08.519Z</time></trkpt><trkpt lat="46.295275" lon="12.31082"><ele>475.0</ele><time>2026-04-17T08:30:09.518Z</time></trkpt><trkpt lat="46.2954267" lon="12.3109683"><ele>475.0</ele><time>2026-04-17T08:30:10.518Z</time></trkpt><trkpt lat="46.295555" lon="12.3111633"><ele>472.33333333333337</ele><time>2026-04-17T08:30:11.518Z</time></trkpt><trkpt lat="46.29567" lon="12.3113883"><ele>469.66666666666663</ele><time>2026-04-17T08:30:12.518Z</time></trkpt><trkpt lat="46.2957883" lon="12.3115883"><ele>467.0</ele><time>2026-04-17T08:30:13.519Z</time></trkpt><trkpt lat="46.295895" lon="12.3118033"><ele>467.0</ele><time>2026-04-17T08:30:14.519Z</time></trkpt><trkpt lat="46.29603" lon="12.311975"><ele>467.0</ele><time>2026-04-17T08:30:15.517Z</time></trkpt><trkpt lat="46.2961783" lon="12.3121333"><ele>467.0</ele><time>2026-04-17T08:30:16.522Z</time></trkpt><trkpt lat="46.2963283" lon="12.3122967"><ele>470.3333333333333</ele><time>2026-04-17T08:30:17.52Z</time></trkpt><trkpt lat="46.2964833" lon="12.312465"><ele>473.66666666666663</ele><time>2026-04-17T08:30:18.517Z</time></trkpt><trkpt lat="46.2966417" lon="12.3126367"><ele>477.0</ele><time>2026-04-17T08:30:19.517Z</time></trkpt><trkpt lat="46.296805" lon="12.3128183"><ele>477.0</ele><time>2026-04-17T08:30:20.518Z</time></trkpt><trkpt lat="46.2969733" lon="12.3130117"><ele>477.0</ele><time>2026-04-17T08:30:21.517Z</time></trkpt><trkpt lat="46.297145" lon="12.313205"><ele>477.0</ele><time>2026-04-17T08:30:22.517Z</time></trkpt><trkpt lat="46.2973067" lon="12.3133967"><ele>481.33333333333337</ele><time>2026-04-17T08:30:23.516Z</time></trkpt><trkpt lat="46.2974617" lon="12.3135783"><ele>485.6666666666667</ele><time>2026-04-17T08:30:24.518Z</time></trkpt><trkpt lat="46.2976083" lon="12.313755"><ele>490.0</ele><time>2026-04-17T08:30:25.522Z</time></trkpt><trkpt lat="46.29775" lon="12.313915"><ele>486.33333333333337</ele><time>2026-04-17T08:30:26.518Z</time></trkpt><trkpt lat="46.2979017" lon="12.3140417"><ele>482.66666666666663</ele><time>2026-04-17T08:30:27.518Z</time></trkpt><trkpt lat="46.2980717" lon="12.314135"><ele>479.0</ele><time>2026-04-17T08:30:28.516Z</time></trkpt><trkpt lat="46.2982517" lon="12.314215"><ele>479.0</ele><time>2026-04-17T08:30:29.519Z</time></trkpt><trkpt lat="46.2984283" lon="12.3143083"><ele>479.0</ele><time>2026-04-17T08:30:30.519Z</time></trkpt><trkpt lat="46.2985967" lon="12.3144433"><ele>479.0</ele><time>2026-04-17T08:30:31.52Z</time></trkpt><trkpt lat="46.2987633" lon="12.3146067"><ele>477.0</ele><time>2026-04-17T08:30:32.518Z</time></trkpt><trkpt lat="46.2989467" lon="12.31476"><ele>475.0</ele><time>2026-04-17T08:30:33.517Z</time></trkpt><trkpt lat="46.2991383" lon="12.3149167"><ele>473.0</ele><time>2026-04-17T08:30:34.519Z</time></trkpt><trkpt lat="46.2993383" lon="12.3150467"><ele>473.0</ele><time>2026-04-17T08:30:35.518Z</time></trkpt><trkpt lat="46.2995333" lon="12.3151633"><ele>473.0</ele><time>2026-04-17T08:30:36.518Z</time></trkpt><trkpt lat="46.2997067" lon="12.3152883"><ele>473.0</ele><time>2026-04-17T08:30:37.52Z</time></trkpt><trkpt lat="46.299855" lon="12.31542"><ele>476.3333333333333</ele><time>2026-04-17T08:30:38.52Z</time></trkpt><trkpt lat="46.2999833" lon="12.315575"><ele>479.66666666666663</ele><time>2026-04-17T08:30:39.518Z</time></trkpt><trkpt lat="46.300095" lon="12.315765"><ele>483.0</ele><time>2026-04-17T08:30:40.52Z</time></trkpt><trkpt lat="46.3001967" lon="12.31598"><ele>483.0</ele><time>2026-04-17T08:30:41.52Z</time></trkpt><trkpt lat="46.3003217" lon="12.316205"><ele>483.0</ele><time>2026-04-17T08:30:42.518Z</time></trkpt><trkpt lat="46.3004683" lon="12.316425"><ele>483.0</ele><time>2026-04-17T08:30:43.519Z</time></trkpt><trkpt lat="46.3006333" lon="12.3166467"><ele>487.5</ele><time>2026-04-17T08:30:44.52Z</time></trkpt><trkpt lat="46.3007983" lon="12.3168767"><ele>492.0</ele><time>2026-04-17T08:30:45.517Z</time></trkpt><trkpt lat="46.3009667" lon="12.3171083"><ele>496.66666666666663</ele><time>2026-04-17T08:30:46.519Z</time></trkpt><trkpt lat="46.30113" lon="12.3173333"><ele>501.3333333333333</ele><time>2026-04-17T08:30:47.518Z</time></trkpt><trkpt lat="46.3012867" lon="12.3175617"><ele>506.0</ele><time>2026-04-17T08:30:48.517Z</time></trkpt><trkpt lat="46.3014267" lon="12.317825"><ele>491.5</ele><time>2026-04-17T08:30:49.518Z</time></trkpt><trkpt lat="46.3015517" lon="12.3181183"><ele>477.0</ele><time>2026-04-17T08:30:50.518Z</time></trkpt><trkpt lat="46.3016583" lon="12.318445"><ele>477.0</ele><time>2026-04-17T08:30:51.518Z</time></trkpt><trkpt lat="46.3017583" lon="12.3187983"><ele>477.0</ele><time>2026-04-17T08:30:52.518Z</time></trkpt><trkpt lat="46.30187" lon="12.3191583"><ele>469.0</ele><time>2026-04-17T08:30:53.518Z</time></trkpt><trkpt lat="46.30198" lon="12.3195317"><ele>461.0</ele><time>2026-04-17T08:30:54.517Z</time></trkpt><trkpt lat="46.3020983" lon="12.3199117"><ele>458.5</ele><time>2026-04-17T08:30:55.518Z</time></trkpt><trkpt lat="46.3022167" lon="12.3203067"><ele>456.0</ele><time>2026-04-17T08:30:56.518Z</time></trkpt><trkpt lat="46.3023367" lon="12.320705"><ele>462.5</ele><time>2026-04-17T08:30:57.517Z</time></trkpt><trkpt lat="46.3024567" lon="12.3211"><ele>469.0</ele><time>2026-04-17T08:30:58.518Z</time></trkpt><trkpt lat="46.3025767" lon="12.3214733"><ele>469.0</ele><time>2026-04-17T08:30:59.518Z</time></trkpt><trkpt lat="46.3026933" lon="12.3218267"><ele>469.0</ele><time>2026-04-17T08:31:00.518Z</time></trkpt><trkpt lat="46.3028083" lon="12.3221517"><ele>466.33333333333337</ele><time>2026-04-17T08:31:01.519Z</time></trkpt><trkpt lat="46.3029083" lon="12.322435"><ele>463.66666666666663</ele><time>2026-04-17T08:31:02.518Z</time></trkpt><trkpt lat="46.302995" lon="12.3226767"><ele>461.0</ele><time>2026-04-17T08:31:03.517Z</time></trkpt><trkpt lat="46.3030933" lon="12.3229"><ele>463.66666666666663</ele><time>2026-04-17T08:31:04.517Z</time></trkpt><trkpt lat="46.3032183" lon="12.3231133"><ele>466.33333333333337</ele><time>2026-04-17T08:31:05.517Z</time></trkpt><trkpt lat="46.30336" lon="12.32332"><ele>469.0</ele><time>2026-04-17T08:31:06.517Z</time></trkpt><trkpt lat="46.3035133" lon="12.323505"><ele>469.0</ele><time>2026-04-17T08:31:07.519Z</time></trkpt><trkpt lat="46.3036733" lon="12.32366"><ele>469.0</ele><time>2026-04-17T08:31:08.518Z</time></trkpt><trkpt lat="46.3038467" lon="12.3237833"><ele>469.0</ele><time>2026-04-17T08:31:09.517Z</time></trkpt><trkpt lat="46.3040317" lon="12.323885"><ele>465.33333333333337</ele><time>2026-04-17T08:31:10.516Z</time></trkpt><trkpt lat="46.304215" lon="12.3239617"><ele>461.66666666666663</ele><time>2026-04-17T08:31:11.518Z</time></trkpt><trkpt lat="46.3044117" lon="12.324005"><ele>458.0</ele><time>2026-04-17T08:31:12.517Z</time></trkpt><trkpt lat="46.3046317" lon="12.3239833"><ele>460.0</ele><time>2026-04-17T08:31:13.518Z</time></trkpt><trkpt lat="46.3048383" lon="12.32396"><ele>462.0</ele><time>2026-04-17T08:31:14.517Z</time></trkpt><trkpt lat="46.3050333" lon="12.32394"><ele>464.0</ele><time>2026-04-17T08:31:15.517Z</time></trkpt><trkpt lat="46.3052167" lon="12.323955"><ele>464.0</ele><time>2026-04-17T08:31:16.519Z</time></trkpt><trkpt lat="46.30539" lon="12.32401"><ele>464.0</ele><time>2026-04-17T08:31:17.516Z</time></trkpt><trkpt lat="46.3055567" lon="12.32411"><ele>464.0</ele><time>2026-04-17T08:31:18.517Z</time></trkpt><trkpt lat="46.30572" lon="12.3242483"><ele>469.0</ele><time>2026-04-17T08:31:19.518Z</time></trkpt><trkpt lat="46.30589" lon="12.3243817"><ele>474.0</ele><time>2026-04-17T08:31:20.518Z</time></trkpt><trkpt lat="46.3060667" lon="12.3244833"><ele>479.0</ele><time>2026-04-17T08:31:21.517Z</time></trkpt><trkpt lat="46.3062567" lon="12.324555"><ele>483.66666666666663</ele><time>2026-04-17T08:31:22.518Z</time></trkpt><trkpt lat="46.306465" lon="12.32461"><ele>488.33333333333337</ele><time>2026-04-17T08:31:23.519Z</time></trkpt><trkpt lat="46.30668" lon="12.3246433"><ele>493.0</ele><time>2026-04-17T08:31:24.517Z</time></trkpt><trkpt lat="46.3069017" lon="12.3246433"><ele>493.0</ele><time>2026-04-17T08:31:25.522Z</time></trkpt><trkpt lat="46.3071367" lon="12.3246183"><ele>493.0</ele><time>2026-04-17T08:31:26.52Z</time></trkpt><trkpt lat="46.3073867" lon="12.3245733"><ele>495.5</ele><time>2026-04-17T08:31:27.52Z</time></trkpt><trkpt lat="46.3076317" lon="12.3245317"><ele>498.0</ele><time>2026-04-17T08:31:28.519Z</time></trkpt><trkpt lat="46.30787" lon="12.32449"><ele>486.5</ele><time>2026-04-17T08:31:29.52Z</time></trkpt><trkpt lat="46.3081033" lon="12.3244367"><ele>475.0</ele><time>2026-04-17T08:31:30.518Z</time></trkpt><trkpt lat="46.308335" lon="12.3243617"><ele>475.0</ele><time>2026-04-17T08:31:31.519Z</time></trkpt><trkpt lat="46.3085633" lon="12.3242617"><ele>475.0</ele><time>2026-04-17T08:31:32.519Z</time></trkpt><trkpt lat="46.3087833" lon="12.32417"><ele>471.0</ele><time>2026-04-17T08:31:33.519Z</time></trkpt><trkpt lat="46.3089917" lon="12.3240883"><ele>467.0</ele><time>2026-04-17T08:31:34.519Z</time></trkpt><trkpt lat="46.3092" lon="12.32404"><ele>463.0</ele><time>2026-04-17T08:31:35.52Z</time></trkpt><trkpt lat="46.309415" lon="12.3240267"><ele>463.0</ele><time>2026-04-17T08:31:36.518Z</time></trkpt><trkpt lat="46.3096367" lon="12.32402"><ele>463.0</ele><time>2026-04-17T08:31:37.521Z</time></trkpt><trkpt lat="46.30985" lon="12.3240183"><ele>463.0</ele><time>2026-04-17T08:31:38.518Z</time></trkpt><trkpt lat="46.3100367" lon="12.3240133"><ele>469.0</ele><time>2026-04-17T08:31:39.518Z</time></trkpt><trkpt lat="46.310185" lon="12.32399"><ele>475.0</ele><time>2026-04-17T08:31:40.516Z</time></trkpt><trkpt lat="46.310325" lon="12.3239417"><ele>481.0</ele><time>2026-04-17T08:31:41.519Z</time></trkpt><trkpt lat="46.3104717" lon="12.323835"><ele>495.33333333333337</ele><time>2026-04-17T08:31:42.517Z</time></trkpt><trkpt lat="46.3106183" lon="12.32371"><ele>509.66666666666663</ele><time>2026-04-17T08:31:43.518Z</time></trkpt><trkpt lat="46.3107683" lon="12.323575"><ele>524.0</ele><time>2026-04-17T08:31:44.519Z</time></trkpt><trkpt lat="46.3109183" lon="12.3234883"><ele>524.0</ele><time>2026-04-17T08:31:45.517Z</time></trkpt><trkpt lat="46.311085" lon="12.3234433"><ele>524.0</ele><time>2026-04-17T08:31:46.517Z</time></trkpt><trkpt lat="46.3112683" lon="12.3234083"><ele>524.0</ele><time>2026-04-17T08:31:47.52Z</time></trkpt><trkpt lat="46.3114533" lon="12.3233817"><ele>512.3333333333333</ele><time>2026-04-17T08:31:48.517Z</time></trkpt><trkpt lat="46.3116333" lon="12.3233483"><ele>500.66666666666663</ele><time>2026-04-17T08:31:49.518Z</time></trkpt><trkpt lat="46.311815" lon="12.323315"><ele>489.0</ele><time>2026-04-17T08:31:50.517Z</time></trkpt><trkpt lat="46.3120017" lon="12.323255"><ele>489.0</ele><time>2026-04-17T08:31:51.519Z</time></trkpt><trkpt lat="46.3121983" lon="12.3231517"><ele>489.0</ele><time>2026-04-17T08:31:52.517Z</time></trkpt><trkpt lat="46.31239" lon="12.3230467"><ele>489.0</ele><time>2026-04-17T08:31:53.518Z</time></trkpt><trkpt lat="46.31258" lon="12.322955"><ele>498.66666666666663</ele><time>2026-04-17T08:31:54.517Z</time></trkpt><trkpt lat="46.3127817" lon="12.3228833"><ele>508.3333333333333</ele><time>2026-04-17T08:31:55.519Z</time></trkpt><trkpt lat="46.3129883" lon="12.322855"><ele>518.0</ele><time>2026-04-17T08:31:56.519Z</time></trkpt><trkpt lat="46.3131933" lon="12.32283"><ele>518.0</ele><time>2026-04-17T08:31:57.517Z</time></trkpt><trkpt lat="46.31339" lon="12.32279"><ele>518.0</ele><time>2026-04-17T08:31:58.518Z</time></trkpt><trkpt lat="46.3135867" lon="12.322715"><ele>518.0</ele><time>2026-04-17T08:31:59.517Z</time></trkpt><trkpt lat="46.3137683" lon="12.3226067"><ele>518.0</ele><time>2026-04-17T08:32:00.518Z</time></trkpt><trkpt lat="46.31393" lon="12.3224817"><ele>518.0</ele><time>2026-04-17T08:32:01.518Z</time></trkpt><trkpt lat="46.3140667" lon="12.32234"><ele>518.0</ele><time>2026-04-17T08:32:02.518Z</time></trkpt><trkpt lat="46.3141867" lon="12.322155"><ele>518.0</ele><time>2026-04-17T08:32:03.517Z</time></trkpt><trkpt lat="46.3143" lon="12.321945"><ele>518.0</ele><time>2026-04-17T08:32:04.518Z</time></trkpt><trkpt lat="46.314415" lon="12.3217"><ele>518.0</ele><time>2026-04-17T08:32:05.518Z</time></trkpt><trkpt lat="46.3145317" lon="12.3214467"><ele>505.0</ele><time>2026-04-17T08:32:06.517Z</time></trkpt><trkpt lat="46.31464" lon="12.3212017"><ele>492.0</ele><time>2026-04-17T08:32:07.518Z</time></trkpt><trkpt lat="46.3147417" lon="12.32098"><ele>479.0</ele><time>2026-04-17T08:32:08.519Z</time></trkpt><trkpt lat="46.3148467" lon="12.32079"><ele>479.0</ele><time>2026-04-17T08:32:09.517Z</time></trkpt><trkpt lat="46.3149717" lon="12.3206"><ele>479.0</ele><time>2026-04-17T08:32:10.518Z</time></trkpt><trkpt lat="46.3151017" lon="12.3204083"><ele>479.0</ele><time>2026-04-17T08:32:11.518Z</time></trkpt><trkpt lat="46.3152217" lon="12.320215"><ele>487.0</ele><time>2026-04-17T08:32:12.517Z</time></trkpt><trkpt lat="46.315325" lon="12.320015"><ele>495.0</ele><time>2026-04-17T08:32:13.518Z</time></trkpt><trkpt lat="46.3154217" lon="12.3198033"><ele>503.0</ele><time>2026-04-17T08:32:14.52Z</time></trkpt><trkpt lat="46.3155267" lon="12.31959"><ele>494.66666666666663</ele><time>2026-04-17T08:32:15.518Z</time></trkpt><trkpt lat="46.3156617" lon="12.3193617"><ele>486.33333333333337</ele><time>2026-04-17T08:32:16.519Z</time></trkpt><trkpt lat="46.3158167" lon="12.31913"><ele>478.0</ele><time>2026-04-17T08:32:17.519Z</time></trkpt><trkpt lat="46.3159683" lon="12.318905"><ele>476.33333333333337</ele><time>2026-04-17T08:32:18.519Z</time></trkpt><trkpt lat="46.3161133" lon="12.3186883"><ele>474.66666666666663</ele><time>2026-04-17T08:32:19.522Z</time></trkpt><trkpt lat="46.316265" lon="12.3184683"><ele>473.0</ele><time>2026-04-17T08:32:20.518Z</time></trkpt><trkpt lat="46.3164167" lon="12.3182383"><ele>488.3333333333333</ele><time>2026-04-17T08:32:21.518Z</time></trkpt><trkpt lat="46.3165567" lon="12.3180117"><ele>503.66666666666663</ele><time>2026-04-17T08:32:22.519Z</time></trkpt><trkpt lat="46.3166967" lon="12.31778"><ele>519.0</ele><time>2026-04-17T08:32:23.519Z</time></trkpt><trkpt lat="46.3168433" lon="12.317545"><ele>519.0</ele><time>2026-04-17T08:32:24.519Z</time></trkpt><trkpt lat="46.3169917" lon="12.31731"><ele>519.0</ele><time>2026-04-17T08:32:25.521Z</time></trkpt><trkpt lat="46.3171317" lon="12.317085"><ele>519.0</ele><time>2026-04-17T08:32:26.519Z</time></trkpt><trkpt lat="46.3172583" lon="12.3168833"><ele>511.66666666666663</ele><time>2026-04-17T08:32:27.519Z</time></trkpt><trkpt lat="46.317375" lon="12.3166983"><ele>504.3333333333333</ele><time>2026-04-17T08:32:28.518Z</time></trkpt><trkpt lat="46.31749" lon="12.3165367"><ele>497.0</ele><time>2026-04-17T08:32:29.52Z</time></trkpt><trkpt lat="46.3176117" lon="12.3164167"><ele>508.3333333333333</ele><time>2026-04-17T08:32:30.519Z</time></trkpt><trkpt lat="46.31774" lon="12.31632"><ele>519.6666666666666</ele><time>2026-04-17T08:32:31.519Z</time></trkpt><trkpt lat="46.317885" lon="12.316255"><ele>531.0</ele><time>2026-04-17T08:32:32.521Z</time></trkpt><trkpt lat="46.318045" lon="12.3162167"><ele>516.0</ele><time>2026-04-17T08:32:33.519Z</time></trkpt><trkpt lat="46.3182233" lon="12.3162033"><ele>501.0</ele><time>2026-04-17T08:32:34.519Z</time></trkpt><trkpt lat="46.3184067" lon="12.3162283"><ele>486.0</ele><time>2026-04-17T08:32:35.519Z</time></trkpt><trkpt lat="46.31859" lon="12.3162917"><ele>486.0</ele><time>2026-04-17T08:32:36.519Z</time></trkpt><trkpt lat="46.3187817" lon="12.316365"><ele>486.0</ele><time>2026-04-17T08:32:37.522Z</time></trkpt><trkpt lat="46.3189783" lon="12.3164267"><ele>486.0</ele><time>2026-04-17T08:32:38.519Z</time></trkpt><trkpt lat="46.3191833" lon="12.3164483"><ele>483.0</ele><time>2026-04-17T08:32:39.522Z</time></trkpt><trkpt lat="46.3193933" lon="12.3164367"><ele>480.0</ele><time>2026-04-17T08:32:40.518Z</time></trkpt><trkpt lat="46.3196033" lon="12.3164033"><ele>477.0</ele><time>2026-04-17T08:32:41.52Z</time></trkpt><trkpt lat="46.3198067" lon="12.3163667"><ele>490.33333333333337</ele><time>2026-04-17T08:32:42.519Z</time></trkpt><trkpt lat="46.319995" lon="12.3163467"><ele>503.6666666666667</ele><time>2026-04-17T08:32:43.519Z</time></trkpt><trkpt lat="46.320175" lon="12.3163467"><ele>517.0</ele><time>2026-04-17T08:32:44.519Z</time></trkpt><trkpt lat="46.32035" lon="12.3163733"><ele>506.0</ele><time>2026-04-17T08:32:45.519Z</time></trkpt><trkpt lat="46.32052" lon="12.316415"><ele>495.0</ele><time>2026-04-17T08:32:46.518Z</time></trkpt><trkpt lat="46.320685" lon="12.3164583"><ele>484.0</ele><time>2026-04-17T08:32:47.519Z</time></trkpt><trkpt lat="46.320845" lon="12.316495"><ele>484.0</ele><time>2026-04-17T08:32:48.519Z</time></trkpt><trkpt lat="46.3210017" lon="12.31653"><ele>484.0</ele><time>2026-04-17T08:32:49.518Z</time></trkpt><trkpt lat="46.321165" lon="12.316545"><ele>484.0</ele><time>2026-04-17T08:32:50.519Z</time></trkpt><trkpt lat="46.3213367" lon="12.31655"><ele>482.0</ele><time>2026-04-17T08:32:51.518Z</time></trkpt><trkpt lat="46.321515" lon="12.3165417"><ele>480.0</ele><time>2026-04-17T08:32:52.518Z</time></trkpt><trkpt lat="46.3217" lon="12.3165167"><ele>478.0</ele><time>2026-04-17T08:32:53.518Z</time></trkpt><trkpt lat="46.3218867" lon="12.3165"><ele>478.0</ele><time>2026-04-17T08:32:54.518Z</time></trkpt><trkpt lat="46.322075" lon="12.3164883"><ele>478.0</ele><time>2026-04-17T08:32:55.519Z</time></trkpt><trkpt lat="46.322255" lon="12.31649"><ele>478.0</ele><time>2026-04-17T08:32:56.517Z</time></trkpt><trkpt lat="46.3224317" lon="12.316505"><ele>480.33333333333337</ele><time>2026-04-17T08:32:57.518Z</time></trkpt><trkpt lat="46.3226117" lon="12.31653"><ele>482.66666666666663</ele><time>2026-04-17T08:32:58.52Z</time></trkpt><trkpt lat="46.3228033" lon="12.3165517"><ele>485.0</ele><time>2026-04-17T08:32:59.518Z</time></trkpt><trkpt lat="46.323" lon="12.316575"><ele>488.66666666666663</ele><time>2026-04-17T08:33:00.517Z</time></trkpt><trkpt lat="46.3231967" lon="12.3166017"><ele>492.33333333333337</ele><time>2026-04-17T08:33:01.518Z</time></trkpt><trkpt lat="46.323385" lon="12.31663"><ele>496.0</ele><time>2026-04-17T08:33:02.518Z</time></trkpt><trkpt lat="46.323565" lon="12.3166533"><ele>496.0</ele><time>2026-04-17T08:33:03.517Z</time></trkpt><trkpt lat="46.3237333" lon="12.3166883"><ele>496.0</ele><time>2026-04-17T08:33:04.519Z</time></trkpt><trkpt lat="46.3238917" lon="12.3167567"><ele>496.0</ele><time>2026-04-17T08:33:05.518Z</time></trkpt><trkpt lat="46.3240483" lon="12.316855"><ele>500.0</ele><time>2026-04-17T08:33:06.521Z</time></trkpt><trkpt lat="46.3241983" lon="12.3169733"><ele>504.0</ele><time>2026-04-17T08:33:07.519Z</time></trkpt><trkpt lat="46.32434" lon="12.3170967"><ele>508.0</ele><time>2026-04-17T08:33:08.518Z</time></trkpt><trkpt lat="46.3244717" lon="12.317215"><ele>506.6666666666667</ele><time>2026-04-17T08:33:09.517Z</time></trkpt><trkpt lat="46.3245867" lon="12.3173567"><ele>505.33333333333337</ele><time>2026-04-17T08:33:10.518Z</time></trkpt><trkpt lat="46.3246817" lon="12.317525"><ele>504.0</ele><time>2026-04-17T08:33:11.521Z</time></trkpt><trkpt lat="46.3247367" lon="12.317725"><ele>504.0</ele><time>2026-04-17T08:33:12.518Z</time></trkpt><trkpt lat="46.3247717" lon="12.3179467"><ele>504.0</ele><time>2026-04-17T08:33:13.518Z</time></trkpt><trkpt lat="46.324805" lon="12.3181817"><ele>504.0</ele><time>2026-04-17T08:33:14.52Z</time></trkpt><trkpt lat="46.3248533" lon="12.3184017"><ele>500.33333333333337</ele><time>2026-04-17T08:33:15.517Z</time></trkpt><trkpt lat="46.3249267" lon="12.3185983"><ele>496.6666666666667</ele><time>2026-04-17T08:33:16.518Z</time></trkpt><trkpt lat="46.3250317" lon="12.31877"><ele>493.0</ele><time>2026-04-17T08:33:17.518Z</time></trkpt><trkpt lat="46.32516" lon="12.318935"><ele>488.33333333333337</ele><time>2026-04-17T08:33:18.519Z</time></trkpt><trkpt lat="46.325295" lon="12.3190933"><ele>483.66666666666663</ele><time>2026-04-17T08:33:19.519Z</time></trkpt><trkpt lat="46.3254283" lon="12.319245"><ele>479.0</ele><time>2026-04-17T08:33:20.519Z</time></trkpt><trkpt lat="46.3255583" lon="12.31939"><ele>478.0</ele><time>2026-04-17T08:33:21.519Z</time></trkpt><trkpt lat="46.3256833" lon="12.319535"><ele>477.0</ele><time>2026-04-17T08:33:22.519Z</time></trkpt><trkpt lat="46.32581" lon="12.31968"><ele>476.0</ele><time>2026-04-17T08:33:23.519Z</time></trkpt><trkpt lat="46.3259333" lon="12.31982"><ele>476.0</ele><time>2026-04-17T08:33:24.519Z</time></trkpt><trkpt lat="46.3260533" lon="12.31996"><ele>476.0</ele><time>2026-04-17T08:33:25.523Z</time></trkpt><trkpt lat="46.32617" lon="12.320095"><ele>476.0</ele><time>2026-04-17T08:33:26.52Z</time></trkpt><trkpt lat="46.3262767" lon="12.32022"><ele>476.0</ele><time>2026-04-17T08:33:27.519Z</time></trkpt><trkpt lat="46.3263833" lon="12.3203367"><ele>477.0</ele><time>2026-04-17T08:33:28.519Z</time></trkpt><trkpt lat="46.326485" lon="12.3204517"><ele>478.0</ele><time>2026-04-17T08:33:29.519Z</time></trkpt><trkpt lat="46.3265783" lon="12.3205733"><ele>479.0</ele><time>2026-04-17T08:33:30.519Z</time></trkpt><trkpt lat="46.32666" lon="12.320705"><ele>480.0</ele><time>2026-04-17T08:33:31.518Z</time></trkpt><trkpt lat="46.3267283" lon="12.320845"><ele>480.0</ele><time>2026-04-17T08:33:32.52Z</time></trkpt><trkpt lat="46.32679" lon="12.3210033"><ele>480.0</ele><time>2026-04-17T08:33:33.519Z</time></trkpt><trkpt lat="46.32684" lon="12.321185"><ele>480.0</ele><time>2026-04-17T08:33:34.521Z</time></trkpt><trkpt lat="46.3268817" lon="12.3213833"><ele>480.0</ele><time>2026-04-17T08:33:35.519Z</time></trkpt><trkpt lat="46.32692" lon="12.32159"><ele>477.33333333333337</ele><time>2026-04-17T08:33:36.519Z</time></trkpt><trkpt lat="46.326965" lon="12.3218"><ele>474.6666666666667</ele><time>2026-04-17T08:33:37.521Z</time></trkpt><trkpt lat="46.3270267" lon="12.3220067"><ele>472.0</ele><time>2026-04-17T08:33:38.52Z</time></trkpt><trkpt lat="46.3271167" lon="12.322185"><ele>476.33333333333337</ele><time>2026-04-17T08:33:39.519Z</time></trkpt><trkpt lat="46.3272333" lon="12.3223383"><ele>480.66666666666663</ele><time>2026-04-17T08:33:40.52Z</time></trkpt><trkpt lat="46.3273633" lon="12.322475"><ele>485.0</ele><time>2026-04-17T08:33:41.519Z</time></trkpt><trkpt lat="46.3274983" lon="12.3226"><ele>485.0</ele><time>2026-04-17T08:33:42.518Z</time></trkpt><trkpt lat="46.3276367" lon="12.3227067"><ele>485.0</ele><time>2026-04-17T08:33:43.519Z</time></trkpt><trkpt lat="46.3277733" lon="12.3228133"><ele>485.0</ele><time>2026-04-17T08:33:44.519Z</time></trkpt><trkpt lat="46.3279067" lon="12.32292"><ele>485.0</ele><time>2026-04-17T08:33:45.518Z</time></trkpt><trkpt lat="46.3280317" lon="12.3230283"><ele>485.0</ele><time>2026-04-17T08:33:46.519Z</time></trkpt><trkpt lat="46.3281483" lon="12.3231333"><ele>485.0</ele><time>2026-04-17T08:33:47.519Z</time></trkpt><trkpt lat="46.3282567" lon="12.3232417"><ele>485.0</ele><time>2026-04-17T08:33:48.519Z</time></trkpt><trkpt lat="46.3283583" lon="12.323355"><ele>484.25</ele><time>2026-04-17T08:33:49.519Z</time></trkpt><trkpt lat="46.3284483" lon="12.3234783"><ele>483.5</ele><time>2026-04-17T08:33:50.519Z</time></trkpt><trkpt lat="46.328525" lon="12.32361"><ele>482.75</ele><time>2026-04-17T08:33:51.518Z</time></trkpt><trkpt lat="46.3285967" lon="12.3237467"><ele>482.0</ele><time>2026-04-17T08:33:52.518Z</time></trkpt><trkpt lat="46.3286683" lon="12.323895"><ele>482.5</ele><time>2026-04-17T08:33:53.519Z</time></trkpt><trkpt lat="46.32874" lon="12.3240583"><ele>483.0</ele><time>2026-04-17T08:33:54.519Z</time></trkpt><trkpt lat="46.3288133" lon="12.3242333"><ele>483.5</ele><time>2026-04-17T08:33:55.519Z</time></trkpt><trkpt lat="46.328895" lon="12.3244267"><ele>484.0</ele><time>2026-04-17T08:33:56.518Z</time></trkpt><trkpt lat="46.3289817" lon="12.3246333"><ele>485.0</ele><time>2026-04-17T08:33:57.518Z</time></trkpt><trkpt lat="46.3290717" lon="12.3248517"><ele>486.0</ele><time>2026-04-17T08:33:58.52Z</time></trkpt><trkpt lat="46.329165" lon="12.3250783"><ele>487.0</ele><time>2026-04-17T08:33:59.52Z</time></trkpt><trkpt lat="46.32925" lon="12.3252967"><ele>487.0</ele><time>2026-04-17T08:34:00.519Z</time></trkpt><trkpt lat="46.32931" lon="12.3255067"><ele>487.0</ele><time>2026-04-17T08:34:01.52Z</time></trkpt><trkpt lat="46.32933" lon="12.3257117"><ele>487.0</ele><time>2026-04-17T08:34:02.52Z</time></trkpt><trkpt lat="46.3293283" lon="12.3259"><ele>487.0</ele><time>2026-04-17T08:34:03.519Z</time></trkpt><trkpt lat="46.329335" lon="12.3260633"><ele>486.5</ele><time>2026-04-17T08:34:04.519Z</time></trkpt><trkpt lat="46.329365" lon="12.3262"><ele>486.0</ele><time>2026-04-17T08:34:05.519Z</time></trkpt><trkpt lat="46.3294433" lon="12.326315"><ele>485.5</ele><time>2026-04-17T08:34:06.518Z</time></trkpt><trkpt lat="46.32958" lon="12.32643"><ele>485.0</ele><time>2026-04-17T08:34:07.523Z</time></trkpt><trkpt lat="46.3297817" lon="12.3265517"><ele>488.0</ele><time>2026-04-17T08:34:08.523Z</time></trkpt><trkpt lat="46.3300333" lon="12.3266567"><ele>491.0</ele><time>2026-04-17T08:34:09.518Z</time></trkpt><trkpt lat="46.33031" lon="12.3267383"><ele>515.5</ele><time>2026-04-17T08:34:10.518Z</time></trkpt><trkpt lat="46.330565" lon="12.32684"><ele>540.0</ele><time>2026-04-17T08:34:11.518Z</time></trkpt><trkpt lat="46.3308033" lon="12.32696"><ele>540.0</ele><time>2026-04-17T08:34:12.518Z</time></trkpt><trkpt lat="46.3310317" lon="12.3271083"><ele>540.0</ele><time>2026-04-17T08:34:13.518Z</time></trkpt><trkpt lat="46.331255" lon="12.327305"><ele>524.5</ele><time>2026-04-17T08:34:14.518Z</time></trkpt><trkpt lat="46.33147" lon="12.3275083"><ele>509.0</ele><time>2026-04-17T08:34:15.518Z</time></trkpt><trkpt lat="46.3316733" lon="12.32773"><ele>509.0</ele><time>2026-04-17T08:34:16.518Z</time></trkpt><trkpt lat="46.3318633" lon="12.3279983"><ele>509.0</ele><time>2026-04-17T08:34:17.518Z</time></trkpt><trkpt lat="46.3320617" lon="12.3282683"><ele>504.0</ele><time>2026-04-17T08:34:18.518Z</time></trkpt><trkpt lat="46.3322483" lon="12.3285933"><ele>499.0</ele><time>2026-04-17T08:34:19.518Z</time></trkpt><trkpt lat="46.3324233" lon="12.3289283"><ele>499.0</ele><time>2026-04-17T08:34:20.518Z</time></trkpt><trkpt lat="46.332575" lon="12.3292467"><ele>499.0</ele><time>2026-04-17T08:34:21.518Z</time></trkpt><trkpt lat="46.3326967" lon="12.329545"><ele>494.33333333333337</ele><time>2026-04-17T08:34:22.52Z</time></trkpt><trkpt lat="46.3327933" lon="12.3298217"><ele>489.66666666666663</ele><time>2026-04-17T08:34:23.518Z</time></trkpt><trkpt lat="46.3328683" lon="12.3300583"><ele>485.0</ele><time>2026-04-17T08:34:24.518Z</time></trkpt><trkpt lat="46.3329717" lon="12.3302533"><ele>490.0</ele><time>2026-04-17T08:34:25.518Z</time></trkpt><trkpt lat="46.3331133" lon="12.3304083"><ele>495.0</ele><time>2026-04-17T08:34:26.518Z</time></trkpt><trkpt lat="46.33327" lon="12.3305617"><ele>500.0</ele><time>2026-04-17T08:34:27.518Z</time></trkpt><trkpt lat="46.333405" lon="12.330735"><ele>500.0</ele><time>2026-04-17T08:34:28.518Z</time></trkpt><trkpt lat="46.33355" lon="12.3308733"><ele>500.0</ele><time>2026-04-17T08:34:29.518Z</time></trkpt><trkpt lat="46.33373" lon="12.33096"><ele>500.0</ele><time>2026-04-17T08:34:30.517Z</time></trkpt><trkpt lat="46.3339283" lon="12.3310283"><ele>511.66666666666663</ele><time>2026-04-17T08:34:31.518Z</time></trkpt><trkpt lat="46.3341283" lon="12.3310683"><ele>523.3333333333334</ele><time>2026-04-17T08:34:32.518Z</time></trkpt><trkpt lat="46.334325" lon="12.33105"><ele>535.0</ele><time>2026-04-17T08:34:33.518Z</time></trkpt><trkpt lat="46.3345133" lon="12.3310233"><ele>535.0</ele><time>2026-04-17T08:34:34.518Z</time></trkpt><trkpt lat="46.334695" lon="12.3309983"><ele>535.0</ele><time>2026-04-17T08:34:35.518Z</time></trkpt><trkpt lat="46.3348783" lon="12.331015"><ele>535.0</ele><time>2026-04-17T08:34:36.518Z</time></trkpt><trkpt lat="46.3350617" lon="12.3310883"><ele>538.3333333333334</ele><time>2026-04-17T08:34:37.517Z</time></trkpt><trkpt lat="46.335235" lon="12.33113"><ele>541.6666666666666</ele><time>2026-04-17T08:34:38.517Z</time></trkpt><trkpt lat="46.3354083" lon="12.3311217"><ele>545.0</ele><time>2026-04-17T08:34:39.518Z</time></trkpt><trkpt lat="46.3355933" lon="12.33109"><ele>545.0</ele><time>2026-04-17T08:34:40.519Z</time></trkpt><trkpt lat="46.3357867" lon="12.3310767"><ele>545.0</ele><time>2026-04-17T08:34:41.518Z</time></trkpt><trkpt lat="46.336015" lon="12.3311583"><ele>545.0</ele><time>2026-04-17T08:34:42.517Z</time></trkpt><trkpt lat="46.3362617" lon="12.3312233"><ele>544.0</ele><time>2026-04-17T08:34:43.518Z</time></trkpt><trkpt lat="46.336525" lon="12.331255"><ele>543.0</ele><time>2026-04-17T08:34:44.519Z</time></trkpt><trkpt lat="46.336805" lon="12.3312717"><ele>543.0</ele><time>2026-04-17T08:34:45.517Z</time></trkpt><trkpt lat="46.33709" lon="12.331295"><ele>543.0</ele><time>2026-04-17T08:34:46.518Z</time></trkpt><trkpt lat="46.3373567" lon="12.3313217"><ele>547.0</ele><time>2026-04-17T08:34:47.519Z</time></trkpt><trkpt lat="46.33759" lon="12.3313417"><ele>551.0</ele><time>2026-04-17T08:34:48.518Z</time></trkpt><trkpt lat="46.3377983" lon="12.3313283"><ele>555.0</ele><time>2026-04-17T08:34:49.518Z</time></trkpt><trkpt lat="46.33798" lon="12.3312667"><ele>548.3333333333334</ele><time>2026-04-17T08:34:50.518Z</time></trkpt><trkpt lat="46.338155" lon="12.3311683"><ele>541.6666666666667</ele><time>2026-04-17T08:34:51.518Z</time></trkpt><trkpt lat="46.3383367" lon="12.331085"><ele>535.0</ele><time>2026-04-17T08:34:52.518Z</time></trkpt><trkpt lat="46.3385283" lon="12.3310417"><ele>535.0</ele><time>2026-04-17T08:34:53.519Z</time></trkpt><trkpt lat="46.3387383" lon="12.33103"><ele>535.0</ele><time>2026-04-17T08:34:54.518Z</time></trkpt><trkpt lat="46.3389617" lon="12.3310283"><ele>535.0</ele><time>2026-04-17T08:34:55.518Z</time></trkpt><trkpt lat="46.3391767" lon="12.3310233"><ele>533.0</ele><time>2026-04-17T08:34:56.519Z</time></trkpt><trkpt lat="46.3393833" lon="12.33099"><ele>531.0</ele><time>2026-04-17T08:34:57.518Z</time></trkpt><trkpt lat="46.3395933" lon="12.3309183"><ele>529.0</ele><time>2026-04-17T08:34:58.519Z</time></trkpt><trkpt lat="46.3397983" lon="12.3308467"><ele>521.6666666666667</ele><time>2026-04-17T08:34:59.519Z</time></trkpt><trkpt lat="46.339985" lon="12.330785"><ele>514.3333333333334</ele><time>2026-04-17T08:35:00.518Z</time></trkpt><trkpt lat="46.3401583" lon="12.3307067"><ele>507.0</ele><time>2026-04-17T08:35:01.519Z</time></trkpt><trkpt lat="46.3403233" lon="12.3305817"><ele>517.6666666666666</ele><time>2026-04-17T08:35:02.518Z</time></trkpt><trkpt lat="46.3404717" lon="12.3304583"><ele>528.3333333333333</ele><time>2026-04-17T08:35:03.518Z</time></trkpt><trkpt lat="46.3406267" lon="12.3303683"><ele>539.0</ele><time>2026-04-17T08:35:04.517Z</time></trkpt><trkpt lat="46.3407983" lon="12.3303183"><ele>539.0</ele><time>2026-04-17T08:35:05.521Z</time></trkpt><trkpt lat="46.3409833" lon="12.3303133"><ele>539.0</ele><time>2026-04-17T08:35:06.518Z</time></trkpt><trkpt lat="46.3411917" lon="12.3302767"><ele>539.0</ele><time>2026-04-17T08:35:07.518Z</time></trkpt><trkpt lat="46.3414117" lon="12.3301967"><ele>524.5</ele><time>2026-04-17T08:35:08.519Z</time></trkpt><trkpt lat="46.3416317" lon="12.3300883"><ele>510.0</ele><time>2026-04-17T08:35:09.519Z</time></trkpt><trkpt lat="46.3418367" lon="12.3299717"><ele>510.0</ele><time>2026-04-17T08:35:10.519Z</time></trkpt><trkpt lat="46.3420117" lon="12.3299133"><ele>510.0</ele><time>2026-04-17T08:35:11.519Z</time></trkpt><trkpt lat="46.34219" lon="12.329915"><ele>510.0</ele><time>2026-04-17T08:35:12.518Z</time></trkpt><trkpt lat="46.34239" lon="12.3299667"><ele>508.5</ele><time>2026-04-17T08:35:13.518Z</time></trkpt><trkpt lat="46.3426167" lon="12.330055"><ele>507.0</ele><time>2026-04-17T08:35:14.519Z</time></trkpt><trkpt lat="46.3428467" lon="12.3301283"><ele>510.0</ele><time>2026-04-17T08:35:15.518Z</time></trkpt><trkpt lat="46.3430533" lon="12.3301917"><ele>513.0</ele><time>2026-04-17T08:35:16.519Z</time></trkpt><trkpt lat="46.3432467" lon="12.3302233"><ele>516.0</ele><time>2026-04-17T08:35:17.519Z</time></trkpt><trkpt lat="46.343455" lon="12.330195"><ele>516.0</ele><time>2026-04-17T08:35:18.518Z</time></trkpt><trkpt lat="46.3436667" lon="12.3301667"><ele>516.0</ele><time>2026-04-17T08:35:19.518Z</time></trkpt><trkpt lat="46.34389" lon="12.330145"><ele>516.0</ele><time>2026-04-17T08:35:20.519Z</time></trkpt><trkpt lat="46.3441267" lon="12.3301583"><ele>517.5</ele><time>2026-04-17T08:35:21.518Z</time></trkpt><trkpt lat="46.3443683" lon="12.330195"><ele>519.0</ele><time>2026-04-17T08:35:22.518Z</time></trkpt><trkpt lat="46.3445967" lon="12.330235"><ele>525.6666666666666</ele><time>2026-04-17T08:35:23.518Z</time></trkpt><trkpt lat="46.3447917" lon="12.3302783"><ele>532.3333333333333</ele><time>2026-04-17T08:35:24.518Z</time></trkpt><trkpt lat="46.344955" lon="12.3303533"><ele>539.0</ele><time>2026-04-17T08:35:25.519Z</time></trkpt><trkpt lat="46.34511" lon="12.3304783"><ele>517.0</ele><time>2026-04-17T08:35:26.519Z</time></trkpt><trkpt lat="46.345285" lon="12.33065"><ele>495.0</ele><time>2026-04-17T08:35:27.517Z</time></trkpt><trkpt lat="46.3454983" lon="12.33082"><ele>506.0</ele><time>2026-04-17T08:35:28.518Z</time></trkpt><trkpt lat="46.3457383" lon="12.3310017"><ele>517.0</ele><time>2026-04-17T08:35:29.518Z</time></trkpt><trkpt lat="46.3459933" lon="12.331205"><ele>512.5</ele><time>2026-04-17T08:35:30.518Z</time></trkpt><trkpt lat="46.34625" lon="12.3313917"><ele>508.0</ele><time>2026-04-17T08:35:31.52Z</time></trkpt><trkpt lat="46.3464967" lon="12.3315633"><ele>508.0</ele><time>2026-04-17T08:35:32.518Z</time></trkpt><trkpt lat="46.34672" lon="12.33175"><ele>508.0</ele><time>2026-04-17T08:35:33.518Z</time></trkpt><trkpt lat="46.34691" lon="12.3319667"><ele>508.0</ele><time>2026-04-17T08:35:34.518Z</time></trkpt><trkpt lat="46.34708" lon="12.33219"><ele>508.0</ele><time>2026-04-17T08:35:35.519Z</time></trkpt><trkpt lat="46.3472433" lon="12.3324017"><ele>508.0</ele><time>2026-04-17T08:35:36.518Z</time></trkpt><trkpt lat="46.3474117" lon="12.3326017"><ele>511.0</ele><time>2026-04-17T08:35:37.519Z</time></trkpt><trkpt lat="46.3476017" lon="12.3327817"><ele>514.0</ele><time>2026-04-17T08:35:38.518Z</time></trkpt><trkpt lat="46.3478267" lon="12.3329467"><ele>507.0</ele><time>2026-04-17T08:35:39.518Z</time></trkpt><trkpt lat="46.34807" lon="12.333105"><ele>500.0</ele><time>2026-04-17T08:35:40.517Z</time></trkpt><trkpt lat="46.34831" lon="12.3332583"><ele>500.0</ele><time>2026-04-17T08:35:41.518Z</time></trkpt><trkpt lat="46.3485433" lon="12.333415"><ele>500.0</ele><time>2026-04-17T08:35:42.518Z</time></trkpt><trkpt lat="46.34877" lon="12.3336"><ele>497.5</ele><time>2026-04-17T08:35:43.518Z</time></trkpt><trkpt lat="46.349" lon="12.33381"><ele>495.0</ele><time>2026-04-17T08:35:44.519Z</time></trkpt><trkpt lat="46.3492333" lon="12.334035"><ele>495.0</ele><time>2026-04-17T08:35:45.517Z</time></trkpt><trkpt lat="46.3494567" lon="12.334265"><ele>495.0</ele><time>2026-04-17T08:35:46.518Z</time></trkpt><trkpt lat="46.3496617" lon="12.3344867"><ele>496.0</ele><time>2026-04-17T08:35:47.518Z</time></trkpt><trkpt lat="46.349845" lon="12.3347017"><ele>497.0</ele><time>2026-04-17T08:35:48.519Z</time></trkpt><trkpt lat="46.35001" lon="12.3349017"><ele>497.0</ele><time>2026-04-17T08:35:49.518Z</time></trkpt><trkpt lat="46.3501567" lon="12.3350967"><ele>497.0</ele><time>2026-04-17T08:35:50.518Z</time></trkpt><trkpt lat="46.3502933" lon="12.3352767"><ele>497.0</ele><time>2026-04-17T08:35:51.519Z</time></trkpt><trkpt lat="46.3504217" lon="12.3354467"><ele>498.25</ele><time>2026-04-17T08:35:52.518Z</time></trkpt><trkpt lat="46.350545" lon="12.3356017"><ele>499.5</ele><time>2026-04-17T08:35:53.518Z</time></trkpt><trkpt lat="46.350655" lon="12.335735"><ele>500.75</ele><time>2026-04-17T08:35:54.518Z</time></trkpt><trkpt lat="46.3507433" lon="12.3358683"><ele>502.0</ele><time>2026-04-17T08:35:55.518Z</time></trkpt><trkpt lat="46.3508267" lon="12.3360033"><ele>502.0</ele><time>2026-04-17T08:35:56.519Z</time></trkpt><trkpt lat="46.3509067" lon="12.3361417"><ele>502.0</ele><time>2026-04-17T08:35:57.518Z</time></trkpt><trkpt lat="46.3509817" lon="12.3362867"><ele>502.0</ele><time>2026-04-17T08:35:58.519Z</time></trkpt><trkpt lat="46.3510683" lon="12.33643"><ele>502.0</ele><time>2026-04-17T08:35:59.518Z</time></trkpt><trkpt lat="46.3511717" lon="12.33657"><ele>501.33333333333337</ele><time>2026-04-17T08:36:00.517Z</time></trkpt><trkpt lat="46.3512867" lon="12.3367033"><ele>500.66666666666663</ele><time>2026-04-17T08:36:01.519Z</time></trkpt><trkpt lat="46.3514133" lon="12.3368283"><ele>500.0</ele><time>2026-04-17T08:36:02.519Z</time></trkpt><trkpt lat="46.3515483" lon="12.3369317"><ele>500.0</ele><time>2026-04-17T08:36:03.518Z</time></trkpt><trkpt lat="46.3516917" lon="12.3369983"><ele>500.0</ele><time>2026-04-17T08:36:04.519Z</time></trkpt><trkpt lat="46.35185" lon="12.3370133"><ele>500.0</ele><time>2026-04-17T08:36:05.521Z</time></trkpt><trkpt lat="46.3520233" lon="12.337"><ele>502.0</ele><time>2026-04-17T08:36:06.517Z</time></trkpt><trkpt lat="46.352215" lon="12.3369667"><ele>504.0</ele><time>2026-04-17T08:36:07.52Z</time></trkpt><trkpt lat="46.3524167" lon="12.3369333"><ele>506.0</ele><time>2026-04-17T08:36:08.519Z</time></trkpt><trkpt lat="46.3526133" lon="12.3368983"><ele>506.0</ele><time>2026-04-17T08:36:09.518Z</time></trkpt><trkpt lat="46.3528033" lon="12.336875"><ele>506.0</ele><time>2026-04-17T08:36:10.519Z</time></trkpt><trkpt lat="46.353" lon="12.3368733"><ele>506.0</ele><time>2026-04-17T08:36:11.52Z</time></trkpt><trkpt lat="46.3532033" lon="12.3369083"><ele>513.0</ele><time>2026-04-17T08:36:12.518Z</time></trkpt><trkpt lat="46.3534067" lon="12.3369767"><ele>520.0</ele><time>2026-04-17T08:36:13.519Z</time></trkpt><trkpt lat="46.3535833" lon="12.3370633"><ele>527.0</ele><time>2026-04-17T08:36:14.52Z</time></trkpt><trkpt lat="46.35373" lon="12.3371483"><ele>522.2</ele><time>2026-04-17T08:36:15.519Z</time></trkpt><trkpt lat="46.35385" lon="12.3372417"><ele>517.4000000000001</ele><time>2026-04-17T08:36:16.52Z</time></trkpt><trkpt lat="46.3539267" lon="12.337365"><ele>512.5999999999999</ele><time>2026-04-17T08:36:17.52Z</time></trkpt><trkpt lat="46.35398" lon="12.3374933"><ele>507.79999999999995</ele><time>2026-04-17T08:36:18.519Z</time></trkpt><trkpt lat="46.3540383" lon="12.3375833"><ele>503.0</ele><time>2026-04-17T08:36:19.522Z</time></trkpt><trkpt lat="46.3540933" lon="12.3376417"><ele>503.0</ele><time>2026-04-17T08:36:20.518Z</time></trkpt><trkpt lat="46.35417" lon="12.337625"><ele>502.99999999999994</ele><time>2026-04-17T08:36:21.519Z</time></trkpt><trkpt lat="46.3542567" lon="12.3375917"><ele>502.99999999999994</ele><time>2026-04-17T08:36:22.519Z</time></trkpt><trkpt lat="46.35437" lon="12.3375833"><ele>503.0</ele><time>2026-04-17T08:36:23.523Z</time></trkpt><trkpt lat="46.3545283" lon="12.3376283"><ele>503.0</ele><time>2026-04-17T08:36:24.519Z</time></trkpt><trkpt lat="46.354735" lon="12.3377283"><ele>515.5</ele><time>2026-04-17T08:36:25.519Z</time></trkpt><trkpt lat="46.3549833" lon="12.33784"><ele>528.0</ele><time>2026-04-17T08:36:26.519Z</time></trkpt><trkpt lat="46.355255" lon="12.337955"><ele>512.5</ele><time>2026-04-17T08:36:27.519Z</time></trkpt><trkpt lat="46.3555517" lon="12.33807"><ele>497.0</ele><time>2026-04-17T08:36:28.519Z</time></trkpt><trkpt lat="46.3558417" lon="12.338185"><ele>497.0</ele><time>2026-04-17T08:36:29.521Z</time></trkpt><trkpt lat="46.3560883" lon="12.3383"><ele>497.0</ele><time>2026-04-17T08:36:30.518Z</time></trkpt><trkpt lat="46.3562933" lon="12.338425"><ele>505.0</ele><time>2026-04-17T08:36:31.52Z</time></trkpt><trkpt lat="46.3564733" lon="12.33856"><ele>513.0</ele><time>2026-04-17T08:36:32.518Z</time></trkpt><trkpt lat="46.3566383" lon="12.3387067"><ele>521.0</ele><time>2026-04-17T08:36:33.517Z</time></trkpt><trkpt lat="46.3567883" lon="12.3388383"><ele>518.75</ele><time>2026-04-17T08:36:34.518Z</time></trkpt><trkpt lat="46.3569217" lon="12.33895"><ele>516.5</ele><time>2026-04-17T08:36:35.52Z</time></trkpt><trkpt lat="46.3570367" lon="12.339045"><ele>514.25</ele><time>2026-04-17T08:36:36.517Z</time></trkpt><trkpt lat="46.3571367" lon="12.33912"><ele>512.0</ele><time>2026-04-17T08:36:37.519Z</time></trkpt><trkpt lat="46.3572267" lon="12.3391733"><ele>511.99999999999994</ele><time>2026-04-17T08:36:38.519Z</time></trkpt><trkpt lat="46.3573017" lon="12.3392067"><ele>512.0</ele><time>2026-04-17T08:36:39.518Z</time></trkpt><trkpt lat="46.3573667" lon="12.339235"><ele>512.0</ele><time>2026-04-17T08:36:40.518Z</time></trkpt><trkpt lat="46.357465" lon="12.3392733"><ele>512.0</ele><time>2026-04-17T08:36:42.518Z</time></trkpt><trkpt lat="46.3575517" lon="12.3392833"><ele>511.99999999999994</ele><time>2026-04-17T08:37:17.519Z</time></trkpt><trkpt lat="46.357615" lon="12.3393"><ele>512.0</ele><time>2026-04-17T08:37:18.518Z</time></trkpt><trkpt lat="46.357725" lon="12.3393217"><ele>512.0</ele><time>2026-04-17T08:37:19.519Z</time></trkpt><trkpt lat="46.3578533" lon="12.3393667"><ele>512.0</ele><time>2026-04-17T08:37:20.519Z</time></trkpt><trkpt lat="46.3579967" lon="12.3394233"><ele>512.0</ele><time>2026-04-17T08:37:21.518Z</time></trkpt><trkpt lat="46.3581683" lon="12.3394933"><ele>508.66666666666663</ele><time>2026-04-17T08:37:22.519Z</time></trkpt><trkpt lat="46.3583633" lon="12.3396"><ele>505.33333333333337</ele><time>2026-04-17T08:37:23.519Z</time></trkpt><trkpt lat="46.35858" lon="12.33972"><ele>502.0</ele><time>2026-04-17T08:37:24.518Z</time></trkpt><trkpt lat="46.3588133" lon="12.3398617"><ele>502.5</ele><time>2026-04-17T08:37:25.518Z</time></trkpt><trkpt lat="46.35907" lon="12.3400233"><ele>503.0</ele><time>2026-04-17T08:37:26.52Z</time></trkpt><trkpt lat="46.3593333" lon="12.3401783"><ele>503.0</ele><time>2026-04-17T08:37:27.518Z</time></trkpt><trkpt lat="46.3595817" lon="12.340325"><ele>503.0</ele><time>2026-04-17T08:37:28.518Z</time></trkpt><trkpt lat="46.3598067" lon="12.340475"><ele>509.0</ele><time>2026-04-17T08:37:29.52Z</time></trkpt><trkpt lat="46.3600067" lon="12.3406567"><ele>515.0</ele><time>2026-04-17T08:37:30.52Z</time></trkpt><trkpt lat="46.3601783" lon="12.3408867"><ele>515.0</ele><time>2026-04-17T08:37:31.52Z</time></trkpt><trkpt lat="46.3603467" lon="12.3411867"><ele>515.0</ele><time>2026-04-17T08:37:32.519Z</time></trkpt><trkpt lat="46.3605233" lon="12.3415533"><ele>512.0</ele><time>2026-04-17T08:37:33.521Z</time></trkpt><trkpt lat="46.36071" lon="12.3419317"><ele>509.0</ele><time>2026-04-17T08:37:34.524Z</time></trkpt><trkpt lat="46.36089" lon="12.3423017"><ele>509.0</ele><time>2026-04-17T08:37:35.519Z</time></trkpt><trkpt lat="46.3610767" lon="12.34265"><ele>509.0</ele><time>2026-04-17T08:37:36.519Z</time></trkpt><trkpt lat="46.361275" lon="12.343"><ele>516.0</ele><time>2026-04-17T08:37:37.52Z</time></trkpt><trkpt lat="46.3614917" lon="12.3433483"><ele>523.0</ele><time>2026-04-17T08:37:38.52Z</time></trkpt><trkpt lat="46.3617117" lon="12.34369"><ele>517.0</ele><time>2026-04-17T08:37:39.519Z</time></trkpt><trkpt lat="46.3619133" lon="12.344015"><ele>511.0</ele><time>2026-04-17T08:37:40.519Z</time></trkpt><trkpt lat="46.3620767" lon="12.3443367"><ele>517.0</ele><time>2026-04-17T08:37:41.52Z</time></trkpt><trkpt lat="46.362205" lon="12.3446417"><ele>523.0</ele><time>2026-04-17T08:37:42.52Z</time></trkpt><trkpt lat="46.3622917" lon="12.3449233"><ele>523.0</ele><time>2026-04-17T08:37:43.519Z</time></trkpt><trkpt lat="46.3623617" lon="12.3451617"><ele>523.0</ele><time>2026-04-17T08:37:44.519Z</time></trkpt><trkpt lat="46.3624433" lon="12.3453617"><ele>523.0</ele><time>2026-04-17T08:37:45.519Z</time></trkpt><trkpt lat="46.3625517" lon="12.3455183"><ele>517.6666666666667</ele><time>2026-04-17T08:37:46.52Z</time></trkpt><trkpt lat="46.36268" lon="12.34562"><ele>512.3333333333334</ele><time>2026-04-17T08:37:47.52Z</time></trkpt><trkpt lat="46.3628383" lon="12.34566"><ele>507.0</ele><time>2026-04-17T08:37:48.519Z</time></trkpt><trkpt lat="46.3630183" lon="12.34568"><ele>515.3333333333334</ele><time>2026-04-17T08:37:49.519Z</time></trkpt><trkpt lat="46.3631983" lon="12.3457583"><ele>523.6666666666667</ele><time>2026-04-17T08:37:50.519Z</time></trkpt><trkpt lat="46.363365" lon="12.345905"><ele>532.0</ele><time>2026-04-17T08:37:51.518Z</time></trkpt><trkpt lat="46.3635317" lon="12.3461183"><ele>522.0</ele><time>2026-04-17T08:37:52.518Z</time></trkpt><trkpt lat="46.3636967" lon="12.34639"><ele>512.0</ele><time>2026-04-17T08:37:53.519Z</time></trkpt><trkpt lat="46.363855" lon="12.3467167"><ele>523.5</ele><time>2026-04-17T08:37:54.519Z</time></trkpt><trkpt lat="46.364005" lon="12.347065"><ele>535.0</ele><time>2026-04-17T08:37:55.519Z</time></trkpt><trkpt lat="46.364115" lon="12.347425"><ele>535.0</ele><time>2026-04-17T08:37:56.519Z</time></trkpt><trkpt lat="46.36424" lon="12.3477567"><ele>535.0</ele><time>2026-04-17T08:37:57.518Z</time></trkpt><trkpt lat="46.36438" lon="12.3480733"><ele>526.5</ele><time>2026-04-17T08:37:58.519Z</time></trkpt><trkpt lat="46.3645083" lon="12.348365"><ele>518.0</ele><time>2026-04-17T08:37:59.519Z</time></trkpt><trkpt lat="46.3646217" lon="12.3486267"><ele>530.3333333333333</ele><time>2026-04-17T08:38:00.518Z</time></trkpt><trkpt lat="46.36472" lon="12.3488683"><ele>542.6666666666666</ele><time>2026-04-17T08:38:01.519Z</time></trkpt><trkpt lat="46.3647867" lon="12.3491083"><ele>555.0</ele><time>2026-04-17T08:38:02.52Z</time></trkpt><trkpt lat="46.3648167" lon="12.34934"><ele>555.0</ele><time>2026-04-17T08:38:03.518Z</time></trkpt><trkpt lat="46.3648383" lon="12.3495733"><ele>555.0</ele><time>2026-04-17T08:38:04.518Z</time></trkpt><trkpt lat="46.3648817" lon="12.34981"><ele>555.0</ele><time>2026-04-17T08:38:05.519Z</time></trkpt><trkpt lat="46.3649567" lon="12.3500483"><ele>546.6666666666666</ele><time>2026-04-17T08:38:06.517Z</time></trkpt><trkpt lat="46.365075" lon="12.3502883"><ele>538.3333333333333</ele><time>2026-04-17T08:38:07.518Z</time></trkpt><trkpt lat="46.3652233" lon="12.35054"><ele>530.0</ele><time>2026-04-17T08:38:08.518Z</time></trkpt><trkpt lat="46.3654133" lon="12.35078"><ele>537.5</ele><time>2026-04-17T08:38:09.517Z</time></trkpt><trkpt lat="46.36562" lon="12.35104"><ele>545.0</ele><time>2026-04-17T08:38:10.518Z</time></trkpt><trkpt lat="46.3658383" lon="12.3513083"><ele>545.5</ele><time>2026-04-17T08:38:11.52Z</time></trkpt><trkpt lat="46.3661067" lon="12.35154"><ele>546.0</ele><time>2026-04-17T08:38:12.519Z</time></trkpt><trkpt lat="46.3663883" lon="12.3517667"><ele>546.0</ele><time>2026-04-17T08:38:13.521Z</time></trkpt><trkpt lat="46.3666667" lon="12.3519867"><ele>546.0</ele><time>2026-04-17T08:38:14.519Z</time></trkpt><trkpt lat="46.366925" lon="12.3522083"><ele>546.0</ele><time>2026-04-17T08:38:15.519Z</time></trkpt><trkpt lat="46.3671767" lon="12.3524217"><ele>546.0</ele><time>2026-04-17T08:38:16.518Z</time></trkpt><trkpt lat="46.36743" lon="12.3526367"><ele>546.0</ele><time>2026-04-17T08:38:17.518Z</time></trkpt><trkpt lat="46.36767" lon="12.3528633"><ele>546.0</ele><time>2026-04-17T08:38:18.518Z</time></trkpt><trkpt lat="46.3678783" lon="12.3530883"><ele>548.0</ele><time>2026-04-17T08:38:19.519Z</time></trkpt><trkpt lat="46.3680533" lon="12.3533067"><ele>550.0</ele><time>2026-04-17T08:38:20.52Z</time></trkpt><trkpt lat="46.3682033" lon="12.3535317"><ele>552.0</ele><time>2026-04-17T08:38:21.518Z</time></trkpt><trkpt lat="46.3683333" lon="12.35377"><ele>545.6666666666666</ele><time>2026-04-17T08:38:22.521Z</time></trkpt><trkpt lat="46.3684367" lon="12.3540117"><ele>539.3333333333333</ele><time>2026-04-17T08:38:23.52Z</time></trkpt><trkpt lat="46.3685183" lon="12.3541983"><ele>533.0</ele><time>2026-04-17T08:38:24.518Z</time></trkpt><trkpt lat="46.3686133" lon="12.35431"><ele>533.0</ele><time>2026-04-17T08:38:25.519Z</time></trkpt><trkpt lat="46.3687233" lon="12.3543683"><ele>533.0</ele><time>2026-04-17T08:38:26.518Z</time></trkpt><trkpt lat="46.36885" lon="12.35437"><ele>533.0</ele><time>2026-04-17T08:38:27.517Z</time></trkpt><trkpt lat="46.3690167" lon="12.3543367"><ele>533.0</ele><time>2026-04-17T08:38:28.517Z</time></trkpt><trkpt lat="46.36921" lon="12.35432"><ele>535.3333333333333</ele><time>2026-04-17T08:38:29.519Z</time></trkpt><trkpt lat="46.369415" lon="12.3543267"><ele>537.6666666666666</ele><time>2026-04-17T08:38:30.519Z</time></trkpt><trkpt lat="46.369605" lon="12.354355"><ele>540.0</ele><time>2026-04-17T08:38:31.521Z</time></trkpt><trkpt lat="46.3697783" lon="12.35441"><ele>543.6666666666666</ele><time>2026-04-17T08:38:32.518Z</time></trkpt><trkpt lat="46.3699467" lon="12.3544917"><ele>547.3333333333333</ele><time>2026-04-17T08:38:33.518Z</time></trkpt><trkpt lat="46.3701183" lon="12.354615"><ele>551.0</ele><time>2026-04-17T08:38:34.518Z</time></trkpt><trkpt lat="46.3703017" lon="12.3547617"><ele>544.0</ele><time>2026-04-17T08:38:35.517Z</time></trkpt><trkpt lat="46.3704933" lon="12.354905"><ele>537.0</ele><time>2026-04-17T08:38:36.518Z</time></trkpt><trkpt lat="46.370685" lon="12.3550183"><ele>530.0</ele><time>2026-04-17T08:38:37.518Z</time></trkpt><trkpt lat="46.3708667" lon="12.3550833"><ele>530.0</ele><time>2026-04-17T08:38:38.518Z</time></trkpt><trkpt lat="46.3710483" lon="12.3551083"><ele>530.0</ele><time>2026-04-17T08:38:39.518Z</time></trkpt><trkpt lat="46.371235" lon="12.3550883"><ele>530.0</ele><time>2026-04-17T08:38:40.518Z</time></trkpt><trkpt lat="46.371435" lon="12.3550433"><ele>531.0</ele><time>2026-04-17T08:38:41.519Z</time></trkpt><trkpt lat="46.371645" lon="12.3549933"><ele>532.0</ele><time>2026-04-17T08:38:42.518Z</time></trkpt><trkpt lat="46.3718417" lon="12.3549617"><ele>533.0</ele><time>2026-04-17T08:38:43.521Z</time></trkpt><trkpt lat="46.372025" lon="12.3549183"><ele>532.6666666666666</ele><time>2026-04-17T08:38:44.518Z</time></trkpt><trkpt lat="46.3722133" lon="12.3548467"><ele>532.3333333333334</ele><time>2026-04-17T08:38:45.518Z</time></trkpt><trkpt lat="46.3724183" lon="12.3547583"><ele>532.0</ele><time>2026-04-17T08:38:46.518Z</time></trkpt><trkpt lat="46.37265" lon="12.35466"><ele>546.5</ele><time>2026-04-17T08:38:47.52Z</time></trkpt><trkpt lat="46.3729017" lon="12.3545583"><ele>561.0</ele><time>2026-04-17T08:38:48.519Z</time></trkpt><trkpt lat="46.3731683" lon="12.3544483"><ele>561.0</ele><time>2026-04-17T08:38:49.52Z</time></trkpt><trkpt lat="46.3734417" lon="12.3543417"><ele>561.0</ele><time>2026-04-17T08:38:50.519Z</time></trkpt><trkpt lat="46.373705" lon="12.354235"><ele>555.5</ele><time>2026-04-17T08:38:51.518Z</time></trkpt><trkpt lat="46.3739533" lon="12.3541417"><ele>550.0</ele><time>2026-04-17T08:38:52.518Z</time></trkpt><trkpt lat="46.374195" lon="12.3540783"><ele>550.0</ele><time>2026-04-17T08:38:53.518Z</time></trkpt><trkpt lat="46.374435" lon="12.3540417"><ele>550.0</ele><time>2026-04-17T08:38:54.517Z</time></trkpt><trkpt lat="46.3746867" lon="12.3540333"><ele>551.0</ele><time>2026-04-17T08:38:55.519Z</time></trkpt><trkpt lat="46.3749433" lon="12.3540683"><ele>552.0</ele><time>2026-04-17T08:38:56.518Z</time></trkpt><trkpt lat="46.37519" lon="12.3541367"><ele>552.0</ele><time>2026-04-17T08:38:57.517Z</time></trkpt><trkpt lat="46.37542" lon="12.3542283"><ele>552.0</ele><time>2026-04-17T08:38:58.517Z</time></trkpt><trkpt lat="46.3756367" lon="12.3543283"><ele>559.0</ele><time>2026-04-17T08:38:59.517Z</time></trkpt><trkpt lat="46.3758317" lon="12.3544517"><ele>566.0</ele><time>2026-04-17T08:39:00.518Z</time></trkpt><trkpt lat="46.3759933" lon="12.3545733"><ele>573.0</ele><time>2026-04-17T08:39:01.518Z</time></trkpt><trkpt lat="46.3761383" lon="12.3546467"><ele>573.0</ele><time>2026-04-17T08:39:02.518Z</time></trkpt><trkpt lat="46.376275" lon="12.3546667"><ele>573.0</ele><time>2026-04-17T08:39:03.518Z</time></trkpt><trkpt lat="46.3764267" lon="12.3546267"><ele>573.0</ele><time>2026-04-17T08:39:04.517Z</time></trkpt><trkpt lat="46.3766033" lon="12.35456"><ele>574.0</ele><time>2026-04-17T08:39:05.518Z</time></trkpt><trkpt lat="46.3768117" lon="12.3544733"><ele>575.0</ele><time>2026-04-17T08:39:06.517Z</time></trkpt><trkpt lat="46.377045" lon="12.3543833"><ele>567.5</ele><time>2026-04-17T08:39:07.518Z</time></trkpt><trkpt lat="46.3772867" lon="12.354285"><ele>560.0</ele><time>2026-04-17T08:39:08.518Z</time></trkpt><trkpt lat="46.37752" lon="12.3541733"><ele>560.0</ele><time>2026-04-17T08:39:09.517Z</time></trkpt><trkpt lat="46.3777417" lon="12.354045"><ele>560.0</ele><time>2026-04-17T08:39:10.519Z</time></trkpt><trkpt lat="46.3779533" lon="12.35388"><ele>561.3333333333333</ele><time>2026-04-17T08:39:11.518Z</time></trkpt><trkpt lat="46.37815" lon="12.3536933"><ele>562.6666666666666</ele><time>2026-04-17T08:39:12.518Z</time></trkpt><trkpt lat="46.3783133" lon="12.3534933"><ele>564.0</ele><time>2026-04-17T08:39:13.518Z</time></trkpt><trkpt lat="46.37844" lon="12.35328"><ele>564.0</ele><time>2026-04-17T08:39:14.518Z</time></trkpt><trkpt lat="46.3785417" lon="12.3530717"><ele>564.0</ele><time>2026-04-17T08:39:15.518Z</time></trkpt><trkpt lat="46.37864" lon="12.3528783"><ele>564.0</ele><time>2026-04-17T08:39:16.517Z</time></trkpt><trkpt lat="46.37876" lon="12.3527067"><ele>563.0</ele><time>2026-04-17T08:39:17.518Z</time></trkpt><trkpt lat="46.378915" lon="12.3525833"><ele>562.0</ele><time>2026-04-17T08:39:18.517Z</time></trkpt><trkpt lat="46.37911" lon="12.352515"><ele>561.0</ele><time>2026-04-17T08:39:19.518Z</time></trkpt><trkpt lat="46.379345" lon="12.35246"><ele>561.0</ele><time>2026-04-17T08:39:20.519Z</time></trkpt><trkpt lat="46.3796083" lon="12.3523717"><ele>561.0</ele><time>2026-04-17T08:39:21.516Z</time></trkpt><trkpt lat="46.3798967" lon="12.3522617"><ele>570.5</ele><time>2026-04-17T08:39:22.517Z</time></trkpt><trkpt lat="46.3802083" lon="12.35214"><ele>580.0</ele><time>2026-04-17T08:39:23.517Z</time></trkpt><trkpt lat="46.3805183" lon="12.3520167"><ele>580.0</ele><time>2026-04-17T08:39:24.517Z</time></trkpt><trkpt lat="46.3808183" lon="12.351925"><ele>580.0</ele><time>2026-04-17T08:39:25.52Z</time></trkpt><trkpt lat="46.3811067" lon="12.3518483"><ele>579.0</ele><time>2026-04-17T08:39:26.518Z</time></trkpt><trkpt lat="46.3813817" lon="12.351825"><ele>578.0</ele><time>2026-04-17T08:39:27.518Z</time></trkpt><trkpt lat="46.3816283" lon="12.351815"><ele>578.0</ele><time>2026-04-17T08:39:28.519Z</time></trkpt><trkpt lat="46.3818167" lon="12.351835"><ele>578.0</ele><time>2026-04-17T08:39:29.517Z</time></trkpt><trkpt lat="46.3819817" lon="12.351885"><ele>578.0</ele><time>2026-04-17T08:39:30.517Z</time></trkpt><trkpt lat="46.38214" lon="12.351945"><ele>577.25</ele><time>2026-04-17T08:39:31.518Z</time></trkpt><trkpt lat="46.3822933" lon="12.35199"><ele>576.5</ele><time>2026-04-17T08:39:32.518Z</time></trkpt><trkpt lat="46.38244" lon="12.3520167"><ele>575.75</ele><time>2026-04-17T08:39:33.518Z</time></trkpt><trkpt lat="46.38258" lon="12.3520333"><ele>575.0</ele><time>2026-04-17T08:39:34.518Z</time></trkpt><trkpt lat="46.382715" lon="12.3520433"><ele>575.0</ele><time>2026-04-17T08:39:35.518Z</time></trkpt><trkpt lat="46.3828483" lon="12.3520517"><ele>575.0</ele><time>2026-04-17T08:39:36.518Z</time></trkpt><trkpt lat="46.3829767" lon="12.3520617"><ele>575.0</ele><time>2026-04-17T08:39:37.518Z</time></trkpt><trkpt lat="46.3831" lon="12.3520683"><ele>575.0</ele><time>2026-04-17T08:39:38.518Z</time></trkpt><trkpt lat="46.3832183" lon="12.352075"><ele>577.5</ele><time>2026-04-17T08:39:39.518Z</time></trkpt><trkpt lat="46.3833383" lon="12.352055"><ele>580.0</ele><time>2026-04-17T08:39:40.518Z</time></trkpt><trkpt lat="46.3834617" lon="12.3520067"><ele>582.5</ele><time>2026-04-17T08:39:41.518Z</time></trkpt><trkpt lat="46.3835767" lon="12.351945"><ele>585.0</ele><time>2026-04-17T08:39:42.517Z</time></trkpt><trkpt lat="46.3836833" lon="12.35188"><ele>585.0</ele><time>2026-04-17T08:39:43.518Z</time></trkpt><trkpt lat="46.3837833" lon="12.3518367"><ele>585.0</ele><time>2026-04-17T08:39:44.518Z</time></trkpt><trkpt lat="46.38388" lon="12.3518333"><ele>585.0</ele><time>2026-04-17T08:39:45.518Z</time></trkpt><trkpt lat="46.3839683" lon="12.3518833"><ele>585.0</ele><time>2026-04-17T08:39:46.517Z</time></trkpt><trkpt lat="46.384045" lon="12.351995"><ele>585.0</ele><time>2026-04-17T08:39:47.517Z</time></trkpt><trkpt lat="46.384125" lon="12.3521417"><ele>572.3333333333334</ele><time>2026-04-17T08:39:48.517Z</time></trkpt><trkpt lat="46.384215" lon="12.3523317"><ele>559.6666666666667</ele><time>2026-04-17T08:39:49.518Z</time></trkpt><trkpt lat="46.384335" lon="12.352525"><ele>547.0</ele><time>2026-04-17T08:39:50.52Z</time></trkpt><trkpt lat="46.384485" lon="12.3526867"><ele>547.0</ele><time>2026-04-17T08:39:51.519Z</time></trkpt><trkpt lat="46.3846633" lon="12.3528167"><ele>547.0</ele><time>2026-04-17T08:39:52.518Z</time></trkpt><trkpt lat="46.384865" lon="12.352915"><ele>547.0</ele><time>2026-04-17T08:39:53.518Z</time></trkpt><trkpt lat="46.38509" lon="12.352995"><ele>545.0</ele><time>2026-04-17T08:39:54.518Z</time></trkpt><trkpt lat="46.38534" lon="12.353075"><ele>543.0</ele><time>2026-04-17T08:39:55.52Z</time></trkpt><trkpt lat="46.3856183" lon="12.3531633"><ele>543.0</ele><time>2026-04-17T08:39:56.519Z</time></trkpt><trkpt lat="46.38591" lon="12.3532533"><ele>543.0</ele><time>2026-04-17T08:39:57.518Z</time></trkpt><trkpt lat="46.3861983" lon="12.3533433"><ele>545.5</ele><time>2026-04-17T08:39:58.518Z</time></trkpt><trkpt lat="46.386475" lon="12.3534283"><ele>548.0</ele><time>2026-04-17T08:39:59.518Z</time></trkpt><trkpt lat="46.3867383" lon="12.3535133"><ele>548.0</ele><time>2026-04-17T08:40:00.518Z</time></trkpt><trkpt lat="46.3869883" lon="12.3535967"><ele>548.0</ele><time>2026-04-17T08:40:01.517Z</time></trkpt><trkpt lat="46.3872317" lon="12.3537067"><ele>551.0</ele><time>2026-04-17T08:40:02.518Z</time></trkpt><trkpt lat="46.38747" lon="12.3538367"><ele>554.0</ele><time>2026-04-17T08:40:03.519Z</time></trkpt><trkpt lat="46.3877" lon="12.353965"><ele>549.5</ele><time>2026-04-17T08:40:04.518Z</time></trkpt><trkpt lat="46.3879183" lon="12.3540833"><ele>545.0</ele><time>2026-04-17T08:40:05.518Z</time></trkpt><trkpt lat="46.38813" lon="12.35418"><ele>545.0</ele><time>2026-04-17T08:40:06.519Z</time></trkpt><trkpt lat="46.38835" lon="12.3542517"><ele>545.0</ele><time>2026-04-17T08:40:07.518Z</time></trkpt><trkpt lat="46.3885917" lon="12.3543033"><ele>550.0</ele><time>2026-04-17T08:40:08.518Z</time></trkpt><trkpt lat="46.3888567" lon="12.354345"><ele>555.0</ele><time>2026-04-17T08:40:09.517Z</time></trkpt><trkpt lat="46.3891383" lon="12.3543967"><ele>555.0</ele><time>2026-04-17T08:40:10.518Z</time></trkpt><trkpt lat="46.38943" lon="12.3544567"><ele>555.0</ele><time>2026-04-17T08:40:11.518Z</time></trkpt><trkpt lat="46.3897267" lon="12.354535"><ele>563.0</ele><time>2026-04-17T08:40:12.518Z</time></trkpt><trkpt lat="46.3900283" lon="12.3546367"><ele>571.0</ele><time>2026-04-17T08:40:13.521Z</time></trkpt><trkpt lat="46.3903367" lon="12.35475"><ele>556.5</ele><time>2026-04-17T08:40:14.517Z</time></trkpt><trkpt lat="46.3906533" lon="12.3548667"><ele>542.0</ele><time>2026-04-17T08:40:15.516Z</time></trkpt><trkpt lat="46.3909667" lon="12.35499"><ele>542.0</ele><time>2026-04-17T08:40:16.518Z</time></trkpt><trkpt lat="46.3912733" lon="12.3551317"><ele>542.0</ele><time>2026-04-17T08:40:17.518Z</time></trkpt><trkpt lat="46.3915767" lon="12.3552833"><ele>536.5</ele><time>2026-04-17T08:40:18.517Z</time></trkpt><trkpt lat="46.3918667" lon="12.3554383"><ele>531.0</ele><time>2026-04-17T08:40:19.519Z</time></trkpt><trkpt lat="46.3921433" lon="12.3555833"><ele>531.0</ele><time>2026-04-17T08:40:20.519Z</time></trkpt><trkpt lat="46.3924067" lon="12.3557167"><ele>531.0</ele><time>2026-04-17T08:40:21.518Z</time></trkpt><trkpt lat="46.3926583" lon="12.3558333"><ele>531.0</ele><time>2026-04-17T08:40:22.518Z</time></trkpt><trkpt lat="46.3929033" lon="12.3559067"><ele>531.0</ele><time>2026-04-17T08:40:23.519Z</time></trkpt><trkpt lat="46.3931383" lon="12.3559617"><ele>536.5</ele><time>2026-04-17T08:40:24.521Z</time></trkpt><trkpt lat="46.3933683" lon="12.35601"><ele>542.0</ele><time>2026-04-17T08:40:25.517Z</time></trkpt><trkpt lat="46.3935883" lon="12.3560583"><ele>542.0</ele><time>2026-04-17T08:40:26.518Z</time></trkpt><trkpt lat="46.3937933" lon="12.3561067"><ele>542.0</ele><time>2026-04-17T08:40:27.518Z</time></trkpt><trkpt lat="46.393975" lon="12.3561533"><ele>542.0</ele><time>2026-04-17T08:40:28.519Z</time></trkpt><trkpt lat="46.394135" lon="12.3562017"><ele>544.25</ele><time>2026-04-17T08:40:29.52Z</time></trkpt><trkpt lat="46.3942783" lon="12.3562517"><ele>546.5</ele><time>2026-04-17T08:40:30.518Z</time></trkpt><trkpt lat="46.3943983" lon="12.3563017"><ele>548.75</ele><time>2026-04-17T08:40:31.519Z</time></trkpt><trkpt lat="46.3945083" lon="12.3563567"><ele>551.0</ele><time>2026-04-17T08:40:32.52Z</time></trkpt><trkpt lat="46.3946067" lon="12.3564217"><ele>545.5</ele><time>2026-04-17T08:40:33.518Z</time></trkpt><trkpt lat="46.39471" lon="12.3564867"><ele>540.0</ele><time>2026-04-17T08:40:34.518Z</time></trkpt><trkpt lat="46.3948283" lon="12.3565417"><ele>534.5</ele><time>2026-04-17T08:40:35.518Z</time></trkpt><trkpt lat="46.3949617" lon="12.35657"><ele>529.0</ele><time>2026-04-17T08:40:36.518Z</time></trkpt><trkpt lat="46.3950983" lon="12.3565867"><ele>529.0</ele><time>2026-04-17T08:40:37.523Z</time></trkpt><trkpt lat="46.3952317" lon="12.356585"><ele>529.0</ele><time>2026-04-17T08:40:38.518Z</time></trkpt><trkpt lat="46.395365" lon="12.3565417"><ele>529.0</ele><time>2026-04-17T08:40:39.519Z</time></trkpt><trkpt lat="46.3955033" lon="12.3564633"><ele>529.0</ele><time>2026-04-17T08:40:40.519Z</time></trkpt><trkpt lat="46.3956367" lon="12.3563683"><ele>531.3333333333334</ele><time>2026-04-17T08:40:41.52Z</time></trkpt><trkpt lat="46.39577" lon="12.3562733"><ele>533.6666666666666</ele><time>2026-04-17T08:40:42.518Z</time></trkpt><trkpt lat="46.3959067" lon="12.3561783"><ele>536.0</ele><time>2026-04-17T08:40:43.518Z</time></trkpt><trkpt lat="46.39605" lon="12.3560817"><ele>536.0</ele><time>2026-04-17T08:40:44.519Z</time></trkpt><trkpt lat="46.3962017" lon="12.3559833"><ele>536.0</ele><time>2026-04-17T08:40:45.517Z</time></trkpt><trkpt lat="46.396355" lon="12.3558867"><ele>536.0</ele><time>2026-04-17T08:40:46.518Z</time></trkpt><trkpt lat="46.3965033" lon="12.3558"><ele>535.25</ele><time>2026-04-17T08:40:47.519Z</time></trkpt><trkpt lat="46.3966483" lon="12.3557"><ele>534.5</ele><time>2026-04-17T08:40:48.518Z</time></trkpt><trkpt lat="46.3967783" lon="12.3556217"><ele>533.75</ele><time>2026-04-17T08:40:49.518Z</time></trkpt><trkpt lat="46.3969" lon="12.3555667"><ele>533.0</ele><time>2026-04-17T08:40:50.519Z</time></trkpt><trkpt lat="46.3969983" lon="12.3555683"><ele>533.0</ele><time>2026-04-17T08:40:51.517Z</time></trkpt><trkpt lat="46.39709" lon="12.35559"><ele>533.0</ele><time>2026-04-17T08:40:52.519Z</time></trkpt><trkpt lat="46.3971733" lon="12.3556817"><ele>533.0</ele><time>2026-04-17T08:40:53.518Z</time></trkpt><trkpt lat="46.3972517" lon="12.3558233"><ele>533.0</ele><time>2026-04-17T08:40:54.518Z</time></trkpt><trkpt lat="46.3973367" lon="12.356"><ele>532.6666666666666</ele><time>2026-04-17T08:40:55.521Z</time></trkpt><trkpt lat="46.3974317" lon="12.3561967"><ele>532.3333333333334</ele><time>2026-04-17T08:40:56.52Z</time></trkpt><trkpt lat="46.3975283" lon="12.3563767"><ele>532.0</ele><time>2026-04-17T08:40:57.519Z</time></trkpt><trkpt lat="46.3976117" lon="12.35653"><ele>531.3333333333334</ele><time>2026-04-17T08:40:58.523Z</time></trkpt><trkpt lat="46.3976717" lon="12.3566467"><ele>530.6666666666667</ele><time>2026-04-17T08:40:59.52Z</time></trkpt><trkpt lat="46.3977083" lon="12.3567317"><ele>530.0</ele><time>2026-04-17T08:41:00.519Z</time></trkpt><trkpt lat="46.3976967" lon="12.3568583"><ele>529.3333333333334</ele><time>2026-04-17T08:41:02.52Z</time></trkpt><trkpt lat="46.397635" lon="12.3569117"><ele>528.6666666666666</ele><time>2026-04-17T08:41:03.522Z</time></trkpt><trkpt lat="46.39756" lon="12.3569867"><ele>528.0</ele><time>2026-04-17T08:41:04.52Z</time></trkpt><trkpt lat="46.3974767" lon="12.3571167"><ele>528.5</ele><time>2026-04-17T08:41:05.521Z</time></trkpt><trkpt lat="46.3974083" lon="12.3572933"><ele>529.0</ele><time>2026-04-17T08:41:06.52Z</time></trkpt><trkpt lat="46.3973483" lon="12.3574967"><ele>529.5</ele><time>2026-04-17T08:41:07.52Z</time></trkpt><trkpt lat="46.39729" lon="12.3577067"><ele>530.0</ele><time>2026-04-17T08:41:08.521Z</time></trkpt><trkpt lat="46.3972433" lon="12.3578967"><ele>531.6</ele><time>2026-04-17T08:41:09.519Z</time></trkpt><trkpt lat="46.3972133" lon="12.35806"><ele>533.2</ele><time>2026-04-17T08:41:10.519Z</time></trkpt><trkpt lat="46.3972167" lon="12.358195"><ele>534.8</ele><time>2026-04-17T08:41:11.52Z</time></trkpt><trkpt lat="46.3972467" lon="12.358315"><ele>536.4</ele><time>2026-04-17T08:41:12.52Z</time></trkpt><trkpt lat="46.3973333" lon="12.3584117"><ele>538.0</ele><time>2026-04-17T08:41:13.519Z</time></trkpt><trkpt lat="46.3974367" lon="12.358505"><ele>538.0</ele><time>2026-04-17T08:41:14.519Z</time></trkpt><trkpt lat="46.3975317" lon="12.3586183"><ele>538.0</ele><time>2026-04-17T08:41:15.518Z</time></trkpt><trkpt lat="46.3975967" lon="12.3587567"><ele>538.0</ele><time>2026-04-17T08:41:16.52Z</time></trkpt><trkpt lat="46.3976417" lon="12.35892"><ele>538.0</ele><time>2026-04-17T08:41:17.522Z</time></trkpt><trkpt lat="46.3976633" lon="12.3591133"><ele>543.3333333333334</ele><time>2026-04-17T08:41:18.519Z</time></trkpt><trkpt lat="46.397665" lon="12.3593317"><ele>548.6666666666666</ele><time>2026-04-17T08:41:19.52Z</time></trkpt><trkpt lat="46.3976483" lon="12.3595617"><ele>554.0</ele><time>2026-04-17T08:41:20.52Z</time></trkpt><trkpt lat="46.3976217" lon="12.3597967"><ele>559.3333333333333</ele><time>2026-04-17T08:41:21.518Z</time></trkpt><trkpt lat="46.3976067" lon="12.36004"><ele>564.6666666666666</ele><time>2026-04-17T08:41:22.52Z</time></trkpt><trkpt lat="46.3976017" lon="12.360285"><ele>570.0</ele><time>2026-04-17T08:41:23.519Z</time></trkpt><trkpt lat="46.3976" lon="12.3605317"><ele>574.3333333333334</ele><time>2026-04-17T08:41:24.519Z</time></trkpt><trkpt lat="46.397615" lon="12.3607733"><ele>578.6666666666667</ele><time>2026-04-17T08:41:25.519Z</time></trkpt><trkpt lat="46.397635" lon="12.3610033"><ele>583.0</ele><time>2026-04-17T08:41:26.52Z</time></trkpt><trkpt lat="46.39764" lon="12.3612183"><ele>585.0</ele><time>2026-04-17T08:41:27.519Z</time></trkpt><trkpt lat="46.397625" lon="12.3614267"><ele>587.0</ele><time>2026-04-17T08:41:28.519Z</time></trkpt><trkpt lat="46.3976" lon="12.36164"><ele>589.0</ele><time>2026-04-17T08:41:29.521Z</time></trkpt><trkpt lat="46.3975667" lon="12.3618633"><ele>589.0</ele><time>2026-04-17T08:41:30.52Z</time></trkpt><trkpt lat="46.3975267" lon="12.3620783"><ele>589.0</ele><time>2026-04-17T08:41:31.52Z</time></trkpt><trkpt lat="46.3974833" lon="12.3622667"><ele>589.0</ele><time>2026-04-17T08:41:32.52Z</time></trkpt><trkpt lat="46.3974083" lon="12.362435"><ele>589.0</ele><time>2026-04-17T08:41:33.519Z</time></trkpt><trkpt lat="46.3973133" lon="12.36262"><ele>588.0</ele><time>2026-04-17T08:41:34.52Z</time></trkpt><trkpt lat="46.3972367" lon="12.3628317"><ele>587.0</ele><time>2026-04-17T08:41:35.52Z</time></trkpt><trkpt lat="46.397195" lon="12.3630667"><ele>586.0</ele><time>2026-04-17T08:41:36.519Z</time></trkpt><trkpt lat="46.397185" lon="12.3633183"><ele>584.6666666666667</ele><time>2026-04-17T08:41:37.52Z</time></trkpt><trkpt lat="46.3971967" lon="12.3635833"><ele>583.3333333333334</ele><time>2026-04-17T08:41:38.52Z</time></trkpt><trkpt lat="46.3972183" lon="12.3638283"><ele>582.0</ele><time>2026-04-17T08:41:39.52Z</time></trkpt><trkpt lat="46.397225" lon="12.3640233"><ele>581.75</ele><time>2026-04-17T08:41:40.52Z</time></trkpt><trkpt lat="46.3972067" lon="12.3641833"><ele>581.5</ele><time>2026-04-17T08:41:41.519Z</time></trkpt><trkpt lat="46.3971583" lon="12.364345"><ele>581.25</ele><time>2026-04-17T08:41:42.52Z</time></trkpt><trkpt lat="46.39712" lon="12.3645283"><ele>581.0</ele><time>2026-04-17T08:41:43.519Z</time></trkpt><trkpt lat="46.3971" lon="12.3647417"><ele>597.0</ele><time>2026-04-17T08:41:44.52Z</time></trkpt><trkpt lat="46.3970783" lon="12.3649833"><ele>613.0</ele><time>2026-04-17T08:41:45.52Z</time></trkpt><trkpt lat="46.3970467" lon="12.3652367"><ele>629.0</ele><time>2026-04-17T08:41:46.519Z</time></trkpt><trkpt lat="46.3970133" lon="12.365485"><ele>624.3333333333333</ele><time>2026-04-17T08:41:47.52Z</time></trkpt><trkpt lat="46.397" lon="12.36573"><ele>619.6666666666666</ele><time>2026-04-17T08:41:48.52Z</time></trkpt><trkpt lat="46.3970167" lon="12.36599"><ele>615.0</ele><time>2026-04-17T08:41:49.519Z</time></trkpt><trkpt lat="46.3970517" lon="12.366245"><ele>613.3333333333334</ele><time>2026-04-17T08:41:50.519Z</time></trkpt><trkpt lat="46.3970783" lon="12.36649"><ele>611.6666666666667</ele><time>2026-04-17T08:41:51.521Z</time></trkpt><trkpt lat="46.39708" lon="12.3667133"><ele>610.0</ele><time>2026-04-17T08:41:52.52Z</time></trkpt><trkpt lat="46.39706" lon="12.3669017"><ele>610.0</ele><time>2026-04-17T08:41:53.52Z</time></trkpt><trkpt lat="46.3970233" lon="12.367025"><ele>610.0</ele><time>2026-04-17T08:41:54.52Z</time></trkpt><trkpt lat="46.3969083" lon="12.3670983"><ele>610.0</ele><time>2026-04-17T08:41:56.52Z</time></trkpt><trkpt lat="46.396815" lon="12.3670917"><ele>610.0</ele><time>2026-04-17T08:41:57.52Z</time></trkpt><trkpt lat="46.39669" lon="12.3670733"><ele>610.0</ele><time>2026-04-17T08:41:58.519Z</time></trkpt><trkpt lat="46.3965533" lon="12.367045"><ele>610.0</ele><time>2026-04-17T08:41:59.521Z</time></trkpt><trkpt lat="46.39643" lon="12.36697"><ele>610.0</ele><time>2026-04-17T08:42:00.52Z</time></trkpt><trkpt lat="46.396315" lon="12.3668533"><ele>610.0</ele><time>2026-04-17T08:42:01.52Z</time></trkpt><trkpt lat="46.3961917" lon="12.3667333"><ele>610.0</ele><time>2026-04-17T08:42:02.52Z</time></trkpt><trkpt lat="46.39605" lon="12.3666367"><ele>610.3333333333334</ele><time>2026-04-17T08:42:03.519Z</time></trkpt><trkpt lat="46.3958917" lon="12.36656"><ele>610.6666666666666</ele><time>2026-04-17T08:42:04.52Z</time></trkpt><trkpt lat="46.3957283" lon="12.3665033"><ele>611.0</ele><time>2026-04-17T08:42:05.52Z</time></trkpt><trkpt lat="46.3955767" lon="12.3664717"><ele>613.0</ele><time>2026-04-17T08:42:06.52Z</time></trkpt><trkpt lat="46.395435" lon="12.3664767"><ele>615.0</ele><time>2026-04-17T08:42:07.52Z</time></trkpt><trkpt lat="46.3953067" lon="12.3665217"><ele>617.0</ele><time>2026-04-17T08:42:08.52Z</time></trkpt><trkpt lat="46.3951867" lon="12.3666067"><ele>619.0</ele><time>2026-04-17T08:42:09.52Z</time></trkpt><trkpt lat="46.395075" lon="12.3667267"><ele>619.0</ele><time>2026-04-17T08:42:10.52Z</time></trkpt><trkpt lat="46.3949817" lon="12.3668767"><ele>619.0</ele><time>2026-04-17T08:42:11.52Z</time></trkpt><trkpt lat="46.3949033" lon="12.3670617"><ele>619.0</ele><time>2026-04-17T08:42:12.52Z</time></trkpt><trkpt lat="46.3948483" lon="12.3672733"><ele>619.0</ele><time>2026-04-17T08:42:13.519Z</time></trkpt><trkpt lat="46.3948033" lon="12.3675033"><ele>619.5</ele><time>2026-04-17T08:42:14.521Z</time></trkpt><trkpt lat="46.3947633" lon="12.3677267"><ele>620.0</ele><time>2026-04-17T08:42:15.52Z</time></trkpt><trkpt lat="46.3947233" lon="12.36793"><ele>620.5</ele><time>2026-04-17T08:42:16.52Z</time></trkpt><trkpt lat="46.3946867" lon="12.3680933"><ele>621.0</ele><time>2026-04-17T08:42:17.52Z</time></trkpt><trkpt lat="46.3946467" lon="12.368205"><ele>623.5</ele><time>2026-04-17T08:42:18.521Z</time></trkpt><trkpt lat="46.3946017" lon="12.36829"><ele>626.0</ele><time>2026-04-17T08:42:19.52Z</time></trkpt><trkpt lat="46.3945517" lon="12.3683583"><ele>628.5</ele><time>2026-04-17T08:42:20.52Z</time></trkpt><trkpt lat="46.3945017" lon="12.3684417"><ele>631.0</ele><time>2026-04-17T08:42:21.52Z</time></trkpt><trkpt lat="46.3944617" lon="12.3685533"><ele>633.5</ele><time>2026-04-17T08:42:22.52Z</time></trkpt><trkpt lat="46.39444" lon="12.368685"><ele>636.0</ele><time>2026-04-17T08:42:23.52Z</time></trkpt><trkpt lat="46.3944217" lon="12.3688383"><ele>636.4</ele><time>2026-04-17T08:42:24.52Z</time></trkpt><trkpt lat="46.3943917" lon="12.3689783"><ele>636.8</ele><time>2026-04-17T08:42:25.52Z</time></trkpt><trkpt lat="46.3943533" lon="12.3691017"><ele>637.1999999999999</ele><time>2026-04-17T08:42:26.522Z</time></trkpt><trkpt lat="46.3942833" lon="12.3691867"><ele>637.6</ele><time>2026-04-17T08:42:27.52Z</time></trkpt><trkpt lat="46.3941917" lon="12.3692517"><ele>638.0</ele><time>2026-04-17T08:42:28.52Z</time></trkpt><trkpt lat="46.3940933" lon="12.36928"><ele>638.0</ele><time>2026-04-17T08:42:29.52Z</time></trkpt><trkpt lat="46.3939933" lon="12.3692717"><ele>638.0</ele><time>2026-04-17T08:42:30.52Z</time></trkpt><trkpt lat="46.39391" lon="12.3692333"><ele>638.0</ele><time>2026-04-17T08:42:31.52Z</time></trkpt><trkpt lat="46.393855" lon="12.3691217"><ele>638.0</ele><time>2026-04-17T08:42:32.52Z</time></trkpt><trkpt lat="46.39382" lon="12.3690083"><ele>638.0</ele><time>2026-04-17T08:42:33.52Z</time></trkpt><trkpt lat="46.3938183" lon="12.368895"><ele>638.0</ele><time>2026-04-17T08:42:34.52Z</time></trkpt><trkpt lat="46.3938467" lon="12.3687917"><ele>638.0</ele><time>2026-04-17T08:42:35.52Z</time></trkpt><trkpt lat="46.3939317" lon="12.3687333"><ele>638.0</ele><time>2026-04-17T08:42:36.52Z</time></trkpt><trkpt lat="46.3940167" lon="12.3687117"><ele>638.0</ele><time>2026-04-17T08:42:37.522Z</time></trkpt><trkpt lat="46.3941017" lon="12.3687317"><ele>638.0</ele><time>2026-04-17T08:42:38.52Z</time></trkpt><trkpt lat="46.394175" lon="12.3688133"><ele>638.0</ele><time>2026-04-17T08:42:39.52Z</time></trkpt><trkpt lat="46.3942467" lon="12.3689233"><ele>638.0</ele><time>2026-04-17T08:42:40.52Z</time></trkpt><trkpt lat="46.3943217" lon="12.369075"><ele>638.0</ele><time>2026-04-17T08:42:41.52Z</time></trkpt><trkpt lat="46.3944017" lon="12.3692533"><ele>638.0</ele><time>2026-04-17T08:42:42.52Z</time></trkpt><trkpt lat="46.3944917" lon="12.369445"><ele>638.0</ele><time>2026-04-17T08:42:43.521Z</time></trkpt><trkpt lat="46.3946033" lon="12.3696467"><ele>639.0</ele><time>2026-04-17T08:42:44.52Z</time></trkpt><trkpt lat="46.3947417" lon="12.36984"><ele>640.0</ele><time>2026-04-17T08:42:45.519Z</time></trkpt><trkpt lat="46.3949017" lon="12.37002"><ele>641.0</ele><time>2026-04-17T08:42:46.52Z</time></trkpt><trkpt lat="46.395075" lon="12.3702"><ele>641.0</ele><time>2026-04-17T08:42:47.522Z</time></trkpt><trkpt lat="46.3952583" lon="12.3703767"><ele>641.0</ele><time>2026-04-17T08:42:48.519Z</time></trkpt><trkpt lat="46.3954533" lon="12.3705433"><ele>641.0</ele><time>2026-04-17T08:42:49.52Z</time></trkpt><trkpt lat="46.3956567" lon="12.370695"><ele>650.5</ele><time>2026-04-17T08:42:50.52Z</time></trkpt><trkpt lat="46.3958667" lon="12.3708333"><ele>660.0</ele><time>2026-04-17T08:42:51.521Z</time></trkpt><trkpt lat="46.3960817" lon="12.370965"><ele>660.0</ele><time>2026-04-17T08:42:52.519Z</time></trkpt><trkpt lat="46.3963017" lon="12.3710917"><ele>660.0</ele><time>2026-04-17T08:42:53.519Z</time></trkpt><trkpt lat="46.3965283" lon="12.371225"><ele>666.5</ele><time>2026-04-17T08:42:54.519Z</time></trkpt><trkpt lat="46.3967617" lon="12.3713617"><ele>673.0</ele><time>2026-04-17T08:42:55.52Z</time></trkpt><trkpt lat="46.397" lon="12.3715017"><ele>664.5</ele><time>2026-04-17T08:42:56.521Z</time></trkpt><trkpt lat="46.3972417" lon="12.3716467"><ele>656.0</ele><time>2026-04-17T08:42:57.518Z</time></trkpt><trkpt lat="46.39749" lon="12.371795"><ele>656.0</ele><time>2026-04-17T08:42:58.519Z</time></trkpt><trkpt lat="46.3977417" lon="12.3719467"><ele>656.0</ele><time>2026-04-17T08:42:59.519Z</time></trkpt><trkpt lat="46.3980017" lon="12.3720917"><ele>650.0</ele><time>2026-04-17T08:43:00.519Z</time></trkpt><trkpt lat="46.3982633" lon="12.37224"><ele>644.0</ele><time>2026-04-17T08:43:01.522Z</time></trkpt><trkpt lat="46.3985283" lon="12.37239"><ele>644.0</ele><time>2026-04-17T08:43:02.522Z</time></trkpt><trkpt lat="46.3988" lon="12.3725467"><ele>644.0</ele><time>2026-04-17T08:43:03.52Z</time></trkpt><trkpt lat="46.3990717" lon="12.372705"><ele>647.0</ele><time>2026-04-17T08:43:04.522Z</time></trkpt><trkpt lat="46.3993467" lon="12.3728617"><ele>650.0</ele><time>2026-04-17T08:43:05.519Z</time></trkpt><trkpt lat="46.3996117" lon="12.3730133"><ele>664.0</ele><time>2026-04-17T08:43:06.519Z</time></trkpt><trkpt lat="46.3998633" lon="12.3731517"><ele>678.0</ele><time>2026-04-17T08:43:07.52Z</time></trkpt><trkpt lat="46.4001117" lon="12.3732717"><ele>678.0</ele><time>2026-04-17T08:43:08.52Z</time></trkpt><trkpt lat="46.40036" lon="12.3733633"><ele>678.0</ele><time>2026-04-17T08:43:09.519Z</time></trkpt><trkpt lat="46.4006167" lon="12.37342"><ele>664.0</ele><time>2026-04-17T08:43:10.523Z</time></trkpt><trkpt lat="46.40088" lon="12.3734417"><ele>650.0</ele><time>2026-04-17T08:43:11.52Z</time></trkpt><trkpt lat="46.4011483" lon="12.3734233"><ele>648.5</ele><time>2026-04-17T08:43:12.518Z</time></trkpt><trkpt lat="46.4014067" lon="12.3733583"><ele>647.0</ele><time>2026-04-17T08:43:13.519Z</time></trkpt><trkpt lat="46.4016583" lon="12.3732467"><ele>647.0</ele><time>2026-04-17T08:43:14.52Z</time></trkpt><trkpt lat="46.4019017" lon="12.37309"><ele>647.0</ele><time>2026-04-17T08:43:15.522Z</time></trkpt><trkpt lat="46.4021367" lon="12.3729033"><ele>626.0</ele><time>2026-04-17T08:43:16.52Z</time></trkpt><trkpt lat="46.4023667" lon="12.3726967"><ele>605.0</ele><time>2026-04-17T08:43:17.519Z</time></trkpt><trkpt lat="46.4025917" lon="12.37249"><ele>605.0</ele><time>2026-04-17T08:43:18.519Z</time></trkpt><trkpt lat="46.402815" lon="12.3722867"><ele>605.0</ele><time>2026-04-17T08:43:19.52Z</time></trkpt><trkpt lat="46.4030383" lon="12.3720817"><ele>609.0</ele><time>2026-04-17T08:43:20.52Z</time></trkpt><trkpt lat="46.403265" lon="12.3718733"><ele>613.0</ele><time>2026-04-17T08:43:21.519Z</time></trkpt><trkpt lat="46.403495" lon="12.3716617"><ele>613.0</ele><time>2026-04-17T08:43:22.519Z</time></trkpt><trkpt lat="46.4037317" lon="12.3714483"><ele>613.0</ele><time>2026-04-17T08:43:23.52Z</time></trkpt><trkpt lat="46.40397" lon="12.371235"><ele>644.5</ele><time>2026-04-17T08:43:24.519Z</time></trkpt><trkpt lat="46.4042133" lon="12.371015"><ele>676.0</ele><time>2026-04-17T08:43:25.519Z</time></trkpt><trkpt lat="46.4044633" lon="12.37079"><ele>677.5</ele><time>2026-04-17T08:43:26.52Z</time></trkpt><trkpt lat="46.404715" lon="12.3705667"><ele>679.0</ele><time>2026-04-17T08:43:27.52Z</time></trkpt><trkpt lat="46.4049667" lon="12.3703417"><ele>685.0</ele><time>2026-04-17T08:43:28.52Z</time></trkpt><trkpt lat="46.405225" lon="12.3701133"><ele>691.0</ele><time>2026-04-17T08:43:29.52Z</time></trkpt><trkpt lat="46.405485" lon="12.369885"><ele>681.5</ele><time>2026-04-17T08:43:30.519Z</time></trkpt><trkpt lat="46.405745" lon="12.3696517"><ele>672.0</ele><time>2026-04-17T08:43:31.52Z</time></trkpt><trkpt lat="46.406005" lon="12.3694183"><ele>672.0</ele><time>2026-04-17T08:43:32.524Z</time></trkpt><trkpt lat="46.4062667" lon="12.3691833"><ele>672.0</ele><time>2026-04-17T08:43:33.519Z</time></trkpt><trkpt lat="46.4065283" lon="12.36895"><ele>686.0</ele><time>2026-04-17T08:43:34.52Z</time></trkpt><trkpt lat="46.4067917" lon="12.3687133"><ele>700.0</ele><time>2026-04-17T08:43:35.519Z</time></trkpt><trkpt lat="46.40705" lon="12.36848"><ele>703.0</ele><time>2026-04-17T08:43:36.519Z</time></trkpt><trkpt lat="46.4072967" lon="12.3682567"><ele>706.0</ele><time>2026-04-17T08:43:37.521Z</time></trkpt><trkpt lat="46.4075333" lon="12.3680417"><ele>718.0</ele><time>2026-04-17T08:43:38.52Z</time></trkpt><trkpt lat="46.40776" lon="12.3678367"><ele>730.0</ele><time>2026-04-17T08:43:39.519Z</time></trkpt><trkpt lat="46.4079767" lon="12.3676433"><ele>729.0</ele><time>2026-04-17T08:43:40.519Z</time></trkpt><trkpt lat="46.408185" lon="12.3674717"><ele>728.0</ele><time>2026-04-17T08:43:41.518Z</time></trkpt><trkpt lat="46.40839" lon="12.3673367"><ele>728.0</ele><time>2026-04-17T08:43:42.519Z</time></trkpt><trkpt lat="46.4085933" lon="12.36724"><ele>728.0</ele><time>2026-04-17T08:43:43.52Z</time></trkpt><trkpt lat="46.4088033" lon="12.367185"><ele>728.0</ele><time>2026-04-17T08:43:44.521Z</time></trkpt><trkpt lat="46.409015" lon="12.3671733"><ele>729.3333333333333</ele><time>2026-04-17T08:43:45.518Z</time></trkpt><trkpt lat="46.40923" lon="12.367205"><ele>730.6666666666666</ele><time>2026-04-17T08:43:46.52Z</time></trkpt><trkpt lat="46.409445" lon="12.3672883"><ele>732.0</ele><time>2026-04-17T08:43:47.52Z</time></trkpt><trkpt lat="46.4096567" lon="12.367415"><ele>743.5</ele><time>2026-04-17T08:43:48.52Z</time></trkpt><trkpt lat="46.40986" lon="12.3675833"><ele>755.0</ele><time>2026-04-17T08:43:49.524Z</time></trkpt><trkpt lat="46.410055" lon="12.3677717"><ele>755.0</ele><time>2026-04-17T08:43:50.52Z</time></trkpt><trkpt lat="46.410245" lon="12.3679567"><ele>755.0</ele><time>2026-04-17T08:43:51.519Z</time></trkpt><trkpt lat="46.4104217" lon="12.3681383"><ele>755.0</ele><time>2026-04-17T08:43:52.52Z</time></trkpt><trkpt lat="46.4106017" lon="12.3683117"><ele>755.3333333333333</ele><time>2026-04-17T08:43:53.52Z</time></trkpt><trkpt lat="46.41079" lon="12.368465"><ele>755.6666666666666</ele><time>2026-04-17T08:43:54.519Z</time></trkpt><trkpt lat="46.41099" lon="12.3685983"><ele>756.0</ele><time>2026-04-17T08:43:55.519Z</time></trkpt><trkpt lat="46.4112067" lon="12.3687167"><ele>754.0</ele><time>2026-04-17T08:43:56.52Z</time></trkpt><trkpt lat="46.411445" lon="12.368825"><ele>752.0</ele><time>2026-04-17T08:43:57.519Z</time></trkpt><trkpt lat="46.4117067" lon="12.36894"><ele>752.0</ele><time>2026-04-17T08:43:58.519Z</time></trkpt><trkpt lat="46.4119867" lon="12.3690683"><ele>752.0</ele><time>2026-04-17T08:43:59.52Z</time></trkpt><trkpt lat="46.4122733" lon="12.369215"><ele>759.5</ele><time>2026-04-17T08:44:00.519Z</time></trkpt><trkpt lat="46.4125567" lon="12.369385"><ele>767.0</ele><time>2026-04-17T08:44:01.52Z</time></trkpt><trkpt lat="46.4128317" lon="12.3695883"><ele>768.5</ele><time>2026-04-17T08:44:02.521Z</time></trkpt><trkpt lat="46.4130867" lon="12.36982"><ele>770.0</ele><time>2026-04-17T08:44:03.519Z</time></trkpt><trkpt lat="46.41333" lon="12.3700667"><ele>770.0</ele><time>2026-04-17T08:44:04.52Z</time></trkpt><trkpt lat="46.4135617" lon="12.3703133"><ele>770.0</ele><time>2026-04-17T08:44:05.52Z</time></trkpt><trkpt lat="46.413775" lon="12.3705367"><ele>773.5</ele><time>2026-04-17T08:44:06.519Z</time></trkpt><trkpt lat="46.413965" lon="12.3707383"><ele>777.0</ele><time>2026-04-17T08:44:07.519Z</time></trkpt><trkpt lat="46.4141383" lon="12.3709233"><ele>777.0</ele><time>2026-04-17T08:44:08.521Z</time></trkpt><trkpt lat="46.4143033" lon="12.371105"><ele>777.0</ele><time>2026-04-17T08:44:09.519Z</time></trkpt><trkpt lat="46.41447" lon="12.371295"><ele>777.0</ele><time>2026-04-17T08:44:10.52Z</time></trkpt><trkpt lat="46.4146317" lon="12.3715"><ele>780.5</ele><time>2026-04-17T08:44:11.52Z</time></trkpt><trkpt lat="46.4147867" lon="12.37173"><ele>784.0</ele><time>2026-04-17T08:44:12.519Z</time></trkpt><trkpt lat="46.4149417" lon="12.371975"><ele>775.5</ele><time>2026-04-17T08:44:13.52Z</time></trkpt><trkpt lat="46.4151033" lon="12.372215"><ele>767.0</ele><time>2026-04-17T08:44:14.52Z</time></trkpt><trkpt lat="46.4152733" lon="12.3724417"><ele>767.0</ele><time>2026-04-17T08:44:15.52Z</time></trkpt><trkpt lat="46.415455" lon="12.372645"><ele>767.0</ele><time>2026-04-17T08:44:16.52Z</time></trkpt><trkpt lat="46.41564" lon="12.3728317"><ele>769.6666666666666</ele><time>2026-04-17T08:44:17.521Z</time></trkpt><trkpt lat="46.4158167" lon="12.3730017"><ele>772.3333333333333</ele><time>2026-04-17T08:44:18.52Z</time></trkpt><trkpt lat="46.415985" lon="12.3731633"><ele>775.0</ele><time>2026-04-17T08:44:19.521Z</time></trkpt><trkpt lat="46.4161533" lon="12.37332"><ele>775.0</ele><time>2026-04-17T08:44:20.52Z</time></trkpt><trkpt lat="46.4163183" lon="12.3734733"><ele>775.0</ele><time>2026-04-17T08:44:21.52Z</time></trkpt><trkpt lat="46.4164683" lon="12.3736117"><ele>775.0</ele><time>2026-04-17T08:44:22.52Z</time></trkpt><trkpt lat="46.4166067" lon="12.373735"><ele>777.0</ele><time>2026-04-17T08:44:23.521Z</time></trkpt><trkpt lat="46.416735" lon="12.3738517"><ele>779.0</ele><time>2026-04-17T08:44:24.519Z</time></trkpt><trkpt lat="46.41686" lon="12.373965"><ele>781.0</ele><time>2026-04-17T08:44:25.52Z</time></trkpt><trkpt lat="46.4169833" lon="12.3740767"><ele>783.0</ele><time>2026-04-17T08:44:26.52Z</time></trkpt><trkpt lat="46.4171067" lon="12.37419"><ele>786.0</ele><time>2026-04-17T08:44:27.518Z</time></trkpt><trkpt lat="46.4172317" lon="12.3742983"><ele>789.0</ele><time>2026-04-17T08:44:28.52Z</time></trkpt><trkpt lat="46.4173567" lon="12.3743933"><ele>792.0</ele><time>2026-04-17T08:44:29.52Z</time></trkpt><trkpt lat="46.41748" lon="12.3744683"><ele>795.0</ele><time>2026-04-17T08:44:30.519Z</time></trkpt><trkpt lat="46.4175967" lon="12.374515"><ele>795.0</ele><time>2026-04-17T08:44:31.52Z</time></trkpt><trkpt lat="46.417705" lon="12.3745367"><ele>795.0</ele><time>2026-04-17T08:44:32.52Z</time></trkpt><trkpt lat="46.417815" lon="12.374535"><ele>795.0</ele><time>2026-04-17T08:44:33.519Z</time></trkpt><trkpt lat="46.4179317" lon="12.37452"><ele>795.0</ele><time>2026-04-17T08:44:34.519Z</time></trkpt><trkpt lat="46.418065" lon="12.3744967"><ele>797.25</ele><time>2026-04-17T08:44:35.522Z</time></trkpt><trkpt lat="46.4182083" lon="12.3744683"><ele>799.5</ele><time>2026-04-17T08:44:36.521Z</time></trkpt><trkpt lat="46.4183517" lon="12.3744383"><ele>801.75</ele><time>2026-04-17T08:44:37.527Z</time></trkpt><trkpt lat="46.4185017" lon="12.3744083"><ele>804.0</ele><time>2026-04-17T08:44:38.52Z</time></trkpt><trkpt lat="46.4186517" lon="12.374375"><ele>804.0</ele><time>2026-04-17T08:44:39.519Z</time></trkpt><trkpt lat="46.4188" lon="12.3743333"><ele>804.0</ele><time>2026-04-17T08:44:40.519Z</time></trkpt><trkpt lat="46.4189467" lon="12.3742667"><ele>804.0</ele><time>2026-04-17T08:44:41.52Z</time></trkpt><trkpt lat="46.419085" lon="12.3741767"><ele>803.3333333333333</ele><time>2026-04-17T08:44:42.52Z</time></trkpt><trkpt lat="46.419205" lon="12.37404"><ele>802.6666666666666</ele><time>2026-04-17T08:44:43.519Z</time></trkpt><trkpt lat="46.41931" lon="12.3738583"><ele>802.0</ele><time>2026-04-17T08:44:44.521Z</time></trkpt><trkpt lat="46.4193967" lon="12.3736467"><ele>806.3333333333333</ele><time>2026-04-17T08:44:45.52Z</time></trkpt><trkpt lat="46.4194683" lon="12.3734183"><ele>810.6666666666667</ele><time>2026-04-17T08:44:46.52Z</time></trkpt><trkpt lat="46.4195283" lon="12.3731733"><ele>815.0</ele><time>2026-04-17T08:44:47.52Z</time></trkpt><trkpt lat="46.41958" lon="12.3729117"><ele>813.0</ele><time>2026-04-17T08:44:48.52Z</time></trkpt><trkpt lat="46.4196283" lon="12.3726233"><ele>811.0</ele><time>2026-04-17T08:44:49.521Z</time></trkpt><trkpt lat="46.4196817" lon="12.3723167"><ele>809.0</ele><time>2026-04-17T08:44:50.521Z</time></trkpt><trkpt lat="46.41974" lon="12.371985"><ele>809.0</ele><time>2026-04-17T08:44:51.519Z</time></trkpt><trkpt lat="46.4197933" lon="12.3716383"><ele>809.0</ele><time>2026-04-17T08:44:52.519Z</time></trkpt><trkpt lat="46.419835" lon="12.371295"><ele>809.3333333333334</ele><time>2026-04-17T08:44:53.52Z</time></trkpt><trkpt lat="46.419865" lon="12.3709783"><ele>809.6666666666667</ele><time>2026-04-17T08:44:54.519Z</time></trkpt><trkpt lat="46.4198783" lon="12.37068"><ele>810.0</ele><time>2026-04-17T08:44:55.52Z</time></trkpt><trkpt lat="46.41988" lon="12.3703667"><ele>812.0</ele><time>2026-04-17T08:44:56.52Z</time></trkpt><trkpt lat="46.4198717" lon="12.3700383"><ele>814.0</ele><time>2026-04-17T08:44:57.519Z</time></trkpt><trkpt lat="46.419875" lon="12.3696883"><ele>817.0</ele><time>2026-04-17T08:44:58.52Z</time></trkpt><trkpt lat="46.41989" lon="12.369335"><ele>820.0</ele><time>2026-04-17T08:44:59.52Z</time></trkpt><trkpt lat="46.419905" lon="12.36899"><ele>820.0</ele><time>2026-04-17T08:45:00.52Z</time></trkpt><trkpt lat="46.41992" lon="12.3686667"><ele>820.0</ele><time>2026-04-17T08:45:01.519Z</time></trkpt><trkpt lat="46.4199367" lon="12.36839"><ele>820.0</ele><time>2026-04-17T08:45:02.521Z</time></trkpt><trkpt lat="46.4199633" lon="12.3681533"><ele>820.75</ele><time>2026-04-17T08:45:03.521Z</time></trkpt><trkpt lat="46.4199983" lon="12.367945"><ele>821.5</ele><time>2026-04-17T08:45:04.52Z</time></trkpt><trkpt lat="46.4200417" lon="12.3677633"><ele>822.25</ele><time>2026-04-17T08:45:05.52Z</time></trkpt><trkpt lat="46.4201" lon="12.367615"><ele>823.0</ele><time>2026-04-17T08:45:06.519Z</time></trkpt><trkpt lat="46.42017" lon="12.3675117"><ele>823.0</ele><time>2026-04-17T08:45:07.519Z</time></trkpt><trkpt lat="46.4202433" lon="12.367445"><ele>823.0</ele><time>2026-04-17T08:45:08.519Z</time></trkpt><trkpt lat="46.4203233" lon="12.3674"><ele>823.0</ele><time>2026-04-17T08:45:09.517Z</time></trkpt><trkpt lat="46.42042" lon="12.367375"><ele>823.0</ele><time>2026-04-17T08:45:10.519Z</time></trkpt><trkpt lat="46.42053" lon="12.3673633"><ele>823.0</ele><time>2026-04-17T08:45:11.519Z</time></trkpt><trkpt lat="46.420655" lon="12.3673733"><ele>819.25</ele><time>2026-04-17T08:45:12.519Z</time></trkpt><trkpt lat="46.4207867" lon="12.3674"><ele>815.5</ele><time>2026-04-17T08:45:13.52Z</time></trkpt><trkpt lat="46.4209233" lon="12.3674167"><ele>811.75</ele><time>2026-04-17T08:45:14.519Z</time></trkpt><trkpt lat="46.4210667" lon="12.36741"><ele>808.0</ele><time>2026-04-17T08:45:15.518Z</time></trkpt><trkpt lat="46.4212183" lon="12.3673717"><ele>808.0</ele><time>2026-04-17T08:45:16.519Z</time></trkpt><trkpt lat="46.4213733" lon="12.3673017"><ele>808.0</ele><time>2026-04-17T08:45:17.518Z</time></trkpt><trkpt lat="46.42152" lon="12.3671983"><ele>808.0</ele><time>2026-04-17T08:45:18.519Z</time></trkpt><trkpt lat="46.4216583" lon="12.36706"><ele>811.0</ele><time>2026-04-17T08:45:19.518Z</time></trkpt><trkpt lat="46.42179" lon="12.3668967"><ele>814.0</ele><time>2026-04-17T08:45:20.519Z</time></trkpt><trkpt lat="46.421915" lon="12.366705"><ele>817.0</ele><time>2026-04-17T08:45:21.518Z</time></trkpt><trkpt lat="46.4220383" lon="12.3664983"><ele>817.6666666666666</ele><time>2026-04-17T08:45:22.52Z</time></trkpt><trkpt lat="46.4221683" lon="12.3662783"><ele>818.3333333333333</ele><time>2026-04-17T08:45:23.519Z</time></trkpt><trkpt lat="46.4222967" lon="12.3660617"><ele>819.0</ele><time>2026-04-17T08:45:24.519Z</time></trkpt><trkpt lat="46.422415" lon="12.3658667"><ele>819.0</ele><time>2026-04-17T08:45:25.519Z</time></trkpt><trkpt lat="46.4225233" lon="12.3656983"><ele>819.0</ele><time>2026-04-17T08:45:26.52Z</time></trkpt><trkpt lat="46.4226233" lon="12.3655517"><ele>819.0</ele><time>2026-04-17T08:45:27.519Z</time></trkpt><trkpt lat="46.4227167" lon="12.3654267"><ele>819.0</ele><time>2026-04-17T08:45:28.519Z</time></trkpt><trkpt lat="46.422805" lon="12.36533"><ele>819.25</ele><time>2026-04-17T08:45:29.519Z</time></trkpt><trkpt lat="46.42289" lon="12.365265"><ele>819.5</ele><time>2026-04-17T08:45:30.519Z</time></trkpt><trkpt lat="46.4229883" lon="12.3652283"><ele>819.75</ele><time>2026-04-17T08:45:31.519Z</time></trkpt><trkpt lat="46.4231167" lon="12.3651983"><ele>820.0</ele><time>2026-04-17T08:45:32.523Z</time></trkpt><trkpt lat="46.423265" lon="12.36516"><ele>820.0</ele><time>2026-04-17T08:45:33.519Z</time></trkpt><trkpt lat="46.423425" lon="12.3651033"><ele>820.0</ele><time>2026-04-17T08:45:34.519Z</time></trkpt><trkpt lat="46.4235983" lon="12.3650333"><ele>820.0</ele><time>2026-04-17T08:45:35.518Z</time></trkpt><trkpt lat="46.4237767" lon="12.3649617"><ele>821.0</ele><time>2026-04-17T08:45:36.519Z</time></trkpt><trkpt lat="46.4239483" lon="12.3649033"><ele>822.0</ele><time>2026-04-17T08:45:37.519Z</time></trkpt><trkpt lat="46.4241167" lon="12.3648633"><ele>823.0</ele><time>2026-04-17T08:45:38.52Z</time></trkpt><trkpt lat="46.4242867" lon="12.36485"><ele>823.0</ele><time>2026-04-17T08:45:39.518Z</time></trkpt><trkpt lat="46.4244633" lon="12.3648633"><ele>823.0</ele><time>2026-04-17T08:45:40.519Z</time></trkpt><trkpt lat="46.4246367" lon="12.3649167"><ele>823.0</ele><time>2026-04-17T08:45:41.519Z</time></trkpt><trkpt lat="46.4248017" lon="12.365015"><ele>827.0</ele><time>2026-04-17T08:45:42.519Z</time></trkpt><trkpt lat="46.424955" lon="12.365155"><ele>831.0</ele><time>2026-04-17T08:45:43.519Z</time></trkpt><trkpt lat="46.4250867" lon="12.36533"><ele>835.0</ele><time>2026-04-17T08:45:44.518Z</time></trkpt><trkpt lat="46.4251917" lon="12.365525"><ele>832.6666666666666</ele><time>2026-04-17T08:45:45.518Z</time></trkpt><trkpt lat="46.4252733" lon="12.3657367"><ele>830.3333333333333</ele><time>2026-04-17T08:45:46.518Z</time></trkpt><trkpt lat="46.4253283" lon="12.36598"><ele>828.0</ele><time>2026-04-17T08:45:47.519Z</time></trkpt><trkpt lat="46.4253617" lon="12.366245"><ele>828.0</ele><time>2026-04-17T08:45:48.518Z</time></trkpt><trkpt lat="46.4253967" lon="12.3665067"><ele>828.0</ele><time>2026-04-17T08:45:49.521Z</time></trkpt><trkpt lat="46.4254283" lon="12.3667667"><ele>828.0</ele><time>2026-04-17T08:45:50.518Z</time></trkpt><trkpt lat="46.42508" lon="12.3703017"><ele>826.6666666666667</ele><time>2026-04-17T08:46:01.518Z</time></trkpt><trkpt lat="46.4250967" lon="12.3706283"><ele>825.3333333333334</ele><time>2026-04-17T08:46:02.518Z</time></trkpt><trkpt lat="46.4251317" lon="12.3709317"><ele>824.0</ele><time>2026-04-17T08:46:03.518Z</time></trkpt><trkpt lat="46.4251767" lon="12.37122"><ele>823.5</ele><time>2026-04-17T08:46:04.517Z</time></trkpt><trkpt lat="46.4252167" lon="12.3715033"><ele>823.0</ele><time>2026-04-17T08:46:05.518Z</time></trkpt><trkpt lat="46.4252067" lon="12.3654741"><ele>831.0</ele><time>2026-04-17T08:46:27.511Z</time></trkpt><trkpt lat="46.4307367" lon="12.379365"><ele>831.0</ele><time>2026-04-17T08:46:44.52Z</time></trkpt><trkpt lat="46.4309217" lon="12.3794933"><ele>831.0</ele><time>2026-04-17T08:46:45.518Z</time></trkpt><trkpt lat="46.4311267" lon="12.37957"><ele>831.0</ele><time>2026-04-17T08:46:46.519Z</time></trkpt><trkpt lat="46.4313533" lon="12.3796133"><ele>838.0</ele><time>2026-04-17T08:46:47.519Z</time></trkpt><trkpt lat="46.4315817" lon="12.37966"><ele>845.0</ele><time>2026-04-17T08:46:48.52Z</time></trkpt><trkpt lat="46.4318133" lon="12.3796883"><ele>835.6666666666667</ele><time>2026-04-17T08:46:49.52Z</time></trkpt><trkpt lat="46.4320367" lon="12.3797"><ele>826.3333333333333</ele><time>2026-04-17T08:46:50.519Z</time></trkpt><trkpt lat="46.4322517" lon="12.3797"><ele>817.0</ele><time>2026-04-17T08:46:51.519Z</time></trkpt><trkpt lat="46.4324583" lon="12.3796917"><ele>821.0</ele><time>2026-04-17T08:46:52.518Z</time></trkpt><trkpt lat="46.432665" lon="12.3796683"><ele>825.0</ele><time>2026-04-17T08:46:53.519Z</time></trkpt><trkpt lat="46.4328817" lon="12.3796317"><ele>829.0</ele><time>2026-04-17T08:46:54.52Z</time></trkpt><trkpt lat="46.433095" lon="12.37958"><ele>829.0</ele><time>2026-04-17T08:46:55.519Z</time></trkpt><trkpt lat="46.433305" lon="12.37951"><ele>829.0</ele><time>2026-04-17T08:46:56.52Z</time></trkpt><trkpt lat="46.4335017" lon="12.379425"><ele>829.0</ele><time>2026-04-17T08:46:57.519Z</time></trkpt><trkpt lat="46.4336917" lon="12.37933"><ele>824.0</ele><time>2026-04-17T08:46:58.519Z</time></trkpt><trkpt lat="46.433865" lon="12.3792383"><ele>819.0</ele><time>2026-04-17T08:46:59.519Z</time></trkpt><trkpt lat="46.4340283" lon="12.3791433"><ele>814.0</ele><time>2026-04-17T08:47:00.52Z</time></trkpt><trkpt lat="46.4341767" lon="12.3790483"><ele>814.0</ele><time>2026-04-17T08:47:01.52Z</time></trkpt><trkpt lat="46.4343083" lon="12.378955"><ele>814.0</ele><time>2026-04-17T08:47:02.52Z</time></trkpt><trkpt lat="46.4344383" lon="12.3788567"><ele>814.0</ele><time>2026-04-17T08:47:03.52Z</time></trkpt><trkpt lat="46.434565" lon="12.378765"><ele>814.0</ele><time>2026-04-17T08:47:04.52Z</time></trkpt><trkpt lat="46.4346917" lon="12.378675"><ele>817.25</ele><time>2026-04-17T08:47:05.52Z</time></trkpt><trkpt lat="46.4348183" lon="12.3786"><ele>820.5</ele><time>2026-04-17T08:47:06.52Z</time></trkpt><trkpt lat="46.4349483" lon="12.3785367"><ele>823.75</ele><time>2026-04-17T08:47:07.52Z</time></trkpt><trkpt lat="46.4350767" lon="12.3784967"><ele>827.0</ele><time>2026-04-17T08:47:08.52Z</time></trkpt><trkpt lat="46.4352017" lon="12.37848"><ele>827.0</ele><time>2026-04-17T08:47:09.519Z</time></trkpt><trkpt lat="46.4353267" lon="12.37849"><ele>827.0</ele><time>2026-04-17T08:47:10.519Z</time></trkpt><trkpt lat="46.435445" lon="12.3785317"><ele>827.0</ele><time>2026-04-17T08:47:11.519Z</time></trkpt><trkpt lat="46.4355533" lon="12.3785883"><ele>827.0</ele><time>2026-04-17T08:47:12.519Z</time></trkpt><trkpt lat="46.4356517" lon="12.3786567"><ele>825.6666666666667</ele><time>2026-04-17T08:47:13.52Z</time></trkpt><trkpt lat="46.4357367" lon="12.3787267"><ele>824.3333333333334</ele><time>2026-04-17T08:47:14.52Z</time></trkpt><trkpt lat="46.4358133" lon="12.3787967"><ele>823.0</ele><time>2026-04-17T08:47:15.519Z</time></trkpt><trkpt lat="46.4358767" lon="12.378865"><ele>821.6666666666667</ele><time>2026-04-17T08:47:16.519Z</time></trkpt><trkpt lat="46.43593" lon="12.3789317"><ele>820.3333333333334</ele><time>2026-04-17T08:47:17.52Z</time></trkpt><trkpt lat="46.43598" lon="12.378995"><ele>819.0</ele><time>2026-04-17T08:47:18.52Z</time></trkpt><trkpt lat="46.4360317" lon="12.37906"><ele>819.3333333333334</ele><time>2026-04-17T08:47:19.519Z</time></trkpt><trkpt lat="46.436085" lon="12.3791333"><ele>819.6666666666667</ele><time>2026-04-17T08:47:20.52Z</time></trkpt><trkpt lat="46.4361383" lon="12.3792217"><ele>820.0</ele><time>2026-04-17T08:47:21.519Z</time></trkpt><trkpt lat="46.4361883" lon="12.3793267"><ele>820.3333333333334</ele><time>2026-04-17T08:47:22.519Z</time></trkpt><trkpt lat="46.4362367" lon="12.3794383"><ele>820.6666666666667</ele><time>2026-04-17T08:47:23.519Z</time></trkpt><trkpt lat="46.4362883" lon="12.3795383"><ele>821.0</ele><time>2026-04-17T08:47:24.52Z</time></trkpt><trkpt lat="46.436345" lon="12.379605"><ele>821.0000000000001</ele><time>2026-04-17T08:47:25.52Z</time></trkpt><trkpt lat="46.4364033" lon="12.37964"><ele>821.0</ele><time>2026-04-17T08:47:26.52Z</time></trkpt><trkpt lat="46.4364767" lon="12.3795683"><ele>821.0</ele><time>2026-04-17T08:47:28.52Z</time></trkpt><trkpt lat="46.43647" lon="12.3794733"><ele>821.0</ele><time>2026-04-17T08:47:29.519Z</time></trkpt><trkpt lat="46.43644" lon="12.3793767"><ele>821.0</ele><time>2026-04-17T08:47:30.519Z</time></trkpt><trkpt lat="46.436395" lon="12.3792833"><ele>821.0000000000001</ele><time>2026-04-17T08:47:31.519Z</time></trkpt><trkpt lat="46.4363533" lon="12.3791883"><ele>821.0</ele><time>2026-04-17T08:47:32.52Z</time></trkpt><trkpt lat="46.436315" lon="12.3790733"><ele>820.5</ele><time>2026-04-17T08:47:33.52Z</time></trkpt><trkpt lat="46.4362783" lon="12.3789433"><ele>820.0</ele><time>2026-04-17T08:47:34.519Z</time></trkpt><trkpt lat="46.4362533" lon="12.3787783"><ele>819.5</ele><time>2026-04-17T08:47:35.52Z</time></trkpt><trkpt lat="46.436235" lon="12.3785933"><ele>819.0</ele><time>2026-04-17T08:47:36.52Z</time></trkpt><trkpt lat="46.4362167" lon="12.3783967"><ele>819.0</ele><time>2026-04-17T08:47:37.52Z</time></trkpt><trkpt lat="46.436195" lon="12.37819"><ele>819.0</ele><time>2026-04-17T08:47:38.52Z</time></trkpt><trkpt lat="46.4361683" lon="12.3779767"><ele>819.0</ele><time>2026-04-17T08:47:39.523Z</time></trkpt><trkpt lat="46.4361383" lon="12.3777783"><ele>819.0</ele><time>2026-04-17T08:47:40.519Z</time></trkpt><trkpt lat="46.43612" lon="12.3775917"><ele>823.75</ele><time>2026-04-17T08:47:41.52Z</time></trkpt><trkpt lat="46.436105" lon="12.37741"><ele>828.5</ele><time>2026-04-17T08:47:42.521Z</time></trkpt><trkpt lat="46.4360933" lon="12.3772167"><ele>833.25</ele><time>2026-04-17T08:47:43.519Z</time></trkpt><trkpt lat="46.4360867" lon="12.3770183"><ele>838.0</ele><time>2026-04-17T08:47:44.522Z</time></trkpt><trkpt lat="46.4360783" lon="12.37684"><ele>839.4999999999999</ele><time>2026-04-17T08:47:45.52Z</time></trkpt><trkpt lat="46.4360667" lon="12.3766817"><ele>841.0</ele><time>2026-04-17T08:47:46.52Z</time></trkpt><trkpt lat="46.43604" lon="12.376555"><ele>842.5</ele><time>2026-04-17T08:47:47.519Z</time></trkpt><trkpt lat="46.435995" lon="12.3764583"><ele>844.0</ele><time>2026-04-17T08:47:48.519Z</time></trkpt><trkpt lat="46.4359167" lon="12.37644"><ele>845.4999999999999</ele><time>2026-04-17T08:47:49.519Z</time></trkpt><trkpt lat="46.4358367" lon="12.3764817"><ele>847.0</ele><time>2026-04-17T08:47:50.519Z</time></trkpt><trkpt lat="46.435765" lon="12.37656"><ele>847.0</ele><time>2026-04-17T08:47:51.519Z</time></trkpt><trkpt lat="46.4356783" lon="12.3767317"><ele>847.0</ele><time>2026-04-17T08:47:52.519Z</time></trkpt><trkpt lat="46.4355767" lon="12.376975"><ele>847.0</ele><time>2026-04-17T08:47:53.519Z</time></trkpt><trkpt lat="46.4354567" lon="12.3772517"><ele>849.3333333333333</ele><time>2026-04-17T08:47:54.52Z</time></trkpt><trkpt lat="46.4353333" lon="12.377505"><ele>851.6666666666667</ele><time>2026-04-17T08:47:55.519Z</time></trkpt><trkpt lat="46.4352133" lon="12.3776933"><ele>854.0</ele><time>2026-04-17T08:47:56.52Z</time></trkpt><trkpt lat="46.435105" lon="12.3778117"><ele>854.0</ele><time>2026-04-17T08:47:57.521Z</time></trkpt><trkpt lat="46.434975" lon="12.3778667"><ele>854.0</ele><time>2026-04-17T08:47:58.519Z</time></trkpt><trkpt lat="46.434815" lon="12.377895"><ele>854.0</ele><time>2026-04-17T08:47:59.52Z</time></trkpt><trkpt lat="46.434635" lon="12.377915"><ele>853.3333333333334</ele><time>2026-04-17T08:48:00.518Z</time></trkpt><trkpt lat="46.4344467" lon="12.377945"><ele>852.6666666666667</ele><time>2026-04-17T08:48:01.518Z</time></trkpt><trkpt lat="46.43425" lon="12.377995"><ele>852.0</ele><time>2026-04-17T08:48:02.52Z</time></trkpt><trkpt lat="46.4340467" lon="12.3780667"><ele>851.0</ele><time>2026-04-17T08:48:03.518Z</time></trkpt><trkpt lat="46.4338433" lon="12.3781617"><ele>850.0</ele><time>2026-04-17T08:48:04.517Z</time></trkpt><trkpt lat="46.4336417" lon="12.3782783"><ele>849.0</ele><time>2026-04-17T08:48:05.518Z</time></trkpt><trkpt lat="46.43345" lon="12.3784017"><ele>849.0</ele><time>2026-04-17T08:48:06.518Z</time></trkpt><trkpt lat="46.4332783" lon="12.3785167"><ele>849.0</ele><time>2026-04-17T08:48:07.519Z</time></trkpt><trkpt lat="46.433125" lon="12.3786233"><ele>849.0</ele><time>2026-04-17T08:48:08.517Z</time></trkpt><trkpt lat="46.4329917" lon="12.378715"><ele>847.0</ele><time>2026-04-17T08:48:09.518Z</time></trkpt><trkpt lat="46.4328683" lon="12.378795"><ele>845.0</ele><time>2026-04-17T08:48:10.518Z</time></trkpt><trkpt lat="46.432755" lon="12.37886"><ele>843.0</ele><time>2026-04-17T08:48:11.518Z</time></trkpt><trkpt lat="46.43263" lon="12.37889"><ele>841.0</ele><time>2026-04-17T08:48:12.518Z</time></trkpt><trkpt lat="46.4324983" lon="12.37889"><ele>841.0</ele><time>2026-04-17T08:48:13.518Z</time></trkpt><trkpt lat="46.4323583" lon="12.3788767"><ele>841.0</ele><time>2026-04-17T08:48:14.519Z</time></trkpt><trkpt lat="46.432225" lon="12.37885"><ele>841.0</ele><time>2026-04-17T08:48:15.519Z</time></trkpt><trkpt lat="46.4321083" lon="12.3788083"><ele>841.0</ele><time>2026-04-17T08:48:16.517Z</time></trkpt><trkpt lat="46.431995" lon="12.3787617"><ele>847.1999999999999</ele><time>2026-04-17T08:48:17.52Z</time></trkpt><trkpt lat="46.4318867" lon="12.37871"><ele>853.4</ele><time>2026-04-17T08:48:18.518Z</time></trkpt><trkpt lat="46.43179" lon="12.3786567"><ele>859.6</ele><time>2026-04-17T08:48:19.518Z</time></trkpt><trkpt lat="46.431695" lon="12.3786017"><ele>865.8</ele><time>2026-04-17T08:48:20.519Z</time></trkpt><trkpt lat="46.4316" lon="12.3785383"><ele>872.0</ele><time>2026-04-17T08:48:21.518Z</time></trkpt><trkpt lat="46.43151" lon="12.3784617"><ele>872.0</ele><time>2026-04-17T08:48:22.517Z</time></trkpt><trkpt lat="46.4314183" lon="12.37839"><ele>872.0</ele><time>2026-04-17T08:48:23.518Z</time></trkpt><trkpt lat="46.43133" lon="12.37831"><ele>872.0</ele><time>2026-04-17T08:48:24.518Z</time></trkpt><trkpt lat="46.4312483" lon="12.3782167"><ele>872.0</ele><time>2026-04-17T08:48:25.518Z</time></trkpt><trkpt lat="46.43117" lon="12.3781417"><ele>872.0</ele><time>2026-04-17T08:48:26.519Z</time></trkpt><trkpt lat="46.4311" lon="12.3780767"><ele>872.6666666666667</ele><time>2026-04-17T08:48:27.517Z</time></trkpt><trkpt lat="46.4310383" lon="12.378025"><ele>873.3333333333334</ele><time>2026-04-17T08:48:28.518Z</time></trkpt><trkpt lat="46.4309317" lon="12.377975"><ele>874.0</ele><time>2026-04-17T08:48:30.518Z</time></trkpt><trkpt lat="46.4308633" lon="12.3779517"><ele>874.6666666666667</ele><time>2026-04-17T08:48:32.52Z</time></trkpt><trkpt lat="46.4308067" lon="12.3779083"><ele>875.3333333333334</ele><time>2026-04-17T08:48:35.521Z</time></trkpt><trkpt lat="46.4307967" lon="12.37781"><ele>876.0</ele><time>2026-04-17T08:48:38.52Z</time></trkpt><trkpt lat="46.4309283" lon="12.3778833"><ele>876.0</ele><time>2026-04-17T08:48:40.519Z</time></trkpt><trkpt lat="46.4310067" lon="12.377925"><ele>876.0</ele><time>2026-04-17T08:48:41.519Z</time></trkpt><trkpt lat="46.4311017" lon="12.377985"><ele>876.0</ele><time>2026-04-17T08:48:42.518Z</time></trkpt><trkpt lat="46.4312233" lon="12.3780567"><ele>876.0</ele><time>2026-04-17T08:48:43.518Z</time></trkpt><trkpt lat="46.431365" lon="12.378135"><ele>874.6666666666667</ele><time>2026-04-17T08:48:44.519Z</time></trkpt><trkpt lat="46.4315233" lon="12.3782033"><ele>873.3333333333334</ele><time>2026-04-17T08:48:45.518Z</time></trkpt><trkpt lat="46.4316967" lon="12.3782417"><ele>872.0</ele><time>2026-04-17T08:48:46.519Z</time></trkpt><trkpt lat="46.4318567" lon="12.37825"><ele>872.0</ele><time>2026-04-17T08:48:47.518Z</time></trkpt><trkpt lat="46.431985" lon="12.37823"><ele>872.0</ele><time>2026-04-17T08:48:48.518Z</time></trkpt><trkpt lat="46.4320717" lon="12.37818"><ele>872.0</ele><time>2026-04-17T08:48:49.518Z</time></trkpt><trkpt lat="46.432135" lon="12.3780983"><ele>872.0</ele><time>2026-04-17T08:48:50.522Z</time></trkpt><trkpt lat="46.4321717" lon="12.3779717"><ele>872.0</ele><time>2026-04-17T08:48:51.518Z</time></trkpt><trkpt lat="46.4321883" lon="12.3777967"><ele>875.0</ele><time>2026-04-17T08:48:52.521Z</time></trkpt><trkpt lat="46.4322033" lon="12.3776"><ele>878.0</ele><time>2026-04-17T08:48:53.519Z</time></trkpt><trkpt lat="46.43223" lon="12.3773983"><ele>881.0</ele><time>2026-04-17T08:48:54.519Z</time></trkpt><trkpt lat="46.4322583" lon="12.377195"><ele>884.0</ele><time>2026-04-17T08:48:55.518Z</time></trkpt><trkpt lat="46.4322767" lon="12.3769933"><ele>885.25</ele><time>2026-04-17T08:48:56.518Z</time></trkpt><trkpt lat="46.4322817" lon="12.3767883"><ele>886.5</ele><time>2026-04-17T08:48:57.518Z</time></trkpt><trkpt lat="46.432285" lon="12.37658"><ele>887.75</ele><time>2026-04-17T08:48:58.518Z</time></trkpt><trkpt lat="46.4322983" lon="12.3763783"><ele>889.0</ele><time>2026-04-17T08:48:59.518Z</time></trkpt><trkpt lat="46.43233" lon="12.37617"><ele>890.5</ele><time>2026-04-17T08:49:00.518Z</time></trkpt><trkpt lat="46.4323783" lon="12.375975"><ele>892.0</ele><time>2026-04-17T08:49:01.517Z</time></trkpt><trkpt lat="46.4324417" lon="12.3757983"><ele>893.5</ele><time>2026-04-17T08:49:02.518Z</time></trkpt><trkpt lat="46.4325067" lon="12.3756567"><ele>895.0</ele><time>2026-04-17T08:49:03.518Z</time></trkpt><trkpt lat="46.4325733" lon="12.375545"><ele>897.0</ele><time>2026-04-17T08:49:04.52Z</time></trkpt><trkpt lat="46.4326467" lon="12.37547"><ele>899.0</ele><time>2026-04-17T08:49:05.52Z</time></trkpt><trkpt lat="46.43273" lon="12.3754267"><ele>901.0</ele><time>2026-04-17T08:49:06.518Z</time></trkpt><trkpt lat="46.4328283" lon="12.375405"><ele>903.0</ele><time>2026-04-17T08:49:07.519Z</time></trkpt><trkpt lat="46.4329317" lon="12.3753933"><ele>905.0</ele><time>2026-04-17T08:49:08.519Z</time></trkpt><trkpt lat="46.43302" lon="12.375375"><ele>905.0000000000001</ele><time>2026-04-17T08:49:09.518Z</time></trkpt><trkpt lat="46.4330933" lon="12.3753383"><ele>905.0</ele><time>2026-04-17T08:49:10.518Z</time></trkpt><trkpt lat="46.43311" lon="12.37516"><ele>905.0</ele><time>2026-04-17T08:49:12.519Z</time></trkpt><trkpt lat="46.4330733" lon="12.3750783"><ele>905.0</ele><time>2026-04-17T08:49:13.52Z</time></trkpt><trkpt lat="46.4330033" lon="12.37502"><ele>905.0000000000001</ele><time>2026-04-17T08:49:14.52Z</time></trkpt><trkpt lat="46.4329083" lon="12.3750117"><ele>905.0</ele><time>2026-04-17T08:49:15.52Z</time></trkpt><trkpt lat="46.4327983" lon="12.37502"><ele>905.0</ele><time>2026-04-17T08:49:16.52Z</time></trkpt><trkpt lat="46.43267" lon="12.37504"><ele>905.0</ele><time>2026-04-17T08:49:17.52Z</time></trkpt><trkpt lat="46.4325367" lon="12.375065"><ele>905.0</ele><time>2026-04-17T08:49:18.52Z</time></trkpt><trkpt lat="46.43241" lon="12.3750967"><ele>905.0</ele><time>2026-04-17T08:49:19.52Z</time></trkpt><trkpt lat="46.432295" lon="12.3751267"><ele>905.0000000000001</ele><time>2026-04-17T08:49:20.52Z</time></trkpt><trkpt lat="46.4321983" lon="12.37515"><ele>905.0</ele><time>2026-04-17T08:49:21.519Z</time></trkpt><trkpt lat="46.4321183" lon="12.375165"><ele>905.0</ele><time>2026-04-17T08:49:22.521Z</time></trkpt><trkpt lat="46.4320483" lon="12.375175"><ele>905.0</ele><time>2026-04-17T08:49:23.519Z</time></trkpt><trkpt lat="46.4319783" lon="12.3751883"><ele>905.0000000000001</ele><time>2026-04-17T08:49:24.518Z</time></trkpt><trkpt lat="46.4319067" lon="12.375205"><ele>905.0</ele><time>2026-04-17T08:49:25.518Z</time></trkpt><trkpt lat="46.43183" lon="12.375225"><ele>905.5000000000001</ele><time>2026-04-17T08:49:26.52Z</time></trkpt><trkpt lat="46.4317517" lon="12.375255"><ele>906.0</ele><time>2026-04-17T08:49:27.518Z</time></trkpt><trkpt lat="46.4316783" lon="12.375285"><ele>906.5</ele><time>2026-04-17T08:49:28.519Z</time></trkpt><trkpt lat="46.4316133" lon="12.3753183"><ele>907.0</ele><time>2026-04-17T08:49:29.517Z</time></trkpt><trkpt lat="46.43155" lon="12.3753483"><ele>907.5000000000001</ele><time>2026-04-17T08:49:30.518Z</time></trkpt><trkpt lat="46.431425" lon="12.3753717"><ele>908.0</ele><time>2026-04-17T08:49:32.519Z</time></trkpt><trkpt lat="46.4313567" lon="12.37536"><ele>907.6666666666667</ele><time>2026-04-17T08:49:33.519Z</time></trkpt><trkpt lat="46.431285" lon="12.3753283"><ele>907.3333333333334</ele><time>2026-04-17T08:49:34.519Z</time></trkpt><trkpt lat="46.4312067" lon="12.37529"><ele>907.0</ele><time>2026-04-17T08:49:35.518Z</time></trkpt><trkpt lat="46.43112" lon="12.3752633"><ele>906.6666666666667</ele><time>2026-04-17T08:49:36.518Z</time></trkpt><trkpt lat="46.4310433" lon="12.3752183"><ele>906.3333333333334</ele><time>2026-04-17T08:49:37.518Z</time></trkpt><trkpt lat="46.43098" lon="12.3751633"><ele>906.0</ele><time>2026-04-17T08:49:38.519Z</time></trkpt><trkpt lat="46.4309233" lon="12.3751133"><ele>906.0</ele><time>2026-04-17T08:49:39.518Z</time></trkpt><trkpt lat="46.4308167" lon="12.3750533"><ele>905.9999999999999</ele><time>2026-04-17T08:49:41.518Z</time></trkpt><trkpt lat="46.43073" lon="12.3750033"><ele>905.9999999999999</ele><time>2026-04-17T08:49:43.519Z</time></trkpt><trkpt lat="46.4306533" lon="12.3748683"><ele>906.0</ele><time>2026-04-17T08:49:45.518Z</time></trkpt><trkpt lat="46.4306217" lon="12.374745"><ele>906.0</ele><time>2026-04-17T08:49:46.52Z</time></trkpt><trkpt lat="46.430585" lon="12.3746083"><ele>906.3333333333334</ele><time>2026-04-17T08:49:47.518Z</time></trkpt><trkpt lat="46.43056" lon="12.3744783"><ele>906.6666666666667</ele><time>2026-04-17T08:49:48.518Z</time></trkpt><trkpt lat="46.4305583" lon="12.3743567"><ele>907.0</ele><time>2026-04-17T08:49:49.522Z</time></trkpt><trkpt lat="46.43058" lon="12.37425"><ele>907.3333333333334</ele><time>2026-04-17T08:49:50.519Z</time></trkpt><trkpt lat="46.430635" lon="12.37415"><ele>907.6666666666667</ele><time>2026-04-17T08:49:51.518Z</time></trkpt><trkpt lat="46.4307233" lon="12.3740683"><ele>908.0</ele><time>2026-04-17T08:49:52.52Z</time></trkpt><trkpt lat="46.4308317" lon="12.374"><ele>908.0</ele><time>2026-04-17T08:49:53.521Z</time></trkpt><trkpt lat="46.430935" lon="12.37394"><ele>908.0</ele><time>2026-04-17T08:49:54.52Z</time></trkpt><trkpt lat="46.431035" lon="12.373875"><ele>908.0</ele><time>2026-04-17T08:49:55.52Z</time></trkpt><trkpt lat="46.4311267" lon="12.3738083"><ele>908.0</ele><time>2026-04-17T08:49:56.519Z</time></trkpt><trkpt lat="46.4312083" lon="12.373725"><ele>908.0</ele><time>2026-04-17T08:49:57.521Z</time></trkpt><trkpt lat="46.43128" lon="12.3736267"><ele>911.75</ele><time>2026-04-17T08:49:58.519Z</time></trkpt><trkpt lat="46.4313483" lon="12.3735033"><ele>915.5</ele><time>2026-04-17T08:49:59.52Z</time></trkpt><trkpt lat="46.4313983" lon="12.37336"><ele>919.25</ele><time>2026-04-17T08:50:00.52Z</time></trkpt><trkpt lat="46.4314417" lon="12.373205"><ele>923.0</ele><time>2026-04-17T08:50:01.519Z</time></trkpt><trkpt lat="46.4314917" lon="12.373045"><ele>925.5</ele><time>2026-04-17T08:50:02.52Z</time></trkpt><trkpt lat="46.4315533" lon="12.3728933"><ele>928.0</ele><time>2026-04-17T08:50:03.519Z</time></trkpt><trkpt lat="46.4316383" lon="12.37276"><ele>930.5</ele><time>2026-04-17T08:50:04.519Z</time></trkpt><trkpt lat="46.43174" lon="12.3726433"><ele>933.0</ele><time>2026-04-17T08:50:05.52Z</time></trkpt><trkpt lat="46.4318317" lon="12.37254"><ele>933.0</ele><time>2026-04-17T08:50:06.519Z</time></trkpt><trkpt lat="46.43192" lon="12.37244"><ele>933.0</ele><time>2026-04-17T08:50:07.521Z</time></trkpt><trkpt lat="46.4320067" lon="12.3723483"><ele>933.0</ele><time>2026-04-17T08:50:08.52Z</time></trkpt><trkpt lat="46.4321033" lon="12.372285"><ele>933.0</ele><time>2026-04-17T08:50:09.519Z</time></trkpt><trkpt lat="46.4322117" lon="12.372235"><ele>933.0</ele><time>2026-04-17T08:50:10.52Z</time></trkpt><trkpt lat="46.4323317" lon="12.3721733"><ele>936.25</ele><time>2026-04-17T08:50:11.519Z</time></trkpt><trkpt lat="46.4324633" lon="12.3720883"><ele>939.5</ele><time>2026-04-17T08:50:12.519Z</time></trkpt><trkpt lat="46.4325817" lon="12.37197"><ele>942.75</ele><time>2026-04-17T08:50:13.52Z</time></trkpt><trkpt lat="46.432675" lon="12.3718267"><ele>946.0</ele><time>2026-04-17T08:50:14.52Z</time></trkpt><trkpt lat="46.4327467" lon="12.3716733"><ele>946.0</ele><time>2026-04-17T08:50:15.519Z</time></trkpt><trkpt lat="46.432805" lon="12.37151"><ele>946.0</ele><time>2026-04-17T08:50:16.52Z</time></trkpt><trkpt lat="46.4328617" lon="12.3713433"><ele>946.0</ele><time>2026-04-17T08:50:17.52Z</time></trkpt><trkpt lat="46.43292" lon="12.3711733"><ele>946.0</ele><time>2026-04-17T08:50:18.518Z</time></trkpt><trkpt lat="46.4329783" lon="12.3709983"><ele>950.25</ele><time>2026-04-17T08:50:19.521Z</time></trkpt><trkpt lat="46.4330367" lon="12.3708317"><ele>954.5</ele><time>2026-04-17T08:50:20.52Z</time></trkpt><trkpt lat="46.433085" lon="12.3706817"><ele>958.75</ele><time>2026-04-17T08:50:21.519Z</time></trkpt><trkpt lat="46.4331367" lon="12.3705383"><ele>963.0</ele><time>2026-04-17T08:50:22.519Z</time></trkpt><trkpt lat="46.433195" lon="12.3703883"><ele>963.5</ele><time>2026-04-17T08:50:23.525Z</time></trkpt><trkpt lat="46.4332617" lon="12.3702383"><ele>964.0</ele><time>2026-04-17T08:50:24.52Z</time></trkpt><trkpt lat="46.433335" lon="12.3700867"><ele>964.5</ele><time>2026-04-17T08:50:25.52Z</time></trkpt><trkpt lat="46.43341" lon="12.369935"><ele>965.0</ele><time>2026-04-17T08:50:26.521Z</time></trkpt><trkpt lat="46.4334817" lon="12.36979"><ele>966.0</ele><time>2026-04-17T08:50:27.521Z</time></trkpt><trkpt lat="46.4335533" lon="12.3696533"><ele>967.0</ele><time>2026-04-17T08:50:28.52Z</time></trkpt><trkpt lat="46.4336233" lon="12.3695217"><ele>968.0</ele><time>2026-04-17T08:50:29.522Z</time></trkpt><trkpt lat="46.433695" lon="12.3694"><ele>969.0</ele><time>2026-04-17T08:50:30.522Z</time></trkpt><trkpt lat="46.43376" lon="12.3692767"><ele>969.0</ele><time>2026-04-17T08:50:31.52Z</time></trkpt><trkpt lat="46.43381" lon="12.3691383"><ele>969.0000000000001</ele><time>2026-04-17T08:50:32.52Z</time></trkpt><trkpt lat="46.43382" lon="12.3690083"><ele>969.0000000000001</ele><time>2026-04-17T08:50:33.519Z</time></trkpt><trkpt lat="46.433805" lon="12.3688867"><ele>969.0</ele><time>2026-04-17T08:50:34.519Z</time></trkpt><trkpt lat="46.433775" lon="12.3687633"><ele>969.0</ele><time>2026-04-17T08:50:35.52Z</time></trkpt><trkpt lat="46.4337317" lon="12.368635"><ele>972.75</ele><time>2026-04-17T08:50:36.519Z</time></trkpt><trkpt lat="46.4336833" lon="12.3684917"><ele>976.5</ele><time>2026-04-17T08:50:37.519Z</time></trkpt><trkpt lat="46.4336367" lon="12.368345"><ele>980.25</ele><time>2026-04-17T08:50:38.521Z</time></trkpt><trkpt lat="46.4336017" lon="12.36819"><ele>984.0</ele><time>2026-04-17T08:50:39.519Z</time></trkpt><trkpt lat="46.43358" lon="12.3680233"><ele>986.0</ele><time>2026-04-17T08:50:40.52Z</time></trkpt><trkpt lat="46.4335617" lon="12.3678633"><ele>988.0000000000001</ele><time>2026-04-17T08:50:41.519Z</time></trkpt><trkpt lat="46.4335417" lon="12.367725"><ele>990.0000000000001</ele><time>2026-04-17T08:50:42.519Z</time></trkpt><trkpt lat="46.4335217" lon="12.367605"><ele>992.0</ele><time>2026-04-17T08:50:43.523Z</time></trkpt><trkpt lat="46.4335067" lon="12.3675017"><ele>994.0</ele><time>2026-04-17T08:50:44.521Z</time></trkpt><trkpt lat="46.43349" lon="12.36736"><ele>993.9999999999999</ele><time>2026-04-17T08:50:46.518Z</time></trkpt><trkpt lat="46.4335183" lon="12.3672767"><ele>994.0</ele><time>2026-04-17T08:50:48.522Z</time></trkpt><trkpt lat="46.433605" lon="12.3673667"><ele>994.0</ele><time>2026-04-17T08:50:51.521Z</time></trkpt><trkpt lat="46.433635" lon="12.3674783"><ele>994.0</ele><time>2026-04-17T08:50:52.519Z</time></trkpt><trkpt lat="46.4336667" lon="12.3676067"><ele>993.9999999999999</ele><time>2026-04-17T08:50:53.518Z</time></trkpt><trkpt lat="46.4337017" lon="12.3677317"><ele>994.0</ele><time>2026-04-17T08:50:54.517Z</time></trkpt><trkpt lat="46.4337433" lon="12.3678483"><ele>993.9999999999999</ele><time>2026-04-17T08:50:55.519Z</time></trkpt><trkpt lat="46.4337933" lon="12.3679383"><ele>994.0</ele><time>2026-04-17T08:50:56.52Z</time></trkpt><trkpt lat="46.433855" lon="12.3679917"><ele>994.0</ele><time>2026-04-17T08:50:57.518Z</time></trkpt><trkpt lat="46.433925" lon="12.3680033"><ele>994.0</ele><time>2026-04-17T08:50:58.518Z</time></trkpt><trkpt lat="46.434005" lon="12.3679783"><ele>993.9999999999999</ele><time>2026-04-17T08:50:59.52Z</time></trkpt><trkpt lat="46.43409" lon="12.367945"><ele>994.0</ele><time>2026-04-17T08:51:00.518Z</time></trkpt><trkpt lat="46.43418" lon="12.36791"><ele>995.4999999999999</ele><time>2026-04-17T08:51:01.518Z</time></trkpt><trkpt lat="46.4342683" lon="12.3678783"><ele>997.0</ele><time>2026-04-17T08:51:02.52Z</time></trkpt><trkpt lat="46.4343567" lon="12.3678417"><ele>998.5</ele><time>2026-04-17T08:51:03.518Z</time></trkpt><trkpt lat="46.43444" lon="12.3678083"><ele>1000.0</ele><time>2026-04-17T08:51:04.519Z</time></trkpt><trkpt lat="46.4345133" lon="12.36778"><ele>1001.4999999999999</ele><time>2026-04-17T08:51:05.519Z</time></trkpt><trkpt lat="46.4345783" lon="12.367755"><ele>1003.0</ele><time>2026-04-17T08:51:06.518Z</time></trkpt><trkpt lat="46.4346417" lon="12.367725"><ele>1003.0</ele><time>2026-04-17T08:51:07.519Z</time></trkpt><trkpt lat="46.4347067" lon="12.36769"><ele>1002.9999999999999</ele><time>2026-04-17T08:51:08.52Z</time></trkpt><trkpt lat="46.434765" lon="12.36765"><ele>1003.0</ele><time>2026-04-17T08:51:09.518Z</time></trkpt><trkpt lat="46.434825" lon="12.3676067"><ele>1003.0</ele><time>2026-04-17T08:51:10.523Z</time></trkpt><trkpt lat="46.43489" lon="12.367555"><ele>1002.9999999999999</ele><time>2026-04-17T08:51:11.52Z</time></trkpt><trkpt lat="46.434955" lon="12.3675083"><ele>1003.0</ele><time>2026-04-17T08:51:12.519Z</time></trkpt><trkpt lat="46.4350383" lon="12.36746"><ele>1003.0</ele><time>2026-04-17T08:51:14.519Z</time></trkpt><trkpt lat="46.4349817" lon="12.3673867"><ele>1002.9999999999999</ele><time>2026-04-17T09:09:23.518Z</time></trkpt><trkpt lat="46.4349217" lon="12.36744"><ele>1003.0</ele><time>2026-04-17T09:10:02.519Z</time></trkpt><trkpt lat="46.43487" lon="12.367555"><ele>1003.0</ele><time>2026-04-17T09:10:05.52Z</time></trkpt><trkpt lat="46.4347933" lon="12.3676167"><ele>1003.0</ele><time>2026-04-17T09:10:07.519Z</time></trkpt><trkpt lat="46.4347233" lon="12.367665"><ele>1002.9999999999999</ele><time>2026-04-17T09:10:09.519Z</time></trkpt><trkpt lat="46.4346417" lon="12.3677083"><ele>1003.0</ele><time>2026-04-17T09:10:11.519Z</time></trkpt><trkpt lat="46.4345633" lon="12.36776"><ele>1003.4999999999999</ele><time>2026-04-17T09:10:13.519Z</time></trkpt><trkpt lat="46.4344817" lon="12.3677867"><ele>1004.0</ele><time>2026-04-17T09:10:15.519Z</time></trkpt><trkpt lat="46.4344017" lon="12.3678117"><ele>1004.5</ele><time>2026-04-17T09:10:17.519Z</time></trkpt><trkpt lat="46.4343067" lon="12.3678517"><ele>1005.0</ele><time>2026-04-17T09:10:19.52Z</time></trkpt><trkpt lat="46.4342417" lon="12.3678867"><ele>1005.4999999999999</ele><time>2026-04-17T09:10:20.519Z</time></trkpt><trkpt lat="46.4341683" lon="12.367895"><ele>1006.0</ele><time>2026-04-17T09:10:21.519Z</time></trkpt><trkpt lat="46.4340883" lon="12.3679167"><ele>1005.9999999999999</ele><time>2026-04-17T09:10:22.519Z</time></trkpt><trkpt lat="46.4340017" lon="12.3679683"><ele>1006.0</ele><time>2026-04-17T09:10:23.519Z</time></trkpt><trkpt lat="46.4339183" lon="12.367955"><ele>1006.0</ele><time>2026-04-17T09:10:24.521Z</time></trkpt><trkpt lat="46.4338383" lon="12.3679333"><ele>1006.0</ele><time>2026-04-17T09:10:25.519Z</time></trkpt><trkpt lat="46.4337683" lon="12.3678783"><ele>1005.9999999999999</ele><time>2026-04-17T09:10:26.519Z</time></trkpt><trkpt lat="46.433715" lon="12.367785"><ele>1006.0</ele><time>2026-04-17T09:10:27.518Z</time></trkpt><trkpt lat="46.43368" lon="12.3676383"><ele>1003.5999999999999</ele><time>2026-04-17T09:10:28.519Z</time></trkpt><trkpt lat="46.4336517" lon="12.3674883"><ele>1001.1999999999999</ele><time>2026-04-17T09:10:29.519Z</time></trkpt><trkpt lat="46.433625" lon="12.36736"><ele>998.8000000000001</ele><time>2026-04-17T09:10:30.52Z</time></trkpt><trkpt lat="46.433595" lon="12.3672467"><ele>996.4000000000001</ele><time>2026-04-17T09:10:31.519Z</time></trkpt><trkpt lat="46.4335067" lon="12.36722"><ele>994.0</ele><time>2026-04-17T09:10:33.519Z</time></trkpt><trkpt lat="46.4334783" lon="12.367385"><ele>994.0</ele><time>2026-04-17T09:10:35.519Z</time></trkpt><trkpt lat="46.433485" lon="12.36752"><ele>994.0</ele><time>2026-04-17T09:10:36.519Z</time></trkpt><trkpt lat="46.4334983" lon="12.3676917"><ele>994.0</ele><time>2026-04-17T09:10:37.518Z</time></trkpt><trkpt lat="46.43352" lon="12.3678867"><ele>994.0</ele><time>2026-04-17T09:10:38.52Z</time></trkpt><trkpt lat="46.4335467" lon="12.3680817"><ele>991.5</ele><time>2026-04-17T09:10:39.518Z</time></trkpt><trkpt lat="46.4335833" lon="12.3682767"><ele>989.0</ele><time>2026-04-17T09:10:40.519Z</time></trkpt><trkpt lat="46.4336333" lon="12.3684617"><ele>986.5</ele><time>2026-04-17T09:10:41.519Z</time></trkpt><trkpt lat="46.43369" lon="12.3686467"><ele>984.0</ele><time>2026-04-17T09:10:42.519Z</time></trkpt><trkpt lat="46.4337417" lon="12.368825"><ele>981.0</ele><time>2026-04-17T09:10:43.519Z</time></trkpt><trkpt lat="46.4337683" lon="12.3689917"><ele>978.0000000000001</ele><time>2026-04-17T09:10:44.519Z</time></trkpt><trkpt lat="46.4337617" lon="12.3691433"><ele>975.0000000000001</ele><time>2026-04-17T09:10:45.521Z</time></trkpt><trkpt lat="46.433725" lon="12.3692883"><ele>972.0</ele><time>2026-04-17T09:10:46.519Z</time></trkpt><trkpt lat="46.43366" lon="12.369435"><ele>969.0</ele><time>2026-04-17T09:10:47.519Z</time></trkpt><trkpt lat="46.4335767" lon="12.3695883"><ele>968.0</ele><time>2026-04-17T09:10:48.519Z</time></trkpt><trkpt lat="46.4334833" lon="12.36975"><ele>967.0</ele><time>2026-04-17T09:10:49.519Z</time></trkpt><trkpt lat="46.43339" lon="12.3699217"><ele>966.0</ele><time>2026-04-17T09:10:50.519Z</time></trkpt><trkpt lat="46.4333017" lon="12.37009"><ele>965.0</ele><time>2026-04-17T09:10:51.519Z</time></trkpt><trkpt lat="46.433215" lon="12.3702617"><ele>965.0</ele><time>2026-04-17T09:10:52.518Z</time></trkpt><trkpt lat="46.4331317" lon="12.3704483"><ele>965.0</ele><time>2026-04-17T09:10:53.519Z</time></trkpt><trkpt lat="46.4330517" lon="12.3706533"><ele>965.0</ele><time>2026-04-17T09:10:54.519Z</time></trkpt><trkpt lat="46.4329783" lon="12.3708683"><ele>961.6666666666667</ele><time>2026-04-17T09:10:55.52Z</time></trkpt><trkpt lat="46.4329067" lon="12.37108"><ele>958.3333333333333</ele><time>2026-04-17T09:10:56.522Z</time></trkpt><trkpt lat="46.432835" lon="12.3712883"><ele>955.0</ele><time>2026-04-17T09:10:57.519Z</time></trkpt><trkpt lat="46.4327683" lon="12.371495"><ele>952.75</ele><time>2026-04-17T09:10:58.519Z</time></trkpt><trkpt lat="46.4326983" lon="12.371695"><ele>950.5</ele><time>2026-04-17T09:10:59.519Z</time></trkpt><trkpt lat="46.43261" lon="12.37187"><ele>948.25</ele><time>2026-04-17T09:11:00.519Z</time></trkpt><trkpt lat="46.43251" lon="12.3720167"><ele>946.0</ele><time>2026-04-17T09:11:01.519Z</time></trkpt><trkpt lat="46.432395" lon="12.37213"><ele>946.5</ele><time>2026-04-17T09:11:02.519Z</time></trkpt><trkpt lat="46.43227" lon="12.3722017"><ele>947.0</ele><time>2026-04-17T09:11:03.519Z</time></trkpt><trkpt lat="46.4321433" lon="12.3722633"><ele>947.5</ele><time>2026-04-17T09:11:04.521Z</time></trkpt><trkpt lat="46.4320283" lon="12.3723433"><ele>948.0</ele><time>2026-04-17T09:11:05.519Z</time></trkpt><trkpt lat="46.4319217" lon="12.3724467"><ele>944.25</ele><time>2026-04-17T09:11:06.519Z</time></trkpt><trkpt lat="46.4318117" lon="12.3725617"><ele>940.5</ele><time>2026-04-17T09:11:07.519Z</time></trkpt><trkpt lat="46.4317" lon="12.372675"><ele>936.75</ele><time>2026-04-17T09:11:08.52Z</time></trkpt><trkpt lat="46.4315967" lon="12.3727883"><ele>933.0</ele><time>2026-04-17T09:11:09.518Z</time></trkpt><trkpt lat="46.4315117" lon="12.3729017"><ele>931.3333333333334</ele><time>2026-04-17T09:11:10.519Z</time></trkpt><trkpt lat="46.431455" lon="12.3730233"><ele>929.6666666666667</ele><time>2026-04-17T09:11:11.517Z</time></trkpt><trkpt lat="46.4314183" lon="12.37315"><ele>928.0</ele><time>2026-04-17T09:11:12.518Z</time></trkpt><trkpt lat="46.4313917" lon="12.373265"><ele>926.3333333333334</ele><time>2026-04-17T09:11:13.52Z</time></trkpt><trkpt lat="46.431365" lon="12.373375"><ele>924.6666666666667</ele><time>2026-04-17T09:11:14.52Z</time></trkpt><trkpt lat="46.4313317" lon="12.373475"><ele>923.0</ele><time>2026-04-17T09:11:15.518Z</time></trkpt><trkpt lat="46.4312867" lon="12.3735717"><ele>921.1666666666667</ele><time>2026-04-17T09:11:16.521Z</time></trkpt><trkpt lat="46.431235" lon="12.37366"><ele>919.3333333333334</ele><time>2026-04-17T09:11:17.522Z</time></trkpt><trkpt lat="46.4311767" lon="12.3737317"><ele>917.5</ele><time>2026-04-17T09:11:18.518Z</time></trkpt><trkpt lat="46.43111" lon="12.373795"><ele>915.6666666666667</ele><time>2026-04-17T09:11:19.519Z</time></trkpt><trkpt lat="46.43104" lon="12.3738467"><ele>913.8333333333334</ele><time>2026-04-17T09:11:20.52Z</time></trkpt><trkpt lat="46.4309667" lon="12.3738933"><ele>912.0</ele><time>2026-04-17T09:11:21.518Z</time></trkpt><trkpt lat="46.43089" lon="12.3739433"><ele>911.3333333333334</ele><time>2026-04-17T09:11:22.52Z</time></trkpt><trkpt lat="46.4308117" lon="12.373995"><ele>910.6666666666667</ele><time>2026-04-17T09:11:23.518Z</time></trkpt><trkpt lat="46.43073" lon="12.3740467"><ele>910.0</ele><time>2026-04-17T09:11:24.518Z</time></trkpt><trkpt lat="46.430655" lon="12.3741017"><ele>909.3333333333334</ele><time>2026-04-17T09:11:25.518Z</time></trkpt><trkpt lat="46.430595" lon="12.3741617"><ele>908.6666666666667</ele><time>2026-04-17T09:11:26.518Z</time></trkpt><trkpt lat="46.4305467" lon="12.3742233"><ele>908.0</ele><time>2026-04-17T09:11:27.517Z</time></trkpt><trkpt lat="46.4305133" lon="12.3743783"><ele>908.0</ele><time>2026-04-17T09:11:29.522Z</time></trkpt><trkpt lat="46.4305517" lon="12.3745617"><ele>908.0</ele><time>2026-04-17T09:11:31.52Z</time></trkpt><trkpt lat="46.430585" lon="12.374675"><ele>908.0</ele><time>2026-04-17T09:11:32.52Z</time></trkpt><trkpt lat="46.4306183" lon="12.3747933"><ele>908.0</ele><time>2026-04-17T09:11:33.518Z</time></trkpt><trkpt lat="46.430645" lon="12.3749083"><ele>908.0</ele><time>2026-04-17T09:11:34.521Z</time></trkpt><trkpt lat="46.430655" lon="12.375025"><ele>907.6666666666667</ele><time>2026-04-17T09:11:35.524Z</time></trkpt><trkpt lat="46.4306517" lon="12.3751383"><ele>907.3333333333334</ele><time>2026-04-17T09:11:36.518Z</time></trkpt><trkpt lat="46.4306367" lon="12.3752417"><ele>907.0</ele><time>2026-04-17T09:11:37.518Z</time></trkpt><trkpt lat="46.430605" lon="12.3753283"><ele>906.6666666666667</ele><time>2026-04-17T09:11:38.523Z</time></trkpt><trkpt lat="46.4305567" lon="12.3753933"><ele>906.3333333333334</ele><time>2026-04-17T09:11:39.518Z</time></trkpt><trkpt lat="46.4304533" lon="12.3754033"><ele>906.0</ele><time>2026-04-17T09:11:41.519Z</time></trkpt><trkpt lat="46.4303567" lon="12.3752883"><ele>904.0</ele><time>2026-04-17T09:11:43.518Z</time></trkpt><trkpt lat="46.4302983" lon="12.3752083"><ele>901.9999999999999</ele><time>2026-04-17T09:11:44.518Z</time></trkpt><trkpt lat="46.430235" lon="12.3751217"><ele>899.9999999999999</ele><time>2026-04-17T09:11:45.518Z</time></trkpt><trkpt lat="46.4301683" lon="12.3750317"><ele>898.0</ele><time>2026-04-17T09:11:46.52Z</time></trkpt><trkpt lat="46.4301067" lon="12.3749283"><ele>896.0</ele><time>2026-04-17T09:11:47.518Z</time></trkpt><trkpt lat="46.4300433" lon="12.3748217"><ele>896.0</ele><time>2026-04-17T09:11:48.518Z</time></trkpt><trkpt lat="46.429975" lon="12.3747167"><ele>895.9999999999999</ele><time>2026-04-17T09:11:49.519Z</time></trkpt><trkpt lat="46.429905" lon="12.3746167"><ele>895.9999999999999</ele><time>2026-04-17T09:11:50.521Z</time></trkpt><trkpt lat="46.429835" lon="12.3745167"><ele>896.0</ele><time>2026-04-17T09:11:51.518Z</time></trkpt><trkpt lat="46.429765" lon="12.3744183"><ele>896.0</ele><time>2026-04-17T09:11:52.517Z</time></trkpt><trkpt lat="46.4297" lon="12.3743333"><ele>894.1666666666667</ele><time>2026-04-17T09:11:53.52Z</time></trkpt><trkpt lat="46.4296383" lon="12.3742483"><ele>892.3333333333334</ele><time>2026-04-17T09:11:54.52Z</time></trkpt><trkpt lat="46.4295783" lon="12.3741567"><ele>890.5</ele><time>2026-04-17T09:11:55.522Z</time></trkpt><trkpt lat="46.429515" lon="12.3740783"><ele>888.6666666666667</ele><time>2026-04-17T09:11:56.519Z</time></trkpt><trkpt lat="46.42946" lon="12.373995"><ele>886.8333333333334</ele><time>2026-04-17T09:11:57.518Z</time></trkpt><trkpt lat="46.4294083" lon="12.373915"><ele>885.0</ele><time>2026-04-17T09:11:58.519Z</time></trkpt><trkpt lat="46.4293433" lon="12.3738867"><ele>885.0</ele><time>2026-04-17T09:11:59.521Z</time></trkpt><trkpt lat="46.4292667" lon="12.3739117"><ele>885.0</ele><time>2026-04-17T09:12:00.519Z</time></trkpt><trkpt lat="46.429205" lon="12.37397"><ele>885.0</ele><time>2026-04-17T09:12:01.517Z</time></trkpt><trkpt lat="46.42917" lon="12.374065"><ele>885.0</ele><time>2026-04-17T09:12:02.519Z</time></trkpt><trkpt lat="46.4291467" lon="12.3741733"><ele>885.0</ele><time>2026-04-17T09:12:03.518Z</time></trkpt><trkpt lat="46.429155" lon="12.3742917"><ele>885.0</ele><time>2026-04-17T09:12:04.519Z</time></trkpt><trkpt lat="46.4291817" lon="12.374405"><ele>885.0</ele><time>2026-04-17T09:12:05.518Z</time></trkpt><trkpt lat="46.42921" lon="12.3745033"><ele>885.0</ele><time>2026-04-17T09:12:06.519Z</time></trkpt><trkpt lat="46.4292433" lon="12.3745883"><ele>885.0</ele><time>2026-04-17T09:12:07.519Z</time></trkpt><trkpt lat="46.4292733" lon="12.3746733"><ele>885.0</ele><time>2026-04-17T09:12:08.519Z</time></trkpt><trkpt lat="46.4292367" lon="12.3748133"><ele>885.0</ele><time>2026-04-17T09:12:10.52Z</time></trkpt><trkpt lat="46.42915" lon="12.3749183"><ele>885.0</ele><time>2026-04-17T09:12:12.518Z</time></trkpt><trkpt lat="46.4290833" lon="12.3749633"><ele>885.0</ele><time>2026-04-17T09:12:13.518Z</time></trkpt><trkpt lat="46.4289933" lon="12.374935"><ele>885.0</ele><time>2026-04-17T09:12:15.518Z</time></trkpt><trkpt lat="46.428935" lon="12.3747767"><ele>885.0</ele><time>2026-04-17T09:12:17.52Z</time></trkpt><trkpt lat="46.428905" lon="12.374685"><ele>885.0</ele><time>2026-04-17T09:12:18.518Z</time></trkpt><trkpt lat="46.42889" lon="12.37458"><ele>885.0</ele><time>2026-04-17T09:12:19.519Z</time></trkpt><trkpt lat="46.4288633" lon="12.3744883"><ele>885.0</ele><time>2026-04-17T09:12:20.519Z</time></trkpt><trkpt lat="46.4288" lon="12.3743683"><ele>884.0</ele><time>2026-04-17T09:12:22.518Z</time></trkpt><trkpt lat="46.4287417" lon="12.3743333"><ele>883.0</ele><time>2026-04-17T09:12:32.519Z</time></trkpt><trkpt lat="46.4286983" lon="12.3744283"><ele>882.0</ele><time>2026-04-17T09:12:34.518Z</time></trkpt><trkpt lat="46.428645" lon="12.3745767"><ele>881.0</ele><time>2026-04-17T09:12:36.518Z</time></trkpt><trkpt lat="46.4286117" lon="12.374655"><ele>880.0</ele><time>2026-04-17T09:12:37.519Z</time></trkpt><trkpt lat="46.4285483" lon="12.374815"><ele>879.0</ele><time>2026-04-17T09:12:39.517Z</time></trkpt><trkpt lat="46.4285133" lon="12.3749033"><ele>879.0</ele><time>2026-04-17T09:12:40.518Z</time></trkpt><trkpt lat="46.42849" lon="12.3750017"><ele>879.0</ele><time>2026-04-17T09:12:41.518Z</time></trkpt><trkpt lat="46.428475" lon="12.3751033"><ele>879.0</ele><time>2026-04-17T09:12:42.518Z</time></trkpt><trkpt lat="46.4284817" lon="12.3751967"><ele>879.0</ele><time>2026-04-17T09:12:43.518Z</time></trkpt><trkpt lat="46.4284983" lon="12.3753717"><ele>879.0</ele><time>2026-04-17T09:12:45.518Z</time></trkpt><trkpt lat="46.4285133" lon="12.3755267"><ele>879.0</ele><time>2026-04-17T09:12:47.519Z</time></trkpt><trkpt lat="46.4284917" lon="12.3756517"><ele>879.8000000000001</ele><time>2026-04-17T09:12:49.518Z</time></trkpt><trkpt lat="46.428475" lon="12.3757517"><ele>880.6000000000001</ele><time>2026-04-17T09:12:51.518Z</time></trkpt><trkpt lat="46.4284567" lon="12.3758483"><ele>881.4</ele><time>2026-04-17T09:12:55.519Z</time></trkpt><trkpt lat="46.4285067" lon="12.37598"><ele>882.2</ele><time>2026-04-17T09:13:05.519Z</time></trkpt><trkpt lat="46.4285767" lon="12.3761017"><ele>883.0</ele><time>2026-04-17T09:13:07.518Z</time></trkpt><trkpt lat="46.4286733" lon="12.3762117"><ele>882.9999999999999</ele><time>2026-04-17T09:13:09.518Z</time></trkpt><trkpt lat="46.428725" lon="12.3762733"><ele>883.0</ele><time>2026-04-17T09:13:10.518Z</time></trkpt><trkpt lat="46.4287817" lon="12.3763383"><ele>883.0</ele><time>2026-04-17T09:13:11.521Z</time></trkpt><trkpt lat="46.4288483" lon="12.3764133"><ele>883.0</ele><time>2026-04-17T09:13:12.518Z</time></trkpt><trkpt lat="46.4289217" lon="12.3765067"><ele>882.9999999999999</ele><time>2026-04-17T09:13:13.518Z</time></trkpt><trkpt lat="46.4290017" lon="12.37659"><ele>883.0</ele><time>2026-04-17T09:13:14.519Z</time></trkpt><trkpt lat="46.4290833" lon="12.3766783"><ele>882.5999999999999</ele><time>2026-04-17T09:13:15.518Z</time></trkpt><trkpt lat="46.4291733" lon="12.37675"><ele>882.1999999999999</ele><time>2026-04-17T09:13:16.517Z</time></trkpt><trkpt lat="46.4292583" lon="12.37682"><ele>881.8</ele><time>2026-04-17T09:13:17.52Z</time></trkpt><trkpt lat="46.4293417" lon="12.3769"><ele>881.4</ele><time>2026-04-17T09:13:18.521Z</time></trkpt><trkpt lat="46.4294333" lon="12.3769733"><ele>881.0</ele><time>2026-04-17T09:13:19.519Z</time></trkpt><trkpt lat="46.4295333" lon="12.377025"><ele>881.0</ele><time>2026-04-17T09:13:20.519Z</time></trkpt><trkpt lat="46.42964" lon="12.37705"><ele>881.0</ele><time>2026-04-17T09:13:21.518Z</time></trkpt><trkpt lat="46.429755" lon="12.3770583"><ele>881.0</ele><time>2026-04-17T09:13:22.518Z</time></trkpt><trkpt lat="46.4298733" lon="12.377055"><ele>881.0</ele><time>2026-04-17T09:13:23.519Z</time></trkpt><trkpt lat="46.42998" lon="12.37711"><ele>881.25</ele><time>2026-04-17T09:13:24.518Z</time></trkpt><trkpt lat="46.4300917" lon="12.37717"><ele>881.5</ele><time>2026-04-17T09:13:25.519Z</time></trkpt><trkpt lat="46.4302017" lon="12.377235"><ele>881.75</ele><time>2026-04-17T09:13:26.518Z</time></trkpt><trkpt lat="46.4302967" lon="12.3773217"><ele>882.0</ele><time>2026-04-17T09:13:27.518Z</time></trkpt><trkpt lat="46.4303867" lon="12.3773983"><ele>881.0</ele><time>2026-04-17T09:13:28.519Z</time></trkpt><trkpt lat="46.4304583" lon="12.3774783"><ele>880.0</ele><time>2026-04-17T09:13:29.522Z</time></trkpt><trkpt lat="46.4305167" lon="12.3775483"><ele>879.0</ele><time>2026-04-17T09:13:30.522Z</time></trkpt><trkpt lat="46.4305583" lon="12.3776267"><ele>878.0</ele><time>2026-04-17T09:13:31.518Z</time></trkpt><trkpt lat="46.4306317" lon="12.37777"><ele>877.0</ele><time>2026-04-17T09:13:33.518Z</time></trkpt><trkpt lat="46.43068" lon="12.37784"><ele>876.0</ele><time>2026-04-17T09:13:34.518Z</time></trkpt><trkpt lat="46.4307517" lon="12.3779017"><ele>876.0</ele><time>2026-04-17T09:13:35.518Z</time></trkpt><trkpt lat="46.4308467" lon="12.37797"><ele>876.0</ele><time>2026-04-17T09:13:36.518Z</time></trkpt><trkpt lat="46.4309617" lon="12.3780333"><ele>876.0</ele><time>2026-04-17T09:13:37.52Z</time></trkpt><trkpt lat="46.4310817" lon="12.3781067"><ele>876.0</ele><time>2026-04-17T09:13:38.519Z</time></trkpt><trkpt lat="46.4311983" lon="12.3782017"><ele>875.0</ele><time>2026-04-17T09:13:39.518Z</time></trkpt><trkpt lat="46.4313133" lon="12.3783133"><ele>874.0</ele><time>2026-04-17T09:13:40.52Z</time></trkpt><trkpt lat="46.431435" lon="12.3784233"><ele>873.0</ele><time>2026-04-17T09:13:41.519Z</time></trkpt><trkpt lat="46.4315667" lon="12.3785217"><ele>872.0</ele><time>2026-04-17T09:13:42.518Z</time></trkpt><trkpt lat="46.431705" lon="12.3786083"><ele>872.0</ele><time>2026-04-17T09:13:43.52Z</time></trkpt><trkpt lat="46.4318517" lon="12.378685"><ele>872.0</ele><time>2026-04-17T09:13:44.518Z</time></trkpt><trkpt lat="46.4320017" lon="12.3787567"><ele>872.0</ele><time>2026-04-17T09:13:45.519Z</time></trkpt><trkpt lat="46.432155" lon="12.3788233"><ele>861.6666666666667</ele><time>2026-04-17T09:13:46.52Z</time></trkpt><trkpt lat="46.4323117" lon="12.378875"><ele>851.3333333333333</ele><time>2026-04-17T09:13:47.519Z</time></trkpt><trkpt lat="46.4324617" lon="12.3789083"><ele>841.0</ele><time>2026-04-17T09:13:48.518Z</time></trkpt><trkpt lat="46.4326067" lon="12.3789167"><ele>841.0</ele><time>2026-04-17T09:13:49.517Z</time></trkpt><trkpt lat="46.4327467" lon="12.3789"><ele>841.0</ele><time>2026-04-17T09:13:50.518Z</time></trkpt><trkpt lat="46.432885" lon="12.3788467"><ele>841.0</ele><time>2026-04-17T09:13:51.517Z</time></trkpt><trkpt lat="46.433025" lon="12.3787633"><ele>841.0</ele><time>2026-04-17T09:13:52.518Z</time></trkpt><trkpt lat="46.4331617" lon="12.3786717"><ele>843.6666666666666</ele><time>2026-04-17T09:13:53.518Z</time></trkpt><trkpt lat="46.4333017" lon="12.378575"><ele>846.3333333333333</ele><time>2026-04-17T09:13:54.518Z</time></trkpt><trkpt lat="46.4334433" lon="12.3784767"><ele>849.0</ele><time>2026-04-17T09:13:55.518Z</time></trkpt><trkpt lat="46.4335917" lon="12.3783733"><ele>849.0</ele><time>2026-04-17T09:13:56.519Z</time></trkpt><trkpt lat="46.4337417" lon="12.3782717"><ele>849.0</ele><time>2026-04-17T09:13:57.516Z</time></trkpt><trkpt lat="46.4338967" lon="12.37818"><ele>849.0</ele><time>2026-04-17T09:13:58.519Z</time></trkpt><trkpt lat="46.43405" lon="12.3781017"><ele>850.0</ele><time>2026-04-17T09:13:59.518Z</time></trkpt><trkpt lat="46.4342033" lon="12.3780467"><ele>851.0</ele><time>2026-04-17T09:14:00.518Z</time></trkpt><trkpt lat="46.4343583" lon="12.3780017"><ele>852.0</ele><time>2026-04-17T09:14:01.518Z</time></trkpt><trkpt lat="46.43451" lon="12.3779683"><ele>852.5</ele><time>2026-04-17T09:14:02.519Z</time></trkpt><trkpt lat="46.4346583" lon="12.3779417"><ele>853.0</ele><time>2026-04-17T09:14:03.518Z</time></trkpt><trkpt lat="46.4348017" lon="12.3779167"><ele>853.5</ele><time>2026-04-17T09:14:04.519Z</time></trkpt><trkpt lat="46.4349383" lon="12.3778983"><ele>854.0</ele><time>2026-04-17T09:14:05.519Z</time></trkpt><trkpt lat="46.4350633" lon="12.377865"><ele>854.0</ele><time>2026-04-17T09:14:06.519Z</time></trkpt><trkpt lat="46.4351717" lon="12.3778083"><ele>854.0</ele><time>2026-04-17T09:14:07.519Z</time></trkpt><trkpt lat="46.43526" lon="12.37772"><ele>854.0</ele><time>2026-04-17T09:14:08.523Z</time></trkpt><trkpt lat="46.435335" lon="12.377595"><ele>854.0</ele><time>2026-04-17T09:14:09.519Z</time></trkpt><trkpt lat="46.4354033" lon="12.3774367"><ele>854.0</ele><time>2026-04-17T09:14:10.518Z</time></trkpt><trkpt lat="46.435465" lon="12.3772783"><ele>854.0</ele><time>2026-04-17T09:14:11.519Z</time></trkpt><trkpt lat="46.43553" lon="12.3771217"><ele>854.0</ele><time>2026-04-17T09:14:12.522Z</time></trkpt><trkpt lat="46.4355967" lon="12.3769633"><ele>854.0</ele><time>2026-04-17T09:14:13.519Z</time></trkpt><trkpt lat="46.43566" lon="12.3768117"><ele>852.8333333333334</ele><time>2026-04-17T09:14:14.519Z</time></trkpt><trkpt lat="46.4357233" lon="12.3766733"><ele>851.6666666666667</ele><time>2026-04-17T09:14:15.519Z</time></trkpt><trkpt lat="46.4357917" lon="12.3765717"><ele>850.5</ele><time>2026-04-17T09:14:16.518Z</time></trkpt><trkpt lat="46.4358667" lon="12.376525"><ele>849.3333333333333</ele><time>2026-04-17T09:14:17.519Z</time></trkpt><trkpt lat="46.4359467" lon="12.376515"><ele>848.1666666666666</ele><time>2026-04-17T09:14:18.518Z</time></trkpt><trkpt lat="46.4359983" lon="12.376585"><ele>847.0</ele><time>2026-04-17T09:14:19.518Z</time></trkpt><trkpt lat="46.4360333" lon="12.3766817"><ele>847.0</ele><time>2026-04-17T09:14:20.519Z</time></trkpt><trkpt lat="46.4360483" lon="12.3768033"><ele>847.0</ele><time>2026-04-17T09:14:21.518Z</time></trkpt><trkpt lat="46.4360467" lon="12.376985"><ele>847.0</ele><time>2026-04-17T09:14:22.519Z</time></trkpt><trkpt lat="46.4360533" lon="12.3771783"><ele>847.0</ele><time>2026-04-17T09:14:23.519Z</time></trkpt><trkpt lat="46.4360667" lon="12.3773833"><ele>844.0</ele><time>2026-04-17T09:14:24.519Z</time></trkpt><trkpt lat="46.436085" lon="12.3775983"><ele>841.0</ele><time>2026-04-17T09:14:25.519Z</time></trkpt><trkpt lat="46.4361133" lon="12.377825"><ele>838.0</ele><time>2026-04-17T09:14:26.519Z</time></trkpt><trkpt lat="46.4361417" lon="12.3780533"><ele>833.25</ele><time>2026-04-17T09:14:27.518Z</time></trkpt><trkpt lat="46.4361683" lon="12.3782683"><ele>828.5</ele><time>2026-04-17T09:14:28.518Z</time></trkpt><trkpt lat="46.4361917" lon="12.378465"><ele>823.75</ele><time>2026-04-17T09:14:29.519Z</time></trkpt><trkpt lat="46.4362033" lon="12.3786383"><ele>819.0</ele><time>2026-04-17T09:14:30.519Z</time></trkpt><trkpt lat="46.436195" lon="12.37878"><ele>817.0</ele><time>2026-04-17T09:14:31.519Z</time></trkpt><trkpt lat="46.4361683" lon="12.378875"><ele>815.0</ele><time>2026-04-17T09:14:32.518Z</time></trkpt><trkpt lat="46.43613" lon="12.3789633"><ele>813.0</ele><time>2026-04-17T09:14:33.518Z</time></trkpt><trkpt lat="46.4360967" lon="12.37908"><ele>811.0</ele><time>2026-04-17T09:14:34.518Z</time></trkpt><trkpt lat="46.43609" lon="12.379195"><ele>809.0</ele><time>2026-04-17T09:14:35.519Z</time></trkpt><trkpt lat="46.4361233" lon="12.3793067"><ele>807.0</ele><time>2026-04-17T09:14:36.518Z</time></trkpt><trkpt lat="46.436185" lon="12.37942"><ele>807.0</ele><time>2026-04-17T09:14:37.52Z</time></trkpt><trkpt lat="46.4362517" lon="12.3795383"><ele>807.0</ele><time>2026-04-17T09:14:38.519Z</time></trkpt><trkpt lat="46.4363033" lon="12.3796517"><ele>807.0</ele><time>2026-04-17T09:14:39.519Z</time></trkpt><trkpt lat="46.4363517" lon="12.3797417"><ele>807.0</ele><time>2026-04-17T09:14:40.52Z</time></trkpt><trkpt lat="46.4364083" lon="12.3797983"><ele>807.0</ele><time>2026-04-17T09:14:41.519Z</time></trkpt><trkpt lat="46.4364867" lon="12.3798083"><ele>807.0</ele><time>2026-04-17T09:14:42.519Z</time></trkpt><trkpt lat="46.4365817" lon="12.379785"><ele>807.4000000000001</ele><time>2026-04-17T09:14:43.519Z</time></trkpt><trkpt lat="46.436685" lon="12.379755"><ele>807.8000000000001</ele><time>2026-04-17T09:14:44.52Z</time></trkpt><trkpt lat="46.436795" lon="12.3797433"><ele>808.2</ele><time>2026-04-17T09:14:45.519Z</time></trkpt><trkpt lat="46.4369083" lon="12.3797517"><ele>808.6</ele><time>2026-04-17T09:14:46.518Z</time></trkpt><trkpt lat="46.437025" lon="12.379775"><ele>809.0</ele><time>2026-04-17T09:14:47.52Z</time></trkpt><trkpt lat="46.4371467" lon="12.3798167"><ele>809.75</ele><time>2026-04-17T09:14:48.519Z</time></trkpt><trkpt lat="46.4372717" lon="12.3798683"><ele>810.5</ele><time>2026-04-17T09:14:49.517Z</time></trkpt><trkpt lat="46.4373967" lon="12.379925"><ele>811.25</ele><time>2026-04-17T09:14:50.519Z</time></trkpt><trkpt lat="46.4375233" lon="12.3799783"><ele>812.0</ele><time>2026-04-17T09:14:51.517Z</time></trkpt><trkpt lat="46.4376483" lon="12.3800333"><ele>812.0</ele><time>2026-04-17T09:14:52.519Z</time></trkpt><trkpt lat="46.4377767" lon="12.3800883"><ele>812.0</ele><time>2026-04-17T09:14:53.517Z</time></trkpt><trkpt lat="46.4379083" lon="12.380135"><ele>812.0</ele><time>2026-04-17T09:14:54.517Z</time></trkpt><trkpt lat="46.4380433" lon="12.3801667"><ele>812.0</ele><time>2026-04-17T09:14:55.518Z</time></trkpt><trkpt lat="46.4381817" lon="12.38021"><ele>811.75</ele><time>2026-04-17T09:14:56.519Z</time></trkpt><trkpt lat="46.438325" lon="12.3802333"><ele>811.5</ele><time>2026-04-17T09:14:57.518Z</time></trkpt><trkpt lat="46.4384717" lon="12.3802317"><ele>811.25</ele><time>2026-04-17T09:14:58.521Z</time></trkpt><trkpt lat="46.43862" lon="12.380215"><ele>811.0</ele><time>2026-04-17T09:14:59.52Z</time></trkpt><trkpt lat="46.4387667" lon="12.3801983"><ele>810.25</ele><time>2026-04-17T09:15:00.518Z</time></trkpt><trkpt lat="46.438915" lon="12.38017"><ele>809.5</ele><time>2026-04-17T09:15:01.518Z</time></trkpt><trkpt lat="46.4390633" lon="12.3801417"><ele>808.75</ele><time>2026-04-17T09:15:02.521Z</time></trkpt><trkpt lat="46.4392067" lon="12.3801117"><ele>808.0</ele><time>2026-04-17T09:15:03.518Z</time></trkpt><trkpt lat="46.4393483" lon="12.3800833"><ele>808.0</ele><time>2026-04-17T09:15:04.518Z</time></trkpt><trkpt lat="46.43949" lon="12.380045"><ele>808.0</ele><time>2026-04-17T09:15:05.518Z</time></trkpt><trkpt lat="46.4396267" lon="12.3800433"><ele>808.0</ele><time>2026-04-17T09:15:06.518Z</time></trkpt><trkpt lat="46.4397567" lon="12.3800817"><ele>808.0</ele><time>2026-04-17T09:15:07.522Z</time></trkpt><trkpt lat="46.439885" lon="12.3801367"><ele>806.5</ele><time>2026-04-17T09:15:08.521Z</time></trkpt><trkpt lat="46.440005" lon="12.380195"><ele>805.0</ele><time>2026-04-17T09:15:09.523Z</time></trkpt><trkpt lat="46.4401217" lon="12.3802567"><ele>803.5</ele><time>2026-04-17T09:15:10.518Z</time></trkpt><trkpt lat="46.4402367" lon="12.38032"><ele>802.0</ele><time>2026-04-17T09:15:11.518Z</time></trkpt><trkpt lat="46.4403517" lon="12.380385"><ele>802.75</ele><time>2026-04-17T09:15:12.518Z</time></trkpt><trkpt lat="46.4404733" lon="12.3804517"><ele>803.5</ele><time>2026-04-17T09:15:13.517Z</time></trkpt><trkpt lat="46.4405933" lon="12.3805233"><ele>804.25</ele><time>2026-04-17T09:15:14.521Z</time></trkpt><trkpt lat="46.440715" lon="12.3806"><ele>805.0</ele><time>2026-04-17T09:15:15.517Z</time></trkpt><trkpt lat="46.4408383" lon="12.38068"><ele>800.5</ele><time>2026-04-17T09:15:16.517Z</time></trkpt><trkpt lat="46.44097" lon="12.3807617"><ele>796.0</ele><time>2026-04-17T09:15:17.521Z</time></trkpt><trkpt lat="46.44111" lon="12.38084"><ele>791.5</ele><time>2026-04-17T09:15:18.518Z</time></trkpt><trkpt lat="46.4412483" lon="12.3809167"><ele>787.0</ele><time>2026-04-17T09:15:19.521Z</time></trkpt><trkpt lat="46.4413783" lon="12.3810067"><ele>787.0</ele><time>2026-04-17T09:15:20.521Z</time></trkpt><trkpt lat="46.4414933" lon="12.3811033"><ele>787.0</ele><time>2026-04-17T09:15:21.517Z</time></trkpt><trkpt lat="46.4415967" lon="12.3812033"><ele>787.0</ele><time>2026-04-17T09:15:22.518Z</time></trkpt><trkpt lat="46.4416933" lon="12.3813067"><ele>787.0</ele><time>2026-04-17T09:15:23.518Z</time></trkpt><trkpt lat="46.441785" lon="12.3814067"><ele>786.5</ele><time>2026-04-17T09:15:24.518Z</time></trkpt><trkpt lat="46.441875" lon="12.3815"><ele>786.0</ele><time>2026-04-17T09:15:25.519Z</time></trkpt><trkpt lat="46.4419583" lon="12.381605"><ele>785.5</ele><time>2026-04-17T09:15:26.522Z</time></trkpt><trkpt lat="46.4420433" lon="12.3817233"><ele>785.0</ele><time>2026-04-17T09:15:27.521Z</time></trkpt><trkpt lat="46.4421433" lon="12.3818267"><ele>785.0</ele><time>2026-04-17T09:15:28.519Z</time></trkpt><trkpt lat="46.4422383" lon="12.381945"><ele>785.0</ele><time>2026-04-17T09:15:29.52Z</time></trkpt><trkpt lat="46.4423233" lon="12.382075"><ele>785.0</ele><time>2026-04-17T09:15:30.518Z</time></trkpt><trkpt lat="46.4423917" lon="12.382205"><ele>785.0</ele><time>2026-04-17T09:15:31.518Z</time></trkpt><trkpt lat="46.4424483" lon="12.3823317"><ele>783.0</ele><time>2026-04-17T09:15:32.517Z</time></trkpt><trkpt lat="46.442495" lon="12.3824517"><ele>781.0</ele><time>2026-04-17T09:15:33.518Z</time></trkpt><trkpt lat="46.4425417" lon="12.382565"><ele>779.0</ele><time>2026-04-17T09:15:34.518Z</time></trkpt><trkpt lat="46.4425883" lon="12.38268"><ele>777.0</ele><time>2026-04-17T09:15:35.519Z</time></trkpt><trkpt lat="46.4426367" lon="12.3828017"><ele>775.0</ele><time>2026-04-17T09:15:36.517Z</time></trkpt><trkpt lat="46.4426833" lon="12.382925"><ele>774.4</ele><time>2026-04-17T09:15:37.518Z</time></trkpt><trkpt lat="46.4427283" lon="12.3830533"><ele>773.8</ele><time>2026-04-17T09:15:38.518Z</time></trkpt><trkpt lat="46.4427767" lon="12.383175"><ele>773.2</ele><time>2026-04-17T09:15:39.518Z</time></trkpt><trkpt lat="46.4428317" lon="12.3832967"><ele>772.6</ele><time>2026-04-17T09:15:40.519Z</time></trkpt><trkpt lat="46.4429017" lon="12.38341"><ele>772.0</ele><time>2026-04-17T09:15:41.519Z</time></trkpt><trkpt lat="46.4429767" lon="12.383525"><ele>772.25</ele><time>2026-04-17T09:15:42.518Z</time></trkpt><trkpt lat="46.4430517" lon="12.3836483"><ele>772.5</ele><time>2026-04-17T09:15:43.522Z</time></trkpt><trkpt lat="46.443135" lon="12.3837733"><ele>772.75</ele><time>2026-04-17T09:15:44.522Z</time></trkpt><trkpt lat="46.44322" lon="12.3839033"><ele>773.0</ele><time>2026-04-17T09:15:45.518Z</time></trkpt><trkpt lat="46.4433033" lon="12.3840367"><ele>773.0</ele><time>2026-04-17T09:15:46.521Z</time></trkpt><trkpt lat="46.4433883" lon="12.3841717"><ele>773.0</ele><time>2026-04-17T09:15:47.519Z</time></trkpt><trkpt lat="46.443475" lon="12.3843083"><ele>773.0</ele><time>2026-04-17T09:15:48.517Z</time></trkpt><trkpt lat="46.443565" lon="12.3844483"><ele>773.0</ele><time>2026-04-17T09:15:49.52Z</time></trkpt><trkpt lat="46.4436567" lon="12.3845867"><ele>772.25</ele><time>2026-04-17T09:15:50.519Z</time></trkpt><trkpt lat="46.443745" lon="12.3847233"><ele>771.5</ele><time>2026-04-17T09:15:51.518Z</time></trkpt><trkpt lat="46.443835" lon="12.3848617"><ele>770.75</ele><time>2026-04-17T09:15:52.518Z</time></trkpt><trkpt lat="46.4439267" lon="12.385"><ele>770.0</ele><time>2026-04-17T09:15:53.518Z</time></trkpt><trkpt lat="46.4440217" lon="12.385135"><ele>770.0</ele><time>2026-04-17T09:15:54.518Z</time></trkpt><trkpt lat="46.444125" lon="12.38526"><ele>770.0</ele><time>2026-04-17T09:15:55.518Z</time></trkpt><trkpt lat="46.4442367" lon="12.3853783"><ele>770.0</ele><time>2026-04-17T09:15:56.518Z</time></trkpt><trkpt lat="46.4443517" lon="12.38548"><ele>770.0</ele><time>2026-04-17T09:15:57.518Z</time></trkpt><trkpt lat="46.4444717" lon="12.3855717"><ele>769.75</ele><time>2026-04-17T09:15:58.518Z</time></trkpt><trkpt lat="46.4445883" lon="12.38566"><ele>769.5</ele><time>2026-04-17T09:15:59.52Z</time></trkpt><trkpt lat="46.4447017" lon="12.3857483"><ele>769.25</ele><time>2026-04-17T09:16:00.518Z</time></trkpt><trkpt lat="46.4448167" lon="12.3858283"><ele>769.0</ele><time>2026-04-17T09:16:01.523Z</time></trkpt><trkpt lat="46.4449317" lon="12.3858967"><ele>768.0</ele><time>2026-04-17T09:16:02.518Z</time></trkpt><trkpt lat="46.4450517" lon="12.38595"><ele>767.0</ele><time>2026-04-17T09:16:03.518Z</time></trkpt><trkpt lat="46.445175" lon="12.3859917"><ele>766.0</ele><time>2026-04-17T09:16:04.518Z</time></trkpt><trkpt lat="46.4453017" lon="12.386025"><ele>765.0</ele><time>2026-04-17T09:16:05.519Z</time></trkpt><trkpt lat="46.4454317" lon="12.3860617"><ele>765.25</ele><time>2026-04-17T09:16:06.517Z</time></trkpt><trkpt lat="46.4455583" lon="12.3861033"><ele>765.5</ele><time>2026-04-17T09:16:07.519Z</time></trkpt><trkpt lat="46.4456767" lon="12.3861483"><ele>765.75</ele><time>2026-04-17T09:16:08.518Z</time></trkpt><trkpt lat="46.4457867" lon="12.38621"><ele>766.0</ele><time>2026-04-17T09:16:09.518Z</time></trkpt><trkpt lat="46.4458867" lon="12.386295"><ele>763.75</ele><time>2026-04-17T09:16:10.519Z</time></trkpt><trkpt lat="46.445975" lon="12.3864"><ele>761.5</ele><time>2026-04-17T09:16:11.518Z</time></trkpt><trkpt lat="46.446055" lon="12.3865233"><ele>759.25</ele><time>2026-04-17T09:16:12.518Z</time></trkpt><trkpt lat="46.4461233" lon="12.3866567"><ele>757.0</ele><time>2026-04-17T09:16:13.519Z</time></trkpt><trkpt lat="46.446185" lon="12.3867917"><ele>757.0</ele><time>2026-04-17T09:16:14.518Z</time></trkpt><trkpt lat="46.4462483" lon="12.386925"><ele>757.0</ele><time>2026-04-17T09:16:15.518Z</time></trkpt><trkpt lat="46.44631" lon="12.3870517"><ele>757.0</ele><time>2026-04-17T09:16:16.52Z</time></trkpt><trkpt lat="46.4463717" lon="12.3871783"><ele>757.0</ele><time>2026-04-17T09:16:17.519Z</time></trkpt><trkpt lat="46.44643" lon="12.3873017"><ele>757.0</ele><time>2026-04-17T09:16:18.519Z</time></trkpt><trkpt lat="46.446485" lon="12.3874133"><ele>756.6</ele><time>2026-04-17T09:16:19.519Z</time></trkpt><trkpt lat="46.44654" lon="12.3875067"><ele>756.2</ele><time>2026-04-17T09:16:20.518Z</time></trkpt><trkpt lat="46.4466033" lon="12.3875867"><ele>755.8</ele><time>2026-04-17T09:16:21.518Z</time></trkpt><trkpt lat="46.4466767" lon="12.3876467"><ele>755.4</ele><time>2026-04-17T09:16:22.518Z</time></trkpt><trkpt lat="46.4467683" lon="12.3876917"><ele>755.0</ele><time>2026-04-17T09:16:23.52Z</time></trkpt><trkpt lat="46.44687" lon="12.387725"><ele>755.0</ele><time>2026-04-17T09:16:24.518Z</time></trkpt><trkpt lat="46.4469783" lon="12.3877467"><ele>755.0</ele><time>2026-04-17T09:16:25.518Z</time></trkpt><trkpt lat="46.4471017" lon="12.387755"><ele>755.0</ele><time>2026-04-17T09:16:26.521Z</time></trkpt><trkpt lat="46.447235" lon="12.3877567"><ele>755.0</ele><time>2026-04-17T09:16:27.518Z</time></trkpt><trkpt lat="46.44738" lon="12.387755"><ele>755.75</ele><time>2026-04-17T09:16:28.519Z</time></trkpt><trkpt lat="46.44753" lon="12.3877467"><ele>756.5</ele><time>2026-04-17T09:16:29.519Z</time></trkpt><trkpt lat="46.447675" lon="12.387735"><ele>757.25</ele><time>2026-04-17T09:16:30.518Z</time></trkpt><trkpt lat="46.4478117" lon="12.38772"><ele>758.0</ele><time>2026-04-17T09:16:31.518Z</time></trkpt><trkpt lat="46.4479333" lon="12.3877033"><ele>756.0</ele><time>2026-04-17T09:16:32.52Z</time></trkpt><trkpt lat="46.448045" lon="12.3876817"><ele>754.0</ele><time>2026-04-17T09:16:33.518Z</time></trkpt><trkpt lat="46.4481517" lon="12.3876417"><ele>752.0</ele><time>2026-04-17T09:16:34.518Z</time></trkpt><trkpt lat="46.4482467" lon="12.3875867"><ele>750.0</ele><time>2026-04-17T09:16:35.518Z</time></trkpt><trkpt lat="46.4483417" lon="12.3875333"><ele>748.0</ele><time>2026-04-17T09:16:36.519Z</time></trkpt><trkpt lat="46.4484383" lon="12.3875083"><ele>748.0</ele><time>2026-04-17T09:16:37.52Z</time></trkpt><trkpt lat="46.4485333" lon="12.3875283"><ele>748.0</ele><time>2026-04-17T09:16:38.52Z</time></trkpt><trkpt lat="46.4486333" lon="12.3875733"><ele>748.0</ele><time>2026-04-17T09:16:39.518Z</time></trkpt><trkpt lat="46.4487267" lon="12.3876383"><ele>748.0</ele><time>2026-04-17T09:16:40.518Z</time></trkpt><trkpt lat="46.4488133" lon="12.3877217"><ele>748.0</ele><time>2026-04-17T09:16:41.521Z</time></trkpt><trkpt lat="46.4488933" lon="12.3878267"><ele>748.5999999999999</ele><time>2026-04-17T09:16:42.517Z</time></trkpt><trkpt lat="46.4489617" lon="12.387945"><ele>749.1999999999999</ele><time>2026-04-17T09:16:43.521Z</time></trkpt><trkpt lat="46.4490167" lon="12.388075"><ele>749.8</ele><time>2026-04-17T09:16:44.519Z</time></trkpt><trkpt lat="46.4490483" lon="12.3882217"><ele>750.4</ele><time>2026-04-17T09:16:45.518Z</time></trkpt><trkpt lat="46.4490533" lon="12.3883817"><ele>751.0</ele><time>2026-04-17T09:16:46.517Z</time></trkpt><trkpt lat="46.4490367" lon="12.3885333"><ele>751.0</ele><time>2026-04-17T09:16:47.518Z</time></trkpt><trkpt lat="46.448995" lon="12.38867"><ele>751.0</ele><time>2026-04-17T09:16:48.518Z</time></trkpt><trkpt lat="46.4489317" lon="12.3887933"><ele>751.0</ele><time>2026-04-17T09:16:49.518Z</time></trkpt><trkpt lat="46.448845" lon="12.3888983"><ele>751.0</ele><time>2026-04-17T09:16:50.519Z</time></trkpt><trkpt lat="46.4487483" lon="12.388995"><ele>751.0</ele><time>2026-04-17T09:16:51.518Z</time></trkpt><trkpt lat="46.448645" lon="12.3890917"><ele>749.0</ele><time>2026-04-17T09:16:52.519Z</time></trkpt><trkpt lat="46.4485483" lon="12.3892017"><ele>747.0</ele><time>2026-04-17T09:16:53.519Z</time></trkpt><trkpt lat="46.4484567" lon="12.389325"><ele>745.0</ele><time>2026-04-17T09:16:54.518Z</time></trkpt><trkpt lat="46.44838" lon="12.3894717"><ele>743.0</ele><time>2026-04-17T09:16:55.517Z</time></trkpt><trkpt lat="46.4483233" lon="12.3896367"><ele>745.5</ele><time>2026-04-17T09:16:56.519Z</time></trkpt><trkpt lat="46.4482867" lon="12.3898233"><ele>748.0</ele><time>2026-04-17T09:16:57.518Z</time></trkpt><trkpt lat="46.44826" lon="12.390015"><ele>750.5</ele><time>2026-04-17T09:16:58.518Z</time></trkpt><trkpt lat="46.4482383" lon="12.3902083"><ele>753.0</ele><time>2026-04-17T09:16:59.518Z</time></trkpt><trkpt lat="46.4482133" lon="12.3904017"><ele>755.0</ele><time>2026-04-17T09:17:00.519Z</time></trkpt><trkpt lat="46.448185" lon="12.3906"><ele>757.0</ele><time>2026-04-17T09:17:01.521Z</time></trkpt><trkpt lat="46.4481567" lon="12.3907967"><ele>759.0</ele><time>2026-04-17T09:17:02.517Z</time></trkpt><trkpt lat="46.4481267" lon="12.39099"><ele>761.0</ele><time>2026-04-17T09:17:03.518Z</time></trkpt><trkpt lat="46.4481017" lon="12.3911883"><ele>760.75</ele><time>2026-04-17T09:17:04.517Z</time></trkpt><trkpt lat="46.4480867" lon="12.3913883"><ele>760.5</ele><time>2026-04-17T09:17:05.519Z</time></trkpt><trkpt lat="46.44809" lon="12.3915817"><ele>760.25</ele><time>2026-04-17T09:17:06.518Z</time></trkpt><trkpt lat="46.4481133" lon="12.39177"><ele>760.0</ele><time>2026-04-17T09:17:07.519Z</time></trkpt><trkpt lat="46.4481467" lon="12.39195"><ele>760.0</ele><time>2026-04-17T09:17:08.52Z</time></trkpt><trkpt lat="46.4481817" lon="12.3921267"><ele>760.0</ele><time>2026-04-17T09:17:09.519Z</time></trkpt><trkpt lat="46.448215" lon="12.3923017"><ele>760.0</ele><time>2026-04-17T09:17:10.518Z</time></trkpt><trkpt lat="46.44825" lon="12.3924733"><ele>760.0</ele><time>2026-04-17T09:17:11.519Z</time></trkpt><trkpt lat="46.448285" lon="12.392645"><ele>759.25</ele><time>2026-04-17T09:17:12.519Z</time></trkpt><trkpt lat="46.4483217" lon="12.3928217"><ele>758.5</ele><time>2026-04-17T09:17:13.52Z</time></trkpt><trkpt lat="46.4483583" lon="12.393"><ele>757.75</ele><time>2026-04-17T09:17:14.52Z</time></trkpt><trkpt lat="46.4483967" lon="12.393185"><ele>757.0</ele><time>2026-04-17T09:17:15.518Z</time></trkpt><trkpt lat="46.4484317" lon="12.39337"><ele>755.75</ele><time>2026-04-17T09:17:16.518Z</time></trkpt><trkpt lat="46.4484633" lon="12.39355"><ele>754.5</ele><time>2026-04-17T09:17:17.518Z</time></trkpt><trkpt lat="46.4484933" lon="12.3937217"><ele>753.25</ele><time>2026-04-17T09:17:18.518Z</time></trkpt><trkpt lat="46.4485233" lon="12.3938783"><ele>752.0</ele><time>2026-04-17T09:17:19.52Z</time></trkpt><trkpt lat="46.4485517" lon="12.39402"><ele>751.3333333333333</ele><time>2026-04-17T09:17:20.52Z</time></trkpt><trkpt lat="46.4485767" lon="12.3941467"><ele>750.6666666666666</ele><time>2026-04-17T09:17:21.518Z</time></trkpt><trkpt lat="46.4486" lon="12.3942633"><ele>750.0</ele><time>2026-04-17T09:17:22.518Z</time></trkpt><trkpt lat="46.44862" lon="12.394375"><ele>749.3333333333334</ele><time>2026-04-17T09:17:23.518Z</time></trkpt><trkpt lat="46.448655" lon="12.39448"><ele>748.6666666666667</ele><time>2026-04-17T09:17:24.518Z</time></trkpt><trkpt lat="46.4486583" lon="12.3945933"><ele>748.0</ele><time>2026-04-17T09:17:25.518Z</time></trkpt><trkpt lat="46.448675" lon="12.3946867"><ele>746.6666666666667</ele><time>2026-04-17T09:17:26.519Z</time></trkpt><trkpt lat="46.4487017" lon="12.3947967"><ele>745.3333333333334</ele><time>2026-04-17T09:17:28.517Z</time></trkpt><trkpt lat="46.4487217" lon="12.3948983"><ele>744.0</ele><time>2026-04-17T09:17:42.518Z</time></trkpt><trkpt lat="46.448755" lon="12.3950683"><ele>742.6666666666666</ele><time>2026-04-17T09:17:44.519Z</time></trkpt><trkpt lat="46.4487767" lon="12.3951683"><ele>741.3333333333333</ele><time>2026-04-17T09:17:45.518Z</time></trkpt><trkpt lat="46.4487967" lon="12.39528"><ele>740.0</ele><time>2026-04-17T09:17:46.518Z</time></trkpt><trkpt lat="46.4488217" lon="12.3954017"><ele>742.4</ele><time>2026-04-17T09:17:47.519Z</time></trkpt><trkpt lat="46.4488483" lon="12.3955267"><ele>744.8</ele><time>2026-04-17T09:17:48.518Z</time></trkpt><trkpt lat="46.448875" lon="12.395665"><ele>747.2</ele><time>2026-04-17T09:17:49.518Z</time></trkpt><trkpt lat="46.4489117" lon="12.3958083"><ele>749.6</ele><time>2026-04-17T09:17:50.518Z</time></trkpt><trkpt lat="46.4489417" lon="12.3959667"><ele>752.0</ele><time>2026-04-17T09:17:51.517Z</time></trkpt><trkpt lat="46.4489667" lon="12.3961333"><ele>752.0</ele><time>2026-04-17T09:17:52.519Z</time></trkpt><trkpt lat="46.4490033" lon="12.3962967"><ele>752.0</ele><time>2026-04-17T09:17:53.519Z</time></trkpt><trkpt lat="46.44906" lon="12.39645"><ele>752.0</ele><time>2026-04-17T09:17:54.519Z</time></trkpt><trkpt lat="46.4491267" lon="12.3966"><ele>752.0</ele><time>2026-04-17T09:17:55.52Z</time></trkpt><trkpt lat="46.4492117" lon="12.396745"><ele>752.75</ele><time>2026-04-17T09:17:56.519Z</time></trkpt><trkpt lat="46.4493217" lon="12.39686"><ele>753.5</ele><time>2026-04-17T09:17:57.518Z</time></trkpt><trkpt lat="46.449445" lon="12.3969583"><ele>754.25</ele><time>2026-04-17T09:17:58.518Z</time></trkpt><trkpt lat="46.44957" lon="12.397045"><ele>755.0</ele><time>2026-04-17T09:17:59.519Z</time></trkpt><trkpt lat="46.44969" lon="12.3971417"><ele>751.25</ele><time>2026-04-17T09:18:00.519Z</time></trkpt><trkpt lat="46.4498133" lon="12.3972367"><ele>747.5</ele><time>2026-04-17T09:18:01.518Z</time></trkpt><trkpt lat="46.4499383" lon="12.39733"><ele>743.75</ele><time>2026-04-17T09:18:02.522Z</time></trkpt><trkpt lat="46.4500633" lon="12.397415"><ele>740.0</ele><time>2026-04-17T09:18:03.517Z</time></trkpt><trkpt lat="46.450195" lon="12.3974917"><ele>740.0</ele><time>2026-04-17T09:18:04.519Z</time></trkpt><trkpt lat="46.4503283" lon="12.3975617"><ele>740.0</ele><time>2026-04-17T09:18:05.522Z</time></trkpt><trkpt lat="46.450465" lon="12.39763"><ele>740.0</ele><time>2026-04-17T09:18:06.518Z</time></trkpt><trkpt lat="46.4505967" lon="12.3977033"><ele>740.0</ele><time>2026-04-17T09:18:07.522Z</time></trkpt><trkpt lat="46.4507217" lon="12.3977917"><ele>738.5</ele><time>2026-04-17T09:18:08.521Z</time></trkpt><trkpt lat="46.4508333" lon="12.3978967"><ele>737.0</ele><time>2026-04-17T09:18:09.518Z</time></trkpt><trkpt lat="46.4509317" lon="12.3980183"><ele>735.5</ele><time>2026-04-17T09:18:10.519Z</time></trkpt><trkpt lat="46.4510217" lon="12.3981617"><ele>734.0</ele><time>2026-04-17T09:18:11.519Z</time></trkpt><trkpt lat="46.4511017" lon="12.3983117"><ele>734.0</ele><time>2026-04-17T09:18:12.518Z</time></trkpt><trkpt lat="46.4511767" lon="12.3984583"><ele>734.0</ele><time>2026-04-17T09:18:13.52Z</time></trkpt><trkpt lat="46.4512517" lon="12.3986017"><ele>734.0</ele><time>2026-04-17T09:18:14.519Z</time></trkpt><trkpt lat="46.4513367" lon="12.39873"><ele>734.0</ele><time>2026-04-17T09:18:15.518Z</time></trkpt><trkpt lat="46.45143" lon="12.3988383"><ele>735.0</ele><time>2026-04-17T09:18:16.519Z</time></trkpt><trkpt lat="46.451525" lon="12.3989267"><ele>736.0</ele><time>2026-04-17T09:18:17.519Z</time></trkpt><trkpt lat="46.4516183" lon="12.399005"><ele>737.0</ele><time>2026-04-17T09:18:18.523Z</time></trkpt><trkpt lat="46.4517117" lon="12.39907"><ele>738.0</ele><time>2026-04-17T09:18:19.518Z</time></trkpt><trkpt lat="46.4518017" lon="12.3991383"><ele>739.0</ele><time>2026-04-17T09:18:20.52Z</time></trkpt><trkpt lat="46.451895" lon="12.3992033"><ele>739.0</ele><time>2026-04-17T09:18:21.519Z</time></trkpt><trkpt lat="46.45199" lon="12.3992567"><ele>739.0</ele><time>2026-04-17T09:18:22.518Z</time></trkpt><trkpt lat="46.4520867" lon="12.3992867"><ele>739.0</ele><time>2026-04-17T09:18:23.519Z</time></trkpt><trkpt lat="46.4521817" lon="12.399295"><ele>739.0</ele><time>2026-04-17T09:18:24.519Z</time></trkpt><trkpt lat="46.4522733" lon="12.3992533"><ele>739.0</ele><time>2026-04-17T09:18:25.519Z</time></trkpt><trkpt lat="46.4523583" lon="12.3991517"><ele>740.0</ele><time>2026-04-17T09:18:26.52Z</time></trkpt><trkpt lat="46.4524517" lon="12.399055"><ele>741.0</ele><time>2026-04-17T09:18:27.519Z</time></trkpt><trkpt lat="46.4525483" lon="12.39902"><ele>742.0</ele><time>2026-04-17T09:18:28.518Z</time></trkpt><trkpt lat="46.452645" lon="12.3990333"><ele>743.0</ele><time>2026-04-17T09:18:29.52Z</time></trkpt><trkpt lat="46.4527383" lon="12.3990767"><ele>744.0</ele><time>2026-04-17T09:18:30.519Z</time></trkpt><trkpt lat="46.4528133" lon="12.3991717"><ele>744.0</ele><time>2026-04-17T09:18:31.519Z</time></trkpt><trkpt lat="46.4528883" lon="12.3992667"><ele>744.0</ele><time>2026-04-17T09:18:32.519Z</time></trkpt><trkpt lat="46.4529683" lon="12.399375"><ele>744.0</ele><time>2026-04-17T09:18:33.519Z</time></trkpt><trkpt lat="46.453015" lon="12.3995133"><ele>744.0</ele><time>2026-04-17T09:18:34.519Z</time></trkpt><trkpt lat="46.4530883" lon="12.3996367"><ele>744.0</ele><time>2026-04-17T09:18:35.519Z</time></trkpt><trkpt lat="46.4531567" lon="12.3997733"><ele>746.75</ele><time>2026-04-17T09:18:36.518Z</time></trkpt><trkpt lat="46.4531833" lon="12.39993"><ele>749.5</ele><time>2026-04-17T09:18:37.519Z</time></trkpt><trkpt lat="46.4531933" lon="12.4000967"><ele>752.25</ele><time>2026-04-17T09:18:38.521Z</time></trkpt><trkpt lat="46.4531767" lon="12.4002767"><ele>755.0</ele><time>2026-04-17T09:18:39.519Z</time></trkpt><trkpt lat="46.4531733" lon="12.4004567"><ele>755.25</ele><time>2026-04-17T09:18:40.518Z</time></trkpt><trkpt lat="46.45316" lon="12.400645"><ele>755.5</ele><time>2026-04-17T09:18:41.519Z</time></trkpt><trkpt lat="46.4531383" lon="12.4008433"><ele>755.75</ele><time>2026-04-17T09:18:42.519Z</time></trkpt><trkpt lat="46.4531433" lon="12.4010433"><ele>756.0</ele><time>2026-04-17T09:18:43.518Z</time></trkpt><trkpt lat="46.4531633" lon="12.4012417"><ele>755.0</ele><time>2026-04-17T09:18:44.52Z</time></trkpt><trkpt lat="46.453225" lon="12.40144"><ele>754.0</ele><time>2026-04-17T09:18:45.518Z</time></trkpt><trkpt lat="46.4532333" lon="12.4016367"><ele>753.0</ele><time>2026-04-17T09:18:46.519Z</time></trkpt><trkpt lat="46.4532267" lon="12.4018317"><ele>752.0</ele><time>2026-04-17T09:18:47.518Z</time></trkpt><trkpt lat="46.4532233" lon="12.40202"><ele>753.25</ele><time>2026-04-17T09:18:48.518Z</time></trkpt><trkpt lat="46.4532083" lon="12.40221"><ele>754.5</ele><time>2026-04-17T09:18:49.518Z</time></trkpt><trkpt lat="46.453175" lon="12.4024"><ele>755.75</ele><time>2026-04-17T09:18:50.518Z</time></trkpt><trkpt lat="46.4531533" lon="12.4025883"><ele>757.0</ele><time>2026-04-17T09:18:51.518Z</time></trkpt><trkpt lat="46.4531267" lon="12.402775"><ele>757.0</ele><time>2026-04-17T09:18:52.518Z</time></trkpt><trkpt lat="46.4531083" lon="12.4029617"><ele>757.0</ele><time>2026-04-17T09:18:53.518Z</time></trkpt><trkpt lat="46.453105" lon="12.4031417"><ele>757.0</ele><time>2026-04-17T09:18:54.518Z</time></trkpt><trkpt lat="46.4531117" lon="12.403325"><ele>757.0</ele><time>2026-04-17T09:18:55.519Z</time></trkpt><trkpt lat="46.4531233" lon="12.40351"><ele>757.75</ele><time>2026-04-17T09:18:56.52Z</time></trkpt><trkpt lat="46.4531367" lon="12.4037033"><ele>758.5</ele><time>2026-04-17T09:18:57.518Z</time></trkpt><trkpt lat="46.453175" lon="12.40389"><ele>759.25</ele><time>2026-04-17T09:18:58.522Z</time></trkpt><trkpt lat="46.4532317" lon="12.40408"><ele>760.0</ele><time>2026-04-17T09:18:59.518Z</time></trkpt><trkpt lat="46.4533133" lon="12.404255"><ele>760.0</ele><time>2026-04-17T09:19:00.517Z</time></trkpt><trkpt lat="46.4534217" lon="12.40441"><ele>760.0</ele><time>2026-04-17T09:19:01.518Z</time></trkpt><trkpt lat="46.4535367" lon="12.40456"><ele>760.0</ele><time>2026-04-17T09:19:02.518Z</time></trkpt><trkpt lat="46.4536617" lon="12.4047033"><ele>760.0</ele><time>2026-04-17T09:19:03.517Z</time></trkpt><trkpt lat="46.4537933" lon="12.4048333"><ele>760.0</ele><time>2026-04-17T09:19:04.518Z</time></trkpt><trkpt lat="46.453925" lon="12.4049467"><ele>760.0</ele><time>2026-04-17T09:19:05.518Z</time></trkpt><trkpt lat="46.454065" lon="12.40504"><ele>760.0</ele><time>2026-04-17T09:19:06.519Z</time></trkpt><trkpt lat="46.4542017" lon="12.40513"><ele>760.0</ele><time>2026-04-17T09:19:07.521Z</time></trkpt><trkpt lat="46.45434" lon="12.405215"><ele>760.0</ele><time>2026-04-17T09:19:08.519Z</time></trkpt><trkpt lat="46.4544817" lon="12.4053067"><ele>760.0</ele><time>2026-04-17T09:19:09.518Z</time></trkpt><trkpt lat="46.4546167" lon="12.40541"><ele>760.0</ele><time>2026-04-17T09:19:10.519Z</time></trkpt><trkpt lat="46.4547467" lon="12.4055333"><ele>760.0</ele><time>2026-04-17T09:19:11.518Z</time></trkpt><trkpt lat="46.4548617" lon="12.40568"><ele>758.3333333333334</ele><time>2026-04-17T09:19:12.518Z</time></trkpt><trkpt lat="46.45496" lon="12.4058483"><ele>756.6666666666666</ele><time>2026-04-17T09:19:13.518Z</time></trkpt><trkpt lat="46.4550517" lon="12.4060317"><ele>755.0</ele><time>2026-04-17T09:19:14.518Z</time></trkpt><trkpt lat="46.4551367" lon="12.4062233"><ele>753.3333333333333</ele><time>2026-04-17T09:19:15.518Z</time></trkpt><trkpt lat="46.4552217" lon="12.4064217"><ele>751.6666666666666</ele><time>2026-04-17T09:19:16.518Z</time></trkpt><trkpt lat="46.4553117" lon="12.4066217"><ele>750.0</ele><time>2026-04-17T09:19:17.518Z</time></trkpt><trkpt lat="46.455405" lon="12.4068183"><ele>751.3333333333334</ele><time>2026-04-17T09:19:18.518Z</time></trkpt><trkpt lat="46.4555083" lon="12.4070067"><ele>752.6666666666667</ele><time>2026-04-17T09:19:19.518Z</time></trkpt><trkpt lat="46.4556183" lon="12.4071867"><ele>754.0</ele><time>2026-04-17T09:19:20.519Z</time></trkpt><trkpt lat="46.4557267" lon="12.4073633"><ele>754.0</ele><time>2026-04-17T09:19:21.517Z</time></trkpt><trkpt lat="46.4558367" lon="12.4075317"><ele>754.0</ele><time>2026-04-17T09:19:22.518Z</time></trkpt><trkpt lat="46.4559467" lon="12.4077017"><ele>754.0</ele><time>2026-04-17T09:19:23.518Z</time></trkpt><trkpt lat="46.45606" lon="12.4078633"><ele>755.6666666666667</ele><time>2026-04-17T09:19:24.518Z</time></trkpt><trkpt lat="46.4561783" lon="12.4080167"><ele>757.3333333333334</ele><time>2026-04-17T09:19:25.523Z</time></trkpt><trkpt lat="46.4563033" lon="12.4081567"><ele>759.0</ele><time>2026-04-17T09:19:26.518Z</time></trkpt><trkpt lat="46.4564283" lon="12.4082917"><ele>759.0</ele><time>2026-04-17T09:19:27.518Z</time></trkpt><trkpt lat="46.4565517" lon="12.408425"><ele>759.0</ele><time>2026-04-17T09:19:28.518Z</time></trkpt><trkpt lat="46.4566717" lon="12.40856"><ele>759.0</ele><time>2026-04-17T09:19:29.518Z</time></trkpt><trkpt lat="46.4567883" lon="12.4086967"><ele>759.0</ele><time>2026-04-17T09:19:30.517Z</time></trkpt><trkpt lat="46.45691" lon="12.408835"><ele>759.0</ele><time>2026-04-17T09:19:31.518Z</time></trkpt><trkpt lat="46.45703" lon="12.40897"><ele>759.0</ele><time>2026-04-17T09:19:32.518Z</time></trkpt><trkpt lat="46.4571467" lon="12.409105"><ele>759.0</ele><time>2026-04-17T09:19:33.518Z</time></trkpt><trkpt lat="46.4572667" lon="12.4092383"><ele>759.0</ele><time>2026-04-17T09:19:34.52Z</time></trkpt><trkpt lat="46.4573867" lon="12.40938"><ele>759.0</ele><time>2026-04-17T09:19:35.517Z</time></trkpt><trkpt lat="46.4575017" lon="12.4095283"><ele>758.0</ele><time>2026-04-17T09:19:36.518Z</time></trkpt><trkpt lat="46.457605" lon="12.40968"><ele>757.0</ele><time>2026-04-17T09:19:37.52Z</time></trkpt><trkpt lat="46.4577067" lon="12.4098417"><ele>756.0</ele><time>2026-04-17T09:19:38.519Z</time></trkpt><trkpt lat="46.4578017" lon="12.4100067"><ele>755.0</ele><time>2026-04-17T09:19:39.518Z</time></trkpt><trkpt lat="46.457895" lon="12.41017"><ele>756.5</ele><time>2026-04-17T09:19:40.518Z</time></trkpt><trkpt lat="46.4579867" lon="12.4103283"><ele>758.0</ele><time>2026-04-17T09:19:41.518Z</time></trkpt><trkpt lat="46.458075" lon="12.41048"><ele>759.5</ele><time>2026-04-17T09:19:42.518Z</time></trkpt><trkpt lat="46.458165" lon="12.4106333"><ele>761.0</ele><time>2026-04-17T09:19:43.518Z</time></trkpt><trkpt lat="46.4582567" lon="12.4107917"><ele>761.0</ele><time>2026-04-17T09:19:44.518Z</time></trkpt><trkpt lat="46.4583483" lon="12.410955"><ele>761.0</ele><time>2026-04-17T09:19:45.518Z</time></trkpt><trkpt lat="46.4584433" lon="12.41111"><ele>761.0</ele><time>2026-04-17T09:19:46.518Z</time></trkpt><trkpt lat="46.4585317" lon="12.4112683"><ele>761.0</ele><time>2026-04-17T09:19:47.518Z</time></trkpt><trkpt lat="46.4586183" lon="12.4114367"><ele>760.0</ele><time>2026-04-17T09:19:48.518Z</time></trkpt><trkpt lat="46.4587117" lon="12.411595"><ele>759.0</ele><time>2026-04-17T09:19:49.522Z</time></trkpt><trkpt lat="46.4588067" lon="12.411755"><ele>758.0</ele><time>2026-04-17T09:19:50.519Z</time></trkpt><trkpt lat="46.458895" lon="12.4119117"><ele>757.0</ele><time>2026-04-17T09:19:51.518Z</time></trkpt><trkpt lat="46.4589767" lon="12.4120683"><ele>760.0</ele><time>2026-04-17T09:19:52.518Z</time></trkpt><trkpt lat="46.4590533" lon="12.41222"><ele>763.0</ele><time>2026-04-17T09:19:53.518Z</time></trkpt><trkpt lat="46.4591433" lon="12.4123667"><ele>766.0</ele><time>2026-04-17T09:19:54.518Z</time></trkpt><trkpt lat="46.4591917" lon="12.4125317"><ele>769.0</ele><time>2026-04-17T09:19:55.518Z</time></trkpt><trkpt lat="46.4592217" lon="12.4127033"><ele>769.0</ele><time>2026-04-17T09:19:56.519Z</time></trkpt><trkpt lat="46.459235" lon="12.4128783"><ele>769.0</ele><time>2026-04-17T09:19:57.518Z</time></trkpt><trkpt lat="46.4592217" lon="12.4130633"><ele>769.0</ele><time>2026-04-17T09:19:58.518Z</time></trkpt><trkpt lat="46.4592217" lon="12.413245"><ele>769.0</ele><time>2026-04-17T09:19:59.518Z</time></trkpt><trkpt lat="46.4592317" lon="12.4134217"><ele>768.5</ele><time>2026-04-17T09:20:00.518Z</time></trkpt><trkpt lat="46.45928" lon="12.4135917"><ele>768.0</ele><time>2026-04-17T09:20:01.518Z</time></trkpt><trkpt lat="46.459325" lon="12.4137633"><ele>767.5</ele><time>2026-04-17T09:20:02.519Z</time></trkpt><trkpt lat="46.45938" lon="12.4139133"><ele>767.0</ele><time>2026-04-17T09:20:03.518Z</time></trkpt><trkpt lat="46.4594283" lon="12.4140667"><ele>767.0</ele><time>2026-04-17T09:20:04.518Z</time></trkpt><trkpt lat="46.459475" lon="12.414215"><ele>767.0</ele><time>2026-04-17T09:20:05.518Z</time></trkpt><trkpt lat="46.4595217" lon="12.4143617"><ele>767.0</ele><time>2026-04-17T09:20:06.518Z</time></trkpt><trkpt lat="46.4595717" lon="12.4145017"><ele>767.0</ele><time>2026-04-17T09:20:07.52Z</time></trkpt><trkpt lat="46.45962" lon="12.4146417"><ele>767.0</ele><time>2026-04-17T09:20:08.518Z</time></trkpt><trkpt lat="46.459675" lon="12.4147817"><ele>768.5</ele><time>2026-04-17T09:20:09.518Z</time></trkpt><trkpt lat="46.459735" lon="12.4149267"><ele>770.0</ele><time>2026-04-17T09:20:10.517Z</time></trkpt><trkpt lat="46.45979" lon="12.4150833"><ele>771.5</ele><time>2026-04-17T09:20:11.518Z</time></trkpt><trkpt lat="46.4598367" lon="12.4152417"><ele>773.0</ele><time>2026-04-17T09:20:12.521Z</time></trkpt><trkpt lat="46.4598867" lon="12.4153867"><ele>773.2</ele><time>2026-04-17T09:20:13.518Z</time></trkpt><trkpt lat="46.45994" lon="12.4155267"><ele>773.4</ele><time>2026-04-17T09:20:14.518Z</time></trkpt><trkpt lat="46.4599817" lon="12.4156733"><ele>773.6</ele><time>2026-04-17T09:20:15.518Z</time></trkpt><trkpt lat="46.4600067" lon="12.4158333"><ele>773.8000000000001</ele><time>2026-04-17T09:20:16.519Z</time></trkpt><trkpt lat="46.46006" lon="12.4159683"><ele>774.0</ele><time>2026-04-17T09:20:17.518Z</time></trkpt><trkpt lat="46.460115" lon="12.41609"><ele>774.0</ele><time>2026-04-17T09:20:18.517Z</time></trkpt><trkpt lat="46.4601883" lon="12.4162033"><ele>774.0</ele><time>2026-04-17T09:20:19.518Z</time></trkpt><trkpt lat="46.460255" lon="12.4163217"><ele>774.0</ele><time>2026-04-17T09:20:20.517Z</time></trkpt><trkpt lat="46.4603333" lon="12.41643"><ele>774.0</ele><time>2026-04-17T09:20:21.518Z</time></trkpt><trkpt lat="46.4604217" lon="12.4165317"><ele>774.0</ele><time>2026-04-17T09:20:22.518Z</time></trkpt><trkpt lat="46.4605133" lon="12.416635"><ele>775.0</ele><time>2026-04-17T09:20:23.518Z</time></trkpt><trkpt lat="46.4606033" lon="12.4167517"><ele>776.0</ele><time>2026-04-17T09:20:24.518Z</time></trkpt><trkpt lat="46.4607033" lon="12.4168617"><ele>777.0</ele><time>2026-04-17T09:20:25.519Z</time></trkpt><trkpt lat="46.4608033" lon="12.4169683"><ele>778.0</ele><time>2026-04-17T09:20:26.519Z</time></trkpt><trkpt lat="46.4608883" lon="12.4170967"><ele>776.25</ele><time>2026-04-17T09:20:27.518Z</time></trkpt><trkpt lat="46.4609883" lon="12.4172083"><ele>774.5</ele><time>2026-04-17T09:20:28.517Z</time></trkpt><trkpt lat="46.461085" lon="12.4173317"><ele>772.75</ele><time>2026-04-17T09:20:29.518Z</time></trkpt><trkpt lat="46.461175" lon="12.417465"><ele>771.0</ele><time>2026-04-17T09:20:30.518Z</time></trkpt><trkpt lat="46.4612567" lon="12.4176117"><ele>771.25</ele><time>2026-04-17T09:20:31.518Z</time></trkpt><trkpt lat="46.46133" lon="12.4177717"><ele>771.5</ele><time>2026-04-17T09:20:32.519Z</time></trkpt><trkpt lat="46.4613983" lon="12.4179417"><ele>771.75</ele><time>2026-04-17T09:20:33.518Z</time></trkpt><trkpt lat="46.4614683" lon="12.4181167"><ele>772.0</ele><time>2026-04-17T09:20:34.52Z</time></trkpt><trkpt lat="46.4615333" lon="12.4182917"><ele>772.0</ele><time>2026-04-17T09:20:35.519Z</time></trkpt><trkpt lat="46.4615967" lon="12.41847"><ele>772.0</ele><time>2026-04-17T09:20:36.52Z</time></trkpt><trkpt lat="46.461675" lon="12.4186433"><ele>772.0</ele><time>2026-04-17T09:20:37.519Z</time></trkpt><trkpt lat="46.4617567" lon="12.4188167"><ele>772.0</ele><time>2026-04-17T09:20:38.518Z</time></trkpt><trkpt lat="46.4618383" lon="12.4189883"><ele>771.5</ele><time>2026-04-17T09:20:39.518Z</time></trkpt><trkpt lat="46.4619133" lon="12.4191633"><ele>771.0</ele><time>2026-04-17T09:20:40.518Z</time></trkpt><trkpt lat="46.4619833" lon="12.4193417"><ele>770.5</ele><time>2026-04-17T09:20:41.522Z</time></trkpt><trkpt lat="46.4620467" lon="12.41952"><ele>770.0</ele><time>2026-04-17T09:20:42.518Z</time></trkpt><trkpt lat="46.4621083" lon="12.419705"><ele>772.0</ele><time>2026-04-17T09:20:43.518Z</time></trkpt><trkpt lat="46.46218" lon="12.419885"><ele>774.0</ele><time>2026-04-17T09:20:44.523Z</time></trkpt><trkpt lat="46.4622583" lon="12.4200583"><ele>776.0</ele><time>2026-04-17T09:20:45.518Z</time></trkpt><trkpt lat="46.462345" lon="12.420205"><ele>778.0</ele><time>2026-04-17T09:20:46.523Z</time></trkpt><trkpt lat="46.462435" lon="12.42033"><ele>778.0</ele><time>2026-04-17T09:20:47.518Z</time></trkpt><trkpt lat="46.4625267" lon="12.420445"><ele>778.0</ele><time>2026-04-17T09:20:48.518Z</time></trkpt><trkpt lat="46.4626183" lon="12.420555"><ele>778.0</ele><time>2026-04-17T09:20:49.52Z</time></trkpt><trkpt lat="46.462705" lon="12.42066"><ele>778.0</ele><time>2026-04-17T09:20:50.519Z</time></trkpt><trkpt lat="46.46279" lon="12.420755"><ele>777.4</ele><time>2026-04-17T09:20:51.518Z</time></trkpt><trkpt lat="46.4628717" lon="12.42085"><ele>776.8</ele><time>2026-04-17T09:20:52.518Z</time></trkpt><trkpt lat="46.4629483" lon="12.42094"><ele>776.2</ele><time>2026-04-17T09:20:53.518Z</time></trkpt><trkpt lat="46.463015" lon="12.4210317"><ele>775.6</ele><time>2026-04-17T09:20:54.518Z</time></trkpt><trkpt lat="46.4630633" lon="12.42113"><ele>775.0</ele><time>2026-04-17T09:20:55.518Z</time></trkpt><trkpt lat="46.463105" lon="12.4212417"><ele>776.0</ele><time>2026-04-17T09:20:56.519Z</time></trkpt><trkpt lat="46.4631533" lon="12.4213417"><ele>777.0</ele><time>2026-04-17T09:20:57.518Z</time></trkpt><trkpt lat="46.46322" lon="12.4214233"><ele>778.0</ele><time>2026-04-17T09:20:58.518Z</time></trkpt><trkpt lat="46.4633017" lon="12.4214717"><ele>779.0</ele><time>2026-04-17T09:20:59.518Z</time></trkpt><trkpt lat="46.4633883" lon="12.4215167"><ele>780.0</ele><time>2026-04-17T09:21:00.519Z</time></trkpt><trkpt lat="46.4634783" lon="12.42158"><ele>780.0</ele><time>2026-04-17T09:21:01.518Z</time></trkpt><trkpt lat="46.463575" lon="12.4216867"><ele>780.0</ele><time>2026-04-17T09:21:02.519Z</time></trkpt><trkpt lat="46.4636767" lon="12.4218467"><ele>780.0</ele><time>2026-04-17T09:21:03.518Z</time></trkpt><trkpt lat="46.46377" lon="12.4220567"><ele>780.0</ele><time>2026-04-17T09:21:04.518Z</time></trkpt><trkpt lat="46.4638583" lon="12.4222867"><ele>785.3333333333333</ele><time>2026-04-17T09:21:05.518Z</time></trkpt><trkpt lat="46.4639433" lon="12.422495"><ele>790.6666666666666</ele><time>2026-04-17T09:21:06.518Z</time></trkpt><trkpt lat="46.4640283" lon="12.42268"><ele>796.0</ele><time>2026-04-17T09:21:07.518Z</time></trkpt><trkpt lat="46.4641167" lon="12.4228517"><ele>792.75</ele><time>2026-04-17T09:21:08.519Z</time></trkpt><trkpt lat="46.46421" lon="12.4230133"><ele>789.5</ele><time>2026-04-17T09:21:09.518Z</time></trkpt><trkpt lat="46.4643133" lon="12.42317"><ele>786.25</ele><time>2026-04-17T09:21:10.518Z</time></trkpt><trkpt lat="46.464425" lon="12.4233183"><ele>783.0</ele><time>2026-04-17T09:21:11.518Z</time></trkpt><trkpt lat="46.4645533" lon="12.423455"><ele>785.0</ele><time>2026-04-17T09:21:12.519Z</time></trkpt><trkpt lat="46.4646917" lon="12.42359"><ele>787.0</ele><time>2026-04-17T09:21:13.519Z</time></trkpt><trkpt lat="46.464835" lon="12.423725"><ele>789.0</ele><time>2026-04-17T09:21:14.519Z</time></trkpt><trkpt lat="46.4649783" lon="12.42386"><ele>789.0</ele><time>2026-04-17T09:21:15.518Z</time></trkpt><trkpt lat="46.4651233" lon="12.4239967"><ele>789.0</ele><time>2026-04-17T09:21:16.519Z</time></trkpt><trkpt lat="46.4652617" lon="12.4241467"><ele>789.0</ele><time>2026-04-17T09:21:17.519Z</time></trkpt><trkpt lat="46.4653917" lon="12.42431"><ele>791.6666666666667</ele><time>2026-04-17T09:21:18.518Z</time></trkpt><trkpt lat="46.4655133" lon="12.424485"><ele>794.3333333333334</ele><time>2026-04-17T09:21:19.519Z</time></trkpt><trkpt lat="46.4656317" lon="12.42467"><ele>797.0</ele><time>2026-04-17T09:21:20.518Z</time></trkpt><trkpt lat="46.465745" lon="12.4248667"><ele>797.0</ele><time>2026-04-17T09:21:21.517Z</time></trkpt><trkpt lat="46.4658583" lon="12.42507"><ele>797.0</ele><time>2026-04-17T09:21:22.518Z</time></trkpt><trkpt lat="46.4659733" lon="12.42527"><ele>797.0</ele><time>2026-04-17T09:21:23.519Z</time></trkpt><trkpt lat="46.4660867" lon="12.4254733"><ele>795.0</ele><time>2026-04-17T09:21:24.519Z</time></trkpt><trkpt lat="46.4661983" lon="12.42567"><ele>793.0</ele><time>2026-04-17T09:21:25.519Z</time></trkpt><trkpt lat="46.4663067" lon="12.4258683"><ele>791.0</ele><time>2026-04-17T09:21:26.517Z</time></trkpt><trkpt lat="46.4664167" lon="12.4260683"><ele>795.3333333333334</ele><time>2026-04-17T09:21:27.518Z</time></trkpt><trkpt lat="46.4665267" lon="12.42627"><ele>799.6666666666667</ele><time>2026-04-17T09:21:28.518Z</time></trkpt><trkpt lat="46.4666317" lon="12.4264633"><ele>804.0</ele><time>2026-04-17T09:21:29.518Z</time></trkpt><trkpt lat="46.466735" lon="12.4266433"><ele>804.0</ele><time>2026-04-17T09:21:30.518Z</time></trkpt><trkpt lat="46.4668367" lon="12.426805"><ele>804.0</ele><time>2026-04-17T09:21:31.52Z</time></trkpt><trkpt lat="46.46694" lon="12.42695"><ele>804.0</ele><time>2026-04-17T09:21:32.519Z</time></trkpt><trkpt lat="46.4670467" lon="12.4270883"><ele>804.0</ele><time>2026-04-17T09:21:33.519Z</time></trkpt><trkpt lat="46.4671567" lon="12.42723"><ele>806.3333333333333</ele><time>2026-04-17T09:21:34.518Z</time></trkpt><trkpt lat="46.4672683" lon="12.427375"><ele>808.6666666666666</ele><time>2026-04-17T09:21:35.517Z</time></trkpt><trkpt lat="46.4673767" lon="12.4275317"><ele>811.0</ele><time>2026-04-17T09:21:36.519Z</time></trkpt><trkpt lat="46.4674783" lon="12.427695"><ele>811.0</ele><time>2026-04-17T09:21:37.519Z</time></trkpt><trkpt lat="46.467575" lon="12.42786"><ele>811.0</ele><time>2026-04-17T09:21:38.518Z</time></trkpt><trkpt lat="46.4676667" lon="12.4280283"><ele>811.0</ele><time>2026-04-17T09:21:39.518Z</time></trkpt><trkpt lat="46.4677583" lon="12.4281933"><ele>811.0</ele><time>2026-04-17T09:21:40.518Z</time></trkpt><trkpt lat="46.4678483" lon="12.428355"><ele>811.3333333333333</ele><time>2026-04-17T09:21:41.52Z</time></trkpt><trkpt lat="46.4679383" lon="12.42852"><ele>811.6666666666667</ele><time>2026-04-17T09:21:42.518Z</time></trkpt><trkpt lat="46.4680333" lon="12.4286883"><ele>812.0</ele><time>2026-04-17T09:21:43.517Z</time></trkpt><trkpt lat="46.4681317" lon="12.4288617"><ele>812.0</ele><time>2026-04-17T09:21:44.519Z</time></trkpt><trkpt lat="46.4682333" lon="12.4290433"><ele>812.0</ele><time>2026-04-17T09:21:45.517Z</time></trkpt><trkpt lat="46.4683333" lon="12.429225"><ele>812.0</ele><time>2026-04-17T09:21:46.518Z</time></trkpt><trkpt lat="46.4684333" lon="12.4294083"><ele>812.0</ele><time>2026-04-17T09:21:47.518Z</time></trkpt><trkpt lat="46.468535" lon="12.4295883"><ele>812.0</ele><time>2026-04-17T09:21:48.518Z</time></trkpt><trkpt lat="46.468635" lon="12.4297683"><ele>812.0</ele><time>2026-04-17T09:21:49.519Z</time></trkpt><trkpt lat="46.46874" lon="12.429945"><ele>812.6666666666667</ele><time>2026-04-17T09:21:50.519Z</time></trkpt><trkpt lat="46.4688483" lon="12.4301167"><ele>813.3333333333333</ele><time>2026-04-17T09:21:51.519Z</time></trkpt><trkpt lat="46.46896" lon="12.43027"><ele>814.0</ele><time>2026-04-17T09:21:52.531Z</time></trkpt><trkpt lat="46.4690767" lon="12.4304033"><ele>810.6666666666666</ele><time>2026-04-17T09:21:53.518Z</time></trkpt><trkpt lat="46.4691967" lon="12.4305283"><ele>807.3333333333333</ele><time>2026-04-17T09:21:54.521Z</time></trkpt><trkpt lat="46.4693217" lon="12.4306567"><ele>804.0</ele><time>2026-04-17T09:21:55.517Z</time></trkpt><trkpt lat="46.469445" lon="12.4307933"><ele>804.0</ele><time>2026-04-17T09:21:56.519Z</time></trkpt><trkpt lat="46.4695633" lon="12.430945"><ele>804.0</ele><time>2026-04-17T09:21:57.518Z</time></trkpt><trkpt lat="46.469685" lon="12.4311067"><ele>804.0</ele><time>2026-04-17T09:21:58.518Z</time></trkpt><trkpt lat="46.4698083" lon="12.4312667"><ele>804.3333333333333</ele><time>2026-04-17T09:21:59.518Z</time></trkpt><trkpt lat="46.469935" lon="12.4314317"><ele>804.6666666666666</ele><time>2026-04-17T09:22:00.52Z</time></trkpt><trkpt lat="46.4700617" lon="12.431595"><ele>805.0</ele><time>2026-04-17T09:22:01.52Z</time></trkpt><trkpt lat="46.470185" lon="12.4317533"><ele>805.0</ele><time>2026-04-17T09:22:02.522Z</time></trkpt><trkpt lat="46.4703083" lon="12.431905"><ele>805.0</ele><time>2026-04-17T09:22:03.518Z</time></trkpt><trkpt lat="46.4704367" lon="12.4320367"><ele>805.0</ele><time>2026-04-17T09:22:04.519Z</time></trkpt><trkpt lat="46.4705683" lon="12.4321417"><ele>802.6666666666666</ele><time>2026-04-17T09:22:05.519Z</time></trkpt><trkpt lat="46.4707067" lon="12.43221"><ele>800.3333333333333</ele><time>2026-04-17T09:22:06.519Z</time></trkpt><trkpt lat="46.4708533" lon="12.4322483"><ele>798.0</ele><time>2026-04-17T09:22:07.518Z</time></trkpt><trkpt lat="46.4710083" lon="12.4322633"><ele>798.0</ele><time>2026-04-17T09:22:08.519Z</time></trkpt><trkpt lat="46.4711617" lon="12.4322683"><ele>798.0</ele><time>2026-04-17T09:22:09.518Z</time></trkpt><trkpt lat="46.4713167" lon="12.432265"><ele>798.0</ele><time>2026-04-17T09:22:10.518Z</time></trkpt><trkpt lat="46.4714717" lon="12.4322517"><ele>798.6666666666667</ele><time>2026-04-17T09:22:11.518Z</time></trkpt><trkpt lat="46.471625" lon="12.4322217"><ele>799.3333333333334</ele><time>2026-04-17T09:22:12.517Z</time></trkpt><trkpt lat="46.4717783" lon="12.4321783"><ele>800.0</ele><time>2026-04-17T09:22:13.519Z</time></trkpt><trkpt lat="46.4719333" lon="12.43213"><ele>800.0</ele><time>2026-04-17T09:22:14.518Z</time></trkpt><trkpt lat="46.4720883" lon="12.4320833"><ele>800.0</ele><time>2026-04-17T09:22:15.518Z</time></trkpt><trkpt lat="46.4722383" lon="12.432045"><ele>800.0</ele><time>2026-04-17T09:22:16.519Z</time></trkpt><trkpt lat="46.472385" lon="12.43202"><ele>797.75</ele><time>2026-04-17T09:22:17.52Z</time></trkpt><trkpt lat="46.47252" lon="12.432015"><ele>795.5</ele><time>2026-04-17T09:22:18.52Z</time></trkpt><trkpt lat="46.47264" lon="12.43204"><ele>793.25</ele><time>2026-04-17T09:22:19.519Z</time></trkpt><trkpt lat="46.4727533" lon="12.4320867"><ele>791.0</ele><time>2026-04-17T09:22:20.519Z</time></trkpt><trkpt lat="46.4728567" lon="12.4321583"><ele>791.25</ele><time>2026-04-17T09:22:21.518Z</time></trkpt><trkpt lat="46.4729517" lon="12.4322567"><ele>791.5</ele><time>2026-04-17T09:22:22.519Z</time></trkpt><trkpt lat="46.4730433" lon="12.4323767"><ele>791.75</ele><time>2026-04-17T09:22:23.519Z</time></trkpt><trkpt lat="46.4731317" lon="12.4325167"><ele>792.0</ele><time>2026-04-17T09:22:24.518Z</time></trkpt><trkpt lat="46.4732233" lon="12.4326717"><ele>792.0</ele><time>2026-04-17T09:22:25.519Z</time></trkpt><trkpt lat="46.47332" lon="12.43283"><ele>792.0</ele><time>2026-04-17T09:22:26.519Z</time></trkpt><trkpt lat="46.47342" lon="12.4330067"><ele>792.0</ele><time>2026-04-17T09:22:27.518Z</time></trkpt><trkpt lat="46.4735283" lon="12.43319"><ele>789.6666666666667</ele><time>2026-04-17T09:22:28.519Z</time></trkpt><trkpt lat="46.4736483" lon="12.43337"><ele>787.3333333333334</ele><time>2026-04-17T09:22:29.519Z</time></trkpt><trkpt lat="46.4737833" lon="12.433535"><ele>785.0</ele><time>2026-04-17T09:22:30.518Z</time></trkpt><trkpt lat="46.47393" lon="12.4336817"><ele>786.0</ele><time>2026-04-17T09:22:31.518Z</time></trkpt><trkpt lat="46.474075" lon="12.433815"><ele>787.0</ele><time>2026-04-17T09:22:32.518Z</time></trkpt><trkpt lat="46.4742183" lon="12.4339433"><ele>788.0</ele><time>2026-04-17T09:22:33.518Z</time></trkpt><trkpt lat="46.474355" lon="12.43407"><ele>788.0</ele><time>2026-04-17T09:22:34.518Z</time></trkpt><trkpt lat="46.47448" lon="12.4341883"><ele>788.0</ele><time>2026-04-17T09:22:35.519Z</time></trkpt><trkpt lat="46.4746017" lon="12.4343083"><ele>788.0</ele><time>2026-04-17T09:22:36.518Z</time></trkpt><trkpt lat="46.4747167" lon="12.4344367"><ele>788.0</ele><time>2026-04-17T09:22:37.518Z</time></trkpt><trkpt lat="46.4748233" lon="12.434575"><ele>788.75</ele><time>2026-04-17T09:22:38.519Z</time></trkpt><trkpt lat="46.47492" lon="12.4347217"><ele>789.5</ele><time>2026-04-17T09:22:39.518Z</time></trkpt><trkpt lat="46.47501" lon="12.43487"><ele>790.25</ele><time>2026-04-17T09:22:40.518Z</time></trkpt><trkpt lat="46.475095" lon="12.43502"><ele>791.0</ele><time>2026-04-17T09:22:41.519Z</time></trkpt><trkpt lat="46.4751817" lon="12.4351717"><ele>791.0</ele><time>2026-04-17T09:22:42.518Z</time></trkpt><trkpt lat="46.4752683" lon="12.4353267"><ele>791.0</ele><time>2026-04-17T09:22:43.519Z</time></trkpt><trkpt lat="46.4753617" lon="12.4354867"><ele>791.0</ele><time>2026-04-17T09:22:44.519Z</time></trkpt><trkpt lat="46.4754583" lon="12.435645"><ele>791.0</ele><time>2026-04-17T09:22:45.518Z</time></trkpt><trkpt lat="46.4755633" lon="12.4357967"><ele>792.6666666666667</ele><time>2026-04-17T09:22:46.518Z</time></trkpt><trkpt lat="46.4756767" lon="12.4359433"><ele>794.3333333333333</ele><time>2026-04-17T09:22:47.519Z</time></trkpt><trkpt lat="46.4757933" lon="12.4360867"><ele>796.0</ele><time>2026-04-17T09:22:48.519Z</time></trkpt><trkpt lat="46.4759167" lon="12.436225"><ele>795.0</ele><time>2026-04-17T09:22:49.52Z</time></trkpt><trkpt lat="46.476055" lon="12.4363633"><ele>794.0</ele><time>2026-04-17T09:22:50.519Z</time></trkpt><trkpt lat="46.4762133" lon="12.4365133"><ele>793.0</ele><time>2026-04-17T09:22:51.518Z</time></trkpt><trkpt lat="46.4763933" lon="12.4366883"><ele>793.0</ele><time>2026-04-17T09:22:52.523Z</time></trkpt><trkpt lat="46.4765933" lon="12.4369017"><ele>793.0</ele><time>2026-04-17T09:22:53.519Z</time></trkpt><trkpt lat="46.4768017" lon="12.43715"><ele>793.0</ele><time>2026-04-17T09:22:54.518Z</time></trkpt><trkpt lat="46.477015" lon="12.437415"><ele>793.0</ele><time>2026-04-17T09:22:55.518Z</time></trkpt><trkpt lat="46.47722" lon="12.437695"><ele>788.0</ele><time>2026-04-17T09:22:56.519Z</time></trkpt><trkpt lat="46.4774133" lon="12.4379917"><ele>783.0</ele><time>2026-04-17T09:22:57.518Z</time></trkpt><trkpt lat="46.477595" lon="12.4383067"><ele>783.0</ele><time>2026-04-17T09:22:58.519Z</time></trkpt><trkpt lat="46.4777767" lon="12.4386283"><ele>783.0</ele><time>2026-04-17T09:22:59.519Z</time></trkpt><trkpt lat="46.4779517" lon="12.4389467"><ele>781.0</ele><time>2026-04-17T09:23:00.518Z</time></trkpt><trkpt lat="46.4781217" lon="12.4392517"><ele>779.0</ele><time>2026-04-17T09:23:01.519Z</time></trkpt><trkpt lat="46.4783" lon="12.4395333"><ele>774.0</ele><time>2026-04-17T09:23:02.52Z</time></trkpt><trkpt lat="46.4784933" lon="12.4397967"><ele>769.0</ele><time>2026-04-17T09:23:03.519Z</time></trkpt><trkpt lat="46.4787033" lon="12.4400383"><ele>769.5</ele><time>2026-04-17T09:23:04.519Z</time></trkpt><trkpt lat="46.4789283" lon="12.4402533"><ele>770.0</ele><time>2026-04-17T09:23:05.519Z</time></trkpt><trkpt lat="46.4791683" lon="12.4404467"><ele>762.0</ele><time>2026-04-17T09:23:06.518Z</time></trkpt><trkpt lat="46.4794167" lon="12.4406217"><ele>754.0</ele><time>2026-04-17T09:23:07.519Z</time></trkpt><trkpt lat="46.4796733" lon="12.4407883"><ele>753.0</ele><time>2026-04-17T09:23:08.519Z</time></trkpt><trkpt lat="46.479935" lon="12.4409583"><ele>752.0</ele><time>2026-04-17T09:23:09.518Z</time></trkpt><trkpt lat="46.48019" lon="12.4411433"><ele>747.5</ele><time>2026-04-17T09:23:10.517Z</time></trkpt><trkpt lat="46.4804367" lon="12.44135"><ele>743.0</ele><time>2026-04-17T09:23:11.519Z</time></trkpt><trkpt lat="46.4806767" lon="12.4415817"><ele>743.0</ele><time>2026-04-17T09:23:12.519Z</time></trkpt><trkpt lat="46.48091" lon="12.4418367"><ele>743.0</ele><time>2026-04-17T09:23:13.521Z</time></trkpt><trkpt lat="46.481135" lon="12.4421117"><ele>743.5</ele><time>2026-04-17T09:23:14.519Z</time></trkpt><trkpt lat="46.4813467" lon="12.4424067"><ele>744.0</ele><time>2026-04-17T09:23:15.519Z</time></trkpt><trkpt lat="46.481555" lon="12.442715"><ele>739.5</ele><time>2026-04-17T09:23:16.518Z</time></trkpt><trkpt lat="46.4817617" lon="12.4430283"><ele>735.0</ele><time>2026-04-17T09:23:17.518Z</time></trkpt><trkpt lat="46.48197" lon="12.44334"><ele>735.0</ele><time>2026-04-17T09:23:18.518Z</time></trkpt><trkpt lat="46.4821767" lon="12.4436517"><ele>735.0</ele><time>2026-04-17T09:23:19.519Z</time></trkpt><trkpt lat="46.4823833" lon="12.4439683"><ele>734.0</ele><time>2026-04-17T09:23:20.519Z</time></trkpt><trkpt lat="46.4825817" lon="12.4442933"><ele>733.0</ele><time>2026-04-17T09:23:21.518Z</time></trkpt><trkpt lat="46.4827633" lon="12.44464"><ele>733.0</ele><time>2026-04-17T09:23:22.519Z</time></trkpt><trkpt lat="46.4829217" lon="12.4450067"><ele>733.0</ele><time>2026-04-17T09:23:23.519Z</time></trkpt><trkpt lat="46.4830633" lon="12.4453917"><ele>734.0</ele><time>2026-04-17T09:23:24.518Z</time></trkpt><trkpt lat="46.4832017" lon="12.445785"><ele>735.0</ele><time>2026-04-17T09:23:25.519Z</time></trkpt><trkpt lat="46.48334" lon="12.4461767"><ele>730.0</ele><time>2026-04-17T09:23:26.519Z</time></trkpt><trkpt lat="46.48348" lon="12.4465667"><ele>725.0</ele><time>2026-04-17T09:23:27.518Z</time></trkpt><trkpt lat="46.4836183" lon="12.446955"><ele>728.0</ele><time>2026-04-17T09:23:28.517Z</time></trkpt><trkpt lat="46.4837567" lon="12.4473417"><ele>731.0</ele><time>2026-04-17T09:23:29.519Z</time></trkpt><trkpt lat="46.4839" lon="12.447725"><ele>725.0</ele><time>2026-04-17T09:23:30.518Z</time></trkpt><trkpt lat="46.4840483" lon="12.4481"><ele>719.0</ele><time>2026-04-17T09:23:31.519Z</time></trkpt><trkpt lat="46.484205" lon="12.4484717"><ele>712.5</ele><time>2026-04-17T09:23:32.519Z</time></trkpt><trkpt lat="46.4843683" lon="12.4488333"><ele>706.0</ele><time>2026-04-17T09:23:33.518Z</time></trkpt><trkpt lat="46.4845433" lon="12.44918"><ele>715.0</ele><time>2026-04-17T09:23:34.519Z</time></trkpt><trkpt lat="46.4847333" lon="12.4495"><ele>724.0</ele><time>2026-04-17T09:23:35.519Z</time></trkpt><trkpt lat="46.484945" lon="12.4497867"><ele>724.0</ele><time>2026-04-17T09:23:36.519Z</time></trkpt><trkpt lat="46.485175" lon="12.45004"><ele>724.0</ele><time>2026-04-17T09:23:37.52Z</time></trkpt><trkpt lat="46.48542" lon="12.4502633"><ele>724.0</ele><time>2026-04-17T09:23:38.519Z</time></trkpt><trkpt lat="46.4856783" lon="12.4504483"><ele>724.0</ele><time>2026-04-17T09:23:39.519Z</time></trkpt><trkpt lat="46.4859467" lon="12.4506"><ele>724.0</ele><time>2026-04-17T09:23:40.519Z</time></trkpt><trkpt lat="46.4862233" lon="12.4507167"><ele>724.0</ele><time>2026-04-17T09:23:41.521Z</time></trkpt><trkpt lat="46.4865117" lon="12.4507917"><ele>725.0</ele><time>2026-04-17T09:23:42.522Z</time></trkpt><trkpt lat="46.4868067" lon="12.4508283"><ele>726.0</ele><time>2026-04-17T09:23:43.519Z</time></trkpt><trkpt lat="46.487105" lon="12.4508433"><ele>732.5</ele><time>2026-04-17T09:23:44.526Z</time></trkpt><trkpt lat="46.487405" lon="12.45085"><ele>739.0</ele><time>2026-04-17T09:23:45.521Z</time></trkpt><trkpt lat="46.4877083" lon="12.4508567"><ele>744.5</ele><time>2026-04-17T09:23:46.519Z</time></trkpt><trkpt lat="46.48801" lon="12.4508667"><ele>750.0</ele><time>2026-04-17T09:23:47.519Z</time></trkpt><trkpt lat="46.4883067" lon="12.4508783"><ele>750.0</ele><time>2026-04-17T09:23:48.519Z</time></trkpt><trkpt lat="46.4885917" lon="12.4508883"><ele>750.0</ele><time>2026-04-17T09:23:49.526Z</time></trkpt><trkpt lat="46.4888583" lon="12.4509133"><ele>750.0</ele><time>2026-04-17T09:23:50.52Z</time></trkpt><trkpt lat="46.4891083" lon="12.4509533"><ele>750.0</ele><time>2026-04-17T09:23:51.518Z</time></trkpt><trkpt lat="46.4893533" lon="12.45103"><ele>750.0</ele><time>2026-04-17T09:23:52.517Z</time></trkpt><trkpt lat="46.4895983" lon="12.451125"><ele>750.0</ele><time>2026-04-17T09:23:53.519Z</time></trkpt><trkpt lat="46.4898483" lon="12.4512283"><ele>743.0</ele><time>2026-04-17T09:23:54.518Z</time></trkpt><trkpt lat="46.4900883" lon="12.451315"><ele>736.0</ele><time>2026-04-17T09:23:55.519Z</time></trkpt><trkpt lat="46.4902967" lon="12.4513867"><ele>737.0</ele><time>2026-04-17T09:23:56.52Z</time></trkpt><trkpt lat="46.4904833" lon="12.4514383"><ele>738.0</ele><time>2026-04-17T09:23:57.52Z</time></trkpt><trkpt lat="46.4906567" lon="12.451455"><ele>739.0</ele><time>2026-04-17T09:23:58.518Z</time></trkpt><trkpt lat="46.4908333" lon="12.4514333"><ele>739.0</ele><time>2026-04-17T09:23:59.526Z</time></trkpt><trkpt lat="46.4910183" lon="12.451405"><ele>739.0</ele><time>2026-04-17T09:24:00.519Z</time></trkpt><trkpt lat="46.4912067" lon="12.4514"><ele>739.0</ele><time>2026-04-17T09:24:01.519Z</time></trkpt><trkpt lat="46.4913933" lon="12.4514067"><ele>738.6666666666667</ele><time>2026-04-17T09:24:02.523Z</time></trkpt><trkpt lat="46.491565" lon="12.4514267"><ele>738.3333333333334</ele><time>2026-04-17T09:24:03.519Z</time></trkpt><trkpt lat="46.491735" lon="12.45144"><ele>738.0</ele><time>2026-04-17T09:24:04.52Z</time></trkpt><trkpt lat="46.4919083" lon="12.4514367"><ele>738.0</ele><time>2026-04-17T09:24:05.52Z</time></trkpt><trkpt lat="46.4920817" lon="12.45143"><ele>738.0</ele><time>2026-04-17T09:24:06.52Z</time></trkpt><trkpt lat="46.4922583" lon="12.451415"><ele>738.0</ele><time>2026-04-17T09:24:07.518Z</time></trkpt><trkpt lat="46.4924233" lon="12.45142"><ele>739.5</ele><time>2026-04-17T09:24:08.518Z</time></trkpt><trkpt lat="46.49258" lon="12.4514483"><ele>741.0</ele><time>2026-04-17T09:24:09.518Z</time></trkpt><trkpt lat="46.4927217" lon="12.4514933"><ele>742.5</ele><time>2026-04-17T09:24:10.518Z</time></trkpt><trkpt lat="46.4928517" lon="12.451535"><ele>744.0</ele><time>2026-04-17T09:24:11.521Z</time></trkpt><trkpt lat="46.492965" lon="12.4515933"><ele>745.75</ele><time>2026-04-17T09:24:12.518Z</time></trkpt><trkpt lat="46.4930517" lon="12.45169"><ele>747.5</ele><time>2026-04-17T09:24:13.518Z</time></trkpt><trkpt lat="46.4931233" lon="12.4518117"><ele>749.25</ele><time>2026-04-17T09:24:14.518Z</time></trkpt><trkpt lat="46.493185" lon="12.4519617"><ele>751.0</ele><time>2026-04-17T09:24:15.518Z</time></trkpt><trkpt lat="46.4932467" lon="12.4521117"><ele>750.8</ele><time>2026-04-17T09:24:16.518Z</time></trkpt><trkpt lat="46.4933067" lon="12.4522517"><ele>750.5999999999999</ele><time>2026-04-17T09:24:17.519Z</time></trkpt><trkpt lat="46.4933717" lon="12.452365"><ele>750.4</ele><time>2026-04-17T09:24:18.518Z</time></trkpt><trkpt lat="46.49345" lon="12.452435"><ele>750.2</ele><time>2026-04-17T09:24:19.518Z</time></trkpt><trkpt lat="46.493545" lon="12.4524617"><ele>750.0</ele><time>2026-04-17T09:24:20.517Z</time></trkpt><trkpt lat="46.49365" lon="12.4524533"><ele>748.8</ele><time>2026-04-17T09:24:21.518Z</time></trkpt><trkpt lat="46.4937617" lon="12.45241"><ele>747.6</ele><time>2026-04-17T09:24:22.518Z</time></trkpt><trkpt lat="46.4938683" lon="12.4523467"><ele>746.4000000000001</ele><time>2026-04-17T09:24:23.518Z</time></trkpt><trkpt lat="46.4939717" lon="12.452285"><ele>745.2</ele><time>2026-04-17T09:24:24.518Z</time></trkpt><trkpt lat="46.4940633" lon="12.4522417"><ele>744.0</ele><time>2026-04-17T09:24:25.518Z</time></trkpt><trkpt lat="46.494135" lon="12.452245"><ele>744.0</ele><time>2026-04-17T09:24:26.517Z</time></trkpt><trkpt lat="46.4942267" lon="12.4523433"><ele>744.0</ele><time>2026-04-17T09:24:28.518Z</time></trkpt><trkpt lat="46.4942767" lon="12.4524233"><ele>744.0</ele><time>2026-04-17T09:24:29.518Z</time></trkpt><trkpt lat="46.494345" lon="12.452495"><ele>744.0</ele><time>2026-04-17T09:24:30.518Z</time></trkpt><trkpt lat="46.494465" lon="12.4525267"><ele>744.0</ele><time>2026-04-17T09:24:31.518Z</time></trkpt><trkpt lat="46.4946083" lon="12.4525333"><ele>742.6666666666666</ele><time>2026-04-17T09:24:32.518Z</time></trkpt><trkpt lat="46.4947717" lon="12.452545"><ele>741.3333333333333</ele><time>2026-04-17T09:24:33.517Z</time></trkpt><trkpt lat="46.4949533" lon="12.4525683"><ele>740.0</ele><time>2026-04-17T09:24:34.518Z</time></trkpt><trkpt lat="46.49515" lon="12.4525983"><ele>740.0</ele><time>2026-04-17T09:24:35.518Z</time></trkpt><trkpt lat="46.4953567" lon="12.4526467"><ele>740.0</ele><time>2026-04-17T09:24:36.517Z</time></trkpt><trkpt lat="46.49556" lon="12.4527417"><ele>740.0</ele><time>2026-04-17T09:24:37.518Z</time></trkpt><trkpt lat="46.4957567" lon="12.452895"><ele>751.5</ele><time>2026-04-17T09:24:38.518Z</time></trkpt><trkpt lat="46.4959567" lon="12.4530833"><ele>763.0</ele><time>2026-04-17T09:24:39.518Z</time></trkpt><trkpt lat="46.49617" lon="12.4532667"><ele>748.0</ele><time>2026-04-17T09:24:40.52Z</time></trkpt><trkpt lat="46.4963917" lon="12.453425"><ele>733.0</ele><time>2026-04-17T09:24:41.518Z</time></trkpt><trkpt lat="46.4965967" lon="12.4535817"><ele>733.0</ele><time>2026-04-17T09:24:42.518Z</time></trkpt><trkpt lat="46.4967917" lon="12.45374"><ele>733.0</ele><time>2026-04-17T09:24:43.518Z</time></trkpt><trkpt lat="46.4969967" lon="12.4538967"><ele>730.5</ele><time>2026-04-17T09:24:44.518Z</time></trkpt><trkpt lat="46.4972133" lon="12.4540483"><ele>728.0</ele><time>2026-04-17T09:24:45.516Z</time></trkpt><trkpt lat="46.4974333" lon="12.45421"><ele>728.0</ele><time>2026-04-17T09:24:46.518Z</time></trkpt><trkpt lat="46.4976667" lon="12.454365"><ele>728.0</ele><time>2026-04-17T09:24:47.518Z</time></trkpt><trkpt lat="46.4979117" lon="12.454495"><ele>729.5</ele><time>2026-04-17T09:24:48.518Z</time></trkpt><trkpt lat="46.4981617" lon="12.45461"><ele>731.0</ele><time>2026-04-17T09:24:49.519Z</time></trkpt><trkpt lat="46.4983983" lon="12.4547117"><ele>731.0</ele><time>2026-04-17T09:24:50.518Z</time></trkpt><trkpt lat="46.4986333" lon="12.454795"><ele>731.0</ele><time>2026-04-17T09:24:51.519Z</time></trkpt><trkpt lat="46.4988683" lon="12.4548633"><ele>731.0</ele><time>2026-04-17T09:24:52.521Z</time></trkpt><trkpt lat="46.4990983" lon="12.4549217"><ele>731.0</ele><time>2026-04-17T09:24:53.519Z</time></trkpt><trkpt lat="46.49932" lon="12.4549717"><ele>731.0</ele><time>2026-04-17T09:24:54.518Z</time></trkpt><trkpt lat="46.4995283" lon="12.45502"><ele>731.0</ele><time>2026-04-17T09:24:55.519Z</time></trkpt><trkpt lat="46.4997283" lon="12.455075"><ele>731.0</ele><time>2026-04-17T09:24:56.519Z</time></trkpt><trkpt lat="46.49993" lon="12.4551383"><ele>730.0</ele><time>2026-04-17T09:24:57.519Z</time></trkpt><trkpt lat="46.5001367" lon="12.45522"><ele>729.0</ele><time>2026-04-17T09:24:58.519Z</time></trkpt><trkpt lat="46.50035" lon="12.4553183"><ele>728.0</ele><time>2026-04-17T09:24:59.518Z</time></trkpt><trkpt lat="46.5005717" lon="12.4554333"><ele>732.0</ele><time>2026-04-17T09:25:00.522Z</time></trkpt><trkpt lat="46.5007917" lon="12.4555683"><ele>736.0</ele><time>2026-04-17T09:25:01.519Z</time></trkpt><trkpt lat="46.5010017" lon="12.4557183"><ele>736.0</ele><time>2026-04-17T09:25:02.519Z</time></trkpt><trkpt lat="46.5011967" lon="12.455875"><ele>736.0</ele><time>2026-04-17T09:25:03.521Z</time></trkpt><trkpt lat="46.5013867" lon="12.4560267"><ele>736.0</ele><time>2026-04-17T09:25:04.518Z</time></trkpt><trkpt lat="46.5015717" lon="12.45618"><ele>734.6666666666667</ele><time>2026-04-17T09:25:05.519Z</time></trkpt><trkpt lat="46.5017567" lon="12.4563267"><ele>733.3333333333334</ele><time>2026-04-17T09:25:06.519Z</time></trkpt><trkpt lat="46.5019417" lon="12.4564767"><ele>732.0</ele><time>2026-04-17T09:25:07.519Z</time></trkpt><trkpt lat="46.5021267" lon="12.4566233"><ele>732.0</ele><time>2026-04-17T09:25:08.521Z</time></trkpt><trkpt lat="46.5023117" lon="12.456775"><ele>732.0</ele><time>2026-04-17T09:25:09.519Z</time></trkpt><trkpt lat="46.5025" lon="12.4569283"><ele>732.0</ele><time>2026-04-17T09:25:10.519Z</time></trkpt><trkpt lat="46.50269" lon="12.4570833"><ele>735.6666666666666</ele><time>2026-04-17T09:25:11.519Z</time></trkpt><trkpt lat="46.5028817" lon="12.4572367"><ele>739.3333333333333</ele><time>2026-04-17T09:25:12.519Z</time></trkpt><trkpt lat="46.5030683" lon="12.4573783"><ele>743.0</ele><time>2026-04-17T09:25:13.519Z</time></trkpt><trkpt lat="46.503255" lon="12.4574967"><ele>743.0</ele><time>2026-04-17T09:25:14.519Z</time></trkpt><trkpt lat="46.5034417" lon="12.45758"><ele>743.0</ele><time>2026-04-17T09:25:15.519Z</time></trkpt><trkpt lat="46.5036383" lon="12.4576183"><ele>743.0</ele><time>2026-04-17T09:25:16.519Z</time></trkpt><trkpt lat="46.503845" lon="12.4576167"><ele>741.6666666666666</ele><time>2026-04-17T09:25:17.519Z</time></trkpt><trkpt lat="46.5040617" lon="12.45759"><ele>740.3333333333334</ele><time>2026-04-17T09:25:18.519Z</time></trkpt><trkpt lat="46.5042867" lon="12.4575583"><ele>739.0</ele><time>2026-04-17T09:25:19.519Z</time></trkpt><trkpt lat="46.5045167" lon="12.4575267"><ele>742.0</ele><time>2026-04-17T09:25:20.519Z</time></trkpt><trkpt lat="46.504745" lon="12.4575117"><ele>745.0</ele><time>2026-04-17T09:25:21.519Z</time></trkpt><trkpt lat="46.5049733" lon="12.45753"><ele>745.0</ele><time>2026-04-17T09:25:22.52Z</time></trkpt><trkpt lat="46.505205" lon="12.4575717"><ele>745.0</ele><time>2026-04-17T09:25:23.519Z</time></trkpt><trkpt lat="46.505435" lon="12.457615"><ele>744.0</ele><time>2026-04-17T09:25:24.518Z</time></trkpt><trkpt lat="46.5056667" lon="12.4576333"><ele>743.0</ele><time>2026-04-17T09:25:25.52Z</time></trkpt><trkpt lat="46.5059017" lon="12.4576183"><ele>743.0</ele><time>2026-04-17T09:25:26.518Z</time></trkpt><trkpt lat="46.5061417" lon="12.457585"><ele>743.0</ele><time>2026-04-17T09:25:27.519Z</time></trkpt><trkpt lat="46.5063767" lon="12.4575517"><ele>740.5</ele><time>2026-04-17T09:25:28.521Z</time></trkpt><trkpt lat="46.5066083" lon="12.457535"><ele>738.0</ele><time>2026-04-17T09:25:29.519Z</time></trkpt><trkpt lat="46.5068283" lon="12.45755"><ele>738.0</ele><time>2026-04-17T09:25:30.519Z</time></trkpt><trkpt lat="46.50704" lon="12.4576"><ele>738.0</ele><time>2026-04-17T09:25:31.52Z</time></trkpt><trkpt lat="46.5072467" lon="12.4576917"><ele>738.0</ele><time>2026-04-17T09:25:32.519Z</time></trkpt><trkpt lat="46.5074517" lon="12.45779"><ele>737.6666666666666</ele><time>2026-04-17T09:25:33.519Z</time></trkpt><trkpt lat="46.5076583" lon="12.4579067"><ele>737.3333333333333</ele><time>2026-04-17T09:25:34.519Z</time></trkpt><trkpt lat="46.50787" lon="12.4580283"><ele>737.0</ele><time>2026-04-17T09:25:35.519Z</time></trkpt><trkpt lat="46.5080883" lon="12.4581567"><ele>737.0</ele><time>2026-04-17T09:25:36.521Z</time></trkpt><trkpt lat="46.5083167" lon="12.4582867"><ele>737.0</ele><time>2026-04-17T09:25:37.519Z</time></trkpt><trkpt lat="46.5085483" lon="12.4584183"><ele>741.5</ele><time>2026-04-17T09:25:38.518Z</time></trkpt><trkpt lat="46.508785" lon="12.4585533"><ele>746.0</ele><time>2026-04-17T09:25:39.519Z</time></trkpt><trkpt lat="46.5090217" lon="12.4586983"><ele>746.0</ele><time>2026-04-17T09:25:40.522Z</time></trkpt><trkpt lat="46.509255" lon="12.45886"><ele>746.0</ele><time>2026-04-17T09:25:41.519Z</time></trkpt><trkpt lat="46.5094833" lon="12.45904"><ele>750.5</ele><time>2026-04-17T09:25:42.519Z</time></trkpt><trkpt lat="46.5097033" lon="12.4592483"><ele>755.0</ele><time>2026-04-17T09:25:43.518Z</time></trkpt><trkpt lat="46.50991" lon="12.459465"><ele>757.0</ele><time>2026-04-17T09:25:44.519Z</time></trkpt><trkpt lat="46.5101" lon="12.4596867"><ele>759.0</ele><time>2026-04-17T09:25:45.52Z</time></trkpt><trkpt lat="46.5102767" lon="12.4599083"><ele>764.5</ele><time>2026-04-17T09:25:46.519Z</time></trkpt><trkpt lat="46.5104467" lon="12.4601267"><ele>770.0</ele><time>2026-04-17T09:25:47.519Z</time></trkpt><trkpt lat="46.510615" lon="12.4603417"><ele>770.6666666666667</ele><time>2026-04-17T09:25:48.519Z</time></trkpt><trkpt lat="46.510785" lon="12.46055"><ele>771.3333333333333</ele><time>2026-04-17T09:25:49.519Z</time></trkpt><trkpt lat="46.5109633" lon="12.46074"><ele>772.0</ele><time>2026-04-17T09:25:50.519Z</time></trkpt><trkpt lat="46.5111517" lon="12.4609033"><ele>771.0</ele><time>2026-04-17T09:25:51.523Z</time></trkpt><trkpt lat="46.5113367" lon="12.4610433"><ele>770.0</ele><time>2026-04-17T09:25:52.519Z</time></trkpt><trkpt lat="46.5115117" lon="12.4611767"><ele>769.0</ele><time>2026-04-17T09:25:53.519Z</time></trkpt><trkpt lat="46.511685" lon="12.4613083"><ele>769.0</ele><time>2026-04-17T09:25:54.519Z</time></trkpt><trkpt lat="46.51185" lon="12.4614367"><ele>769.0</ele><time>2026-04-17T09:25:55.519Z</time></trkpt><trkpt lat="46.51201" lon="12.4615583"><ele>769.0</ele><time>2026-04-17T09:25:56.518Z</time></trkpt><trkpt lat="46.5121717" lon="12.461675"><ele>768.3333333333333</ele><time>2026-04-17T09:25:57.519Z</time></trkpt><trkpt lat="46.5123333" lon="12.4617933"><ele>767.6666666666666</ele><time>2026-04-17T09:25:58.519Z</time></trkpt><trkpt lat="46.5124933" lon="12.4619133"><ele>767.0</ele><time>2026-04-17T09:25:59.521Z</time></trkpt><trkpt lat="46.5126517" lon="12.46203"><ele>767.6666666666666</ele><time>2026-04-17T09:26:00.52Z</time></trkpt><trkpt lat="46.51281" lon="12.4621483"><ele>768.3333333333333</ele><time>2026-04-17T09:26:01.519Z</time></trkpt><trkpt lat="46.5129633" lon="12.4622733"><ele>769.0</ele><time>2026-04-17T09:26:02.519Z</time></trkpt><trkpt lat="46.513115" lon="12.46241"><ele>770.3333333333333</ele><time>2026-04-17T09:26:03.519Z</time></trkpt><trkpt lat="46.5132617" lon="12.46256"><ele>771.6666666666667</ele><time>2026-04-17T09:26:04.519Z</time></trkpt><trkpt lat="46.5134033" lon="12.462725"><ele>773.0</ele><time>2026-04-17T09:26:05.52Z</time></trkpt><trkpt lat="46.5135467" lon="12.4628983"><ele>774.3333333333334</ele><time>2026-04-17T09:26:06.519Z</time></trkpt><trkpt lat="46.5136883" lon="12.46307"><ele>775.6666666666667</ele><time>2026-04-17T09:26:07.519Z</time></trkpt><trkpt lat="46.5138283" lon="12.4632317"><ele>777.0</ele><time>2026-04-17T09:26:08.519Z</time></trkpt><trkpt lat="46.5139667" lon="12.463375"><ele>777.6666666666667</ele><time>2026-04-17T09:26:09.519Z</time></trkpt><trkpt lat="46.5141067" lon="12.4634933"><ele>778.3333333333334</ele><time>2026-04-17T09:26:10.519Z</time></trkpt><trkpt lat="46.514255" lon="12.4635867"><ele>779.0</ele><time>2026-04-17T09:26:11.518Z</time></trkpt><trkpt lat="46.5144083" lon="12.463655"><ele>779.0</ele><time>2026-04-17T09:26:12.52Z</time></trkpt><trkpt lat="46.5145633" lon="12.46371"><ele>779.0</ele><time>2026-04-17T09:26:13.519Z</time></trkpt><trkpt lat="46.5147217" lon="12.4637567"><ele>779.0</ele><time>2026-04-17T09:26:14.519Z</time></trkpt><trkpt lat="46.5148783" lon="12.4638017"><ele>780.0</ele><time>2026-04-17T09:26:15.518Z</time></trkpt><trkpt lat="46.5150317" lon="12.4638433"><ele>781.0</ele><time>2026-04-17T09:26:16.519Z</time></trkpt><trkpt lat="46.5151833" lon="12.4638833"><ele>782.0</ele><time>2026-04-17T09:26:17.519Z</time></trkpt><trkpt lat="46.5153333" lon="12.4639233"><ele>783.6666666666667</ele><time>2026-04-17T09:26:18.519Z</time></trkpt><trkpt lat="46.515485" lon="12.463965"><ele>785.3333333333333</ele><time>2026-04-17T09:26:19.519Z</time></trkpt><trkpt lat="46.5156417" lon="12.4640067"><ele>787.0</ele><time>2026-04-17T09:26:20.519Z</time></trkpt><trkpt lat="46.515795" lon="12.4640517"><ele>787.0</ele><time>2026-04-17T09:26:21.519Z</time></trkpt><trkpt lat="46.5159467" lon="12.4641"><ele>787.0</ele><time>2026-04-17T09:26:22.521Z</time></trkpt><trkpt lat="46.5161017" lon="12.4641533"><ele>787.0</ele><time>2026-04-17T09:26:23.519Z</time></trkpt><trkpt lat="46.5162567" lon="12.46422"><ele>788.0</ele><time>2026-04-17T09:26:24.519Z</time></trkpt><trkpt lat="46.5164133" lon="12.4643033"><ele>789.0</ele><time>2026-04-17T09:26:25.52Z</time></trkpt><trkpt lat="46.5165667" lon="12.4644033"><ele>790.0</ele><time>2026-04-17T09:26:26.52Z</time></trkpt><trkpt lat="46.5167183" lon="12.4645067"><ele>790.0</ele><time>2026-04-17T09:26:27.519Z</time></trkpt><trkpt lat="46.516865" lon="12.4646"><ele>790.0</ele><time>2026-04-17T09:26:28.519Z</time></trkpt><trkpt lat="46.5170033" lon="12.4646917"><ele>790.0</ele><time>2026-04-17T09:26:29.521Z</time></trkpt><trkpt lat="46.5171433" lon="12.464785"><ele>790.3333333333333</ele><time>2026-04-17T09:26:30.518Z</time></trkpt><trkpt lat="46.517285" lon="12.46488"><ele>790.6666666666667</ele><time>2026-04-17T09:26:31.519Z</time></trkpt><trkpt lat="46.5174283" lon="12.4649767"><ele>791.0</ele><time>2026-04-17T09:26:32.519Z</time></trkpt><trkpt lat="46.5175717" lon="12.465075"><ele>791.0</ele><time>2026-04-17T09:26:33.519Z</time></trkpt><trkpt lat="46.5177167" lon="12.4651767"><ele>791.0</ele><time>2026-04-17T09:26:34.519Z</time></trkpt><trkpt lat="46.517865" lon="12.4652833"><ele>791.0</ele><time>2026-04-17T09:26:35.52Z</time></trkpt><trkpt lat="46.5180183" lon="12.4653933"><ele>793.3333333333334</ele><time>2026-04-17T09:26:36.519Z</time></trkpt><trkpt lat="46.5181767" lon="12.465505"><ele>795.6666666666667</ele><time>2026-04-17T09:26:37.519Z</time></trkpt><trkpt lat="46.51834" lon="12.4656217"><ele>798.0</ele><time>2026-04-17T09:26:38.519Z</time></trkpt><trkpt lat="46.5185083" lon="12.4657367"><ele>798.0</ele><time>2026-04-17T09:26:39.519Z</time></trkpt><trkpt lat="46.518675" lon="12.46585"><ele>798.0</ele><time>2026-04-17T09:26:40.518Z</time></trkpt><trkpt lat="46.5188433" lon="12.4659667"><ele>798.0</ele><time>2026-04-17T09:26:41.519Z</time></trkpt><trkpt lat="46.5190117" lon="12.466095"><ele>794.6666666666667</ele><time>2026-04-17T09:26:42.519Z</time></trkpt><trkpt lat="46.5191717" lon="12.46624"><ele>791.3333333333334</ele><time>2026-04-17T09:26:43.519Z</time></trkpt><trkpt lat="46.51933" lon="12.4664133"><ele>788.0</ele><time>2026-04-17T09:26:44.519Z</time></trkpt><trkpt lat="46.5194817" lon="12.466585"><ele>787.0</ele><time>2026-04-17T09:26:45.52Z</time></trkpt><trkpt lat="46.5196267" lon="12.4667583"><ele>786.0</ele><time>2026-04-17T09:26:46.519Z</time></trkpt><trkpt lat="46.519765" lon="12.4669117"><ele>785.0</ele><time>2026-04-17T09:26:47.52Z</time></trkpt><trkpt lat="46.5199033" lon="12.4670417"><ele>794.3333333333334</ele><time>2026-04-17T09:26:48.519Z</time></trkpt><trkpt lat="46.5200383" lon="12.4671483"><ele>803.6666666666667</ele><time>2026-04-17T09:26:49.519Z</time></trkpt><trkpt lat="46.5201767" lon="12.467235"><ele>813.0</ele><time>2026-04-17T09:26:50.519Z</time></trkpt><trkpt lat="46.5203117" lon="12.4673167"><ele>810.5</ele><time>2026-04-17T09:26:51.52Z</time></trkpt><trkpt lat="46.52045" lon="12.4673867"><ele>808.0</ele><time>2026-04-17T09:26:52.52Z</time></trkpt><trkpt lat="46.520595" lon="12.4674383"><ele>805.5</ele><time>2026-04-17T09:26:53.522Z</time></trkpt><trkpt lat="46.5207417" lon="12.467465"><ele>803.0</ele><time>2026-04-17T09:26:54.519Z</time></trkpt><trkpt lat="46.5208967" lon="12.4674633"><ele>803.0</ele><time>2026-04-17T09:26:55.519Z</time></trkpt><trkpt lat="46.5210567" lon="12.4674367"><ele>803.0</ele><time>2026-04-17T09:26:56.524Z</time></trkpt><trkpt lat="46.5212167" lon="12.4673833"><ele>803.0</ele><time>2026-04-17T09:26:57.519Z</time></trkpt><trkpt lat="46.521375" lon="12.4673217"><ele>802.3333333333334</ele><time>2026-04-17T09:26:58.519Z</time></trkpt><trkpt lat="46.5215367" lon="12.4672617"><ele>801.6666666666667</ele><time>2026-04-17T09:26:59.52Z</time></trkpt><trkpt lat="46.5217" lon="12.4672183"><ele>801.0</ele><time>2026-04-17T09:27:00.519Z</time></trkpt><trkpt lat="46.52187" lon="12.4672033"><ele>801.0</ele><time>2026-04-17T09:27:01.52Z</time></trkpt><trkpt lat="46.5220367" lon="12.4672067"><ele>801.0</ele><time>2026-04-17T09:27:02.519Z</time></trkpt><trkpt lat="46.5221967" lon="12.4672183"><ele>801.0</ele><time>2026-04-17T09:27:03.519Z</time></trkpt><trkpt lat="46.52236" lon="12.46725"><ele>799.6666666666667</ele><time>2026-04-17T09:27:04.519Z</time></trkpt><trkpt lat="46.5225133" lon="12.4672717"><ele>798.3333333333334</ele><time>2026-04-17T09:27:05.519Z</time></trkpt><trkpt lat="46.5226617" lon="12.4672867"><ele>797.0</ele><time>2026-04-17T09:27:06.519Z</time></trkpt><trkpt lat="46.52281" lon="12.4673"><ele>800.25</ele><time>2026-04-17T09:27:07.519Z</time></trkpt><trkpt lat="46.5229533" lon="12.4673017"><ele>803.5</ele><time>2026-04-17T09:27:08.519Z</time></trkpt><trkpt lat="46.5230983" lon="12.467275"><ele>806.75</ele><time>2026-04-17T09:27:09.519Z</time></trkpt><trkpt lat="46.5232467" lon="12.4672233"><ele>810.0</ele><time>2026-04-17T09:27:10.519Z</time></trkpt><trkpt lat="46.52339" lon="12.4671467"><ele>804.25</ele><time>2026-04-17T09:27:11.519Z</time></trkpt><trkpt lat="46.5235317" lon="12.46708"><ele>798.5</ele><time>2026-04-17T09:27:12.519Z</time></trkpt><trkpt lat="46.52366" lon="12.4669983"><ele>792.75</ele><time>2026-04-17T09:27:13.519Z</time></trkpt><trkpt lat="46.523785" lon="12.46693"><ele>787.0</ele><time>2026-04-17T09:27:14.52Z</time></trkpt><trkpt lat="46.5239133" lon="12.466875"><ele>787.0</ele><time>2026-04-17T09:27:15.519Z</time></trkpt><trkpt lat="46.524035" lon="12.4668217"><ele>787.0</ele><time>2026-04-17T09:27:16.519Z</time></trkpt><trkpt lat="46.5241683" lon="12.466785"><ele>787.0</ele><time>2026-04-17T09:27:17.518Z</time></trkpt><trkpt lat="46.5243083" lon="12.4667817"><ele>787.0</ele><time>2026-04-17T09:27:18.52Z</time></trkpt><trkpt lat="46.52445" lon="12.4668317"><ele>788.3333333333333</ele><time>2026-04-17T09:27:19.52Z</time></trkpt><trkpt lat="46.5245867" lon="12.4669233"><ele>789.6666666666667</ele><time>2026-04-17T09:27:20.521Z</time></trkpt><trkpt lat="46.5247117" lon="12.4670417"><ele>791.0</ele><time>2026-04-17T09:27:21.519Z</time></trkpt><trkpt lat="46.5248367" lon="12.4672033"><ele>798.0</ele><time>2026-04-17T09:27:22.519Z</time></trkpt><trkpt lat="46.5249633" lon="12.4673483"><ele>805.0</ele><time>2026-04-17T09:27:23.519Z</time></trkpt><trkpt lat="46.52509" lon="12.4674883"><ele>812.0</ele><time>2026-04-17T09:27:24.519Z</time></trkpt><trkpt lat="46.5252167" lon="12.4676067"><ele>812.0</ele><time>2026-04-17T09:27:25.519Z</time></trkpt><trkpt lat="46.5253483" lon="12.4677133"><ele>812.0</ele><time>2026-04-17T09:27:26.519Z</time></trkpt><trkpt lat="46.5254833" lon="12.4677967"><ele>812.0</ele><time>2026-04-17T09:27:27.519Z</time></trkpt><trkpt lat="46.5256267" lon="12.4678533"><ele>812.0</ele><time>2026-04-17T09:27:28.519Z</time></trkpt><trkpt lat="46.5257717" lon="12.4678817"><ele>808.0</ele><time>2026-04-17T09:27:29.52Z</time></trkpt><trkpt lat="46.5259233" lon="12.467895"><ele>804.0</ele><time>2026-04-17T09:27:30.52Z</time></trkpt><trkpt lat="46.5260817" lon="12.467885"><ele>800.0</ele><time>2026-04-17T09:27:31.519Z</time></trkpt><trkpt lat="46.52624" lon="12.4678783"><ele>800.0</ele><time>2026-04-17T09:27:32.519Z</time></trkpt><trkpt lat="46.526405" lon="12.467875"><ele>800.0</ele><time>2026-04-17T09:27:33.519Z</time></trkpt><trkpt lat="46.526575" lon="12.4678717"><ele>800.0</ele><time>2026-04-17T09:27:34.519Z</time></trkpt><trkpt lat="46.5267467" lon="12.4678733"><ele>800.0</ele><time>2026-04-17T09:27:35.519Z</time></trkpt><trkpt lat="46.5269217" lon="12.4678867"><ele>800.0</ele><time>2026-04-17T09:27:36.519Z</time></trkpt><trkpt lat="46.5271017" lon="12.4679033"><ele>800.0</ele><time>2026-04-17T09:27:37.519Z</time></trkpt><trkpt lat="46.5273" lon="12.4679467"><ele>801.3333333333334</ele><time>2026-04-17T09:27:38.519Z</time></trkpt><trkpt lat="46.5275083" lon="12.468005"><ele>802.6666666666667</ele><time>2026-04-17T09:27:39.519Z</time></trkpt><trkpt lat="46.5277167" lon="12.468065"><ele>804.0</ele><time>2026-04-17T09:27:40.519Z</time></trkpt><trkpt lat="46.5279117" lon="12.4681233"><ele>804.0</ele><time>2026-04-17T09:27:41.519Z</time></trkpt><trkpt lat="46.52809" lon="12.4681867"><ele>804.0</ele><time>2026-04-17T09:27:42.52Z</time></trkpt><trkpt lat="46.5282517" lon="12.468245"><ele>804.0</ele><time>2026-04-17T09:27:43.519Z</time></trkpt><trkpt lat="46.5284017" lon="12.46831"><ele>804.0</ele><time>2026-04-17T09:27:44.519Z</time></trkpt><trkpt lat="46.5285483" lon="12.4683733"><ele>804.0</ele><time>2026-04-17T09:27:45.519Z</time></trkpt><trkpt lat="46.5287017" lon="12.4684467"><ele>804.0</ele><time>2026-04-17T09:27:46.519Z</time></trkpt><trkpt lat="46.528865" lon="12.4685267"><ele>800.3333333333333</ele><time>2026-04-17T09:27:47.519Z</time></trkpt><trkpt lat="46.529035" lon="12.46861"><ele>796.6666666666666</ele><time>2026-04-17T09:27:48.52Z</time></trkpt><trkpt lat="46.5292" lon="12.46868"><ele>793.0</ele><time>2026-04-17T09:27:49.519Z</time></trkpt><trkpt lat="46.5293583" lon="12.468735"><ele>801.0</ele><time>2026-04-17T09:27:50.519Z</time></trkpt><trkpt lat="46.529515" lon="12.46879"><ele>809.0</ele><time>2026-04-17T09:27:51.519Z</time></trkpt><trkpt lat="46.5296683" lon="12.4688333"><ele>817.0</ele><time>2026-04-17T09:27:52.521Z</time></trkpt><trkpt lat="46.5298233" lon="12.4688783"><ele>817.0</ele><time>2026-04-17T09:27:53.519Z</time></trkpt><trkpt lat="46.52998" lon="12.4689233"><ele>817.0</ele><time>2026-04-17T09:27:54.518Z</time></trkpt><trkpt lat="46.5301333" lon="12.4689717"><ele>817.0</ele><time>2026-04-17T09:27:55.519Z</time></trkpt><trkpt lat="46.5302767" lon="12.4690217"><ele>813.5</ele><time>2026-04-17T09:27:56.519Z</time></trkpt><trkpt lat="46.5304117" lon="12.4690667"><ele>810.0</ele><time>2026-04-17T09:27:57.519Z</time></trkpt><trkpt lat="46.5305433" lon="12.4691083"><ele>806.5</ele><time>2026-04-17T09:27:58.519Z</time></trkpt><trkpt lat="46.5306767" lon="12.469145"><ele>803.0</ele><time>2026-04-17T09:27:59.519Z</time></trkpt><trkpt lat="46.5308167" lon="12.46919"><ele>803.0</ele><time>2026-04-17T09:28:00.519Z</time></trkpt><trkpt lat="46.5309683" lon="12.4692317"><ele>803.0</ele><time>2026-04-17T09:28:01.521Z</time></trkpt><trkpt lat="46.531135" lon="12.469275"><ele>803.0</ele><time>2026-04-17T09:28:02.519Z</time></trkpt><trkpt lat="46.5313133" lon="12.4693167"><ele>801.0</ele><time>2026-04-17T09:28:03.519Z</time></trkpt><trkpt lat="46.5315" lon="12.4693633"><ele>799.0</ele><time>2026-04-17T09:28:04.518Z</time></trkpt><trkpt lat="46.5316933" lon="12.4694183"><ele>797.0</ele><time>2026-04-17T09:28:05.52Z</time></trkpt><trkpt lat="46.5318917" lon="12.4694583"><ele>799.0</ele><time>2026-04-17T09:28:06.519Z</time></trkpt><trkpt lat="46.5320983" lon="12.46947"><ele>801.0</ele><time>2026-04-17T09:28:07.52Z</time></trkpt><trkpt lat="46.5323033" lon="12.4694483"><ele>803.0</ele><time>2026-04-17T09:28:08.52Z</time></trkpt><trkpt lat="46.5324983" lon="12.469415"><ele>803.0</ele><time>2026-04-17T09:28:09.519Z</time></trkpt><trkpt lat="46.53268" lon="12.46937"><ele>803.0</ele><time>2026-04-17T09:28:10.52Z</time></trkpt><trkpt lat="46.5328517" lon="12.4693067"><ele>803.0</ele><time>2026-04-17T09:28:11.52Z</time></trkpt><trkpt lat="46.5330133" lon="12.4691883"><ele>805.3333333333334</ele><time>2026-04-17T09:28:12.519Z</time></trkpt><trkpt lat="46.5331667" lon="12.46904"><ele>807.6666666666667</ele><time>2026-04-17T09:28:13.519Z</time></trkpt><trkpt lat="46.5333183" lon="12.46887"><ele>810.0</ele><time>2026-04-17T09:28:14.52Z</time></trkpt><trkpt lat="46.5334767" lon="12.4686867"><ele>813.0</ele><time>2026-04-17T09:28:15.522Z</time></trkpt><trkpt lat="46.5336533" lon="12.4685067"><ele>816.0</ele><time>2026-04-17T09:28:16.518Z</time></trkpt><trkpt lat="46.533845" lon="12.4683483"><ele>819.0</ele><time>2026-04-17T09:28:17.519Z</time></trkpt><trkpt lat="46.5340533" lon="12.4682117"><ele>819.0</ele><time>2026-04-17T09:28:18.519Z</time></trkpt><trkpt lat="46.5342717" lon="12.4680933"><ele>819.0</ele><time>2026-04-17T09:28:19.519Z</time></trkpt><trkpt lat="46.53449" lon="12.4679717"><ele>813.0</ele><time>2026-04-17T09:28:20.519Z</time></trkpt><trkpt lat="46.5347183" lon="12.467855"><ele>807.0</ele><time>2026-04-17T09:28:21.519Z</time></trkpt><trkpt lat="46.5349483" lon="12.4677433"><ele>807.0</ele><time>2026-04-17T09:28:22.519Z</time></trkpt><trkpt lat="46.5351833" lon="12.4676333"><ele>807.0</ele><time>2026-04-17T09:28:23.519Z</time></trkpt><trkpt lat="46.5354217" lon="12.4675317"><ele>816.0</ele><time>2026-04-17T09:28:24.519Z</time></trkpt><trkpt lat="46.5356633" lon="12.46745"><ele>825.0</ele><time>2026-04-17T09:28:25.521Z</time></trkpt><trkpt lat="46.5358983" lon="12.4673867"><ele>825.0</ele><time>2026-04-17T09:28:26.52Z</time></trkpt><trkpt lat="46.53613" lon="12.46734"><ele>825.0</ele><time>2026-04-17T09:28:27.519Z</time></trkpt><trkpt lat="46.53635" lon="12.467315"><ele>831.6666666666667</ele><time>2026-04-17T09:28:28.519Z</time></trkpt><trkpt lat="46.53653" lon="12.4672917"><ele>838.3333333333334</ele><time>2026-04-17T09:28:29.52Z</time></trkpt><trkpt lat="46.5366883" lon="12.467285"><ele>845.0</ele><time>2026-04-17T09:28:30.522Z</time></trkpt><trkpt lat="46.5368283" lon="12.467265"><ele>845.0</ele><time>2026-04-17T09:28:31.521Z</time></trkpt><trkpt lat="46.53696" lon="12.4672217"><ele>845.0</ele><time>2026-04-17T09:28:32.522Z</time></trkpt><trkpt lat="46.5370883" lon="12.467145"><ele>845.0</ele><time>2026-04-17T09:28:33.52Z</time></trkpt><trkpt lat="46.53722" lon="12.4670233"><ele>845.0</ele><time>2026-04-17T09:28:34.521Z</time></trkpt><trkpt lat="46.5373583" lon="12.4668683"><ele>839.0</ele><time>2026-04-17T09:28:35.519Z</time></trkpt><trkpt lat="46.5374967" lon="12.4666883"><ele>833.0</ele><time>2026-04-17T09:28:36.521Z</time></trkpt><trkpt lat="46.5376317" lon="12.46653"><ele>827.0</ele><time>2026-04-17T09:28:37.523Z</time></trkpt><trkpt lat="46.537755" lon="12.4663783"><ele>831.75</ele><time>2026-04-17T09:28:38.519Z</time></trkpt><trkpt lat="46.5378583" lon="12.466235"><ele>836.5</ele><time>2026-04-17T09:28:39.519Z</time></trkpt><trkpt lat="46.5379567" lon="12.466095"><ele>841.25</ele><time>2026-04-17T09:28:40.519Z</time></trkpt><trkpt lat="46.53806" lon="12.465955"><ele>846.0</ele><time>2026-04-17T09:28:41.52Z</time></trkpt><trkpt lat="46.5381583" lon="12.4658067"><ele>846.0</ele><time>2026-04-17T09:28:42.518Z</time></trkpt><trkpt lat="46.5382433" lon="12.4656417"><ele>846.0</ele><time>2026-04-17T09:28:43.52Z</time></trkpt><trkpt lat="46.53832" lon="12.4654683"><ele>846.0</ele><time>2026-04-17T09:28:44.52Z</time></trkpt><trkpt lat="46.5383917" lon="12.4652883"><ele>846.0</ele><time>2026-04-17T09:28:45.519Z</time></trkpt><trkpt lat="46.538465" lon="12.46511"><ele>842.75</ele><time>2026-04-17T09:28:46.52Z</time></trkpt><trkpt lat="46.53854" lon="12.46493"><ele>839.5</ele><time>2026-04-17T09:28:47.519Z</time></trkpt><trkpt lat="46.538615" lon="12.4647567"><ele>836.25</ele><time>2026-04-17T09:28:48.52Z</time></trkpt><trkpt lat="46.5387" lon="12.4645917"><ele>833.0</ele><time>2026-04-17T09:28:49.518Z</time></trkpt><trkpt lat="46.5387917" lon="12.4644333"><ele>833.0</ele><time>2026-04-17T09:28:50.52Z</time></trkpt><trkpt lat="46.5388833" lon="12.4642767"><ele>833.0</ele><time>2026-04-17T09:28:51.519Z</time></trkpt><trkpt lat="46.53897" lon="12.4641317"><ele>833.0</ele><time>2026-04-17T09:28:52.519Z</time></trkpt><trkpt lat="46.5390567" lon="12.464005"><ele>833.0</ele><time>2026-04-17T09:28:53.519Z</time></trkpt><trkpt lat="46.53915" lon="12.46389"><ele>833.0</ele><time>2026-04-17T09:28:54.519Z</time></trkpt><trkpt lat="46.539255" lon="12.4637817"><ele>833.0</ele><time>2026-04-17T09:28:55.519Z</time></trkpt><trkpt lat="46.5393717" lon="12.463685"><ele>833.0</ele><time>2026-04-17T09:28:56.52Z</time></trkpt><trkpt lat="46.539485" lon="12.46359"><ele>833.0</ele><time>2026-04-17T09:28:57.519Z</time></trkpt><trkpt lat="46.539595" lon="12.4634983"><ele>831.75</ele><time>2026-04-17T09:28:58.519Z</time></trkpt><trkpt lat="46.5397033" lon="12.4634133"><ele>830.5</ele><time>2026-04-17T09:28:59.52Z</time></trkpt><trkpt lat="46.5398133" lon="12.4633333"><ele>829.25</ele><time>2026-04-17T09:29:00.519Z</time></trkpt><trkpt lat="46.5399267" lon="12.4632567"><ele>828.0</ele><time>2026-04-17T09:29:01.521Z</time></trkpt><trkpt lat="46.540045" lon="12.4631917"><ele>828.0</ele><time>2026-04-17T09:29:02.52Z</time></trkpt><trkpt lat="46.5401717" lon="12.4631433"><ele>828.0</ele><time>2026-04-17T09:29:03.519Z</time></trkpt><trkpt lat="46.5403033" lon="12.4631017"><ele>828.0</ele><time>2026-04-17T09:29:04.519Z</time></trkpt><trkpt lat="46.5404317" lon="12.4630617"><ele>828.0</ele><time>2026-04-17T09:29:05.52Z</time></trkpt><trkpt lat="46.5405583" lon="12.46302"><ele>828.0</ele><time>2026-04-17T09:29:06.519Z</time></trkpt><trkpt lat="46.5406833" lon="12.4629733"><ele>828.0</ele><time>2026-04-17T09:29:07.52Z</time></trkpt><trkpt lat="46.5408033" lon="12.4629267"><ele>828.0</ele><time>2026-04-17T09:29:08.52Z</time></trkpt><trkpt lat="46.5409233" lon="12.4628817"><ele>828.0</ele><time>2026-04-17T09:29:09.519Z</time></trkpt><trkpt lat="46.5410417" lon="12.4628367"><ele>828.0</ele><time>2026-04-17T09:29:10.519Z</time></trkpt><trkpt lat="46.541155" lon="12.46279"><ele>828.0</ele><time>2026-04-17T09:29:11.52Z</time></trkpt><trkpt lat="46.54127" lon="12.4627433"><ele>828.0</ele><time>2026-04-17T09:29:12.519Z</time></trkpt><trkpt lat="46.5413817" lon="12.4626983"><ele>828.0</ele><time>2026-04-17T09:29:13.52Z</time></trkpt><trkpt lat="46.541485" lon="12.462645"><ele>829.8</ele><time>2026-04-17T09:29:14.52Z</time></trkpt><trkpt lat="46.541585" lon="12.46258"><ele>831.5999999999999</ele><time>2026-04-17T09:29:15.52Z</time></trkpt><trkpt lat="46.5416733" lon="12.4624983"><ele>833.4000000000001</ele><time>2026-04-17T09:29:16.522Z</time></trkpt><trkpt lat="46.5417567" lon="12.4624033"><ele>835.2</ele><time>2026-04-17T09:29:17.52Z</time></trkpt><trkpt lat="46.54182" lon="12.4622867"><ele>837.0</ele><time>2026-04-17T09:29:18.52Z</time></trkpt><trkpt lat="46.5418717" lon="12.4621533"><ele>835.5</ele><time>2026-04-17T09:29:19.521Z</time></trkpt><trkpt lat="46.5419217" lon="12.46201"><ele>834.0</ele><time>2026-04-17T09:29:20.52Z</time></trkpt><trkpt lat="46.54197" lon="12.4618667"><ele>832.5</ele><time>2026-04-17T09:29:21.519Z</time></trkpt><trkpt lat="46.54203" lon="12.46171"><ele>831.0</ele><time>2026-04-17T09:29:22.52Z</time></trkpt><trkpt lat="46.5420967" lon="12.4615617"><ele>833.0</ele><time>2026-04-17T09:29:23.519Z</time></trkpt><trkpt lat="46.54217" lon="12.4614217"><ele>835.0</ele><time>2026-04-17T09:29:24.52Z</time></trkpt><trkpt lat="46.54225" lon="12.4612867"><ele>837.0</ele><time>2026-04-17T09:29:25.521Z</time></trkpt><trkpt lat="46.5423367" lon="12.4611483"><ele>839.0</ele><time>2026-04-17T09:29:26.52Z</time></trkpt><trkpt lat="46.5424183" lon="12.4610233"><ele>839.0</ele><time>2026-04-17T09:29:27.519Z</time></trkpt><trkpt lat="46.5424983" lon="12.4608933"><ele>839.0</ele><time>2026-04-17T09:29:28.523Z</time></trkpt><trkpt lat="46.542575" lon="12.4607617"><ele>839.0</ele><time>2026-04-17T09:29:29.519Z</time></trkpt><trkpt lat="46.5426583" lon="12.46063"><ele>839.0</ele><time>2026-04-17T09:29:30.52Z</time></trkpt><trkpt lat="46.5427433" lon="12.460505"><ele>840.0</ele><time>2026-04-17T09:29:31.52Z</time></trkpt><trkpt lat="46.5428333" lon="12.4604033"><ele>841.0</ele><time>2026-04-17T09:29:32.52Z</time></trkpt><trkpt lat="46.5429267" lon="12.46031"><ele>842.0</ele><time>2026-04-17T09:29:33.519Z</time></trkpt><trkpt lat="46.5430267" lon="12.4602117"><ele>843.0</ele><time>2026-04-17T09:29:34.519Z</time></trkpt><trkpt lat="46.543135" lon="12.460105"><ele>843.0</ele><time>2026-04-17T09:29:35.52Z</time></trkpt><trkpt lat="46.543245" lon="12.46"><ele>843.0</ele><time>2026-04-17T09:29:36.519Z</time></trkpt><trkpt lat="46.5433483" lon="12.4598917"><ele>843.0</ele><time>2026-04-17T09:29:37.518Z</time></trkpt><trkpt lat="46.5434483" lon="12.4597883"><ele>843.0</ele><time>2026-04-17T09:29:38.521Z</time></trkpt><trkpt lat="46.5435483" lon="12.4596933"><ele>842.75</ele><time>2026-04-17T09:29:39.52Z</time></trkpt><trkpt lat="46.5436483" lon="12.4595967"><ele>842.5</ele><time>2026-04-17T09:29:40.52Z</time></trkpt><trkpt lat="46.5437517" lon="12.4594983"><ele>842.25</ele><time>2026-04-17T09:29:41.519Z</time></trkpt><trkpt lat="46.5438583" lon="12.4594"><ele>842.0</ele><time>2026-04-17T09:29:42.518Z</time></trkpt><trkpt lat="46.5439617" lon="12.4593"><ele>842.0</ele><time>2026-04-17T09:29:43.519Z</time></trkpt><trkpt lat="46.544065" lon="12.4591983"><ele>842.0</ele><time>2026-04-17T09:29:44.518Z</time></trkpt><trkpt lat="46.54417" lon="12.4590967"><ele>842.0</ele><time>2026-04-17T09:29:45.517Z</time></trkpt><trkpt lat="46.5442817" lon="12.4589917"><ele>842.0</ele><time>2026-04-17T09:29:46.518Z</time></trkpt><trkpt lat="46.544395" lon="12.4588833"><ele>843.0</ele><time>2026-04-17T09:29:47.518Z</time></trkpt><trkpt lat="46.5445017" lon="12.4587783"><ele>844.0</ele><time>2026-04-17T09:29:48.518Z</time></trkpt><trkpt lat="46.5446" lon="12.45868"><ele>845.0</ele><time>2026-04-17T09:29:49.518Z</time></trkpt><trkpt lat="46.5446983" lon="12.45859"><ele>846.0</ele><time>2026-04-17T09:29:50.518Z</time></trkpt><trkpt lat="46.5447933" lon="12.458495"><ele>846.0</ele><time>2026-04-17T09:29:51.518Z</time></trkpt><trkpt lat="46.5448883" lon="12.4584017"><ele>846.0</ele><time>2026-04-17T09:29:52.518Z</time></trkpt><trkpt lat="46.54498" lon="12.4583117"><ele>846.0</ele><time>2026-04-17T09:29:53.518Z</time></trkpt><trkpt lat="46.5450617" lon="12.458225"><ele>846.0</ele><time>2026-04-17T09:29:54.518Z</time></trkpt><trkpt lat="46.54513" lon="12.45815"><ele>846.0</ele><time>2026-04-17T09:29:55.518Z</time></trkpt><trkpt lat="46.54519" lon="12.4580967"><ele>846.0</ele><time>2026-04-17T09:29:56.519Z</time></trkpt><trkpt lat="46.5452517" lon="12.4581833"><ele>846.0</ele><time>2026-04-17T09:29:59.518Z</time></trkpt><trkpt lat="46.5452" lon="12.4583417"><ele>846.0</ele><time>2026-04-17T09:30:01.518Z</time></trkpt><trkpt lat="46.5451383" lon="12.4584617"><ele>846.0</ele><time>2026-04-17T09:30:02.519Z</time></trkpt><trkpt lat="46.5450567" lon="12.4585967"><ele>846.0</ele><time>2026-04-17T09:30:03.518Z</time></trkpt><trkpt lat="46.5449433" lon="12.458735"><ele>846.5</ele><time>2026-04-17T09:30:04.517Z</time></trkpt><trkpt lat="46.5448417" lon="12.4588683"><ele>847.0</ele><time>2026-04-17T09:30:05.518Z</time></trkpt><trkpt lat="46.5447333" lon="12.459005"><ele>847.5</ele><time>2026-04-17T09:30:06.518Z</time></trkpt><trkpt lat="46.5446217" lon="12.4591433"><ele>848.0</ele><time>2026-04-17T09:30:07.519Z</time></trkpt><trkpt lat="46.54451" lon="12.4592833"><ele>849.25</ele><time>2026-04-17T09:30:08.52Z</time></trkpt><trkpt lat="46.5444067" lon="12.459415"><ele>850.5</ele><time>2026-04-17T09:30:09.52Z</time></trkpt><trkpt lat="46.5443067" lon="12.459545"><ele>851.75</ele><time>2026-04-17T09:30:10.518Z</time></trkpt><trkpt lat="46.5442" lon="12.4596817"><ele>853.0</ele><time>2026-04-17T09:30:11.518Z</time></trkpt><trkpt lat="46.5440933" lon="12.4598067"><ele>853.0</ele><time>2026-04-17T09:30:12.518Z</time></trkpt><trkpt lat="46.5439933" lon="12.45991"><ele>853.0</ele><time>2026-04-17T09:30:13.518Z</time></trkpt><trkpt lat="46.5438983" lon="12.4600017"><ele>853.0</ele><time>2026-04-17T09:30:14.518Z</time></trkpt><trkpt lat="46.5438133" lon="12.4601033"><ele>853.0</ele><time>2026-04-17T09:30:15.518Z</time></trkpt><trkpt lat="46.5437383" lon="12.46022"><ele>852.0</ele><time>2026-04-17T09:30:16.518Z</time></trkpt><trkpt lat="46.543665" lon="12.460345"><ele>851.0</ele><time>2026-04-17T09:30:17.518Z</time></trkpt><trkpt lat="46.5435933" lon="12.4604733"><ele>850.0</ele><time>2026-04-17T09:30:18.518Z</time></trkpt><trkpt lat="46.543515" lon="12.460585"><ele>849.0</ele><time>2026-04-17T09:30:19.519Z</time></trkpt><trkpt lat="46.5434217" lon="12.4606567"><ele>848.0</ele><time>2026-04-17T09:30:20.521Z</time></trkpt><trkpt lat="46.5433167" lon="12.460695"><ele>848.0</ele><time>2026-04-17T09:30:21.518Z</time></trkpt><trkpt lat="46.5432083" lon="12.4607167"><ele>848.0</ele><time>2026-04-17T09:30:22.518Z</time></trkpt><trkpt lat="46.5431117" lon="12.460745"><ele>848.0</ele><time>2026-04-17T09:30:23.518Z</time></trkpt><trkpt lat="46.5430183" lon="12.460805"><ele>848.0</ele><time>2026-04-17T09:30:24.518Z</time></trkpt><trkpt lat="46.54293" lon="12.4608917"><ele>848.0</ele><time>2026-04-17T09:30:25.519Z</time></trkpt><trkpt lat="46.54285" lon="12.461"><ele>847.5</ele><time>2026-04-17T09:30:26.519Z</time></trkpt><trkpt lat="46.542775" lon="12.4611233"><ele>847.0</ele><time>2026-04-17T09:30:27.517Z</time></trkpt><trkpt lat="46.5426983" lon="12.4612567"><ele>846.5</ele><time>2026-04-17T09:30:28.518Z</time></trkpt><trkpt lat="46.54261" lon="12.4613783"><ele>846.0</ele><time>2026-04-17T09:30:29.517Z</time></trkpt><trkpt lat="46.542535" lon="12.4615033"><ele>846.0</ele><time>2026-04-17T09:30:30.518Z</time></trkpt><trkpt lat="46.5425" lon="12.4616417"><ele>846.0</ele><time>2026-04-17T09:30:31.518Z</time></trkpt><trkpt lat="46.542455" lon="12.461795"><ele>846.0</ele><time>2026-04-17T09:30:32.518Z</time></trkpt><trkpt lat="46.542405" lon="12.461955"><ele>846.0</ele><time>2026-04-17T09:30:33.518Z</time></trkpt><trkpt lat="46.5423683" lon="12.462135"><ele>847.25</ele><time>2026-04-17T09:30:34.518Z</time></trkpt><trkpt lat="46.54234" lon="12.462325"><ele>848.5</ele><time>2026-04-17T09:30:35.518Z</time></trkpt><trkpt lat="46.54233" lon="12.4625267"><ele>849.75</ele><time>2026-04-17T09:30:36.522Z</time></trkpt><trkpt lat="46.5423183" lon="12.4627367"><ele>851.0</ele><time>2026-04-17T09:30:37.518Z</time></trkpt><trkpt lat="46.5423" lon="12.46295"><ele>852.5</ele><time>2026-04-17T09:30:38.519Z</time></trkpt><trkpt lat="46.542275" lon="12.463155"><ele>854.0</ele><time>2026-04-17T09:30:39.518Z</time></trkpt><trkpt lat="46.542245" lon="12.4633433"><ele>855.5</ele><time>2026-04-17T09:30:40.518Z</time></trkpt><trkpt lat="46.542195" lon="12.4635117"><ele>857.0</ele><time>2026-04-17T09:30:41.518Z</time></trkpt><trkpt lat="46.5421217" lon="12.463655"><ele>856.25</ele><time>2026-04-17T09:30:42.518Z</time></trkpt><trkpt lat="46.54203" lon="12.4637767"><ele>855.5</ele><time>2026-04-17T09:30:43.52Z</time></trkpt><trkpt lat="46.5419217" lon="12.46387"><ele>854.75</ele><time>2026-04-17T09:30:44.519Z</time></trkpt><trkpt lat="46.5418133" lon="12.463935"><ele>854.0</ele><time>2026-04-17T09:30:45.518Z</time></trkpt><trkpt lat="46.5417133" lon="12.46398"><ele>854.0000000000001</ele><time>2026-04-17T09:30:46.521Z</time></trkpt><trkpt lat="46.5416283" lon="12.4640233"><ele>854.0</ele><time>2026-04-17T09:30:47.518Z</time></trkpt><trkpt lat="46.5415533" lon="12.464085"><ele>854.0</ele><time>2026-04-17T09:30:48.518Z</time></trkpt><trkpt lat="46.5414983" lon="12.4641717"><ele>854.0</ele><time>2026-04-17T09:30:49.518Z</time></trkpt><trkpt lat="46.5414633" lon="12.46428"><ele>854.0000000000001</ele><time>2026-04-17T09:30:50.518Z</time></trkpt><trkpt lat="46.541455" lon="12.46442"><ele>854.0</ele><time>2026-04-17T09:30:51.518Z</time></trkpt><trkpt lat="46.541455" lon="12.4645883"><ele>856.5</ele><time>2026-04-17T09:30:52.52Z</time></trkpt><trkpt lat="46.5414517" lon="12.46476"><ele>859.0</ele><time>2026-04-17T09:30:53.52Z</time></trkpt><trkpt lat="46.5414483" lon="12.4649417"><ele>861.5</ele><time>2026-04-17T09:30:54.518Z</time></trkpt><trkpt lat="46.5414517" lon="12.4651367"><ele>864.0</ele><time>2026-04-17T09:30:55.519Z</time></trkpt><trkpt lat="46.5414533" lon="12.4653383"><ele>865.75</ele><time>2026-04-17T09:30:56.521Z</time></trkpt><trkpt lat="46.5414583" lon="12.465545"><ele>867.5</ele><time>2026-04-17T09:30:57.518Z</time></trkpt><trkpt lat="46.54147" lon="12.465755"><ele>869.25</ele><time>2026-04-17T09:30:58.518Z</time></trkpt><trkpt lat="46.5414933" lon="12.4659683"><ele>871.0</ele><time>2026-04-17T09:30:59.518Z</time></trkpt><trkpt lat="46.5415317" lon="12.4661883"><ele>869.6666666666666</ele><time>2026-04-17T09:31:00.517Z</time></trkpt><trkpt lat="46.5415783" lon="12.46641"><ele>868.3333333333333</ele><time>2026-04-17T09:31:01.518Z</time></trkpt><trkpt lat="46.5416317" lon="12.466635"><ele>867.0</ele><time>2026-04-17T09:31:02.521Z</time></trkpt><trkpt lat="46.5416867" lon="12.4668667"><ele>867.0</ele><time>2026-04-17T09:31:03.519Z</time></trkpt><trkpt lat="46.5417317" lon="12.4671017"><ele>867.0</ele><time>2026-04-17T09:31:04.518Z</time></trkpt><trkpt lat="46.5417667" lon="12.46734"><ele>867.0</ele><time>2026-04-17T09:31:05.521Z</time></trkpt><trkpt lat="46.5417967" lon="12.4675783"><ele>867.6666666666667</ele><time>2026-04-17T09:31:06.518Z</time></trkpt><trkpt lat="46.541825" lon="12.4678233"><ele>868.3333333333334</ele><time>2026-04-17T09:31:07.522Z</time></trkpt><trkpt lat="46.5418583" lon="12.4680683"><ele>869.0</ele><time>2026-04-17T09:31:08.518Z</time></trkpt><trkpt lat="46.5419" lon="12.4683067"><ele>873.3333333333334</ele><time>2026-04-17T09:31:09.517Z</time></trkpt><trkpt lat="46.5419567" lon="12.4685483"><ele>877.6666666666667</ele><time>2026-04-17T09:31:10.518Z</time></trkpt><trkpt lat="46.5420233" lon="12.4687967"><ele>882.0</ele><time>2026-04-17T09:31:11.52Z</time></trkpt><trkpt lat="46.5420917" lon="12.4690433"><ele>885.6666666666667</ele><time>2026-04-17T09:31:12.519Z</time></trkpt><trkpt lat="46.5421617" lon="12.4692967"><ele>889.3333333333334</ele><time>2026-04-17T09:31:13.519Z</time></trkpt><trkpt lat="46.5422433" lon="12.4695483"><ele>893.0</ele><time>2026-04-17T09:31:14.518Z</time></trkpt><trkpt lat="46.5423333" lon="12.4697967"><ele>893.0</ele><time>2026-04-17T09:31:15.518Z</time></trkpt><trkpt lat="46.5424233" lon="12.4700333"><ele>893.0</ele><time>2026-04-17T09:31:16.517Z</time></trkpt><trkpt lat="46.5425017" lon="12.47025"><ele>893.0</ele><time>2026-04-17T09:31:17.518Z</time></trkpt><trkpt lat="46.5425667" lon="12.47044"><ele>893.5000000000001</ele><time>2026-04-17T09:31:18.518Z</time></trkpt><trkpt lat="46.54261" lon="12.4706017"><ele>894.0</ele><time>2026-04-17T09:31:19.519Z</time></trkpt><trkpt lat="46.542655" lon="12.47071"><ele>894.5</ele><time>2026-04-17T09:31:20.518Z</time></trkpt><trkpt lat="46.5426983" lon="12.4707767"><ele>895.0</ele><time>2026-04-17T09:31:21.518Z</time></trkpt><trkpt lat="46.54278" lon="12.4707217"><ele>895.5000000000001</ele><time>2026-04-17T09:31:23.518Z</time></trkpt><trkpt lat="46.54278" lon="12.4706017"><ele>896.0</ele><time>2026-04-17T09:31:24.518Z</time></trkpt><trkpt lat="46.542775" lon="12.4704617"><ele>895.4</ele><time>2026-04-17T09:31:25.522Z</time></trkpt><trkpt lat="46.5427683" lon="12.4702967"><ele>894.8</ele><time>2026-04-17T09:31:26.517Z</time></trkpt><trkpt lat="46.54276" lon="12.4701333"><ele>894.1999999999999</ele><time>2026-04-17T09:31:27.518Z</time></trkpt><trkpt lat="46.54276" lon="12.46999"><ele>893.5999999999999</ele><time>2026-04-17T09:31:28.517Z</time></trkpt><trkpt lat="46.5427633" lon="12.4698883"><ele>893.0</ele><time>2026-04-17T09:31:29.517Z</time></trkpt><trkpt lat="46.542865" lon="12.4698883"><ele>900.2</ele><time>2026-04-17T09:31:31.519Z</time></trkpt><trkpt lat="46.5429317" lon="12.4699633"><ele>907.4</ele><time>2026-04-17T09:31:32.518Z</time></trkpt><trkpt lat="46.543" lon="12.4700883"><ele>914.6000000000001</ele><time>2026-04-17T09:31:33.518Z</time></trkpt><trkpt lat="46.5430533" lon="12.47025"><ele>921.8000000000001</ele><time>2026-04-17T09:31:34.523Z</time></trkpt><trkpt lat="46.5430717" lon="12.470435"><ele>929.0</ele><time>2026-04-17T09:31:35.518Z</time></trkpt><trkpt lat="46.5430633" lon="12.4706433"><ele>931.0</ele><time>2026-04-17T09:31:36.518Z</time></trkpt><trkpt lat="46.543035" lon="12.4708633"><ele>933.0</ele><time>2026-04-17T09:31:37.517Z</time></trkpt><trkpt lat="46.5429917" lon="12.4710917"><ele>935.0</ele><time>2026-04-17T09:31:38.519Z</time></trkpt><trkpt lat="46.5429383" lon="12.4713183"><ele>938.0</ele><time>2026-04-17T09:31:39.518Z</time></trkpt><trkpt lat="46.5428967" lon="12.4715483"><ele>941.0</ele><time>2026-04-17T09:31:40.52Z</time></trkpt><trkpt lat="46.5428833" lon="12.471795"><ele>944.0</ele><time>2026-04-17T09:31:41.519Z</time></trkpt><trkpt lat="46.5428883" lon="12.472055"><ele>948.6666666666667</ele><time>2026-04-17T09:31:42.518Z</time></trkpt><trkpt lat="46.5429033" lon="12.472325"><ele>953.3333333333333</ele><time>2026-04-17T09:31:43.518Z</time></trkpt><trkpt lat="46.5429217" lon="12.4726017"><ele>958.0</ele><time>2026-04-17T09:31:44.519Z</time></trkpt><trkpt lat="46.5429367" lon="12.4728917"><ele>958.0</ele><time>2026-04-17T09:31:45.518Z</time></trkpt><trkpt lat="46.5429483" lon="12.4731933"><ele>958.0</ele><time>2026-04-17T09:31:46.519Z</time></trkpt><trkpt lat="46.5429583" lon="12.4735017"><ele>958.0</ele><time>2026-04-17T09:31:47.519Z</time></trkpt><trkpt lat="46.54299" lon="12.4738183"><ele>956.3333333333333</ele><time>2026-04-17T09:31:48.518Z</time></trkpt><trkpt lat="46.5430567" lon="12.4741183"><ele>954.6666666666667</ele><time>2026-04-17T09:31:49.518Z</time></trkpt><trkpt lat="46.5431517" lon="12.4744067"><ele>953.0</ele><time>2026-04-17T09:31:50.518Z</time></trkpt><trkpt lat="46.54325" lon="12.4746967"><ele>953.0</ele><time>2026-04-17T09:31:51.518Z</time></trkpt><trkpt lat="46.5433317" lon="12.4749917"><ele>953.0</ele><time>2026-04-17T09:31:52.519Z</time></trkpt><trkpt lat="46.5433917" lon="12.47527"><ele>953.0</ele><time>2026-04-17T09:31:53.518Z</time></trkpt><trkpt lat="46.543425" lon="12.4755283"><ele>954.3333333333334</ele><time>2026-04-17T09:31:54.518Z</time></trkpt><trkpt lat="46.543425" lon="12.4757933"><ele>955.6666666666667</ele><time>2026-04-17T09:31:55.518Z</time></trkpt><trkpt lat="46.5434" lon="12.4760667"><ele>957.0</ele><time>2026-04-17T09:31:56.52Z</time></trkpt><trkpt lat="46.543375" lon="12.4762967"><ele>958.6</ele><time>2026-04-17T09:31:57.518Z</time></trkpt><trkpt lat="46.5433683" lon="12.47647"><ele>960.2</ele><time>2026-04-17T09:31:58.518Z</time></trkpt><trkpt lat="46.5433983" lon="12.476615"><ele>961.8</ele><time>2026-04-17T09:31:59.519Z</time></trkpt><trkpt lat="46.5434567" lon="12.4767367"><ele>963.4</ele><time>2026-04-17T09:32:00.518Z</time></trkpt><trkpt lat="46.5435567" lon="12.4768383"><ele>965.0</ele><time>2026-04-17T09:32:01.518Z</time></trkpt><trkpt lat="46.5436883" lon="12.4769317"><ele>971.0</ele><time>2026-04-17T09:32:02.519Z</time></trkpt><trkpt lat="46.5438317" lon="12.4770417"><ele>977.0</ele><time>2026-04-17T09:32:03.518Z</time></trkpt><trkpt lat="46.5439733" lon="12.47716"><ele>983.0</ele><time>2026-04-17T09:32:04.518Z</time></trkpt><trkpt lat="46.544095" lon="12.47729"><ele>983.0</ele><time>2026-04-17T09:32:05.521Z</time></trkpt><trkpt lat="46.5441867" lon="12.4774467"><ele>983.0</ele><time>2026-04-17T09:32:06.517Z</time></trkpt><trkpt lat="46.5442533" lon="12.4776383"><ele>983.0</ele><time>2026-04-17T09:32:07.518Z</time></trkpt><trkpt lat="46.5443067" lon="12.4778333"><ele>983.0</ele><time>2026-04-17T09:32:08.518Z</time></trkpt><trkpt lat="46.5443633" lon="12.4780133"><ele>979.3333333333334</ele><time>2026-04-17T09:32:09.518Z</time></trkpt><trkpt lat="46.544445" lon="12.47819"><ele>975.6666666666667</ele><time>2026-04-17T09:32:10.519Z</time></trkpt><trkpt lat="46.5445533" lon="12.47836"><ele>972.0</ele><time>2026-04-17T09:32:11.52Z</time></trkpt><trkpt lat="46.5446967" lon="12.4785167"><ele>978.25</ele><time>2026-04-17T09:32:12.518Z</time></trkpt><trkpt lat="46.54485" lon="12.478635"><ele>984.5</ele><time>2026-04-17T09:32:13.519Z</time></trkpt><trkpt lat="46.5449867" lon="12.47871"><ele>990.75</ele><time>2026-04-17T09:32:14.518Z</time></trkpt><trkpt lat="46.5450983" lon="12.4787433"><ele>997.0</ele><time>2026-04-17T09:32:15.518Z</time></trkpt><trkpt lat="46.545175" lon="12.4787133"><ele>997.0</ele><time>2026-04-17T09:32:16.519Z</time></trkpt><trkpt lat="46.5452167" lon="12.4786133"><ele>997.0</ele><time>2026-04-17T09:32:17.518Z</time></trkpt><trkpt lat="46.5452233" lon="12.4784617"><ele>997.0</ele><time>2026-04-17T09:32:18.518Z</time></trkpt><trkpt lat="46.545185" lon="12.478295"><ele>997.0</ele><time>2026-04-17T09:32:19.521Z</time></trkpt><trkpt lat="46.5451533" lon="12.4781483"><ele>997.0</ele><time>2026-04-17T09:32:20.52Z</time></trkpt><trkpt lat="46.5451567" lon="12.4780417"><ele>997.0</ele><time>2026-04-17T09:32:21.519Z</time></trkpt><trkpt lat="46.5452133" lon="12.4779883"><ele>997.0</ele><time>2026-04-17T09:32:22.523Z</time></trkpt><trkpt lat="46.5453117" lon="12.477995"><ele>997.0</ele><time>2026-04-17T09:32:23.52Z</time></trkpt><trkpt lat="46.545435" lon="12.4780667"><ele>997.0</ele><time>2026-04-17T09:32:24.519Z</time></trkpt><trkpt lat="46.5455783" lon="12.4782083"><ele>999.6666666666666</ele><time>2026-04-17T09:32:25.52Z</time></trkpt><trkpt lat="46.54572" lon="12.4784133"><ele>1002.3333333333333</ele><time>2026-04-17T09:32:26.522Z</time></trkpt><trkpt lat="46.545865" lon="12.478615"><ele>1005.0</ele><time>2026-04-17T09:32:27.519Z</time></trkpt><trkpt lat="46.5460017" lon="12.4787933"><ele>1005.0</ele><time>2026-04-17T09:32:28.52Z</time></trkpt><trkpt lat="46.546115" lon="12.4789833"><ele>1005.0</ele><time>2026-04-17T09:32:29.522Z</time></trkpt><trkpt lat="46.5461917" lon="12.4792167"><ele>1005.0</ele><time>2026-04-17T09:32:30.518Z</time></trkpt><trkpt lat="46.5462333" lon="12.4795033"><ele>1012.6666666666667</ele><time>2026-04-17T09:32:31.523Z</time></trkpt><trkpt lat="46.5462433" lon="12.4798233"><ele>1020.3333333333334</ele><time>2026-04-17T09:32:32.52Z</time></trkpt><trkpt lat="46.54624" lon="12.4801483"><ele>1028.0</ele><time>2026-04-17T09:32:33.519Z</time></trkpt><trkpt lat="46.546235" lon="12.4804367"><ele>1028.4</ele><time>2026-04-17T09:32:34.52Z</time></trkpt><trkpt lat="46.5462333" lon="12.4806567"><ele>1028.8</ele><time>2026-04-17T09:32:35.519Z</time></trkpt><trkpt lat="46.54625" lon="12.4808117"><ele>1029.2</ele><time>2026-04-17T09:32:36.519Z</time></trkpt><trkpt lat="46.5462967" lon="12.4809283"><ele>1029.6</ele><time>2026-04-17T09:32:37.519Z</time></trkpt><trkpt lat="46.5463683" lon="12.4809917"><ele>1030.0</ele><time>2026-04-17T09:32:38.519Z</time></trkpt><trkpt lat="46.5464467" lon="12.4810167"><ele>1030.0</ele><time>2026-04-17T09:32:39.518Z</time></trkpt><trkpt lat="46.5465483" lon="12.480935"><ele>1030.0</ele><time>2026-04-17T09:32:40.52Z</time></trkpt><trkpt lat="46.5466383" lon="12.4807867"><ele>1030.0</ele><time>2026-04-17T09:32:41.52Z</time></trkpt><trkpt lat="46.5467117" lon="12.4805883"><ele>1030.0</ele><time>2026-04-17T09:32:42.519Z</time></trkpt><trkpt lat="46.5467483" lon="12.480365"><ele>1029.3333333333333</ele><time>2026-04-17T09:32:43.519Z</time></trkpt><trkpt lat="46.546785" lon="12.4801617"><ele>1028.6666666666667</ele><time>2026-04-17T09:32:44.519Z</time></trkpt><trkpt lat="46.5468583" lon="12.4799617"><ele>1028.0</ele><time>2026-04-17T09:32:45.519Z</time></trkpt><trkpt lat="46.546965" lon="12.47976"><ele>1035.3333333333335</ele><time>2026-04-17T09:32:46.52Z</time></trkpt><trkpt lat="46.5470933" lon="12.4795467"><ele>1042.6666666666667</ele><time>2026-04-17T09:32:47.519Z</time></trkpt><trkpt lat="46.547225" lon="12.4793333"><ele>1050.0</ele><time>2026-04-17T09:32:48.519Z</time></trkpt><trkpt lat="46.5473483" lon="12.4791383"><ele>1050.0</ele><time>2026-04-17T09:32:49.519Z</time></trkpt><trkpt lat="46.5474683" lon="12.478995"><ele>1050.0</ele><time>2026-04-17T09:32:50.52Z</time></trkpt><trkpt lat="46.547585" lon="12.4789217"><ele>1050.0</ele><time>2026-04-17T09:32:51.519Z</time></trkpt><trkpt lat="46.5476867" lon="12.47887"><ele>1050.0</ele><time>2026-04-17T09:32:52.519Z</time></trkpt><trkpt lat="46.5477533" lon="12.4788033"><ele>1051.0</ele><time>2026-04-17T09:32:53.521Z</time></trkpt><trkpt lat="46.5477817" lon="12.4787083"><ele>1052.0</ele><time>2026-04-17T09:32:54.519Z</time></trkpt><trkpt lat="46.5477433" lon="12.47859"><ele>1053.0</ele><time>2026-04-17T09:32:55.519Z</time></trkpt><trkpt lat="46.5476567" lon="12.4784433"><ele>1054.0</ele><time>2026-04-17T09:32:56.519Z</time></trkpt><trkpt lat="46.5475583" lon="12.47826"><ele>1054.0</ele><time>2026-04-17T09:32:57.518Z</time></trkpt><trkpt lat="46.5474633" lon="12.4780267"><ele>1054.0</ele><time>2026-04-17T09:32:58.523Z</time></trkpt><trkpt lat="46.54737" lon="12.4777867"><ele>1054.0</ele><time>2026-04-17T09:32:59.519Z</time></trkpt><trkpt lat="46.547295" lon="12.4775817"><ele>1057.6000000000001</ele><time>2026-04-17T09:33:00.519Z</time></trkpt><trkpt lat="46.5472433" lon="12.477425"><ele>1061.2</ele><time>2026-04-17T09:33:01.523Z</time></trkpt><trkpt lat="46.54723" lon="12.477305"><ele>1064.8000000000002</ele><time>2026-04-17T09:33:02.519Z</time></trkpt><trkpt lat="46.5473083" lon="12.4771717"><ele>1068.4</ele><time>2026-04-17T09:33:04.518Z</time></trkpt><trkpt lat="46.5473817" lon="12.47722"><ele>1072.0</ele><time>2026-04-17T09:33:05.52Z</time></trkpt><trkpt lat="46.5474717" lon="12.4773383"><ele>1072.0</ele><time>2026-04-17T09:33:06.519Z</time></trkpt><trkpt lat="46.54758" lon="12.4775233"><ele>1072.0</ele><time>2026-04-17T09:33:07.523Z</time></trkpt><trkpt lat="46.54771" lon="12.4777183"><ele>1072.0</ele><time>2026-04-17T09:33:08.526Z</time></trkpt><trkpt lat="46.5478617" lon="12.4779417"><ele>1078.0</ele><time>2026-04-17T09:33:09.519Z</time></trkpt><trkpt lat="46.548025" lon="12.478185"><ele>1084.0</ele><time>2026-04-17T09:33:10.519Z</time></trkpt><trkpt lat="46.5482033" lon="12.478445"><ele>1084.0</ele><time>2026-04-17T09:33:11.519Z</time></trkpt><trkpt lat="46.5483767" lon="12.4787033"><ele>1084.0</ele><time>2026-04-17T09:33:12.519Z</time></trkpt><trkpt lat="46.548525" lon="12.4789367"><ele>1082.0</ele><time>2026-04-17T09:33:13.519Z</time></trkpt><trkpt lat="46.5486483" lon="12.4791267"><ele>1080.0</ele><time>2026-04-17T09:33:14.521Z</time></trkpt><trkpt lat="46.5487433" lon="12.4792767"><ele>1078.0</ele><time>2026-04-17T09:33:15.519Z</time></trkpt><trkpt lat="46.5487867" lon="12.47941"><ele>1076.0</ele><time>2026-04-17T09:33:16.52Z</time></trkpt><trkpt lat="46.5487933" lon="12.47953"><ele>1080.0</ele><time>2026-04-17T09:33:17.52Z</time></trkpt><trkpt lat="46.548765" lon="12.47963"><ele>1084.0</ele><time>2026-04-17T09:33:18.519Z</time></trkpt><trkpt lat="46.548655" lon="12.4796733"><ele>1088.0</ele><time>2026-04-17T09:33:19.519Z</time></trkpt><trkpt lat="46.5485267" lon="12.479685"><ele>1092.0</ele><time>2026-04-17T09:33:20.521Z</time></trkpt><trkpt lat="46.5483867" lon="12.4796883"><ele>1092.0</ele><time>2026-04-17T09:33:21.519Z</time></trkpt><trkpt lat="46.5482633" lon="12.479705"><ele>1092.0</ele><time>2026-04-17T09:33:22.519Z</time></trkpt><trkpt lat="46.5481683" lon="12.47975"><ele>1092.0</ele><time>2026-04-17T09:33:23.52Z</time></trkpt><trkpt lat="46.5481117" lon="12.4798333"><ele>1092.0</ele><time>2026-04-17T09:33:24.519Z</time></trkpt><trkpt lat="46.5480717" lon="12.479925"><ele>1092.0</ele><time>2026-04-17T09:33:25.519Z</time></trkpt><trkpt lat="46.5480917" lon="12.480075"><ele>1092.0</ele><time>2026-04-17T09:33:26.52Z</time></trkpt><trkpt lat="46.5481383" lon="12.48026"><ele>1092.0</ele><time>2026-04-17T09:33:27.519Z</time></trkpt><trkpt lat="46.5482033" lon="12.4804683"><ele>1092.0</ele><time>2026-04-17T09:33:28.52Z</time></trkpt><trkpt lat="46.5482683" lon="12.480685"><ele>1093.6</ele><time>2026-04-17T09:33:29.519Z</time></trkpt><trkpt lat="46.5483233" lon="12.4808783"><ele>1095.2</ele><time>2026-04-17T09:33:30.52Z</time></trkpt><trkpt lat="46.5483733" lon="12.4810217"><ele>1096.8</ele><time>2026-04-17T09:33:31.52Z</time></trkpt><trkpt lat="46.5484333" lon="12.481115"><ele>1098.4</ele><time>2026-04-17T09:33:32.519Z</time></trkpt><trkpt lat="46.5484833" lon="12.4811717"><ele>1100.0</ele><time>2026-04-17T09:33:33.519Z</time></trkpt><trkpt lat="46.5485517" lon="12.4811383"><ele>1100.0</ele><time>2026-04-17T09:33:34.52Z</time></trkpt><trkpt lat="46.548605" lon="12.4810617"><ele>1100.0</ele><time>2026-04-17T09:33:35.519Z</time></trkpt><trkpt lat="46.5486233" lon="12.4809083"><ele>1100.0</ele><time>2026-04-17T09:33:36.519Z</time></trkpt><trkpt lat="46.5486267" lon="12.4807383"><ele>1100.0</ele><time>2026-04-17T09:33:37.522Z</time></trkpt><trkpt lat="46.54865" lon="12.4805917"><ele>1100.0</ele><time>2026-04-17T09:33:38.521Z</time></trkpt><trkpt lat="46.54872" lon="12.4804917"><ele>1104.5</ele><time>2026-04-17T09:33:39.519Z</time></trkpt><trkpt lat="46.54881" lon="12.48046"><ele>1109.0</ele><time>2026-04-17T09:33:40.52Z</time></trkpt><trkpt lat="46.5489267" lon="12.4804767"><ele>1113.5</ele><time>2026-04-17T09:33:41.52Z</time></trkpt><trkpt lat="46.5490767" lon="12.4805317"><ele>1118.0</ele><time>2026-04-17T09:33:42.518Z</time></trkpt><trkpt lat="46.5492417" lon="12.4805967"><ele>1118.0</ele><time>2026-04-17T09:33:43.518Z</time></trkpt><trkpt lat="46.5494117" lon="12.480665"><ele>1118.0</ele><time>2026-04-17T09:33:44.519Z</time></trkpt><trkpt lat="46.5495667" lon="12.48074"><ele>1118.0</ele><time>2026-04-17T09:33:45.519Z</time></trkpt><trkpt lat="46.549695" lon="12.48079"><ele>1120.3333333333335</ele><time>2026-04-17T09:33:46.52Z</time></trkpt><trkpt lat="46.5498033" lon="12.4808117"><ele>1122.6666666666667</ele><time>2026-04-17T09:33:47.52Z</time></trkpt><trkpt lat="46.549885" lon="12.4807733"><ele>1125.0</ele><time>2026-04-17T09:33:48.52Z</time></trkpt><trkpt lat="46.5499483" lon="12.4807083"><ele>1127.3333333333333</ele><time>2026-04-17T09:33:49.521Z</time></trkpt><trkpt lat="46.5499983" lon="12.4806183"><ele>1129.6666666666665</ele><time>2026-04-17T09:33:50.52Z</time></trkpt><trkpt lat="46.550025" lon="12.4805017"><ele>1132.0</ele><time>2026-04-17T09:33:51.519Z</time></trkpt><trkpt lat="46.5500033" lon="12.4803133"><ele>1132.4</ele><time>2026-04-17T09:33:52.518Z</time></trkpt><trkpt lat="46.550015" lon="12.4801967"><ele>1132.8000000000002</ele><time>2026-04-17T09:33:53.519Z</time></trkpt><trkpt lat="46.5500333" lon="12.4801017"><ele>1133.2</ele><time>2026-04-17T09:33:54.519Z</time></trkpt><trkpt lat="46.55011" lon="12.48001"><ele>1133.6000000000001</ele><time>2026-04-17T09:33:56.519Z</time></trkpt><trkpt lat="46.55014" lon="12.4802267"><ele>1134.0</ele><time>2026-04-17T09:33:57.52Z</time></trkpt><trkpt lat="46.550185" lon="12.4804167"><ele>1133.3333333333333</ele><time>2026-04-17T09:33:58.519Z</time></trkpt><trkpt lat="46.5502333" lon="12.4806417"><ele>1132.6666666666665</ele><time>2026-04-17T09:33:59.521Z</time></trkpt><trkpt lat="46.5503017" lon="12.4808783"><ele>1132.0</ele><time>2026-04-17T09:34:00.522Z</time></trkpt><trkpt lat="46.5503533" lon="12.4810817"><ele>1132.0</ele><time>2026-04-17T09:34:01.521Z</time></trkpt><trkpt lat="46.5503667" lon="12.4812333"><ele>1132.0</ele><time>2026-04-17T09:34:02.519Z</time></trkpt><trkpt lat="46.5503383" lon="12.4813517"><ele>1132.0</ele><time>2026-04-17T09:34:03.518Z</time></trkpt><trkpt lat="46.5502733" lon="12.4814367"><ele>1132.0</ele><time>2026-04-17T09:34:04.518Z</time></trkpt><trkpt lat="46.5501933" lon="12.48149"><ele>1132.0</ele><time>2026-04-17T09:34:05.519Z</time></trkpt><trkpt lat="46.5500533" lon="12.481485"><ele>1134.4</ele><time>2026-04-17T09:34:06.518Z</time></trkpt><trkpt lat="46.5499433" lon="12.4815133"><ele>1136.8000000000002</ele><time>2026-04-17T09:34:07.519Z</time></trkpt><trkpt lat="46.5498683" lon="12.4815683"><ele>1139.2</ele><time>2026-04-17T09:34:08.52Z</time></trkpt><trkpt lat="46.5498367" lon="12.481655"><ele>1141.6000000000001</ele><time>2026-04-17T09:34:09.518Z</time></trkpt><trkpt lat="46.5498417" lon="12.4817817"><ele>1144.0</ele><time>2026-04-17T09:34:10.52Z</time></trkpt><trkpt lat="46.5498833" lon="12.481945"><ele>1147.0</ele><time>2026-04-17T09:34:11.519Z</time></trkpt><trkpt lat="46.54995" lon="12.48214"><ele>1150.0</ele><time>2026-04-17T09:34:12.52Z</time></trkpt><trkpt lat="46.5500317" lon="12.4823617"><ele>1153.0</ele><time>2026-04-17T09:34:13.523Z</time></trkpt><trkpt lat="46.550125" lon="12.4826033"><ele>1153.0</ele><time>2026-04-17T09:34:14.519Z</time></trkpt><trkpt lat="46.5502117" lon="12.482845"><ele>1153.0</ele><time>2026-04-17T09:34:15.518Z</time></trkpt><trkpt lat="46.550285" lon="12.483045"><ele>1153.0</ele><time>2026-04-17T09:34:16.529Z</time></trkpt><trkpt lat="46.5503467" lon="12.48319"><ele>1157.0</ele><time>2026-04-17T09:34:17.52Z</time></trkpt><trkpt lat="46.55041" lon="12.4832817"><ele>1161.0</ele><time>2026-04-17T09:34:18.519Z</time></trkpt><trkpt lat="46.5505067" lon="12.4832383"><ele>1165.0</ele><time>2026-04-17T09:34:20.52Z</time></trkpt><trkpt lat="46.550515" lon="12.4831133"><ele>1169.0</ele><time>2026-04-17T09:34:21.518Z</time></trkpt><trkpt lat="46.5505017" lon="12.4829483"><ele>1173.0</ele><time>2026-04-17T09:34:22.519Z</time></trkpt><trkpt lat="46.550495" lon="12.482795"><ele>1173.0</ele><time>2026-04-17T09:34:23.52Z</time></trkpt><trkpt lat="46.5505233" lon="12.4826967"><ele>1173.0</ele><time>2026-04-17T09:34:24.519Z</time></trkpt><trkpt lat="46.5506367" lon="12.4826733"><ele>1173.0</ele><time>2026-04-17T09:34:26.519Z</time></trkpt><trkpt lat="46.5507083" lon="12.4827317"><ele>1173.0</ele><time>2026-04-17T09:34:27.517Z</time></trkpt><trkpt lat="46.55079" lon="12.4828067"><ele>1173.0</ele><time>2026-04-17T09:34:28.518Z</time></trkpt><trkpt lat="46.550875" lon="12.4828633"><ele>1173.0</ele><time>2026-04-17T09:34:29.519Z</time></trkpt><trkpt lat="46.5509683" lon="12.4828333"><ele>1173.0</ele><time>2026-04-17T09:34:30.519Z</time></trkpt><trkpt lat="46.5510533" lon="12.482775"><ele>1173.0</ele><time>2026-04-17T09:34:31.518Z</time></trkpt><trkpt lat="46.5511217" lon="12.48264"><ele>1173.0</ele><time>2026-04-17T09:34:32.519Z</time></trkpt><trkpt lat="46.551175" lon="12.48246"><ele>1173.0</ele><time>2026-04-17T09:34:33.519Z</time></trkpt><trkpt lat="46.5512317" lon="12.4822483"><ele>1184.0</ele><time>2026-04-17T09:34:34.519Z</time></trkpt><trkpt lat="46.551295" lon="12.48201"><ele>1195.0</ele><time>2026-04-17T09:34:35.519Z</time></trkpt><trkpt lat="46.551365" lon="12.481755"><ele>1206.0</ele><time>2026-04-17T09:34:36.518Z</time></trkpt><trkpt lat="46.5514333" lon="12.48148"><ele>1208.3333333333333</ele><time>2026-04-17T09:34:37.519Z</time></trkpt><trkpt lat="46.5514783" lon="12.4811967"><ele>1210.6666666666665</ele><time>2026-04-17T09:34:38.519Z</time></trkpt><trkpt lat="46.5514933" lon="12.4808967"><ele>1213.0</ele><time>2026-04-17T09:34:39.518Z</time></trkpt><trkpt lat="46.5514733" lon="12.4806"><ele>1219.3333333333333</ele><time>2026-04-17T09:34:40.519Z</time></trkpt><trkpt lat="46.5514333" lon="12.480315"><ele>1225.6666666666667</ele><time>2026-04-17T09:34:41.519Z</time></trkpt><trkpt lat="46.5513683" lon="12.4800617"><ele>1232.0</ele><time>2026-04-17T09:34:42.519Z</time></trkpt><trkpt lat="46.55128" lon="12.4798183"><ele>1221.3333333333335</ele><time>2026-04-17T09:34:43.52Z</time></trkpt><trkpt lat="46.551185" lon="12.4795567"><ele>1210.6666666666667</ele><time>2026-04-17T09:34:44.519Z</time></trkpt><trkpt lat="46.5510933" lon="12.4792833"><ele>1200.0</ele><time>2026-04-17T09:34:45.519Z</time></trkpt><trkpt lat="46.5510117" lon="12.47899"><ele>1205.6666666666667</ele><time>2026-04-17T09:34:46.518Z</time></trkpt><trkpt lat="46.55094" lon="12.4786817"><ele>1211.3333333333335</ele><time>2026-04-17T09:34:47.519Z</time></trkpt><trkpt lat="46.5508583" lon="12.478385"><ele>1217.0</ele><time>2026-04-17T09:34:48.519Z</time></trkpt><trkpt lat="46.5507883" lon="12.4780783"><ele>1221.6666666666667</ele><time>2026-04-17T09:34:49.519Z</time></trkpt><trkpt lat="46.5507217" lon="12.4777967"><ele>1226.3333333333333</ele><time>2026-04-17T09:34:50.519Z</time></trkpt><trkpt lat="46.5506817" lon="12.47753"><ele>1231.0</ele><time>2026-04-17T09:34:51.518Z</time></trkpt><trkpt lat="46.5506567" lon="12.477285"><ele>1234.0</ele><time>2026-04-17T09:34:52.518Z</time></trkpt><trkpt lat="46.55067" lon="12.4770117"><ele>1237.0</ele><time>2026-04-17T09:34:53.519Z</time></trkpt><trkpt lat="46.5506917" lon="12.4767267"><ele>1240.0</ele><time>2026-04-17T09:34:54.519Z</time></trkpt><trkpt lat="46.55071" lon="12.4764467"><ele>1242.6666666666665</ele><time>2026-04-17T09:34:55.522Z</time></trkpt><trkpt lat="46.55071" lon="12.4761717"><ele>1245.3333333333333</ele><time>2026-04-17T09:34:56.519Z</time></trkpt><trkpt lat="46.5506967" lon="12.4758967"><ele>1248.0</ele><time>2026-04-17T09:34:57.519Z</time></trkpt><trkpt lat="46.55067" lon="12.47565"><ele>1248.0</ele><time>2026-04-17T09:34:58.52Z</time></trkpt><trkpt lat="46.5506333" lon="12.4754667"><ele>1248.0</ele><time>2026-04-17T09:34:59.519Z</time></trkpt><trkpt lat="46.5506067" lon="12.4753417"><ele>1248.0</ele><time>2026-04-17T09:35:00.519Z</time></trkpt><trkpt lat="46.55065" lon="12.4752717"><ele>1248.0</ele><time>2026-04-17T09:35:02.524Z</time></trkpt><trkpt lat="46.55069" lon="12.475345"><ele>1248.0</ele><time>2026-04-17T09:35:03.523Z</time></trkpt><trkpt lat="46.5507333" lon="12.4754733"><ele>1248.0</ele><time>2026-04-17T09:35:04.52Z</time></trkpt><trkpt lat="46.550805" lon="12.47565"><ele>1248.0</ele><time>2026-04-17T09:35:05.519Z</time></trkpt><trkpt lat="46.55088" lon="12.4758417"><ele>1248.0</ele><time>2026-04-17T09:35:06.519Z</time></trkpt><trkpt lat="46.5509433" lon="12.4760367"><ele>1248.0</ele><time>2026-04-17T09:35:07.519Z</time></trkpt><trkpt lat="46.5509733" lon="12.476215"><ele>1248.0</ele><time>2026-04-17T09:35:08.519Z</time></trkpt><trkpt lat="46.5509867" lon="12.4763683"><ele>1248.0</ele><time>2026-04-17T09:35:09.518Z</time></trkpt><trkpt lat="46.55101" lon="12.4764783"><ele>1248.0</ele><time>2026-04-17T09:35:10.519Z</time></trkpt><trkpt lat="46.55109" lon="12.4765217"><ele>1248.0</ele><time>2026-04-17T09:35:12.519Z</time></trkpt><trkpt lat="46.5511183" lon="12.4764383"><ele>1248.0</ele><time>2026-04-17T09:35:13.519Z</time></trkpt><trkpt lat="46.551115" lon="12.4762717"><ele>1248.0</ele><time>2026-04-17T09:35:14.519Z</time></trkpt><trkpt lat="46.5510883" lon="12.4760417"><ele>1248.0</ele><time>2026-04-17T09:35:15.517Z</time></trkpt><trkpt lat="46.5510533" lon="12.4757633"><ele>1248.0</ele><time>2026-04-17T09:35:16.52Z</time></trkpt><trkpt lat="46.5510033" lon="12.475455"><ele>1248.0</ele><time>2026-04-17T09:35:17.518Z</time></trkpt><trkpt lat="46.5509517" lon="12.4751683"><ele>1249.6</ele><time>2026-04-17T09:35:18.518Z</time></trkpt><trkpt lat="46.5509133" lon="12.474955"><ele>1251.1999999999998</ele><time>2026-04-17T09:35:19.52Z</time></trkpt><trkpt lat="46.5508933" lon="12.4748333"><ele>1252.8</ele><time>2026-04-17T09:35:20.518Z</time></trkpt><trkpt lat="46.5509033" lon="12.4747417"><ele>1254.3999999999999</ele><time>2026-04-17T09:35:21.517Z</time></trkpt><trkpt lat="46.5510033" lon="12.4747517"><ele>1256.0</ele><time>2026-04-17T09:35:23.518Z</time></trkpt><trkpt lat="46.5510533" lon="12.4749017"><ele>1256.0</ele><time>2026-04-17T09:35:24.517Z</time></trkpt><trkpt lat="46.5511033" lon="12.4751133"><ele>1256.0</ele><time>2026-04-17T09:35:25.518Z</time></trkpt><trkpt lat="46.5511767" lon="12.4753583"><ele>1256.0</ele><time>2026-04-17T09:35:26.52Z</time></trkpt><trkpt lat="46.551255" lon="12.4756433"><ele>1268.6666666666667</ele><time>2026-04-17T09:35:27.518Z</time></trkpt><trkpt lat="46.5513217" lon="12.4759517"><ele>1281.3333333333333</ele><time>2026-04-17T09:35:28.521Z</time></trkpt><trkpt lat="46.55137" lon="12.4762567"><ele>1294.0</ele><time>2026-04-17T09:35:29.518Z</time></trkpt><trkpt lat="46.5514017" lon="12.476535"><ele>1294.0</ele><time>2026-04-17T09:35:30.518Z</time></trkpt><trkpt lat="46.5514367" lon="12.4767933"><ele>1294.0</ele><time>2026-04-17T09:35:31.518Z</time></trkpt><trkpt lat="46.5514833" lon="12.4770583"><ele>1294.0</ele><time>2026-04-17T09:35:32.518Z</time></trkpt><trkpt lat="46.5515633" lon="12.477345"><ele>1292.5</ele><time>2026-04-17T09:35:33.522Z</time></trkpt><trkpt lat="46.55169" lon="12.4776517"><ele>1291.0</ele><time>2026-04-17T09:35:34.519Z</time></trkpt><trkpt lat="46.55183" lon="12.477975"><ele>1282.5</ele><time>2026-04-17T09:35:35.517Z</time></trkpt><trkpt lat="46.551985" lon="12.4783217"><ele>1274.0</ele><time>2026-04-17T09:35:36.518Z</time></trkpt><trkpt lat="46.55215" lon="12.4786833"><ele>1294.5</ele><time>2026-04-17T09:35:37.519Z</time></trkpt><trkpt lat="46.5523217" lon="12.47906"><ele>1315.0</ele><time>2026-04-17T09:35:38.517Z</time></trkpt><trkpt lat="46.5525017" lon="12.4794333"><ele>1303.5</ele><time>2026-04-17T09:35:39.518Z</time></trkpt><trkpt lat="46.5526867" lon="12.479815"><ele>1292.0</ele><time>2026-04-17T09:35:40.518Z</time></trkpt><trkpt lat="46.55286" lon="12.4802167"><ele>1313.5</ele><time>2026-04-17T09:35:41.518Z</time></trkpt><trkpt lat="46.5530333" lon="12.4806283"><ele>1335.0</ele><time>2026-04-17T09:35:42.518Z</time></trkpt><trkpt lat="46.5532117" lon="12.481045"><ele>1326.5</ele><time>2026-04-17T09:35:43.519Z</time></trkpt><trkpt lat="46.5533767" lon="12.4814817"><ele>1318.0</ele><time>2026-04-17T09:35:44.519Z</time></trkpt><trkpt lat="46.5535283" lon="12.4819367"><ele>1313.5</ele><time>2026-04-17T09:35:45.518Z</time></trkpt><trkpt lat="46.5536683" lon="12.4823817"><ele>1309.0</ele><time>2026-04-17T09:35:46.518Z</time></trkpt><trkpt lat="46.553795" lon="12.4828067"><ele>1329.0</ele><time>2026-04-17T09:35:47.518Z</time></trkpt><trkpt lat="46.5539083" lon="12.4832"><ele>1349.0</ele><time>2026-04-17T09:35:48.518Z</time></trkpt><trkpt lat="46.5540133" lon="12.483565"><ele>1346.0</ele><time>2026-04-17T09:35:49.518Z</time></trkpt><trkpt lat="46.5541117" lon="12.4839117"><ele>1343.0</ele><time>2026-04-17T09:35:50.519Z</time></trkpt><trkpt lat="46.55421" lon="12.4842317"><ele>1343.0</ele><time>2026-04-17T09:35:51.518Z</time></trkpt><trkpt lat="46.5543233" lon="12.4845317"><ele>1343.0</ele><time>2026-04-17T09:35:52.518Z</time></trkpt><trkpt lat="46.5544517" lon="12.4848133"><ele>1346.3333333333335</ele><time>2026-04-17T09:35:53.519Z</time></trkpt><trkpt lat="46.5545783" lon="12.4850733"><ele>1349.6666666666667</ele><time>2026-04-17T09:35:54.517Z</time></trkpt><trkpt lat="46.5547" lon="12.485305"><ele>1353.0</ele><time>2026-04-17T09:35:55.519Z</time></trkpt><trkpt lat="46.554825" lon="12.485495"><ele>1353.0</ele><time>2026-04-17T09:35:56.519Z</time></trkpt><trkpt lat="46.554955" lon="12.48565"><ele>1353.0</ele><time>2026-04-17T09:35:57.519Z</time></trkpt><trkpt lat="46.5551" lon="12.4857783"><ele>1353.0</ele><time>2026-04-17T09:35:58.518Z</time></trkpt><trkpt lat="46.5552683" lon="12.485875"><ele>1361.3333333333333</ele><time>2026-04-17T09:35:59.519Z</time></trkpt><trkpt lat="46.5554567" lon="12.4859617"><ele>1369.6666666666665</ele><time>2026-04-17T09:36:00.519Z</time></trkpt><trkpt lat="46.55564" lon="12.4860383"><ele>1378.0</ele><time>2026-04-17T09:36:01.519Z</time></trkpt><trkpt lat="46.5558117" lon="12.486125"><ele>1378.0</ele><time>2026-04-17T09:36:02.519Z</time></trkpt><trkpt lat="46.5559683" lon="12.4862517"><ele>1378.0</ele><time>2026-04-17T09:36:03.519Z</time></trkpt><trkpt lat="46.5561233" lon="12.4864017"><ele>1378.0</ele><time>2026-04-17T09:36:04.519Z</time></trkpt><trkpt lat="46.556265" lon="12.4865583"><ele>1378.4</ele><time>2026-04-17T09:36:05.518Z</time></trkpt><trkpt lat="46.556375" lon="12.486695"><ele>1378.8000000000002</ele><time>2026-04-17T09:36:06.519Z</time></trkpt><trkpt lat="46.5564633" lon="12.4867933"><ele>1379.2</ele><time>2026-04-17T09:36:07.519Z</time></trkpt><trkpt lat="46.5565417" lon="12.486845"><ele>1379.6</ele><time>2026-04-17T09:36:08.519Z</time></trkpt><trkpt lat="46.5566133" lon="12.4868567"><ele>1380.0</ele><time>2026-04-17T09:36:09.519Z</time></trkpt><trkpt lat="46.556695" lon="12.4868267"><ele>1380.0</ele><time>2026-04-17T09:36:10.518Z</time></trkpt><trkpt lat="46.556795" lon="12.48677"><ele>1380.0</ele><time>2026-04-17T09:36:11.519Z</time></trkpt><trkpt lat="46.5568967" lon="12.486685"><ele>1380.0</ele><time>2026-04-17T09:36:12.519Z</time></trkpt><trkpt lat="46.5569783" lon="12.486575"><ele>1380.0</ele><time>2026-04-17T09:36:13.521Z</time></trkpt><trkpt lat="46.557045" lon="12.486435"><ele>1380.3333333333333</ele><time>2026-04-17T09:36:14.519Z</time></trkpt><trkpt lat="46.55709" lon="12.4863017"><ele>1380.6666666666667</ele><time>2026-04-17T09:36:15.519Z</time></trkpt><trkpt lat="46.55713" lon="12.4862183"><ele>1381.0</ele><time>2026-04-17T09:36:16.518Z</time></trkpt><trkpt lat="46.5572033" lon="12.4862017"><ele>1381.3333333333335</ele><time>2026-04-17T09:36:19.519Z</time></trkpt><trkpt lat="46.55726" lon="12.4862617"><ele>1381.6666666666667</ele><time>2026-04-17T09:36:22.518Z</time></trkpt><trkpt lat="46.5572917" lon="12.486355"><ele>1382.0</ele><time>2026-04-17T09:36:29.519Z</time></trkpt><trkpt lat="46.5572517" lon="12.4862767"><ele>1382.0</ele><time>2026-04-17T09:39:32.522Z</time></trkpt><trkpt lat="46.557205" lon="12.4861967"><ele>1382.0</ele><time>2026-04-17T09:39:35.518Z</time></trkpt><trkpt lat="46.55712" lon="12.4862117"><ele>1382.0</ele><time>2026-04-17T09:39:39.52Z</time></trkpt><trkpt lat="46.5570583" lon="12.486325"><ele>1382.0</ele><time>2026-04-17T09:39:41.519Z</time></trkpt><trkpt lat="46.5570033" lon="12.4864883"><ele>1382.0</ele><time>2026-04-17T09:39:43.518Z</time></trkpt><trkpt lat="46.5569633" lon="12.4865633"><ele>1382.0</ele><time>2026-04-17T09:39:44.519Z</time></trkpt><trkpt lat="46.5569083" lon="12.4866283"><ele>1381.6666666666667</ele><time>2026-04-17T09:39:45.518Z</time></trkpt><trkpt lat="46.55683" lon="12.486685"><ele>1381.3333333333335</ele><time>2026-04-17T09:39:46.519Z</time></trkpt><trkpt lat="46.556745" lon="12.486735"><ele>1381.0</ele><time>2026-04-17T09:39:47.52Z</time></trkpt><trkpt lat="46.55666" lon="12.4867783"><ele>1380.6666666666667</ele><time>2026-04-17T09:39:48.518Z</time></trkpt><trkpt lat="46.55658" lon="12.4868017"><ele>1380.3333333333333</ele><time>2026-04-17T09:39:49.518Z</time></trkpt><trkpt lat="46.5565017" lon="12.4867733"><ele>1380.0</ele><time>2026-04-17T09:39:50.519Z</time></trkpt><trkpt lat="46.5564167" lon="12.4867183"><ele>1380.0</ele><time>2026-04-17T09:39:51.518Z</time></trkpt><trkpt lat="46.5563217" lon="12.4866133"><ele>1380.0</ele><time>2026-04-17T09:39:52.518Z</time></trkpt><trkpt lat="46.5562067" lon="12.4864767"><ele>1380.0</ele><time>2026-04-17T09:39:53.519Z</time></trkpt><trkpt lat="46.5560867" lon="12.4863317"><ele>1380.0</ele><time>2026-04-17T09:39:54.519Z</time></trkpt><trkpt lat="46.5559633" lon="12.4862"><ele>1379.3333333333333</ele><time>2026-04-17T09:39:55.518Z</time></trkpt><trkpt lat="46.55583" lon="12.48609"><ele>1378.6666666666665</ele><time>2026-04-17T09:39:56.519Z</time></trkpt><trkpt lat="46.5556817" lon="12.4860067"><ele>1378.0</ele><time>2026-04-17T09:39:57.518Z</time></trkpt><trkpt lat="46.55553" lon="12.4859317"><ele>1369.6666666666665</ele><time>2026-04-17T09:39:58.519Z</time></trkpt><trkpt lat="46.55537" lon="12.4858717"><ele>1361.3333333333333</ele><time>2026-04-17T09:39:59.518Z</time></trkpt><trkpt lat="46.5552117" lon="12.4858083"><ele>1353.0</ele><time>2026-04-17T09:40:00.518Z</time></trkpt><trkpt lat="46.5550667" lon="12.4857383"><ele>1353.0</ele><time>2026-04-17T09:40:01.519Z</time></trkpt><trkpt lat="46.5549317" lon="12.485635"><ele>1353.0</ele><time>2026-04-17T09:40:02.521Z</time></trkpt><trkpt lat="46.5547983" lon="12.4855067"><ele>1353.0</ele><time>2026-04-17T09:40:03.518Z</time></trkpt><trkpt lat="46.5546733" lon="12.48534"><ele>1358.3333333333333</ele><time>2026-04-17T09:40:04.518Z</time></trkpt><trkpt lat="46.554565" lon="12.4851383"><ele>1363.6666666666665</ele><time>2026-04-17T09:40:05.52Z</time></trkpt><trkpt lat="46.5544483" lon="12.4849233"><ele>1369.0</ele><time>2026-04-17T09:40:06.519Z</time></trkpt><trkpt lat="46.5543333" lon="12.4846983"><ele>1360.3333333333333</ele><time>2026-04-17T09:40:07.518Z</time></trkpt><trkpt lat="46.554235" lon="12.4844567"><ele>1351.6666666666667</ele><time>2026-04-17T09:40:08.518Z</time></trkpt><trkpt lat="46.5541467" lon="12.4842033"><ele>1343.0</ele><time>2026-04-17T09:40:09.518Z</time></trkpt><trkpt lat="46.554065" lon="12.483935"><ele>1345.0</ele><time>2026-04-17T09:40:10.518Z</time></trkpt><trkpt lat="46.5539867" lon="12.4836517"><ele>1347.0</ele><time>2026-04-17T09:40:11.519Z</time></trkpt><trkpt lat="46.5539033" lon="12.4833683"><ele>1349.0</ele><time>2026-04-17T09:40:12.52Z</time></trkpt><trkpt lat="46.5538167" lon="12.4830917"><ele>1351.6666666666667</ele><time>2026-04-17T09:40:13.522Z</time></trkpt><trkpt lat="46.5537317" lon="12.48281"><ele>1354.3333333333333</ele><time>2026-04-17T09:40:14.519Z</time></trkpt><trkpt lat="46.5536417" lon="12.48254"><ele>1357.0</ele><time>2026-04-17T09:40:15.519Z</time></trkpt><trkpt lat="46.5535583" lon="12.4822567"><ele>1344.0</ele><time>2026-04-17T09:40:16.518Z</time></trkpt><trkpt lat="46.553465" lon="12.4819717"><ele>1331.0</ele><time>2026-04-17T09:40:17.519Z</time></trkpt><trkpt lat="46.5533767" lon="12.4816833"><ele>1318.0</ele><time>2026-04-17T09:40:18.519Z</time></trkpt><trkpt lat="46.5532833" lon="12.481405"><ele>1326.5</ele><time>2026-04-17T09:40:19.519Z</time></trkpt><trkpt lat="46.5531783" lon="12.4811183"><ele>1335.0</ele><time>2026-04-17T09:40:20.52Z</time></trkpt><trkpt lat="46.5530717" lon="12.48081"><ele>1335.0</ele><time>2026-04-17T09:40:21.52Z</time></trkpt><trkpt lat="46.5529517" lon="12.4805"><ele>1335.0</ele><time>2026-04-17T09:40:22.52Z</time></trkpt><trkpt lat="46.55282" lon="12.48019"><ele>1313.5</ele><time>2026-04-17T09:40:23.522Z</time></trkpt><trkpt lat="46.5526683" lon="12.4798983"><ele>1292.0</ele><time>2026-04-17T09:40:24.52Z</time></trkpt><trkpt lat="46.5525233" lon="12.4796017"><ele>1303.5</ele><time>2026-04-17T09:40:25.52Z</time></trkpt><trkpt lat="46.5523883" lon="12.47931"><ele>1315.0</ele><time>2026-04-17T09:40:26.52Z</time></trkpt><trkpt lat="46.5522667" lon="12.4790083"><ele>1322.5</ele><time>2026-04-17T09:40:27.519Z</time></trkpt><trkpt lat="46.5521483" lon="12.478705"><ele>1330.0</ele><time>2026-04-17T09:40:28.519Z</time></trkpt><trkpt lat="46.5520233" lon="12.478405"><ele>1310.5</ele><time>2026-04-17T09:40:29.52Z</time></trkpt><trkpt lat="46.5518933" lon="12.47811"><ele>1291.0</ele><time>2026-04-17T09:40:30.52Z</time></trkpt><trkpt lat="46.5517733" lon="12.4778133"><ele>1291.0</ele><time>2026-04-17T09:40:31.52Z</time></trkpt><trkpt lat="46.5516617" lon="12.4775217"><ele>1291.0</ele><time>2026-04-17T09:40:32.521Z</time></trkpt><trkpt lat="46.5515483" lon="12.4772533"><ele>1291.0</ele><time>2026-04-17T09:40:33.524Z</time></trkpt><trkpt lat="46.5514567" lon="12.476995"><ele>1292.0</ele><time>2026-04-17T09:40:34.519Z</time></trkpt><trkpt lat="46.5514" lon="12.476725"><ele>1293.0</ele><time>2026-04-17T09:40:35.519Z</time></trkpt><trkpt lat="46.5513583" lon="12.476445"><ele>1294.0</ele><time>2026-04-17T09:40:36.523Z</time></trkpt><trkpt lat="46.551325" lon="12.4761717"><ele>1294.6666666666665</ele><time>2026-04-17T09:40:37.52Z</time></trkpt><trkpt lat="46.5512867" lon="12.4759083"><ele>1295.3333333333333</ele><time>2026-04-17T09:40:38.52Z</time></trkpt><trkpt lat="46.5512233" lon="12.4756517"><ele>1296.0</ele><time>2026-04-17T09:40:39.52Z</time></trkpt><trkpt lat="46.5511617" lon="12.475405"><ele>1286.0</ele><time>2026-04-17T09:40:40.52Z</time></trkpt><trkpt lat="46.551105" lon="12.4751817"><ele>1276.0</ele><time>2026-04-17T09:40:41.52Z</time></trkpt><trkpt lat="46.5510667" lon="12.475005"><ele>1266.0</ele><time>2026-04-17T09:40:42.52Z</time></trkpt><trkpt lat="46.551045" lon="12.474855"><ele>1256.0</ele><time>2026-04-17T09:40:43.52Z</time></trkpt><trkpt lat="46.5510233" lon="12.47473"><ele>1256.0</ele><time>2026-04-17T09:40:44.521Z</time></trkpt><trkpt lat="46.5509467" lon="12.4746667"><ele>1256.0</ele><time>2026-04-17T09:40:46.52Z</time></trkpt><trkpt lat="46.5508783" lon="12.4748"><ele>1256.0</ele><time>2026-04-17T09:40:48.52Z</time></trkpt><trkpt lat="46.5508917" lon="12.4749667"><ele>1256.0</ele><time>2026-04-17T09:40:50.521Z</time></trkpt><trkpt lat="46.5509283" lon="12.4751483"><ele>1256.0</ele><time>2026-04-17T09:40:52.518Z</time></trkpt><trkpt lat="46.5509517" lon="12.4752567"><ele>1256.0</ele><time>2026-04-17T09:40:53.522Z</time></trkpt><trkpt lat="46.5509833" lon="12.4753717"><ele>1256.0</ele><time>2026-04-17T09:40:54.519Z</time></trkpt><trkpt lat="46.55101" lon="12.47549"><ele>1256.0</ele><time>2026-04-17T09:40:55.519Z</time></trkpt><trkpt lat="46.551035" lon="12.4756183"><ele>1256.0</ele><time>2026-04-17T09:40:56.519Z</time></trkpt><trkpt lat="46.5510567" lon="12.4757583"><ele>1256.0</ele><time>2026-04-17T09:40:57.519Z</time></trkpt><trkpt lat="46.5510767" lon="12.47591"><ele>1254.6666666666667</ele><time>2026-04-17T09:40:58.518Z</time></trkpt><trkpt lat="46.5511" lon="12.4760633"><ele>1253.3333333333335</ele><time>2026-04-17T09:40:59.519Z</time></trkpt><trkpt lat="46.5511267" lon="12.47621"><ele>1252.0</ele><time>2026-04-17T09:41:00.519Z</time></trkpt><trkpt lat="46.5511467" lon="12.4763433"><ele>1250.6666666666667</ele><time>2026-04-17T09:41:01.519Z</time></trkpt><trkpt lat="46.5511483" lon="12.4764517"><ele>1249.3333333333333</ele><time>2026-04-17T09:41:02.519Z</time></trkpt><trkpt lat="46.5511117" lon="12.4765317"><ele>1248.0</ele><time>2026-04-17T09:41:04.518Z</time></trkpt><trkpt lat="46.5510467" lon="12.47648"><ele>1248.0</ele><time>2026-04-17T09:41:06.519Z</time></trkpt><trkpt lat="46.55103" lon="12.4762767"><ele>1248.0</ele><time>2026-04-17T09:41:08.52Z</time></trkpt><trkpt lat="46.5510133" lon="12.4761333"><ele>1248.0</ele><time>2026-04-17T09:41:09.518Z</time></trkpt><trkpt lat="46.55097" lon="12.4759767"><ele>1248.0</ele><time>2026-04-17T09:41:10.518Z</time></trkpt><trkpt lat="46.55091" lon="12.4758183"><ele>1248.0</ele><time>2026-04-17T09:41:11.519Z</time></trkpt><trkpt lat="46.550845" lon="12.4756633"><ele>1248.0</ele><time>2026-04-17T09:41:12.519Z</time></trkpt><trkpt lat="46.5507917" lon="12.4755117"><ele>1248.0</ele><time>2026-04-17T09:41:13.518Z</time></trkpt><trkpt lat="46.5507583" lon="12.4753833"><ele>1248.0</ele><time>2026-04-17T09:41:14.519Z</time></trkpt><trkpt lat="46.55073" lon="12.475275"><ele>1248.0</ele><time>2026-04-17T09:41:15.519Z</time></trkpt><trkpt lat="46.5506433" lon="12.47519"><ele>1248.0</ele><time>2026-04-17T09:41:17.518Z</time></trkpt><trkpt lat="46.550575" lon="12.4753217"><ele>1248.0</ele><time>2026-04-17T09:41:19.519Z</time></trkpt><trkpt lat="46.5505883" lon="12.4754383"><ele>1248.0</ele><time>2026-04-17T09:41:20.52Z</time></trkpt><trkpt lat="46.5506083" lon="12.4755783"><ele>1248.0</ele><time>2026-04-17T09:41:21.519Z</time></trkpt><trkpt lat="46.5506283" lon="12.4757483"><ele>1248.0</ele><time>2026-04-17T09:41:22.519Z</time></trkpt><trkpt lat="46.5506467" lon="12.4759483"><ele>1248.0</ele><time>2026-04-17T09:41:23.519Z</time></trkpt><trkpt lat="46.5506633" lon="12.4761733"><ele>1248.0</ele><time>2026-04-17T09:41:24.519Z</time></trkpt><trkpt lat="46.5506667" lon="12.4764283"><ele>1248.0</ele><time>2026-04-17T09:41:25.519Z</time></trkpt><trkpt lat="46.5506517" lon="12.4766917"><ele>1245.3333333333333</ele><time>2026-04-17T09:41:26.519Z</time></trkpt><trkpt lat="46.550635" lon="12.4769633"><ele>1242.6666666666665</ele><time>2026-04-17T09:41:27.518Z</time></trkpt><trkpt lat="46.55062" lon="12.4772317"><ele>1240.0</ele><time>2026-04-17T09:41:28.518Z</time></trkpt><trkpt lat="46.5506183" lon="12.4774967"><ele>1237.0</ele><time>2026-04-17T09:41:29.519Z</time></trkpt><trkpt lat="46.5506583" lon="12.4777617"><ele>1234.0</ele><time>2026-04-17T09:41:30.519Z</time></trkpt><trkpt lat="46.5507117" lon="12.4780317"><ele>1231.0</ele><time>2026-04-17T09:41:31.518Z</time></trkpt><trkpt lat="46.55078" lon="12.47831"><ele>1226.3333333333333</ele><time>2026-04-17T09:41:32.519Z</time></trkpt><trkpt lat="46.5508517" lon="12.4785867"><ele>1221.6666666666667</ele><time>2026-04-17T09:41:33.519Z</time></trkpt><trkpt lat="46.5509217" lon="12.4788583"><ele>1217.0</ele><time>2026-04-17T09:41:34.518Z</time></trkpt><trkpt lat="46.5509917" lon="12.4791317"><ele>1222.0</ele><time>2026-04-17T09:41:35.521Z</time></trkpt><trkpt lat="46.5510683" lon="12.4793967"><ele>1227.0</ele><time>2026-04-17T09:41:36.519Z</time></trkpt><trkpt lat="46.5511567" lon="12.47966"><ele>1232.0</ele><time>2026-04-17T09:41:37.519Z</time></trkpt><trkpt lat="46.5512517" lon="12.4799167"><ele>1232.0</ele><time>2026-04-17T09:41:38.521Z</time></trkpt><trkpt lat="46.5513417" lon="12.4801683"><ele>1232.0</ele><time>2026-04-17T09:41:39.519Z</time></trkpt><trkpt lat="46.5514117" lon="12.4804217"><ele>1232.0</ele><time>2026-04-17T09:41:40.519Z</time></trkpt><trkpt lat="46.55146" lon="12.480665"><ele>1225.6666666666667</ele><time>2026-04-17T09:41:41.52Z</time></trkpt><trkpt lat="46.5514933" lon="12.4808833"><ele>1219.3333333333333</ele><time>2026-04-17T09:41:42.521Z</time></trkpt><trkpt lat="46.5515" lon="12.48109"><ele>1213.0</ele><time>2026-04-17T09:41:43.52Z</time></trkpt><trkpt lat="46.5514717" lon="12.481315"><ele>1210.6666666666665</ele><time>2026-04-17T09:41:44.518Z</time></trkpt><trkpt lat="46.551415" lon="12.4815583"><ele>1208.3333333333333</ele><time>2026-04-17T09:41:45.519Z</time></trkpt><trkpt lat="46.5513417" lon="12.4818183"><ele>1206.0</ele><time>2026-04-17T09:41:46.518Z</time></trkpt><trkpt lat="46.5512683" lon="12.482085"><ele>1195.0</ele><time>2026-04-17T09:41:47.519Z</time></trkpt><trkpt lat="46.551205" lon="12.4823333"><ele>1184.0</ele><time>2026-04-17T09:41:48.519Z</time></trkpt><trkpt lat="46.55115" lon="12.4825367"><ele>1173.0</ele><time>2026-04-17T09:41:49.519Z</time></trkpt><trkpt lat="46.5510983" lon="12.4826967"><ele>1173.0</ele><time>2026-04-17T09:41:50.519Z</time></trkpt><trkpt lat="46.5510317" lon="12.4828033"><ele>1173.0</ele><time>2026-04-17T09:41:51.522Z</time></trkpt><trkpt lat="46.55095" lon="12.48285"><ele>1173.0</ele><time>2026-04-17T09:41:52.518Z</time></trkpt><trkpt lat="46.550865" lon="12.4828583"><ele>1173.0</ele><time>2026-04-17T09:41:53.518Z</time></trkpt><trkpt lat="46.5507767" lon="12.482825"><ele>1173.0</ele><time>2026-04-17T09:41:54.519Z</time></trkpt><trkpt lat="46.5506983" lon="12.4827283"><ele>1173.0</ele><time>2026-04-17T09:41:55.525Z</time></trkpt><trkpt lat="46.5506267" lon="12.4826467"><ele>1173.0</ele><time>2026-04-17T09:41:56.519Z</time></trkpt><trkpt lat="46.5505633" lon="12.4826167"><ele>1173.0</ele><time>2026-04-17T09:41:57.518Z</time></trkpt><trkpt lat="46.55048" lon="12.4827167"><ele>1173.0</ele><time>2026-04-17T09:41:59.519Z</time></trkpt><trkpt lat="46.550485" lon="12.48285"><ele>1173.0</ele><time>2026-04-17T09:42:00.519Z</time></trkpt><trkpt lat="46.5505017" lon="12.48299"><ele>1174.0</ele><time>2026-04-17T09:42:01.519Z</time></trkpt><trkpt lat="46.5505083" lon="12.4831183"><ele>1175.0</ele><time>2026-04-17T09:42:02.518Z</time></trkpt><trkpt lat="46.5504917" lon="12.4832067"><ele>1176.0</ele><time>2026-04-17T09:42:03.519Z</time></trkpt><trkpt lat="46.550395" lon="12.4832083"><ele>1177.0</ele><time>2026-04-17T09:42:05.519Z</time></trkpt><trkpt lat="46.550305" lon="12.4829883"><ele>1178.0</ele><time>2026-04-17T09:42:07.519Z</time></trkpt><trkpt lat="46.55024" lon="12.4828217"><ele>1171.75</ele><time>2026-04-17T09:42:08.519Z</time></trkpt><trkpt lat="46.55018" lon="12.482645"><ele>1165.5</ele><time>2026-04-17T09:42:09.519Z</time></trkpt><trkpt lat="46.5501167" lon="12.4824667"><ele>1159.25</ele><time>2026-04-17T09:42:10.519Z</time></trkpt><trkpt lat="46.55005" lon="12.4822917"><ele>1153.0</ele><time>2026-04-17T09:42:11.519Z</time></trkpt><trkpt lat="46.5499817" lon="12.48211"><ele>1151.2</ele><time>2026-04-17T09:42:12.519Z</time></trkpt><trkpt lat="46.5499217" lon="12.4819433"><ele>1149.4</ele><time>2026-04-17T09:42:13.519Z</time></trkpt><trkpt lat="46.5498717" lon="12.4818"><ele>1147.6000000000001</ele><time>2026-04-17T09:42:14.519Z</time></trkpt><trkpt lat="46.5498433" lon="12.4816817"><ele>1145.8</ele><time>2026-04-17T09:42:15.522Z</time></trkpt><trkpt lat="46.54984" lon="12.4815767"><ele>1144.0</ele><time>2026-04-17T09:42:16.52Z</time></trkpt><trkpt lat="46.5499033" lon="12.4815083"><ele>1144.0</ele><time>2026-04-17T09:42:17.519Z</time></trkpt><trkpt lat="46.5499783" lon="12.4814467"><ele>1144.0</ele><time>2026-04-17T09:42:18.519Z</time></trkpt><trkpt lat="46.5500617" lon="12.481415"><ele>1144.0</ele><time>2026-04-17T09:42:19.519Z</time></trkpt><trkpt lat="46.55016" lon="12.4813867"><ele>1144.0</ele><time>2026-04-17T09:42:20.521Z</time></trkpt><trkpt lat="46.55025" lon="12.481345"><ele>1144.0</ele><time>2026-04-17T09:42:21.519Z</time></trkpt><trkpt lat="46.5503217" lon="12.481285"><ele>1141.6000000000001</ele><time>2026-04-17T09:42:22.519Z</time></trkpt><trkpt lat="46.5503733" lon="12.481205"><ele>1139.2</ele><time>2026-04-17T09:42:23.518Z</time></trkpt><trkpt lat="46.55037" lon="12.4811067"><ele>1136.8000000000002</ele><time>2026-04-17T09:42:24.52Z</time></trkpt><trkpt lat="46.5503333" lon="12.4809767"><ele>1134.4</ele><time>2026-04-17T09:42:25.519Z</time></trkpt><trkpt lat="46.55028" lon="12.4808217"><ele>1132.0</ele><time>2026-04-17T09:42:26.52Z</time></trkpt><trkpt lat="46.55023" lon="12.4806367"><ele>1132.0</ele><time>2026-04-17T09:42:27.519Z</time></trkpt><trkpt lat="46.5501867" lon="12.4804433"><ele>1132.0</ele><time>2026-04-17T09:42:28.52Z</time></trkpt><trkpt lat="46.5501583" lon="12.4802533"><ele>1132.0</ele><time>2026-04-17T09:42:29.519Z</time></trkpt><trkpt lat="46.5501367" lon="12.480105"><ele>1132.0</ele><time>2026-04-17T09:42:30.519Z</time></trkpt><trkpt lat="46.5501" lon="12.48"><ele>1132.0</ele><time>2026-04-17T09:42:31.521Z</time></trkpt><trkpt lat="46.5500017" lon="12.479955"><ele>1132.0</ele><time>2026-04-17T09:42:33.52Z</time></trkpt><trkpt lat="46.54993" lon="12.480115"><ele>1132.0</ele><time>2026-04-17T09:42:35.52Z</time></trkpt><trkpt lat="46.5499133" lon="12.4802433"><ele>1132.0</ele><time>2026-04-17T09:42:36.519Z</time></trkpt><trkpt lat="46.5499067" lon="12.4803917"><ele>1132.0</ele><time>2026-04-17T09:42:37.519Z</time></trkpt><trkpt lat="46.5498967" lon="12.4805317"><ele>1132.0</ele><time>2026-04-17T09:42:38.52Z</time></trkpt><trkpt lat="46.5498783" lon="12.48065"><ele>1132.0</ele><time>2026-04-17T09:42:39.519Z</time></trkpt><trkpt lat="46.549855" lon="12.4807533"><ele>1132.0</ele><time>2026-04-17T09:42:40.519Z</time></trkpt><trkpt lat="46.54975" lon="12.4807667"><ele>1132.0</ele><time>2026-04-17T09:42:41.52Z</time></trkpt><trkpt lat="46.5496517" lon="12.48075"><ele>1132.0</ele><time>2026-04-17T09:42:42.52Z</time></trkpt><trkpt lat="46.54953" lon="12.4807"><ele>1127.3333333333333</ele><time>2026-04-17T09:42:43.52Z</time></trkpt><trkpt lat="46.5493983" lon="12.4806383"><ele>1122.6666666666667</ele><time>2026-04-17T09:42:44.518Z</time></trkpt><trkpt lat="46.5492517" lon="12.4805667"><ele>1118.0</ele><time>2026-04-17T09:42:45.519Z</time></trkpt><trkpt lat="46.5490883" lon="12.4805017"><ele>1118.0</ele><time>2026-04-17T09:42:46.519Z</time></trkpt><trkpt lat="46.5489467" lon="12.4804433"><ele>1118.0</ele><time>2026-04-17T09:42:47.519Z</time></trkpt><trkpt lat="46.5488317" lon="12.4804167"><ele>1118.0</ele><time>2026-04-17T09:42:48.519Z</time></trkpt><trkpt lat="46.5487383" lon="12.480435"><ele>1118.0</ele><time>2026-04-17T09:42:49.521Z</time></trkpt><trkpt lat="46.54867" lon="12.4805"><ele>1118.0</ele><time>2026-04-17T09:42:50.52Z</time></trkpt><trkpt lat="46.5486167" lon="12.4805883"><ele>1114.4</ele><time>2026-04-17T09:42:51.519Z</time></trkpt><trkpt lat="46.54861" lon="12.4807417"><ele>1110.8</ele><time>2026-04-17T09:42:52.519Z</time></trkpt><trkpt lat="46.5486033" lon="12.4808833"><ele>1107.2</ele><time>2026-04-17T09:42:53.52Z</time></trkpt><trkpt lat="46.5485833" lon="12.481"><ele>1103.6</ele><time>2026-04-17T09:42:54.52Z</time></trkpt><trkpt lat="46.5485317" lon="12.48107"><ele>1100.0</ele><time>2026-04-17T09:42:55.519Z</time></trkpt><trkpt lat="46.54842" lon="12.4810183"><ele>1100.0</ele><time>2026-04-17T09:42:57.519Z</time></trkpt><trkpt lat="46.5483633" lon="12.4809017"><ele>1100.0</ele><time>2026-04-17T09:42:58.52Z</time></trkpt><trkpt lat="46.5483133" lon="12.4807217"><ele>1100.0</ele><time>2026-04-17T09:42:59.518Z</time></trkpt><trkpt lat="46.5482533" lon="12.4805067"><ele>1100.0</ele><time>2026-04-17T09:43:00.519Z</time></trkpt><trkpt lat="46.5481867" lon="12.4802917"><ele>1098.4</ele><time>2026-04-17T09:43:01.519Z</time></trkpt><trkpt lat="46.548135" lon="12.4800917"><ele>1096.8</ele><time>2026-04-17T09:43:02.52Z</time></trkpt><trkpt lat="46.5481233" lon="12.47993"><ele>1095.2</ele><time>2026-04-17T09:43:03.518Z</time></trkpt><trkpt lat="46.5481483" lon="12.479815"><ele>1093.6</ele><time>2026-04-17T09:43:04.519Z</time></trkpt><trkpt lat="46.548195" lon="12.4797267"><ele>1092.0</ele><time>2026-04-17T09:43:05.519Z</time></trkpt><trkpt lat="46.5483133" lon="12.4796983"><ele>1092.0</ele><time>2026-04-17T09:43:06.519Z</time></trkpt><trkpt lat="46.5484483" lon="12.479695"><ele>1092.0</ele><time>2026-04-17T09:43:07.521Z</time></trkpt><trkpt lat="46.5485783" lon="12.479695"><ele>1092.0</ele><time>2026-04-17T09:43:08.52Z</time></trkpt><trkpt lat="46.5486867" lon="12.47968"><ele>1092.0</ele><time>2026-04-17T09:43:09.519Z</time></trkpt><trkpt lat="46.5487683" lon="12.479625"><ele>1088.8</ele><time>2026-04-17T09:43:10.519Z</time></trkpt><trkpt lat="46.5488167" lon="12.4795367"><ele>1085.6</ele><time>2026-04-17T09:43:11.519Z</time></trkpt><trkpt lat="46.5488333" lon="12.4794267"><ele>1082.3999999999999</ele><time>2026-04-17T09:43:12.519Z</time></trkpt><trkpt lat="46.54879" lon="12.479305"><ele>1079.2</ele><time>2026-04-17T09:43:13.52Z</time></trkpt><trkpt lat="46.5487067" lon="12.4791683"><ele>1076.0</ele><time>2026-04-17T09:43:14.52Z</time></trkpt><trkpt lat="46.5486017" lon="12.479015"><ele>1076.0</ele><time>2026-04-17T09:43:15.519Z</time></trkpt><trkpt lat="46.5484817" lon="12.47885"><ele>1076.0</ele><time>2026-04-17T09:43:16.519Z</time></trkpt><trkpt lat="46.548355" lon="12.47866"><ele>1076.0</ele><time>2026-04-17T09:43:17.52Z</time></trkpt><trkpt lat="46.54822" lon="12.4784533"><ele>1074.6666666666667</ele><time>2026-04-17T09:43:18.519Z</time></trkpt><trkpt lat="46.5480867" lon="12.4782433"><ele>1073.3333333333333</ele><time>2026-04-17T09:43:19.519Z</time></trkpt><trkpt lat="46.5479567" lon="12.47804"><ele>1072.0</ele><time>2026-04-17T09:43:20.521Z</time></trkpt><trkpt lat="46.54783" lon="12.4778383"><ele>1072.0</ele><time>2026-04-17T09:43:21.519Z</time></trkpt><trkpt lat="46.547705" lon="12.4776417"><ele>1072.0</ele><time>2026-04-17T09:43:22.52Z</time></trkpt><trkpt lat="46.547595" lon="12.4774517"><ele>1072.0</ele><time>2026-04-17T09:43:23.52Z</time></trkpt><trkpt lat="46.5475017" lon="12.477295"><ele>1072.0</ele><time>2026-04-17T09:43:24.519Z</time></trkpt><trkpt lat="46.5474117" lon="12.4772017"><ele>1072.0</ele><time>2026-04-17T09:43:25.519Z</time></trkpt><trkpt lat="46.5473367" lon="12.4771617"><ele>1072.0</ele><time>2026-04-17T09:43:26.522Z</time></trkpt><trkpt lat="46.54727" lon="12.4771883"><ele>1072.0</ele><time>2026-04-17T09:43:27.519Z</time></trkpt><trkpt lat="46.5472233" lon="12.47726"><ele>1072.0</ele><time>2026-04-17T09:43:28.522Z</time></trkpt><trkpt lat="46.5471883" lon="12.4773617"><ele>1072.0</ele><time>2026-04-17T09:43:29.52Z</time></trkpt><trkpt lat="46.5472283" lon="12.4775233"><ele>1072.0</ele><time>2026-04-17T09:43:30.52Z</time></trkpt><trkpt lat="46.54729" lon="12.4777167"><ele>1072.0</ele><time>2026-04-17T09:43:31.519Z</time></trkpt><trkpt lat="46.54737" lon="12.4779367"><ele>1072.0</ele><time>2026-04-17T09:43:32.524Z</time></trkpt><trkpt lat="46.54747" lon="12.4781667"><ele>1067.5</ele><time>2026-04-17T09:43:33.519Z</time></trkpt><trkpt lat="46.5475833" lon="12.4783667"><ele>1063.0</ele><time>2026-04-17T09:43:34.519Z</time></trkpt><trkpt lat="46.5476767" lon="12.4785233"><ele>1058.5</ele><time>2026-04-17T09:43:35.518Z</time></trkpt><trkpt lat="46.547735" lon="12.478645"><ele>1054.0</ele><time>2026-04-17T09:43:36.519Z</time></trkpt><trkpt lat="46.5477533" lon="12.4787467"><ele>1053.0</ele><time>2026-04-17T09:43:37.52Z</time></trkpt><trkpt lat="46.54766" lon="12.47888"><ele>1052.0</ele><time>2026-04-17T09:43:39.518Z</time></trkpt><trkpt lat="46.5475483" lon="12.4789233"><ele>1051.0</ele><time>2026-04-17T09:43:40.52Z</time></trkpt><trkpt lat="46.5474283" lon="12.479015"><ele>1050.0</ele><time>2026-04-17T09:43:41.519Z</time></trkpt><trkpt lat="46.547315" lon="12.47915"><ele>1050.0</ele><time>2026-04-17T09:43:42.519Z</time></trkpt><trkpt lat="46.5471983" lon="12.4793217"><ele>1050.0</ele><time>2026-04-17T09:43:43.521Z</time></trkpt><trkpt lat="46.5470783" lon="12.4795067"><ele>1050.0</ele><time>2026-04-17T09:43:44.523Z</time></trkpt><trkpt lat="46.5469617" lon="12.479695"><ele>1042.6666666666667</ele><time>2026-04-17T09:43:45.521Z</time></trkpt><trkpt lat="46.5468517" lon="12.479885"><ele>1035.3333333333335</ele><time>2026-04-17T09:43:46.52Z</time></trkpt><trkpt lat="46.5467583" lon="12.480085"><ele>1028.0</ele><time>2026-04-17T09:43:47.518Z</time></trkpt><trkpt lat="46.5467033" lon="12.480295"><ele>1028.5</ele><time>2026-04-17T09:43:48.521Z</time></trkpt><trkpt lat="46.5466733" lon="12.4804933"><ele>1029.0</ele><time>2026-04-17T09:43:49.518Z</time></trkpt><trkpt lat="46.5466333" lon="12.4806767"><ele>1029.5</ele><time>2026-04-17T09:43:50.519Z</time></trkpt><trkpt lat="46.5465667" lon="12.4808233"><ele>1030.0</ele><time>2026-04-17T09:43:51.519Z</time></trkpt><trkpt lat="46.5464833" lon="12.4809233"><ele>1030.0</ele><time>2026-04-17T09:43:52.52Z</time></trkpt><trkpt lat="46.5463983" lon="12.480965"><ele>1030.0</ele><time>2026-04-17T09:43:53.52Z</time></trkpt><trkpt lat="46.5463133" lon="12.4809567"><ele>1030.0</ele><time>2026-04-17T09:43:54.52Z</time></trkpt><trkpt lat="46.5462433" lon="12.4808983"><ele>1030.0</ele><time>2026-04-17T09:43:55.518Z</time></trkpt><trkpt lat="46.54622" lon="12.4807533"><ele>1030.0</ele><time>2026-04-17T09:43:56.519Z</time></trkpt><trkpt lat="46.5462183" lon="12.4805767"><ele>1029.3333333333333</ele><time>2026-04-17T09:43:57.519Z</time></trkpt><trkpt lat="46.5462317" lon="12.48037"><ele>1028.6666666666667</ele><time>2026-04-17T09:43:58.519Z</time></trkpt><trkpt lat="46.5462417" lon="12.480145"><ele>1028.0</ele><time>2026-04-17T09:43:59.52Z</time></trkpt><trkpt lat="46.5462483" lon="12.4799033"><ele>1028.0</ele><time>2026-04-17T09:44:00.521Z</time></trkpt><trkpt lat="46.5462533" lon="12.479655"><ele>1028.0</ele><time>2026-04-17T09:44:01.52Z</time></trkpt><trkpt lat="46.5462433" lon="12.479415"><ele>1028.0</ele><time>2026-04-17T09:44:02.52Z</time></trkpt><trkpt lat="46.546195" lon="12.4791917"><ele>1025.3333333333335</ele><time>2026-04-17T09:44:03.519Z</time></trkpt><trkpt lat="46.546115" lon="12.4789917"><ele>1022.6666666666667</ele><time>2026-04-17T09:44:04.52Z</time></trkpt><trkpt lat="46.5460067" lon="12.4788183"><ele>1020.0</ele><time>2026-04-17T09:44:05.52Z</time></trkpt><trkpt lat="46.5458867" lon="12.4786633"><ele>1020.0</ele><time>2026-04-17T09:44:06.519Z</time></trkpt><trkpt lat="46.5457783" lon="12.4785017"><ele>1020.0</ele><time>2026-04-17T09:44:07.519Z</time></trkpt><trkpt lat="46.5456783" lon="12.4783417"><ele>1020.0</ele><time>2026-04-17T09:44:08.52Z</time></trkpt><trkpt lat="46.5455717" lon="12.478205"><ele>1020.0</ele><time>2026-04-17T09:44:09.519Z</time></trkpt><trkpt lat="46.5454583" lon="12.478095"><ele>1016.1666666666666</ele><time>2026-04-17T09:44:10.518Z</time></trkpt><trkpt lat="46.5453517" lon="12.4780083"><ele>1012.3333333333333</ele><time>2026-04-17T09:44:11.519Z</time></trkpt><trkpt lat="46.5452517" lon="12.4779633"><ele>1008.5</ele><time>2026-04-17T09:44:12.519Z</time></trkpt><trkpt lat="46.545175" lon="12.477965"><ele>1004.6666666666666</ele><time>2026-04-17T09:44:13.518Z</time></trkpt><trkpt lat="46.545125" lon="12.4780217"><ele>1000.8333333333333</ele><time>2026-04-17T09:44:14.523Z</time></trkpt><trkpt lat="46.5450933" lon="12.4781017"><ele>997.0</ele><time>2026-04-17T09:44:15.519Z</time></trkpt><trkpt lat="46.5451283" lon="12.4782183"><ele>996.9999999999999</ele><time>2026-04-17T09:44:16.519Z</time></trkpt><trkpt lat="46.5451617" lon="12.4783517"><ele>997.0</ele><time>2026-04-17T09:44:17.519Z</time></trkpt><trkpt lat="46.5451817" lon="12.4784933"><ele>997.0</ele><time>2026-04-17T09:44:18.519Z</time></trkpt><trkpt lat="46.5451733" lon="12.4786167"><ele>997.0</ele><time>2026-04-17T09:44:19.599Z</time></trkpt><trkpt lat="46.5451317" lon="12.4786917"><ele>996.9999999999999</ele><time>2026-04-17T09:44:20.52Z</time></trkpt><trkpt lat="46.5450583" lon="12.4787067"><ele>997.0</ele><time>2026-04-17T09:44:21.519Z</time></trkpt><trkpt lat="46.544975" lon="12.47868"><ele>997.0</ele><time>2026-04-17T09:44:22.519Z</time></trkpt><trkpt lat="46.5448483" lon="12.4785967"><ele>997.0</ele><time>2026-04-17T09:44:23.52Z</time></trkpt><trkpt lat="46.54472" lon="12.4784883"><ele>997.0</ele><time>2026-04-17T09:44:24.519Z</time></trkpt><trkpt lat="46.544595" lon="12.4783583"><ele>997.0</ele><time>2026-04-17T09:44:25.519Z</time></trkpt><trkpt lat="46.5444883" lon="12.4782067"><ele>993.5</ele><time>2026-04-17T09:44:26.521Z</time></trkpt><trkpt lat="46.544395" lon="12.4780417"><ele>990.0</ele><time>2026-04-17T09:44:27.519Z</time></trkpt><trkpt lat="46.5443317" lon="12.4778483"><ele>986.5</ele><time>2026-04-17T09:44:28.521Z</time></trkpt><trkpt lat="46.5442817" lon="12.4776517"><ele>983.0</ele><time>2026-04-17T09:44:29.52Z</time></trkpt><trkpt lat="46.5442183" lon="12.47747"><ele>983.0</ele><time>2026-04-17T09:44:30.518Z</time></trkpt><trkpt lat="46.54413" lon="12.4772917"><ele>983.0</ele><time>2026-04-17T09:44:31.523Z</time></trkpt><trkpt lat="46.5440033" lon="12.4771233"><ele>983.0</ele><time>2026-04-17T09:44:32.521Z</time></trkpt><trkpt lat="46.54386" lon="12.476975"><ele>978.5</ele><time>2026-04-17T09:44:33.518Z</time></trkpt><trkpt lat="46.5437183" lon="12.4768617"><ele>974.0</ele><time>2026-04-17T09:44:34.519Z</time></trkpt><trkpt lat="46.543595" lon="12.47678"><ele>969.5</ele><time>2026-04-17T09:44:35.52Z</time></trkpt><trkpt lat="46.543495" lon="12.4767083"><ele>965.0</ele><time>2026-04-17T09:44:36.519Z</time></trkpt><trkpt lat="46.5434283" lon="12.4766033"><ele>965.0</ele><time>2026-04-17T09:44:37.52Z</time></trkpt><trkpt lat="46.54339" lon="12.4764467"><ele>965.0</ele><time>2026-04-17T09:44:38.52Z</time></trkpt><trkpt lat="46.5433817" lon="12.476235"><ele>965.0</ele><time>2026-04-17T09:44:39.519Z</time></trkpt><trkpt lat="46.54339" lon="12.476"><ele>965.0</ele><time>2026-04-17T09:44:40.519Z</time></trkpt><trkpt lat="46.5434" lon="12.47575"><ele>962.3333333333334</ele><time>2026-04-17T09:44:41.521Z</time></trkpt><trkpt lat="46.5433917" lon="12.4754867"><ele>959.6666666666667</ele><time>2026-04-17T09:44:42.52Z</time></trkpt><trkpt lat="46.5433517" lon="12.4752117"><ele>957.0</ele><time>2026-04-17T09:44:43.519Z</time></trkpt><trkpt lat="46.543285" lon="12.4749183"><ele>955.0</ele><time>2026-04-17T09:44:44.52Z</time></trkpt><trkpt lat="46.5431967" lon="12.4746183"><ele>953.0</ele><time>2026-04-17T09:44:45.519Z</time></trkpt><trkpt lat="46.5431033" lon="12.4743183"><ele>953.0</ele><time>2026-04-17T09:44:46.519Z</time></trkpt><trkpt lat="46.5430183" lon="12.474015"><ele>953.0</ele><time>2026-04-17T09:44:47.52Z</time></trkpt><trkpt lat="46.5429683" lon="12.473705"><ele>953.0</ele><time>2026-04-17T09:44:48.519Z</time></trkpt><trkpt lat="46.5429517" lon="12.4733867"><ele>955.5</ele><time>2026-04-17T09:44:49.519Z</time></trkpt><trkpt lat="46.5429433" lon="12.4730617"><ele>958.0</ele><time>2026-04-17T09:44:50.52Z</time></trkpt><trkpt lat="46.5429283" lon="12.47273"><ele>958.0</ele><time>2026-04-17T09:44:51.518Z</time></trkpt><trkpt lat="46.54291" lon="12.4724017"><ele>958.0</ele><time>2026-04-17T09:44:52.518Z</time></trkpt><trkpt lat="46.5428917" lon="12.472095"><ele>958.0</ele><time>2026-04-17T09:44:53.52Z</time></trkpt><trkpt lat="46.5428817" lon="12.471815"><ele>953.3333333333333</ele><time>2026-04-17T09:44:54.519Z</time></trkpt><trkpt lat="46.5428917" lon="12.4715583"><ele>948.6666666666667</ele><time>2026-04-17T09:44:55.52Z</time></trkpt><trkpt lat="46.5429333" lon="12.4713133"><ele>944.0</ele><time>2026-04-17T09:44:56.52Z</time></trkpt><trkpt lat="46.54299" lon="12.471075"><ele>941.0</ele><time>2026-04-17T09:44:57.519Z</time></trkpt><trkpt lat="46.5430333" lon="12.470835"><ele>938.0</ele><time>2026-04-17T09:44:58.519Z</time></trkpt><trkpt lat="46.54306" lon="12.4706"><ele>935.0</ele><time>2026-04-17T09:44:59.518Z</time></trkpt><trkpt lat="46.54307" lon="12.4703967"><ele>933.8</ele><time>2026-04-17T09:45:00.519Z</time></trkpt><trkpt lat="46.5430583" lon="12.4702183"><ele>932.6</ele><time>2026-04-17T09:45:01.52Z</time></trkpt><trkpt lat="46.543015" lon="12.4700617"><ele>931.4000000000001</ele><time>2026-04-17T09:45:02.52Z</time></trkpt><trkpt lat="46.5429433" lon="12.469935"><ele>930.2</ele><time>2026-04-17T09:45:03.518Z</time></trkpt><trkpt lat="46.5428783" lon="12.4698483"><ele>929.0</ele><time>2026-04-17T09:45:04.519Z</time></trkpt><trkpt lat="46.542815" lon="12.4698117"><ele>922.4000000000001</ele><time>2026-04-17T09:45:05.52Z</time></trkpt><trkpt lat="46.54273" lon="12.46988"><ele>915.8000000000001</ele><time>2026-04-17T09:45:07.519Z</time></trkpt><trkpt lat="46.54272" lon="12.4699783"><ele>909.1999999999999</ele><time>2026-04-17T09:45:08.52Z</time></trkpt><trkpt lat="46.542725" lon="12.470125"><ele>902.5999999999999</ele><time>2026-04-17T09:45:09.518Z</time></trkpt><trkpt lat="46.5427383" lon="12.4703083"><ele>896.0</ele><time>2026-04-17T09:45:10.52Z</time></trkpt><trkpt lat="46.5427517" lon="12.4704767"><ele>896.0000000000001</ele><time>2026-04-17T09:45:11.52Z</time></trkpt><trkpt lat="46.542755" lon="12.4706067"><ele>896.0</ele><time>2026-04-17T09:45:12.519Z</time></trkpt><trkpt lat="46.54274" lon="12.4707033"><ele>896.0</ele><time>2026-04-17T09:45:13.519Z</time></trkpt><trkpt lat="46.5426717" lon="12.4706883"><ele>896.0</ele><time>2026-04-17T09:45:15.52Z</time></trkpt><trkpt lat="46.54264" lon="12.4705983"><ele>896.0000000000001</ele><time>2026-04-17T09:45:16.518Z</time></trkpt><trkpt lat="46.5426017" lon="12.4704733"><ele>896.0</ele><time>2026-04-17T09:45:17.519Z</time></trkpt><trkpt lat="46.542545" lon="12.4703033"><ele>895.0</ele><time>2026-04-17T09:45:18.519Z</time></trkpt><trkpt lat="46.5424783" lon="12.4701117"><ele>894.0</ele><time>2026-04-17T09:45:19.519Z</time></trkpt><trkpt lat="46.5424017" lon="12.469905"><ele>893.0</ele><time>2026-04-17T09:45:20.52Z</time></trkpt><trkpt lat="46.5423217" lon="12.469685"><ele>896.3333333333334</ele><time>2026-04-17T09:45:21.52Z</time></trkpt><trkpt lat="46.5422367" lon="12.46946"><ele>899.6666666666667</ele><time>2026-04-17T09:45:22.519Z</time></trkpt><trkpt lat="46.542155" lon="12.4692217"><ele>903.0</ele><time>2026-04-17T09:45:23.52Z</time></trkpt><trkpt lat="46.54208" lon="12.4689733"><ele>896.0</ele><time>2026-04-17T09:45:24.52Z</time></trkpt><trkpt lat="46.54201" lon="12.468725"><ele>889.0</ele><time>2026-04-17T09:45:25.52Z</time></trkpt><trkpt lat="46.54195" lon="12.468465"><ele>882.0</ele><time>2026-04-17T09:45:26.52Z</time></trkpt><trkpt lat="46.541895" lon="12.468195"><ele>877.6666666666667</ele><time>2026-04-17T09:45:27.52Z</time></trkpt><trkpt lat="46.5418467" lon="12.4679017"><ele>873.3333333333334</ele><time>2026-04-17T09:45:28.523Z</time></trkpt><trkpt lat="46.5418083" lon="12.4675917"><ele>869.0</ele><time>2026-04-17T09:45:29.521Z</time></trkpt><trkpt lat="46.5417683" lon="12.4672833"><ele>868.3333333333334</ele><time>2026-04-17T09:45:30.52Z</time></trkpt><trkpt lat="46.54172" lon="12.4669833"><ele>867.6666666666667</ele><time>2026-04-17T09:45:31.522Z</time></trkpt><trkpt lat="46.54166" lon="12.4666883"><ele>867.0</ele><time>2026-04-17T09:45:32.52Z</time></trkpt><trkpt lat="46.5415983" lon="12.4664083"><ele>868.3333333333333</ele><time>2026-04-17T09:45:33.519Z</time></trkpt><trkpt lat="46.5415483" lon="12.4661317"><ele>869.6666666666666</ele><time>2026-04-17T09:45:34.519Z</time></trkpt><trkpt lat="46.541515" lon="12.46586"><ele>871.0</ele><time>2026-04-17T09:45:35.52Z</time></trkpt><trkpt lat="46.541495" lon="12.46559"><ele>868.6666666666666</ele><time>2026-04-17T09:45:36.518Z</time></trkpt><trkpt lat="46.5414933" lon="12.4653167"><ele>866.3333333333333</ele><time>2026-04-17T09:45:37.521Z</time></trkpt><trkpt lat="46.5414983" lon="12.4650433"><ele>864.0</ele><time>2026-04-17T09:45:38.52Z</time></trkpt><trkpt lat="46.5415017" lon="12.464775"><ele>861.5</ele><time>2026-04-17T09:45:39.518Z</time></trkpt><trkpt lat="46.5415033" lon="12.4645267"><ele>859.0</ele><time>2026-04-17T09:45:40.521Z</time></trkpt><trkpt lat="46.5415167" lon="12.4643117"><ele>856.5</ele><time>2026-04-17T09:45:41.519Z</time></trkpt><trkpt lat="46.54154" lon="12.4641583"><ele>854.0</ele><time>2026-04-17T09:45:42.519Z</time></trkpt><trkpt lat="46.5415883" lon="12.4640583"><ele>854.0</ele><time>2026-04-17T09:45:43.52Z</time></trkpt><trkpt lat="46.5416583" lon="12.4639833"><ele>854.0000000000001</ele><time>2026-04-17T09:45:44.52Z</time></trkpt><trkpt lat="46.5417617" lon="12.4639367"><ele>854.0000000000001</ele><time>2026-04-17T09:45:45.519Z</time></trkpt><trkpt lat="46.541875" lon="12.463885"><ele>854.0</ele><time>2026-04-17T09:45:46.52Z</time></trkpt><trkpt lat="46.5419933" lon="12.4638067"><ele>854.0</ele><time>2026-04-17T09:45:47.52Z</time></trkpt><trkpt lat="46.5421017" lon="12.463695"><ele>854.75</ele><time>2026-04-17T09:45:48.519Z</time></trkpt><trkpt lat="46.5421883" lon="12.463545"><ele>855.5</ele><time>2026-04-17T09:45:49.52Z</time></trkpt><trkpt lat="46.542245" lon="12.46337"><ele>856.25</ele><time>2026-04-17T09:45:50.52Z</time></trkpt><trkpt lat="46.5422867" lon="12.46318"><ele>857.0</ele><time>2026-04-17T09:45:51.519Z</time></trkpt><trkpt lat="46.5423183" lon="12.4629833"><ele>855.5</ele><time>2026-04-17T09:45:52.521Z</time></trkpt><trkpt lat="46.5423433" lon="12.4627833"><ele>854.0</ele><time>2026-04-17T09:45:53.52Z</time></trkpt><trkpt lat="46.54236" lon="12.4625867"><ele>852.5</ele><time>2026-04-17T09:45:54.52Z</time></trkpt><trkpt lat="46.5423767" lon="12.4624067"><ele>851.0</ele><time>2026-04-17T09:45:55.518Z</time></trkpt><trkpt lat="46.5424033" lon="12.4622367"><ele>849.75</ele><time>2026-04-17T09:45:56.52Z</time></trkpt><trkpt lat="46.5424367" lon="12.462075"><ele>848.5</ele><time>2026-04-17T09:45:57.519Z</time></trkpt><trkpt lat="46.542475" lon="12.4619117"><ele>847.25</ele><time>2026-04-17T09:45:58.52Z</time></trkpt><trkpt lat="46.54252" lon="12.4617467"><ele>846.0</ele><time>2026-04-17T09:45:59.52Z</time></trkpt><trkpt lat="46.5425733" lon="12.4615783"><ele>846.0</ele><time>2026-04-17T09:46:00.519Z</time></trkpt><trkpt lat="46.5426333" lon="12.4614267"><ele>846.0</ele><time>2026-04-17T09:46:01.519Z</time></trkpt><trkpt lat="46.542705" lon="12.46128"><ele>846.0</ele><time>2026-04-17T09:46:02.52Z</time></trkpt><trkpt lat="46.54279" lon="12.4611383"><ele>846.0</ele><time>2026-04-17T09:46:03.52Z</time></trkpt><trkpt lat="46.54288" lon="12.4610017"><ele>846.5</ele><time>2026-04-17T09:46:04.52Z</time></trkpt><trkpt lat="46.5429767" lon="12.4608767"><ele>847.0</ele><time>2026-04-17T09:46:05.52Z</time></trkpt><trkpt lat="46.5430717" lon="12.4607817"><ele>847.5</ele><time>2026-04-17T09:46:06.52Z</time></trkpt><trkpt lat="46.5431733" lon="12.4607217"><ele>848.0</ele><time>2026-04-17T09:46:07.52Z</time></trkpt><trkpt lat="46.5432817" lon="12.46069"><ele>848.0</ele><time>2026-04-17T09:46:08.52Z</time></trkpt><trkpt lat="46.5434" lon="12.460655"><ele>848.0</ele><time>2026-04-17T09:46:09.519Z</time></trkpt><trkpt lat="46.543515" lon="12.4605883"><ele>848.0</ele><time>2026-04-17T09:46:10.521Z</time></trkpt><trkpt lat="46.5436067" lon="12.4604883"><ele>848.0</ele><time>2026-04-17T09:46:11.52Z</time></trkpt><trkpt lat="46.5436817" lon="12.4603583"><ele>849.25</ele><time>2026-04-17T09:46:12.519Z</time></trkpt><trkpt lat="46.5437583" lon="12.4602183"><ele>850.5</ele><time>2026-04-17T09:46:13.52Z</time></trkpt><trkpt lat="46.5438467" lon="12.4600883"><ele>851.75</ele><time>2026-04-17T09:46:14.52Z</time></trkpt><trkpt lat="46.5439433" lon="12.4599633"><ele>853.0</ele><time>2026-04-17T09:46:15.518Z</time></trkpt><trkpt lat="46.54405" lon="12.459845"><ele>853.0</ele><time>2026-04-17T09:46:16.519Z</time></trkpt><trkpt lat="46.5441617" lon="12.4597217"><ele>853.0</ele><time>2026-04-17T09:46:17.522Z</time></trkpt><trkpt lat="46.54427" lon="12.4595967"><ele>853.0</ele><time>2026-04-17T09:46:18.519Z</time></trkpt><trkpt lat="46.5443683" lon="12.4594733"><ele>853.0</ele><time>2026-04-17T09:46:19.521Z</time></trkpt><trkpt lat="46.5444683" lon="12.459345"><ele>851.75</ele><time>2026-04-17T09:46:20.52Z</time></trkpt><trkpt lat="46.54457" lon="12.4592117"><ele>850.5</ele><time>2026-04-17T09:46:21.519Z</time></trkpt><trkpt lat="46.5446767" lon="12.4590733"><ele>849.25</ele><time>2026-04-17T09:46:22.522Z</time></trkpt><trkpt lat="46.5447817" lon="12.4589367"><ele>848.0</ele><time>2026-04-17T09:46:23.52Z</time></trkpt><trkpt lat="46.544885" lon="12.4588067"><ele>847.5999999999999</ele><time>2026-04-17T09:46:24.52Z</time></trkpt><trkpt lat="46.5449767" lon="12.4586833"><ele>847.1999999999999</ele><time>2026-04-17T09:46:25.519Z</time></trkpt><trkpt lat="46.5450583" lon="12.458575"><ele>846.8</ele><time>2026-04-17T09:46:26.521Z</time></trkpt><trkpt lat="46.545125" lon="12.4584667"><ele>846.4</ele><time>2026-04-17T09:46:27.519Z</time></trkpt><trkpt lat="46.5451867" lon="12.45834"><ele>846.0</ele><time>2026-04-17T09:46:28.52Z</time></trkpt><trkpt lat="46.5452317" lon="12.4582133"><ele>846.0</ele><time>2026-04-17T09:46:29.52Z</time></trkpt><trkpt lat="46.54527" lon="12.45809"><ele>846.0</ele><time>2026-04-17T09:46:30.519Z</time></trkpt><trkpt lat="46.5452933" lon="12.45795"><ele>846.0</ele><time>2026-04-17T09:46:31.519Z</time></trkpt><trkpt lat="46.5453283" lon="12.4577883"><ele>846.0</ele><time>2026-04-17T09:46:32.52Z</time></trkpt><trkpt lat="46.5453633" lon="12.4576167"><ele>846.0</ele><time>2026-04-17T09:46:33.519Z</time></trkpt><trkpt lat="46.5454033" lon="12.4574383"><ele>847.75</ele><time>2026-04-17T09:46:34.519Z</time></trkpt><trkpt lat="46.545445" lon="12.4572467"><ele>849.5</ele><time>2026-04-17T09:46:35.519Z</time></trkpt><trkpt lat="46.5454917" lon="12.4570533"><ele>851.25</ele><time>2026-04-17T09:46:36.519Z</time></trkpt><trkpt lat="46.5455383" lon="12.4568667"><ele>853.0</ele><time>2026-04-17T09:46:37.519Z</time></trkpt><trkpt lat="46.54559" lon="12.456685"><ele>853.0</ele><time>2026-04-17T09:46:38.52Z</time></trkpt><trkpt lat="46.545645" lon="12.45651"><ele>853.0</ele><time>2026-04-17T09:46:39.52Z</time></trkpt><trkpt lat="46.545715" lon="12.45634"><ele>853.0</ele><time>2026-04-17T09:46:40.519Z</time></trkpt><trkpt lat="46.545785" lon="12.4561767"><ele>853.0</ele><time>2026-04-17T09:46:41.519Z</time></trkpt><trkpt lat="46.54586" lon="12.4560133"><ele>852.5</ele><time>2026-04-17T09:46:42.519Z</time></trkpt><trkpt lat="46.54594" lon="12.45586"><ele>852.0</ele><time>2026-04-17T09:46:43.519Z</time></trkpt><trkpt lat="46.5460117" lon="12.4557133"><ele>851.5</ele><time>2026-04-17T09:46:44.518Z</time></trkpt><trkpt lat="46.546095" lon="12.4555683"><ele>851.0</ele><time>2026-04-17T09:46:45.518Z</time></trkpt><trkpt lat="46.5461783" lon="12.45542"><ele>852.25</ele><time>2026-04-17T09:46:46.517Z</time></trkpt><trkpt lat="46.54625" lon="12.4552733"><ele>853.5</ele><time>2026-04-17T09:46:47.518Z</time></trkpt><trkpt lat="46.54633" lon="12.4551367"><ele>854.75</ele><time>2026-04-17T09:46:48.518Z</time></trkpt><trkpt lat="46.5464" lon="12.45501"><ele>856.0</ele><time>2026-04-17T09:46:49.518Z</time></trkpt><trkpt lat="46.54646" lon="12.4548933"><ele>856.0</ele><time>2026-04-17T09:46:50.518Z</time></trkpt><trkpt lat="46.5465117" lon="12.45478"><ele>855.9999999999999</ele><time>2026-04-17T09:46:51.518Z</time></trkpt><trkpt lat="46.54656" lon="12.4546867"><ele>855.9999999999999</ele><time>2026-04-17T09:46:52.518Z</time></trkpt><trkpt lat="46.5466033" lon="12.4546067"><ele>856.0</ele><time>2026-04-17T09:46:53.518Z</time></trkpt><trkpt lat="46.5466583" lon="12.4544633"><ele>856.0</ele><time>2026-04-17T09:46:55.519Z</time></trkpt><trkpt lat="46.546715" lon="12.4543033"><ele>855.8</ele><time>2026-04-17T09:46:57.516Z</time></trkpt><trkpt lat="46.5467583" lon="12.4542083"><ele>855.5999999999999</ele><time>2026-04-17T09:46:58.518Z</time></trkpt><trkpt lat="46.546805" lon="12.4540917"><ele>855.4</ele><time>2026-04-17T09:46:59.518Z</time></trkpt><trkpt lat="46.5468683" lon="12.45396"><ele>855.2</ele><time>2026-04-17T09:47:00.517Z</time></trkpt><trkpt lat="46.5469217" lon="12.453805"><ele>855.0</ele><time>2026-04-17T09:47:01.519Z</time></trkpt><trkpt lat="46.546975" lon="12.45364"><ele>854.5</ele><time>2026-04-17T09:47:02.521Z</time></trkpt><trkpt lat="46.54703" lon="12.4534733"><ele>854.0</ele><time>2026-04-17T09:47:03.517Z</time></trkpt><trkpt lat="46.54708" lon="12.4533133"><ele>853.5</ele><time>2026-04-17T09:47:04.518Z</time></trkpt><trkpt lat="46.5471333" lon="12.45315"><ele>853.0</ele><time>2026-04-17T09:47:05.518Z</time></trkpt><trkpt lat="46.5471983" lon="12.452995"><ele>853.0</ele><time>2026-04-17T09:47:06.518Z</time></trkpt><trkpt lat="46.5472783" lon="12.452845"><ele>853.0</ele><time>2026-04-17T09:47:07.518Z</time></trkpt><trkpt lat="46.5473667" lon="12.4526933"><ele>853.0</ele><time>2026-04-17T09:47:08.518Z</time></trkpt><trkpt lat="46.547465" lon="12.452545"><ele>853.0</ele><time>2026-04-17T09:47:09.518Z</time></trkpt><trkpt lat="46.5475533" lon="12.4523983"><ele>853.0</ele><time>2026-04-17T09:47:10.517Z</time></trkpt><trkpt lat="46.5476467" lon="12.4522533"><ele>853.0</ele><time>2026-04-17T09:47:11.52Z</time></trkpt><trkpt lat="46.54774" lon="12.4521033"><ele>853.0</ele><time>2026-04-17T09:47:12.518Z</time></trkpt><trkpt lat="46.54783" lon="12.4519517"><ele>853.0</ele><time>2026-04-17T09:47:13.518Z</time></trkpt><trkpt lat="46.5479033" lon="12.4517817"><ele>854.5</ele><time>2026-04-17T09:47:14.518Z</time></trkpt><trkpt lat="46.5479633" lon="12.4516017"><ele>856.0</ele><time>2026-04-17T09:47:15.519Z</time></trkpt><trkpt lat="46.548005" lon="12.4514217"><ele>857.5</ele><time>2026-04-17T09:47:16.517Z</time></trkpt><trkpt lat="46.5480433" lon="12.4512417"><ele>859.0</ele><time>2026-04-17T09:47:17.518Z</time></trkpt><trkpt lat="46.5480733" lon="12.4510667"><ele>859.0</ele><time>2026-04-17T09:47:18.518Z</time></trkpt><trkpt lat="46.5481117" lon="12.4508883"><ele>859.0</ele><time>2026-04-17T09:47:19.518Z</time></trkpt><trkpt lat="46.548155" lon="12.4507083"><ele>859.0</ele><time>2026-04-17T09:47:20.518Z</time></trkpt><trkpt lat="46.548205" lon="12.4505267"><ele>859.0</ele><time>2026-04-17T09:47:21.517Z</time></trkpt><trkpt lat="46.5482583" lon="12.450355"><ele>858.0</ele><time>2026-04-17T09:47:22.516Z</time></trkpt><trkpt lat="46.5483117" lon="12.4501933"><ele>857.0</ele><time>2026-04-17T09:47:23.518Z</time></trkpt><trkpt lat="46.5483683" lon="12.4500417"><ele>856.0</ele><time>2026-04-17T09:47:24.518Z</time></trkpt><trkpt lat="46.5484333" lon="12.4498933"><ele>855.0</ele><time>2026-04-17T09:47:25.519Z</time></trkpt><trkpt lat="46.5485033" lon="12.4497483"><ele>856.25</ele><time>2026-04-17T09:47:26.519Z</time></trkpt><trkpt lat="46.54858" lon="12.449595"><ele>857.5</ele><time>2026-04-17T09:47:27.517Z</time></trkpt><trkpt lat="46.5486533" lon="12.4494467"><ele>858.75</ele><time>2026-04-17T09:47:28.517Z</time></trkpt><trkpt lat="46.5487283" lon="12.4492917"><ele>860.0</ele><time>2026-04-17T09:47:29.518Z</time></trkpt><trkpt lat="46.5488017" lon="12.4491383"><ele>860.0</ele><time>2026-04-17T09:47:30.517Z</time></trkpt><trkpt lat="46.5488717" lon="12.448975"><ele>860.0</ele><time>2026-04-17T09:47:31.518Z</time></trkpt><trkpt lat="46.5489383" lon="12.448805"><ele>860.0</ele><time>2026-04-17T09:47:32.518Z</time></trkpt><trkpt lat="46.5489933" lon="12.4486317"><ele>860.0</ele><time>2026-04-17T09:47:33.518Z</time></trkpt><trkpt lat="46.5490417" lon="12.4484583"><ele>859.75</ele><time>2026-04-17T09:47:34.518Z</time></trkpt><trkpt lat="46.5490833" lon="12.4482883"><ele>859.5</ele><time>2026-04-17T09:47:35.518Z</time></trkpt><trkpt lat="46.5491283" lon="12.448135"><ele>859.25</ele><time>2026-04-17T09:47:36.518Z</time></trkpt><trkpt lat="46.5491683" lon="12.44799"><ele>859.0</ele><time>2026-04-17T09:47:37.518Z</time></trkpt><trkpt lat="46.54921" lon="12.447845"><ele>859.0</ele><time>2026-04-17T09:47:38.517Z</time></trkpt><trkpt lat="46.54925" lon="12.447695"><ele>859.0000000000001</ele><time>2026-04-17T09:47:39.517Z</time></trkpt><trkpt lat="46.5492833" lon="12.4475467"><ele>859.0000000000001</ele><time>2026-04-17T09:47:40.52Z</time></trkpt><trkpt lat="46.5493283" lon="12.4474033"><ele>859.0</ele><time>2026-04-17T09:47:41.518Z</time></trkpt><trkpt lat="46.54937" lon="12.447255"><ele>859.0</ele><time>2026-04-17T09:47:42.518Z</time></trkpt><trkpt lat="46.54941" lon="12.44711"><ele>858.9999999999999</ele><time>2026-04-17T09:47:43.518Z</time></trkpt><trkpt lat="46.54945" lon="12.4469683"><ele>859.0</ele><time>2026-04-17T09:47:44.518Z</time></trkpt><trkpt lat="46.5495" lon="12.4468517"><ele>859.0</ele><time>2026-04-17T09:47:45.518Z</time></trkpt><trkpt lat="46.5495417" lon="12.4467367"><ele>859.0</ele><time>2026-04-17T09:47:46.518Z</time></trkpt><trkpt lat="46.5495783" lon="12.44663"><ele>858.9999999999999</ele><time>2026-04-17T09:47:47.518Z</time></trkpt><trkpt lat="46.5496133" lon="12.4465333"><ele>859.0</ele><time>2026-04-17T09:47:48.518Z</time></trkpt><trkpt lat="46.5496517" lon="12.4464333"><ele>860.4000000000001</ele><time>2026-04-17T09:47:49.518Z</time></trkpt><trkpt lat="46.5496833" lon="12.4463233"><ele>861.8000000000001</ele><time>2026-04-17T09:47:50.518Z</time></trkpt><trkpt lat="46.5497283" lon="12.44621"><ele>863.1999999999999</ele><time>2026-04-17T09:47:51.518Z</time></trkpt><trkpt lat="46.5497767" lon="12.4460817"><ele>864.5999999999999</ele><time>2026-04-17T09:47:52.518Z</time></trkpt><trkpt lat="46.5498217" lon="12.4459433"><ele>866.0</ele><time>2026-04-17T09:47:53.518Z</time></trkpt><trkpt lat="46.54987" lon="12.4458117"><ele>866.0</ele><time>2026-04-17T09:47:54.517Z</time></trkpt><trkpt lat="46.5499133" lon="12.4456883"><ele>865.9999999999999</ele><time>2026-04-17T09:47:55.517Z</time></trkpt><trkpt lat="46.549955" lon="12.4455683"><ele>865.9999999999999</ele><time>2026-04-17T09:47:56.518Z</time></trkpt><trkpt lat="46.55" lon="12.4454483"><ele>866.0</ele><time>2026-04-17T09:47:57.518Z</time></trkpt><trkpt lat="46.5500433" lon="12.4453333"><ele>866.0</ele><time>2026-04-17T09:47:58.517Z</time></trkpt><trkpt lat="46.550085" lon="12.4452283"><ele>865.3333333333334</ele><time>2026-04-17T09:47:59.519Z</time></trkpt><trkpt lat="46.5501233" lon="12.4451283"><ele>864.6666666666667</ele><time>2026-04-17T09:48:00.518Z</time></trkpt><trkpt lat="46.5501633" lon="12.445035"><ele>864.0</ele><time>2026-04-17T09:48:01.518Z</time></trkpt><trkpt lat="46.55021" lon="12.44494"><ele>863.3333333333333</ele><time>2026-04-17T09:48:02.518Z</time></trkpt><trkpt lat="46.5502583" lon="12.4448433"><ele>862.6666666666666</ele><time>2026-04-17T09:48:03.517Z</time></trkpt><trkpt lat="46.5503133" lon="12.4447433"><ele>862.0</ele><time>2026-04-17T09:48:04.517Z</time></trkpt><trkpt lat="46.550375" lon="12.44464"><ele>862.8</ele><time>2026-04-17T09:48:05.518Z</time></trkpt><trkpt lat="46.5504383" lon="12.4445333"><ele>863.6</ele><time>2026-04-17T09:48:06.517Z</time></trkpt><trkpt lat="46.550505" lon="12.444425"><ele>864.3999999999999</ele><time>2026-04-17T09:48:07.518Z</time></trkpt><trkpt lat="46.5505717" lon="12.4443117"><ele>865.1999999999999</ele><time>2026-04-17T09:48:08.518Z</time></trkpt><trkpt lat="46.5506467" lon="12.4442067"><ele>866.0</ele><time>2026-04-17T09:48:09.518Z</time></trkpt><trkpt lat="46.550715" lon="12.4440933"><ele>866.0</ele><time>2026-04-17T09:48:10.518Z</time></trkpt><trkpt lat="46.5507883" lon="12.4439833"><ele>865.9999999999999</ele><time>2026-04-17T09:48:11.518Z</time></trkpt><trkpt lat="46.550865" lon="12.4438733"><ele>865.9999999999999</ele><time>2026-04-17T09:48:12.518Z</time></trkpt><trkpt lat="46.5509333" lon="12.4437667"><ele>866.0</ele><time>2026-04-17T09:48:13.518Z</time></trkpt><trkpt lat="46.5510117" lon="12.4436567"><ele>866.0</ele><time>2026-04-17T09:48:14.518Z</time></trkpt><trkpt lat="46.5510733" lon="12.44354"><ele>866.8</ele><time>2026-04-17T09:48:15.518Z</time></trkpt><trkpt lat="46.551135" lon="12.4434333"><ele>867.5999999999999</ele><time>2026-04-17T09:48:16.52Z</time></trkpt><trkpt lat="46.5511967" lon="12.44333"><ele>868.4</ele><time>2026-04-17T09:48:17.517Z</time></trkpt><trkpt lat="46.5512433" lon="12.4432117"><ele>869.2</ele><time>2026-04-17T09:48:18.518Z</time></trkpt><trkpt lat="46.5513017" lon="12.4431017"><ele>870.0</ele><time>2026-04-17T09:48:19.518Z</time></trkpt><trkpt lat="46.5513567" lon="12.4429967"><ele>869.1666666666666</ele><time>2026-04-17T09:48:20.52Z</time></trkpt><trkpt lat="46.551395" lon="12.4428967"><ele>868.3333333333333</ele><time>2026-04-17T09:48:21.518Z</time></trkpt><trkpt lat="46.5514217" lon="12.4428133"><ele>867.5</ele><time>2026-04-17T09:48:22.521Z</time></trkpt><trkpt lat="46.5514783" lon="12.4426717"><ele>866.6666666666666</ele><time>2026-04-17T09:48:24.518Z</time></trkpt><trkpt lat="46.5515133" lon="12.4425867"><ele>865.8333333333333</ele><time>2026-04-17T09:48:25.518Z</time></trkpt><trkpt lat="46.5515533" lon="12.4424683"><ele>865.0</ele><time>2026-04-17T09:48:26.52Z</time></trkpt><trkpt lat="46.5515933" lon="12.4423567"><ele>865.0</ele><time>2026-04-17T09:48:27.518Z</time></trkpt><trkpt lat="46.55165" lon="12.4422417"><ele>865.0</ele><time>2026-04-17T09:48:28.517Z</time></trkpt><trkpt lat="46.5517" lon="12.4421167"><ele>865.0</ele><time>2026-04-17T09:48:29.517Z</time></trkpt><trkpt lat="46.55176" lon="12.4419917"><ele>865.0</ele><time>2026-04-17T09:48:30.518Z</time></trkpt><trkpt lat="46.551825" lon="12.4418617"><ele>865.0</ele><time>2026-04-17T09:48:31.518Z</time></trkpt><trkpt lat="46.55189" lon="12.4417317"><ele>864.75</ele><time>2026-04-17T09:48:32.518Z</time></trkpt><trkpt lat="46.551955" lon="12.4416"><ele>864.5</ele><time>2026-04-17T09:48:33.518Z</time></trkpt><trkpt lat="46.5520183" lon="12.4414633"><ele>864.25</ele><time>2026-04-17T09:48:34.518Z</time></trkpt><trkpt lat="46.5520817" lon="12.44132"><ele>864.0</ele><time>2026-04-17T09:48:35.518Z</time></trkpt><trkpt lat="46.5521567" lon="12.441185"><ele>862.0</ele><time>2026-04-17T09:48:36.518Z</time></trkpt><trkpt lat="46.552235" lon="12.4410533"><ele>860.0</ele><time>2026-04-17T09:48:37.518Z</time></trkpt><trkpt lat="46.5523133" lon="12.4409167"><ele>858.0</ele><time>2026-04-17T09:48:38.519Z</time></trkpt><trkpt lat="46.55239" lon="12.4407817"><ele>856.0</ele><time>2026-04-17T09:48:39.518Z</time></trkpt><trkpt lat="46.5524617" lon="12.4406517"><ele>856.0</ele><time>2026-04-17T09:48:40.518Z</time></trkpt><trkpt lat="46.5525367" lon="12.440545"><ele>855.9999999999999</ele><time>2026-04-17T09:48:41.518Z</time></trkpt><trkpt lat="46.5526067" lon="12.4404383"><ele>855.9999999999999</ele><time>2026-04-17T09:48:42.517Z</time></trkpt><trkpt lat="46.5526733" lon="12.4403383"><ele>856.0</ele><time>2026-04-17T09:48:43.518Z</time></trkpt><trkpt lat="46.5527267" lon="12.4402383"><ele>856.0</ele><time>2026-04-17T09:48:44.518Z</time></trkpt><trkpt lat="46.552755" lon="12.4401333"><ele>856.1666666666666</ele><time>2026-04-17T09:48:45.518Z</time></trkpt><trkpt lat="46.552765" lon="12.4400133"><ele>856.3333333333333</ele><time>2026-04-17T09:48:46.519Z</time></trkpt><trkpt lat="46.5527667" lon="12.4398917"><ele>856.5</ele><time>2026-04-17T09:48:47.519Z</time></trkpt><trkpt lat="46.55277" lon="12.439775"><ele>856.6666666666667</ele><time>2026-04-17T09:48:48.518Z</time></trkpt><trkpt lat="46.5527617" lon="12.4396567"><ele>856.8333333333334</ele><time>2026-04-17T09:48:49.518Z</time></trkpt><trkpt lat="46.5527317" lon="12.4395367"><ele>857.0</ele><time>2026-04-17T09:48:50.518Z</time></trkpt><trkpt lat="46.552675" lon="12.4394267"><ele>857.4000000000001</ele><time>2026-04-17T09:48:51.519Z</time></trkpt><trkpt lat="46.5526267" lon="12.4393133"><ele>857.8000000000001</ele><time>2026-04-17T09:48:52.518Z</time></trkpt><trkpt lat="46.5525933" lon="12.439185"><ele>858.2</ele><time>2026-04-17T09:48:53.518Z</time></trkpt><trkpt lat="46.552545" lon="12.4390583"><ele>858.6</ele><time>2026-04-17T09:48:54.518Z</time></trkpt><trkpt lat="46.5524967" lon="12.4389183"><ele>859.0</ele><time>2026-04-17T09:48:55.518Z</time></trkpt><trkpt lat="46.5524467" lon="12.4387867"><ele>859.8000000000001</ele><time>2026-04-17T09:48:56.518Z</time></trkpt><trkpt lat="46.552395" lon="12.4386583"><ele>860.6000000000001</ele><time>2026-04-17T09:48:57.518Z</time></trkpt><trkpt lat="46.5523383" lon="12.43853"><ele>861.4</ele><time>2026-04-17T09:48:58.518Z</time></trkpt><trkpt lat="46.5522933" lon="12.4383983"><ele>862.2</ele><time>2026-04-17T09:48:59.519Z</time></trkpt><trkpt lat="46.5522417" lon="12.4382867"><ele>863.0</ele><time>2026-04-17T09:49:00.518Z</time></trkpt><trkpt lat="46.5522" lon="12.43817"><ele>863.0</ele><time>2026-04-17T09:49:01.518Z</time></trkpt><trkpt lat="46.5521717" lon="12.4380483"><ele>863.0</ele><time>2026-04-17T09:49:02.522Z</time></trkpt><trkpt lat="46.5521383" lon="12.4379433"><ele>863.0</ele><time>2026-04-17T09:49:03.518Z</time></trkpt><trkpt lat="46.55211" lon="12.43785"><ele>863.0</ele><time>2026-04-17T09:49:04.519Z</time></trkpt><trkpt lat="46.5520717" lon="12.43769"><ele>863.0</ele><time>2026-04-17T09:49:06.518Z</time></trkpt><trkpt lat="46.5520517" lon="12.4375367"><ele>863.5999999999999</ele><time>2026-04-17T09:49:08.52Z</time></trkpt><trkpt lat="46.5520317" lon="12.4374467"><ele>864.1999999999999</ele><time>2026-04-17T09:49:09.518Z</time></trkpt><trkpt lat="46.5520317" lon="12.4373317"><ele>864.8</ele><time>2026-04-17T09:49:10.518Z</time></trkpt><trkpt lat="46.5520333" lon="12.4371883"><ele>865.4</ele><time>2026-04-17T09:49:11.518Z</time></trkpt><trkpt lat="46.552045" lon="12.437025"><ele>866.0</ele><time>2026-04-17T09:49:12.517Z</time></trkpt><trkpt lat="46.552055" lon="12.4368383"><ele>866.0</ele><time>2026-04-17T09:49:13.518Z</time></trkpt><trkpt lat="46.552065" lon="12.4366483"><ele>866.0</ele><time>2026-04-17T09:49:14.517Z</time></trkpt><trkpt lat="46.552075" lon="12.4364667"><ele>866.0</ele><time>2026-04-17T09:49:15.52Z</time></trkpt><trkpt lat="46.5520767" lon="12.43629"><ele>866.0</ele><time>2026-04-17T09:49:16.518Z</time></trkpt><trkpt lat="46.5520733" lon="12.4361317"><ele>866.8</ele><time>2026-04-17T09:49:17.518Z</time></trkpt><trkpt lat="46.5520683" lon="12.4359717"><ele>867.5999999999999</ele><time>2026-04-17T09:49:18.518Z</time></trkpt><trkpt lat="46.5520633" lon="12.435815"><ele>868.4</ele><time>2026-04-17T09:49:19.518Z</time></trkpt><trkpt lat="46.5520567" lon="12.4356583"><ele>869.2</ele><time>2026-04-17T09:49:20.518Z</time></trkpt><trkpt lat="46.55205" lon="12.4355"><ele>870.0</ele><time>2026-04-17T09:49:21.518Z</time></trkpt><trkpt lat="46.5520533" lon="12.435335"><ele>870.0</ele><time>2026-04-17T09:49:22.517Z</time></trkpt><trkpt lat="46.5520567" lon="12.43518"><ele>870.0</ele><time>2026-04-17T09:49:23.518Z</time></trkpt><trkpt lat="46.552065" lon="12.4350267"><ele>870.0</ele><time>2026-04-17T09:49:24.518Z</time></trkpt><trkpt lat="46.552075" lon="12.43488"><ele>870.0</ele><time>2026-04-17T09:49:25.519Z</time></trkpt><trkpt lat="46.55209" lon="12.43473"><ele>870.0</ele><time>2026-04-17T09:49:26.519Z</time></trkpt><trkpt lat="46.55211" lon="12.43457"><ele>870.0</ele><time>2026-04-17T09:49:27.518Z</time></trkpt><trkpt lat="46.5521367" lon="12.434405"><ele>870.0</ele><time>2026-04-17T09:49:28.518Z</time></trkpt><trkpt lat="46.5521583" lon="12.434235"><ele>870.0</ele><time>2026-04-17T09:49:29.519Z</time></trkpt><trkpt lat="46.5521817" lon="12.4340683"><ele>870.0</ele><time>2026-04-17T09:49:30.518Z</time></trkpt><trkpt lat="46.5522267" lon="12.4339067"><ele>869.2</ele><time>2026-04-17T09:49:31.518Z</time></trkpt><trkpt lat="46.552265" lon="12.4337517"><ele>868.4</ele><time>2026-04-17T09:49:32.519Z</time></trkpt><trkpt lat="46.5522983" lon="12.4335983"><ele>867.5999999999999</ele><time>2026-04-17T09:49:33.518Z</time></trkpt><trkpt lat="46.5523333" lon="12.4334467"><ele>866.8</ele><time>2026-04-17T09:49:34.521Z</time></trkpt><trkpt lat="46.5523817" lon="12.433315"><ele>866.0</ele><time>2026-04-17T09:49:35.518Z</time></trkpt><trkpt lat="46.55244" lon="12.4331867"><ele>866.0</ele><time>2026-04-17T09:49:36.517Z</time></trkpt><trkpt lat="46.5525083" lon="12.4330567"><ele>866.0</ele><time>2026-04-17T09:49:37.518Z</time></trkpt><trkpt lat="46.5525833" lon="12.4329333"><ele>866.0</ele><time>2026-04-17T09:49:38.519Z</time></trkpt><trkpt lat="46.552665" lon="12.432815"><ele>866.0</ele><time>2026-04-17T09:49:39.518Z</time></trkpt><trkpt lat="46.552755" lon="12.432705"><ele>866.0</ele><time>2026-04-17T09:49:40.518Z</time></trkpt><trkpt lat="46.55285" lon="12.4326017"><ele>866.0</ele><time>2026-04-17T09:49:41.518Z</time></trkpt><trkpt lat="46.5529467" lon="12.4324983"><ele>866.0</ele><time>2026-04-17T09:49:42.519Z</time></trkpt><trkpt lat="46.55304" lon="12.432395"><ele>866.0</ele><time>2026-04-17T09:49:43.518Z</time></trkpt><trkpt lat="46.55313" lon="12.43228"><ele>866.0</ele><time>2026-04-17T09:49:44.518Z</time></trkpt><trkpt lat="46.5532117" lon="12.43215"><ele>866.0</ele><time>2026-04-17T09:49:45.518Z</time></trkpt><trkpt lat="46.5532867" lon="12.4320067"><ele>866.0</ele><time>2026-04-17T09:49:46.519Z</time></trkpt><trkpt lat="46.5533567" lon="12.43185"><ele>866.0</ele><time>2026-04-17T09:49:47.519Z</time></trkpt><trkpt lat="46.553425" lon="12.4316867"><ele>865.5</ele><time>2026-04-17T09:49:48.519Z</time></trkpt><trkpt lat="46.5534817" lon="12.4315033"><ele>865.0</ele><time>2026-04-17T09:49:49.518Z</time></trkpt><trkpt lat="46.5535433" lon="12.43131"><ele>864.5</ele><time>2026-04-17T09:49:50.52Z</time></trkpt><trkpt lat="46.553605" lon="12.431115"><ele>864.0</ele><time>2026-04-17T09:49:51.518Z</time></trkpt><trkpt lat="46.553665" lon="12.4309267"><ele>864.0</ele><time>2026-04-17T09:49:52.524Z</time></trkpt><trkpt lat="46.5537267" lon="12.43075"><ele>864.0</ele><time>2026-04-17T09:49:53.519Z</time></trkpt><trkpt lat="46.553785" lon="12.43059"><ele>864.0</ele><time>2026-04-17T09:49:54.519Z</time></trkpt><trkpt lat="46.553845" lon="12.4304417"><ele>864.0</ele><time>2026-04-17T09:49:55.519Z</time></trkpt><trkpt lat="46.5539067" lon="12.43029"><ele>864.0</ele><time>2026-04-17T09:49:56.519Z</time></trkpt><trkpt lat="46.5539667" lon="12.4301467"><ele>864.0</ele><time>2026-04-17T09:49:57.518Z</time></trkpt><trkpt lat="46.5540367" lon="12.4300067"><ele>864.0</ele><time>2026-04-17T09:49:58.518Z</time></trkpt><trkpt lat="46.554115" lon="12.4298733"><ele>864.0</ele><time>2026-04-17T09:49:59.519Z</time></trkpt><trkpt lat="46.5542017" lon="12.4297633"><ele>864.0</ele><time>2026-04-17T09:50:00.519Z</time></trkpt><trkpt lat="46.554295" lon="12.4296683"><ele>864.0000000000001</ele><time>2026-04-17T09:50:01.519Z</time></trkpt><trkpt lat="46.55439" lon="12.4295917"><ele>864.0000000000001</ele><time>2026-04-17T09:50:02.519Z</time></trkpt><trkpt lat="46.5544883" lon="12.42951"><ele>864.0</ele><time>2026-04-17T09:50:03.518Z</time></trkpt><trkpt lat="46.554585" lon="12.4294317"><ele>864.0</ele><time>2026-04-17T09:50:04.519Z</time></trkpt><trkpt lat="46.55469" lon="12.4293483"><ele>864.25</ele><time>2026-04-17T09:50:05.519Z</time></trkpt><trkpt lat="46.5547967" lon="12.4292583"><ele>864.5</ele><time>2026-04-17T09:50:06.518Z</time></trkpt><trkpt lat="46.5549083" lon="12.429175"><ele>864.75</ele><time>2026-04-17T09:50:07.518Z</time></trkpt><trkpt lat="46.5550183" lon="12.4290833"><ele>865.0</ele><time>2026-04-17T09:50:08.519Z</time></trkpt><trkpt lat="46.5551267" lon="12.4289933"><ele>865.0</ele><time>2026-04-17T09:50:09.517Z</time></trkpt><trkpt lat="46.5552433" lon="12.4289117"><ele>865.0</ele><time>2026-04-17T09:50:10.518Z</time></trkpt><trkpt lat="46.55536" lon="12.428825"><ele>865.0</ele><time>2026-04-17T09:50:11.519Z</time></trkpt><trkpt lat="46.5554817" lon="12.4287433"><ele>865.0</ele><time>2026-04-17T09:50:12.518Z</time></trkpt><trkpt lat="46.5556067" lon="12.42867"><ele>864.5</ele><time>2026-04-17T09:50:13.519Z</time></trkpt><trkpt lat="46.5557333" lon="12.4286017"><ele>864.0</ele><time>2026-04-17T09:50:14.52Z</time></trkpt><trkpt lat="46.5558567" lon="12.4285417"><ele>863.5</ele><time>2026-04-17T09:50:15.519Z</time></trkpt><trkpt lat="46.555975" lon="12.4284817"><ele>863.0</ele><time>2026-04-17T09:50:16.519Z</time></trkpt><trkpt lat="46.556095" lon="12.4284283"><ele>863.5</ele><time>2026-04-17T09:50:17.518Z</time></trkpt><trkpt lat="46.556215" lon="12.4283733"><ele>864.0</ele><time>2026-04-17T09:50:18.519Z</time></trkpt><trkpt lat="46.55634" lon="12.42831"><ele>864.5</ele><time>2026-04-17T09:50:19.519Z</time></trkpt><trkpt lat="46.55647" lon="12.42825"><ele>865.0</ele><time>2026-04-17T09:50:20.519Z</time></trkpt><trkpt lat="46.5566017" lon="12.4281867"><ele>865.0</ele><time>2026-04-17T09:50:21.518Z</time></trkpt><trkpt lat="46.5567333" lon="12.428125"><ele>865.0</ele><time>2026-04-17T09:50:22.521Z</time></trkpt><trkpt lat="46.5568633" lon="12.4280667"><ele>865.0</ele><time>2026-04-17T09:50:23.519Z</time></trkpt><trkpt lat="46.5569867" lon="12.428"><ele>865.0</ele><time>2026-04-17T09:50:24.518Z</time></trkpt><trkpt lat="46.5571" lon="12.4279333"><ele>865.5</ele><time>2026-04-17T09:50:25.519Z</time></trkpt><trkpt lat="46.557205" lon="12.427855"><ele>866.0</ele><time>2026-04-17T09:50:26.519Z</time></trkpt><trkpt lat="46.5572983" lon="12.4277583"><ele>866.5</ele><time>2026-04-17T09:50:27.518Z</time></trkpt><trkpt lat="46.5573817" lon="12.4276417"><ele>867.0</ele><time>2026-04-17T09:50:28.521Z</time></trkpt><trkpt lat="46.557455" lon="12.427505"><ele>867.0</ele><time>2026-04-17T09:50:29.518Z</time></trkpt><trkpt lat="46.5575183" lon="12.4273533"><ele>867.0</ele><time>2026-04-17T09:50:30.519Z</time></trkpt><trkpt lat="46.55757" lon="12.4271867"><ele>867.0</ele><time>2026-04-17T09:50:31.519Z</time></trkpt><trkpt lat="46.5576117" lon="12.4270083"><ele>867.0</ele><time>2026-04-17T09:50:32.52Z</time></trkpt><trkpt lat="46.5576467" lon="12.4268167"><ele>867.0</ele><time>2026-04-17T09:50:33.518Z</time></trkpt><trkpt lat="46.5576817" lon="12.4266233"><ele>867.0</ele><time>2026-04-17T09:50:34.52Z</time></trkpt><trkpt lat="46.5577133" lon="12.4264267"><ele>867.0</ele><time>2026-04-17T09:50:35.522Z</time></trkpt><trkpt lat="46.5577517" lon="12.426235"><ele>867.0</ele><time>2026-04-17T09:50:36.518Z</time></trkpt><trkpt lat="46.55779" lon="12.4260533"><ele>867.0</ele><time>2026-04-17T09:50:37.519Z</time></trkpt><trkpt lat="46.5578233" lon="12.4258833"><ele>867.0</ele><time>2026-04-17T09:50:38.521Z</time></trkpt><trkpt lat="46.557855" lon="12.42572"><ele>867.0</ele><time>2026-04-17T09:50:39.518Z</time></trkpt><trkpt lat="46.5578867" lon="12.4255567"><ele>867.0</ele><time>2026-04-17T09:50:40.517Z</time></trkpt><trkpt lat="46.55792" lon="12.4253967"><ele>869.5</ele><time>2026-04-17T09:50:41.518Z</time></trkpt><trkpt lat="46.5579517" lon="12.42523"><ele>872.0</ele><time>2026-04-17T09:50:42.521Z</time></trkpt><trkpt lat="46.5579867" lon="12.42505"><ele>874.5</ele><time>2026-04-17T09:50:43.519Z</time></trkpt><trkpt lat="46.5580283" lon="12.42485"><ele>877.0</ele><time>2026-04-17T09:50:44.519Z</time></trkpt><trkpt lat="46.55807" lon="12.4246467"><ele>876.0</ele><time>2026-04-17T09:50:45.518Z</time></trkpt><trkpt lat="46.5581117" lon="12.4244533"><ele>875.0</ele><time>2026-04-17T09:50:46.518Z</time></trkpt><trkpt lat="46.5581483" lon="12.4242683"><ele>874.0</ele><time>2026-04-17T09:50:47.519Z</time></trkpt><trkpt lat="46.5581933" lon="12.4240883"><ele>873.0</ele><time>2026-04-17T09:50:48.518Z</time></trkpt><trkpt lat="46.5582517" lon="12.4239217"><ele>871.8</ele><time>2026-04-17T09:50:49.519Z</time></trkpt><trkpt lat="46.558315" lon="12.423775"><ele>870.5999999999999</ele><time>2026-04-17T09:50:50.519Z</time></trkpt><trkpt lat="46.5583817" lon="12.4236383"><ele>869.4000000000001</ele><time>2026-04-17T09:50:51.519Z</time></trkpt><trkpt lat="46.5584483" lon="12.42352"><ele>868.2</ele><time>2026-04-17T09:50:52.518Z</time></trkpt><trkpt lat="46.5585133" lon="12.42341"><ele>867.0</ele><time>2026-04-17T09:50:53.519Z</time></trkpt><trkpt lat="46.5585733" lon="12.4233133"><ele>867.0</ele><time>2026-04-17T09:50:54.518Z</time></trkpt><trkpt lat="46.5586283" lon="12.4232267"><ele>867.0</ele><time>2026-04-17T09:50:55.52Z</time></trkpt><trkpt lat="46.5586783" lon="12.4231467"><ele>867.0</ele><time>2026-04-17T09:50:56.519Z</time></trkpt><trkpt lat="46.5587233" lon="12.42307"><ele>867.0</ele><time>2026-04-17T09:50:57.517Z</time></trkpt><trkpt lat="46.558765" lon="12.4229983"><ele>867.0</ele><time>2026-04-17T09:50:58.52Z</time></trkpt><trkpt lat="46.5588467" lon="12.42287"><ele>867.0</ele><time>2026-04-17T09:51:00.518Z</time></trkpt><trkpt lat="46.5589133" lon="12.422765"><ele>868.5</ele><time>2026-04-17T09:51:02.519Z</time></trkpt><trkpt lat="46.558965" lon="12.422675"><ele>870.0</ele><time>2026-04-17T09:51:04.518Z</time></trkpt><trkpt lat="46.5590133" lon="12.42259"><ele>871.5</ele><time>2026-04-17T09:51:06.518Z</time></trkpt><trkpt lat="46.5590633" lon="12.4225067"><ele>873.0</ele><time>2026-04-17T09:51:08.519Z</time></trkpt><trkpt lat="46.5591183" lon="12.4223883"><ele>874.5</ele><time>2026-04-17T09:51:10.519Z</time></trkpt><trkpt lat="46.5591733" lon="12.42233"><ele>876.0</ele><time>2026-04-17T09:51:12.517Z</time></trkpt><trkpt lat="46.5592083" lon="12.4222433"><ele>876.0</ele><time>2026-04-17T09:51:15.518Z</time></trkpt><trkpt lat="46.5592817" lon="12.42217"><ele>876.0</ele><time>2026-04-17T09:51:18.519Z</time></trkpt><trkpt lat="46.55936" lon="12.42202"><ele>876.0</ele><time>2026-04-17T09:51:51.522Z</time></trkpt><trkpt lat="46.5594333" lon="12.421905"><ele>876.0</ele><time>2026-04-17T09:51:52.519Z</time></trkpt><trkpt lat="46.5595233" lon="12.42177"><ele>876.75</ele><time>2026-04-17T09:51:53.519Z</time></trkpt><trkpt lat="46.5596283" lon="12.4216317"><ele>877.5</ele><time>2026-04-17T09:51:54.519Z</time></trkpt><trkpt lat="46.559735" lon="12.4215067"><ele>878.25</ele><time>2026-04-17T09:51:55.52Z</time></trkpt><trkpt lat="46.5598417" lon="12.42138"><ele>879.0</ele><time>2026-04-17T09:51:56.52Z</time></trkpt><trkpt lat="46.559945" lon="12.4212517"><ele>877.0</ele><time>2026-04-17T09:51:57.519Z</time></trkpt><trkpt lat="46.5600417" lon="12.42112"><ele>875.0</ele><time>2026-04-17T09:51:58.519Z</time></trkpt><trkpt lat="46.5601317" lon="12.4209733"><ele>873.0</ele><time>2026-04-17T09:51:59.52Z</time></trkpt><trkpt lat="46.5602117" lon="12.4208217"><ele>871.0</ele><time>2026-04-17T09:52:00.519Z</time></trkpt><trkpt lat="46.5602833" lon="12.420675"><ele>871.0</ele><time>2026-04-17T09:52:01.519Z</time></trkpt><trkpt lat="46.56034" lon="12.42055"><ele>870.9999999999999</ele><time>2026-04-17T09:52:02.52Z</time></trkpt><trkpt lat="46.56038" lon="12.42046"><ele>870.9999999999999</ele><time>2026-04-17T09:52:03.518Z</time></trkpt><trkpt lat="46.5604417" lon="12.4203367"><ele>871.0</ele><time>2026-04-17T09:52:05.52Z</time></trkpt><trkpt lat="46.5605083" lon="12.4202017"><ele>871.0</ele><time>2026-04-17T09:52:07.52Z</time></trkpt><trkpt lat="46.5605533" lon="12.420125"><ele>871.6666666666666</ele><time>2026-04-17T09:52:08.52Z</time></trkpt><trkpt lat="46.5606083" lon="12.4200417"><ele>872.3333333333333</ele><time>2026-04-17T09:52:09.519Z</time></trkpt><trkpt lat="46.5606683" lon="12.4199517"><ele>873.0</ele><time>2026-04-17T09:52:10.518Z</time></trkpt><trkpt lat="46.560735" lon="12.41986"><ele>873.6666666666667</ele><time>2026-04-17T09:52:11.519Z</time></trkpt><trkpt lat="46.5608033" lon="12.4197733"><ele>874.3333333333334</ele><time>2026-04-17T09:52:12.519Z</time></trkpt><trkpt lat="46.5608683" lon="12.4196917"><ele>875.0</ele><time>2026-04-17T09:52:13.519Z</time></trkpt><trkpt lat="46.56093" lon="12.4196117"><ele>874.7142857142857</ele><time>2026-04-17T09:52:14.52Z</time></trkpt><trkpt lat="46.56099" lon="12.4195383"><ele>874.4285714285714</ele><time>2026-04-17T09:52:15.519Z</time></trkpt><trkpt lat="46.5610483" lon="12.41947"><ele>874.1428571428571</ele><time>2026-04-17T09:52:16.519Z</time></trkpt><trkpt lat="46.561105" lon="12.4194017"><ele>873.8571428571429</ele><time>2026-04-17T09:52:17.519Z</time></trkpt><trkpt lat="46.5611617" lon="12.4193317"><ele>873.5714285714286</ele><time>2026-04-17T09:52:18.519Z</time></trkpt><trkpt lat="46.5612167" lon="12.4192633"><ele>873.2857142857142</ele><time>2026-04-17T09:52:19.52Z</time></trkpt><trkpt lat="46.5612717" lon="12.41919"><ele>873.0</ele><time>2026-04-17T09:52:20.52Z</time></trkpt><trkpt lat="46.5613233" lon="12.41912"><ele>873.0</ele><time>2026-04-17T09:52:21.519Z</time></trkpt><trkpt lat="46.561375" lon="12.4190583"><ele>873.0</ele><time>2026-04-17T09:52:22.52Z</time></trkpt><trkpt lat="46.5614167" lon="12.4189717"><ele>873.0</ele><time>2026-04-17T09:52:23.52Z</time></trkpt><trkpt lat="46.5614783" lon="12.41888"><ele>873.0</ele><time>2026-04-17T09:52:24.519Z</time></trkpt><trkpt lat="46.561555" lon="12.418765"><ele>873.0</ele><time>2026-04-17T09:52:25.519Z</time></trkpt><trkpt lat="46.5616367" lon="12.4186233"><ele>872.3333333333333</ele><time>2026-04-17T09:52:26.52Z</time></trkpt><trkpt lat="46.5617233" lon="12.4184533"><ele>871.6666666666666</ele><time>2026-04-17T09:52:27.519Z</time></trkpt><trkpt lat="46.561805" lon="12.4182617"><ele>871.0</ele><time>2026-04-17T09:52:28.519Z</time></trkpt><trkpt lat="46.5618783" lon="12.4180583"><ele>869.6666666666666</ele><time>2026-04-17T09:52:29.521Z</time></trkpt><trkpt lat="46.5619417" lon="12.417855"><ele>868.3333333333333</ele><time>2026-04-17T09:52:30.52Z</time></trkpt><trkpt lat="46.5619967" lon="12.4176517"><ele>867.0</ele><time>2026-04-17T09:52:31.52Z</time></trkpt><trkpt lat="46.5620383" lon="12.4174417"><ele>869.3333333333333</ele><time>2026-04-17T09:52:32.522Z</time></trkpt><trkpt lat="46.5620717" lon="12.4172217"><ele>871.6666666666666</ele><time>2026-04-17T09:52:33.519Z</time></trkpt><trkpt lat="46.562105" lon="12.4169933"><ele>874.0</ele><time>2026-04-17T09:52:34.523Z</time></trkpt><trkpt lat="46.5621317" lon="12.4167567"><ele>874.0</ele><time>2026-04-17T09:52:35.52Z</time></trkpt><trkpt lat="46.56216" lon="12.4165133"><ele>874.0</ele><time>2026-04-17T09:52:36.519Z</time></trkpt><trkpt lat="46.56219" lon="12.4162683"><ele>874.0</ele><time>2026-04-17T09:52:37.519Z</time></trkpt><trkpt lat="46.5622183" lon="12.4160283"><ele>873.6666666666666</ele><time>2026-04-17T09:52:38.519Z</time></trkpt><trkpt lat="46.56225" lon="12.4157733"><ele>873.3333333333333</ele><time>2026-04-17T09:52:39.519Z</time></trkpt><trkpt lat="46.56228" lon="12.4155283"><ele>873.0</ele><time>2026-04-17T09:52:40.523Z</time></trkpt><trkpt lat="46.5623183" lon="12.4152967"><ele>872.5</ele><time>2026-04-17T09:52:41.52Z</time></trkpt><trkpt lat="46.5623633" lon="12.4150817"><ele>872.0</ele><time>2026-04-17T09:52:42.519Z</time></trkpt><trkpt lat="46.5624183" lon="12.4148867"><ele>871.5</ele><time>2026-04-17T09:52:43.519Z</time></trkpt><trkpt lat="46.5624817" lon="12.414695"><ele>871.0</ele><time>2026-04-17T09:52:44.519Z</time></trkpt><trkpt lat="46.5625533" lon="12.4145017"><ele>871.0</ele><time>2026-04-17T09:52:45.519Z</time></trkpt><trkpt lat="46.5626433" lon="12.414305"><ele>871.0</ele><time>2026-04-17T09:52:46.519Z</time></trkpt><trkpt lat="46.56274" lon="12.4140967"><ele>871.0</ele><time>2026-04-17T09:52:47.52Z</time></trkpt><trkpt lat="46.5628433" lon="12.4138783"><ele>872.6666666666666</ele><time>2026-04-17T09:52:48.519Z</time></trkpt><trkpt lat="46.5629517" lon="12.4136483"><ele>874.3333333333333</ele><time>2026-04-17T09:52:49.52Z</time></trkpt><trkpt lat="46.563065" lon="12.41341"><ele>876.0</ele><time>2026-04-17T09:52:50.52Z</time></trkpt><trkpt lat="46.5631817" lon="12.4131683"><ele>875.3333333333333</ele><time>2026-04-17T09:52:51.518Z</time></trkpt><trkpt lat="46.5633" lon="12.4129217"><ele>874.6666666666666</ele><time>2026-04-17T09:52:52.519Z</time></trkpt><trkpt lat="46.5634167" lon="12.41267"><ele>874.0</ele><time>2026-04-17T09:52:53.519Z</time></trkpt><trkpt lat="46.5635317" lon="12.41242"><ele>874.0</ele><time>2026-04-17T09:52:54.523Z</time></trkpt><trkpt lat="46.5636433" lon="12.4121783"><ele>874.0</ele><time>2026-04-17T09:52:55.52Z</time></trkpt><trkpt lat="46.5637483" lon="12.41195"><ele>874.0</ele><time>2026-04-17T09:52:56.521Z</time></trkpt><trkpt lat="46.5638517" lon="12.4117283"><ele>875.3333333333333</ele><time>2026-04-17T09:52:57.519Z</time></trkpt><trkpt lat="46.5639583" lon="12.4115067"><ele>876.6666666666667</ele><time>2026-04-17T09:52:58.52Z</time></trkpt><trkpt lat="46.5640667" lon="12.4112817"><ele>878.0</ele><time>2026-04-17T09:52:59.52Z</time></trkpt><trkpt lat="46.564175" lon="12.4110583"><ele>878.3333333333334</ele><time>2026-04-17T09:53:00.519Z</time></trkpt><trkpt lat="46.564285" lon="12.4108267"><ele>878.6666666666667</ele><time>2026-04-17T09:53:01.52Z</time></trkpt><trkpt lat="46.5643983" lon="12.4105883"><ele>879.0</ele><time>2026-04-17T09:53:02.52Z</time></trkpt><trkpt lat="46.5645183" lon="12.4103433"><ele>880.0</ele><time>2026-04-17T09:53:03.518Z</time></trkpt><trkpt lat="46.5646433" lon="12.4101"><ele>881.0</ele><time>2026-04-17T09:53:04.519Z</time></trkpt><trkpt lat="46.5647667" lon="12.40986"><ele>882.0</ele><time>2026-04-17T09:53:05.521Z</time></trkpt><trkpt lat="46.5648883" lon="12.4096233"><ele>882.0</ele><time>2026-04-17T09:53:06.519Z</time></trkpt><trkpt lat="46.5650117" lon="12.40939"><ele>882.0</ele><time>2026-04-17T09:53:07.52Z</time></trkpt><trkpt lat="46.56513" lon="12.40916"><ele>882.0</ele><time>2026-04-17T09:53:08.52Z</time></trkpt><trkpt lat="46.5652483" lon="12.4089333"><ele>884.6666666666667</ele><time>2026-04-17T09:53:09.518Z</time></trkpt><trkpt lat="46.5653633" lon="12.4087117"><ele>887.3333333333334</ele><time>2026-04-17T09:53:10.519Z</time></trkpt><trkpt lat="46.5654783" lon="12.40849"><ele>890.0</ele><time>2026-04-17T09:53:11.52Z</time></trkpt><trkpt lat="46.565595" lon="12.4082667"><ele>890.0</ele><time>2026-04-17T09:53:12.519Z</time></trkpt><trkpt lat="46.565715" lon="12.40804"><ele>890.0</ele><time>2026-04-17T09:53:13.52Z</time></trkpt><trkpt lat="46.565835" lon="12.4078083"><ele>890.0</ele><time>2026-04-17T09:53:14.52Z</time></trkpt><trkpt lat="46.5659583" lon="12.4075717"><ele>888.6666666666667</ele><time>2026-04-17T09:53:15.519Z</time></trkpt><trkpt lat="46.5660767" lon="12.4073367"><ele>887.3333333333333</ele><time>2026-04-17T09:53:16.52Z</time></trkpt><trkpt lat="46.5661983" lon="12.4071083"><ele>886.0</ele><time>2026-04-17T09:53:17.519Z</time></trkpt><trkpt lat="46.5663183" lon="12.4068783"><ele>888.0</ele><time>2026-04-17T09:53:18.519Z</time></trkpt><trkpt lat="46.5664367" lon="12.4066467"><ele>890.0</ele><time>2026-04-17T09:53:19.52Z</time></trkpt><trkpt lat="46.5665533" lon="12.406415"><ele>892.0</ele><time>2026-04-17T09:53:20.52Z</time></trkpt><trkpt lat="46.5666667" lon="12.4061817"><ele>892.0</ele><time>2026-04-17T09:53:21.52Z</time></trkpt><trkpt lat="46.566775" lon="12.4059483"><ele>892.0</ele><time>2026-04-17T09:53:22.52Z</time></trkpt><trkpt lat="46.5668733" lon="12.4057083"><ele>892.0</ele><time>2026-04-17T09:53:23.52Z</time></trkpt><trkpt lat="46.5669683" lon="12.40547"><ele>894.6666666666666</ele><time>2026-04-17T09:53:24.519Z</time></trkpt><trkpt lat="46.5670617" lon="12.4052317"><ele>897.3333333333333</ele><time>2026-04-17T09:53:25.522Z</time></trkpt><trkpt lat="46.5671567" lon="12.404995"><ele>900.0</ele><time>2026-04-17T09:53:26.52Z</time></trkpt><trkpt lat="46.56725" lon="12.404755"><ele>898.6666666666667</ele><time>2026-04-17T09:53:27.519Z</time></trkpt><trkpt lat="46.567345" lon="12.4045183"><ele>897.3333333333334</ele><time>2026-04-17T09:53:28.52Z</time></trkpt><trkpt lat="46.5674383" lon="12.404285"><ele>896.0</ele><time>2026-04-17T09:53:29.52Z</time></trkpt><trkpt lat="46.5675317" lon="12.4040517"><ele>894.3333333333334</ele><time>2026-04-17T09:53:30.519Z</time></trkpt><trkpt lat="46.567625" lon="12.4038183"><ele>892.6666666666667</ele><time>2026-04-17T09:53:31.52Z</time></trkpt><trkpt lat="46.5677183" lon="12.4035833"><ele>891.0</ele><time>2026-04-17T09:53:32.52Z</time></trkpt><trkpt lat="46.5678133" lon="12.40335"><ele>894.6666666666667</ele><time>2026-04-17T09:53:33.519Z</time></trkpt><trkpt lat="46.56791" lon="12.4031183"><ele>898.3333333333334</ele><time>2026-04-17T09:53:34.519Z</time></trkpt><trkpt lat="46.568005" lon="12.40289"><ele>902.0</ele><time>2026-04-17T09:53:35.519Z</time></trkpt><trkpt lat="46.5680967" lon="12.4026617"><ele>902.0</ele><time>2026-04-17T09:53:36.519Z</time></trkpt><trkpt lat="46.5681883" lon="12.4024333"><ele>902.0</ele><time>2026-04-17T09:53:37.52Z</time></trkpt><trkpt lat="46.56828" lon="12.4022067"><ele>902.0</ele><time>2026-04-17T09:53:38.52Z</time></trkpt><trkpt lat="46.5683717" lon="12.40198"><ele>902.0</ele><time>2026-04-17T09:53:39.519Z</time></trkpt><trkpt lat="46.5684683" lon="12.4017567"><ele>902.0</ele><time>2026-04-17T09:53:40.52Z</time></trkpt><trkpt lat="46.5685733" lon="12.4015383"><ele>902.0</ele><time>2026-04-17T09:53:41.521Z</time></trkpt><trkpt lat="46.5686933" lon="12.4013267"><ele>902.0</ele><time>2026-04-17T09:53:42.519Z</time></trkpt><trkpt lat="46.5688233" lon="12.401125"><ele>902.0</ele><time>2026-04-17T09:53:43.52Z</time></trkpt><trkpt lat="46.56896" lon="12.4009333"><ele>902.0</ele><time>2026-04-17T09:53:44.52Z</time></trkpt><trkpt lat="46.569105" lon="12.400755"><ele>902.0</ele><time>2026-04-17T09:53:45.52Z</time></trkpt><trkpt lat="46.56926" lon="12.4005867"><ele>902.0</ele><time>2026-04-17T09:53:46.52Z</time></trkpt><trkpt lat="46.5694217" lon="12.4004233"><ele>902.0</ele><time>2026-04-17T09:53:47.52Z</time></trkpt><trkpt lat="46.56959" lon="12.400265"><ele>902.3333333333334</ele><time>2026-04-17T09:53:48.52Z</time></trkpt><trkpt lat="46.569755" lon="12.40011"><ele>902.6666666666667</ele><time>2026-04-17T09:53:49.52Z</time></trkpt><trkpt lat="46.5699067" lon="12.3999667"><ele>903.0</ele><time>2026-04-17T09:53:50.521Z</time></trkpt><trkpt lat="46.5700417" lon="12.3998367"><ele>903.0</ele><time>2026-04-17T09:53:51.521Z</time></trkpt><trkpt lat="46.5701633" lon="12.39972"><ele>903.0</ele><time>2026-04-17T09:53:52.519Z</time></trkpt><trkpt lat="46.5702683" lon="12.3996167"><ele>903.0</ele><time>2026-04-17T09:53:53.521Z</time></trkpt><trkpt lat="46.5703617" lon="12.399525"><ele>903.0</ele><time>2026-04-17T09:53:54.519Z</time></trkpt><trkpt lat="46.5704417" lon="12.3994433"><ele>902.3333333333334</ele><time>2026-04-17T09:53:55.52Z</time></trkpt><trkpt lat="46.5705133" lon="12.3993667"><ele>901.6666666666667</ele><time>2026-04-17T09:53:56.52Z</time></trkpt><trkpt lat="46.5705767" lon="12.3992967"><ele>901.0</ele><time>2026-04-17T09:53:57.519Z</time></trkpt><trkpt lat="46.5706283" lon="12.3992317"><ele>900.3333333333334</ele><time>2026-04-17T09:53:58.519Z</time></trkpt><trkpt lat="46.5707117" lon="12.3991033"><ele>899.6666666666667</ele><time>2026-04-17T09:54:00.519Z</time></trkpt><trkpt lat="46.57076" lon="12.399035"><ele>899.0</ele><time>2026-04-17T09:54:01.522Z</time></trkpt><trkpt lat="46.5708133" lon="12.39896"><ele>899.0</ele><time>2026-04-17T09:54:02.52Z</time></trkpt><trkpt lat="46.5708717" lon="12.3988817"><ele>899.0000000000001</ele><time>2026-04-17T09:54:03.52Z</time></trkpt><trkpt lat="46.570935" lon="12.39879"><ele>899.0000000000001</ele><time>2026-04-17T09:54:04.519Z</time></trkpt><trkpt lat="46.571" lon="12.3986917"><ele>899.0</ele><time>2026-04-17T09:54:05.521Z</time></trkpt><trkpt lat="46.57107" lon="12.3985817"><ele>899.0</ele><time>2026-04-17T09:54:06.518Z</time></trkpt><trkpt lat="46.5711483" lon="12.39846"><ele>898.75</ele><time>2026-04-17T09:54:07.522Z</time></trkpt><trkpt lat="46.571235" lon="12.3983283"><ele>898.5</ele><time>2026-04-17T09:54:08.519Z</time></trkpt><trkpt lat="46.57133" lon="12.3981917"><ele>898.25</ele><time>2026-04-17T09:54:09.52Z</time></trkpt><trkpt lat="46.5714283" lon="12.398055"><ele>898.0</ele><time>2026-04-17T09:54:10.519Z</time></trkpt><trkpt lat="46.571525" lon="12.3979167"><ele>898.0</ele><time>2026-04-17T09:54:11.521Z</time></trkpt><trkpt lat="46.5716183" lon="12.3977833"><ele>898.0</ele><time>2026-04-17T09:54:12.52Z</time></trkpt><trkpt lat="46.5717033" lon="12.39766"><ele>898.0</ele><time>2026-04-17T09:54:13.52Z</time></trkpt><trkpt lat="46.5717767" lon="12.397545"><ele>898.0</ele><time>2026-04-17T09:54:14.526Z</time></trkpt><trkpt lat="46.5718467" lon="12.3974383"><ele>898.0</ele><time>2026-04-17T09:54:15.52Z</time></trkpt><trkpt lat="46.5719117" lon="12.39733"><ele>898.0</ele><time>2026-04-17T09:54:16.519Z</time></trkpt><trkpt lat="46.5719767" lon="12.39722"><ele>898.0</ele><time>2026-04-17T09:54:17.52Z</time></trkpt><trkpt lat="46.572045" lon="12.3971033"><ele>898.0</ele><time>2026-04-17T09:54:18.52Z</time></trkpt><trkpt lat="46.572115" lon="12.39697"><ele>898.0</ele><time>2026-04-17T09:54:19.521Z</time></trkpt><trkpt lat="46.5721883" lon="12.3968267"><ele>898.5</ele><time>2026-04-17T09:54:20.52Z</time></trkpt><trkpt lat="46.5722667" lon="12.3966717"><ele>899.0</ele><time>2026-04-17T09:54:21.519Z</time></trkpt><trkpt lat="46.5723517" lon="12.3965017"><ele>899.5</ele><time>2026-04-17T09:54:22.519Z</time></trkpt><trkpt lat="46.5724433" lon="12.3963183"><ele>900.0</ele><time>2026-04-17T09:54:23.52Z</time></trkpt><trkpt lat="46.5725417" lon="12.3961283"><ele>900.0</ele><time>2026-04-17T09:54:24.52Z</time></trkpt><trkpt lat="46.572645" lon="12.395925"><ele>900.0</ele><time>2026-04-17T09:54:25.521Z</time></trkpt><trkpt lat="46.572755" lon="12.3957067"><ele>900.0</ele><time>2026-04-17T09:54:26.52Z</time></trkpt><trkpt lat="46.5728717" lon="12.39548"><ele>902.6666666666667</ele><time>2026-04-17T09:54:27.519Z</time></trkpt><trkpt lat="46.5729917" lon="12.3952433"><ele>905.3333333333334</ele><time>2026-04-17T09:54:28.519Z</time></trkpt><trkpt lat="46.5731133" lon="12.3950033"><ele>908.0</ele><time>2026-04-17T09:54:29.522Z</time></trkpt><trkpt lat="46.57323" lon="12.394775"><ele>906.3333333333334</ele><time>2026-04-17T09:54:30.521Z</time></trkpt><trkpt lat="46.5733433" lon="12.3945583"><ele>904.6666666666667</ele><time>2026-04-17T09:54:31.523Z</time></trkpt><trkpt lat="46.573445" lon="12.3943567"><ele>903.0</ele><time>2026-04-17T09:54:32.52Z</time></trkpt><trkpt lat="46.5735317" lon="12.3941817"><ele>903.0</ele><time>2026-04-17T09:54:33.52Z</time></trkpt><trkpt lat="46.573605" lon="12.394035"><ele>903.0</ele><time>2026-04-17T09:54:34.522Z</time></trkpt><trkpt lat="46.57367" lon="12.3939367"><ele>903.0</ele><time>2026-04-17T09:54:35.52Z</time></trkpt><trkpt lat="46.5737233" lon="12.3938767"><ele>903.0</ele><time>2026-04-17T09:54:36.52Z</time></trkpt><trkpt lat="46.5737767" lon="12.3938083"><ele>903.0</ele><time>2026-04-17T09:54:38.52Z</time></trkpt><trkpt lat="46.573675" lon="12.3938683"><ele>903.0</ele><time>2026-04-17T09:54:50.519Z</time></trkpt><trkpt lat="46.5736267" lon="12.3939433"><ele>903.0</ele><time>2026-04-17T09:54:51.518Z</time></trkpt><trkpt lat="46.5735567" lon="12.3940767"><ele>903.0</ele><time>2026-04-17T09:54:52.518Z</time></trkpt><trkpt lat="46.5734733" lon="12.39424"><ele>903.0</ele><time>2026-04-17T09:54:53.519Z</time></trkpt><trkpt lat="46.57338" lon="12.394425"><ele>903.0</ele><time>2026-04-17T09:54:54.518Z</time></trkpt><trkpt lat="46.5732783" lon="12.3946283"><ele>903.0</ele><time>2026-04-17T09:54:55.519Z</time></trkpt><trkpt lat="46.5731667" lon="12.39485"><ele>903.0</ele><time>2026-04-17T09:54:56.519Z</time></trkpt><trkpt lat="46.5730483" lon="12.3950883"><ele>902.0</ele><time>2026-04-17T09:54:57.518Z</time></trkpt><trkpt lat="46.5729317" lon="12.3953283"><ele>901.0</ele><time>2026-04-17T09:54:58.52Z</time></trkpt><trkpt lat="46.5728183" lon="12.3955583"><ele>900.0</ele><time>2026-04-17T09:54:59.518Z</time></trkpt><trkpt lat="46.572705" lon="12.395775"><ele>900.0</ele><time>2026-04-17T09:55:00.518Z</time></trkpt><trkpt lat="46.5725967" lon="12.3959817"><ele>900.0</ele><time>2026-04-17T09:55:01.521Z</time></trkpt><trkpt lat="46.5724933" lon="12.39618"><ele>900.0</ele><time>2026-04-17T09:55:02.519Z</time></trkpt><trkpt lat="46.5723933" lon="12.3963767"><ele>902.3333333333333</ele><time>2026-04-17T09:55:03.518Z</time></trkpt><trkpt lat="46.5722967" lon="12.3965667"><ele>904.6666666666666</ele><time>2026-04-17T09:55:04.519Z</time></trkpt><trkpt lat="46.5722" lon="12.3967533"><ele>907.0</ele><time>2026-04-17T09:55:05.519Z</time></trkpt><trkpt lat="46.5721017" lon="12.3969433"><ele>904.0</ele><time>2026-04-17T09:55:06.519Z</time></trkpt><trkpt lat="46.5719983" lon="12.3971417"><ele>901.0</ele><time>2026-04-17T09:55:07.519Z</time></trkpt><trkpt lat="46.5718867" lon="12.3973433"><ele>898.0</ele><time>2026-04-17T09:55:08.519Z</time></trkpt><trkpt lat="46.5717633" lon="12.3975467"><ele>898.0</ele><time>2026-04-17T09:55:09.519Z</time></trkpt><trkpt lat="46.5716333" lon="12.397745"><ele>898.0</ele><time>2026-04-17T09:55:10.519Z</time></trkpt><trkpt lat="46.5715017" lon="12.3979383"><ele>898.0</ele><time>2026-04-17T09:55:11.52Z</time></trkpt><trkpt lat="46.57137" lon="12.3981217"><ele>897.0</ele><time>2026-04-17T09:55:12.519Z</time></trkpt><trkpt lat="46.5712467" lon="12.3982933"><ele>896.0</ele><time>2026-04-17T09:55:13.52Z</time></trkpt><trkpt lat="46.5711333" lon="12.3984567"><ele>895.0</ele><time>2026-04-17T09:55:14.519Z</time></trkpt><trkpt lat="46.5710183" lon="12.3986233"><ele>895.0</ele><time>2026-04-17T09:55:15.519Z</time></trkpt><trkpt lat="46.5709017" lon="12.3987883"><ele>895.0</ele><time>2026-04-17T09:55:16.518Z</time></trkpt><trkpt lat="46.5707867" lon="12.39895"><ele>895.0</ele><time>2026-04-17T09:55:17.52Z</time></trkpt><trkpt lat="46.5706717" lon="12.3991117"><ele>896.3333333333333</ele><time>2026-04-17T09:55:18.52Z</time></trkpt><trkpt lat="46.5705533" lon="12.3992683"><ele>897.6666666666667</ele><time>2026-04-17T09:55:19.519Z</time></trkpt><trkpt lat="46.570435" lon="12.3994133"><ele>899.0</ele><time>2026-04-17T09:55:20.519Z</time></trkpt><trkpt lat="46.570315" lon="12.399545"><ele>900.0</ele><time>2026-04-17T09:55:21.518Z</time></trkpt><trkpt lat="46.5701917" lon="12.3996667"><ele>901.0</ele><time>2026-04-17T09:55:22.52Z</time></trkpt><trkpt lat="46.570065" lon="12.39979"><ele>902.0</ele><time>2026-04-17T09:55:23.522Z</time></trkpt><trkpt lat="46.5699333" lon="12.3999167"><ele>902.3333333333334</ele><time>2026-04-17T09:55:24.519Z</time></trkpt><trkpt lat="46.569795" lon="12.4000483"><ele>902.6666666666667</ele><time>2026-04-17T09:55:25.52Z</time></trkpt><trkpt lat="46.5696533" lon="12.4001833"><ele>903.0</ele><time>2026-04-17T09:55:26.521Z</time></trkpt><trkpt lat="46.5695117" lon="12.4003217"><ele>902.6666666666667</ele><time>2026-04-17T09:55:27.518Z</time></trkpt><trkpt lat="46.5693667" lon="12.400465"><ele>902.3333333333334</ele><time>2026-04-17T09:55:28.519Z</time></trkpt><trkpt lat="46.56922" lon="12.4006117"><ele>902.0</ele><time>2026-04-17T09:55:29.521Z</time></trkpt><trkpt lat="46.5690783" lon="12.4007633"><ele>902.0</ele><time>2026-04-17T09:55:30.519Z</time></trkpt><trkpt lat="46.5689433" lon="12.40092"><ele>902.0</ele><time>2026-04-17T09:55:31.519Z</time></trkpt><trkpt lat="46.5688183" lon="12.401085"><ele>902.0</ele><time>2026-04-17T09:55:32.522Z</time></trkpt><trkpt lat="46.5687017" lon="12.40126"><ele>900.6666666666667</ele><time>2026-04-17T09:55:33.518Z</time></trkpt><trkpt lat="46.56859" lon="12.4014483"><ele>899.3333333333333</ele><time>2026-04-17T09:55:34.519Z</time></trkpt><trkpt lat="46.5684867" lon="12.4016433"><ele>898.0</ele><time>2026-04-17T09:55:35.52Z</time></trkpt><trkpt lat="46.5683983" lon="12.401835"><ele>898.0</ele><time>2026-04-17T09:55:36.519Z</time></trkpt><trkpt lat="46.5683183" lon="12.4020217"><ele>898.0</ele><time>2026-04-17T09:55:37.519Z</time></trkpt><trkpt lat="46.568245" lon="12.40221"><ele>898.0</ele><time>2026-04-17T09:55:38.519Z</time></trkpt><trkpt lat="46.568175" lon="12.4023967"><ele>898.0</ele><time>2026-04-17T09:55:39.519Z</time></trkpt><trkpt lat="46.5681033" lon="12.4025767"><ele>899.0</ele><time>2026-04-17T09:55:40.519Z</time></trkpt><trkpt lat="46.5680317" lon="12.4027533"><ele>900.0</ele><time>2026-04-17T09:55:41.52Z</time></trkpt><trkpt lat="46.56796" lon="12.4029317"><ele>901.0</ele><time>2026-04-17T09:55:42.519Z</time></trkpt><trkpt lat="46.56789" lon="12.4031133"><ele>902.0</ele><time>2026-04-17T09:55:43.519Z</time></trkpt><trkpt lat="46.5678167" lon="12.4033017"><ele>900.0</ele><time>2026-04-17T09:55:44.519Z</time></trkpt><trkpt lat="46.5677383" lon="12.4034967"><ele>898.0</ele><time>2026-04-17T09:55:45.519Z</time></trkpt><trkpt lat="46.5676567" lon="12.4036983"><ele>896.0</ele><time>2026-04-17T09:55:46.519Z</time></trkpt><trkpt lat="46.5675767" lon="12.4039017"><ele>896.0</ele><time>2026-04-17T09:55:47.519Z</time></trkpt><trkpt lat="46.5674917" lon="12.4041067"><ele>896.0</ele><time>2026-04-17T09:55:48.519Z</time></trkpt><trkpt lat="46.5674083" lon="12.4043167"><ele>896.0</ele><time>2026-04-17T09:55:49.519Z</time></trkpt><trkpt lat="46.5673217" lon="12.4045283"><ele>897.3333333333334</ele><time>2026-04-17T09:55:50.52Z</time></trkpt><trkpt lat="46.567235" lon="12.40474"><ele>898.6666666666667</ele><time>2026-04-17T09:55:51.519Z</time></trkpt><trkpt lat="46.5671517" lon="12.4049517"><ele>900.0</ele><time>2026-04-17T09:55:52.521Z</time></trkpt><trkpt lat="46.5670667" lon="12.405165"><ele>897.3333333333333</ele><time>2026-04-17T09:55:53.519Z</time></trkpt><trkpt lat="46.5669833" lon="12.4053733"><ele>894.6666666666666</ele><time>2026-04-17T09:55:54.52Z</time></trkpt><trkpt lat="46.5669017" lon="12.405575"><ele>892.0</ele><time>2026-04-17T09:55:55.519Z</time></trkpt><trkpt lat="46.566825" lon="12.4057583"><ele>892.0</ele><time>2026-04-17T09:55:56.519Z</time></trkpt><trkpt lat="46.566755" lon="12.4059267"><ele>892.0</ele><time>2026-04-17T09:55:57.518Z</time></trkpt><trkpt lat="46.5666867" lon="12.4060883"><ele>892.0</ele><time>2026-04-17T09:55:58.519Z</time></trkpt><trkpt lat="46.56661" lon="12.4062517"><ele>892.0</ele><time>2026-04-17T09:55:59.52Z</time></trkpt><trkpt lat="46.5665233" lon="12.40642"><ele>892.6666666666666</ele><time>2026-04-17T09:56:00.519Z</time></trkpt><trkpt lat="46.56643" lon="12.4066"><ele>893.3333333333333</ele><time>2026-04-17T09:56:01.519Z</time></trkpt><trkpt lat="46.5663367" lon="12.4067867"><ele>894.0</ele><time>2026-04-17T09:56:02.519Z</time></trkpt><trkpt lat="46.56624" lon="12.4069783"><ele>891.3333333333333</ele><time>2026-04-17T09:56:03.519Z</time></trkpt><trkpt lat="46.56614" lon="12.4071733"><ele>888.6666666666666</ele><time>2026-04-17T09:56:04.519Z</time></trkpt><trkpt lat="46.5660367" lon="12.407375"><ele>886.0</ele><time>2026-04-17T09:56:05.519Z</time></trkpt><trkpt lat="46.56593" lon="12.40758"><ele>886.0</ele><time>2026-04-17T09:56:06.518Z</time></trkpt><trkpt lat="46.5658233" lon="12.407785"><ele>886.0</ele><time>2026-04-17T09:56:07.517Z</time></trkpt><trkpt lat="46.5657133" lon="12.4079933"><ele>886.0</ele><time>2026-04-17T09:56:08.519Z</time></trkpt><trkpt lat="46.5656067" lon="12.4082"><ele>887.3333333333333</ele><time>2026-04-17T09:56:09.517Z</time></trkpt><trkpt lat="46.565495" lon="12.40841"><ele>888.6666666666667</ele><time>2026-04-17T09:56:10.517Z</time></trkpt><trkpt lat="46.5653883" lon="12.408615"><ele>890.0</ele><time>2026-04-17T09:56:11.518Z</time></trkpt><trkpt lat="46.5652883" lon="12.4088133"><ele>887.3333333333334</ele><time>2026-04-17T09:56:12.518Z</time></trkpt><trkpt lat="46.56519" lon="12.4090083"><ele>884.6666666666667</ele><time>2026-04-17T09:56:13.518Z</time></trkpt><trkpt lat="46.5650917" lon="12.4092017"><ele>882.0</ele><time>2026-04-17T09:56:14.517Z</time></trkpt><trkpt lat="46.5649917" lon="12.4093933"><ele>882.0</ele><time>2026-04-17T09:56:15.517Z</time></trkpt><trkpt lat="46.564895" lon="12.4095783"><ele>882.0</ele><time>2026-04-17T09:56:16.518Z</time></trkpt><trkpt lat="46.5648017" lon="12.4097583"><ele>882.0</ele><time>2026-04-17T09:56:17.518Z</time></trkpt><trkpt lat="46.564705" lon="12.4099433"><ele>883.0</ele><time>2026-04-17T09:56:18.518Z</time></trkpt><trkpt lat="46.5646133" lon="12.4101267"><ele>884.0</ele><time>2026-04-17T09:56:19.518Z</time></trkpt><trkpt lat="46.564525" lon="12.4103067"><ele>885.0</ele><time>2026-04-17T09:56:20.518Z</time></trkpt><trkpt lat="46.5644383" lon="12.4104817"><ele>883.0</ele><time>2026-04-17T09:56:21.518Z</time></trkpt><trkpt lat="46.5643517" lon="12.4106567"><ele>881.0</ele><time>2026-04-17T09:56:22.519Z</time></trkpt><trkpt lat="46.564265" lon="12.410835"><ele>879.0</ele><time>2026-04-17T09:56:23.518Z</time></trkpt><trkpt lat="46.5641767" lon="12.4110167"><ele>879.0</ele><time>2026-04-17T09:56:24.518Z</time></trkpt><trkpt lat="46.56409" lon="12.4111933"><ele>879.0</ele><time>2026-04-17T09:56:25.518Z</time></trkpt><trkpt lat="46.5640083" lon="12.4113667"><ele>879.0</ele><time>2026-04-17T09:56:26.518Z</time></trkpt><trkpt lat="46.56393" lon="12.41154"><ele>879.0</ele><time>2026-04-17T09:56:27.518Z</time></trkpt><trkpt lat="46.5638483" lon="12.411715"><ele>878.6666666666667</ele><time>2026-04-17T09:56:28.518Z</time></trkpt><trkpt lat="46.5637583" lon="12.4119017"><ele>878.3333333333334</ele><time>2026-04-17T09:56:29.518Z</time></trkpt><trkpt lat="46.56367" lon="12.412095"><ele>878.0</ele><time>2026-04-17T09:56:30.519Z</time></trkpt><trkpt lat="46.5635817" lon="12.4122867"><ele>877.0</ele><time>2026-04-17T09:56:31.517Z</time></trkpt><trkpt lat="46.563495" lon="12.4124717"><ele>876.0</ele><time>2026-04-17T09:56:32.52Z</time></trkpt><trkpt lat="46.5634117" lon="12.41265"><ele>875.0</ele><time>2026-04-17T09:56:33.519Z</time></trkpt><trkpt lat="46.5633317" lon="12.4128167"><ele>874.0</ele><time>2026-04-17T09:56:34.519Z</time></trkpt><trkpt lat="46.5632567" lon="12.4129767"><ele>874.5</ele><time>2026-04-17T09:56:35.524Z</time></trkpt><trkpt lat="46.5631833" lon="12.413135"><ele>875.0</ele><time>2026-04-17T09:56:36.518Z</time></trkpt><trkpt lat="46.5631117" lon="12.41329"><ele>875.5</ele><time>2026-04-17T09:56:37.518Z</time></trkpt><trkpt lat="46.5630417" lon="12.413445"><ele>876.0</ele><time>2026-04-17T09:56:38.519Z</time></trkpt><trkpt lat="46.5629667" lon="12.413605"><ele>876.0</ele><time>2026-04-17T09:56:39.517Z</time></trkpt><trkpt lat="46.5628933" lon="12.413765"><ele>876.0</ele><time>2026-04-17T09:56:40.518Z</time></trkpt><trkpt lat="46.5628167" lon="12.4139267"><ele>876.0</ele><time>2026-04-17T09:56:41.518Z</time></trkpt><trkpt lat="46.5627383" lon="12.4140933"><ele>876.0</ele><time>2026-04-17T09:56:42.518Z</time></trkpt><trkpt lat="46.5626567" lon="12.414265"><ele>874.75</ele><time>2026-04-17T09:56:43.518Z</time></trkpt><trkpt lat="46.5625783" lon="12.4144333"><ele>873.5</ele><time>2026-04-17T09:56:44.522Z</time></trkpt><trkpt lat="46.562505" lon="12.4146"><ele>872.25</ele><time>2026-04-17T09:56:45.517Z</time></trkpt><trkpt lat="46.5624383" lon="12.4147633"><ele>871.0</ele><time>2026-04-17T09:56:46.518Z</time></trkpt><trkpt lat="46.5623683" lon="12.414925"><ele>871.0</ele><time>2026-04-17T09:56:47.518Z</time></trkpt><trkpt lat="46.5623233" lon="12.4151117"><ele>871.0</ele><time>2026-04-17T09:56:48.518Z</time></trkpt><trkpt lat="46.5622817" lon="12.415315"><ele>871.0</ele><time>2026-04-17T09:56:49.518Z</time></trkpt><trkpt lat="46.5622417" lon="12.415525"><ele>871.0</ele><time>2026-04-17T09:56:50.518Z</time></trkpt><trkpt lat="46.5622183" lon="12.4157383"><ele>871.5</ele><time>2026-04-17T09:56:51.517Z</time></trkpt><trkpt lat="46.5621933" lon="12.4159367"><ele>872.0</ele><time>2026-04-17T09:56:52.518Z</time></trkpt><trkpt lat="46.5621783" lon="12.4161283"><ele>872.5</ele><time>2026-04-17T09:56:53.518Z</time></trkpt><trkpt lat="46.5621517" lon="12.4163083"><ele>873.0</ele><time>2026-04-17T09:56:54.518Z</time></trkpt><trkpt lat="46.5621317" lon="12.4164933"><ele>873.25</ele><time>2026-04-17T09:56:55.518Z</time></trkpt><trkpt lat="46.56212" lon="12.4166917"><ele>873.5</ele><time>2026-04-17T09:56:56.518Z</time></trkpt><trkpt lat="46.5621033" lon="12.4168967"><ele>873.75</ele><time>2026-04-17T09:56:57.517Z</time></trkpt><trkpt lat="46.56208" lon="12.4171"><ele>874.0</ele><time>2026-04-17T09:56:58.518Z</time></trkpt><trkpt lat="46.562055" lon="12.4173083"><ele>873.25</ele><time>2026-04-17T09:56:59.518Z</time></trkpt><trkpt lat="46.5620267" lon="12.4175133"><ele>872.5</ele><time>2026-04-17T09:57:00.518Z</time></trkpt><trkpt lat="46.5619933" lon="12.417715"><ele>871.75</ele><time>2026-04-17T09:57:01.518Z</time></trkpt><trkpt lat="46.561935" lon="12.4178883"><ele>871.0</ele><time>2026-04-17T09:57:02.517Z</time></trkpt><trkpt lat="46.5618833" lon="12.41805"><ele>871.0</ele><time>2026-04-17T09:57:03.516Z</time></trkpt><trkpt lat="46.5618283" lon="12.41821"><ele>871.0</ele><time>2026-04-17T09:57:04.518Z</time></trkpt><trkpt lat="46.561765" lon="12.4183667"><ele>871.0</ele><time>2026-04-17T09:57:05.518Z</time></trkpt><trkpt lat="46.5616917" lon="12.4185133"><ele>871.0</ele><time>2026-04-17T09:57:06.518Z</time></trkpt><trkpt lat="46.5616167" lon="12.4186417"><ele>870.9999999999999</ele><time>2026-04-17T09:57:07.518Z</time></trkpt><trkpt lat="46.5615533" lon="12.418765"><ele>871.0</ele><time>2026-04-17T09:57:08.519Z</time></trkpt><trkpt lat="46.56148" lon="12.4188567"><ele>871.0</ele><time>2026-04-17T09:57:09.518Z</time></trkpt><trkpt lat="46.5614183" lon="12.4189433"><ele>871.0</ele><time>2026-04-17T09:57:10.518Z</time></trkpt><trkpt lat="46.5613667" lon="12.4190083"><ele>870.9999999999999</ele><time>2026-04-17T09:57:11.517Z</time></trkpt><trkpt lat="46.5613" lon="12.4190917"><ele>871.0</ele><time>2026-04-17T09:57:13.518Z</time></trkpt><trkpt lat="46.5612183" lon="12.4192"><ele>870.1999999999999</ele><time>2026-04-17T09:57:31.517Z</time></trkpt><trkpt lat="46.5611433" lon="12.4192967"><ele>869.3999999999999</ele><time>2026-04-17T09:57:33.517Z</time></trkpt><trkpt lat="46.5610633" lon="12.419395"><ele>868.6</ele><time>2026-04-17T09:57:35.518Z</time></trkpt><trkpt lat="46.5609767" lon="12.4195117"><ele>867.8</ele><time>2026-04-17T09:57:37.518Z</time></trkpt><trkpt lat="46.5609183" lon="12.4195783"><ele>867.0</ele><time>2026-04-17T09:57:38.519Z</time></trkpt><trkpt lat="46.56086" lon="12.41966"><ele>868.3333333333334</ele><time>2026-04-17T09:57:39.517Z</time></trkpt><trkpt lat="46.5607933" lon="12.4197367"><ele>869.6666666666667</ele><time>2026-04-17T09:57:40.518Z</time></trkpt><trkpt lat="46.5607183" lon="12.41981"><ele>871.0</ele><time>2026-04-17T09:57:41.519Z</time></trkpt><trkpt lat="46.5606517" lon="12.419895"><ele>872.3333333333334</ele><time>2026-04-17T09:57:42.518Z</time></trkpt><trkpt lat="46.56059" lon="12.4199833"><ele>873.6666666666667</ele><time>2026-04-17T09:57:43.519Z</time></trkpt><trkpt lat="46.5605417" lon="12.420075"><ele>875.0</ele><time>2026-04-17T09:57:44.519Z</time></trkpt><trkpt lat="46.5604933" lon="12.4201617"><ele>875.0000000000001</ele><time>2026-04-17T09:57:45.518Z</time></trkpt><trkpt lat="46.56044" lon="12.420245"><ele>875.0</ele><time>2026-04-17T09:57:46.518Z</time></trkpt><trkpt lat="46.5604" lon="12.420335"><ele>875.0</ele><time>2026-04-17T09:57:47.518Z</time></trkpt><trkpt lat="46.5603633" lon="12.4204283"><ele>875.0</ele><time>2026-04-17T09:57:48.518Z</time></trkpt><trkpt lat="46.5603267" lon="12.4205083"><ele>875.0000000000001</ele><time>2026-04-17T09:57:49.519Z</time></trkpt><trkpt lat="46.5602567" lon="12.4206617"><ele>875.0</ele><time>2026-04-17T09:57:51.518Z</time></trkpt><trkpt lat="46.5602217" lon="12.4207467"><ele>874.3333333333334</ele><time>2026-04-17T09:57:52.519Z</time></trkpt><trkpt lat="46.5601867" lon="12.4208383"><ele>873.6666666666667</ele><time>2026-04-17T09:57:53.518Z</time></trkpt><trkpt lat="46.560135" lon="12.4209217"><ele>873.0</ele><time>2026-04-17T09:57:54.52Z</time></trkpt><trkpt lat="46.5600867" lon="12.4210167"><ele>872.3333333333333</ele><time>2026-04-17T09:57:55.518Z</time></trkpt><trkpt lat="46.5600367" lon="12.4211233"><ele>871.6666666666666</ele><time>2026-04-17T09:57:56.518Z</time></trkpt><trkpt lat="46.5599583" lon="12.4212083"><ele>871.0</ele><time>2026-04-17T09:57:57.518Z</time></trkpt><trkpt lat="46.55989" lon="12.421315"><ele>870.1999999999999</ele><time>2026-04-17T09:57:58.518Z</time></trkpt><trkpt lat="46.5598133" lon="12.4214083"><ele>869.3999999999999</ele><time>2026-04-17T09:57:59.518Z</time></trkpt><trkpt lat="46.5597367" lon="12.4214967"><ele>868.6</ele><time>2026-04-17T09:58:00.52Z</time></trkpt><trkpt lat="46.55967" lon="12.4215817"><ele>867.8</ele><time>2026-04-17T09:58:01.517Z</time></trkpt><trkpt lat="46.5596067" lon="12.4216667"><ele>867.0</ele><time>2026-04-17T09:58:02.518Z</time></trkpt><trkpt lat="46.5595333" lon="12.4217333"><ele>867.0</ele><time>2026-04-17T09:58:03.518Z</time></trkpt><trkpt lat="46.5594617" lon="12.4218133"><ele>867.0</ele><time>2026-04-17T09:58:04.518Z</time></trkpt><trkpt lat="46.5593967" lon="12.4219083"><ele>867.0</ele><time>2026-04-17T09:58:05.518Z</time></trkpt><trkpt lat="46.5593317" lon="12.4220133"><ele>867.0</ele><time>2026-04-17T09:58:06.518Z</time></trkpt><trkpt lat="46.559265" lon="12.42212"><ele>867.0</ele><time>2026-04-17T09:58:07.517Z</time></trkpt><trkpt lat="46.5592033" lon="12.4222267"><ele>868.8</ele><time>2026-04-17T09:58:08.518Z</time></trkpt><trkpt lat="46.5591367" lon="12.4223217"><ele>870.6</ele><time>2026-04-17T09:58:09.519Z</time></trkpt><trkpt lat="46.5590767" lon="12.42242"><ele>872.3999999999999</ele><time>2026-04-17T09:58:10.518Z</time></trkpt><trkpt lat="46.5590117" lon="12.4225183"><ele>874.1999999999999</ele><time>2026-04-17T09:58:11.518Z</time></trkpt><trkpt lat="46.5589467" lon="12.4226333"><ele>876.0</ele><time>2026-04-17T09:58:12.518Z</time></trkpt><trkpt lat="46.5588817" lon="12.422755"><ele>876.0</ele><time>2026-04-17T09:58:13.519Z</time></trkpt><trkpt lat="46.5588083" lon="12.4228767"><ele>876.0</ele><time>2026-04-17T09:58:14.519Z</time></trkpt><trkpt lat="46.5587333" lon="12.4230083"><ele>876.0</ele><time>2026-04-17T09:58:15.518Z</time></trkpt><trkpt lat="46.558655" lon="12.42314"><ele>876.0</ele><time>2026-04-17T09:58:16.518Z</time></trkpt><trkpt lat="46.5585783" lon="12.423265"><ele>875.4</ele><time>2026-04-17T09:58:17.518Z</time></trkpt><trkpt lat="46.5584983" lon="12.4233883"><ele>874.8</ele><time>2026-04-17T09:58:18.518Z</time></trkpt><trkpt lat="46.558425" lon="12.42351"><ele>874.1999999999999</ele><time>2026-04-17T09:58:19.518Z</time></trkpt><trkpt lat="46.5583533" lon="12.4236317"><ele>873.5999999999999</ele><time>2026-04-17T09:58:20.519Z</time></trkpt><trkpt lat="46.5582783" lon="12.4237483"><ele>873.0</ele><time>2026-04-17T09:58:21.517Z</time></trkpt><trkpt lat="46.5582167" lon="12.423885"><ele>873.0</ele><time>2026-04-17T09:58:22.518Z</time></trkpt><trkpt lat="46.5581683" lon="12.4240367"><ele>873.0</ele><time>2026-04-17T09:58:23.519Z</time></trkpt><trkpt lat="46.55813" lon="12.424195"><ele>873.0</ele><time>2026-04-17T09:58:24.517Z</time></trkpt><trkpt lat="46.5580933" lon="12.4243583"><ele>873.0</ele><time>2026-04-17T09:58:25.518Z</time></trkpt><trkpt lat="46.558055" lon="12.4245267"><ele>874.0</ele><time>2026-04-17T09:58:26.518Z</time></trkpt><trkpt lat="46.5580167" lon="12.4246933"><ele>875.0</ele><time>2026-04-17T09:58:27.518Z</time></trkpt><trkpt lat="46.557985" lon="12.424865"><ele>876.0</ele><time>2026-04-17T09:58:28.518Z</time></trkpt><trkpt lat="46.557955" lon="12.42503"><ele>877.0</ele><time>2026-04-17T09:58:29.523Z</time></trkpt><trkpt lat="46.5579283" lon="12.4251933"><ele>877.0</ele><time>2026-04-17T09:58:30.518Z</time></trkpt><trkpt lat="46.5579" lon="12.425355"><ele>877.0</ele><time>2026-04-17T09:58:31.518Z</time></trkpt><trkpt lat="46.5578733" lon="12.4255183"><ele>877.0</ele><time>2026-04-17T09:58:32.521Z</time></trkpt><trkpt lat="46.5578383" lon="12.4256867"><ele>877.0</ele><time>2026-04-17T09:58:33.518Z</time></trkpt><trkpt lat="46.557805" lon="12.4258517"><ele>875.4000000000001</ele><time>2026-04-17T09:58:34.518Z</time></trkpt><trkpt lat="46.557775" lon="12.42601"><ele>873.8000000000001</ele><time>2026-04-17T09:58:35.52Z</time></trkpt><trkpt lat="46.5577383" lon="12.42616"><ele>872.2</ele><time>2026-04-17T09:58:36.523Z</time></trkpt><trkpt lat="46.557705" lon="12.42631"><ele>870.6</ele><time>2026-04-17T09:58:37.518Z</time></trkpt><trkpt lat="46.5576733" lon="12.4264683"><ele>869.0</ele><time>2026-04-17T09:58:38.518Z</time></trkpt><trkpt lat="46.557645" lon="12.4266333"><ele>869.0</ele><time>2026-04-17T09:58:39.518Z</time></trkpt><trkpt lat="46.5576117" lon="12.4268"><ele>869.0</ele><time>2026-04-17T09:58:40.519Z</time></trkpt><trkpt lat="46.5575817" lon="12.426965"><ele>869.0</ele><time>2026-04-17T09:58:41.521Z</time></trkpt><trkpt lat="46.5575483" lon="12.4271317"><ele>869.0</ele><time>2026-04-17T09:58:42.518Z</time></trkpt><trkpt lat="46.5575" lon="12.4273017"><ele>868.5</ele><time>2026-04-17T09:58:43.518Z</time></trkpt><trkpt lat="46.5574333" lon="12.42747"><ele>868.0</ele><time>2026-04-17T09:58:44.519Z</time></trkpt><trkpt lat="46.5573433" lon="12.4276317"><ele>867.5</ele><time>2026-04-17T09:58:45.518Z</time></trkpt><trkpt lat="46.5572417" lon="12.42777"><ele>867.0</ele><time>2026-04-17T09:58:46.518Z</time></trkpt><trkpt lat="46.5571233" lon="12.4278717"><ele>866.5</ele><time>2026-04-17T09:58:47.52Z</time></trkpt><trkpt lat="46.5570033" lon="12.4279433"><ele>866.0</ele><time>2026-04-17T09:58:48.518Z</time></trkpt><trkpt lat="46.55688" lon="12.4280033"><ele>865.5</ele><time>2026-04-17T09:58:49.518Z</time></trkpt><trkpt lat="46.556755" lon="12.4280633"><ele>865.0</ele><time>2026-04-17T09:58:50.519Z</time></trkpt><trkpt lat="46.5566317" lon="12.428125"><ele>865.0</ele><time>2026-04-17T09:58:51.517Z</time></trkpt><trkpt lat="46.5565133" lon="12.4281867"><ele>865.0</ele><time>2026-04-17T09:58:52.518Z</time></trkpt><trkpt lat="46.5564" lon="12.4282417"><ele>865.0</ele><time>2026-04-17T09:58:53.518Z</time></trkpt><trkpt lat="46.5562833" lon="12.4282967"><ele>865.0</ele><time>2026-04-17T09:58:54.518Z</time></trkpt><trkpt lat="46.5561633" lon="12.4283433"><ele>864.5</ele><time>2026-04-17T09:58:55.517Z</time></trkpt><trkpt lat="46.5560417" lon="12.42841"><ele>864.0</ele><time>2026-04-17T09:58:56.518Z</time></trkpt><trkpt lat="46.55591" lon="12.4284667"><ele>863.5</ele><time>2026-04-17T09:58:57.518Z</time></trkpt><trkpt lat="46.5557817" lon="12.4285333"><ele>863.0</ele><time>2026-04-17T09:58:58.518Z</time></trkpt><trkpt lat="46.5556483" lon="12.4286033"><ele>863.0</ele><time>2026-04-17T09:58:59.517Z</time></trkpt><trkpt lat="46.5555183" lon="12.42867"><ele>863.0</ele><time>2026-04-17T09:59:00.518Z</time></trkpt><trkpt lat="46.5553967" lon="12.4287367"><ele>863.0</ele><time>2026-04-17T09:59:01.518Z</time></trkpt><trkpt lat="46.5552833" lon="12.4288283"><ele>863.0</ele><time>2026-04-17T09:59:02.519Z</time></trkpt><trkpt lat="46.5551667" lon="12.4289117"><ele>863.5</ele><time>2026-04-17T09:59:03.517Z</time></trkpt><trkpt lat="46.5550583" lon="12.42902"><ele>864.0</ele><time>2026-04-17T09:59:04.518Z</time></trkpt><trkpt lat="46.55494" lon="12.4291083"><ele>864.5</ele><time>2026-04-17T09:59:05.518Z</time></trkpt><trkpt lat="46.5548283" lon="12.429195"><ele>865.0</ele><time>2026-04-17T09:59:06.518Z</time></trkpt><trkpt lat="46.554735" lon="12.4292967"><ele>865.0</ele><time>2026-04-17T09:59:07.518Z</time></trkpt><trkpt lat="46.5546367" lon="12.42938"><ele>865.0</ele><time>2026-04-17T09:59:08.519Z</time></trkpt><trkpt lat="46.5545283" lon="12.429465"><ele>865.0</ele><time>2026-04-17T09:59:09.518Z</time></trkpt><trkpt lat="46.5544183" lon="12.4295533"><ele>865.0</ele><time>2026-04-17T09:59:10.518Z</time></trkpt><trkpt lat="46.5543133" lon="12.4296383"><ele>864.75</ele><time>2026-04-17T09:59:11.518Z</time></trkpt><trkpt lat="46.5542083" lon="12.4297133"><ele>864.5</ele><time>2026-04-17T09:59:12.518Z</time></trkpt><trkpt lat="46.55411" lon="12.4297917"><ele>864.25</ele><time>2026-04-17T09:59:13.523Z</time></trkpt><trkpt lat="46.5540383" lon="12.429915"><ele>864.0</ele><time>2026-04-17T09:59:14.519Z</time></trkpt><trkpt lat="46.5539717" lon="12.4300617"><ele>864.0</ele><time>2026-04-17T09:59:15.518Z</time></trkpt><trkpt lat="46.5539033" lon="12.430215"><ele>864.0</ele><time>2026-04-17T09:59:16.523Z</time></trkpt><trkpt lat="46.5538467" lon="12.4303783"><ele>864.0</ele><time>2026-04-17T09:59:17.518Z</time></trkpt><trkpt lat="46.553785" lon="12.4305283"><ele>864.0</ele><time>2026-04-17T09:59:18.518Z</time></trkpt><trkpt lat="46.5537217" lon="12.4306783"><ele>863.25</ele><time>2026-04-17T09:59:19.518Z</time></trkpt><trkpt lat="46.5536617" lon="12.430825"><ele>862.5</ele><time>2026-04-17T09:59:20.519Z</time></trkpt><trkpt lat="46.5536017" lon="12.4309817"><ele>861.75</ele><time>2026-04-17T09:59:21.518Z</time></trkpt><trkpt lat="46.553555" lon="12.4311433"><ele>861.0</ele><time>2026-04-17T09:59:22.518Z</time></trkpt><trkpt lat="46.553505" lon="12.431305"><ele>861.75</ele><time>2026-04-17T09:59:23.517Z</time></trkpt><trkpt lat="46.5534583" lon="12.431465"><ele>862.5</ele><time>2026-04-17T09:59:24.518Z</time></trkpt><trkpt lat="46.553405" lon="12.4316217"><ele>863.25</ele><time>2026-04-17T09:59:25.518Z</time></trkpt><trkpt lat="46.5533483" lon="12.4317667"><ele>864.0</ele><time>2026-04-17T09:59:26.518Z</time></trkpt><trkpt lat="46.5532867" lon="12.4318917"><ele>864.0</ele><time>2026-04-17T09:59:27.518Z</time></trkpt><trkpt lat="46.5532233" lon="12.432005"><ele>864.0000000000001</ele><time>2026-04-17T09:59:28.518Z</time></trkpt><trkpt lat="46.553165" lon="12.4321083"><ele>864.0000000000001</ele><time>2026-04-17T09:59:29.518Z</time></trkpt><trkpt lat="46.553105" lon="12.4322067"><ele>864.0</ele><time>2026-04-17T09:59:30.519Z</time></trkpt><trkpt lat="46.5530433" lon="12.4323"><ele>864.0</ele><time>2026-04-17T09:59:31.52Z</time></trkpt><trkpt lat="46.552975" lon="12.43239"><ele>864.5</ele><time>2026-04-17T09:59:32.518Z</time></trkpt><trkpt lat="46.5528967" lon="12.43248"><ele>865.0</ele><time>2026-04-17T09:59:33.52Z</time></trkpt><trkpt lat="46.5528083" lon="12.4325783"><ele>865.5</ele><time>2026-04-17T09:59:34.518Z</time></trkpt><trkpt lat="46.5527133" lon="12.4326917"><ele>866.0</ele><time>2026-04-17T09:59:35.518Z</time></trkpt><trkpt lat="46.55262" lon="12.4328167"><ele>866.0</ele><time>2026-04-17T09:59:36.518Z</time></trkpt><trkpt lat="46.552535" lon="12.43295"><ele>866.0</ele><time>2026-04-17T09:59:37.518Z</time></trkpt><trkpt lat="46.55245" lon="12.4331033"><ele>866.0</ele><time>2026-04-17T09:59:38.518Z</time></trkpt><trkpt lat="46.5523767" lon="12.4332567"><ele>866.0</ele><time>2026-04-17T09:59:39.517Z</time></trkpt><trkpt lat="46.5523133" lon="12.4333983"><ele>866.0</ele><time>2026-04-17T09:59:40.519Z</time></trkpt><trkpt lat="46.5522633" lon="12.4335383"><ele>865.9999999999999</ele><time>2026-04-17T09:59:41.521Z</time></trkpt><trkpt lat="46.5522383" lon="12.4336833"><ele>865.9999999999999</ele><time>2026-04-17T09:59:42.518Z</time></trkpt><trkpt lat="46.5522067" lon="12.4338333"><ele>866.0</ele><time>2026-04-17T09:59:43.519Z</time></trkpt><trkpt lat="46.5521633" lon="12.4339883"><ele>866.0</ele><time>2026-04-17T09:59:44.517Z</time></trkpt><trkpt lat="46.5521217" lon="12.43415"><ele>867.0</ele><time>2026-04-17T09:59:45.517Z</time></trkpt><trkpt lat="46.5520933" lon="12.4343183"><ele>868.0</ele><time>2026-04-17T09:59:46.519Z</time></trkpt><trkpt lat="46.5520683" lon="12.434485"><ele>869.0</ele><time>2026-04-17T09:59:47.52Z</time></trkpt><trkpt lat="46.552045" lon="12.4346517"><ele>870.0</ele><time>2026-04-17T09:59:48.518Z</time></trkpt><trkpt lat="46.5520333" lon="12.4348217"><ele>867.75</ele><time>2026-04-17T09:59:49.519Z</time></trkpt><trkpt lat="46.5520217" lon="12.4349933"><ele>865.5</ele><time>2026-04-17T09:59:50.519Z</time></trkpt><trkpt lat="46.5520117" lon="12.4351667"><ele>863.25</ele><time>2026-04-17T09:59:51.518Z</time></trkpt><trkpt lat="46.552" lon="12.4353517"><ele>861.0</ele><time>2026-04-17T09:59:52.518Z</time></trkpt><trkpt lat="46.552" lon="12.4355367"><ele>860.25</ele><time>2026-04-17T09:59:53.519Z</time></trkpt><trkpt lat="46.5520067" lon="12.43572"><ele>859.5</ele><time>2026-04-17T09:59:54.518Z</time></trkpt><trkpt lat="46.5520233" lon="12.43589"><ele>858.75</ele><time>2026-04-17T09:59:55.519Z</time></trkpt><trkpt lat="46.552045" lon="12.43605"><ele>858.0</ele><time>2026-04-17T09:59:56.519Z</time></trkpt><trkpt lat="46.5520617" lon="12.436205"><ele>857.4</ele><time>2026-04-17T09:59:57.518Z</time></trkpt><trkpt lat="46.5520633" lon="12.4363533"><ele>856.8</ele><time>2026-04-17T09:59:58.518Z</time></trkpt><trkpt lat="46.5520467" lon="12.4364967"><ele>856.2</ele><time>2026-04-17T09:59:59.519Z</time></trkpt><trkpt lat="46.55203" lon="12.4366317"><ele>855.6</ele><time>2026-04-17T10:00:00.52Z</time></trkpt><trkpt lat="46.5520183" lon="12.4367733"><ele>855.0</ele><time>2026-04-17T10:00:01.518Z</time></trkpt><trkpt lat="46.5520033" lon="12.4369133"><ele>855.0</ele><time>2026-04-17T10:00:02.519Z</time></trkpt><trkpt lat="46.552" lon="12.437055"><ele>855.0</ele><time>2026-04-17T10:00:03.518Z</time></trkpt><trkpt lat="46.5519933" lon="12.4372"><ele>855.0</ele><time>2026-04-17T10:00:04.52Z</time></trkpt><trkpt lat="46.5519983" lon="12.437345"><ele>855.0</ele><time>2026-04-17T10:00:05.518Z</time></trkpt><trkpt lat="46.5520033" lon="12.437485"><ele>855.0</ele><time>2026-04-17T10:00:06.518Z</time></trkpt><trkpt lat="46.5520233" lon="12.4376183"><ele>856.6</ele><time>2026-04-17T10:00:07.518Z</time></trkpt><trkpt lat="46.5520617" lon="12.437755"><ele>858.2</ele><time>2026-04-17T10:00:08.525Z</time></trkpt><trkpt lat="46.5520933" lon="12.4379067"><ele>859.8</ele><time>2026-04-17T10:00:09.522Z</time></trkpt><trkpt lat="46.5521417" lon="12.438055"><ele>861.4</ele><time>2026-04-17T10:00:10.518Z</time></trkpt><trkpt lat="46.5521967" lon="12.4382017"><ele>863.0</ele><time>2026-04-17T10:00:11.52Z</time></trkpt><trkpt lat="46.55223" lon="12.4383483"><ele>863.0</ele><time>2026-04-17T10:00:12.517Z</time></trkpt><trkpt lat="46.55227" lon="12.4384783"><ele>863.0</ele><time>2026-04-17T10:00:13.518Z</time></trkpt><trkpt lat="46.5523167" lon="12.4386"><ele>863.0</ele><time>2026-04-17T10:00:14.519Z</time></trkpt><trkpt lat="46.5523817" lon="12.4387117"><ele>863.0</ele><time>2026-04-17T10:00:15.521Z</time></trkpt><trkpt lat="46.5524433" lon="12.43883"><ele>863.0</ele><time>2026-04-17T10:00:16.52Z</time></trkpt><trkpt lat="46.552455" lon="12.43896"><ele>862.3333333333334</ele><time>2026-04-17T10:00:17.52Z</time></trkpt><trkpt lat="46.5524383" lon="12.4390867"><ele>861.6666666666667</ele><time>2026-04-17T10:00:18.519Z</time></trkpt><trkpt lat="46.5524333" lon="12.4392067"><ele>861.0</ele><time>2026-04-17T10:00:19.518Z</time></trkpt><trkpt lat="46.5524133" lon="12.4393183"><ele>860.3333333333333</ele><time>2026-04-17T10:00:20.519Z</time></trkpt><trkpt lat="46.5524" lon="12.439435"><ele>859.6666666666666</ele><time>2026-04-17T10:00:21.519Z</time></trkpt><trkpt lat="46.5523783" lon="12.4395433"><ele>859.0</ele><time>2026-04-17T10:00:22.518Z</time></trkpt><trkpt lat="46.5523533" lon="12.43965"><ele>858.6666666666666</ele><time>2026-04-17T10:00:23.519Z</time></trkpt><trkpt lat="46.5523367" lon="12.4397617"><ele>858.3333333333333</ele><time>2026-04-17T10:00:24.518Z</time></trkpt><trkpt lat="46.5523167" lon="12.4398767"><ele>858.0</ele><time>2026-04-17T10:00:25.519Z</time></trkpt><trkpt lat="46.5523117" lon="12.4399967"><ele>857.6666666666667</ele><time>2026-04-17T10:00:26.519Z</time></trkpt><trkpt lat="46.5523133" lon="12.4401283"><ele>857.3333333333334</ele><time>2026-04-17T10:00:27.518Z</time></trkpt><trkpt lat="46.5522767" lon="12.4402633"><ele>857.0</ele><time>2026-04-17T10:00:28.519Z</time></trkpt><trkpt lat="46.5522883" lon="12.4403933"><ele>856.8</ele><time>2026-04-17T10:00:29.518Z</time></trkpt><trkpt lat="46.5522833" lon="12.4405183"><ele>856.6</ele><time>2026-04-17T10:00:30.518Z</time></trkpt><trkpt lat="46.5522783" lon="12.440645"><ele>856.3999999999999</ele><time>2026-04-17T10:00:31.519Z</time></trkpt><trkpt lat="46.5522767" lon="12.4407833"><ele>856.1999999999999</ele><time>2026-04-17T10:00:32.52Z</time></trkpt><trkpt lat="46.55228" lon="12.4409367"><ele>856.0</ele><time>2026-04-17T10:00:33.518Z</time></trkpt><trkpt lat="46.5522317" lon="12.4410667"><ele>856.0</ele><time>2026-04-17T10:00:34.518Z</time></trkpt><trkpt lat="46.5521817" lon="12.4412"><ele>855.9999999999999</ele><time>2026-04-17T10:00:35.518Z</time></trkpt><trkpt lat="46.5520983" lon="12.441315"><ele>855.9999999999999</ele><time>2026-04-17T10:00:36.52Z</time></trkpt><trkpt lat="46.5520317" lon="12.4414433"><ele>856.0</ele><time>2026-04-17T10:00:37.523Z</time></trkpt><trkpt lat="46.551965" lon="12.4415783"><ele>856.0</ele><time>2026-04-17T10:00:38.518Z</time></trkpt><trkpt lat="46.5518867" lon="12.44172"><ele>856.75</ele><time>2026-04-17T10:00:39.518Z</time></trkpt><trkpt lat="46.5518133" lon="12.441865"><ele>857.5</ele><time>2026-04-17T10:00:40.519Z</time></trkpt><trkpt lat="46.5517317" lon="12.442015"><ele>858.25</ele><time>2026-04-17T10:00:41.519Z</time></trkpt><trkpt lat="46.551665" lon="12.4421617"><ele>859.0</ele><time>2026-04-17T10:00:42.517Z</time></trkpt><trkpt lat="46.551605" lon="12.4422917"><ele>859.9999999999999</ele><time>2026-04-17T10:00:43.519Z</time></trkpt><trkpt lat="46.551555" lon="12.4424167"><ele>861.0</ele><time>2026-04-17T10:00:44.519Z</time></trkpt><trkpt lat="46.55151" lon="12.4425267"><ele>862.0</ele><time>2026-04-17T10:00:45.518Z</time></trkpt><trkpt lat="46.55147" lon="12.442615"><ele>863.0</ele><time>2026-04-17T10:00:46.519Z</time></trkpt><trkpt lat="46.5514317" lon="12.442705"><ele>863.9999999999999</ele><time>2026-04-17T10:00:47.519Z</time></trkpt><trkpt lat="46.5513967" lon="12.4427867"><ele>865.0</ele><time>2026-04-17T10:00:48.519Z</time></trkpt><trkpt lat="46.5513567" lon="12.442875"><ele>864.2</ele><time>2026-04-17T10:00:49.519Z</time></trkpt><trkpt lat="46.5513117" lon="12.442975"><ele>863.4</ele><time>2026-04-17T10:00:50.518Z</time></trkpt><trkpt lat="46.55126" lon="12.44308"><ele>862.5999999999999</ele><time>2026-04-17T10:00:51.519Z</time></trkpt><trkpt lat="46.5512017" lon="12.443195"><ele>861.8</ele><time>2026-04-17T10:00:52.52Z</time></trkpt><trkpt lat="46.55114" lon="12.443315"><ele>861.0</ele><time>2026-04-17T10:00:53.519Z</time></trkpt><trkpt lat="46.5510767" lon="12.4434367"><ele>861.0</ele><time>2026-04-17T10:00:54.519Z</time></trkpt><trkpt lat="46.5510133" lon="12.443555"><ele>860.9999999999999</ele><time>2026-04-17T10:00:55.519Z</time></trkpt><trkpt lat="46.55095" lon="12.443665"><ele>860.9999999999999</ele><time>2026-04-17T10:00:56.524Z</time></trkpt><trkpt lat="46.5508883" lon="12.4437667"><ele>861.0</ele><time>2026-04-17T10:00:57.519Z</time></trkpt><trkpt lat="46.5508367" lon="12.4438667"><ele>861.0</ele><time>2026-04-17T10:00:58.521Z</time></trkpt><trkpt lat="46.5507833" lon="12.443945"><ele>861.8333333333334</ele><time>2026-04-17T10:00:59.524Z</time></trkpt><trkpt lat="46.550735" lon="12.4440183"><ele>862.6666666666667</ele><time>2026-04-17T10:01:00.519Z</time></trkpt><trkpt lat="46.5506833" lon="12.4440917"><ele>863.5</ele><time>2026-04-17T10:01:01.52Z</time></trkpt><trkpt lat="46.5506383" lon="12.4441783"><ele>864.3333333333334</ele><time>2026-04-17T10:01:02.52Z</time></trkpt><trkpt lat="46.5505833" lon="12.4442667"><ele>865.1666666666667</ele><time>2026-04-17T10:01:03.52Z</time></trkpt><trkpt lat="46.550515" lon="12.4443467"><ele>866.0</ele><time>2026-04-17T10:01:04.519Z</time></trkpt><trkpt lat="46.5504567" lon="12.4444467"><ele>866.0</ele><time>2026-04-17T10:01:05.517Z</time></trkpt><trkpt lat="46.5503933" lon="12.4445483"><ele>865.9999999999999</ele><time>2026-04-17T10:01:06.517Z</time></trkpt><trkpt lat="46.5503283" lon="12.444655"><ele>865.9999999999999</ele><time>2026-04-17T10:01:07.518Z</time></trkpt><trkpt lat="46.5502617" lon="12.4447567"><ele>866.0</ele><time>2026-04-17T10:01:08.519Z</time></trkpt><trkpt lat="46.5502167" lon="12.4448667"><ele>866.0</ele><time>2026-04-17T10:01:09.519Z</time></trkpt><trkpt lat="46.55017" lon="12.4449683"><ele>866.0000000000001</ele><time>2026-04-17T10:01:10.518Z</time></trkpt><trkpt lat="46.5501117" lon="12.44505"><ele>866.0</ele><time>2026-04-17T10:01:11.519Z</time></trkpt><trkpt lat="46.55006" lon="12.4451117"><ele>866.0</ele><time>2026-04-17T10:01:12.518Z</time></trkpt><trkpt lat="46.5499917" lon="12.4452333"><ele>866.0</ele><time>2026-04-17T10:01:14.519Z</time></trkpt><trkpt lat="46.5499667" lon="12.4453317"><ele>866.0000000000001</ele><time>2026-04-17T10:01:16.517Z</time></trkpt><trkpt lat="46.5499433" lon="12.44547"><ele>866.0</ele><time>2026-04-17T10:01:18.518Z</time></trkpt><trkpt lat="46.5499083" lon="12.4455767"><ele>866.0</ele><time>2026-04-17T10:01:19.518Z</time></trkpt><trkpt lat="46.5498633" lon="12.4457233"><ele>866.0</ele><time>2026-04-17T10:01:20.519Z</time></trkpt><trkpt lat="46.5498033" lon="12.44588"><ele>866.0</ele><time>2026-04-17T10:01:21.518Z</time></trkpt><trkpt lat="46.5497467" lon="12.4460383"><ele>866.0</ele><time>2026-04-17T10:01:22.517Z</time></trkpt><trkpt lat="46.54969" lon="12.44619"><ele>866.4</ele><time>2026-04-17T10:01:23.519Z</time></trkpt><trkpt lat="46.5496417" lon="12.4463233"><ele>866.8</ele><time>2026-04-17T10:01:24.518Z</time></trkpt><trkpt lat="46.5495967" lon="12.446445"><ele>867.1999999999999</ele><time>2026-04-17T10:01:25.519Z</time></trkpt><trkpt lat="46.5495517" lon="12.4465583"><ele>867.5999999999999</ele><time>2026-04-17T10:01:26.52Z</time></trkpt><trkpt lat="46.54951" lon="12.44667"><ele>868.0</ele><time>2026-04-17T10:01:27.518Z</time></trkpt><trkpt lat="46.5494667" lon="12.446785"><ele>866.2</ele><time>2026-04-17T10:01:28.519Z</time></trkpt><trkpt lat="46.549425" lon="12.4469067"><ele>864.4</ele><time>2026-04-17T10:01:29.519Z</time></trkpt><trkpt lat="46.5493767" lon="12.447045"><ele>862.6000000000001</ele><time>2026-04-17T10:01:30.518Z</time></trkpt><trkpt lat="46.5493283" lon="12.4471833"><ele>860.8000000000001</ele><time>2026-04-17T10:01:31.518Z</time></trkpt><trkpt lat="46.5492783" lon="12.44733"><ele>859.0</ele><time>2026-04-17T10:01:32.519Z</time></trkpt><trkpt lat="46.5492367" lon="12.44748"><ele>859.0</ele><time>2026-04-17T10:01:33.518Z</time></trkpt><trkpt lat="46.5492017" lon="12.44764"><ele>859.0</ele><time>2026-04-17T10:01:34.517Z</time></trkpt><trkpt lat="46.5491633" lon="12.4478"><ele>859.0</ele><time>2026-04-17T10:01:35.518Z</time></trkpt><trkpt lat="46.549125" lon="12.4479567"><ele>859.0</ele><time>2026-04-17T10:01:36.521Z</time></trkpt><trkpt lat="46.5490867" lon="12.4481067"><ele>859.0</ele><time>2026-04-17T10:01:37.521Z</time></trkpt><trkpt lat="46.54905" lon="12.4482517"><ele>859.0000000000001</ele><time>2026-04-17T10:01:38.519Z</time></trkpt><trkpt lat="46.5490117" lon="12.4483933"><ele>859.0000000000001</ele><time>2026-04-17T10:01:39.518Z</time></trkpt><trkpt lat="46.5489733" lon="12.4485367"><ele>859.0</ele><time>2026-04-17T10:01:40.518Z</time></trkpt><trkpt lat="46.5489367" lon="12.44867"><ele>859.0</ele><time>2026-04-17T10:01:41.518Z</time></trkpt><trkpt lat="46.5489033" lon="12.4487983"><ele>859.2</ele><time>2026-04-17T10:01:42.518Z</time></trkpt><trkpt lat="46.5488633" lon="12.4489167"><ele>859.4000000000001</ele><time>2026-04-17T10:01:43.519Z</time></trkpt><trkpt lat="46.5488167" lon="12.44903"><ele>859.6</ele><time>2026-04-17T10:01:44.519Z</time></trkpt><trkpt lat="46.548765" lon="12.4491383"><ele>859.8</ele><time>2026-04-17T10:01:45.517Z</time></trkpt><trkpt lat="46.54871" lon="12.449245"><ele>860.0</ele><time>2026-04-17T10:01:46.519Z</time></trkpt><trkpt lat="46.5486567" lon="12.4493517"><ele>859.0</ele><time>2026-04-17T10:01:47.52Z</time></trkpt><trkpt lat="46.5486" lon="12.449465"><ele>858.0</ele><time>2026-04-17T10:01:48.519Z</time></trkpt><trkpt lat="46.5485467" lon="12.4495767"><ele>857.0</ele><time>2026-04-17T10:01:49.518Z</time></trkpt><trkpt lat="46.54849" lon="12.4496933"><ele>856.0</ele><time>2026-04-17T10:01:50.52Z</time></trkpt><trkpt lat="46.5484317" lon="12.44981"><ele>855.0</ele><time>2026-04-17T10:01:51.518Z</time></trkpt><trkpt lat="46.548375" lon="12.4499317"><ele>855.0</ele><time>2026-04-17T10:01:52.518Z</time></trkpt><trkpt lat="46.548315" lon="12.4500633"><ele>855.0</ele><time>2026-04-17T10:01:53.519Z</time></trkpt><trkpt lat="46.548255" lon="12.4502017"><ele>855.0</ele><time>2026-04-17T10:01:54.518Z</time></trkpt><trkpt lat="46.5482033" lon="12.4503483"><ele>855.0</ele><time>2026-04-17T10:01:55.518Z</time></trkpt><trkpt lat="46.5481583" lon="12.450505"><ele>856.0</ele><time>2026-04-17T10:01:56.519Z</time></trkpt><trkpt lat="46.54812" lon="12.4506733"><ele>857.0</ele><time>2026-04-17T10:01:57.518Z</time></trkpt><trkpt lat="46.54808" lon="12.450855"><ele>858.0</ele><time>2026-04-17T10:01:58.518Z</time></trkpt><trkpt lat="46.5480417" lon="12.4510417"><ele>859.0</ele><time>2026-04-17T10:01:59.519Z</time></trkpt><trkpt lat="46.5480067" lon="12.4512317"><ele>860.75</ele><time>2026-04-17T10:02:00.519Z</time></trkpt><trkpt lat="46.54797" lon="12.4514217"><ele>862.5</ele><time>2026-04-17T10:02:01.517Z</time></trkpt><trkpt lat="46.547925" lon="12.45161"><ele>864.25</ele><time>2026-04-17T10:02:02.518Z</time></trkpt><trkpt lat="46.5478667" lon="12.4517867"><ele>866.0</ele><time>2026-04-17T10:02:03.518Z</time></trkpt><trkpt lat="46.547795" lon="12.4519533"><ele>862.75</ele><time>2026-04-17T10:02:04.517Z</time></trkpt><trkpt lat="46.547705" lon="12.4521117"><ele>859.5</ele><time>2026-04-17T10:02:05.518Z</time></trkpt><trkpt lat="46.5476083" lon="12.452265"><ele>856.25</ele><time>2026-04-17T10:02:06.518Z</time></trkpt><trkpt lat="46.5475117" lon="12.4524183"><ele>853.0</ele><time>2026-04-17T10:02:07.518Z</time></trkpt><trkpt lat="46.5474183" lon="12.4525717"><ele>853.0</ele><time>2026-04-17T10:02:08.517Z</time></trkpt><trkpt lat="46.5473217" lon="12.4527183"><ele>853.0</ele><time>2026-04-17T10:02:09.517Z</time></trkpt><trkpt lat="46.5472283" lon="12.4528567"><ele>853.0</ele><time>2026-04-17T10:02:10.517Z</time></trkpt><trkpt lat="46.5471517" lon="12.452995"><ele>853.0</ele><time>2026-04-17T10:02:11.518Z</time></trkpt><trkpt lat="46.5470917" lon="12.45313"><ele>853.0</ele><time>2026-04-17T10:02:12.519Z</time></trkpt><trkpt lat="46.5470433" lon="12.4532667"><ele>853.0</ele><time>2026-04-17T10:02:13.518Z</time></trkpt><trkpt lat="46.5469983" lon="12.453405"><ele>853.0</ele><time>2026-04-17T10:02:14.519Z</time></trkpt><trkpt lat="46.5469567" lon="12.4535417"><ele>853.0</ele><time>2026-04-17T10:02:15.516Z</time></trkpt><trkpt lat="46.54692" lon="12.4536633"><ele>853.0</ele><time>2026-04-17T10:02:16.52Z</time></trkpt><trkpt lat="46.5468867" lon="12.4537617"><ele>853.3333333333333</ele><time>2026-04-17T10:02:17.518Z</time></trkpt><trkpt lat="46.5468367" lon="12.4538967"><ele>853.6666666666666</ele><time>2026-04-17T10:02:19.517Z</time></trkpt><trkpt lat="46.5468233" lon="12.4539883"><ele>854.0</ele><time>2026-04-17T10:02:24.517Z</time></trkpt><trkpt lat="46.5468917" lon="12.4540533"><ele>854.3333333333333</ele><time>2026-04-17T10:02:30.517Z</time></trkpt><trkpt lat="46.5469483" lon="12.4540967"><ele>854.6666666666666</ele><time>2026-04-17T10:03:53.518Z</time></trkpt><trkpt lat="46.5469783" lon="12.45418"><ele>855.0</ele><time>2026-04-17T10:04:17.516Z</time></trkpt><trkpt lat="46.5468757" lon="12.454217"><ele>855.0</ele><time>2026-04-17T10:04:33.104Z</time></trkpt><trkpt lat="46.546809" lon="12.4541956"><ele>855.0</ele><time>2026-04-17T10:11:29.552Z</time></trkpt><trkpt lat="46.5468713" lon="12.4542109"><ele>855.0</ele><time>2026-04-17T10:12:12.601Z</time></trkpt><trkpt lat="46.5469113" lon="12.4542865"><ele>855.0</ele><time>2026-04-17T10:15:19.597Z</time></trkpt><trkpt lat="46.5469563" lon="12.4543842"><ele>855.0</ele><time>2026-04-17T10:15:28.613Z</time></trkpt><trkpt lat="46.547021" lon="12.454411"><ele>855.0</ele><time>2026-04-17T10:15:30.538Z</time></trkpt><trkpt lat="46.5470931" lon="12.4544652"><ele>855.0</ele><time>2026-04-17T10:15:33.582Z</time></trkpt><trkpt lat="46.5471164" lon="12.454337"><ele>855.0</ele><time>2026-04-17T10:15:43.612Z</time></trkpt><trkpt lat="46.5470527" lon="12.4543255"><ele>855.0</ele><time>2026-04-17T10:16:08.519Z</time></trkpt><trkpt lat="46.5469951" lon="12.4542827"><ele>855.0</ele><time>2026-04-17T10:16:50.554Z</time></trkpt><trkpt lat="46.5469309" lon="12.454266"><ele>855.0</ele><time>2026-04-17T10:20:35.6Z</time></trkpt><trkpt lat="46.5468756" lon="12.4542045"><ele>855.0</ele><time>2026-04-17T10:34:18.546Z</time></trkpt><trkpt lat="46.5468958" lon="12.4541049"><ele>855.0</ele><time>2026-04-17T10:45:58.541Z</time></trkpt><trkpt lat="46.5468675" lon="12.4540219"><ele>855.0</ele><time>2026-04-17T10:56:17.534Z</time></trkpt><trkpt lat="46.5468686" lon="12.4541154"><ele>855.0</ele><time>2026-04-17T10:59:08.433Z</time></trkpt><trkpt lat="46.5468904" lon="12.4540192"><ele>855.0</ele><time>2026-04-17T10:59:12.616Z</time></trkpt><trkpt lat="46.5469544" lon="12.4539979"><ele>855.0</ele><time>2026-04-17T10:59:24.565Z</time></trkpt><trkpt lat="46.546961" lon="12.4540989"><ele>855.0</ele><time>2026-04-17T11:02:25.542Z</time></trkpt><trkpt lat="46.5469317" lon="12.4539833"><ele>855.0</ele><time>2026-04-17T11:05:45.523Z</time></trkpt><trkpt lat="46.5468567" lon="12.4539783"><ele>855.0</ele><time>2026-04-17T11:06:07.519Z</time></trkpt><trkpt lat="46.5467783" lon="12.4540933"><ele>855.0</ele><time>2026-04-17T11:06:09.522Z</time></trkpt><trkpt lat="46.5467333" lon="12.4541933"><ele>855.0</ele><time>2026-04-17T11:06:10.522Z</time></trkpt><trkpt lat="46.5466867" lon="12.4542967"><ele>855.0</ele><time>2026-04-17T11:06:11.522Z</time></trkpt><trkpt lat="46.54664" lon="12.4544083"><ele>855.0</ele><time>2026-04-17T11:06:12.522Z</time></trkpt><trkpt lat="46.5465933" lon="12.4545317"><ele>855.0</ele><time>2026-04-17T11:06:13.522Z</time></trkpt><trkpt lat="46.546535" lon="12.45466"><ele>855.2</ele><time>2026-04-17T11:06:14.523Z</time></trkpt><trkpt lat="46.5464783" lon="12.4547867"><ele>855.4</ele><time>2026-04-17T11:06:15.522Z</time></trkpt><trkpt lat="46.5464183" lon="12.4549167"><ele>855.5999999999999</ele><time>2026-04-17T11:06:16.522Z</time></trkpt><trkpt lat="46.546355" lon="12.4550383"><ele>855.8</ele><time>2026-04-17T11:06:17.521Z</time></trkpt><trkpt lat="46.54629" lon="12.4551517"><ele>856.0</ele><time>2026-04-17T11:06:18.522Z</time></trkpt><trkpt lat="46.54623" lon="12.4552567"><ele>855.0</ele><time>2026-04-17T11:06:19.522Z</time></trkpt><trkpt lat="46.5461733" lon="12.4553517"><ele>853.9999999999999</ele><time>2026-04-17T11:06:20.522Z</time></trkpt><trkpt lat="46.5461183" lon="12.45545"><ele>853.0</ele><time>2026-04-17T11:06:21.522Z</time></trkpt><trkpt lat="46.5460567" lon="12.4555483"><ele>852.0</ele><time>2026-04-17T11:06:22.521Z</time></trkpt><trkpt lat="46.5459917" lon="12.45567"><ele>851.0</ele><time>2026-04-17T11:06:23.522Z</time></trkpt><trkpt lat="46.5459117" lon="12.4558083"><ele>851.0</ele><time>2026-04-17T11:06:24.524Z</time></trkpt><trkpt lat="46.5458233" lon="12.4559683"><ele>851.0</ele><time>2026-04-17T11:06:25.522Z</time></trkpt><trkpt lat="46.54574" lon="12.456145"><ele>851.0</ele><time>2026-04-17T11:06:26.524Z</time></trkpt><trkpt lat="46.5456633" lon="12.4563383"><ele>851.0</ele><time>2026-04-17T11:06:27.522Z</time></trkpt><trkpt lat="46.5456" lon="12.4565317"><ele>851.5</ele><time>2026-04-17T11:06:28.521Z</time></trkpt><trkpt lat="46.5455533" lon="12.4567183"><ele>852.0</ele><time>2026-04-17T11:06:29.524Z</time></trkpt><trkpt lat="46.5455167" lon="12.4568917"><ele>852.5</ele><time>2026-04-17T11:06:30.524Z</time></trkpt><trkpt lat="46.5454833" lon="12.4570433"><ele>853.0</ele><time>2026-04-17T11:06:31.524Z</time></trkpt><trkpt lat="46.545455" lon="12.45718"><ele>852.9999999999999</ele><time>2026-04-17T11:06:32.522Z</time></trkpt><trkpt lat="46.545415" lon="12.45729"><ele>853.0</ele><time>2026-04-17T11:06:33.524Z</time></trkpt><trkpt lat="46.5453683" lon="12.4573733"><ele>853.0</ele><time>2026-04-17T11:06:34.522Z</time></trkpt><trkpt lat="46.5453083" lon="12.45744"><ele>853.0</ele><time>2026-04-17T11:06:35.524Z</time></trkpt><trkpt lat="46.545265" lon="12.4575283"><ele>852.9999999999999</ele><time>2026-04-17T11:06:36.522Z</time></trkpt><trkpt lat="46.54524" lon="12.4576383"><ele>853.0</ele><time>2026-04-17T11:06:37.522Z</time></trkpt><trkpt lat="46.545235" lon="12.45777"><ele>851.5999999999999</ele><time>2026-04-17T11:06:38.522Z</time></trkpt><trkpt lat="46.5452183" lon="12.4578933"><ele>850.1999999999999</ele><time>2026-04-17T11:06:39.523Z</time></trkpt><trkpt lat="46.5451817" lon="12.458015"><ele>848.8</ele><time>2026-04-17T11:06:40.523Z</time></trkpt><trkpt lat="46.54512" lon="12.4581383"><ele>847.4</ele><time>2026-04-17T11:06:41.524Z</time></trkpt><trkpt lat="46.5450283" lon="12.4582617"><ele>846.0</ele><time>2026-04-17T11:06:42.522Z</time></trkpt><trkpt lat="46.5449167" lon="12.4583767"><ele>846.0</ele><time>2026-04-17T11:06:43.522Z</time></trkpt><trkpt lat="46.5447917" lon="12.4584917"><ele>846.0</ele><time>2026-04-17T11:06:44.522Z</time></trkpt><trkpt lat="46.5446583" lon="12.4586117"><ele>846.0</ele><time>2026-04-17T11:06:45.523Z</time></trkpt><trkpt lat="46.54452" lon="12.4587367"><ele>844.6666666666667</ele><time>2026-04-17T11:06:46.522Z</time></trkpt><trkpt lat="46.54438" lon="12.4588733"><ele>843.3333333333334</ele><time>2026-04-17T11:06:47.522Z</time></trkpt><trkpt lat="46.5442367" lon="12.4590133"><ele>842.0</ele><time>2026-04-17T11:06:48.523Z</time></trkpt><trkpt lat="46.5440967" lon="12.4591533"><ele>842.0</ele><time>2026-04-17T11:06:49.523Z</time></trkpt><trkpt lat="46.5439633" lon="12.459285"><ele>842.0</ele><time>2026-04-17T11:06:50.522Z</time></trkpt><trkpt lat="46.5438283" lon="12.459415"><ele>842.0</ele><time>2026-04-17T11:06:51.524Z</time></trkpt><trkpt lat="46.543695" lon="12.4595433"><ele>842.25</ele><time>2026-04-17T11:06:52.523Z</time></trkpt><trkpt lat="46.543565" lon="12.4596683"><ele>842.5</ele><time>2026-04-17T11:06:53.524Z</time></trkpt><trkpt lat="46.5434433" lon="12.4597883"><ele>842.75</ele><time>2026-04-17T11:06:54.522Z</time></trkpt><trkpt lat="46.5433217" lon="12.4599017"><ele>843.0</ele><time>2026-04-17T11:06:55.523Z</time></trkpt><trkpt lat="46.5432033" lon="12.4600133"><ele>843.0</ele><time>2026-04-17T11:06:56.523Z</time></trkpt><trkpt lat="46.543095" lon="12.4601167"><ele>843.0</ele><time>2026-04-17T11:06:57.523Z</time></trkpt><trkpt lat="46.54299" lon="12.460215"><ele>843.0</ele><time>2026-04-17T11:06:58.522Z</time></trkpt><trkpt lat="46.5428867" lon="12.4603233"><ele>843.0</ele><time>2026-04-17T11:06:59.522Z</time></trkpt><trkpt lat="46.54279" lon="12.460435"><ele>842.2</ele><time>2026-04-17T11:07:00.522Z</time></trkpt><trkpt lat="46.5426983" lon="12.46055"><ele>841.4</ele><time>2026-04-17T11:07:01.523Z</time></trkpt><trkpt lat="46.542625" lon="12.4606567"><ele>840.6</ele><time>2026-04-17T11:07:02.521Z</time></trkpt><trkpt lat="46.5425567" lon="12.46076"><ele>839.8000000000001</ele><time>2026-04-17T11:07:03.522Z</time></trkpt><trkpt lat="46.5424933" lon="12.4608567"><ele>839.0</ele><time>2026-04-17T11:07:04.522Z</time></trkpt><trkpt lat="46.5424317" lon="12.460955"><ele>839.0</ele><time>2026-04-17T11:07:05.522Z</time></trkpt><trkpt lat="46.54237" lon="12.461055"><ele>839.0</ele><time>2026-04-17T11:07:06.523Z</time></trkpt><trkpt lat="46.5423017" lon="12.4611633"><ele>839.0</ele><time>2026-04-17T11:07:07.524Z</time></trkpt><trkpt lat="46.5422317" lon="12.4612833"><ele>839.0</ele><time>2026-04-17T11:07:08.524Z</time></trkpt><trkpt lat="46.5421583" lon="12.4614067"><ele>839.0</ele><time>2026-04-17T11:07:09.521Z</time></trkpt><trkpt lat="46.5420883" lon="12.4615283"><ele>837.0</ele><time>2026-04-17T11:07:10.522Z</time></trkpt><trkpt lat="46.5420283" lon="12.46166"><ele>835.0</ele><time>2026-04-17T11:07:11.522Z</time></trkpt><trkpt lat="46.5419717" lon="12.4617967"><ele>833.0</ele><time>2026-04-17T11:07:12.523Z</time></trkpt><trkpt lat="46.5419267" lon="12.4619517"><ele>831.0</ele><time>2026-04-17T11:07:13.522Z</time></trkpt><trkpt lat="46.541875" lon="12.4621017"><ele>832.5</ele><time>2026-04-17T11:07:14.523Z</time></trkpt><trkpt lat="46.5418167" lon="12.4622583"><ele>834.0</ele><time>2026-04-17T11:07:15.522Z</time></trkpt><trkpt lat="46.541735" lon="12.46238"><ele>835.5</ele><time>2026-04-17T11:07:16.523Z</time></trkpt><trkpt lat="46.5416533" lon="12.462485"><ele>837.0</ele><time>2026-04-17T11:07:17.523Z</time></trkpt><trkpt lat="46.541565" lon="12.4625683"><ele>837.0</ele><time>2026-04-17T11:07:18.522Z</time></trkpt><trkpt lat="46.5414717" lon="12.4626367"><ele>837.0</ele><time>2026-04-17T11:07:19.523Z</time></trkpt><trkpt lat="46.5413683" lon="12.4626933"><ele>837.0</ele><time>2026-04-17T11:07:20.522Z</time></trkpt><trkpt lat="46.5412567" lon="12.4627417"><ele>837.0</ele><time>2026-04-17T11:07:21.523Z</time></trkpt><trkpt lat="46.5411367" lon="12.4627883"><ele>835.75</ele><time>2026-04-17T11:07:22.522Z</time></trkpt><trkpt lat="46.5410117" lon="12.4628317"><ele>834.5</ele><time>2026-04-17T11:07:23.522Z</time></trkpt><trkpt lat="46.540875" lon="12.4628833"><ele>833.25</ele><time>2026-04-17T11:07:24.522Z</time></trkpt><trkpt lat="46.540735" lon="12.4629317"><ele>832.0</ele><time>2026-04-17T11:07:25.523Z</time></trkpt><trkpt lat="46.54059" lon="12.46298"><ele>832.0</ele><time>2026-04-17T11:07:26.522Z</time></trkpt><trkpt lat="46.5404417" lon="12.46303"><ele>832.0</ele><time>2026-04-17T11:07:27.523Z</time></trkpt><trkpt lat="46.5403" lon="12.4630817"><ele>832.0</ele><time>2026-04-17T11:07:28.522Z</time></trkpt><trkpt lat="46.54016" lon="12.4631333"><ele>832.0</ele><time>2026-04-17T11:07:29.523Z</time></trkpt><trkpt lat="46.5400267" lon="12.4631917"><ele>831.0</ele><time>2026-04-17T11:07:30.522Z</time></trkpt><trkpt lat="46.5399" lon="12.463265"><ele>830.0</ele><time>2026-04-17T11:07:31.522Z</time></trkpt><trkpt lat="46.5397783" lon="12.4633517"><ele>829.0</ele><time>2026-04-17T11:07:32.524Z</time></trkpt><trkpt lat="46.5396633" lon="12.46344"><ele>828.0</ele><time>2026-04-17T11:07:33.524Z</time></trkpt><trkpt lat="46.5395483" lon="12.4635333"><ele>829.25</ele><time>2026-04-17T11:07:34.522Z</time></trkpt><trkpt lat="46.5394383" lon="12.46362"><ele>830.5</ele><time>2026-04-17T11:07:35.524Z</time></trkpt><trkpt lat="46.53933" lon="12.4637067"><ele>831.75</ele><time>2026-04-17T11:07:36.522Z</time></trkpt><trkpt lat="46.5392233" lon="12.4638"><ele>833.0</ele><time>2026-04-17T11:07:37.525Z</time></trkpt><trkpt lat="46.5391167" lon="12.46391"><ele>833.0</ele><time>2026-04-17T11:07:38.521Z</time></trkpt><trkpt lat="46.539015" lon="12.464035"><ele>833.0</ele><time>2026-04-17T11:07:39.522Z</time></trkpt><trkpt lat="46.5389167" lon="12.464175"><ele>833.0</ele><time>2026-04-17T11:07:40.521Z</time></trkpt><trkpt lat="46.5388217" lon="12.4643317"><ele>833.0</ele><time>2026-04-17T11:07:41.523Z</time></trkpt><trkpt lat="46.538725" lon="12.4644933"><ele>829.0</ele><time>2026-04-17T11:07:42.522Z</time></trkpt><trkpt lat="46.53863" lon="12.4646717"><ele>825.0</ele><time>2026-04-17T11:07:43.522Z</time></trkpt><trkpt lat="46.53854" lon="12.4648583"><ele>821.0</ele><time>2026-04-17T11:07:44.52Z</time></trkpt><trkpt lat="46.5384533" lon="12.46505"><ele>821.0</ele><time>2026-04-17T11:07:45.522Z</time></trkpt><trkpt lat="46.5383717" lon="12.4652483"><ele>821.0</ele><time>2026-04-17T11:07:46.522Z</time></trkpt><trkpt lat="46.53829" lon="12.46545"><ele>821.0</ele><time>2026-04-17T11:07:47.522Z</time></trkpt><trkpt lat="46.5382033" lon="12.465645"><ele>814.6666666666667</ele><time>2026-04-17T11:07:48.521Z</time></trkpt><trkpt lat="46.5381033" lon="12.465835"><ele>808.3333333333333</ele><time>2026-04-17T11:07:49.522Z</time></trkpt><trkpt lat="46.537985" lon="12.4660117"><ele>802.0</ele><time>2026-04-17T11:07:50.521Z</time></trkpt><trkpt lat="46.5378583" lon="12.46618"><ele>810.3333333333333</ele><time>2026-04-17T11:07:51.522Z</time></trkpt><trkpt lat="46.5377333" lon="12.4663433"><ele>818.6666666666667</ele><time>2026-04-17T11:07:52.521Z</time></trkpt><trkpt lat="46.5376133" lon="12.466505"><ele>827.0</ele><time>2026-04-17T11:07:53.521Z</time></trkpt><trkpt lat="46.5374967" lon="12.4666617"><ele>827.0</ele><time>2026-04-17T11:07:54.522Z</time></trkpt><trkpt lat="46.5373817" lon="12.4668117"><ele>827.0</ele><time>2026-04-17T11:07:55.522Z</time></trkpt><trkpt lat="46.5372683" lon="12.466945"><ele>827.0</ele><time>2026-04-17T11:07:56.522Z</time></trkpt><trkpt lat="46.5371433" lon="12.4670483"><ele>827.0</ele><time>2026-04-17T11:07:57.522Z</time></trkpt><trkpt lat="46.5370167" lon="12.4671317"><ele>831.5</ele><time>2026-04-17T11:07:58.521Z</time></trkpt><trkpt lat="46.5368783" lon="12.467185"><ele>836.0</ele><time>2026-04-17T11:07:59.521Z</time></trkpt><trkpt lat="46.5367333" lon="12.46722"><ele>840.5</ele><time>2026-04-17T11:08:00.522Z</time></trkpt><trkpt lat="46.5365817" lon="12.4672317"><ele>845.0</ele><time>2026-04-17T11:08:01.521Z</time></trkpt><trkpt lat="46.536425" lon="12.467245"><ele>845.0</ele><time>2026-04-17T11:08:02.524Z</time></trkpt><trkpt lat="46.5362583" lon="12.4672683"><ele>845.0</ele><time>2026-04-17T11:08:03.521Z</time></trkpt><trkpt lat="46.5360917" lon="12.4673067"><ele>845.0</ele><time>2026-04-17T11:08:04.522Z</time></trkpt><trkpt lat="46.535925" lon="12.4673483"><ele>838.3333333333334</ele><time>2026-04-17T11:08:05.522Z</time></trkpt><trkpt lat="46.5357533" lon="12.4673833"><ele>831.6666666666667</ele><time>2026-04-17T11:08:06.523Z</time></trkpt><trkpt lat="46.535585" lon="12.4674217"><ele>825.0</ele><time>2026-04-17T11:08:07.521Z</time></trkpt><trkpt lat="46.5354217" lon="12.4674733"><ele>819.0</ele><time>2026-04-17T11:08:08.521Z</time></trkpt><trkpt lat="46.5352617" lon="12.4675233"><ele>813.0</ele><time>2026-04-17T11:08:09.523Z</time></trkpt><trkpt lat="46.5351133" lon="12.4675867"><ele>807.0</ele><time>2026-04-17T11:08:10.522Z</time></trkpt><trkpt lat="46.5349717" lon="12.4676533"><ele>807.0</ele><time>2026-04-17T11:08:11.521Z</time></trkpt><trkpt lat="46.5348367" lon="12.4677217"><ele>807.0</ele><time>2026-04-17T11:08:12.521Z</time></trkpt><trkpt lat="46.5347083" lon="12.4677817"><ele>807.0</ele><time>2026-04-17T11:08:13.522Z</time></trkpt><trkpt lat="46.5345817" lon="12.4678367"><ele>807.0</ele><time>2026-04-17T11:08:14.524Z</time></trkpt><trkpt lat="46.53446" lon="12.4678933"><ele>810.0</ele><time>2026-04-17T11:08:15.521Z</time></trkpt><trkpt lat="46.5343417" lon="12.4679633"><ele>813.0</ele><time>2026-04-17T11:08:16.521Z</time></trkpt><trkpt lat="46.53422" lon="12.4680417"><ele>816.0</ele><time>2026-04-17T11:08:17.521Z</time></trkpt><trkpt lat="46.5340933" lon="12.468115"><ele>819.0</ele><time>2026-04-17T11:08:18.523Z</time></trkpt><trkpt lat="46.53397" lon="12.468195"><ele>819.0</ele><time>2026-04-17T11:08:19.522Z</time></trkpt><trkpt lat="46.5338483" lon="12.4682817"><ele>819.0</ele><time>2026-04-17T11:08:20.522Z</time></trkpt><trkpt lat="46.5337267" lon="12.4683717"><ele>819.0</ele><time>2026-04-17T11:08:21.522Z</time></trkpt><trkpt lat="46.5336133" lon="12.4684683"><ele>819.0</ele><time>2026-04-17T11:08:22.52Z</time></trkpt><trkpt lat="46.5335117" lon="12.4685733"><ele>816.75</ele><time>2026-04-17T11:08:23.522Z</time></trkpt><trkpt lat="46.5334133" lon="12.4686783"><ele>814.5</ele><time>2026-04-17T11:08:24.521Z</time></trkpt><trkpt lat="46.5333217" lon="12.4687833"><ele>812.25</ele><time>2026-04-17T11:08:25.521Z</time></trkpt><trkpt lat="46.533235" lon="12.4688867"><ele>810.0</ele><time>2026-04-17T11:08:26.522Z</time></trkpt><trkpt lat="46.5331483" lon="12.4689817"><ele>810.0</ele><time>2026-04-17T11:08:27.522Z</time></trkpt><trkpt lat="46.5330617" lon="12.46908"><ele>810.0</ele><time>2026-04-17T11:08:28.52Z</time></trkpt><trkpt lat="46.5329667" lon="12.46917"><ele>810.0</ele><time>2026-04-17T11:08:29.52Z</time></trkpt><trkpt lat="46.5328633" lon="12.4692417"><ele>810.0</ele><time>2026-04-17T11:08:30.521Z</time></trkpt><trkpt lat="46.5327383" lon="12.469295"><ele>808.25</ele><time>2026-04-17T11:08:31.523Z</time></trkpt><trkpt lat="46.5326033" lon="12.4693367"><ele>806.5</ele><time>2026-04-17T11:08:32.523Z</time></trkpt><trkpt lat="46.5324567" lon="12.4693767"><ele>804.75</ele><time>2026-04-17T11:08:33.522Z</time></trkpt><trkpt lat="46.53231" lon="12.469415"><ele>803.0</ele><time>2026-04-17T11:08:34.521Z</time></trkpt><trkpt lat="46.532155" lon="12.469435"><ele>801.0</ele><time>2026-04-17T11:08:35.522Z</time></trkpt><trkpt lat="46.5319833" lon="12.4694383"><ele>799.0</ele><time>2026-04-17T11:08:36.523Z</time></trkpt><trkpt lat="46.5317967" lon="12.4694183"><ele>797.0</ele><time>2026-04-17T11:08:37.522Z</time></trkpt><trkpt lat="46.5315933" lon="12.46938"><ele>797.0</ele><time>2026-04-17T11:08:38.522Z</time></trkpt><trkpt lat="46.53138" lon="12.4693317"><ele>797.0</ele><time>2026-04-17T11:08:39.523Z</time></trkpt><trkpt lat="46.5311517" lon="12.4692783"><ele>797.0</ele><time>2026-04-17T11:08:40.521Z</time></trkpt><trkpt lat="46.5309017" lon="12.4692217"><ele>800.0</ele><time>2026-04-17T11:08:41.521Z</time></trkpt><trkpt lat="46.5306283" lon="12.4691567"><ele>803.0</ele><time>2026-04-17T11:08:42.522Z</time></trkpt><trkpt lat="46.5303317" lon="12.4690783"><ele>810.0</ele><time>2026-04-17T11:08:43.522Z</time></trkpt><trkpt lat="46.5300267" lon="12.4689933"><ele>817.0</ele><time>2026-04-17T11:08:44.522Z</time></trkpt><trkpt lat="46.52972" lon="12.4688933"><ele>823.5</ele><time>2026-04-17T11:08:45.522Z</time></trkpt><trkpt lat="46.5294133" lon="12.4687783"><ele>830.0</ele><time>2026-04-17T11:08:46.521Z</time></trkpt><trkpt lat="46.5291233" lon="12.468665"><ele>817.0</ele><time>2026-04-17T11:08:47.522Z</time></trkpt><trkpt lat="46.52885" lon="12.468535"><ele>804.0</ele><time>2026-04-17T11:08:48.522Z</time></trkpt><trkpt lat="46.5285833" lon="12.4684"><ele>804.0</ele><time>2026-04-17T11:08:49.52Z</time></trkpt><trkpt lat="46.528325" lon="12.4682817"><ele>804.0</ele><time>2026-04-17T11:08:50.522Z</time></trkpt><trkpt lat="46.5280683" lon="12.4681883"><ele>811.5</ele><time>2026-04-17T11:08:51.523Z</time></trkpt><trkpt lat="46.5278183" lon="12.4681117"><ele>819.0</ele><time>2026-04-17T11:08:52.521Z</time></trkpt><trkpt lat="46.527575" lon="12.4680417"><ele>819.0</ele><time>2026-04-17T11:08:53.522Z</time></trkpt><trkpt lat="46.5273383" lon="12.4679767"><ele>819.0</ele><time>2026-04-17T11:08:54.522Z</time></trkpt><trkpt lat="46.5271033" lon="12.4679183"><ele>809.5</ele><time>2026-04-17T11:08:55.52Z</time></trkpt><trkpt lat="46.5268717" lon="12.467875"><ele>800.0</ele><time>2026-04-17T11:08:56.522Z</time></trkpt><trkpt lat="46.5266417" lon="12.4678617"><ele>800.0</ele><time>2026-04-17T11:08:57.525Z</time></trkpt><trkpt lat="46.526415" lon="12.4678583"><ele>800.0</ele><time>2026-04-17T11:08:58.522Z</time></trkpt><trkpt lat="46.5261917" lon="12.4678667"><ele>798.3333333333334</ele><time>2026-04-17T11:08:59.521Z</time></trkpt><trkpt lat="46.5259733" lon="12.4678683"><ele>796.6666666666667</ele><time>2026-04-17T11:09:00.521Z</time></trkpt><trkpt lat="46.5257633" lon="12.4678517"><ele>795.0</ele><time>2026-04-17T11:09:01.522Z</time></trkpt><trkpt lat="46.5255683" lon="12.4678033"><ele>800.6666666666667</ele><time>2026-04-17T11:09:02.522Z</time></trkpt><trkpt lat="46.5253783" lon="12.4677217"><ele>806.3333333333334</ele><time>2026-04-17T11:09:03.522Z</time></trkpt><trkpt lat="46.5251883" lon="12.4675983"><ele>812.0</ele><time>2026-04-17T11:09:04.522Z</time></trkpt><trkpt lat="46.525015" lon="12.467435"><ele>812.0</ele><time>2026-04-17T11:09:05.522Z</time></trkpt><trkpt lat="46.524855" lon="12.4672583"><ele>812.0</ele><time>2026-04-17T11:09:06.522Z</time></trkpt><trkpt lat="46.5247017" lon="12.4670983"><ele>812.0</ele><time>2026-04-17T11:09:07.522Z</time></trkpt><trkpt lat="46.5245567" lon="12.4669683"><ele>803.6666666666667</ele><time>2026-04-17T11:09:08.522Z</time></trkpt><trkpt lat="46.5244117" lon="12.4668733"><ele>795.3333333333333</ele><time>2026-04-17T11:09:09.522Z</time></trkpt><trkpt lat="46.5242617" lon="12.4668217"><ele>787.0</ele><time>2026-04-17T11:09:10.521Z</time></trkpt><trkpt lat="46.524095" lon="12.4668317"><ele>787.0</ele><time>2026-04-17T11:09:11.522Z</time></trkpt><trkpt lat="46.5239217" lon="12.46689"><ele>787.0</ele><time>2026-04-17T11:09:12.522Z</time></trkpt><trkpt lat="46.5237367" lon="12.4669883"><ele>787.0</ele><time>2026-04-17T11:09:13.521Z</time></trkpt><trkpt lat="46.52354" lon="12.46711"><ele>794.6666666666666</ele><time>2026-04-17T11:09:14.522Z</time></trkpt><trkpt lat="46.523345" lon="12.4672267"><ele>802.3333333333333</ele><time>2026-04-17T11:09:15.521Z</time></trkpt><trkpt lat="46.5231483" lon="12.4673183"><ele>810.0</ele><time>2026-04-17T11:09:16.521Z</time></trkpt><trkpt lat="46.5229483" lon="12.4673633"><ele>805.6666666666667</ele><time>2026-04-17T11:09:17.523Z</time></trkpt><trkpt lat="46.52273" lon="12.46735"><ele>801.3333333333334</ele><time>2026-04-17T11:09:18.522Z</time></trkpt><trkpt lat="46.5225133" lon="12.4673167"><ele>797.0</ele><time>2026-04-17T11:09:19.521Z</time></trkpt><trkpt lat="46.5222867" lon="12.4672733"><ele>799.0</ele><time>2026-04-17T11:09:20.521Z</time></trkpt><trkpt lat="46.522045" lon="12.4672467"><ele>801.0</ele><time>2026-04-17T11:09:21.522Z</time></trkpt><trkpt lat="46.5218" lon="12.46724"><ele>801.0</ele><time>2026-04-17T11:09:22.521Z</time></trkpt><trkpt lat="46.5215517" lon="12.4672833"><ele>801.0</ele><time>2026-04-17T11:09:23.521Z</time></trkpt><trkpt lat="46.5213033" lon="12.4673617"><ele>802.0</ele><time>2026-04-17T11:09:24.524Z</time></trkpt><trkpt lat="46.5210533" lon="12.4674233"><ele>803.0</ele><time>2026-04-17T11:09:25.522Z</time></trkpt><trkpt lat="46.520815" lon="12.4674417"><ele>803.0</ele><time>2026-04-17T11:09:26.522Z</time></trkpt><trkpt lat="46.52058" lon="12.4674083"><ele>803.0</ele><time>2026-04-17T11:09:27.521Z</time></trkpt><trkpt lat="46.52035" lon="12.467315"><ele>808.0</ele><time>2026-04-17T11:09:28.522Z</time></trkpt><trkpt lat="46.520125" lon="12.4671733"><ele>813.0</ele><time>2026-04-17T11:09:29.522Z</time></trkpt><trkpt lat="46.5199" lon="12.4669883"><ele>815.5</ele><time>2026-04-17T11:09:30.522Z</time></trkpt><trkpt lat="46.5196867" lon="12.4667817"><ele>818.0</ele><time>2026-04-17T11:09:31.521Z</time></trkpt><trkpt lat="46.5194767" lon="12.4665467"><ele>818.0</ele><time>2026-04-17T11:09:32.522Z</time></trkpt><trkpt lat="46.519265" lon="12.466315"><ele>818.0</ele><time>2026-04-17T11:09:33.523Z</time></trkpt><trkpt lat="46.5190383" lon="12.466105"><ele>808.0</ele><time>2026-04-17T11:09:34.523Z</time></trkpt><trkpt lat="46.5188067" lon="12.4659217"><ele>798.0</ele><time>2026-04-17T11:09:35.521Z</time></trkpt><trkpt lat="46.5185717" lon="12.4657567"><ele>798.0</ele><time>2026-04-17T11:09:36.522Z</time></trkpt><trkpt lat="46.5183533" lon="12.465615"><ele>798.0</ele><time>2026-04-17T11:09:37.523Z</time></trkpt><trkpt lat="46.5181483" lon="12.465475"><ele>795.6666666666667</ele><time>2026-04-17T11:09:38.523Z</time></trkpt><trkpt lat="46.5179567" lon="12.46534"><ele>793.3333333333334</ele><time>2026-04-17T11:09:39.522Z</time></trkpt><trkpt lat="46.5177733" lon="12.465205"><ele>791.0</ele><time>2026-04-17T11:09:40.522Z</time></trkpt><trkpt lat="46.517595" lon="12.4650783"><ele>791.0</ele><time>2026-04-17T11:09:41.522Z</time></trkpt><trkpt lat="46.51742" lon="12.464955"><ele>791.0</ele><time>2026-04-17T11:09:42.521Z</time></trkpt><trkpt lat="46.5172467" lon="12.4648333"><ele>791.0</ele><time>2026-04-17T11:09:43.523Z</time></trkpt><trkpt lat="46.51707" lon="12.4647133"><ele>790.6666666666667</ele><time>2026-04-17T11:09:44.522Z</time></trkpt><trkpt lat="46.516895" lon="12.4645933"><ele>790.3333333333333</ele><time>2026-04-17T11:09:45.524Z</time></trkpt><trkpt lat="46.5167233" lon="12.464475"><ele>790.0</ele><time>2026-04-17T11:09:46.523Z</time></trkpt><trkpt lat="46.516555" lon="12.4643617"><ele>790.0</ele><time>2026-04-17T11:09:47.521Z</time></trkpt><trkpt lat="46.5163867" lon="12.464255"><ele>790.0</ele><time>2026-04-17T11:09:48.522Z</time></trkpt><trkpt lat="46.51621" lon="12.46416"><ele>790.0</ele><time>2026-04-17T11:09:49.522Z</time></trkpt><trkpt lat="46.516025" lon="12.464085"><ele>789.0</ele><time>2026-04-17T11:09:50.523Z</time></trkpt><trkpt lat="46.5158333" lon="12.464025"><ele>788.0</ele><time>2026-04-17T11:09:51.522Z</time></trkpt><trkpt lat="46.5156317" lon="12.4639683"><ele>787.0</ele><time>2026-04-17T11:09:52.521Z</time></trkpt><trkpt lat="46.5154283" lon="12.463915"><ele>785.3333333333333</ele><time>2026-04-17T11:09:53.52Z</time></trkpt><trkpt lat="46.5152267" lon="12.4638567"><ele>783.6666666666667</ele><time>2026-04-17T11:09:54.522Z</time></trkpt><trkpt lat="46.5150283" lon="12.4637967"><ele>782.0</ele><time>2026-04-17T11:09:55.521Z</time></trkpt><trkpt lat="46.5148333" lon="12.4637417"><ele>781.0</ele><time>2026-04-17T11:09:56.524Z</time></trkpt><trkpt lat="46.5146417" lon="12.4636867"><ele>780.0</ele><time>2026-04-17T11:09:57.521Z</time></trkpt><trkpt lat="46.51445" lon="12.4636233"><ele>779.0</ele><time>2026-04-17T11:09:58.522Z</time></trkpt><trkpt lat="46.5142583" lon="12.46354"><ele>779.0</ele><time>2026-04-17T11:09:59.522Z</time></trkpt><trkpt lat="46.5140783" lon="12.4634233"><ele>779.0</ele><time>2026-04-17T11:10:00.522Z</time></trkpt><trkpt lat="46.5139067" lon="12.4632633"><ele>779.0</ele><time>2026-04-17T11:10:01.522Z</time></trkpt><trkpt lat="46.5137383" lon="12.4630667"><ele>776.0</ele><time>2026-04-17T11:10:02.523Z</time></trkpt><trkpt lat="46.5135683" lon="12.4628533"><ele>773.0</ele><time>2026-04-17T11:10:03.522Z</time></trkpt><trkpt lat="46.5133883" lon="12.4626417"><ele>773.0</ele><time>2026-04-17T11:10:04.522Z</time></trkpt><trkpt lat="46.5132" lon="12.4624417"><ele>773.0</ele><time>2026-04-17T11:10:05.522Z</time></trkpt><trkpt lat="46.5130017" lon="12.4622617"><ele>770.0</ele><time>2026-04-17T11:10:06.523Z</time></trkpt><trkpt lat="46.512795" lon="12.4620933"><ele>767.0</ele><time>2026-04-17T11:10:07.522Z</time></trkpt><trkpt lat="46.5125833" lon="12.46193"><ele>767.0</ele><time>2026-04-17T11:10:08.521Z</time></trkpt><trkpt lat="46.5123667" lon="12.4617683"><ele>767.0</ele><time>2026-04-17T11:10:09.524Z</time></trkpt><trkpt lat="46.512145" lon="12.4616"><ele>768.0</ele><time>2026-04-17T11:10:10.522Z</time></trkpt><trkpt lat="46.511915" lon="12.4614283"><ele>769.0</ele><time>2026-04-17T11:10:11.523Z</time></trkpt><trkpt lat="46.5116783" lon="12.4612533"><ele>770.5</ele><time>2026-04-17T11:10:12.524Z</time></trkpt><trkpt lat="46.511445" lon="12.4610783"><ele>772.0</ele><time>2026-04-17T11:10:13.523Z</time></trkpt><trkpt lat="46.5112183" lon="12.4609067"><ele>772.0</ele><time>2026-04-17T11:10:14.522Z</time></trkpt><trkpt lat="46.5110083" lon="12.4607267"><ele>772.0</ele><time>2026-04-17T11:10:15.522Z</time></trkpt><trkpt lat="46.51081" lon="12.4605267"><ele>771.0</ele><time>2026-04-17T11:10:16.522Z</time></trkpt><trkpt lat="46.51062" lon="12.4603083"><ele>770.0</ele><time>2026-04-17T11:10:17.522Z</time></trkpt><trkpt lat="46.5104317" lon="12.46008"><ele>764.5</ele><time>2026-04-17T11:10:18.522Z</time></trkpt><trkpt lat="46.5102467" lon="12.4598467"><ele>759.0</ele><time>2026-04-17T11:10:19.522Z</time></trkpt><trkpt lat="46.5100567" lon="12.459615"><ele>757.0</ele><time>2026-04-17T11:10:20.522Z</time></trkpt><trkpt lat="46.5098617" lon="12.459385"><ele>755.0</ele><time>2026-04-17T11:10:21.523Z</time></trkpt><trkpt lat="46.50966" lon="12.4591667"><ele>750.5</ele><time>2026-04-17T11:10:22.522Z</time></trkpt><trkpt lat="46.509445" lon="12.4589633"><ele>746.0</ele><time>2026-04-17T11:10:23.521Z</time></trkpt><trkpt lat="46.5092183" lon="12.45878"><ele>746.0</ele><time>2026-04-17T11:10:24.521Z</time></trkpt><trkpt lat="46.5089833" lon="12.45862"><ele>746.0</ele><time>2026-04-17T11:10:25.522Z</time></trkpt><trkpt lat="46.5087417" lon="12.45848"><ele>741.5</ele><time>2026-04-17T11:10:26.523Z</time></trkpt><trkpt lat="46.5084983" lon="12.4583433"><ele>737.0</ele><time>2026-04-17T11:10:27.523Z</time></trkpt><trkpt lat="46.5082567" lon="12.458215"><ele>737.0</ele><time>2026-04-17T11:10:28.523Z</time></trkpt><trkpt lat="46.5080317" lon="12.4580883"><ele>737.0</ele><time>2026-04-17T11:10:29.523Z</time></trkpt><trkpt lat="46.5078267" lon="12.4579833"><ele>738.3333333333333</ele><time>2026-04-17T11:10:30.522Z</time></trkpt><trkpt lat="46.5076517" lon="12.4578917"><ele>739.6666666666666</ele><time>2026-04-17T11:10:31.522Z</time></trkpt><trkpt lat="46.5074867" lon="12.457805"><ele>741.0</ele><time>2026-04-17T11:10:32.523Z</time></trkpt><trkpt lat="46.5073167" lon="12.4577217"><ele>741.0</ele><time>2026-04-17T11:10:33.522Z</time></trkpt><trkpt lat="46.5071333" lon="12.4576367"><ele>741.0</ele><time>2026-04-17T11:10:34.522Z</time></trkpt><trkpt lat="46.5069467" lon="12.4575617"><ele>741.0</ele><time>2026-04-17T11:10:35.522Z</time></trkpt><trkpt lat="46.5067433" lon="12.4575167"><ele>741.6666666666666</ele><time>2026-04-17T11:10:36.523Z</time></trkpt><trkpt lat="46.5065267" lon="12.4575083"><ele>742.3333333333333</ele><time>2026-04-17T11:10:37.523Z</time></trkpt><trkpt lat="46.5063033" lon="12.45753"><ele>743.0</ele><time>2026-04-17T11:10:38.524Z</time></trkpt><trkpt lat="46.5060767" lon="12.4575633"><ele>743.0</ele><time>2026-04-17T11:10:39.522Z</time></trkpt><trkpt lat="46.5058467" lon="12.4575967"><ele>743.0</ele><time>2026-04-17T11:10:40.522Z</time></trkpt><trkpt lat="46.5056233" lon="12.4576083"><ele>743.6666666666666</ele><time>2026-04-17T11:10:41.522Z</time></trkpt><trkpt lat="46.50541" lon="12.4575933"><ele>744.3333333333334</ele><time>2026-04-17T11:10:42.522Z</time></trkpt><trkpt lat="46.505205" lon="12.45756"><ele>745.0</ele><time>2026-04-17T11:10:43.522Z</time></trkpt><trkpt lat="46.5050117" lon="12.4575233"><ele>745.0</ele><time>2026-04-17T11:10:44.523Z</time></trkpt><trkpt lat="46.5048267" lon="12.4574917"><ele>745.0</ele><time>2026-04-17T11:10:45.52Z</time></trkpt><trkpt lat="46.5046467" lon="12.4574817"><ele>745.0</ele><time>2026-04-17T11:10:46.523Z</time></trkpt><trkpt lat="46.5044683" lon="12.4574967"><ele>743.0</ele><time>2026-04-17T11:10:47.523Z</time></trkpt><trkpt lat="46.5042833" lon="12.45752"><ele>741.0</ele><time>2026-04-17T11:10:48.522Z</time></trkpt><trkpt lat="46.5040883" lon="12.4575483"><ele>739.0</ele><time>2026-04-17T11:10:49.523Z</time></trkpt><trkpt lat="46.5038883" lon="12.4575733"><ele>740.3333333333334</ele><time>2026-04-17T11:10:50.522Z</time></trkpt><trkpt lat="46.5036817" lon="12.4575817"><ele>741.6666666666666</ele><time>2026-04-17T11:10:51.522Z</time></trkpt><trkpt lat="46.5034767" lon="12.4575517"><ele>743.0</ele><time>2026-04-17T11:10:52.522Z</time></trkpt><trkpt lat="46.5032817" lon="12.4574767"><ele>743.0</ele><time>2026-04-17T11:10:53.523Z</time></trkpt><trkpt lat="46.503095" lon="12.4573617"><ele>743.0</ele><time>2026-04-17T11:10:54.523Z</time></trkpt><trkpt lat="46.50291" lon="12.4572217"><ele>743.0</ele><time>2026-04-17T11:10:55.523Z</time></trkpt><trkpt lat="46.5027183" lon="12.4570683"><ele>737.5</ele><time>2026-04-17T11:10:56.524Z</time></trkpt><trkpt lat="46.5025183" lon="12.4569083"><ele>732.0</ele><time>2026-04-17T11:10:57.524Z</time></trkpt><trkpt lat="46.50231" lon="12.4567417"><ele>732.0</ele><time>2026-04-17T11:10:58.522Z</time></trkpt><trkpt lat="46.5021017" lon="12.4565683"><ele>732.0</ele><time>2026-04-17T11:10:59.523Z</time></trkpt><trkpt lat="46.5018833" lon="12.4563917"><ele>734.5</ele><time>2026-04-17T11:11:00.524Z</time></trkpt><trkpt lat="46.5016667" lon="12.4562167"><ele>737.0</ele><time>2026-04-17T11:11:01.523Z</time></trkpt><trkpt lat="46.5014567" lon="12.4560483"><ele>737.0</ele><time>2026-04-17T11:11:02.521Z</time></trkpt><trkpt lat="46.501255" lon="12.4558883"><ele>737.0</ele><time>2026-04-17T11:11:03.523Z</time></trkpt><trkpt lat="46.5010567" lon="12.455735"><ele>736.6666666666666</ele><time>2026-04-17T11:11:04.522Z</time></trkpt><trkpt lat="46.5008583" lon="12.4555917"><ele>736.3333333333334</ele><time>2026-04-17T11:11:05.523Z</time></trkpt><trkpt lat="46.5006567" lon="12.4554617"><ele>736.0</ele><time>2026-04-17T11:11:06.523Z</time></trkpt><trkpt lat="46.5004533" lon="12.4553467"><ele>733.3333333333334</ele><time>2026-04-17T11:11:07.522Z</time></trkpt><trkpt lat="46.50025" lon="12.4552433"><ele>730.6666666666666</ele><time>2026-04-17T11:11:08.522Z</time></trkpt><trkpt lat="46.5000517" lon="12.455155"><ele>728.0</ele><time>2026-04-17T11:11:09.521Z</time></trkpt><trkpt lat="46.499855" lon="12.455085"><ele>728.0</ele><time>2026-04-17T11:11:10.522Z</time></trkpt><trkpt lat="46.4996467" lon="12.4550217"><ele>728.0</ele><time>2026-04-17T11:11:11.523Z</time></trkpt><trkpt lat="46.49943" lon="12.4549683"><ele>728.0</ele><time>2026-04-17T11:11:12.522Z</time></trkpt><trkpt lat="46.49921" lon="12.454915"><ele>729.5</ele><time>2026-04-17T11:11:13.522Z</time></trkpt><trkpt lat="46.498985" lon="12.45486"><ele>731.0</ele><time>2026-04-17T11:11:14.524Z</time></trkpt><trkpt lat="46.49875" lon="12.4547983"><ele>731.0</ele><time>2026-04-17T11:11:15.522Z</time></trkpt><trkpt lat="46.498515" lon="12.45472"><ele>731.0</ele><time>2026-04-17T11:11:16.52Z</time></trkpt><trkpt lat="46.49828" lon="12.45463"><ele>729.5</ele><time>2026-04-17T11:11:17.524Z</time></trkpt><trkpt lat="46.4980433" lon="12.4545283"><ele>728.0</ele><time>2026-04-17T11:11:18.522Z</time></trkpt><trkpt lat="46.4978167" lon="12.4544217"><ele>728.0</ele><time>2026-04-17T11:11:19.521Z</time></trkpt><trkpt lat="46.497595" lon="12.4543033"><ele>728.0</ele><time>2026-04-17T11:11:20.522Z</time></trkpt><trkpt lat="46.49739" lon="12.454165"><ele>728.0</ele><time>2026-04-17T11:11:21.519Z</time></trkpt><trkpt lat="46.4971967" lon="12.4540217"><ele>728.0</ele><time>2026-04-17T11:11:22.52Z</time></trkpt><trkpt lat="46.4969917" lon="12.453885"><ele>728.0</ele><time>2026-04-17T11:11:23.522Z</time></trkpt><trkpt lat="46.4967883" lon="12.4537383"><ele>730.5</ele><time>2026-04-17T11:11:24.524Z</time></trkpt><trkpt lat="46.4965883" lon="12.453575"><ele>733.0</ele><time>2026-04-17T11:11:25.522Z</time></trkpt><trkpt lat="46.4963883" lon="12.4534283"><ele>730.6666666666667</ele><time>2026-04-17T11:11:26.523Z</time></trkpt><trkpt lat="46.496195" lon="12.453295"><ele>728.3333333333334</ele><time>2026-04-17T11:11:27.522Z</time></trkpt><trkpt lat="46.4960233" lon="12.45313"><ele>726.0</ele><time>2026-04-17T11:11:28.521Z</time></trkpt><trkpt lat="46.4958617" lon="12.4529517"><ele>726.0</ele><time>2026-04-17T11:11:29.521Z</time></trkpt><trkpt lat="46.4956967" lon="12.4527933"><ele>726.0</ele><time>2026-04-17T11:11:30.522Z</time></trkpt><trkpt lat="46.4955233" lon="12.4526717"><ele>726.0</ele><time>2026-04-17T11:11:31.522Z</time></trkpt><trkpt lat="46.4953317" lon="12.4525867"><ele>730.6666666666666</ele><time>2026-04-17T11:11:32.523Z</time></trkpt><trkpt lat="46.49515" lon="12.4525333"><ele>735.3333333333333</ele><time>2026-04-17T11:11:33.522Z</time></trkpt><trkpt lat="46.4949883" lon="12.452495"><ele>740.0</ele><time>2026-04-17T11:11:34.522Z</time></trkpt><trkpt lat="46.4948533" lon="12.4524633"><ele>740.0</ele><time>2026-04-17T11:11:35.524Z</time></trkpt><trkpt lat="46.4947283" lon="12.45244"><ele>740.0</ele><time>2026-04-17T11:11:36.525Z</time></trkpt><trkpt lat="46.4946133" lon="12.45241"><ele>740.0</ele><time>2026-04-17T11:11:37.522Z</time></trkpt><trkpt lat="46.49451" lon="12.452365"><ele>740.0</ele><time>2026-04-17T11:11:38.524Z</time></trkpt><trkpt lat="46.4944267" lon="12.4523"><ele>740.0</ele><time>2026-04-17T11:11:39.524Z</time></trkpt><trkpt lat="46.49435" lon="12.4522367"><ele>740.8</ele><time>2026-04-17T11:11:40.523Z</time></trkpt><trkpt lat="46.4942633" lon="12.4521917"><ele>741.6</ele><time>2026-04-17T11:11:41.521Z</time></trkpt><trkpt lat="46.4941717" lon="12.4521667"><ele>742.4000000000001</ele><time>2026-04-17T11:11:42.522Z</time></trkpt><trkpt lat="46.494075" lon="12.4521733"><ele>743.2</ele><time>2026-04-17T11:11:43.522Z</time></trkpt><trkpt lat="46.4939683" lon="12.45222"><ele>744.0</ele><time>2026-04-17T11:11:44.522Z</time></trkpt><trkpt lat="46.4938633" lon="12.4522933"><ele>744.0</ele><time>2026-04-17T11:11:45.522Z</time></trkpt><trkpt lat="46.4937583" lon="12.4523667"><ele>744.0</ele><time>2026-04-17T11:11:46.521Z</time></trkpt><trkpt lat="46.4936483" lon="12.4524183"><ele>744.0</ele><time>2026-04-17T11:11:47.523Z</time></trkpt><trkpt lat="46.4935367" lon="12.452435"><ele>744.0</ele><time>2026-04-17T11:11:48.522Z</time></trkpt><trkpt lat="46.4934367" lon="12.452415"><ele>744.0</ele><time>2026-04-17T11:11:49.522Z</time></trkpt><trkpt lat="46.4933517" lon="12.4523483"><ele>745.5</ele><time>2026-04-17T11:11:50.524Z</time></trkpt><trkpt lat="46.49328" lon="12.45223"><ele>747.0</ele><time>2026-04-17T11:11:51.522Z</time></trkpt><trkpt lat="46.4932167" lon="12.4520717"><ele>748.5</ele><time>2026-04-17T11:11:52.522Z</time></trkpt><trkpt lat="46.4931467" lon="12.4519"><ele>750.0</ele><time>2026-04-17T11:11:53.521Z</time></trkpt><trkpt lat="46.4930633" lon="12.4517383"><ele>750.3333333333334</ele><time>2026-04-17T11:11:54.522Z</time></trkpt><trkpt lat="46.4929617" lon="12.45161"><ele>750.6666666666667</ele><time>2026-04-17T11:11:55.521Z</time></trkpt><trkpt lat="46.4928283" lon="12.451505"><ele>751.0</ele><time>2026-04-17T11:11:56.522Z</time></trkpt><trkpt lat="46.4926683" lon="12.4514317"><ele>748.6666666666667</ele><time>2026-04-17T11:11:57.524Z</time></trkpt><trkpt lat="46.4924883" lon="12.451385"><ele>746.3333333333334</ele><time>2026-04-17T11:11:58.523Z</time></trkpt><trkpt lat="46.492295" lon="12.4513717"><ele>744.0</ele><time>2026-04-17T11:11:59.524Z</time></trkpt><trkpt lat="46.4920917" lon="12.4513767"><ele>742.0</ele><time>2026-04-17T11:12:00.522Z</time></trkpt><trkpt lat="46.4918817" lon="12.4513933"><ele>740.0</ele><time>2026-04-17T11:12:01.522Z</time></trkpt><trkpt lat="46.49168" lon="12.451385"><ele>738.0</ele><time>2026-04-17T11:12:02.524Z</time></trkpt><trkpt lat="46.4914933" lon="12.45136"><ele>738.0</ele><time>2026-04-17T11:12:03.522Z</time></trkpt><trkpt lat="46.4913083" lon="12.4513533"><ele>738.0</ele><time>2026-04-17T11:12:04.52Z</time></trkpt><trkpt lat="46.4911267" lon="12.4513567"><ele>738.0</ele><time>2026-04-17T11:12:05.522Z</time></trkpt><trkpt lat="46.490955" lon="12.451375"><ele>738.3333333333334</ele><time>2026-04-17T11:12:06.522Z</time></trkpt><trkpt lat="46.4907983" lon="12.451405"><ele>738.6666666666667</ele><time>2026-04-17T11:12:07.524Z</time></trkpt><trkpt lat="46.490645" lon="12.45142"><ele>739.0</ele><time>2026-04-17T11:12:08.522Z</time></trkpt><trkpt lat="46.490485" lon="12.4514133"><ele>738.0</ele><time>2026-04-17T11:12:09.522Z</time></trkpt><trkpt lat="46.490315" lon="12.4513817"><ele>737.0</ele><time>2026-04-17T11:12:10.522Z</time></trkpt><trkpt lat="46.4901367" lon="12.451345"><ele>736.0</ele><time>2026-04-17T11:12:11.522Z</time></trkpt><trkpt lat="46.4899583" lon="12.451275"><ele>740.6666666666667</ele><time>2026-04-17T11:12:12.521Z</time></trkpt><trkpt lat="46.4897733" lon="12.451195"><ele>745.3333333333334</ele><time>2026-04-17T11:12:13.523Z</time></trkpt><trkpt lat="46.48958" lon="12.4511083"><ele>750.0</ele><time>2026-04-17T11:12:14.523Z</time></trkpt><trkpt lat="46.4893783" lon="12.4510217"><ele>750.0</ele><time>2026-04-17T11:12:15.524Z</time></trkpt><trkpt lat="46.4891683" lon="12.4509417"><ele>750.0</ele><time>2026-04-17T11:12:16.522Z</time></trkpt><trkpt lat="46.48894" lon="12.45089"><ele>750.0</ele><time>2026-04-17T11:12:17.521Z</time></trkpt><trkpt lat="46.4887" lon="12.4508617"><ele>750.0</ele><time>2026-04-17T11:12:18.522Z</time></trkpt><trkpt lat="46.4884483" lon="12.45085"><ele>750.0</ele><time>2026-04-17T11:12:19.522Z</time></trkpt><trkpt lat="46.4881917" lon="12.4508483"><ele>744.5</ele><time>2026-04-17T11:12:20.522Z</time></trkpt><trkpt lat="46.487925" lon="12.4508467"><ele>739.0</ele><time>2026-04-17T11:12:21.523Z</time></trkpt><trkpt lat="46.48766" lon="12.450835"><ele>739.0</ele><time>2026-04-17T11:12:22.522Z</time></trkpt><trkpt lat="46.487395" lon="12.4508183"><ele>739.0</ele><time>2026-04-17T11:12:23.524Z</time></trkpt><trkpt lat="46.4871417" lon="12.4507967"><ele>732.5</ele><time>2026-04-17T11:12:24.522Z</time></trkpt><trkpt lat="46.4869" lon="12.4507783"><ele>726.0</ele><time>2026-04-17T11:12:25.522Z</time></trkpt><trkpt lat="46.48667" lon="12.4507567"><ele>726.0</ele><time>2026-04-17T11:12:26.523Z</time></trkpt><trkpt lat="46.4864383" lon="12.4507167"><ele>726.0</ele><time>2026-04-17T11:12:27.522Z</time></trkpt><trkpt lat="46.4861983" lon="12.4506467"><ele>725.0</ele><time>2026-04-17T11:12:28.522Z</time></trkpt><trkpt lat="46.485955" lon="12.4505417"><ele>724.0</ele><time>2026-04-17T11:12:29.522Z</time></trkpt><trkpt lat="46.4857067" lon="12.4504067"><ele>724.0</ele><time>2026-04-17T11:12:30.522Z</time></trkpt><trkpt lat="46.48546" lon="12.4502367"><ele>724.0</ele><time>2026-04-17T11:12:31.522Z</time></trkpt><trkpt lat="46.4852233" lon="12.45003"><ele>724.0</ele><time>2026-04-17T11:12:32.523Z</time></trkpt><trkpt lat="46.485" lon="12.4497833"><ele>724.0</ele><time>2026-04-17T11:12:33.522Z</time></trkpt><trkpt lat="46.4847933" lon="12.4494967"><ele>724.5</ele><time>2026-04-17T11:12:34.522Z</time></trkpt><trkpt lat="46.4845967" lon="12.4491833"><ele>725.0</ele><time>2026-04-17T11:12:35.522Z</time></trkpt><trkpt lat="46.4844167" lon="12.4488517"><ele>722.0</ele><time>2026-04-17T11:12:36.522Z</time></trkpt><trkpt lat="46.484255" lon="12.4485067"><ele>719.0</ele><time>2026-04-17T11:12:37.524Z</time></trkpt><trkpt lat="46.4841067" lon="12.4481583"><ele>725.0</ele><time>2026-04-17T11:12:38.522Z</time></trkpt><trkpt lat="46.483965" lon="12.4478033"><ele>731.0</ele><time>2026-04-17T11:12:39.523Z</time></trkpt><trkpt lat="46.4838217" lon="12.4474283"><ele>728.0</ele><time>2026-04-17T11:12:40.521Z</time></trkpt><trkpt lat="46.483675" lon="12.4470317"><ele>725.0</ele><time>2026-04-17T11:12:41.524Z</time></trkpt><trkpt lat="46.483525" lon="12.4466233"><ele>730.0</ele><time>2026-04-17T11:12:42.522Z</time></trkpt><trkpt lat="46.4833783" lon="12.44621"><ele>735.0</ele><time>2026-04-17T11:12:43.522Z</time></trkpt><trkpt lat="46.4832233" lon="12.4457783"><ele>734.0</ele><time>2026-04-17T11:12:44.522Z</time></trkpt><trkpt lat="46.4830667" lon="12.4453267"><ele>733.0</ele><time>2026-04-17T11:12:45.523Z</time></trkpt><trkpt lat="46.4829067" lon="12.444885"><ele>736.0</ele><time>2026-04-17T11:12:46.522Z</time></trkpt><trkpt lat="46.4827283" lon="12.4444667"><ele>739.0</ele><time>2026-04-17T11:12:47.522Z</time></trkpt><trkpt lat="46.48253" lon="12.4440783"><ele>737.0</ele><time>2026-04-17T11:12:48.522Z</time></trkpt><trkpt lat="46.4823167" lon="12.443715"><ele>735.0</ele><time>2026-04-17T11:12:49.523Z</time></trkpt><trkpt lat="46.4821" lon="12.443365"><ele>735.0</ele><time>2026-04-17T11:12:50.522Z</time></trkpt><trkpt lat="46.4818833" lon="12.44302"><ele>735.0</ele><time>2026-04-17T11:12:51.521Z</time></trkpt><trkpt lat="46.4816517" lon="12.442675"><ele>739.0</ele><time>2026-04-17T11:12:52.522Z</time></trkpt><trkpt lat="46.4814133" lon="12.4423317"><ele>743.0</ele><time>2026-04-17T11:12:53.523Z</time></trkpt><trkpt lat="46.4811667" lon="12.442"><ele>743.0</ele><time>2026-04-17T11:12:54.523Z</time></trkpt><trkpt lat="46.4809117" lon="12.44169"><ele>743.0</ele><time>2026-04-17T11:12:55.521Z</time></trkpt><trkpt lat="46.480645" lon="12.4414117"><ele>747.5</ele><time>2026-04-17T11:12:56.522Z</time></trkpt><trkpt lat="46.4803667" lon="12.4411633"><ele>752.0</ele><time>2026-04-17T11:12:57.523Z</time></trkpt><trkpt lat="46.4800733" lon="12.4409417"><ele>752.0</ele><time>2026-04-17T11:12:58.522Z</time></trkpt><trkpt lat="46.4797683" lon="12.4407383"><ele>752.0</ele><time>2026-04-17T11:12:59.522Z</time></trkpt><trkpt lat="46.4794583" lon="12.4405433"><ele>761.0</ele><time>2026-04-17T11:13:00.524Z</time></trkpt><trkpt lat="46.4791617" lon="12.4403467"><ele>770.0</ele><time>2026-04-17T11:13:01.521Z</time></trkpt><trkpt lat="46.4788917" lon="12.4401367"><ele>769.5</ele><time>2026-04-17T11:13:02.522Z</time></trkpt><trkpt lat="46.4786467" lon="12.4399"><ele>769.0</ele><time>2026-04-17T11:13:03.521Z</time></trkpt><trkpt lat="46.47843" lon="12.43963"><ele>774.0</ele><time>2026-04-17T11:13:04.521Z</time></trkpt><trkpt lat="46.4782317" lon="12.4393333"><ele>779.0</ele><time>2026-04-17T11:13:05.522Z</time></trkpt><trkpt lat="46.4780417" lon="12.4390183"><ele>781.0</ele><time>2026-04-17T11:13:06.522Z</time></trkpt><trkpt lat="46.4778633" lon="12.4387017"><ele>783.0</ele><time>2026-04-17T11:13:07.522Z</time></trkpt><trkpt lat="46.4776983" lon="12.4384017"><ele>783.0</ele><time>2026-04-17T11:13:08.522Z</time></trkpt><trkpt lat="46.477535" lon="12.438115"><ele>783.0</ele><time>2026-04-17T11:13:09.521Z</time></trkpt><trkpt lat="46.4773717" lon="12.43784"><ele>787.0</ele><time>2026-04-17T11:13:10.521Z</time></trkpt><trkpt lat="46.4771983" lon="12.43758"><ele>791.0</ele><time>2026-04-17T11:13:11.521Z</time></trkpt><trkpt lat="46.4770267" lon="12.43734"><ele>791.6666666666667</ele><time>2026-04-17T11:13:12.522Z</time></trkpt><trkpt lat="46.4768533" lon="12.4371267"><ele>792.3333333333333</ele><time>2026-04-17T11:13:13.521Z</time></trkpt><trkpt lat="46.4766767" lon="12.4369383"><ele>793.0</ele><time>2026-04-17T11:13:14.523Z</time></trkpt><trkpt lat="46.4765" lon="12.436755"><ele>793.0</ele><time>2026-04-17T11:13:15.52Z</time></trkpt><trkpt lat="46.4763283" lon="12.43658"><ele>793.0</ele><time>2026-04-17T11:13:16.52Z</time></trkpt><trkpt lat="46.4761767" lon="12.436425"><ele>793.0</ele><time>2026-04-17T11:13:17.521Z</time></trkpt><trkpt lat="46.4760333" lon="12.43628"><ele>794.0</ele><time>2026-04-17T11:13:18.521Z</time></trkpt><trkpt lat="46.4759033" lon="12.436145"><ele>795.0</ele><time>2026-04-17T11:13:19.521Z</time></trkpt><trkpt lat="46.4757817" lon="12.4360117"><ele>796.0</ele><time>2026-04-17T11:13:20.524Z</time></trkpt><trkpt lat="46.4756683" lon="12.43587"><ele>796.0</ele><time>2026-04-17T11:13:21.521Z</time></trkpt><trkpt lat="46.4755483" lon="12.4357217"><ele>796.0</ele><time>2026-04-17T11:13:22.522Z</time></trkpt><trkpt lat="46.4754233" lon="12.4355533"><ele>796.0</ele><time>2026-04-17T11:13:23.521Z</time></trkpt><trkpt lat="46.4752917" lon="12.4353533"><ele>794.3333333333333</ele><time>2026-04-17T11:13:24.521Z</time></trkpt><trkpt lat="46.47516" lon="12.4351317"><ele>792.6666666666667</ele><time>2026-04-17T11:13:25.524Z</time></trkpt><trkpt lat="46.4750233" lon="12.4348917"><ele>791.0</ele><time>2026-04-17T11:13:26.522Z</time></trkpt><trkpt lat="46.4748783" lon="12.4346467"><ele>789.5</ele><time>2026-04-17T11:13:27.522Z</time></trkpt><trkpt lat="46.4747183" lon="12.4344117"><ele>788.0</ele><time>2026-04-17T11:13:28.521Z</time></trkpt><trkpt lat="46.474535" lon="12.4342033"><ele>788.0</ele><time>2026-04-17T11:13:29.52Z</time></trkpt><trkpt lat="46.4743317" lon="12.4340083"><ele>788.0</ele><time>2026-04-17T11:13:30.522Z</time></trkpt><trkpt lat="46.4741333" lon="12.4338167"><ele>787.0</ele><time>2026-04-17T11:13:31.522Z</time></trkpt><trkpt lat="46.473945" lon="12.4336333"><ele>786.0</ele><time>2026-04-17T11:13:32.52Z</time></trkpt><trkpt lat="46.4737683" lon="12.4334433"><ele>785.0</ele><time>2026-04-17T11:13:33.521Z</time></trkpt><trkpt lat="46.4736067" lon="12.43323"><ele>785.0</ele><time>2026-04-17T11:13:34.521Z</time></trkpt><trkpt lat="46.47345" lon="12.432985"><ele>785.0</ele><time>2026-04-17T11:13:35.523Z</time></trkpt><trkpt lat="46.4732983" lon="12.4327283"><ele>787.0</ele><time>2026-04-17T11:13:36.522Z</time></trkpt><trkpt lat="46.47315" lon="12.43248"><ele>789.0</ele><time>2026-04-17T11:13:37.52Z</time></trkpt><trkpt lat="46.4729917" lon="12.43226"><ele>791.0</ele><time>2026-04-17T11:13:38.523Z</time></trkpt><trkpt lat="46.4728233" lon="12.43209"><ele>791.0</ele><time>2026-04-17T11:13:39.521Z</time></trkpt><trkpt lat="46.4726433" lon="12.431985"><ele>791.0</ele><time>2026-04-17T11:13:40.519Z</time></trkpt><trkpt lat="46.4724567" lon="12.4319483"><ele>791.0</ele><time>2026-04-17T11:13:41.521Z</time></trkpt><trkpt lat="46.47225" lon="12.4319817"><ele>795.5</ele><time>2026-04-17T11:13:42.521Z</time></trkpt><trkpt lat="46.4720333" lon="12.4320483"><ele>800.0</ele><time>2026-04-17T11:13:43.521Z</time></trkpt><trkpt lat="46.4718" lon="12.4321183"><ele>795.5</ele><time>2026-04-17T11:13:44.523Z</time></trkpt><trkpt lat="46.4715517" lon="12.4321733"><ele>791.0</ele><time>2026-04-17T11:13:45.52Z</time></trkpt><trkpt lat="46.4713017" lon="12.4322067"><ele>794.5</ele><time>2026-04-17T11:13:46.522Z</time></trkpt><trkpt lat="46.47106" lon="12.4322133"><ele>798.0</ele><time>2026-04-17T11:13:47.52Z</time></trkpt><trkpt lat="46.4708333" lon="12.4321983"><ele>798.0</ele><time>2026-04-17T11:13:48.521Z</time></trkpt><trkpt lat="46.4706333" lon="12.4321433"><ele>798.0</ele><time>2026-04-17T11:13:49.519Z</time></trkpt><trkpt lat="46.47045" lon="12.4320367"><ele>798.0</ele><time>2026-04-17T11:13:50.523Z</time></trkpt><trkpt lat="46.4702767" lon="12.4318767"><ele>800.3333333333333</ele><time>2026-04-17T11:13:51.52Z</time></trkpt><trkpt lat="46.4701133" lon="12.4316717"><ele>802.6666666666666</ele><time>2026-04-17T11:13:52.522Z</time></trkpt><trkpt lat="46.4699417" lon="12.431445"><ele>805.0</ele><time>2026-04-17T11:13:53.523Z</time></trkpt><trkpt lat="46.46976" lon="12.43121"><ele>804.5</ele><time>2026-04-17T11:13:54.521Z</time></trkpt><trkpt lat="46.4695667" lon="12.43097"><ele>804.0</ele><time>2026-04-17T11:13:55.521Z</time></trkpt><trkpt lat="46.4693683" lon="12.430735"><ele>804.0</ele><time>2026-04-17T11:13:56.52Z</time></trkpt><trkpt lat="46.4691683" lon="12.4305117"><ele>804.0</ele><time>2026-04-17T11:13:57.521Z</time></trkpt><trkpt lat="46.46898" lon="12.430295"><ele>806.0</ele><time>2026-04-17T11:13:58.521Z</time></trkpt><trkpt lat="46.4688067" lon="12.430065"><ele>808.0</ele><time>2026-04-17T11:13:59.522Z</time></trkpt><trkpt lat="46.468645" lon="12.429815"><ele>810.0</ele><time>2026-04-17T11:14:00.522Z</time></trkpt><trkpt lat="46.4685" lon="12.42955"><ele>812.0</ele><time>2026-04-17T11:14:01.522Z</time></trkpt><trkpt lat="46.468355" lon="12.42928"><ele>812.0</ele><time>2026-04-17T11:14:02.522Z</time></trkpt><trkpt lat="46.4682083" lon="12.428995"><ele>812.0</ele><time>2026-04-17T11:14:03.52Z</time></trkpt><trkpt lat="46.46806" lon="12.4287183"><ele>810.5</ele><time>2026-04-17T11:14:04.52Z</time></trkpt><trkpt lat="46.4679133" lon="12.4284383"><ele>809.0</ele><time>2026-04-17T11:14:05.522Z</time></trkpt><trkpt lat="46.4677617" lon="12.428155"><ele>810.0</ele><time>2026-04-17T11:14:06.523Z</time></trkpt><trkpt lat="46.4676017" lon="12.4278733"><ele>811.0</ele><time>2026-04-17T11:14:07.521Z</time></trkpt><trkpt lat="46.4674317" lon="12.4275967"><ele>811.0</ele><time>2026-04-17T11:14:08.522Z</time></trkpt><trkpt lat="46.4672467" lon="12.4273267"><ele>811.0</ele><time>2026-04-17T11:14:09.52Z</time></trkpt><trkpt lat="46.4670567" lon="12.4270633"><ele>807.5</ele><time>2026-04-17T11:14:10.522Z</time></trkpt><trkpt lat="46.4668667" lon="12.4268"><ele>804.0</ele><time>2026-04-17T11:14:11.522Z</time></trkpt><trkpt lat="46.466695" lon="12.4265183"><ele>806.0</ele><time>2026-04-17T11:14:12.522Z</time></trkpt><trkpt lat="46.4665317" lon="12.42622"><ele>808.0</ele><time>2026-04-17T11:14:13.521Z</time></trkpt><trkpt lat="46.466375" lon="12.42592"><ele>802.5</ele><time>2026-04-17T11:14:14.523Z</time></trkpt><trkpt lat="46.4662183" lon="12.42563"><ele>797.0</ele><time>2026-04-17T11:14:15.524Z</time></trkpt><trkpt lat="46.4660633" lon="12.425355"><ele>797.0</ele><time>2026-04-17T11:14:16.521Z</time></trkpt><trkpt lat="46.4659167" lon="12.4251"><ele>797.0</ele><time>2026-04-17T11:14:17.522Z</time></trkpt><trkpt lat="46.465785" lon="12.4248733"><ele>797.0</ele><time>2026-04-17T11:14:18.521Z</time></trkpt><trkpt lat="46.4656667" lon="12.42467"><ele>794.3333333333334</ele><time>2026-04-17T11:14:19.524Z</time></trkpt><trkpt lat="46.46555" lon="12.4244867"><ele>791.6666666666667</ele><time>2026-04-17T11:14:20.522Z</time></trkpt><trkpt lat="46.46543" lon="12.42431"><ele>789.0</ele><time>2026-04-17T11:14:21.521Z</time></trkpt><trkpt lat="46.4653" lon="12.4241383"><ele>789.0</ele><time>2026-04-17T11:14:22.52Z</time></trkpt><trkpt lat="46.4651567" lon="12.42397"><ele>789.0</ele><time>2026-04-17T11:14:23.522Z</time></trkpt><trkpt lat="46.4650083" lon="12.4238183"><ele>789.0</ele><time>2026-04-17T11:14:24.522Z</time></trkpt><trkpt lat="46.4648633" lon="12.423685"><ele>787.0</ele><time>2026-04-17T11:14:25.522Z</time></trkpt><trkpt lat="46.464725" lon="12.4235583"><ele>785.0</ele><time>2026-04-17T11:14:26.521Z</time></trkpt><trkpt lat="46.4645967" lon="12.4234433"><ele>783.0</ele><time>2026-04-17T11:14:27.522Z</time></trkpt><trkpt lat="46.4644717" lon="12.42332"><ele>783.0</ele><time>2026-04-17T11:14:28.52Z</time></trkpt><trkpt lat="46.4643667" lon="12.4231783"><ele>783.0</ele><time>2026-04-17T11:14:29.521Z</time></trkpt><trkpt lat="46.464265" lon="12.4230333"><ele>783.0</ele><time>2026-04-17T11:14:30.521Z</time></trkpt><trkpt lat="46.4641717" lon="12.4228767"><ele>783.0</ele><time>2026-04-17T11:14:31.52Z</time></trkpt><trkpt lat="46.4640933" lon="12.4227167"><ele>786.25</ele><time>2026-04-17T11:14:32.522Z</time></trkpt><trkpt lat="46.464015" lon="12.4225783"><ele>789.5</ele><time>2026-04-17T11:14:33.521Z</time></trkpt><trkpt lat="46.463945" lon="12.4224283"><ele>792.75</ele><time>2026-04-17T11:14:34.522Z</time></trkpt><trkpt lat="46.4638817" lon="12.4222767"><ele>796.0</ele><time>2026-04-17T11:14:35.523Z</time></trkpt><trkpt lat="46.4638217" lon="12.4221283"><ele>792.8</ele><time>2026-04-17T11:14:36.522Z</time></trkpt><trkpt lat="46.4637583" lon="12.421985"><ele>789.5999999999999</ele><time>2026-04-17T11:14:37.521Z</time></trkpt><trkpt lat="46.46369" lon="12.4218467"><ele>786.4</ele><time>2026-04-17T11:14:38.523Z</time></trkpt><trkpt lat="46.4636267" lon="12.42173"><ele>783.2</ele><time>2026-04-17T11:14:39.522Z</time></trkpt><trkpt lat="46.4635683" lon="12.4216383"><ele>780.0</ele><time>2026-04-17T11:14:40.521Z</time></trkpt><trkpt lat="46.4635083" lon="12.42155"><ele>780.0</ele><time>2026-04-17T11:14:41.523Z</time></trkpt><trkpt lat="46.463455" lon="12.421455"><ele>780.0</ele><time>2026-04-17T11:14:42.522Z</time></trkpt><trkpt lat="46.4634133" lon="12.4213483"><ele>780.0</ele><time>2026-04-17T11:14:43.523Z</time></trkpt><trkpt lat="46.463365" lon="12.4212417"><ele>780.0</ele><time>2026-04-17T11:14:44.521Z</time></trkpt><trkpt lat="46.4633033" lon="12.421145"><ele>780.0</ele><time>2026-04-17T11:14:45.522Z</time></trkpt><trkpt lat="46.4632217" lon="12.421075"><ele>780.0</ele><time>2026-04-17T11:14:46.52Z</time></trkpt><trkpt lat="46.4631317" lon="12.4210183"><ele>780.8</ele><time>2026-04-17T11:14:47.523Z</time></trkpt><trkpt lat="46.4630417" lon="12.420955"><ele>781.6</ele><time>2026-04-17T11:14:48.522Z</time></trkpt><trkpt lat="46.4629583" lon="12.4208733"><ele>782.4000000000001</ele><time>2026-04-17T11:14:49.521Z</time></trkpt><trkpt lat="46.4628767" lon="12.420785"><ele>783.2</ele><time>2026-04-17T11:14:50.522Z</time></trkpt><trkpt lat="46.4627967" lon="12.420695"><ele>784.0</ele><time>2026-04-17T11:14:51.522Z</time></trkpt><trkpt lat="46.4627117" lon="12.4206033"><ele>782.8000000000001</ele><time>2026-04-17T11:14:52.522Z</time></trkpt><trkpt lat="46.4626267" lon="12.4205067"><ele>781.6</ele><time>2026-04-17T11:14:53.523Z</time></trkpt><trkpt lat="46.4625417" lon="12.4204017"><ele>780.4</ele><time>2026-04-17T11:14:54.522Z</time></trkpt><trkpt lat="46.4624617" lon="12.4202983"><ele>779.2</ele><time>2026-04-17T11:14:55.522Z</time></trkpt><trkpt lat="46.4623917" lon="12.4201933"><ele>778.0</ele><time>2026-04-17T11:14:56.522Z</time></trkpt><trkpt lat="46.46232" lon="12.4200867"><ele>778.0</ele><time>2026-04-17T11:14:57.522Z</time></trkpt><trkpt lat="46.4622517" lon="12.4199617"><ele>778.0</ele><time>2026-04-17T11:14:58.521Z</time></trkpt><trkpt lat="46.462185" lon="12.41982"><ele>778.0</ele><time>2026-04-17T11:14:59.52Z</time></trkpt><trkpt lat="46.4621267" lon="12.41966"><ele>778.0</ele><time>2026-04-17T11:15:00.522Z</time></trkpt><trkpt lat="46.4620667" lon="12.4194867"><ele>776.5</ele><time>2026-04-17T11:15:01.522Z</time></trkpt><trkpt lat="46.462" lon="12.4193067"><ele>775.0</ele><time>2026-04-17T11:15:02.524Z</time></trkpt><trkpt lat="46.461925" lon="12.419125"><ele>773.5</ele><time>2026-04-17T11:15:03.521Z</time></trkpt><trkpt lat="46.4618417" lon="12.4189417"><ele>772.0</ele><time>2026-04-17T11:15:04.52Z</time></trkpt><trkpt lat="46.461755" lon="12.4187617"><ele>772.0</ele><time>2026-04-17T11:15:05.52Z</time></trkpt><trkpt lat="46.4616767" lon="12.418585"><ele>772.0</ele><time>2026-04-17T11:15:06.522Z</time></trkpt><trkpt lat="46.4616133" lon="12.418415"><ele>772.0</ele><time>2026-04-17T11:15:07.523Z</time></trkpt><trkpt lat="46.4615583" lon="12.4182533"><ele>772.0</ele><time>2026-04-17T11:15:08.524Z</time></trkpt><trkpt lat="46.4615067" lon="12.4180867"><ele>771.75</ele><time>2026-04-17T11:15:09.522Z</time></trkpt><trkpt lat="46.46145" lon="12.4179317"><ele>771.5</ele><time>2026-04-17T11:15:10.524Z</time></trkpt><trkpt lat="46.4613867" lon="12.4177833"><ele>771.25</ele><time>2026-04-17T11:15:11.522Z</time></trkpt><trkpt lat="46.4613217" lon="12.4176367"><ele>771.0</ele><time>2026-04-17T11:15:12.523Z</time></trkpt><trkpt lat="46.4612483" lon="12.417495"><ele>771.0</ele><time>2026-04-17T11:15:13.523Z</time></trkpt><trkpt lat="46.461165" lon="12.4173617"><ele>771.0</ele><time>2026-04-17T11:15:14.523Z</time></trkpt><trkpt lat="46.461085" lon="12.417235"><ele>771.0</ele><time>2026-04-17T11:15:15.522Z</time></trkpt><trkpt lat="46.461005" lon="12.4171217"><ele>771.0</ele><time>2026-04-17T11:15:16.523Z</time></trkpt><trkpt lat="46.4609383" lon="12.417035"><ele>771.0</ele><time>2026-04-17T11:15:17.522Z</time></trkpt><trkpt lat="46.4608883" lon="12.4169683"><ele>772.1666666666666</ele><time>2026-04-17T11:15:18.522Z</time></trkpt><trkpt lat="46.4608267" lon="12.416895"><ele>773.3333333333333</ele><time>2026-04-17T11:15:20.522Z</time></trkpt><trkpt lat="46.46075" lon="12.4168217"><ele>774.5</ele><time>2026-04-17T11:15:27.522Z</time></trkpt><trkpt lat="46.4607" lon="12.416765"><ele>775.6666666666666</ele><time>2026-04-17T11:15:28.522Z</time></trkpt><trkpt lat="46.46063" lon="12.416695"><ele>776.8333333333333</ele><time>2026-04-17T11:15:29.522Z</time></trkpt><trkpt lat="46.4605633" lon="12.4166217"><ele>778.0</ele><time>2026-04-17T11:15:30.522Z</time></trkpt><trkpt lat="46.4604917" lon="12.4165283"><ele>777.2</ele><time>2026-04-17T11:15:31.524Z</time></trkpt><trkpt lat="46.4604117" lon="12.4164367"><ele>776.4</ele><time>2026-04-17T11:15:32.523Z</time></trkpt><trkpt lat="46.4603433" lon="12.4163317"><ele>775.6</ele><time>2026-04-17T11:15:33.523Z</time></trkpt><trkpt lat="46.460275" lon="12.4162217"><ele>774.8000000000001</ele><time>2026-04-17T11:15:34.522Z</time></trkpt><trkpt lat="46.460215" lon="12.4161083"><ele>774.0</ele><time>2026-04-17T11:15:35.523Z</time></trkpt><trkpt lat="46.4601583" lon="12.41599"><ele>774.0</ele><time>2026-04-17T11:15:36.521Z</time></trkpt><trkpt lat="46.460105" lon="12.41587"><ele>774.0</ele><time>2026-04-17T11:15:37.522Z</time></trkpt><trkpt lat="46.4600567" lon="12.4157417"><ele>774.0</ele><time>2026-04-17T11:15:38.522Z</time></trkpt><trkpt lat="46.4600133" lon="12.4156067"><ele>774.0</ele><time>2026-04-17T11:15:39.523Z</time></trkpt><trkpt lat="46.459965" lon="12.4154683"><ele>774.0</ele><time>2026-04-17T11:15:40.521Z</time></trkpt><trkpt lat="46.459915" lon="12.4153383"><ele>773.8000000000001</ele><time>2026-04-17T11:15:41.521Z</time></trkpt><trkpt lat="46.4598667" lon="12.4152083"><ele>773.6</ele><time>2026-04-17T11:15:42.522Z</time></trkpt><trkpt lat="46.45982" lon="12.4150767"><ele>773.4</ele><time>2026-04-17T11:15:43.521Z</time></trkpt><trkpt lat="46.45977" lon="12.4149367"><ele>773.2</ele><time>2026-04-17T11:15:44.523Z</time></trkpt><trkpt lat="46.459715" lon="12.41479"><ele>773.0</ele><time>2026-04-17T11:15:45.522Z</time></trkpt><trkpt lat="46.459655" lon="12.4146417"><ele>771.8</ele><time>2026-04-17T11:15:46.523Z</time></trkpt><trkpt lat="46.4596" lon="12.4144967"><ele>770.5999999999999</ele><time>2026-04-17T11:15:47.522Z</time></trkpt><trkpt lat="46.45956" lon="12.4143467"><ele>769.4000000000001</ele><time>2026-04-17T11:15:48.521Z</time></trkpt><trkpt lat="46.4595117" lon="12.4142017"><ele>768.2</ele><time>2026-04-17T11:15:49.523Z</time></trkpt><trkpt lat="46.45946" lon="12.414055"><ele>767.0</ele><time>2026-04-17T11:15:50.523Z</time></trkpt><trkpt lat="46.4594033" lon="12.4139067"><ele>766.75</ele><time>2026-04-17T11:15:51.522Z</time></trkpt><trkpt lat="46.4593433" lon="12.4137567"><ele>766.5</ele><time>2026-04-17T11:15:52.523Z</time></trkpt><trkpt lat="46.4592967" lon="12.4135883"><ele>766.25</ele><time>2026-04-17T11:15:53.523Z</time></trkpt><trkpt lat="46.4592633" lon="12.4134133"><ele>766.0</ele><time>2026-04-17T11:15:54.523Z</time></trkpt><trkpt lat="46.4592433" lon="12.413235"><ele>766.0</ele><time>2026-04-17T11:15:55.522Z</time></trkpt><trkpt lat="46.4592383" lon="12.41306"><ele>766.0</ele><time>2026-04-17T11:15:56.522Z</time></trkpt><trkpt lat="46.4592333" lon="12.4128867"><ele>766.0</ele><time>2026-04-17T11:15:57.524Z</time></trkpt><trkpt lat="46.459225" lon="12.4127183"><ele>766.0</ele><time>2026-04-17T11:15:58.521Z</time></trkpt><trkpt lat="46.4591967" lon="12.412555"><ele>766.75</ele><time>2026-04-17T11:15:59.522Z</time></trkpt><trkpt lat="46.4591533" lon="12.4123933"><ele>767.5</ele><time>2026-04-17T11:16:00.521Z</time></trkpt><trkpt lat="46.4590967" lon="12.41224"><ele>768.25</ele><time>2026-04-17T11:16:01.523Z</time></trkpt><trkpt lat="46.45903" lon="12.4120867"><ele>769.0</ele><time>2026-04-17T11:16:02.522Z</time></trkpt><trkpt lat="46.45896" lon="12.4119367"><ele>769.25</ele><time>2026-04-17T11:16:03.521Z</time></trkpt><trkpt lat="46.4588833" lon="12.4117933"><ele>769.5</ele><time>2026-04-17T11:16:04.521Z</time></trkpt><trkpt lat="46.458805" lon="12.4116483"><ele>769.75</ele><time>2026-04-17T11:16:05.522Z</time></trkpt><trkpt lat="46.45872" lon="12.4115"><ele>770.0</ele><time>2026-04-17T11:16:06.522Z</time></trkpt><trkpt lat="46.4586317" lon="12.4113467"><ele>767.75</ele><time>2026-04-17T11:16:07.523Z</time></trkpt><trkpt lat="46.4585383" lon="12.411195"><ele>765.5</ele><time>2026-04-17T11:16:08.522Z</time></trkpt><trkpt lat="46.4584467" lon="12.4110433"><ele>763.25</ele><time>2026-04-17T11:16:09.522Z</time></trkpt><trkpt lat="46.4583567" lon="12.41089"><ele>761.0</ele><time>2026-04-17T11:16:10.521Z</time></trkpt><trkpt lat="46.4582617" lon="12.4107383"><ele>761.0</ele><time>2026-04-17T11:16:11.521Z</time></trkpt><trkpt lat="46.4581667" lon="12.4105767"><ele>761.0</ele><time>2026-04-17T11:16:12.522Z</time></trkpt><trkpt lat="46.45807" lon="12.410415"><ele>761.0</ele><time>2026-04-17T11:16:13.521Z</time></trkpt><trkpt lat="46.4579733" lon="12.4102533"><ele>761.0</ele><time>2026-04-17T11:16:14.522Z</time></trkpt><trkpt lat="46.4578783" lon="12.4100883"><ele>760.5</ele><time>2026-04-17T11:16:15.523Z</time></trkpt><trkpt lat="46.457785" lon="12.409925"><ele>760.0</ele><time>2026-04-17T11:16:16.523Z</time></trkpt><trkpt lat="46.4576867" lon="12.4097633"><ele>759.5</ele><time>2026-04-17T11:16:17.523Z</time></trkpt><trkpt lat="46.4575817" lon="12.4096017"><ele>759.0</ele><time>2026-04-17T11:16:18.524Z</time></trkpt><trkpt lat="46.4574767" lon="12.4094433"><ele>759.0</ele><time>2026-04-17T11:16:19.522Z</time></trkpt><trkpt lat="46.4573617" lon="12.4092967"><ele>759.0</ele><time>2026-04-17T11:16:20.524Z</time></trkpt><trkpt lat="46.4572417" lon="12.4091583"><ele>759.0</ele><time>2026-04-17T11:16:21.521Z</time></trkpt><trkpt lat="46.45712" lon="12.4090217"><ele>759.0</ele><time>2026-04-17T11:16:22.522Z</time></trkpt><trkpt lat="46.4569917" lon="12.4088867"><ele>759.0</ele><time>2026-04-17T11:16:23.521Z</time></trkpt><trkpt lat="46.4568633" lon="12.40875"><ele>759.0</ele><time>2026-04-17T11:16:24.523Z</time></trkpt><trkpt lat="46.4567333" lon="12.4086117"><ele>759.0</ele><time>2026-04-17T11:16:25.523Z</time></trkpt><trkpt lat="46.45661" lon="12.4084717"><ele>759.0</ele><time>2026-04-17T11:16:26.522Z</time></trkpt><trkpt lat="46.4564817" lon="12.408335"><ele>759.0</ele><time>2026-04-17T11:16:27.523Z</time></trkpt><trkpt lat="46.4563517" lon="12.4081983"><ele>757.3333333333334</ele><time>2026-04-17T11:16:28.522Z</time></trkpt><trkpt lat="46.4562267" lon="12.408055"><ele>755.6666666666667</ele><time>2026-04-17T11:16:29.523Z</time></trkpt><trkpt lat="46.4561083" lon="12.4079067"><ele>754.0</ele><time>2026-04-17T11:16:30.522Z</time></trkpt><trkpt lat="46.455995" lon="12.4077533"><ele>754.0</ele><time>2026-04-17T11:16:31.522Z</time></trkpt><trkpt lat="46.45589" lon="12.4075933"><ele>754.0</ele><time>2026-04-17T11:16:32.524Z</time></trkpt><trkpt lat="46.4557883" lon="12.40743"><ele>754.0</ele><time>2026-04-17T11:16:33.524Z</time></trkpt><trkpt lat="46.4556883" lon="12.4072583"><ele>752.6666666666667</ele><time>2026-04-17T11:16:34.522Z</time></trkpt><trkpt lat="46.4555933" lon="12.4070833"><ele>751.3333333333334</ele><time>2026-04-17T11:16:35.524Z</time></trkpt><trkpt lat="46.455495" lon="12.4069017"><ele>750.0</ele><time>2026-04-17T11:16:36.522Z</time></trkpt><trkpt lat="46.4554" lon="12.406715"><ele>750.0</ele><time>2026-04-17T11:16:37.523Z</time></trkpt><trkpt lat="46.45531" lon="12.4065183"><ele>750.0</ele><time>2026-04-17T11:16:38.524Z</time></trkpt><trkpt lat="46.455225" lon="12.4063183"><ele>750.0</ele><time>2026-04-17T11:16:39.523Z</time></trkpt><trkpt lat="46.4551433" lon="12.4061183"><ele>751.6666666666666</ele><time>2026-04-17T11:16:40.523Z</time></trkpt><trkpt lat="46.4550567" lon="12.4059233"><ele>753.3333333333333</ele><time>2026-04-17T11:16:41.522Z</time></trkpt><trkpt lat="46.4549617" lon="12.4057433"><ele>755.0</ele><time>2026-04-17T11:16:42.523Z</time></trkpt><trkpt lat="46.454855" lon="12.4055867"><ele>756.3333333333333</ele><time>2026-04-17T11:16:43.521Z</time></trkpt><trkpt lat="46.4547367" lon="12.40545"><ele>757.6666666666666</ele><time>2026-04-17T11:16:44.521Z</time></trkpt><trkpt lat="46.454605" lon="12.4053283"><ele>759.0</ele><time>2026-04-17T11:16:45.522Z</time></trkpt><trkpt lat="46.454465" lon="12.405215"><ele>759.3333333333334</ele><time>2026-04-17T11:16:46.523Z</time></trkpt><trkpt lat="46.4543217" lon="12.4051133"><ele>759.6666666666667</ele><time>2026-04-17T11:16:47.524Z</time></trkpt><trkpt lat="46.454185" lon="12.4050167"><ele>760.0</ele><time>2026-04-17T11:16:48.524Z</time></trkpt><trkpt lat="46.4540583" lon="12.4049233"><ele>760.0</ele><time>2026-04-17T11:16:49.521Z</time></trkpt><trkpt lat="46.4539367" lon="12.4048283"><ele>760.0</ele><time>2026-04-17T11:16:50.524Z</time></trkpt><trkpt lat="46.4538183" lon="12.4047233"><ele>760.0</ele><time>2026-04-17T11:16:51.522Z</time></trkpt><trkpt lat="46.453705" lon="12.4046"><ele>760.0</ele><time>2026-04-17T11:16:52.521Z</time></trkpt><trkpt lat="46.453595" lon="12.4044617"><ele>760.0</ele><time>2026-04-17T11:16:53.522Z</time></trkpt><trkpt lat="46.4534917" lon="12.4043183"><ele>760.0</ele><time>2026-04-17T11:16:54.525Z</time></trkpt><trkpt lat="46.4534033" lon="12.4041733"><ele>760.0</ele><time>2026-04-17T11:16:55.522Z</time></trkpt><trkpt lat="46.4533283" lon="12.404025"><ele>760.0</ele><time>2026-04-17T11:16:56.523Z</time></trkpt><trkpt lat="46.4532733" lon="12.4038633"><ele>760.25</ele><time>2026-04-17T11:16:57.521Z</time></trkpt><trkpt lat="46.4532317" lon="12.4036867"><ele>760.5</ele><time>2026-04-17T11:16:58.524Z</time></trkpt><trkpt lat="46.4532017" lon="12.4034983"><ele>760.75</ele><time>2026-04-17T11:16:59.522Z</time></trkpt><trkpt lat="46.4531817" lon="12.4033033"><ele>761.0</ele><time>2026-04-17T11:17:00.523Z</time></trkpt><trkpt lat="46.4531717" lon="12.4031083"><ele>760.0</ele><time>2026-04-17T11:17:01.522Z</time></trkpt><trkpt lat="46.453175" lon="12.40292"><ele>759.0</ele><time>2026-04-17T11:17:02.522Z</time></trkpt><trkpt lat="46.45319" lon="12.402735"><ele>758.0</ele><time>2026-04-17T11:17:03.523Z</time></trkpt><trkpt lat="46.453215" lon="12.4025467"><ele>757.0</ele><time>2026-04-17T11:17:04.524Z</time></trkpt><trkpt lat="46.45325" lon="12.4023533"><ele>755.75</ele><time>2026-04-17T11:17:05.522Z</time></trkpt><trkpt lat="46.4532833" lon="12.4021533"><ele>754.5</ele><time>2026-04-17T11:17:06.521Z</time></trkpt><trkpt lat="46.4533067" lon="12.4019417"><ele>753.25</ele><time>2026-04-17T11:17:07.522Z</time></trkpt><trkpt lat="46.453275" lon="12.4017367"><ele>752.0</ele><time>2026-04-17T11:17:08.523Z</time></trkpt><trkpt lat="46.45326" lon="12.4015317"><ele>752.0</ele><time>2026-04-17T11:17:09.523Z</time></trkpt><trkpt lat="46.4532367" lon="12.4013367"><ele>752.0</ele><time>2026-04-17T11:17:10.521Z</time></trkpt><trkpt lat="46.453215" lon="12.4011567"><ele>752.0</ele><time>2026-04-17T11:17:11.522Z</time></trkpt><trkpt lat="46.4532017" lon="12.40099"><ele>752.0</ele><time>2026-04-17T11:17:12.521Z</time></trkpt><trkpt lat="46.4532017" lon="12.4008267"><ele>752.6</ele><time>2026-04-17T11:17:13.522Z</time></trkpt><trkpt lat="46.4532083" lon="12.400665"><ele>753.2</ele><time>2026-04-17T11:17:14.523Z</time></trkpt><trkpt lat="46.4532183" lon="12.4005067"><ele>753.8</ele><time>2026-04-17T11:17:15.523Z</time></trkpt><trkpt lat="46.4532283" lon="12.4003483"><ele>754.4</ele><time>2026-04-17T11:17:16.523Z</time></trkpt><trkpt lat="46.4532267" lon="12.4002"><ele>755.0</ele><time>2026-04-17T11:17:17.522Z</time></trkpt><trkpt lat="46.45322" lon="12.4000517"><ele>755.0</ele><time>2026-04-17T11:17:18.524Z</time></trkpt><trkpt lat="46.4532067" lon="12.3999083"><ele>755.0</ele><time>2026-04-17T11:17:19.522Z</time></trkpt><trkpt lat="46.45318" lon="12.3997667"><ele>755.0</ele><time>2026-04-17T11:17:20.524Z</time></trkpt><trkpt lat="46.4531383" lon="12.39963"><ele>755.0</ele><time>2026-04-17T11:17:21.521Z</time></trkpt><trkpt lat="46.453085" lon="12.3995067"><ele>755.0</ele><time>2026-04-17T11:17:22.522Z</time></trkpt><trkpt lat="46.45303" lon="12.3993767"><ele>754.6</ele><time>2026-04-17T11:17:23.523Z</time></trkpt><trkpt lat="46.45297" lon="12.3992517"><ele>754.2</ele><time>2026-04-17T11:17:24.522Z</time></trkpt><trkpt lat="46.4529067" lon="12.3991417"><ele>753.8</ele><time>2026-04-17T11:17:25.522Z</time></trkpt><trkpt lat="46.452835" lon="12.39905"><ele>753.4</ele><time>2026-04-17T11:17:26.523Z</time></trkpt><trkpt lat="46.4527633" lon="12.3989733"><ele>753.0</ele><time>2026-04-17T11:17:27.521Z</time></trkpt><trkpt lat="46.4526917" lon="12.3989233"><ele>751.5</ele><time>2026-04-17T11:17:28.522Z</time></trkpt><trkpt lat="46.45262" lon="12.398895"><ele>750.0</ele><time>2026-04-17T11:17:29.521Z</time></trkpt><trkpt lat="46.45255" lon="12.39891"><ele>748.5</ele><time>2026-04-17T11:17:30.524Z</time></trkpt><trkpt lat="46.45249" lon="12.3989667"><ele>747.0</ele><time>2026-04-17T11:17:31.523Z</time></trkpt><trkpt lat="46.452425" lon="12.3990267"><ele>745.5</ele><time>2026-04-17T11:17:32.524Z</time></trkpt><trkpt lat="46.45236" lon="12.3991"><ele>744.0</ele><time>2026-04-17T11:17:33.522Z</time></trkpt><trkpt lat="46.4522833" lon="12.3991633"><ele>744.0</ele><time>2026-04-17T11:17:34.52Z</time></trkpt><trkpt lat="46.452185" lon="12.3991933"><ele>744.0</ele><time>2026-04-17T11:17:35.523Z</time></trkpt><trkpt lat="46.4520767" lon="12.3992183"><ele>744.0</ele><time>2026-04-17T11:17:36.522Z</time></trkpt><trkpt lat="46.4519633" lon="12.39921"><ele>744.0</ele><time>2026-04-17T11:17:37.522Z</time></trkpt><trkpt lat="46.451865" lon="12.3991467"><ele>744.0</ele><time>2026-04-17T11:17:38.523Z</time></trkpt><trkpt lat="46.45177" lon="12.39906"><ele>742.75</ele><time>2026-04-17T11:17:39.523Z</time></trkpt><trkpt lat="46.4516583" lon="12.3989983"><ele>741.5</ele><time>2026-04-17T11:17:40.522Z</time></trkpt><trkpt lat="46.4515567" lon="12.3989183"><ele>740.25</ele><time>2026-04-17T11:17:41.522Z</time></trkpt><trkpt lat="46.451445" lon="12.3988383"><ele>739.0</ele><time>2026-04-17T11:17:42.522Z</time></trkpt><trkpt lat="46.451345" lon="12.3987333"><ele>737.75</ele><time>2026-04-17T11:17:43.522Z</time></trkpt><trkpt lat="46.451265" lon="12.3985917"><ele>736.5</ele><time>2026-04-17T11:17:44.524Z</time></trkpt><trkpt lat="46.4511917" lon="12.3984383"><ele>735.25</ele><time>2026-04-17T11:17:45.521Z</time></trkpt><trkpt lat="46.4511217" lon="12.3982833"><ele>734.0</ele><time>2026-04-17T11:17:46.523Z</time></trkpt><trkpt lat="46.4510517" lon="12.398135"><ele>737.75</ele><time>2026-04-17T11:17:47.523Z</time></trkpt><trkpt lat="46.4509683" lon="12.398"><ele>741.5</ele><time>2026-04-17T11:17:48.523Z</time></trkpt><trkpt lat="46.4508633" lon="12.3978833"><ele>745.25</ele><time>2026-04-17T11:17:49.522Z</time></trkpt><trkpt lat="46.4507567" lon="12.397775"><ele>749.0</ele><time>2026-04-17T11:17:50.522Z</time></trkpt><trkpt lat="46.4506433" lon="12.39768"><ele>749.0</ele><time>2026-04-17T11:17:51.521Z</time></trkpt><trkpt lat="46.4505217" lon="12.3976"><ele>749.0</ele><time>2026-04-17T11:17:52.523Z</time></trkpt><trkpt lat="46.4503967" lon="12.397535"><ele>749.0</ele><time>2026-04-17T11:17:53.521Z</time></trkpt><trkpt lat="46.45027" lon="12.3974717"><ele>749.0</ele><time>2026-04-17T11:17:54.521Z</time></trkpt><trkpt lat="46.4501467" lon="12.3974067"><ele>750.5</ele><time>2026-04-17T11:17:55.523Z</time></trkpt><trkpt lat="46.45002" lon="12.3973367"><ele>752.0</ele><time>2026-04-17T11:17:56.521Z</time></trkpt><trkpt lat="46.4499" lon="12.3972567"><ele>753.5</ele><time>2026-04-17T11:17:57.521Z</time></trkpt><trkpt lat="46.449785" lon="12.3971683"><ele>755.0</ele><time>2026-04-17T11:17:58.523Z</time></trkpt><trkpt lat="46.4496733" lon="12.3970817"><ele>752.75</ele><time>2026-04-17T11:17:59.523Z</time></trkpt><trkpt lat="46.449565" lon="12.3969933"><ele>750.5</ele><time>2026-04-17T11:18:00.522Z</time></trkpt><trkpt lat="46.4494617" lon="12.39691"><ele>748.25</ele><time>2026-04-17T11:18:01.521Z</time></trkpt><trkpt lat="46.4493617" lon="12.3968233"><ele>746.0</ele><time>2026-04-17T11:18:02.522Z</time></trkpt><trkpt lat="46.44927" lon="12.396725"><ele>746.0</ele><time>2026-04-17T11:18:03.521Z</time></trkpt><trkpt lat="46.4491883" lon="12.3966083"><ele>746.0</ele><time>2026-04-17T11:18:04.522Z</time></trkpt><trkpt lat="46.4491167" lon="12.3964767"><ele>746.0</ele><time>2026-04-17T11:18:05.52Z</time></trkpt><trkpt lat="46.449055" lon="12.3963317"><ele>746.0</ele><time>2026-04-17T11:18:06.522Z</time></trkpt><trkpt lat="46.4490067" lon="12.3961917"><ele>747.0</ele><time>2026-04-17T11:18:07.522Z</time></trkpt><trkpt lat="46.4489733" lon="12.3960683"><ele>748.0</ele><time>2026-04-17T11:18:08.524Z</time></trkpt><trkpt lat="46.4489483" lon="12.3959533"><ele>749.0</ele><time>2026-04-17T11:18:09.522Z</time></trkpt><trkpt lat="46.4489267" lon="12.39584"><ele>750.0</ele><time>2026-04-17T11:18:10.522Z</time></trkpt><trkpt lat="46.448905" lon="12.3957117"><ele>751.0</ele><time>2026-04-17T11:18:11.524Z</time></trkpt><trkpt lat="46.4488817" lon="12.3955733"><ele>752.0</ele><time>2026-04-17T11:18:12.524Z</time></trkpt><trkpt lat="46.4488467" lon="12.395425"><ele>754.0</ele><time>2026-04-17T11:18:13.522Z</time></trkpt><trkpt lat="46.4488183" lon="12.3952683"><ele>756.0</ele><time>2026-04-17T11:18:14.523Z</time></trkpt><trkpt lat="46.4487933" lon="12.395105"><ele>758.0</ele><time>2026-04-17T11:18:15.524Z</time></trkpt><trkpt lat="46.4487717" lon="12.3949317"><ele>760.0</ele><time>2026-04-17T11:18:16.523Z</time></trkpt><trkpt lat="46.4487233" lon="12.3947667"><ele>757.0</ele><time>2026-04-17T11:18:17.522Z</time></trkpt><trkpt lat="46.44869" lon="12.3945933"><ele>754.0</ele><time>2026-04-17T11:18:18.522Z</time></trkpt><trkpt lat="46.4486533" lon="12.39442"><ele>751.0</ele><time>2026-04-17T11:18:19.522Z</time></trkpt><trkpt lat="46.448635" lon="12.3942333"><ele>748.0</ele><time>2026-04-17T11:18:20.524Z</time></trkpt><trkpt lat="46.44858" lon="12.3940533"><ele>748.0</ele><time>2026-04-17T11:18:21.521Z</time></trkpt><trkpt lat="46.448545" lon="12.3938617"><ele>748.0</ele><time>2026-04-17T11:18:22.521Z</time></trkpt><trkpt lat="46.4485083" lon="12.3936667"><ele>748.0</ele><time>2026-04-17T11:18:23.522Z</time></trkpt><trkpt lat="46.4484717" lon="12.393475"><ele>748.0</ele><time>2026-04-17T11:18:24.523Z</time></trkpt><trkpt lat="46.4484367" lon="12.3932867"><ele>749.0</ele><time>2026-04-17T11:18:25.522Z</time></trkpt><trkpt lat="46.4484017" lon="12.3930983"><ele>750.0</ele><time>2026-04-17T11:18:26.522Z</time></trkpt><trkpt lat="46.4483683" lon="12.3929067"><ele>751.0</ele><time>2026-04-17T11:18:27.522Z</time></trkpt><trkpt lat="46.4483317" lon="12.3927117"><ele>752.0</ele><time>2026-04-17T11:18:28.521Z</time></trkpt><trkpt lat="46.448295" lon="12.39251"><ele>753.25</ele><time>2026-04-17T11:18:29.523Z</time></trkpt><trkpt lat="46.4482533" lon="12.3923033"><ele>754.5</ele><time>2026-04-17T11:18:30.524Z</time></trkpt><trkpt lat="46.4482117" lon="12.3920933"><ele>755.75</ele><time>2026-04-17T11:18:31.521Z</time></trkpt><trkpt lat="46.448165" lon="12.3918867"><ele>757.0</ele><time>2026-04-17T11:18:32.522Z</time></trkpt><trkpt lat="46.4481283" lon="12.3916883"><ele>757.75</ele><time>2026-04-17T11:18:33.521Z</time></trkpt><trkpt lat="46.4481083" lon="12.3914933"><ele>758.5</ele><time>2026-04-17T11:18:34.52Z</time></trkpt><trkpt lat="46.4481167" lon="12.3912883"><ele>759.25</ele><time>2026-04-17T11:18:35.522Z</time></trkpt><trkpt lat="46.4481467" lon="12.391075"><ele>760.0</ele><time>2026-04-17T11:18:36.522Z</time></trkpt><trkpt lat="46.44818" lon="12.3908583"><ele>760.3333333333334</ele><time>2026-04-17T11:18:37.522Z</time></trkpt><trkpt lat="46.4482117" lon="12.390635"><ele>760.6666666666666</ele><time>2026-04-17T11:18:38.525Z</time></trkpt><trkpt lat="46.44824" lon="12.390405"><ele>761.0</ele><time>2026-04-17T11:18:39.521Z</time></trkpt><trkpt lat="46.4482683" lon="12.390175"><ele>759.0</ele><time>2026-04-17T11:18:40.522Z</time></trkpt><trkpt lat="46.4482967" lon="12.3899583"><ele>757.0</ele><time>2026-04-17T11:18:41.522Z</time></trkpt><trkpt lat="46.4483317" lon="12.38975"><ele>755.0</ele><time>2026-04-17T11:18:42.522Z</time></trkpt><trkpt lat="46.4483817" lon="12.3895617"><ele>753.0</ele><time>2026-04-17T11:18:43.521Z</time></trkpt><trkpt lat="46.44845" lon="12.3893867"><ele>750.5</ele><time>2026-04-17T11:18:44.523Z</time></trkpt><trkpt lat="46.4485417" lon="12.3892267"><ele>748.0</ele><time>2026-04-17T11:18:45.521Z</time></trkpt><trkpt lat="46.44866" lon="12.389095"><ele>745.5</ele><time>2026-04-17T11:18:46.522Z</time></trkpt><trkpt lat="46.4487917" lon="12.3889867"><ele>743.0</ele><time>2026-04-17T11:18:47.522Z</time></trkpt><trkpt lat="46.44891" lon="12.3888667"><ele>745.0</ele><time>2026-04-17T11:18:48.522Z</time></trkpt><trkpt lat="46.4489983" lon="12.3887233"><ele>747.0</ele><time>2026-04-17T11:18:49.521Z</time></trkpt><trkpt lat="46.4490567" lon="12.3885583"><ele>749.0</ele><time>2026-04-17T11:18:50.523Z</time></trkpt><trkpt lat="46.4490833" lon="12.3883967"><ele>751.0</ele><time>2026-04-17T11:18:51.522Z</time></trkpt><trkpt lat="46.449075" lon="12.388225"><ele>751.0</ele><time>2026-04-17T11:18:52.521Z</time></trkpt><trkpt lat="46.449035" lon="12.3880617"><ele>751.0</ele><time>2026-04-17T11:18:53.522Z</time></trkpt><trkpt lat="46.44897" lon="12.3879067"><ele>751.0</ele><time>2026-04-17T11:18:54.523Z</time></trkpt><trkpt lat="46.4488867" lon="12.387765"><ele>751.0</ele><time>2026-04-17T11:18:55.524Z</time></trkpt><trkpt lat="46.44879" lon="12.3876483"><ele>750.4</ele><time>2026-04-17T11:18:56.522Z</time></trkpt><trkpt lat="46.4486767" lon="12.3875617"><ele>749.8</ele><time>2026-04-17T11:18:57.522Z</time></trkpt><trkpt lat="46.4485667" lon="12.3875017"><ele>749.1999999999999</ele><time>2026-04-17T11:18:58.522Z</time></trkpt><trkpt lat="46.448465" lon="12.38747"><ele>748.5999999999999</ele><time>2026-04-17T11:18:59.521Z</time></trkpt><trkpt lat="46.4483667" lon="12.3874817"><ele>748.0</ele><time>2026-04-17T11:19:00.52Z</time></trkpt><trkpt lat="46.4482633" lon="12.3875283"><ele>748.0</ele><time>2026-04-17T11:19:01.522Z</time></trkpt><trkpt lat="46.4481517" lon="12.3875867"><ele>748.0</ele><time>2026-04-17T11:19:02.522Z</time></trkpt><trkpt lat="46.4480267" lon="12.3876333"><ele>748.0</ele><time>2026-04-17T11:19:03.522Z</time></trkpt><trkpt lat="46.4478983" lon="12.3876633"><ele>748.0</ele><time>2026-04-17T11:19:04.522Z</time></trkpt><trkpt lat="46.44777" lon="12.3876817"><ele>750.5</ele><time>2026-04-17T11:19:05.521Z</time></trkpt><trkpt lat="46.4476483" lon="12.387695"><ele>753.0</ele><time>2026-04-17T11:19:06.521Z</time></trkpt><trkpt lat="46.44753" lon="12.3877017"><ele>755.5</ele><time>2026-04-17T11:19:07.521Z</time></trkpt><trkpt lat="46.4474183" lon="12.3877083"><ele>758.0</ele><time>2026-04-17T11:19:08.522Z</time></trkpt><trkpt lat="46.4473033" lon="12.3877133"><ele>758.0</ele><time>2026-04-17T11:19:09.523Z</time></trkpt><trkpt lat="46.447185" lon="12.38771"><ele>758.0</ele><time>2026-04-17T11:19:10.522Z</time></trkpt><trkpt lat="46.4470633" lon="12.387695"><ele>758.0</ele><time>2026-04-17T11:19:11.522Z</time></trkpt><trkpt lat="46.4469383" lon="12.3876733"><ele>758.0</ele><time>2026-04-17T11:19:12.522Z</time></trkpt><trkpt lat="46.4468167" lon="12.3876333"><ele>757.25</ele><time>2026-04-17T11:19:13.522Z</time></trkpt><trkpt lat="46.4466983" lon="12.3875733"><ele>756.5</ele><time>2026-04-17T11:19:14.522Z</time></trkpt><trkpt lat="46.446585" lon="12.3874883"><ele>755.75</ele><time>2026-04-17T11:19:15.522Z</time></trkpt><trkpt lat="46.4464883" lon="12.3873733"><ele>755.0</ele><time>2026-04-17T11:19:16.523Z</time></trkpt><trkpt lat="46.4464133" lon="12.3872283"><ele>755.5</ele><time>2026-04-17T11:19:17.523Z</time></trkpt><trkpt lat="46.44634" lon="12.3870583"><ele>756.0</ele><time>2026-04-17T11:19:18.523Z</time></trkpt><trkpt lat="46.4462583" lon="12.3868867"><ele>756.5</ele><time>2026-04-17T11:19:19.523Z</time></trkpt><trkpt lat="46.4461733" lon="12.38671"><ele>757.0</ele><time>2026-04-17T11:19:20.521Z</time></trkpt><trkpt lat="46.4460933" lon="12.3865383"><ele>757.0</ele><time>2026-04-17T11:19:21.523Z</time></trkpt><trkpt lat="46.4460033" lon="12.386385"><ele>757.0</ele><time>2026-04-17T11:19:22.521Z</time></trkpt><trkpt lat="46.4458967" lon="12.3862533"><ele>757.0</ele><time>2026-04-17T11:19:23.523Z</time></trkpt><trkpt lat="46.4457717" lon="12.3861467"><ele>757.0</ele><time>2026-04-17T11:19:24.523Z</time></trkpt><trkpt lat="46.4456267" lon="12.3860717"><ele>759.6666666666667</ele><time>2026-04-17T11:19:25.522Z</time></trkpt><trkpt lat="46.445465" lon="12.3860267"><ele>762.3333333333334</ele><time>2026-04-17T11:19:26.524Z</time></trkpt><trkpt lat="46.4453017" lon="12.3859817"><ele>765.0</ele><time>2026-04-17T11:19:27.523Z</time></trkpt><trkpt lat="46.445135" lon="12.3859283"><ele>765.0</ele><time>2026-04-17T11:19:28.522Z</time></trkpt><trkpt lat="46.4449667" lon="12.385865"><ele>765.0</ele><time>2026-04-17T11:19:29.522Z</time></trkpt><trkpt lat="46.4448033" lon="12.3857717"><ele>765.0</ele><time>2026-04-17T11:19:30.521Z</time></trkpt><trkpt lat="46.44465" lon="12.3856633"><ele>766.3333333333333</ele><time>2026-04-17T11:19:31.523Z</time></trkpt><trkpt lat="46.4445067" lon="12.3855533"><ele>767.6666666666666</ele><time>2026-04-17T11:19:32.522Z</time></trkpt><trkpt lat="46.4443667" lon="12.385445"><ele>769.0</ele><time>2026-04-17T11:19:33.523Z</time></trkpt><trkpt lat="46.44423" lon="12.385325"><ele>769.3333333333333</ele><time>2026-04-17T11:19:34.521Z</time></trkpt><trkpt lat="46.4440983" lon="12.38518"><ele>769.6666666666667</ele><time>2026-04-17T11:19:35.522Z</time></trkpt><trkpt lat="46.4439733" lon="12.38501"><ele>770.0</ele><time>2026-04-17T11:19:36.524Z</time></trkpt><trkpt lat="46.4438533" lon="12.3848233"><ele>771.0</ele><time>2026-04-17T11:19:37.522Z</time></trkpt><trkpt lat="46.44373" lon="12.38463"><ele>772.0</ele><time>2026-04-17T11:19:38.522Z</time></trkpt><trkpt lat="46.4436017" lon="12.3844317"><ele>773.0</ele><time>2026-04-17T11:19:39.522Z</time></trkpt><trkpt lat="46.44347" lon="12.38423"><ele>773.0</ele><time>2026-04-17T11:19:40.523Z</time></trkpt><trkpt lat="46.4433383" lon="12.3840267"><ele>773.0</ele><time>2026-04-17T11:19:41.522Z</time></trkpt><trkpt lat="46.4432067" lon="12.383825"><ele>773.0</ele><time>2026-04-17T11:19:42.522Z</time></trkpt><trkpt lat="46.443075" lon="12.3836133"><ele>772.6666666666667</ele><time>2026-04-17T11:19:43.523Z</time></trkpt><trkpt lat="46.442945" lon="12.383395"><ele>772.3333333333333</ele><time>2026-04-17T11:19:44.523Z</time></trkpt><trkpt lat="46.442825" lon="12.383165"><ele>772.0</ele><time>2026-04-17T11:19:45.524Z</time></trkpt><trkpt lat="46.44272" lon="12.38293"><ele>773.0</ele><time>2026-04-17T11:19:46.521Z</time></trkpt><trkpt lat="46.442625" lon="12.3826867"><ele>774.0</ele><time>2026-04-17T11:19:47.524Z</time></trkpt><trkpt lat="46.4425283" lon="12.382445"><ele>775.0</ele><time>2026-04-17T11:19:48.523Z</time></trkpt><trkpt lat="46.4424217" lon="12.3822117"><ele>776.3333333333333</ele><time>2026-04-17T11:19:49.524Z</time></trkpt><trkpt lat="46.4423033" lon="12.3819967"><ele>777.6666666666667</ele><time>2026-04-17T11:19:50.522Z</time></trkpt><trkpt lat="46.442175" lon="12.3818067"><ele>779.0</ele><time>2026-04-17T11:19:51.523Z</time></trkpt><trkpt lat="46.4420383" lon="12.3816333"><ele>779.0</ele><time>2026-04-17T11:19:52.522Z</time></trkpt><trkpt lat="46.441895" lon="12.3814667"><ele>779.0</ele><time>2026-04-17T11:19:53.524Z</time></trkpt><trkpt lat="46.4417633" lon="12.3813033"><ele>779.0</ele><time>2026-04-17T11:19:54.522Z</time></trkpt><trkpt lat="46.4416383" lon="12.3811583"><ele>780.0</ele><time>2026-04-17T11:19:55.522Z</time></trkpt><trkpt lat="46.4415167" lon="12.3810333"><ele>781.0</ele><time>2026-04-17T11:19:56.522Z</time></trkpt><trkpt lat="46.4413917" lon="12.38093"><ele>782.0</ele><time>2026-04-17T11:19:57.524Z</time></trkpt><trkpt lat="46.4412583" lon="12.3808417"><ele>783.0</ele><time>2026-04-17T11:19:58.521Z</time></trkpt><trkpt lat="46.441115" lon="12.3807617"><ele>783.0</ele><time>2026-04-17T11:19:59.523Z</time></trkpt><trkpt lat="46.440965" lon="12.380685"><ele>783.0</ele><time>2026-04-17T11:20:00.524Z</time></trkpt><trkpt lat="46.4408117" lon="12.380605"><ele>783.0</ele><time>2026-04-17T11:20:01.523Z</time></trkpt><trkpt lat="46.440655" lon="12.380525"><ele>789.3333333333333</ele><time>2026-04-17T11:20:02.522Z</time></trkpt><trkpt lat="46.4405" lon="12.380445"><ele>795.6666666666666</ele><time>2026-04-17T11:20:03.521Z</time></trkpt><trkpt lat="46.44034" lon="12.3803617"><ele>802.0</ele><time>2026-04-17T11:20:04.521Z</time></trkpt><trkpt lat="46.44018" lon="12.3802783"><ele>802.0</ele><time>2026-04-17T11:20:05.521Z</time></trkpt><trkpt lat="46.4400183" lon="12.380195"><ele>802.0</ele><time>2026-04-17T11:20:06.527Z</time></trkpt><trkpt lat="46.439845" lon="12.38011"><ele>802.0</ele><time>2026-04-17T11:20:07.521Z</time></trkpt><trkpt lat="46.43966" lon="12.3800383"><ele>804.0</ele><time>2026-04-17T11:20:08.52Z</time></trkpt><trkpt lat="46.4394767" lon="12.3800167"><ele>806.0</ele><time>2026-04-17T11:20:09.521Z</time></trkpt><trkpt lat="46.4392833" lon="12.3800367"><ele>808.0</ele><time>2026-04-17T11:20:10.522Z</time></trkpt><trkpt lat="46.4390883" lon="12.38007"><ele>808.0</ele><time>2026-04-17T11:20:11.521Z</time></trkpt><trkpt lat="46.4388867" lon="12.3801067"><ele>808.0</ele><time>2026-04-17T11:20:12.526Z</time></trkpt><trkpt lat="46.438685" lon="12.3801383"><ele>808.0</ele><time>2026-04-17T11:20:13.522Z</time></trkpt><trkpt lat="46.4384917" lon="12.3801533"><ele>809.0</ele><time>2026-04-17T11:20:14.524Z</time></trkpt><trkpt lat="46.4383" lon="12.3801467"><ele>810.0</ele><time>2026-04-17T11:20:15.519Z</time></trkpt><trkpt lat="46.4381283" lon="12.3801233"><ele>811.0</ele><time>2026-04-17T11:20:16.521Z</time></trkpt><trkpt lat="46.4379717" lon="12.3800883"><ele>811.25</ele><time>2026-04-17T11:20:17.521Z</time></trkpt><trkpt lat="46.4378333" lon="12.3800383"><ele>811.5</ele><time>2026-04-17T11:20:18.522Z</time></trkpt><trkpt lat="46.4377017" lon="12.3799833"><ele>811.75</ele><time>2026-04-17T11:20:19.521Z</time></trkpt><trkpt lat="46.4375717" lon="12.37993"><ele>812.0</ele><time>2026-04-17T11:20:20.521Z</time></trkpt><trkpt lat="46.4374417" lon="12.3798767"><ele>812.0</ele><time>2026-04-17T11:20:21.523Z</time></trkpt><trkpt lat="46.4373133" lon="12.3798233"><ele>812.0</ele><time>2026-04-17T11:20:22.522Z</time></trkpt><trkpt lat="46.437195" lon="12.379775"><ele>812.0</ele><time>2026-04-17T11:20:23.522Z</time></trkpt><trkpt lat="46.4370917" lon="12.3797383"><ele>812.0</ele><time>2026-04-17T11:20:24.522Z</time></trkpt><trkpt lat="46.4369967" lon="12.37971"><ele>811.4000000000001</ele><time>2026-04-17T11:20:25.524Z</time></trkpt><trkpt lat="46.436925" lon="12.3796867"><ele>810.8000000000001</ele><time>2026-04-17T11:20:26.526Z</time></trkpt><trkpt lat="46.4368317" lon="12.37966"><ele>810.2</ele><time>2026-04-17T11:20:28.522Z</time></trkpt><trkpt lat="46.436745" lon="12.379635"><ele>809.6</ele><time>2026-04-17T11:20:30.521Z</time></trkpt><trkpt lat="46.4366283" lon="12.3795767"><ele>809.0</ele><time>2026-04-17T11:20:32.522Z</time></trkpt><trkpt lat="46.436565" lon="12.3795283"><ele>808.6666666666667</ele><time>2026-04-17T11:20:33.522Z</time></trkpt><trkpt lat="46.436505" lon="12.37947"><ele>808.3333333333334</ele><time>2026-04-17T11:20:34.518Z</time></trkpt><trkpt lat="46.436445" lon="12.3793917"><ele>808.0</ele><time>2026-04-17T11:20:35.522Z</time></trkpt><trkpt lat="46.4363867" lon="12.379305"><ele>807.6666666666667</ele><time>2026-04-17T11:20:36.525Z</time></trkpt><trkpt lat="46.4363367" lon="12.379215"><ele>807.3333333333334</ele><time>2026-04-17T11:20:37.522Z</time></trkpt><trkpt lat="46.4363" lon="12.3791267"><ele>807.0</ele><time>2026-04-17T11:20:38.522Z</time></trkpt><trkpt lat="46.4362717" lon="12.379045"><ele>807.0</ele><time>2026-04-17T11:20:39.521Z</time></trkpt><trkpt lat="46.4361733" lon="12.37893"><ele>807.0</ele><time>2026-04-17T11:20:41.521Z</time></trkpt><trkpt lat="46.4360517" lon="12.3789317"><ele>807.0</ele><time>2026-04-17T11:20:42.523Z</time></trkpt><trkpt lat="46.4359733" lon="12.3788833"><ele>807.0</ele><time>2026-04-17T11:20:43.52Z</time></trkpt><trkpt lat="46.435875" lon="12.3788083"><ele>807.0</ele><time>2026-04-17T11:20:44.521Z</time></trkpt><trkpt lat="46.4357683" lon="12.3787033"><ele>810.0</ele><time>2026-04-17T11:20:45.521Z</time></trkpt><trkpt lat="46.43565" lon="12.3785983"><ele>813.0</ele><time>2026-04-17T11:20:46.52Z</time></trkpt><trkpt lat="46.4355183" lon="12.3785133"><ele>816.0</ele><time>2026-04-17T11:20:47.521Z</time></trkpt><trkpt lat="46.435385" lon="12.3784517"><ele>819.0</ele><time>2026-04-17T11:20:48.521Z</time></trkpt><trkpt lat="46.435245" lon="12.3784217"><ele>821.6666666666667</ele><time>2026-04-17T11:20:49.521Z</time></trkpt><trkpt lat="46.435105" lon="12.3784233"><ele>824.3333333333334</ele><time>2026-04-17T11:20:50.521Z</time></trkpt><trkpt lat="46.4349533" lon="12.3784517"><ele>827.0</ele><time>2026-04-17T11:20:51.52Z</time></trkpt><trkpt lat="46.4347967" lon="12.3785167"><ele>830.0</ele><time>2026-04-17T11:20:52.519Z</time></trkpt><trkpt lat="46.4346367" lon="12.3786017"><ele>833.0</ele><time>2026-04-17T11:20:53.523Z</time></trkpt><trkpt lat="46.4344767" lon="12.3787217"><ele>836.0</ele><time>2026-04-17T11:20:54.522Z</time></trkpt><trkpt lat="46.4343217" lon="12.3788417"><ele>828.6666666666667</ele><time>2026-04-17T11:20:55.521Z</time></trkpt><trkpt lat="46.4341683" lon="12.3789617"><ele>821.3333333333333</ele><time>2026-04-17T11:20:56.523Z</time></trkpt><trkpt lat="46.43401" lon="12.3790783"><ele>814.0</ele><time>2026-04-17T11:20:57.522Z</time></trkpt><trkpt lat="46.433845" lon="12.3791917"><ele>819.0</ele><time>2026-04-17T11:20:58.523Z</time></trkpt><trkpt lat="46.43367" lon="12.3792983"><ele>824.0</ele><time>2026-04-17T11:20:59.52Z</time></trkpt><trkpt lat="46.4334867" lon="12.3793933"><ele>829.0</ele><time>2026-04-17T11:21:00.522Z</time></trkpt><trkpt lat="46.4332917" lon="12.3794767"><ele>829.0</ele><time>2026-04-17T11:21:01.522Z</time></trkpt><trkpt lat="46.4330883" lon="12.37955"><ele>829.0</ele><time>2026-04-17T11:21:02.524Z</time></trkpt><trkpt lat="46.4328817" lon="12.379605"><ele>829.0</ele><time>2026-04-17T11:21:03.522Z</time></trkpt><trkpt lat="46.4326733" lon="12.3796517"><ele>833.0</ele><time>2026-04-17T11:21:04.525Z</time></trkpt><trkpt lat="46.4324667" lon="12.3796833"><ele>837.0</ele><time>2026-04-17T11:21:05.525Z</time></trkpt><trkpt lat="46.4322533" lon="12.3796983"><ele>841.0</ele><time>2026-04-17T11:21:06.522Z</time></trkpt><trkpt lat="46.4320333" lon="12.3796983"><ele>843.0</ele><time>2026-04-17T11:21:07.522Z</time></trkpt><trkpt lat="46.43181" lon="12.3796833"><ele>845.0</ele><time>2026-04-17T11:21:08.523Z</time></trkpt><trkpt lat="46.4315817" lon="12.3796517"><ele>845.0</ele><time>2026-04-17T11:21:09.522Z</time></trkpt><trkpt lat="46.4313517" lon="12.3796067"><ele>845.0</ele><time>2026-04-17T11:21:10.521Z</time></trkpt><trkpt lat="46.4311167" lon="12.37955"><ele>838.0</ele><time>2026-04-17T11:21:11.522Z</time></trkpt><trkpt lat="46.4308883" lon="12.3794933"><ele>831.0</ele><time>2026-04-17T11:21:12.521Z</time></trkpt><trkpt lat="46.4306683" lon="12.3794417"><ele>832.0</ele><time>2026-04-17T11:21:13.522Z</time></trkpt><trkpt lat="46.4304567" lon="12.3793733"><ele>833.0</ele><time>2026-04-17T11:21:14.522Z</time></trkpt><trkpt lat="46.4302483" lon="12.3793017"><ele>834.0</ele><time>2026-04-17T11:21:15.522Z</time></trkpt><trkpt lat="46.4300433" lon="12.3792167"><ele>834.0</ele><time>2026-04-17T11:21:16.522Z</time></trkpt><trkpt lat="46.4298283" lon="12.3791283"><ele>834.0</ele><time>2026-04-17T11:21:17.521Z</time></trkpt><trkpt lat="46.42961" lon="12.379045"><ele>834.0</ele><time>2026-04-17T11:21:18.525Z</time></trkpt><trkpt lat="46.4251461" lon="12.3700455"><ele>831.0</ele><time>2026-04-17T11:21:39.781Z</time></trkpt><trkpt lat="46.4249717" lon="12.3704217"><ele>828.0</ele><time>2026-04-17T11:21:53.519Z</time></trkpt><trkpt lat="46.4249567" lon="12.370135"><ele>828.0</ele><time>2026-04-17T11:21:54.52Z</time></trkpt><trkpt lat="46.4249433" lon="12.369835"><ele>828.0</ele><time>2026-04-17T11:21:55.521Z</time></trkpt><trkpt lat="46.4249283" lon="12.3695217"><ele>828.0</ele><time>2026-04-17T11:21:56.52Z</time></trkpt><trkpt lat="46.4249183" lon="12.3692"><ele>831.5</ele><time>2026-04-17T11:21:57.522Z</time></trkpt><trkpt lat="46.4249083" lon="12.36887"><ele>835.0</ele><time>2026-04-17T11:21:58.52Z</time></trkpt><trkpt lat="46.4250847" lon="12.3655108"><ele>835.0</ele><time>2026-04-17T11:22:09.254Z</time></trkpt><trkpt lat="46.42491" lon="12.3651183"><ele>835.0</ele><time>2026-04-17T11:22:13.522Z</time></trkpt><trkpt lat="46.4247917" lon="12.3649867"><ele>835.0</ele><time>2026-04-17T11:22:14.522Z</time></trkpt><trkpt lat="46.4246633" lon="12.3649"><ele>835.0</ele><time>2026-04-17T11:22:15.522Z</time></trkpt><trkpt lat="46.42453" lon="12.3648433"><ele>835.0</ele><time>2026-04-17T11:22:16.522Z</time></trkpt><trkpt lat="46.42439" lon="12.3648133"><ele>835.0</ele><time>2026-04-17T11:22:17.522Z</time></trkpt><trkpt lat="46.4242417" lon="12.3648083"><ele>831.0</ele><time>2026-04-17T11:22:18.521Z</time></trkpt><trkpt lat="46.4240917" lon="12.3648267"><ele>827.0</ele><time>2026-04-17T11:22:19.521Z</time></trkpt><trkpt lat="46.42394" lon="12.364865"><ele>823.0</ele><time>2026-04-17T11:22:20.522Z</time></trkpt><trkpt lat="46.423795" lon="12.3649117"><ele>822.25</ele><time>2026-04-17T11:22:21.521Z</time></trkpt><trkpt lat="46.4236617" lon="12.3649583"><ele>821.5</ele><time>2026-04-17T11:22:22.521Z</time></trkpt><trkpt lat="46.4235417" lon="12.3650017"><ele>820.75</ele><time>2026-04-17T11:22:23.522Z</time></trkpt><trkpt lat="46.4234333" lon="12.3650383"><ele>820.0</ele><time>2026-04-17T11:22:24.522Z</time></trkpt><trkpt lat="46.4233333" lon="12.3650717"><ele>820.0</ele><time>2026-04-17T11:22:25.524Z</time></trkpt><trkpt lat="46.4232467" lon="12.3651"><ele>820.0</ele><time>2026-04-17T11:22:26.523Z</time></trkpt><trkpt lat="46.423175" lon="12.3651233"><ele>820.0</ele><time>2026-04-17T11:22:27.523Z</time></trkpt><trkpt lat="46.4230817" lon="12.3651533"><ele>820.0</ele><time>2026-04-17T11:22:29.522Z</time></trkpt><trkpt lat="46.42298" lon="12.3651817"><ele>820.0</ele><time>2026-04-17T11:22:38.523Z</time></trkpt><trkpt lat="46.4228767" lon="12.365235"><ele>819.8</ele><time>2026-04-17T11:22:40.522Z</time></trkpt><trkpt lat="46.42276" lon="12.3653"><ele>819.6</ele><time>2026-04-17T11:22:42.522Z</time></trkpt><trkpt lat="46.4227083" lon="12.3653733"><ele>819.4000000000001</ele><time>2026-04-17T11:22:43.522Z</time></trkpt><trkpt lat="46.4226367" lon="12.36547"><ele>819.2</ele><time>2026-04-17T11:22:44.523Z</time></trkpt><trkpt lat="46.4225583" lon="12.3655833"><ele>819.0</ele><time>2026-04-17T11:22:45.522Z</time></trkpt><trkpt lat="46.42247" lon="12.3657183"><ele>819.0</ele><time>2026-04-17T11:22:46.522Z</time></trkpt><trkpt lat="46.4223717" lon="12.3658733"><ele>819.0</ele><time>2026-04-17T11:22:47.523Z</time></trkpt><trkpt lat="46.4222683" lon="12.366045"><ele>819.0</ele><time>2026-04-17T11:22:48.522Z</time></trkpt><trkpt lat="46.42216" lon="12.3662267"><ele>818.3333333333333</ele><time>2026-04-17T11:22:49.522Z</time></trkpt><trkpt lat="46.4220483" lon="12.366415"><ele>817.6666666666666</ele><time>2026-04-17T11:22:50.522Z</time></trkpt><trkpt lat="46.4219317" lon="12.366605"><ele>817.0</ele><time>2026-04-17T11:22:51.521Z</time></trkpt><trkpt lat="46.4218083" lon="12.366785"><ele>817.0</ele><time>2026-04-17T11:22:52.521Z</time></trkpt><trkpt lat="46.42167" lon="12.36694"><ele>817.0</ele><time>2026-04-17T11:22:53.521Z</time></trkpt><trkpt lat="46.421515" lon="12.3670717"><ele>817.0</ele><time>2026-04-17T11:22:54.522Z</time></trkpt><trkpt lat="46.4213533" lon="12.3671717"><ele>814.0</ele><time>2026-04-17T11:22:55.522Z</time></trkpt><trkpt lat="46.4211883" lon="12.3672233"><ele>811.0</ele><time>2026-04-17T11:22:56.522Z</time></trkpt><trkpt lat="46.42103" lon="12.3672267"><ele>808.0</ele><time>2026-04-17T11:22:57.521Z</time></trkpt><trkpt lat="46.4208817" lon="12.3671983"><ele>809.8</ele><time>2026-04-17T11:22:58.521Z</time></trkpt><trkpt lat="46.4207583" lon="12.36715"><ele>811.5999999999999</ele><time>2026-04-17T11:22:59.521Z</time></trkpt><trkpt lat="46.4206667" lon="12.3670883"><ele>813.4000000000001</ele><time>2026-04-17T11:23:00.522Z</time></trkpt><trkpt lat="46.4205967" lon="12.3670067"><ele>815.2</ele><time>2026-04-17T11:23:01.522Z</time></trkpt><trkpt lat="46.420545" lon="12.3669017"><ele>817.0</ele><time>2026-04-17T11:23:02.523Z</time></trkpt><trkpt lat="46.4204967" lon="12.3668033"><ele>819.4999999999999</ele><time>2026-04-17T11:23:03.522Z</time></trkpt><trkpt lat="46.4204383" lon="12.3667283"><ele>822.0</ele><time>2026-04-17T11:23:04.522Z</time></trkpt><trkpt lat="46.4203833" lon="12.3666783"><ele>824.5</ele><time>2026-04-17T11:23:05.522Z</time></trkpt><trkpt lat="46.4202933" lon="12.366685"><ele>827.0</ele><time>2026-04-17T11:23:06.523Z</time></trkpt><trkpt lat="46.4202067" lon="12.3667333"><ele>829.4999999999999</ele><time>2026-04-17T11:23:07.522Z</time></trkpt><trkpt lat="46.4201433" lon="12.366855"><ele>832.0</ele><time>2026-04-17T11:23:08.523Z</time></trkpt><trkpt lat="46.4200967" lon="12.3669917"><ele>832.0</ele><time>2026-04-17T11:23:09.52Z</time></trkpt><trkpt lat="46.4200683" lon="12.3671433"><ele>832.0</ele><time>2026-04-17T11:23:10.522Z</time></trkpt><trkpt lat="46.420045" lon="12.3673017"><ele>832.0</ele><time>2026-04-17T11:23:11.522Z</time></trkpt><trkpt lat="46.4200133" lon="12.367465"><ele>832.0</ele><time>2026-04-17T11:23:12.522Z</time></trkpt><trkpt lat="46.419975" lon="12.3676483"><ele>829.0</ele><time>2026-04-17T11:23:13.522Z</time></trkpt><trkpt lat="46.419935" lon="12.3678667"><ele>826.0</ele><time>2026-04-17T11:23:14.522Z</time></trkpt><trkpt lat="46.4199017" lon="12.3681217"><ele>823.0</ele><time>2026-04-17T11:23:15.522Z</time></trkpt><trkpt lat="46.41988" lon="12.3684133"><ele>821.5</ele><time>2026-04-17T11:23:16.522Z</time></trkpt><trkpt lat="46.4198667" lon="12.3687433"><ele>820.0</ele><time>2026-04-17T11:23:17.522Z</time></trkpt><trkpt lat="46.4198617" lon="12.3691083"><ele>820.0</ele><time>2026-04-17T11:23:18.523Z</time></trkpt><trkpt lat="46.41986" lon="12.3694983"><ele>820.0</ele><time>2026-04-17T11:23:19.522Z</time></trkpt><trkpt lat="46.4198583" lon="12.3698933"><ele>817.0</ele><time>2026-04-17T11:23:20.522Z</time></trkpt><trkpt lat="46.4198533" lon="12.3702733"><ele>814.0</ele><time>2026-04-17T11:23:21.523Z</time></trkpt><trkpt lat="46.419845" lon="12.370635"><ele>812.0</ele><time>2026-04-17T11:23:22.522Z</time></trkpt><trkpt lat="46.4198333" lon="12.3709767"><ele>810.0</ele><time>2026-04-17T11:23:23.521Z</time></trkpt><trkpt lat="46.4198133" lon="12.371305"><ele>809.6666666666667</ele><time>2026-04-17T11:23:24.521Z</time></trkpt><trkpt lat="46.4197833" lon="12.371625"><ele>809.3333333333334</ele><time>2026-04-17T11:23:25.522Z</time></trkpt><trkpt lat="46.4197367" lon="12.3719467"><ele>809.0</ele><time>2026-04-17T11:23:26.522Z</time></trkpt><trkpt lat="46.4196817" lon="12.3722633"><ele>811.0</ele><time>2026-04-17T11:23:27.522Z</time></trkpt><trkpt lat="46.4196233" lon="12.3725717"><ele>813.0</ele><time>2026-04-17T11:23:28.522Z</time></trkpt><trkpt lat="46.4195617" lon="12.3728667"><ele>815.0</ele><time>2026-04-17T11:23:29.521Z</time></trkpt><trkpt lat="46.4195" lon="12.3731483"><ele>815.0</ele><time>2026-04-17T11:23:30.521Z</time></trkpt><trkpt lat="46.4194283" lon="12.37342"><ele>815.0</ele><time>2026-04-17T11:23:31.522Z</time></trkpt><trkpt lat="46.4193467" lon="12.3736683"><ele>815.0</ele><time>2026-04-17T11:23:32.524Z</time></trkpt><trkpt lat="46.4192567" lon="12.3738733"><ele>812.25</ele><time>2026-04-17T11:23:33.522Z</time></trkpt><trkpt lat="46.4191467" lon="12.3740267"><ele>809.5</ele><time>2026-04-17T11:23:34.521Z</time></trkpt><trkpt lat="46.4190317" lon="12.3741367"><ele>806.75</ele><time>2026-04-17T11:23:35.524Z</time></trkpt><trkpt lat="46.4189017" lon="12.374205"><ele>804.0</ele><time>2026-04-17T11:23:36.521Z</time></trkpt><trkpt lat="46.4187617" lon="12.3742633"><ele>804.0</ele><time>2026-04-17T11:23:37.522Z</time></trkpt><trkpt lat="46.4186117" lon="12.3742983"><ele>804.0</ele><time>2026-04-17T11:23:38.522Z</time></trkpt><trkpt lat="46.418455" lon="12.3743367"><ele>804.0</ele><time>2026-04-17T11:23:39.521Z</time></trkpt><trkpt lat="46.4182967" lon="12.374375"><ele>804.0</ele><time>2026-04-17T11:23:40.521Z</time></trkpt><trkpt lat="46.4181367" lon="12.37441"><ele>804.0</ele><time>2026-04-17T11:23:41.523Z</time></trkpt><trkpt lat="46.417975" lon="12.37444"><ele>804.0</ele><time>2026-04-17T11:23:42.522Z</time></trkpt><trkpt lat="46.4178133" lon="12.3744467"><ele>801.0</ele><time>2026-04-17T11:23:43.521Z</time></trkpt><trkpt lat="46.4176533" lon="12.374425"><ele>798.0</ele><time>2026-04-17T11:23:44.524Z</time></trkpt><trkpt lat="46.417495" lon="12.37437"><ele>795.0</ele><time>2026-04-17T11:23:45.522Z</time></trkpt><trkpt lat="46.4173333" lon="12.3742783"><ele>795.0</ele><time>2026-04-17T11:23:46.522Z</time></trkpt><trkpt lat="46.4171717" lon="12.3741483"><ele>795.0</ele><time>2026-04-17T11:23:47.521Z</time></trkpt><trkpt lat="46.4170017" lon="12.374"><ele>795.0</ele><time>2026-04-17T11:23:48.524Z</time></trkpt><trkpt lat="46.4168233" lon="12.3738433"><ele>794.5</ele><time>2026-04-17T11:23:49.524Z</time></trkpt><trkpt lat="46.4166333" lon="12.3736767"><ele>794.0</ele><time>2026-04-17T11:23:50.522Z</time></trkpt><trkpt lat="46.4164317" lon="12.3734933"><ele>784.5</ele><time>2026-04-17T11:23:51.521Z</time></trkpt><trkpt lat="46.4161967" lon="12.3732817"><ele>775.0</ele><time>2026-04-17T11:23:52.521Z</time></trkpt><trkpt lat="46.41593" lon="12.3730417"><ele>771.0</ele><time>2026-04-17T11:23:53.522Z</time></trkpt><trkpt lat="46.4156517" lon="12.37278"><ele>767.0</ele><time>2026-04-17T11:23:54.522Z</time></trkpt><trkpt lat="46.4153967" lon="12.372505"><ele>767.0</ele><time>2026-04-17T11:23:55.521Z</time></trkpt><trkpt lat="46.415155" lon="12.3721933"><ele>767.0</ele><time>2026-04-17T11:23:56.522Z</time></trkpt><trkpt lat="46.414915" lon="12.3718367"><ele>772.0</ele><time>2026-04-17T11:23:57.521Z</time></trkpt><trkpt lat="46.4146567" lon="12.37146"><ele>777.0</ele><time>2026-04-17T11:23:58.521Z</time></trkpt><trkpt lat="46.414375" lon="12.3710967"><ele>777.0</ele><time>2026-04-17T11:23:59.521Z</time></trkpt><trkpt lat="46.4140817" lon="12.3707567"><ele>777.0</ele><time>2026-04-17T11:24:00.522Z</time></trkpt><trkpt lat="46.4137917" lon="12.3704467"><ele>773.5</ele><time>2026-04-17T11:24:01.521Z</time></trkpt><trkpt lat="46.4135133" lon="12.3701567"><ele>770.0</ele><time>2026-04-17T11:24:02.524Z</time></trkpt><trkpt lat="46.4132517" lon="12.3698867"><ele>768.5</ele><time>2026-04-17T11:24:03.521Z</time></trkpt><trkpt lat="46.4130017" lon="12.3696483"><ele>767.0</ele><time>2026-04-17T11:24:04.522Z</time></trkpt><trkpt lat="46.4127567" lon="12.3694367"><ele>767.0</ele><time>2026-04-17T11:24:05.524Z</time></trkpt><trkpt lat="46.4125067" lon="12.3692633"><ele>767.0</ele><time>2026-04-17T11:24:06.522Z</time></trkpt><trkpt lat="46.4122383" lon="12.3691267"><ele>771.5</ele><time>2026-04-17T11:24:07.522Z</time></trkpt><trkpt lat="46.4119567" lon="12.36899"><ele>776.0</ele><time>2026-04-17T11:24:08.523Z</time></trkpt><trkpt lat="46.4116733" lon="12.3688467"><ele>776.0</ele><time>2026-04-17T11:24:09.522Z</time></trkpt><trkpt lat="46.4113833" lon="12.36875"><ele>776.0</ele><time>2026-04-17T11:24:10.52Z</time></trkpt><trkpt lat="46.41109" lon="12.3686667"><ele>766.0</ele><time>2026-04-17T11:24:11.522Z</time></trkpt><trkpt lat="46.4108383" lon="12.368505"><ele>756.0</ele><time>2026-04-17T11:24:12.522Z</time></trkpt><trkpt lat="46.4106067" lon="12.3683033"><ele>755.5</ele><time>2026-04-17T11:24:13.521Z</time></trkpt><trkpt lat="46.410385" lon="12.3680733"><ele>755.0</ele><time>2026-04-17T11:24:14.522Z</time></trkpt><trkpt lat="46.410165" lon="12.367825"><ele>755.0</ele><time>2026-04-17T11:24:15.523Z</time></trkpt><trkpt lat="46.4099467" lon="12.3675917"><ele>755.0</ele><time>2026-04-17T11:24:16.522Z</time></trkpt><trkpt lat="46.4097267" lon="12.3673883"><ele>757.5</ele><time>2026-04-17T11:24:17.522Z</time></trkpt><trkpt lat="46.409515" lon="12.3672267"><ele>760.0</ele><time>2026-04-17T11:24:18.522Z</time></trkpt><trkpt lat="46.4093033" lon="12.3671367"><ele>760.0</ele><time>2026-04-17T11:24:19.521Z</time></trkpt><trkpt lat="46.409085" lon="12.3670833"><ele>760.0</ele><time>2026-04-17T11:24:20.522Z</time></trkpt><trkpt lat="46.4088633" lon="12.3670733"><ele>760.0</ele><time>2026-04-17T11:24:21.522Z</time></trkpt><trkpt lat="46.4086467" lon="12.3671017"><ele>759.0</ele><time>2026-04-17T11:24:22.521Z</time></trkpt><trkpt lat="46.4084333" lon="12.367185"><ele>758.0</ele><time>2026-04-17T11:24:23.522Z</time></trkpt><trkpt lat="46.4082217" lon="12.367325"><ele>744.0</ele><time>2026-04-17T11:24:24.521Z</time></trkpt><trkpt lat="46.408" lon="12.3675083"><ele>730.0</ele><time>2026-04-17T11:24:25.522Z</time></trkpt><trkpt lat="46.4077683" lon="12.36772"><ele>730.0</ele><time>2026-04-17T11:24:26.522Z</time></trkpt><trkpt lat="46.40753" lon="12.3679417"><ele>730.0</ele><time>2026-04-17T11:24:27.522Z</time></trkpt><trkpt lat="46.4072817" lon="12.368165"><ele>715.0</ele><time>2026-04-17T11:24:28.522Z</time></trkpt><trkpt lat="46.4070233" lon="12.3683983"><ele>700.0</ele><time>2026-04-17T11:24:29.522Z</time></trkpt><trkpt lat="46.4067533" lon="12.3686417"><ele>689.0</ele><time>2026-04-17T11:24:30.52Z</time></trkpt><trkpt lat="46.406475" lon="12.368895"><ele>678.0</ele><time>2026-04-17T11:24:31.522Z</time></trkpt><trkpt lat="46.4061867" lon="12.3691567"><ele>675.0</ele><time>2026-04-17T11:24:32.522Z</time></trkpt><trkpt lat="46.4058883" lon="12.369425"><ele>672.0</ele><time>2026-04-17T11:24:33.523Z</time></trkpt><trkpt lat="46.4055783" lon="12.3697017"><ele>681.5</ele><time>2026-04-17T11:24:34.521Z</time></trkpt><trkpt lat="46.4052617" lon="12.369985"><ele>691.0</ele><time>2026-04-17T11:24:35.521Z</time></trkpt><trkpt lat="46.40495" lon="12.370265"><ele>683.5</ele><time>2026-04-17T11:24:36.521Z</time></trkpt><trkpt lat="46.4046417" lon="12.3705367"><ele>676.0</ele><time>2026-04-17T11:24:37.522Z</time></trkpt><trkpt lat="46.4043467" lon="12.3708"><ele>676.0</ele><time>2026-04-17T11:24:38.522Z</time></trkpt><trkpt lat="46.404065" lon="12.37105"><ele>676.0</ele><time>2026-04-17T11:24:39.522Z</time></trkpt><trkpt lat="46.403795" lon="12.3712867"><ele>644.5</ele><time>2026-04-17T11:24:40.521Z</time></trkpt><trkpt lat="46.4035383" lon="12.3715133"><ele>613.0</ele><time>2026-04-17T11:24:41.523Z</time></trkpt><trkpt lat="46.4032883" lon="12.3717367"><ele>613.0</ele><time>2026-04-17T11:24:42.522Z</time></trkpt><trkpt lat="46.4030433" lon="12.371955"><ele>613.0</ele><time>2026-04-17T11:24:43.522Z</time></trkpt><trkpt lat="46.4028" lon="12.3721733"><ele>609.0</ele><time>2026-04-17T11:24:44.523Z</time></trkpt><trkpt lat="46.4025617" lon="12.3723883"><ele>605.0</ele><time>2026-04-17T11:24:45.523Z</time></trkpt><trkpt lat="46.402325" lon="12.3726017"><ele>620.5</ele><time>2026-04-17T11:24:46.522Z</time></trkpt><trkpt lat="46.4020933" lon="12.37281"><ele>636.0</ele><time>2026-04-17T11:24:47.523Z</time></trkpt><trkpt lat="46.401865" lon="12.3729983"><ele>641.5</ele><time>2026-04-17T11:24:48.523Z</time></trkpt><trkpt lat="46.4016333" lon="12.373155"><ele>647.0</ele><time>2026-04-17T11:24:49.522Z</time></trkpt><trkpt lat="46.4013933" lon="12.37327"><ele>648.5</ele><time>2026-04-17T11:24:50.523Z</time></trkpt><trkpt lat="46.4011433" lon="12.3733367"><ele>650.0</ele><time>2026-04-17T11:24:51.523Z</time></trkpt><trkpt lat="46.4008817" lon="12.373355"><ele>650.0</ele><time>2026-04-17T11:24:52.523Z</time></trkpt><trkpt lat="46.4006067" lon="12.3733267"><ele>650.0</ele><time>2026-04-17T11:24:53.52Z</time></trkpt><trkpt lat="46.4003283" lon="12.3732567"><ele>653.0</ele><time>2026-04-17T11:24:54.521Z</time></trkpt><trkpt lat="46.4000517" lon="12.3731467"><ele>656.0</ele><time>2026-04-17T11:24:55.521Z</time></trkpt><trkpt lat="46.3997717" lon="12.3730033"><ele>653.0</ele><time>2026-04-17T11:24:56.522Z</time></trkpt><trkpt lat="46.3994933" lon="12.372835"><ele>650.0</ele><time>2026-04-17T11:24:57.523Z</time></trkpt><trkpt lat="46.3992133" lon="12.3726633"><ele>650.0</ele><time>2026-04-17T11:24:58.522Z</time></trkpt><trkpt lat="46.3989267" lon="12.3724933"><ele>650.0</ele><time>2026-04-17T11:24:59.522Z</time></trkpt><trkpt lat="46.3986383" lon="12.3723233"><ele>637.0</ele><time>2026-04-17T11:25:00.522Z</time></trkpt><trkpt lat="46.398345" lon="12.3721517"><ele>624.0</ele><time>2026-04-17T11:25:01.521Z</time></trkpt><trkpt lat="46.39805" lon="12.3719817"><ele>640.0</ele><time>2026-04-17T11:25:02.522Z</time></trkpt><trkpt lat="46.397755" lon="12.371815"><ele>656.0</ele><time>2026-04-17T11:25:03.523Z</time></trkpt><trkpt lat="46.39746" lon="12.371645"><ele>654.5</ele><time>2026-04-17T11:25:04.523Z</time></trkpt><trkpt lat="46.397165" lon="12.3714767"><ele>653.0</ele><time>2026-04-17T11:25:05.521Z</time></trkpt><trkpt lat="46.39687" lon="12.3713117"><ele>653.0</ele><time>2026-04-17T11:25:06.523Z</time></trkpt><trkpt lat="46.3965833" lon="12.3711517"><ele>653.0</ele><time>2026-04-17T11:25:07.522Z</time></trkpt><trkpt lat="46.396325" lon="12.3710083"><ele>655.3333333333333</ele><time>2026-04-17T11:25:08.523Z</time></trkpt><trkpt lat="46.3961133" lon="12.37088"><ele>657.6666666666666</ele><time>2026-04-17T11:25:09.522Z</time></trkpt><trkpt lat="46.395925" lon="12.37075"><ele>660.0</ele><time>2026-04-17T11:25:10.522Z</time></trkpt><trkpt lat="46.395755" lon="12.370615"><ele>654.3333333333334</ele><time>2026-04-17T11:25:11.522Z</time></trkpt><trkpt lat="46.3955933" lon="12.3704817"><ele>648.6666666666667</ele><time>2026-04-17T11:25:12.523Z</time></trkpt><trkpt lat="46.3954417" lon="12.37035"><ele>643.0</ele><time>2026-04-17T11:25:13.522Z</time></trkpt><trkpt lat="46.3953017" lon="12.3702183"><ele>642.3333333333334</ele><time>2026-04-17T11:25:14.523Z</time></trkpt><trkpt lat="46.3951667" lon="12.37007"><ele>641.6666666666666</ele><time>2026-04-17T11:25:15.52Z</time></trkpt><trkpt lat="46.39504" lon="12.3698967"><ele>641.0</ele><time>2026-04-17T11:25:16.52Z</time></trkpt><trkpt lat="46.3949317" lon="12.3697017"><ele>638.25</ele><time>2026-04-17T11:25:17.521Z</time></trkpt><trkpt lat="46.3948367" lon="12.3695133"><ele>635.5</ele><time>2026-04-17T11:25:18.52Z</time></trkpt><trkpt lat="46.3947633" lon="12.3693467"><ele>632.75</ele><time>2026-04-17T11:25:19.521Z</time></trkpt><trkpt lat="46.3947133" lon="12.3692067"><ele>630.0</ele><time>2026-04-17T11:25:20.523Z</time></trkpt><trkpt lat="46.3946767" lon="12.3690817"><ele>631.2</ele><time>2026-04-17T11:25:21.523Z</time></trkpt><trkpt lat="46.39466" lon="12.36897"><ele>632.4</ele><time>2026-04-17T11:25:22.521Z</time></trkpt><trkpt lat="46.3946667" lon="12.3688583"><ele>633.6</ele><time>2026-04-17T11:25:23.522Z</time></trkpt><trkpt lat="46.3946883" lon="12.3687333"><ele>634.8</ele><time>2026-04-17T11:25:24.522Z</time></trkpt><trkpt lat="46.3947" lon="12.3685667"><ele>636.0</ele><time>2026-04-17T11:25:25.521Z</time></trkpt><trkpt lat="46.3947017" lon="12.3683683"><ele>631.6666666666666</ele><time>2026-04-17T11:25:26.523Z</time></trkpt><trkpt lat="46.394725" lon="12.3681383"><ele>627.3333333333333</ele><time>2026-04-17T11:25:27.522Z</time></trkpt><trkpt lat="46.39477" lon="12.3678783"><ele>623.0</ele><time>2026-04-17T11:25:28.522Z</time></trkpt><trkpt lat="46.39482" lon="12.3676133"><ele>622.3333333333333</ele><time>2026-04-17T11:25:29.522Z</time></trkpt><trkpt lat="46.3948667" lon="12.3673683"><ele>621.6666666666666</ele><time>2026-04-17T11:25:30.523Z</time></trkpt><trkpt lat="46.3949133" lon="12.3671583"><ele>621.0</ele><time>2026-04-17T11:25:31.522Z</time></trkpt><trkpt lat="46.3949717" lon="12.3669783"><ele>620.5</ele><time>2026-04-17T11:25:32.523Z</time></trkpt><trkpt lat="46.3950483" lon="12.3668217"><ele>620.0</ele><time>2026-04-17T11:25:33.521Z</time></trkpt><trkpt lat="46.3951467" lon="12.3666883"><ele>619.5</ele><time>2026-04-17T11:25:34.521Z</time></trkpt><trkpt lat="46.3952617" lon="12.3665867"><ele>619.0</ele><time>2026-04-17T11:25:35.523Z</time></trkpt><trkpt lat="46.3953867" lon="12.3665217"><ele>616.3333333333334</ele><time>2026-04-17T11:25:36.523Z</time></trkpt><trkpt lat="46.3955283" lon="12.3664917"><ele>613.6666666666666</ele><time>2026-04-17T11:25:37.523Z</time></trkpt><trkpt lat="46.39569" lon="12.3665033"><ele>611.0</ele><time>2026-04-17T11:25:38.523Z</time></trkpt><trkpt lat="46.3958633" lon="12.36656"><ele>611.0</ele><time>2026-04-17T11:25:39.522Z</time></trkpt><trkpt lat="46.3960283" lon="12.3666333"><ele>611.0</ele><time>2026-04-17T11:25:40.522Z</time></trkpt><trkpt lat="46.39618" lon="12.3667217"><ele>611.0</ele><time>2026-04-17T11:25:41.521Z</time></trkpt><trkpt lat="46.3963133" lon="12.3668417"><ele>610.75</ele><time>2026-04-17T11:25:42.522Z</time></trkpt><trkpt lat="46.3964333" lon="12.36696"><ele>610.5</ele><time>2026-04-17T11:25:43.523Z</time></trkpt><trkpt lat="46.3965417" lon="12.3670433"><ele>610.25</ele><time>2026-04-17T11:25:44.523Z</time></trkpt><trkpt lat="46.3966483" lon="12.3670867"><ele>610.0</ele><time>2026-04-17T11:25:45.522Z</time></trkpt><trkpt lat="46.3967533" lon="12.3671083"><ele>610.0</ele><time>2026-04-17T11:25:46.521Z</time></trkpt><trkpt lat="46.3968483" lon="12.3671183"><ele>610.0</ele><time>2026-04-17T11:25:47.522Z</time></trkpt><trkpt lat="46.39693" lon="12.36711"><ele>610.0</ele><time>2026-04-17T11:25:48.521Z</time></trkpt><trkpt lat="46.3970017" lon="12.3670783"><ele>610.0</ele><time>2026-04-17T11:25:49.523Z</time></trkpt><trkpt lat="46.3970633" lon="12.3670033"><ele>610.0</ele><time>2026-04-17T11:25:50.522Z</time></trkpt><trkpt lat="46.3971083" lon="12.36686"><ele>610.0</ele><time>2026-04-17T11:25:51.521Z</time></trkpt><trkpt lat="46.397125" lon="12.36668"><ele>610.0</ele><time>2026-04-17T11:25:52.521Z</time></trkpt><trkpt lat="46.39712" lon="12.366475"><ele>610.0</ele><time>2026-04-17T11:25:53.521Z</time></trkpt><trkpt lat="46.39709" lon="12.366245"><ele>610.0</ele><time>2026-04-17T11:25:54.522Z</time></trkpt><trkpt lat="46.3970533" lon="12.3659983"><ele>611.6666666666667</ele><time>2026-04-17T11:25:55.522Z</time></trkpt><trkpt lat="46.3970417" lon="12.365735"><ele>613.3333333333334</ele><time>2026-04-17T11:25:56.523Z</time></trkpt><trkpt lat="46.3970583" lon="12.365455"><ele>615.0</ele><time>2026-04-17T11:25:57.523Z</time></trkpt><trkpt lat="46.397095" lon="12.3651633"><ele>619.6666666666666</ele><time>2026-04-17T11:25:58.522Z</time></trkpt><trkpt lat="46.3971183" lon="12.36489"><ele>624.3333333333333</ele><time>2026-04-17T11:25:59.523Z</time></trkpt><trkpt lat="46.3971317" lon="12.3646483"><ele>629.0</ele><time>2026-04-17T11:26:00.523Z</time></trkpt><trkpt lat="46.3971583" lon="12.364445"><ele>617.25</ele><time>2026-04-17T11:26:01.521Z</time></trkpt><trkpt lat="46.397205" lon="12.364275"><ele>605.5</ele><time>2026-04-17T11:26:02.523Z</time></trkpt><trkpt lat="46.3972417" lon="12.364115"><ele>593.75</ele><time>2026-04-17T11:26:03.523Z</time></trkpt><trkpt lat="46.397245" lon="12.363935"><ele>582.0</ele><time>2026-04-17T11:26:04.523Z</time></trkpt><trkpt lat="46.39722" lon="12.36372"><ele>582.0</ele><time>2026-04-17T11:26:05.522Z</time></trkpt><trkpt lat="46.3971933" lon="12.3634833"><ele>582.0</ele><time>2026-04-17T11:26:06.523Z</time></trkpt><trkpt lat="46.3971883" lon="12.3632267"><ele>582.0</ele><time>2026-04-17T11:26:07.523Z</time></trkpt><trkpt lat="46.3972067" lon="12.36297"><ele>583.3333333333334</ele><time>2026-04-17T11:26:08.522Z</time></trkpt><trkpt lat="46.3972667" lon="12.3627267"><ele>584.6666666666667</ele><time>2026-04-17T11:26:09.522Z</time></trkpt><trkpt lat="46.397355" lon="12.3625117"><ele>586.0</ele><time>2026-04-17T11:26:10.522Z</time></trkpt><trkpt lat="46.397445" lon="12.3623217"><ele>587.0</ele><time>2026-04-17T11:26:11.522Z</time></trkpt><trkpt lat="46.39752" lon="12.36213"><ele>588.0</ele><time>2026-04-17T11:26:12.522Z</time></trkpt><trkpt lat="46.39757" lon="12.3619017"><ele>589.0</ele><time>2026-04-17T11:26:13.522Z</time></trkpt><trkpt lat="46.397615" lon="12.3616533"><ele>589.0</ele><time>2026-04-17T11:26:14.524Z</time></trkpt><trkpt lat="46.3976517" lon="12.3614033"><ele>589.0</ele><time>2026-04-17T11:26:15.523Z</time></trkpt><trkpt lat="46.397665" lon="12.36117"><ele>589.0</ele><time>2026-04-17T11:26:16.522Z</time></trkpt><trkpt lat="46.3976533" lon="12.3609433"><ele>587.0</ele><time>2026-04-17T11:26:17.523Z</time></trkpt><trkpt lat="46.3976317" lon="12.3606983"><ele>585.0</ele><time>2026-04-17T11:26:18.522Z</time></trkpt><trkpt lat="46.397615" lon="12.360445"><ele>583.0</ele><time>2026-04-17T11:26:19.522Z</time></trkpt><trkpt lat="46.3976083" lon="12.3601883"><ele>578.6666666666667</ele><time>2026-04-17T11:26:20.523Z</time></trkpt><trkpt lat="46.3976117" lon="12.3599467"><ele>574.3333333333334</ele><time>2026-04-17T11:26:21.524Z</time></trkpt><trkpt lat="46.397625" lon="12.3597267"><ele>570.0</ele><time>2026-04-17T11:26:22.523Z</time></trkpt><trkpt lat="46.3976583" lon="12.3595067"><ele>566.0</ele><time>2026-04-17T11:26:23.522Z</time></trkpt><trkpt lat="46.397675" lon="12.35929"><ele>562.0</ele><time>2026-04-17T11:26:24.523Z</time></trkpt><trkpt lat="46.3976767" lon="12.3590883"><ele>558.0</ele><time>2026-04-17T11:26:25.522Z</time></trkpt><trkpt lat="46.3976617" lon="12.358905"><ele>554.0</ele><time>2026-04-17T11:26:26.523Z</time></trkpt><trkpt lat="46.3976267" lon="12.3587433"><ele>550.0</ele><time>2026-04-17T11:26:27.522Z</time></trkpt><trkpt lat="46.3975683" lon="12.3586083"><ele>546.0</ele><time>2026-04-17T11:26:28.523Z</time></trkpt><trkpt lat="46.3974733" lon="12.35849"><ele>542.0</ele><time>2026-04-17T11:26:29.522Z</time></trkpt><trkpt lat="46.3973683" lon="12.35839"><ele>538.0</ele><time>2026-04-17T11:26:30.523Z</time></trkpt><trkpt lat="46.3972817" lon="12.35829"><ele>538.0</ele><time>2026-04-17T11:26:31.525Z</time></trkpt><trkpt lat="46.3972333" lon="12.358175"><ele>538.0</ele><time>2026-04-17T11:26:32.523Z</time></trkpt><trkpt lat="46.397225" lon="12.3580517"><ele>538.0</ele><time>2026-04-17T11:26:33.523Z</time></trkpt><trkpt lat="46.3972417" lon="12.3579083"><ele>538.0</ele><time>2026-04-17T11:26:34.523Z</time></trkpt><trkpt lat="46.397285" lon="12.3577267"><ele>538.0</ele><time>2026-04-17T11:26:35.523Z</time></trkpt><trkpt lat="46.39734" lon="12.3575317"><ele>536.0</ele><time>2026-04-17T11:26:36.522Z</time></trkpt><trkpt lat="46.3973933" lon="12.3573417"><ele>534.0</ele><time>2026-04-17T11:26:37.524Z</time></trkpt><trkpt lat="46.3974467" lon="12.3571817"><ele>532.0</ele><time>2026-04-17T11:26:38.523Z</time></trkpt><trkpt lat="46.3975067" lon="12.35706"><ele>530.0</ele><time>2026-04-17T11:26:39.523Z</time></trkpt><trkpt lat="46.39758" lon="12.3569767"><ele>529.6</ele><time>2026-04-17T11:26:40.522Z</time></trkpt><trkpt lat="46.3976467" lon="12.356925"><ele>529.2</ele><time>2026-04-17T11:26:41.523Z</time></trkpt><trkpt lat="46.397735" lon="12.3568217"><ele>528.8</ele><time>2026-04-17T11:26:43.521Z</time></trkpt><trkpt lat="46.3976983" lon="12.35665"><ele>528.4</ele><time>2026-04-17T11:26:45.522Z</time></trkpt><trkpt lat="46.3976383" lon="12.3565317"><ele>528.0</ele><time>2026-04-17T11:26:46.522Z</time></trkpt><trkpt lat="46.3975517" lon="12.3563817"><ele>529.0</ele><time>2026-04-17T11:26:47.521Z</time></trkpt><trkpt lat="46.3974617" lon="12.356205"><ele>530.0</ele><time>2026-04-17T11:26:48.523Z</time></trkpt><trkpt lat="46.3973717" lon="12.356025"><ele>531.0</ele><time>2026-04-17T11:26:49.523Z</time></trkpt><trkpt lat="46.39729" lon="12.3558617"><ele>532.0</ele><time>2026-04-17T11:26:50.522Z</time></trkpt><trkpt lat="46.39721" lon="12.355725"><ele>532.2</ele><time>2026-04-17T11:26:51.522Z</time></trkpt><trkpt lat="46.3971317" lon="12.355615"><ele>532.4000000000001</ele><time>2026-04-17T11:26:52.521Z</time></trkpt><trkpt lat="46.3970383" lon="12.355535"><ele>532.5999999999999</ele><time>2026-04-17T11:26:53.521Z</time></trkpt><trkpt lat="46.396935" lon="12.3554983"><ele>532.8</ele><time>2026-04-17T11:26:54.522Z</time></trkpt><trkpt lat="46.3968117" lon="12.3555317"><ele>533.0</ele><time>2026-04-17T11:26:55.522Z</time></trkpt><trkpt lat="46.3966617" lon="12.355635"><ele>533.0</ele><time>2026-04-17T11:26:56.523Z</time></trkpt><trkpt lat="46.3965067" lon="12.35574"><ele>533.0</ele><time>2026-04-17T11:26:57.522Z</time></trkpt><trkpt lat="46.3963417" lon="12.3558467"><ele>533.0</ele><time>2026-04-17T11:26:58.522Z</time></trkpt><trkpt lat="46.3961633" lon="12.3559483"><ele>534.0</ele><time>2026-04-17T11:26:59.522Z</time></trkpt><trkpt lat="46.3959883" lon="12.356055"><ele>535.0</ele><time>2026-04-17T11:27:00.522Z</time></trkpt><trkpt lat="46.3958217" lon="12.3561617"><ele>536.0</ele><time>2026-04-17T11:27:01.521Z</time></trkpt><trkpt lat="46.3956617" lon="12.3562667"><ele>533.6666666666666</ele><time>2026-04-17T11:27:02.522Z</time></trkpt><trkpt lat="46.3955117" lon="12.35637"><ele>531.3333333333334</ele><time>2026-04-17T11:27:03.522Z</time></trkpt><trkpt lat="46.3953617" lon="12.3564533"><ele>529.0</ele><time>2026-04-17T11:27:04.522Z</time></trkpt><trkpt lat="46.3952133" lon="12.3565017"><ele>529.0</ele><time>2026-04-17T11:27:05.523Z</time></trkpt><trkpt lat="46.3950533" lon="12.3565167"><ele>529.0</ele><time>2026-04-17T11:27:06.524Z</time></trkpt><trkpt lat="46.3948983" lon="12.356505"><ele>529.0</ele><time>2026-04-17T11:27:07.522Z</time></trkpt><trkpt lat="46.39474" lon="12.3564533"><ele>536.3333333333334</ele><time>2026-04-17T11:27:08.523Z</time></trkpt><trkpt lat="46.3945733" lon="12.3563617"><ele>543.6666666666666</ele><time>2026-04-17T11:27:09.522Z</time></trkpt><trkpt lat="46.3944017" lon="12.356255"><ele>551.0</ele><time>2026-04-17T11:27:10.522Z</time></trkpt><trkpt lat="46.3942183" lon="12.3561717"><ele>551.0</ele><time>2026-04-17T11:27:11.522Z</time></trkpt><trkpt lat="46.3940233" lon="12.3561083"><ele>551.0</ele><time>2026-04-17T11:27:12.522Z</time></trkpt><trkpt lat="46.3938183" lon="12.3560517"><ele>551.0</ele><time>2026-04-17T11:27:13.522Z</time></trkpt><trkpt lat="46.3935967" lon="12.3560017"><ele>546.5</ele><time>2026-04-17T11:27:14.523Z</time></trkpt><trkpt lat="46.3933617" lon="12.355955"><ele>542.0</ele><time>2026-04-17T11:27:15.522Z</time></trkpt><trkpt lat="46.3931167" lon="12.3558983"><ele>536.5</ele><time>2026-04-17T11:27:16.522Z</time></trkpt><trkpt lat="46.39286" lon="12.35585"><ele>531.0</ele><time>2026-04-17T11:27:17.522Z</time></trkpt><trkpt lat="46.3925967" lon="12.355785"><ele>531.0</ele><time>2026-04-17T11:27:18.522Z</time></trkpt><trkpt lat="46.3923283" lon="12.35567"><ele>531.0</ele><time>2026-04-17T11:27:19.523Z</time></trkpt><trkpt lat="46.392055" lon="12.355525"><ele>546.0</ele><time>2026-04-17T11:27:20.522Z</time></trkpt><trkpt lat="46.3917683" lon="12.35537"><ele>561.0</ele><time>2026-04-17T11:27:21.523Z</time></trkpt><trkpt lat="46.3914717" lon="12.35521"><ele>551.5</ele><time>2026-04-17T11:27:22.521Z</time></trkpt><trkpt lat="46.391165" lon="12.3550567"><ele>542.0</ele><time>2026-04-17T11:27:23.522Z</time></trkpt><trkpt lat="46.3908417" lon="12.3549083"><ele>535.0</ele><time>2026-04-17T11:27:24.523Z</time></trkpt><trkpt lat="46.3905067" lon="12.354765"><ele>528.0</ele><time>2026-04-17T11:27:25.522Z</time></trkpt><trkpt lat="46.39016" lon="12.35464"><ele>541.5</ele><time>2026-04-17T11:27:26.523Z</time></trkpt><trkpt lat="46.38981" lon="12.3545267"><ele>555.0</ele><time>2026-04-17T11:27:27.522Z</time></trkpt><trkpt lat="46.389455" lon="12.3544333"><ele>555.0</ele><time>2026-04-17T11:27:28.522Z</time></trkpt><trkpt lat="46.3891067" lon="12.354345"><ele>555.0</ele><time>2026-04-17T11:27:29.522Z</time></trkpt><trkpt lat="46.38878" lon="12.3542717"><ele>550.0</ele><time>2026-04-17T11:27:30.522Z</time></trkpt><trkpt lat="46.38848" lon="12.3542133"><ele>545.0</ele><time>2026-04-17T11:27:31.523Z</time></trkpt><trkpt lat="46.388205" lon="12.3541567"><ele>539.5</ele><time>2026-04-17T11:27:32.523Z</time></trkpt><trkpt lat="46.3879333" lon="12.3540617"><ele>534.0</ele><time>2026-04-17T11:27:33.524Z</time></trkpt><trkpt lat="46.3876583" lon="12.3539317"><ele>541.0</ele><time>2026-04-17T11:27:34.521Z</time></trkpt><trkpt lat="46.38739" lon="12.3537717"><ele>548.0</ele><time>2026-04-17T11:27:35.523Z</time></trkpt><trkpt lat="46.3871483" lon="12.35365"><ele>548.0</ele><time>2026-04-17T11:27:36.522Z</time></trkpt><trkpt lat="46.386955" lon="12.3535567"><ele>548.0</ele><time>2026-04-17T11:27:37.523Z</time></trkpt><trkpt lat="46.386795" lon="12.353495"><ele>548.0</ele><time>2026-04-17T11:27:38.523Z</time></trkpt><trkpt lat="46.3866467" lon="12.35344"><ele>548.0</ele><time>2026-04-17T11:27:39.522Z</time></trkpt><trkpt lat="46.3865017" lon="12.353385"><ele>548.0</ele><time>2026-04-17T11:27:40.521Z</time></trkpt><trkpt lat="46.386355" lon="12.3533383"><ele>548.0</ele><time>2026-04-17T11:27:41.522Z</time></trkpt><trkpt lat="46.3862033" lon="12.3532883"><ele>546.3333333333333</ele><time>2026-04-17T11:27:42.522Z</time></trkpt><trkpt lat="46.3860483" lon="12.3532433"><ele>544.6666666666666</ele><time>2026-04-17T11:27:43.522Z</time></trkpt><trkpt lat="46.38588" lon="12.3531917"><ele>543.0</ele><time>2026-04-17T11:27:44.522Z</time></trkpt><trkpt lat="46.3857133" lon="12.3531383"><ele>543.0</ele><time>2026-04-17T11:27:45.522Z</time></trkpt><trkpt lat="46.3855467" lon="12.353085"><ele>543.0</ele><time>2026-04-17T11:27:46.522Z</time></trkpt><trkpt lat="46.3853733" lon="12.3530317"><ele>543.0</ele><time>2026-04-17T11:27:47.522Z</time></trkpt><trkpt lat="46.385205" lon="12.3529867"><ele>547.3333333333334</ele><time>2026-04-17T11:27:48.522Z</time></trkpt><trkpt lat="46.385035" lon="12.352935"><ele>551.6666666666667</ele><time>2026-04-17T11:27:49.522Z</time></trkpt><trkpt lat="46.384875" lon="12.3528783"><ele>556.0</ele><time>2026-04-17T11:27:50.523Z</time></trkpt><trkpt lat="46.384725" lon="12.3528167"><ele>553.0</ele><time>2026-04-17T11:27:51.522Z</time></trkpt><trkpt lat="46.3845817" lon="12.3527233"><ele>550.0</ele><time>2026-04-17T11:27:52.52Z</time></trkpt><trkpt lat="46.384445" lon="12.3525933"><ele>547.0</ele><time>2026-04-17T11:27:53.522Z</time></trkpt><trkpt lat="46.3843133" lon="12.3524383"><ele>547.0</ele><time>2026-04-17T11:27:54.522Z</time></trkpt><trkpt lat="46.3841917" lon="12.352275"><ele>547.0</ele><time>2026-04-17T11:27:55.521Z</time></trkpt><trkpt lat="46.3840933" lon="12.35211"><ele>547.0</ele><time>2026-04-17T11:27:56.523Z</time></trkpt><trkpt lat="46.384" lon="12.35197"><ele>555.25</ele><time>2026-04-17T11:27:57.522Z</time></trkpt><trkpt lat="46.3838967" lon="12.3518833"><ele>563.5</ele><time>2026-04-17T11:27:58.521Z</time></trkpt><trkpt lat="46.38379" lon="12.35186"><ele>571.75</ele><time>2026-04-17T11:27:59.522Z</time></trkpt><trkpt lat="46.3836667" lon="12.35189"><ele>580.0</ele><time>2026-04-17T11:28:00.522Z</time></trkpt><trkpt lat="46.3835267" lon="12.3519533"><ele>581.6666666666667</ele><time>2026-04-17T11:28:01.522Z</time></trkpt><trkpt lat="46.383375" lon="12.3520083"><ele>583.3333333333334</ele><time>2026-04-17T11:28:02.522Z</time></trkpt><trkpt lat="46.383205" lon="12.3520383"><ele>585.0</ele><time>2026-04-17T11:28:03.521Z</time></trkpt><trkpt lat="46.383015" lon="12.35203"><ele>581.6666666666666</ele><time>2026-04-17T11:28:04.522Z</time></trkpt><trkpt lat="46.3828183" lon="12.3520317"><ele>578.3333333333333</ele><time>2026-04-17T11:28:05.522Z</time></trkpt><trkpt lat="46.382615" lon="12.3520067"><ele>575.0</ele><time>2026-04-17T11:28:06.523Z</time></trkpt><trkpt lat="46.3824233" lon="12.3519917"><ele>575.0</ele><time>2026-04-17T11:28:07.522Z</time></trkpt><trkpt lat="46.3822317" lon="12.351965"><ele>575.0</ele><time>2026-04-17T11:28:08.523Z</time></trkpt><trkpt lat="46.382035" lon="12.35191"><ele>575.0</ele><time>2026-04-17T11:28:09.522Z</time></trkpt><trkpt lat="46.38183" lon="12.3518483"><ele>576.5</ele><time>2026-04-17T11:28:10.521Z</time></trkpt><trkpt lat="46.3816067" lon="12.35182"><ele>578.0</ele><time>2026-04-17T11:28:11.523Z</time></trkpt><trkpt lat="46.381365" lon="12.351825"><ele>579.0</ele><time>2026-04-17T11:28:12.522Z</time></trkpt><trkpt lat="46.3811117" lon="12.3518467"><ele>580.0</ele><time>2026-04-17T11:28:13.523Z</time></trkpt><trkpt lat="46.3808483" lon="12.3519033"><ele>580.0</ele><time>2026-04-17T11:28:14.522Z</time></trkpt><trkpt lat="46.38058" lon="12.3519967"><ele>580.0</ele><time>2026-04-17T11:28:15.524Z</time></trkpt><trkpt lat="46.3803067" lon="12.3521067"><ele>562.0</ele><time>2026-04-17T11:28:16.522Z</time></trkpt><trkpt lat="46.3800333" lon="12.3522217"><ele>544.0</ele><time>2026-04-17T11:28:17.522Z</time></trkpt><trkpt lat="46.3797767" lon="12.352335"><ele>552.5</ele><time>2026-04-17T11:28:18.524Z</time></trkpt><trkpt lat="46.379535" lon="12.3524333"><ele>561.0</ele><time>2026-04-17T11:28:19.523Z</time></trkpt><trkpt lat="46.3793117" lon="12.352505"><ele>561.0</ele><time>2026-04-17T11:28:20.523Z</time></trkpt><trkpt lat="46.3791217" lon="12.3525483"><ele>561.0</ele><time>2026-04-17T11:28:21.522Z</time></trkpt><trkpt lat="46.3789483" lon="12.35259"><ele>561.0</ele><time>2026-04-17T11:28:22.522Z</time></trkpt><trkpt lat="46.3787967" lon="12.3526467"><ele>562.0</ele><time>2026-04-17T11:28:23.521Z</time></trkpt><trkpt lat="46.3786667" lon="12.3527567"><ele>563.0</ele><time>2026-04-17T11:28:24.522Z</time></trkpt><trkpt lat="46.3785567" lon="12.3529167"><ele>564.0</ele><time>2026-04-17T11:28:25.522Z</time></trkpt><trkpt lat="46.37846" lon="12.3531333"><ele>564.0</ele><time>2026-04-17T11:28:26.522Z</time></trkpt><trkpt lat="46.3783417" lon="12.353365"><ele>564.0</ele><time>2026-04-17T11:28:27.522Z</time></trkpt><trkpt lat="46.3781967" lon="12.353575"><ele>564.0</ele><time>2026-04-17T11:28:28.523Z</time></trkpt><trkpt lat="46.3780217" lon="12.353755"><ele>562.6666666666666</ele><time>2026-04-17T11:28:29.523Z</time></trkpt><trkpt lat="46.3778383" lon="12.353915"><ele>561.3333333333333</ele><time>2026-04-17T11:28:30.523Z</time></trkpt><trkpt lat="46.37764" lon="12.3540517"><ele>560.0</ele><time>2026-04-17T11:28:31.523Z</time></trkpt><trkpt lat="46.377425" lon="12.3541717"><ele>560.0</ele><time>2026-04-17T11:28:32.522Z</time></trkpt><trkpt lat="46.37719" lon="12.354275"><ele>560.0</ele><time>2026-04-17T11:28:33.522Z</time></trkpt><trkpt lat="46.3769533" lon="12.3543767"><ele>567.5</ele><time>2026-04-17T11:28:34.521Z</time></trkpt><trkpt lat="46.376725" lon="12.3544767"><ele>575.0</ele><time>2026-04-17T11:28:35.521Z</time></trkpt><trkpt lat="46.3765167" lon="12.35456"><ele>574.3333333333333</ele><time>2026-04-17T11:28:36.521Z</time></trkpt><trkpt lat="46.3763383" lon="12.3546283"><ele>573.6666666666666</ele><time>2026-04-17T11:28:37.523Z</time></trkpt><trkpt lat="46.376185" lon="12.3546717"><ele>573.0</ele><time>2026-04-17T11:28:38.523Z</time></trkpt><trkpt lat="46.3760383" lon="12.3546533"><ele>573.0</ele><time>2026-04-17T11:28:39.522Z</time></trkpt><trkpt lat="46.3758833" lon="12.3545633"><ele>573.0</ele><time>2026-04-17T11:28:40.521Z</time></trkpt><trkpt lat="46.375705" lon="12.3544317"><ele>573.0</ele><time>2026-04-17T11:28:41.521Z</time></trkpt><trkpt lat="46.3755067" lon="12.3543033"><ele>562.5</ele><time>2026-04-17T11:28:42.521Z</time></trkpt><trkpt lat="46.3752833" lon="12.3542"><ele>552.0</ele><time>2026-04-17T11:28:43.521Z</time></trkpt><trkpt lat="46.37505" lon="12.3541083"><ele>552.0</ele><time>2026-04-17T11:28:44.522Z</time></trkpt><trkpt lat="46.37479" lon="12.35404"><ele>552.0</ele><time>2026-04-17T11:28:45.521Z</time></trkpt><trkpt lat="46.37454" lon="12.354"><ele>551.0</ele><time>2026-04-17T11:28:46.523Z</time></trkpt><trkpt lat="46.3743017" lon="12.3539983"><ele>550.0</ele><time>2026-04-17T11:28:47.522Z</time></trkpt><trkpt lat="46.3740683" lon="12.3540267"><ele>555.5</ele><time>2026-04-17T11:28:48.522Z</time></trkpt><trkpt lat="46.3738267" lon="12.3541083"><ele>561.0</ele><time>2026-04-17T11:28:49.523Z</time></trkpt><trkpt lat="46.3735667" lon="12.3542183"><ele>561.0</ele><time>2026-04-17T11:28:50.523Z</time></trkpt><trkpt lat="46.373295" lon="12.35434"><ele>561.0</ele><time>2026-04-17T11:28:51.522Z</time></trkpt><trkpt lat="46.3730383" lon="12.3544583"><ele>566.5</ele><time>2026-04-17T11:28:52.522Z</time></trkpt><trkpt lat="46.3727933" lon="12.3545617"><ele>572.0</ele><time>2026-04-17T11:28:53.521Z</time></trkpt><trkpt lat="46.37256" lon="12.35467"><ele>559.0</ele><time>2026-04-17T11:28:54.522Z</time></trkpt><trkpt lat="46.3723567" lon="12.3547517"><ele>546.0</ele><time>2026-04-17T11:28:55.521Z</time></trkpt><trkpt lat="46.3721833" lon="12.3548183"><ele>533.0</ele><time>2026-04-17T11:28:56.522Z</time></trkpt><trkpt lat="46.372015" lon="12.354885"><ele>533.0</ele><time>2026-04-17T11:28:57.522Z</time></trkpt><trkpt lat="46.3718383" lon="12.354925"><ele>533.0</ele><time>2026-04-17T11:28:58.522Z</time></trkpt><trkpt lat="46.3716367" lon="12.354945"><ele>533.0</ele><time>2026-04-17T11:28:59.524Z</time></trkpt><trkpt lat="46.3714283" lon="12.3549717"><ele>532.0</ele><time>2026-04-17T11:29:00.523Z</time></trkpt><trkpt lat="46.37123" lon="12.35502"><ele>531.0</ele><time>2026-04-17T11:29:01.527Z</time></trkpt><trkpt lat="46.3710433" lon="12.3550617"><ele>530.0</ele><time>2026-04-17T11:29:02.524Z</time></trkpt><trkpt lat="46.37086" lon="12.3550483"><ele>530.0</ele><time>2026-04-17T11:29:03.522Z</time></trkpt><trkpt lat="46.3706583" lon="12.35498"><ele>530.0</ele><time>2026-04-17T11:29:04.521Z</time></trkpt><trkpt lat="46.3704517" lon="12.354865"><ele>530.0</ele><time>2026-04-17T11:29:05.522Z</time></trkpt><trkpt lat="46.370255" lon="12.354725"><ele>537.0</ele><time>2026-04-17T11:29:06.522Z</time></trkpt><trkpt lat="46.370075" lon="12.3545933"><ele>544.0</ele><time>2026-04-17T11:29:07.524Z</time></trkpt><trkpt lat="46.3699067" lon="12.3544833"><ele>551.0</ele><time>2026-04-17T11:29:08.523Z</time></trkpt><trkpt lat="46.3697417" lon="12.3543983"><ele>547.3333333333333</ele><time>2026-04-17T11:29:09.523Z</time></trkpt><trkpt lat="46.36958" lon="12.35434"><ele>543.6666666666666</ele><time>2026-04-17T11:29:10.522Z</time></trkpt><trkpt lat="46.3694233" lon="12.3542917"><ele>540.0</ele><time>2026-04-17T11:29:11.522Z</time></trkpt><trkpt lat="46.3692717" lon="12.35426"><ele>540.0</ele><time>2026-04-17T11:29:12.521Z</time></trkpt><trkpt lat="46.3691267" lon="12.3542517"><ele>540.0</ele><time>2026-04-17T11:29:13.521Z</time></trkpt><trkpt lat="46.36899" lon="12.3542733"><ele>540.0</ele><time>2026-04-17T11:29:14.523Z</time></trkpt><trkpt lat="46.3688617" lon="12.3543083"><ele>540.0</ele><time>2026-04-17T11:29:15.52Z</time></trkpt><trkpt lat="46.3687383" lon="12.354325"><ele>538.25</ele><time>2026-04-17T11:29:16.52Z</time></trkpt><trkpt lat="46.3686283" lon="12.3543"><ele>536.5</ele><time>2026-04-17T11:29:17.522Z</time></trkpt><trkpt lat="46.36853" lon="12.3542033"><ele>534.75</ele><time>2026-04-17T11:29:18.521Z</time></trkpt><trkpt lat="46.3684417" lon="12.3540333"><ele>533.0</ele><time>2026-04-17T11:29:19.522Z</time></trkpt><trkpt lat="46.3683583" lon="12.3538017"><ele>530.3333333333333</ele><time>2026-04-17T11:29:20.521Z</time></trkpt><trkpt lat="46.3682467" lon="12.3535467"><ele>527.6666666666666</ele><time>2026-04-17T11:29:21.521Z</time></trkpt><trkpt lat="46.3681" lon="12.3532983"><ele>525.0</ele><time>2026-04-17T11:29:22.521Z</time></trkpt><trkpt lat="46.3679167" lon="12.3530517"><ele>535.5</ele><time>2026-04-17T11:29:23.521Z</time></trkpt><trkpt lat="46.367695" lon="12.3527917"><ele>546.0</ele><time>2026-04-17T11:29:24.521Z</time></trkpt><trkpt lat="46.3674333" lon="12.3525283"><ele>546.0</ele><time>2026-04-17T11:29:25.521Z</time></trkpt><trkpt lat="46.3671333" lon="12.3522683"><ele>546.0</ele><time>2026-04-17T11:29:26.521Z</time></trkpt><trkpt lat="46.3668183" lon="12.3520117"><ele>546.0</ele><time>2026-04-17T11:29:27.521Z</time></trkpt><trkpt lat="46.3665133" lon="12.3517667"><ele>546.0</ele><time>2026-04-17T11:29:28.52Z</time></trkpt><trkpt lat="46.3662317" lon="12.3515233"><ele>545.5</ele><time>2026-04-17T11:29:29.52Z</time></trkpt><trkpt lat="46.365975" lon="12.351275"><ele>545.0</ele><time>2026-04-17T11:29:30.521Z</time></trkpt><trkpt lat="46.3657533" lon="12.35101"><ele>545.0</ele><time>2026-04-17T11:29:31.521Z</time></trkpt><trkpt lat="46.3655467" lon="12.350755"><ele>545.0</ele><time>2026-04-17T11:29:32.522Z</time></trkpt><trkpt lat="46.3653583" lon="12.3505"><ele>540.0</ele><time>2026-04-17T11:29:33.521Z</time></trkpt><trkpt lat="46.365195" lon="12.3502533"><ele>535.0</ele><time>2026-04-17T11:29:34.521Z</time></trkpt><trkpt lat="46.3650483" lon="12.3500517"><ele>530.0</ele><time>2026-04-17T11:29:35.52Z</time></trkpt><trkpt lat="46.364935" lon="12.3498467"><ele>538.3333333333333</ele><time>2026-04-17T11:29:36.524Z</time></trkpt><trkpt lat="46.3648533" lon="12.3496083"><ele>546.6666666666666</ele><time>2026-04-17T11:29:37.521Z</time></trkpt><trkpt lat="46.364805" lon="12.3493317"><ele>555.0</ele><time>2026-04-17T11:29:38.521Z</time></trkpt><trkpt lat="46.3647633" lon="12.349055"><ele>558.3333333333334</ele><time>2026-04-17T11:29:39.52Z</time></trkpt><trkpt lat="46.3647067" lon="12.348785"><ele>561.6666666666667</ele><time>2026-04-17T11:29:40.52Z</time></trkpt><trkpt lat="46.3646" lon="12.3485133"><ele>565.0</ele><time>2026-04-17T11:29:41.522Z</time></trkpt><trkpt lat="46.36446" lon="12.34823"><ele>550.0</ele><time>2026-04-17T11:29:42.521Z</time></trkpt><trkpt lat="46.364315" lon="12.34791"><ele>535.0</ele><time>2026-04-17T11:29:43.521Z</time></trkpt><trkpt lat="46.364175" lon="12.3475583"><ele>542.5</ele><time>2026-04-17T11:29:44.52Z</time></trkpt><trkpt lat="46.3640383" lon="12.3472"><ele>550.0</ele><time>2026-04-17T11:29:45.521Z</time></trkpt><trkpt lat="46.3639033" lon="12.34684"><ele>541.0</ele><time>2026-04-17T11:29:46.521Z</time></trkpt><trkpt lat="46.3637683" lon="12.3465083"><ele>532.0</ele><time>2026-04-17T11:29:47.521Z</time></trkpt><trkpt lat="46.3636217" lon="12.3462183"><ele>532.0</ele><time>2026-04-17T11:29:48.521Z</time></trkpt><trkpt lat="46.36347" lon="12.345975"><ele>532.0</ele><time>2026-04-17T11:29:49.521Z</time></trkpt><trkpt lat="46.363325" lon="12.3457683"><ele>532.0</ele><time>2026-04-17T11:29:50.523Z</time></trkpt><trkpt lat="46.3631783" lon="12.34562"><ele>529.0</ele><time>2026-04-17T11:29:51.522Z</time></trkpt><trkpt lat="46.3630117" lon="12.3455517"><ele>526.0</ele><time>2026-04-17T11:29:52.521Z</time></trkpt><trkpt lat="46.3628483" lon="12.3455283"><ele>523.0</ele><time>2026-04-17T11:29:53.52Z</time></trkpt><trkpt lat="46.36271" lon="12.3454983"><ele>523.0</ele><time>2026-04-17T11:29:54.521Z</time></trkpt><trkpt lat="46.3625917" lon="12.345435"><ele>523.0</ele><time>2026-04-17T11:29:55.522Z</time></trkpt><trkpt lat="46.3624867" lon="12.345325"><ele>523.0</ele><time>2026-04-17T11:29:56.522Z</time></trkpt><trkpt lat="46.3623933" lon="12.3451483"><ele>523.0</ele><time>2026-04-17T11:29:57.521Z</time></trkpt><trkpt lat="46.3623117" lon="12.3449117"><ele>519.0</ele><time>2026-04-17T11:29:58.521Z</time></trkpt><trkpt lat="46.3622133" lon="12.3446367"><ele>515.0</ele><time>2026-04-17T11:29:59.519Z</time></trkpt><trkpt lat="46.362095" lon="12.344345"><ele>511.0</ele><time>2026-04-17T11:30:00.521Z</time></trkpt><trkpt lat="46.36194" lon="12.34405"><ele>517.0</ele><time>2026-04-17T11:30:01.521Z</time></trkpt><trkpt lat="46.3617617" lon="12.3437617"><ele>523.0</ele><time>2026-04-17T11:30:02.521Z</time></trkpt><trkpt lat="46.3615783" lon="12.3434567"><ele>523.0</ele><time>2026-04-17T11:30:03.521Z</time></trkpt><trkpt lat="46.36139" lon="12.3431517"><ele>523.0</ele><time>2026-04-17T11:30:04.52Z</time></trkpt><trkpt lat="46.3611983" lon="12.3428283"><ele>523.0</ele><time>2026-04-17T11:30:05.52Z</time></trkpt><trkpt lat="46.36101" lon="12.34249"><ele>523.0</ele><time>2026-04-17T11:30:06.521Z</time></trkpt><trkpt lat="46.3608233" lon="12.3421333"><ele>523.0</ele><time>2026-04-17T11:30:07.52Z</time></trkpt><trkpt lat="46.3606383" lon="12.3417867"><ele>523.0</ele><time>2026-04-17T11:30:08.522Z</time></trkpt><trkpt lat="46.3604633" lon="12.34145"><ele>519.0</ele><time>2026-04-17T11:30:09.52Z</time></trkpt><trkpt lat="46.3603067" lon="12.341145"><ele>515.0</ele><time>2026-04-17T11:30:10.521Z</time></trkpt><trkpt lat="46.3601683" lon="12.3408983"><ele>515.0</ele><time>2026-04-17T11:30:11.521Z</time></trkpt><trkpt lat="46.36005" lon="12.3407233"><ele>515.0</ele><time>2026-04-17T11:30:12.521Z</time></trkpt><trkpt lat="46.359925" lon="12.340575"><ele>515.0</ele><time>2026-04-17T11:30:13.522Z</time></trkpt><trkpt lat="46.359765" lon="12.3404467"><ele>511.0</ele><time>2026-04-17T11:30:14.524Z</time></trkpt><trkpt lat="46.3595833" lon="12.34034"><ele>507.0</ele><time>2026-04-17T11:30:15.521Z</time></trkpt><trkpt lat="46.3594133" lon="12.3402433"><ele>503.0</ele><time>2026-04-17T11:30:16.521Z</time></trkpt><trkpt lat="46.35927" lon="12.340145"><ele>503.0</ele><time>2026-04-17T11:30:17.52Z</time></trkpt><trkpt lat="46.3591517" lon="12.340065"><ele>502.99999999999994</ele><time>2026-04-17T11:30:18.522Z</time></trkpt><trkpt lat="46.3590517" lon="12.3399983"><ele>502.99999999999994</ele><time>2026-04-17T11:30:19.52Z</time></trkpt><trkpt lat="46.3589667" lon="12.33994"><ele>503.0</ele><time>2026-04-17T11:30:20.521Z</time></trkpt><trkpt lat="46.3588983" lon="12.3398867"><ele>503.0</ele><time>2026-04-17T11:30:21.521Z</time></trkpt><trkpt lat="46.3588417" lon="12.3398433"><ele>502.79999999999995</ele><time>2026-04-17T11:30:22.52Z</time></trkpt><trkpt lat="46.3587617" lon="12.339785"><ele>502.59999999999997</ele><time>2026-04-17T11:30:24.522Z</time></trkpt><trkpt lat="46.3586917" lon="12.339735"><ele>502.40000000000003</ele><time>2026-04-17T11:30:26.52Z</time></trkpt><trkpt lat="46.35863" lon="12.3397033"><ele>502.20000000000005</ele><time>2026-04-17T11:30:29.521Z</time></trkpt><trkpt lat="46.35851" lon="12.3396967"><ele>502.0</ele><time>2026-04-17T11:30:40.52Z</time></trkpt><trkpt lat="46.35841" lon="12.339635"><ele>505.33333333333337</ele><time>2026-04-17T11:30:41.52Z</time></trkpt><trkpt lat="46.3582833" lon="12.33956"><ele>508.66666666666663</ele><time>2026-04-17T11:30:42.522Z</time></trkpt><trkpt lat="46.3581267" lon="12.3394783"><ele>512.0</ele><time>2026-04-17T11:30:43.521Z</time></trkpt><trkpt lat="46.3579483" lon="12.3393967"><ele>512.0</ele><time>2026-04-17T11:30:44.522Z</time></trkpt><trkpt lat="46.3577667" lon="12.3393217"><ele>512.0</ele><time>2026-04-17T11:30:45.521Z</time></trkpt><trkpt lat="46.3575933" lon="12.33926"><ele>512.0</ele><time>2026-04-17T11:30:46.521Z</time></trkpt><trkpt lat="46.3574333" lon="12.3391967"><ele>512.0</ele><time>2026-04-17T11:30:47.521Z</time></trkpt><trkpt lat="46.3572883" lon="12.3391433"><ele>512.0</ele><time>2026-04-17T11:30:48.523Z</time></trkpt><trkpt lat="46.35715" lon="12.3390633"><ele>512.0</ele><time>2026-04-17T11:30:49.524Z</time></trkpt><trkpt lat="46.3570017" lon="12.3389417"><ele>515.0</ele><time>2026-04-17T11:30:50.523Z</time></trkpt><trkpt lat="46.3568333" lon="12.3387833"><ele>518.0</ele><time>2026-04-17T11:30:51.523Z</time></trkpt><trkpt lat="46.3566433" lon="12.3386083"><ele>521.0</ele><time>2026-04-17T11:30:52.521Z</time></trkpt><trkpt lat="46.3564283" lon="12.3384417"><ele>509.0</ele><time>2026-04-17T11:30:53.522Z</time></trkpt><trkpt lat="46.3561883" lon="12.3382867"><ele>497.0</ele><time>2026-04-17T11:30:54.522Z</time></trkpt><trkpt lat="46.3559267" lon="12.338145"><ele>512.5</ele><time>2026-04-17T11:30:55.521Z</time></trkpt><trkpt lat="46.3556483" lon="12.3380183"><ele>528.0</ele><time>2026-04-17T11:30:56.522Z</time></trkpt><trkpt lat="46.35537" lon="12.337905"><ele>528.0</ele><time>2026-04-17T11:30:57.522Z</time></trkpt><trkpt lat="46.3551017" lon="12.3377933"><ele>528.0</ele><time>2026-04-17T11:30:58.523Z</time></trkpt><trkpt lat="46.3548617" lon="12.3377017"><ele>519.6666666666666</ele><time>2026-04-17T11:30:59.522Z</time></trkpt><trkpt lat="46.354655" lon="12.337625"><ele>511.3333333333333</ele><time>2026-04-17T11:31:00.522Z</time></trkpt><trkpt lat="46.3544717" lon="12.3375383"><ele>503.0</ele><time>2026-04-17T11:31:01.522Z</time></trkpt><trkpt lat="46.3543017" lon="12.3374417"><ele>503.0</ele><time>2026-04-17T11:31:02.523Z</time></trkpt><trkpt lat="46.3541333" lon="12.337335"><ele>503.0</ele><time>2026-04-17T11:31:03.522Z</time></trkpt><trkpt lat="46.3539567" lon="12.3372233"><ele>503.0</ele><time>2026-04-17T11:31:04.522Z</time></trkpt><trkpt lat="46.3537783" lon="12.3371083"><ele>511.0</ele><time>2026-04-17T11:31:05.521Z</time></trkpt><trkpt lat="46.3536017" lon="12.3370017"><ele>519.0</ele><time>2026-04-17T11:31:06.522Z</time></trkpt><trkpt lat="46.3534267" lon="12.3369117"><ele>527.0</ele><time>2026-04-17T11:31:07.521Z</time></trkpt><trkpt lat="46.353265" lon="12.3368433"><ele>527.0</ele><time>2026-04-17T11:31:08.523Z</time></trkpt><trkpt lat="46.35312" lon="12.3368267"><ele>527.0</ele><time>2026-04-17T11:31:09.522Z</time></trkpt><trkpt lat="46.352995" lon="12.3368183"><ele>527.0</ele><time>2026-04-17T11:31:10.522Z</time></trkpt><trkpt lat="46.35288" lon="12.3368167"><ele>527.0</ele><time>2026-04-17T11:31:11.522Z</time></trkpt><trkpt lat="46.35276" lon="12.3368267"><ele>521.75</ele><time>2026-04-17T11:31:12.523Z</time></trkpt><trkpt lat="46.3526367" lon="12.3368467"><ele>516.5</ele><time>2026-04-17T11:31:13.521Z</time></trkpt><trkpt lat="46.3525017" lon="12.3368733"><ele>511.25</ele><time>2026-04-17T11:31:14.522Z</time></trkpt><trkpt lat="46.3523467" lon="12.3369133"><ele>506.0</ele><time>2026-04-17T11:31:15.522Z</time></trkpt><trkpt lat="46.3521867" lon="12.3369383"><ele>504.0</ele><time>2026-04-17T11:31:16.522Z</time></trkpt><trkpt lat="46.352025" lon="12.3369583"><ele>502.0</ele><time>2026-04-17T11:31:17.522Z</time></trkpt><trkpt lat="46.3518683" lon="12.3369717"><ele>500.0</ele><time>2026-04-17T11:31:18.522Z</time></trkpt><trkpt lat="46.35172" lon="12.3369583"><ele>500.0</ele><time>2026-04-17T11:31:19.522Z</time></trkpt><trkpt lat="46.35158" lon="12.3369133"><ele>500.0</ele><time>2026-04-17T11:31:20.522Z</time></trkpt><trkpt lat="46.3514517" lon="12.336835"><ele>500.0</ele><time>2026-04-17T11:31:21.521Z</time></trkpt><trkpt lat="46.3513283" lon="12.336725"><ele>500.0</ele><time>2026-04-17T11:31:22.521Z</time></trkpt><trkpt lat="46.3512083" lon="12.336595"><ele>499.3333333333333</ele><time>2026-04-17T11:31:23.523Z</time></trkpt><trkpt lat="46.3510867" lon="12.3364317"><ele>498.66666666666663</ele><time>2026-04-17T11:31:24.522Z</time></trkpt><trkpt lat="46.3509667" lon="12.3362417"><ele>498.0</ele><time>2026-04-17T11:31:25.524Z</time></trkpt><trkpt lat="46.350845" lon="12.3360383"><ele>497.66666666666663</ele><time>2026-04-17T11:31:26.524Z</time></trkpt><trkpt lat="46.3507067" lon="12.3358383"><ele>497.3333333333333</ele><time>2026-04-17T11:31:27.522Z</time></trkpt><trkpt lat="46.35056" lon="12.3356333"><ele>497.0</ele><time>2026-04-17T11:31:28.522Z</time></trkpt><trkpt lat="46.3504" lon="12.335415"><ele>497.0</ele><time>2026-04-17T11:31:29.523Z</time></trkpt><trkpt lat="46.3502267" lon="12.3351867"><ele>497.0</ele><time>2026-04-17T11:31:30.523Z</time></trkpt><trkpt lat="46.350045" lon="12.33494"><ele>496.0</ele><time>2026-04-17T11:31:31.521Z</time></trkpt><trkpt lat="46.3498433" lon="12.3346867"><ele>495.0</ele><time>2026-04-17T11:31:32.523Z</time></trkpt><trkpt lat="46.34962" lon="12.334435"><ele>495.0</ele><time>2026-04-17T11:31:33.523Z</time></trkpt><trkpt lat="46.349395" lon="12.3341883"><ele>495.0</ele><time>2026-04-17T11:31:34.523Z</time></trkpt><trkpt lat="46.3491783" lon="12.3339633"><ele>497.5</ele><time>2026-04-17T11:31:35.523Z</time></trkpt><trkpt lat="46.3489717" lon="12.3337583"><ele>500.0</ele><time>2026-04-17T11:31:36.523Z</time></trkpt><trkpt lat="46.3487667" lon="12.3335683"><ele>500.0</ele><time>2026-04-17T11:31:37.523Z</time></trkpt><trkpt lat="46.3485483" lon="12.333395"><ele>500.0</ele><time>2026-04-17T11:31:38.523Z</time></trkpt><trkpt lat="46.34832" lon="12.3332417"><ele>500.0</ele><time>2026-04-17T11:31:39.522Z</time></trkpt><trkpt lat="46.3481017" lon="12.3331017"><ele>500.0</ele><time>2026-04-17T11:31:40.522Z</time></trkpt><trkpt lat="46.34789" lon="12.332975"><ele>507.0</ele><time>2026-04-17T11:31:41.522Z</time></trkpt><trkpt lat="46.3476817" lon="12.332845"><ele>514.0</ele><time>2026-04-17T11:31:42.523Z</time></trkpt><trkpt lat="46.347485" lon="12.3326933"><ele>514.0</ele><time>2026-04-17T11:31:43.521Z</time></trkpt><trkpt lat="46.347305" lon="12.3324917"><ele>514.0</ele><time>2026-04-17T11:31:44.524Z</time></trkpt><trkpt lat="46.347125" lon="12.33226"><ele>511.0</ele><time>2026-04-17T11:31:45.523Z</time></trkpt><trkpt lat="46.34694" lon="12.33201"><ele>508.0</ele><time>2026-04-17T11:31:46.523Z</time></trkpt><trkpt lat="46.34674" lon="12.3317733"><ele>508.0</ele><time>2026-04-17T11:31:47.521Z</time></trkpt><trkpt lat="46.3465133" lon="12.331565"><ele>508.0</ele><time>2026-04-17T11:31:48.523Z</time></trkpt><trkpt lat="46.3462683" lon="12.33138"><ele>512.5</ele><time>2026-04-17T11:31:49.522Z</time></trkpt><trkpt lat="46.3460267" lon="12.3312067"><ele>517.0</ele><time>2026-04-17T11:31:50.523Z</time></trkpt><trkpt lat="46.3457917" lon="12.33104"><ele>517.0</ele><time>2026-04-17T11:31:51.523Z</time></trkpt><trkpt lat="46.3455633" lon="12.330875"><ele>517.0</ele><time>2026-04-17T11:31:52.523Z</time></trkpt><trkpt lat="46.3453483" lon="12.3307117"><ele>524.3333333333334</ele><time>2026-04-17T11:31:53.524Z</time></trkpt><trkpt lat="46.3451617" lon="12.3305467"><ele>531.6666666666666</ele><time>2026-04-17T11:31:54.523Z</time></trkpt><trkpt lat="46.3450017" lon="12.3303967"><ele>539.0</ele><time>2026-04-17T11:31:55.523Z</time></trkpt><trkpt lat="46.3448567" lon="12.3302917"><ele>532.3333333333333</ele><time>2026-04-17T11:31:56.524Z</time></trkpt><trkpt lat="46.3446967" lon="12.3302367"><ele>525.6666666666666</ele><time>2026-04-17T11:31:57.524Z</time></trkpt><trkpt lat="46.344515" lon="12.3302"><ele>519.0</ele><time>2026-04-17T11:31:58.523Z</time></trkpt><trkpt lat="46.3443233" lon="12.33016"><ele>519.0</ele><time>2026-04-17T11:31:59.524Z</time></trkpt><trkpt lat="46.3441317" lon="12.3301233"><ele>519.0</ele><time>2026-04-17T11:32:00.522Z</time></trkpt><trkpt lat="46.3439517" lon="12.3301017"><ele>519.0</ele><time>2026-04-17T11:32:01.522Z</time></trkpt><trkpt lat="46.3437817" lon="12.3300983"><ele>518.0</ele><time>2026-04-17T11:32:02.523Z</time></trkpt><trkpt lat="46.3436217" lon="12.3301133"><ele>517.0</ele><time>2026-04-17T11:32:03.523Z</time></trkpt><trkpt lat="46.343475" lon="12.3301633"><ele>516.0</ele><time>2026-04-17T11:32:04.522Z</time></trkpt><trkpt lat="46.3433317" lon="12.330205"><ele>516.0</ele><time>2026-04-17T11:32:05.521Z</time></trkpt><trkpt lat="46.343185" lon="12.3302167"><ele>516.0</ele><time>2026-04-17T11:32:06.521Z</time></trkpt><trkpt lat="46.3430283" lon="12.3301833"><ele>516.0</ele><time>2026-04-17T11:32:07.521Z</time></trkpt><trkpt lat="46.34284" lon="12.3301267"><ele>513.0</ele><time>2026-04-17T11:32:08.522Z</time></trkpt><trkpt lat="46.3426383" lon="12.330055"><ele>510.0</ele><time>2026-04-17T11:32:09.521Z</time></trkpt><trkpt lat="46.342445" lon="12.3299733"><ele>507.0</ele><time>2026-04-17T11:32:10.521Z</time></trkpt><trkpt lat="46.34226" lon="12.3298967"><ele>508.0</ele><time>2026-04-17T11:32:11.522Z</time></trkpt><trkpt lat="46.3420683" lon="12.329865"><ele>509.0</ele><time>2026-04-17T11:32:12.522Z</time></trkpt><trkpt lat="46.34188" lon="12.3299067"><ele>510.0</ele><time>2026-04-17T11:32:13.52Z</time></trkpt><trkpt lat="46.34171" lon="12.3300017"><ele>510.0</ele><time>2026-04-17T11:32:14.521Z</time></trkpt><trkpt lat="46.3415417" lon="12.3301267"><ele>510.0</ele><time>2026-04-17T11:32:15.521Z</time></trkpt><trkpt lat="46.3413567" lon="12.3302133"><ele>510.0</ele><time>2026-04-17T11:32:16.521Z</time></trkpt><trkpt lat="46.3411567" lon="12.33026"><ele>519.6666666666666</ele><time>2026-04-17T11:32:17.521Z</time></trkpt><trkpt lat="46.3409617" lon="12.3302817"><ele>529.3333333333333</ele><time>2026-04-17T11:32:18.521Z</time></trkpt><trkpt lat="46.3407917" lon="12.3303"><ele>539.0</ele><time>2026-04-17T11:32:19.522Z</time></trkpt><trkpt lat="46.3406483" lon="12.330315"><ele>545.75</ele><time>2026-04-17T11:32:20.521Z</time></trkpt><trkpt lat="46.3405133" lon="12.3303717"><ele>552.5</ele><time>2026-04-17T11:32:21.522Z</time></trkpt><trkpt lat="46.3403933" lon="12.3304733"><ele>559.25</ele><time>2026-04-17T11:32:22.521Z</time></trkpt><trkpt lat="46.340285" lon="12.3306"><ele>566.0</ele><time>2026-04-17T11:32:23.521Z</time></trkpt><trkpt lat="46.3401583" lon="12.3307233"><ele>553.6666666666666</ele><time>2026-04-17T11:32:24.522Z</time></trkpt><trkpt lat="46.3400067" lon="12.3308217"><ele>541.3333333333334</ele><time>2026-04-17T11:32:25.522Z</time></trkpt><trkpt lat="46.3398367" lon="12.3308733"><ele>529.0</ele><time>2026-04-17T11:32:26.522Z</time></trkpt><trkpt lat="46.3396683" lon="12.3309233"><ele>529.0</ele><time>2026-04-17T11:32:27.521Z</time></trkpt><trkpt lat="46.339505" lon="12.3309917"><ele>529.0</ele><time>2026-04-17T11:32:28.521Z</time></trkpt><trkpt lat="46.33933" lon="12.3310467"><ele>529.0</ele><time>2026-04-17T11:32:29.521Z</time></trkpt><trkpt lat="46.3391367" lon="12.3310683"><ele>529.0</ele><time>2026-04-17T11:32:30.522Z</time></trkpt><trkpt lat="46.338935" lon="12.3310583"><ele>529.0</ele><time>2026-04-17T11:32:31.523Z</time></trkpt><trkpt lat="46.33873" lon="12.3310483"><ele>529.0</ele><time>2026-04-17T11:32:32.521Z</time></trkpt><trkpt lat="46.338535" lon="12.33105"><ele>531.0</ele><time>2026-04-17T11:32:33.522Z</time></trkpt><trkpt lat="46.338345" lon="12.3310683"><ele>533.0</ele><time>2026-04-17T11:32:34.52Z</time></trkpt><trkpt lat="46.3381567" lon="12.3311517"><ele>535.0</ele><time>2026-04-17T11:32:35.521Z</time></trkpt><trkpt lat="46.3379733" lon="12.3312317"><ele>541.6666666666667</ele><time>2026-04-17T11:32:36.522Z</time></trkpt><trkpt lat="46.3377817" lon="12.3312783"><ele>548.3333333333334</ele><time>2026-04-17T11:32:37.521Z</time></trkpt><trkpt lat="46.3375733" lon="12.3312933"><ele>555.0</ele><time>2026-04-17T11:32:38.522Z</time></trkpt><trkpt lat="46.33735" lon="12.3312917"><ele>549.0</ele><time>2026-04-17T11:32:39.521Z</time></trkpt><trkpt lat="46.3371167" lon="12.331285"><ele>543.0</ele><time>2026-04-17T11:32:40.521Z</time></trkpt><trkpt lat="46.3368733" lon="12.331275"><ele>543.0</ele><time>2026-04-17T11:32:41.522Z</time></trkpt><trkpt lat="46.3366367" lon="12.3312783"><ele>543.0</ele><time>2026-04-17T11:32:42.522Z</time></trkpt><trkpt lat="46.3364133" lon="12.3312767"><ele>543.6666666666666</ele><time>2026-04-17T11:32:43.522Z</time></trkpt><trkpt lat="46.3362033" lon="12.331245"><ele>544.3333333333333</ele><time>2026-04-17T11:32:44.522Z</time></trkpt><trkpt lat="46.336" lon="12.33118"><ele>545.0</ele><time>2026-04-17T11:32:45.521Z</time></trkpt><trkpt lat="46.3358067" lon="12.3311217"><ele>545.0</ele><time>2026-04-17T11:32:46.521Z</time></trkpt><trkpt lat="46.3356217" lon="12.331095"><ele>545.0</ele><time>2026-04-17T11:32:47.522Z</time></trkpt><trkpt lat="46.3354417" lon="12.33111"><ele>545.0</ele><time>2026-04-17T11:32:48.521Z</time></trkpt><trkpt lat="46.33526" lon="12.3311433"><ele>546.3333333333333</ele><time>2026-04-17T11:32:49.522Z</time></trkpt><trkpt lat="46.335095" lon="12.3311283"><ele>547.6666666666666</ele><time>2026-04-17T11:32:50.522Z</time></trkpt><trkpt lat="46.3349283" lon="12.331105"><ele>549.0</ele><time>2026-04-17T11:32:51.521Z</time></trkpt><trkpt lat="46.33476" lon="12.3310417"><ele>544.3333333333334</ele><time>2026-04-17T11:32:52.522Z</time></trkpt><trkpt lat="46.3345867" lon="12.3309983"><ele>539.6666666666667</ele><time>2026-04-17T11:32:53.521Z</time></trkpt><trkpt lat="46.3344133" lon="12.3309883"><ele>535.0</ele><time>2026-04-17T11:32:54.522Z</time></trkpt><trkpt lat="46.33427" lon="12.331"><ele>535.0</ele><time>2026-04-17T11:32:55.521Z</time></trkpt><trkpt lat="46.3340867" lon="12.3309883"><ele>535.0</ele><time>2026-04-17T11:32:56.521Z</time></trkpt><trkpt lat="46.333905" lon="12.3309567"><ele>535.0</ele><time>2026-04-17T11:32:57.522Z</time></trkpt><trkpt lat="46.333725" lon="12.33091"><ele>523.3333333333334</ele><time>2026-04-17T11:32:58.521Z</time></trkpt><trkpt lat="46.3335583" lon="12.330835"><ele>511.66666666666663</ele><time>2026-04-17T11:32:59.521Z</time></trkpt><trkpt lat="46.3333917" lon="12.3307417"><ele>500.0</ele><time>2026-04-17T11:33:00.522Z</time></trkpt><trkpt lat="46.333235" lon="12.3306067"><ele>495.0</ele><time>2026-04-17T11:33:01.522Z</time></trkpt><trkpt lat="46.3330867" lon="12.3304383"><ele>490.0</ele><time>2026-04-17T11:33:02.523Z</time></trkpt><trkpt lat="46.332955" lon="12.33028"><ele>485.0</ele><time>2026-04-17T11:33:03.521Z</time></trkpt><trkpt lat="46.3328367" lon="12.3301033"><ele>485.0</ele><time>2026-04-17T11:33:04.521Z</time></trkpt><trkpt lat="46.332735" lon="12.3299033"><ele>485.0</ele><time>2026-04-17T11:33:05.521Z</time></trkpt><trkpt lat="46.332655" lon="12.3296367"><ele>485.0</ele><time>2026-04-17T11:33:06.522Z</time></trkpt><trkpt lat="46.3325667" lon="12.329285"><ele>492.0</ele><time>2026-04-17T11:33:07.521Z</time></trkpt><trkpt lat="46.332455" lon="12.3289567"><ele>499.0</ele><time>2026-04-17T11:33:08.522Z</time></trkpt><trkpt lat="46.33232" lon="12.32865"><ele>493.5</ele><time>2026-04-17T11:33:09.523Z</time></trkpt><trkpt lat="46.332165" lon="12.3283683"><ele>488.0</ele><time>2026-04-17T11:33:10.52Z</time></trkpt><trkpt lat="46.3319933" lon="12.3280967"><ele>498.5</ele><time>2026-04-17T11:33:11.521Z</time></trkpt><trkpt lat="46.3317967" lon="12.3278533"><ele>509.0</ele><time>2026-04-17T11:33:12.521Z</time></trkpt><trkpt lat="46.331585" lon="12.32762"><ele>495.0</ele><time>2026-04-17T11:33:13.522Z</time></trkpt><trkpt lat="46.33138" lon="12.3273983"><ele>481.0</ele><time>2026-04-17T11:33:14.523Z</time></trkpt><trkpt lat="46.3311783" lon="12.327195"><ele>510.5</ele><time>2026-04-17T11:33:15.52Z</time></trkpt><trkpt lat="46.330975" lon="12.3270217"><ele>540.0</ele><time>2026-04-17T11:33:16.521Z</time></trkpt><trkpt lat="46.3307533" lon="12.3268833"><ele>515.5</ele><time>2026-04-17T11:33:17.522Z</time></trkpt><trkpt lat="46.3305333" lon="12.326775"><ele>491.0</ele><time>2026-04-17T11:33:18.521Z</time></trkpt><trkpt lat="46.330315" lon="12.3266933"><ele>491.0</ele><time>2026-04-17T11:33:19.521Z</time></trkpt><trkpt lat="46.3301133" lon="12.3266083"><ele>491.0</ele><time>2026-04-17T11:33:20.521Z</time></trkpt><trkpt lat="46.3299333" lon="12.326515"><ele>491.0</ele><time>2026-04-17T11:33:21.522Z</time></trkpt><trkpt lat="46.329785" lon="12.32643"><ele>489.5</ele><time>2026-04-17T11:33:22.518Z</time></trkpt><trkpt lat="46.3296667" lon="12.326345"><ele>488.0</ele><time>2026-04-17T11:33:23.521Z</time></trkpt><trkpt lat="46.32957" lon="12.32625"><ele>486.5</ele><time>2026-04-17T11:33:24.522Z</time></trkpt><trkpt lat="46.3295033" lon="12.3261083"><ele>485.0</ele><time>2026-04-17T11:33:25.522Z</time></trkpt><trkpt lat="46.3294533" lon="12.3259283"><ele>485.0</ele><time>2026-04-17T11:33:26.521Z</time></trkpt><trkpt lat="46.3294017" lon="12.3257233"><ele>485.0</ele><time>2026-04-17T11:33:27.521Z</time></trkpt><trkpt lat="46.32934" lon="12.3255033"><ele>485.0</ele><time>2026-04-17T11:33:28.522Z</time></trkpt><trkpt lat="46.329255" lon="12.3252817"><ele>484.66666666666663</ele><time>2026-04-17T11:33:29.522Z</time></trkpt><trkpt lat="46.3291717" lon="12.3250617"><ele>484.33333333333337</ele><time>2026-04-17T11:33:30.521Z</time></trkpt><trkpt lat="46.3290883" lon="12.32487"><ele>484.0</ele><time>2026-04-17T11:33:31.521Z</time></trkpt><trkpt lat="46.3290217" lon="12.3246983"><ele>484.0</ele><time>2026-04-17T11:33:32.522Z</time></trkpt><trkpt lat="46.3289567" lon="12.3245483"><ele>484.0</ele><time>2026-04-17T11:33:33.522Z</time></trkpt><trkpt lat="46.3289" lon="12.32441"><ele>484.0</ele><time>2026-04-17T11:33:34.522Z</time></trkpt><trkpt lat="46.3288433" lon="12.3242817"><ele>484.0</ele><time>2026-04-17T11:33:35.521Z</time></trkpt><trkpt lat="46.3287917" lon="12.32416"><ele>484.0</ele><time>2026-04-17T11:33:36.523Z</time></trkpt><trkpt lat="46.3287417" lon="12.3240467"><ele>483.6</ele><time>2026-04-17T11:33:37.522Z</time></trkpt><trkpt lat="46.328695" lon="12.3239417"><ele>483.2</ele><time>2026-04-17T11:33:38.522Z</time></trkpt><trkpt lat="46.3286467" lon="12.3238367"><ele>482.80000000000007</ele><time>2026-04-17T11:33:39.522Z</time></trkpt><trkpt lat="46.3285917" lon="12.3237233"><ele>482.40000000000003</ele><time>2026-04-17T11:33:40.522Z</time></trkpt><trkpt lat="46.3285233" lon="12.3236033"><ele>482.0</ele><time>2026-04-17T11:33:41.521Z</time></trkpt><trkpt lat="46.3284467" lon="12.3234733"><ele>482.0</ele><time>2026-04-17T11:33:42.522Z</time></trkpt><trkpt lat="46.32836" lon="12.323345"><ele>482.0</ele><time>2026-04-17T11:33:43.521Z</time></trkpt><trkpt lat="46.328255" lon="12.32322"><ele>482.0</ele><time>2026-04-17T11:33:44.522Z</time></trkpt><trkpt lat="46.328135" lon="12.3230983"><ele>482.0</ele><time>2026-04-17T11:33:45.521Z</time></trkpt><trkpt lat="46.3280033" lon="12.3229783"><ele>483.0</ele><time>2026-04-17T11:33:46.52Z</time></trkpt><trkpt lat="46.3278617" lon="12.322855"><ele>484.0</ele><time>2026-04-17T11:33:47.522Z</time></trkpt><trkpt lat="46.32771" lon="12.3227267"><ele>485.0</ele><time>2026-04-17T11:33:48.522Z</time></trkpt><trkpt lat="46.32755" lon="12.3225967"><ele>485.0</ele><time>2026-04-17T11:33:49.522Z</time></trkpt><trkpt lat="46.327395" lon="12.3224667"><ele>485.0</ele><time>2026-04-17T11:33:50.522Z</time></trkpt><trkpt lat="46.327255" lon="12.3223267"><ele>485.0</ele><time>2026-04-17T11:33:51.521Z</time></trkpt><trkpt lat="46.3271467" lon="12.32215"><ele>480.66666666666663</ele><time>2026-04-17T11:33:52.522Z</time></trkpt><trkpt lat="46.3270533" lon="12.3219517"><ele>476.33333333333337</ele><time>2026-04-17T11:33:53.522Z</time></trkpt><trkpt lat="46.3269767" lon="12.3217217"><ele>472.0</ele><time>2026-04-17T11:33:54.521Z</time></trkpt><trkpt lat="46.3269333" lon="12.3214567"><ele>474.6666666666667</ele><time>2026-04-17T11:33:55.522Z</time></trkpt><trkpt lat="46.3268783" lon="12.3211883"><ele>477.33333333333337</ele><time>2026-04-17T11:33:56.522Z</time></trkpt><trkpt lat="46.32681" lon="12.3209233"><ele>480.0</ele><time>2026-04-17T11:33:57.522Z</time></trkpt><trkpt lat="46.32671" lon="12.32068"><ele>478.66666666666663</ele><time>2026-04-17T11:33:58.522Z</time></trkpt><trkpt lat="46.3265767" lon="12.32046"><ele>477.3333333333333</ele><time>2026-04-17T11:33:59.522Z</time></trkpt><trkpt lat="46.3264117" lon="12.3202533"><ele>476.0</ele><time>2026-04-17T11:34:00.522Z</time></trkpt><trkpt lat="46.3262317" lon="12.3200367"><ele>476.0</ele><time>2026-04-17T11:34:01.524Z</time></trkpt><trkpt lat="46.3260383" lon="12.3198067"><ele>476.0</ele><time>2026-04-17T11:34:02.521Z</time></trkpt><trkpt lat="46.3258333" lon="12.3195783"><ele>477.5</ele><time>2026-04-17T11:34:03.521Z</time></trkpt><trkpt lat="46.3256333" lon="12.3193583"><ele>479.0</ele><time>2026-04-17T11:34:04.52Z</time></trkpt><trkpt lat="46.3254417" lon="12.319155"><ele>479.0</ele><time>2026-04-17T11:34:05.522Z</time></trkpt><trkpt lat="46.3252683" lon="12.3189667"><ele>479.0</ele><time>2026-04-17T11:34:06.522Z</time></trkpt><trkpt lat="46.3251183" lon="12.3187933"><ele>479.0</ele><time>2026-04-17T11:34:07.52Z</time></trkpt><trkpt lat="46.3249967" lon="12.3186167"><ele>483.66666666666663</ele><time>2026-04-17T11:34:08.523Z</time></trkpt><trkpt lat="46.32491" lon="12.3184283"><ele>488.33333333333337</ele><time>2026-04-17T11:34:09.523Z</time></trkpt><trkpt lat="46.324845" lon="12.3182117"><ele>493.0</ele><time>2026-04-17T11:34:10.522Z</time></trkpt><trkpt lat="46.3247983" lon="12.3179683"><ele>496.6666666666667</ele><time>2026-04-17T11:34:11.523Z</time></trkpt><trkpt lat="46.32475" lon="12.3177333"><ele>500.33333333333337</ele><time>2026-04-17T11:34:12.523Z</time></trkpt><trkpt lat="46.3246917" lon="12.3175217"><ele>504.0</ele><time>2026-04-17T11:34:13.523Z</time></trkpt><trkpt lat="46.32461" lon="12.3173383"><ele>505.33333333333337</ele><time>2026-04-17T11:34:14.524Z</time></trkpt><trkpt lat="46.3244983" lon="12.3171783"><ele>506.6666666666667</ele><time>2026-04-17T11:34:15.523Z</time></trkpt><trkpt lat="46.32436" lon="12.317035"><ele>508.0</ele><time>2026-04-17T11:34:16.524Z</time></trkpt><trkpt lat="46.3242083" lon="12.3169033"><ele>508.0</ele><time>2026-04-17T11:34:17.523Z</time></trkpt><trkpt lat="46.3240483" lon="12.3167883"><ele>508.0</ele><time>2026-04-17T11:34:18.523Z</time></trkpt><trkpt lat="46.323885" lon="12.3167067"><ele>508.0</ele><time>2026-04-17T11:34:19.523Z</time></trkpt><trkpt lat="46.323715" lon="12.316655"><ele>504.0</ele><time>2026-04-17T11:34:20.523Z</time></trkpt><trkpt lat="46.3235317" lon="12.31662"><ele>500.0</ele><time>2026-04-17T11:34:21.521Z</time></trkpt><trkpt lat="46.3233267" lon="12.3165917"><ele>496.0</ele><time>2026-04-17T11:34:22.521Z</time></trkpt><trkpt lat="46.3230983" lon="12.316595"><ele>490.5</ele><time>2026-04-17T11:34:23.521Z</time></trkpt><trkpt lat="46.3228733" lon="12.3165617"><ele>485.0</ele><time>2026-04-17T11:34:24.522Z</time></trkpt><trkpt lat="46.3226467" lon="12.3165317"><ele>485.0</ele><time>2026-04-17T11:34:25.522Z</time></trkpt><trkpt lat="46.322415" lon="12.316505"><ele>485.0</ele><time>2026-04-17T11:34:26.522Z</time></trkpt><trkpt lat="46.3221867" lon="12.3165017"><ele>482.66666666666663</ele><time>2026-04-17T11:34:27.52Z</time></trkpt><trkpt lat="46.3219667" lon="12.3165083"><ele>480.33333333333337</ele><time>2026-04-17T11:34:28.522Z</time></trkpt><trkpt lat="46.3217583" lon="12.316525"><ele>478.0</ele><time>2026-04-17T11:34:29.522Z</time></trkpt><trkpt lat="46.3215433" lon="12.3165433"><ele>480.0</ele><time>2026-04-17T11:34:30.522Z</time></trkpt><trkpt lat="46.32133" lon="12.3165667"><ele>482.0</ele><time>2026-04-17T11:34:31.521Z</time></trkpt><trkpt lat="46.3211167" lon="12.31657"><ele>484.0</ele><time>2026-04-17T11:34:32.521Z</time></trkpt><trkpt lat="46.3208867" lon="12.3165417"><ele>484.0</ele><time>2026-04-17T11:34:33.521Z</time></trkpt><trkpt lat="46.3206283" lon="12.31648"><ele>484.0</ele><time>2026-04-17T11:34:34.521Z</time></trkpt><trkpt lat="46.3203683" lon="12.3164083"><ele>500.5</ele><time>2026-04-17T11:34:35.522Z</time></trkpt><trkpt lat="46.3201117" lon="12.3163617"><ele>517.0</ele><time>2026-04-17T11:34:36.521Z</time></trkpt><trkpt lat="46.3198467" lon="12.3163667"><ele>510.0</ele><time>2026-04-17T11:34:37.521Z</time></trkpt><trkpt lat="46.3195933" lon="12.3163917"><ele>503.0</ele><time>2026-04-17T11:34:38.52Z</time></trkpt><trkpt lat="46.3193667" lon="12.316415"><ele>497.3333333333333</ele><time>2026-04-17T11:34:39.521Z</time></trkpt><trkpt lat="46.3191667" lon="12.316435"><ele>491.66666666666663</ele><time>2026-04-17T11:34:40.521Z</time></trkpt><trkpt lat="46.3189767" lon="12.3164167"><ele>486.0</ele><time>2026-04-17T11:34:41.52Z</time></trkpt><trkpt lat="46.318785" lon="12.3163467"><ele>486.0</ele><time>2026-04-17T11:34:42.521Z</time></trkpt><trkpt lat="46.31859" lon="12.316245"><ele>486.0</ele><time>2026-04-17T11:34:43.522Z</time></trkpt><trkpt lat="46.3183917" lon="12.3161617"><ele>486.0</ele><time>2026-04-17T11:34:44.521Z</time></trkpt><trkpt lat="46.3181867" lon="12.3161267"><ele>501.0</ele><time>2026-04-17T11:34:45.522Z</time></trkpt><trkpt lat="46.3179833" lon="12.31615"><ele>516.0</ele><time>2026-04-17T11:34:46.521Z</time></trkpt><trkpt lat="46.3177933" lon="12.3162267"><ele>531.0</ele><time>2026-04-17T11:34:47.521Z</time></trkpt><trkpt lat="46.3176183" lon="12.3163633"><ele>519.6666666666666</ele><time>2026-04-17T11:34:48.521Z</time></trkpt><trkpt lat="46.3174567" lon="12.31654"><ele>508.3333333333333</ele><time>2026-04-17T11:34:49.52Z</time></trkpt><trkpt lat="46.31731" lon="12.316745"><ele>497.0</ele><time>2026-04-17T11:34:50.522Z</time></trkpt><trkpt lat="46.3171683" lon="12.3169717"><ele>508.0</ele><time>2026-04-17T11:34:51.521Z</time></trkpt><trkpt lat="46.31703" lon="12.3172217"><ele>519.0</ele><time>2026-04-17T11:34:52.521Z</time></trkpt><trkpt lat="46.31688" lon="12.317485"><ele>519.0</ele><time>2026-04-17T11:34:53.52Z</time></trkpt><trkpt lat="46.31672" lon="12.3177617"><ele>519.0</ele><time>2026-04-17T11:34:54.521Z</time></trkpt><trkpt lat="46.3165583" lon="12.3180433"><ele>517.5</ele><time>2026-04-17T11:34:55.521Z</time></trkpt><trkpt lat="46.316375" lon="12.3183367"><ele>516.0</ele><time>2026-04-17T11:34:56.522Z</time></trkpt><trkpt lat="46.3161867" lon="12.3186367"><ele>497.0</ele><time>2026-04-17T11:34:57.521Z</time></trkpt><trkpt lat="46.31599" lon="12.318915"><ele>478.0</ele><time>2026-04-17T11:34:58.521Z</time></trkpt><trkpt lat="46.3158033" lon="12.31917"><ele>478.0</ele><time>2026-04-17T11:34:59.522Z</time></trkpt><trkpt lat="46.3156317" lon="12.3194183"><ele>478.0</ele><time>2026-04-17T11:35:00.522Z</time></trkpt><trkpt lat="46.3154733" lon="12.3196917"><ele>490.5</ele><time>2026-04-17T11:35:01.523Z</time></trkpt><trkpt lat="46.3153133" lon="12.31999"><ele>503.0</ele><time>2026-04-17T11:35:02.522Z</time></trkpt><trkpt lat="46.3151383" lon="12.320285"><ele>491.0</ele><time>2026-04-17T11:35:03.521Z</time></trkpt><trkpt lat="46.3149583" lon="12.3205733"><ele>479.0</ele><time>2026-04-17T11:35:04.52Z</time></trkpt><trkpt lat="46.3147767" lon="12.320875"><ele>498.5</ele><time>2026-04-17T11:35:05.522Z</time></trkpt><trkpt lat="46.3146067" lon="12.3212033"><ele>518.0</ele><time>2026-04-17T11:35:06.522Z</time></trkpt><trkpt lat="46.3144433" lon="12.3215183"><ele>518.0</ele><time>2026-04-17T11:35:07.521Z</time></trkpt><trkpt lat="46.314295" lon="12.3218067"><ele>518.0</ele><time>2026-04-17T11:35:08.521Z</time></trkpt><trkpt lat="46.3141567" lon="12.32206"><ele>518.0</ele><time>2026-04-17T11:35:09.521Z</time></trkpt><trkpt lat="46.3140317" lon="12.3222867"><ele>518.0</ele><time>2026-04-17T11:35:10.52Z</time></trkpt><trkpt lat="46.3139133" lon="12.3224733"><ele>518.0</ele><time>2026-04-17T11:35:11.521Z</time></trkpt><trkpt lat="46.3137983" lon="12.3226"><ele>518.0</ele><time>2026-04-17T11:35:12.521Z</time></trkpt><trkpt lat="46.3136633" lon="12.3227017"><ele>518.0</ele><time>2026-04-17T11:35:13.523Z</time></trkpt><trkpt lat="46.31348" lon="12.322765"><ele>518.0</ele><time>2026-04-17T11:35:14.521Z</time></trkpt><trkpt lat="46.313315" lon="12.3228333"><ele>518.0</ele><time>2026-04-17T11:35:15.521Z</time></trkpt><trkpt lat="46.3131383" lon="12.3228833"><ele>518.0</ele><time>2026-04-17T11:35:16.521Z</time></trkpt><trkpt lat="46.3129217" lon="12.3228783"><ele>518.0</ele><time>2026-04-17T11:35:17.522Z</time></trkpt><trkpt lat="46.3126667" lon="12.3228967"><ele>521.0</ele><time>2026-04-17T11:35:18.521Z</time></trkpt><trkpt lat="46.3124217" lon="12.3229783"><ele>524.0</ele><time>2026-04-17T11:35:19.522Z</time></trkpt><trkpt lat="46.31219" lon="12.3230967"><ele>506.5</ele><time>2026-04-17T11:35:20.521Z</time></trkpt><trkpt lat="46.3119617" lon="12.3232083"><ele>489.0</ele><time>2026-04-17T11:35:21.521Z</time></trkpt><trkpt lat="46.3117267" lon="12.3232917"><ele>489.0</ele><time>2026-04-17T11:35:22.521Z</time></trkpt><trkpt lat="46.3114783" lon="12.3233517"><ele>489.0</ele><time>2026-04-17T11:35:23.521Z</time></trkpt><trkpt lat="46.3112333" lon="12.3234067"><ele>500.66666666666663</ele><time>2026-04-17T11:35:24.521Z</time></trkpt><trkpt lat="46.311005" lon="12.323455"><ele>512.3333333333333</ele><time>2026-04-17T11:35:25.521Z</time></trkpt><trkpt lat="46.3107967" lon="12.3235117"><ele>524.0</ele><time>2026-04-17T11:35:26.521Z</time></trkpt><trkpt lat="46.31062" lon="12.3235917"><ele>531.3333333333333</ele><time>2026-04-17T11:35:27.521Z</time></trkpt><trkpt lat="46.3104683" lon="12.3236867"><ele>538.6666666666666</ele><time>2026-04-17T11:35:28.521Z</time></trkpt><trkpt lat="46.31034" lon="12.3237917"><ele>546.0</ele><time>2026-04-17T11:35:29.521Z</time></trkpt><trkpt lat="46.3102083" lon="12.323885"><ele>524.3333333333334</ele><time>2026-04-17T11:35:30.521Z</time></trkpt><trkpt lat="46.3100683" lon="12.3239767"><ele>502.6666666666667</ele><time>2026-04-17T11:35:31.521Z</time></trkpt><trkpt lat="46.30992" lon="12.32403"><ele>481.0</ele><time>2026-04-17T11:35:32.521Z</time></trkpt><trkpt lat="46.30974" lon="12.3240383"><ele>475.0</ele><time>2026-04-17T11:35:33.521Z</time></trkpt><trkpt lat="46.30954" lon="12.3240733"><ele>469.0</ele><time>2026-04-17T11:35:34.521Z</time></trkpt><trkpt lat="46.3093067" lon="12.324035"><ele>463.0</ele><time>2026-04-17T11:35:35.522Z</time></trkpt><trkpt lat="46.3090883" lon="12.3240467"><ele>469.0</ele><time>2026-04-17T11:35:36.523Z</time></trkpt><trkpt lat="46.3088467" lon="12.3241167"><ele>475.0</ele><time>2026-04-17T11:35:37.522Z</time></trkpt><trkpt lat="46.3086183" lon="12.3242117"><ele>475.0</ele><time>2026-04-17T11:35:38.523Z</time></trkpt><trkpt lat="46.30839" lon="12.32431"><ele>475.0</ele><time>2026-04-17T11:35:39.522Z</time></trkpt><trkpt lat="46.3081517" lon="12.324385"><ele>486.5</ele><time>2026-04-17T11:35:40.523Z</time></trkpt><trkpt lat="46.3079133" lon="12.3244467"><ele>498.0</ele><time>2026-04-17T11:35:41.523Z</time></trkpt><trkpt lat="46.3076617" lon="12.324495"><ele>498.0</ele><time>2026-04-17T11:35:42.523Z</time></trkpt><trkpt lat="46.30741" lon="12.3245167"><ele>498.0</ele><time>2026-04-17T11:35:43.523Z</time></trkpt><trkpt lat="46.30718" lon="12.32454"><ele>495.5</ele><time>2026-04-17T11:35:44.522Z</time></trkpt><trkpt lat="46.3069517" lon="12.32457"><ele>493.0</ele><time>2026-04-17T11:35:45.523Z</time></trkpt><trkpt lat="46.3067133" lon="12.3245767"><ele>493.0</ele><time>2026-04-17T11:35:46.522Z</time></trkpt><trkpt lat="46.3064817" lon="12.3245467"><ele>493.0</ele><time>2026-04-17T11:35:47.522Z</time></trkpt><trkpt lat="46.3062433" lon="12.3244883"><ele>486.0</ele><time>2026-04-17T11:35:48.522Z</time></trkpt><trkpt lat="46.3060133" lon="12.324405"><ele>479.0</ele><time>2026-04-17T11:35:49.521Z</time></trkpt><trkpt lat="46.305795" lon="12.3242983"><ele>479.0</ele><time>2026-04-17T11:35:50.523Z</time></trkpt><trkpt lat="46.305595" lon="12.324145"><ele>479.0</ele><time>2026-04-17T11:35:51.522Z</time></trkpt><trkpt lat="46.305405" lon="12.3240033"><ele>479.0</ele><time>2026-04-17T11:35:52.522Z</time></trkpt><trkpt lat="46.305205" lon="12.3239183"><ele>484.0</ele><time>2026-04-17T11:35:53.523Z</time></trkpt><trkpt lat="46.3049967" lon="12.32386"><ele>489.0</ele><time>2026-04-17T11:35:54.523Z</time></trkpt><trkpt lat="46.304795" lon="12.3238617"><ele>494.0</ele><time>2026-04-17T11:35:55.523Z</time></trkpt><trkpt lat="46.3046" lon="12.3238833"><ele>494.0</ele><time>2026-04-17T11:35:56.523Z</time></trkpt><trkpt lat="46.3044067" lon="12.323915"><ele>494.0</ele><time>2026-04-17T11:35:57.523Z</time></trkpt><trkpt lat="46.3042183" lon="12.3238767"><ele>494.0</ele><time>2026-04-17T11:35:58.523Z</time></trkpt><trkpt lat="46.304025" lon="12.323805"><ele>485.66666666666663</ele><time>2026-04-17T11:35:59.522Z</time></trkpt><trkpt lat="46.3038483" lon="12.32371"><ele>477.33333333333337</ele><time>2026-04-17T11:36:00.523Z</time></trkpt><trkpt lat="46.3036767" lon="12.3236"><ele>469.0</ele><time>2026-04-17T11:36:01.523Z</time></trkpt><trkpt lat="46.303515" lon="12.3234633"><ele>469.0</ele><time>2026-04-17T11:36:02.523Z</time></trkpt><trkpt lat="46.303355" lon="12.3232983"><ele>469.0</ele><time>2026-04-17T11:36:03.523Z</time></trkpt><trkpt lat="46.3032183" lon="12.3231067"><ele>469.0</ele><time>2026-04-17T11:36:04.523Z</time></trkpt><trkpt lat="46.3030933" lon="12.3229017"><ele>469.0</ele><time>2026-04-17T11:36:05.523Z</time></trkpt><trkpt lat="46.3029967" lon="12.3226167"><ele>469.0</ele><time>2026-04-17T11:36:06.523Z</time></trkpt><trkpt lat="46.30288" lon="12.3223417"><ele>469.0</ele><time>2026-04-17T11:36:07.523Z</time></trkpt><trkpt lat="46.3027583" lon="12.3220367"><ele>469.0</ele><time>2026-04-17T11:36:08.523Z</time></trkpt><trkpt lat="46.3026433" lon="12.3217083"><ele>469.0</ele><time>2026-04-17T11:36:09.525Z</time></trkpt><trkpt lat="46.3025367" lon="12.3213567"><ele>472.5</ele><time>2026-04-17T11:36:10.521Z</time></trkpt><trkpt lat="46.3024233" lon="12.320995"><ele>476.0</ele><time>2026-04-17T11:36:11.524Z</time></trkpt><trkpt lat="46.302305" lon="12.3206133"><ele>466.0</ele><time>2026-04-17T11:36:12.523Z</time></trkpt><trkpt lat="46.3021833" lon="12.3202167"><ele>456.0</ele><time>2026-04-17T11:36:13.524Z</time></trkpt><trkpt lat="46.3020583" lon="12.31981"><ele>458.5</ele><time>2026-04-17T11:36:14.522Z</time></trkpt><trkpt lat="46.3019333" lon="12.3193917"><ele>461.0</ele><time>2026-04-17T11:36:15.523Z</time></trkpt><trkpt lat="46.301815" lon="12.3189767"><ele>469.0</ele><time>2026-04-17T11:36:16.523Z</time></trkpt><trkpt lat="46.3016967" lon="12.3185817"><ele>477.0</ele><time>2026-04-17T11:36:17.523Z</time></trkpt><trkpt lat="46.3015867" lon="12.3182167"><ele>471.0</ele><time>2026-04-17T11:36:18.523Z</time></trkpt><trkpt lat="46.3014583" lon="12.3178833"><ele>465.0</ele><time>2026-04-17T11:36:19.522Z</time></trkpt><trkpt lat="46.3013033" lon="12.3175733"><ele>465.0</ele><time>2026-04-17T11:36:20.522Z</time></trkpt><trkpt lat="46.3011217" lon="12.3172783"><ele>465.0</ele><time>2026-04-17T11:36:21.521Z</time></trkpt><trkpt lat="46.3009167" lon="12.3170183"><ele>461.5</ele><time>2026-04-17T11:36:22.523Z</time></trkpt><trkpt lat="46.30073" lon="12.3167733"><ele>458.0</ele><time>2026-04-17T11:36:23.523Z</time></trkpt><trkpt lat="46.3005633" lon="12.31656"><ele>466.3333333333333</ele><time>2026-04-17T11:36:24.522Z</time></trkpt><trkpt lat="46.3004167" lon="12.3163617"><ele>474.66666666666663</ele><time>2026-04-17T11:36:25.523Z</time></trkpt><trkpt lat="46.3002817" lon="12.3161583"><ele>483.0</ele><time>2026-04-17T11:36:26.523Z</time></trkpt><trkpt lat="46.30016" lon="12.31593"><ele>483.0</ele><time>2026-04-17T11:36:27.523Z</time></trkpt><trkpt lat="46.3000483" lon="12.3156933"><ele>483.0</ele><time>2026-04-17T11:36:28.523Z</time></trkpt><trkpt lat="46.2999383" lon="12.3154717"><ele>483.0</ele><time>2026-04-17T11:36:29.523Z</time></trkpt><trkpt lat="46.2997933" lon="12.3152867"><ele>479.66666666666663</ele><time>2026-04-17T11:36:30.523Z</time></trkpt><trkpt lat="46.2996067" lon="12.31514"><ele>476.3333333333333</ele><time>2026-04-17T11:36:31.523Z</time></trkpt><trkpt lat="46.2993917" lon="12.3150033"><ele>473.0</ele><time>2026-04-17T11:36:32.522Z</time></trkpt><trkpt lat="46.299155" lon="12.3148567"><ele>476.0</ele><time>2026-04-17T11:36:33.521Z</time></trkpt><trkpt lat="46.298915" lon="12.3146717"><ele>479.0</ele><time>2026-04-17T11:36:34.521Z</time></trkpt><trkpt lat="46.2986783" lon="12.31448"><ele>479.0</ele><time>2026-04-17T11:36:35.525Z</time></trkpt><trkpt lat="46.298465" lon="12.3142783"><ele>479.0</ele><time>2026-04-17T11:36:36.523Z</time></trkpt><trkpt lat="46.2982533" lon="12.31412"><ele>484.5</ele><time>2026-04-17T11:36:37.52Z</time></trkpt><trkpt lat="46.298045" lon="12.3140233"><ele>490.0</ele><time>2026-04-17T11:36:38.521Z</time></trkpt><trkpt lat="46.2976583" lon="12.3137667"><ele>490.0</ele><time>2026-04-17T11:36:40.52Z</time></trkpt><trkpt lat="46.2974817" lon="12.31354"><ele>490.0</ele><time>2026-04-17T11:36:41.521Z</time></trkpt><trkpt lat="46.29729" lon="12.3132767"><ele>483.5</ele><time>2026-04-17T11:36:42.523Z</time></trkpt><trkpt lat="46.2970883" lon="12.31304"><ele>477.0</ele><time>2026-04-17T11:36:43.525Z</time></trkpt><trkpt lat="46.2966917" lon="12.31262"><ele>477.0</ele><time>2026-04-17T11:36:45.522Z</time></trkpt><trkpt lat="46.2965133" lon="12.31243"><ele>477.0</ele><time>2026-04-17T11:36:46.526Z</time></trkpt><trkpt lat="46.2962217" lon="12.3120967"><ele>474.5</ele><time>2026-04-17T11:36:48.521Z</time></trkpt><trkpt lat="46.2961067" lon="12.311975"><ele>472.0</ele><time>2026-04-17T11:36:49.523Z</time></trkpt><trkpt lat="46.296005" lon="12.3118683"><ele>469.5</ele><time>2026-04-17T11:36:50.521Z</time></trkpt><trkpt lat="46.2959133" lon="12.3117683"><ele>467.0</ele><time>2026-04-17T11:36:51.521Z</time></trkpt><trkpt lat="46.2958417" lon="12.3116633"><ele>467.0</ele><time>2026-04-17T11:36:52.521Z</time></trkpt><trkpt lat="46.2957817" lon="12.31156"><ele>467.0</ele><time>2026-04-17T11:36:53.523Z</time></trkpt><trkpt lat="46.295725" lon="12.3114617"><ele>467.0</ele><time>2026-04-17T11:36:54.522Z</time></trkpt><trkpt lat="46.2956717" lon="12.31136"><ele>467.0</ele><time>2026-04-17T11:36:55.522Z</time></trkpt><trkpt lat="46.295425" lon="12.310915"><ele>469.66666666666663</ele><time>2026-04-17T11:36:58.526Z</time></trkpt><trkpt lat="46.2952983" lon="12.3107467"><ele>472.33333333333337</ele><time>2026-04-17T11:36:59.523Z</time></trkpt><trkpt lat="46.29517" lon="12.3105867"><ele>475.0</ele><time>2026-04-17T11:37:00.523Z</time></trkpt><trkpt lat="46.295025" lon="12.3105"><ele>497.0</ele><time>2026-04-17T11:37:01.522Z</time></trkpt><trkpt lat="46.2948817" lon="12.31045"><ele>519.0</ele><time>2026-04-17T11:37:02.523Z</time></trkpt><trkpt lat="46.2947317" lon="12.31045"><ele>541.0</ele><time>2026-04-17T11:37:03.523Z</time></trkpt><trkpt lat="46.29456" lon="12.3104783"><ele>543.3333333333334</ele><time>2026-04-17T11:37:04.523Z</time></trkpt><trkpt lat="46.2943783" lon="12.3104917"><ele>545.6666666666666</ele><time>2026-04-17T11:37:05.521Z</time></trkpt><trkpt lat="46.2941867" lon="12.3104917"><ele>548.0</ele><time>2026-04-17T11:37:06.522Z</time></trkpt><trkpt lat="46.294015" lon="12.3104917"><ele>537.3333333333333</ele><time>2026-04-17T11:37:07.526Z</time></trkpt><trkpt lat="46.2938383" lon="12.3105283"><ele>526.6666666666666</ele><time>2026-04-17T11:37:08.523Z</time></trkpt><trkpt lat="46.2936667" lon="12.3105733"><ele>516.0</ele><time>2026-04-17T11:37:09.523Z</time></trkpt><trkpt lat="46.2935033" lon="12.3106083"><ele>501.33333333333337</ele><time>2026-04-17T11:37:10.523Z</time></trkpt><trkpt lat="46.2933317" lon="12.3106417"><ele>486.6666666666667</ele><time>2026-04-17T11:37:11.522Z</time></trkpt><trkpt lat="46.29315" lon="12.31067"><ele>472.0</ele><time>2026-04-17T11:37:12.523Z</time></trkpt><trkpt lat="46.2929567" lon="12.31068"><ele>470.0</ele><time>2026-04-17T11:37:13.521Z</time></trkpt><trkpt lat="46.2927567" lon="12.3106783"><ele>468.0</ele><time>2026-04-17T11:37:14.521Z</time></trkpt><trkpt lat="46.2925417" lon="12.31068"><ele>466.0</ele><time>2026-04-17T11:37:15.522Z</time></trkpt><trkpt lat="46.2923167" lon="12.3106683"><ele>467.0</ele><time>2026-04-17T11:37:16.521Z</time></trkpt><trkpt lat="46.292085" lon="12.310655"><ele>468.0</ele><time>2026-04-17T11:37:17.523Z</time></trkpt><trkpt lat="46.29184" lon="12.31063"><ele>468.0</ele><time>2026-04-17T11:37:18.522Z</time></trkpt><trkpt lat="46.2915867" lon="12.3105917"><ele>468.0</ele><time>2026-04-17T11:37:19.522Z</time></trkpt><trkpt lat="46.291315" lon="12.3105467"><ele>480.5</ele><time>2026-04-17T11:37:20.523Z</time></trkpt><trkpt lat="46.2910283" lon="12.3105117"><ele>493.0</ele><time>2026-04-17T11:37:21.522Z</time></trkpt><trkpt lat="46.29073" lon="12.31048"><ele>492.5</ele><time>2026-04-17T11:37:22.522Z</time></trkpt><trkpt lat="46.2904233" lon="12.310455"><ele>492.0</ele><time>2026-04-17T11:37:23.523Z</time></trkpt><trkpt lat="46.2901117" lon="12.3104433"><ele>492.0</ele><time>2026-04-17T11:37:24.522Z</time></trkpt><trkpt lat="46.289795" lon="12.310455"><ele>492.0</ele><time>2026-04-17T11:37:25.523Z</time></trkpt><trkpt lat="46.289485" lon="12.3104783"><ele>495.5</ele><time>2026-04-17T11:37:26.522Z</time></trkpt><trkpt lat="46.2891767" lon="12.3105217"><ele>499.0</ele><time>2026-04-17T11:37:27.523Z</time></trkpt><trkpt lat="46.2888667" lon="12.3105717"><ele>488.5</ele><time>2026-04-17T11:37:28.521Z</time></trkpt><trkpt lat="46.2885717" lon="12.3106167"><ele>478.0</ele><time>2026-04-17T11:37:29.522Z</time></trkpt><trkpt lat="46.2882867" lon="12.3106583"><ele>481.5</ele><time>2026-04-17T11:37:30.523Z</time></trkpt><trkpt lat="46.288" lon="12.3107017"><ele>485.0</ele><time>2026-04-17T11:37:31.522Z</time></trkpt><trkpt lat="46.2877167" lon="12.3107433"><ele>485.0</ele><time>2026-04-17T11:37:32.524Z</time></trkpt><trkpt lat="46.28744" lon="12.310785"><ele>485.0</ele><time>2026-04-17T11:37:33.526Z</time></trkpt><trkpt lat="46.2871733" lon="12.3108283"><ele>489.5</ele><time>2026-04-17T11:37:34.521Z</time></trkpt><trkpt lat="46.2869233" lon="12.3108667"><ele>494.0</ele><time>2026-04-17T11:37:35.522Z</time></trkpt><trkpt lat="46.286685" lon="12.310895"><ele>494.0</ele><time>2026-04-17T11:37:36.521Z</time></trkpt><trkpt lat="46.28646" lon="12.310905"><ele>494.0</ele><time>2026-04-17T11:37:37.521Z</time></trkpt><trkpt lat="46.2862467" lon="12.31088"><ele>494.0</ele><time>2026-04-17T11:37:38.522Z</time></trkpt><trkpt lat="46.2860333" lon="12.3108267"><ele>492.3333333333333</ele><time>2026-04-17T11:37:39.522Z</time></trkpt><trkpt lat="46.2858283" lon="12.310745"><ele>490.66666666666663</ele><time>2026-04-17T11:37:40.522Z</time></trkpt><trkpt lat="46.2856283" lon="12.3106067"><ele>489.0</ele><time>2026-04-17T11:37:41.523Z</time></trkpt><trkpt lat="46.28543" lon="12.31042"><ele>489.0</ele><time>2026-04-17T11:37:42.521Z</time></trkpt><trkpt lat="46.28523" lon="12.3102033"><ele>489.0</ele><time>2026-04-17T11:37:43.523Z</time></trkpt><trkpt lat="46.2850133" lon="12.3099917"><ele>489.0</ele><time>2026-04-17T11:37:44.522Z</time></trkpt><trkpt lat="46.2847783" lon="12.3097933"><ele>489.0</ele><time>2026-04-17T11:37:45.522Z</time></trkpt><trkpt lat="46.2845383" lon="12.3096133"><ele>490.5</ele><time>2026-04-17T11:37:46.524Z</time></trkpt><trkpt lat="46.2843117" lon="12.3094383"><ele>492.0</ele><time>2026-04-17T11:37:47.522Z</time></trkpt><trkpt lat="46.2841017" lon="12.3092533"><ele>491.0</ele><time>2026-04-17T11:37:48.522Z</time></trkpt><trkpt lat="46.283905" lon="12.3090533"><ele>490.0</ele><time>2026-04-17T11:37:49.522Z</time></trkpt><trkpt lat="46.283715" lon="12.3088583"><ele>490.0</ele><time>2026-04-17T11:37:50.522Z</time></trkpt><trkpt lat="46.2835433" lon="12.3086833"><ele>490.0</ele><time>2026-04-17T11:37:51.524Z</time></trkpt><trkpt lat="46.2833933" lon="12.3085317"><ele>490.0</ele><time>2026-04-17T11:37:52.522Z</time></trkpt><trkpt lat="46.2832633" lon="12.3084"><ele>490.0</ele><time>2026-04-17T11:37:53.523Z</time></trkpt><trkpt lat="46.2831633" lon="12.3082967"><ele>490.0</ele><time>2026-04-17T11:37:54.523Z</time></trkpt><trkpt lat="46.2830783" lon="12.3082033"><ele>490.0</ele><time>2026-04-17T11:37:55.522Z</time></trkpt><trkpt lat="46.2830033" lon="12.3081167"><ele>490.0</ele><time>2026-04-17T11:37:56.523Z</time></trkpt><trkpt lat="46.2829483" lon="12.30804"><ele>490.0</ele><time>2026-04-17T11:37:57.522Z</time></trkpt><trkpt lat="46.2829017" lon="12.3079667"><ele>489.4</ele><time>2026-04-17T11:37:58.522Z</time></trkpt><trkpt lat="46.2828533" lon="12.3079017"><ele>488.8</ele><time>2026-04-17T11:37:59.523Z</time></trkpt><trkpt lat="46.2827367" lon="12.3078417"><ele>488.20000000000005</ele><time>2026-04-17T11:38:01.524Z</time></trkpt><trkpt lat="46.2826417" lon="12.307875"><ele>487.6</ele><time>2026-04-17T11:38:02.523Z</time></trkpt><trkpt lat="46.2825217" lon="12.3079217"><ele>487.0</ele><time>2026-04-17T11:38:03.524Z</time></trkpt><trkpt lat="46.28239" lon="12.30797"><ele>485.5</ele><time>2026-04-17T11:38:04.523Z</time></trkpt><trkpt lat="46.2822617" lon="12.308035"><ele>484.0</ele><time>2026-04-17T11:38:05.523Z</time></trkpt><trkpt lat="46.282145" lon="12.3081233"><ele>482.5</ele><time>2026-04-17T11:38:06.522Z</time></trkpt><trkpt lat="46.2820467" lon="12.3082217"><ele>481.0</ele><time>2026-04-17T11:38:07.523Z</time></trkpt><trkpt lat="46.281965" lon="12.308315"><ele>479.8</ele><time>2026-04-17T11:38:08.523Z</time></trkpt><trkpt lat="46.2818833" lon="12.3083933"><ele>478.6</ele><time>2026-04-17T11:38:09.523Z</time></trkpt><trkpt lat="46.281785" lon="12.3084517"><ele>477.4</ele><time>2026-04-17T11:38:10.521Z</time></trkpt><trkpt lat="46.2816667" lon="12.3084883"><ele>476.2</ele><time>2026-04-17T11:38:11.522Z</time></trkpt><trkpt lat="46.2815567" lon="12.3085017"><ele>475.0</ele><time>2026-04-17T11:38:12.521Z</time></trkpt><trkpt lat="46.2814567" lon="12.308485"><ele>471.6</ele><time>2026-04-17T11:38:13.521Z</time></trkpt><trkpt lat="46.28137" lon="12.30843"><ele>468.2</ele><time>2026-04-17T11:38:14.522Z</time></trkpt><trkpt lat="46.28129" lon="12.308355"><ele>464.79999999999995</ele><time>2026-04-17T11:38:15.522Z</time></trkpt><trkpt lat="46.28123" lon="12.3082567"><ele>461.4</ele><time>2026-04-17T11:38:16.523Z</time></trkpt><trkpt lat="46.2811733" lon="12.3081117"><ele>458.0</ele><time>2026-04-17T11:38:17.522Z</time></trkpt><trkpt lat="46.281115" lon="12.3079267"><ele>458.0</ele><time>2026-04-17T11:38:18.522Z</time></trkpt><trkpt lat="46.2810633" lon="12.3077183"><ele>458.0</ele><time>2026-04-17T11:38:19.522Z</time></trkpt><trkpt lat="46.2810183" lon="12.3075017"><ele>458.0</ele><time>2026-04-17T11:38:20.522Z</time></trkpt><trkpt lat="46.280985" lon="12.3072667"><ele>458.66666666666663</ele><time>2026-04-17T11:38:21.522Z</time></trkpt><trkpt lat="46.280965" lon="12.307015"><ele>459.33333333333337</ele><time>2026-04-17T11:38:22.523Z</time></trkpt><trkpt lat="46.280955" lon="12.30677"><ele>460.0</ele><time>2026-04-17T11:38:23.522Z</time></trkpt><trkpt lat="46.2809533" lon="12.306525"><ele>458.0</ele><time>2026-04-17T11:38:24.522Z</time></trkpt><trkpt lat="46.28098" lon="12.3062817"><ele>456.0</ele><time>2026-04-17T11:38:25.522Z</time></trkpt><trkpt lat="46.28102" lon="12.3060567"><ele>454.0</ele><time>2026-04-17T11:38:26.522Z</time></trkpt><trkpt lat="46.281065" lon="12.3058667"><ele>454.0</ele><time>2026-04-17T11:38:27.522Z</time></trkpt><trkpt lat="46.281125" lon="12.3057067"><ele>454.0</ele><time>2026-04-17T11:38:28.521Z</time></trkpt><trkpt lat="46.2812033" lon="12.305575"><ele>454.0</ele><time>2026-04-17T11:38:29.523Z</time></trkpt><trkpt lat="46.281285" lon="12.30546"><ele>454.0</ele><time>2026-04-17T11:38:30.523Z</time></trkpt><trkpt lat="46.28134" lon="12.30534"><ele>453.83333333333337</ele><time>2026-04-17T11:38:31.521Z</time></trkpt><trkpt lat="46.281365" lon="12.3052167"><ele>453.6666666666667</ele><time>2026-04-17T11:38:32.521Z</time></trkpt><trkpt lat="46.281355" lon="12.3051033"><ele>453.5</ele><time>2026-04-17T11:38:33.524Z</time></trkpt><trkpt lat="46.281295" lon="12.305055"><ele>453.33333333333337</ele><time>2026-04-17T11:38:34.522Z</time></trkpt><trkpt lat="46.28122" lon="12.305045"><ele>453.1666666666667</ele><time>2026-04-17T11:38:35.522Z</time></trkpt><trkpt lat="46.2811483" lon="12.30514"><ele>453.0</ele><time>2026-04-17T11:38:36.523Z</time></trkpt><trkpt lat="46.281095" lon="12.3052867"><ele>453.0</ele><time>2026-04-17T11:38:37.521Z</time></trkpt><trkpt lat="46.2810483" lon="12.3054867"><ele>453.0</ele><time>2026-04-17T11:38:38.523Z</time></trkpt><trkpt lat="46.280995" lon="12.305715"><ele>453.0</ele><time>2026-04-17T11:38:39.522Z</time></trkpt><trkpt lat="46.2809417" lon="12.3059683"><ele>453.33333333333337</ele><time>2026-04-17T11:38:40.522Z</time></trkpt><trkpt lat="46.2809017" lon="12.3062317"><ele>453.6666666666667</ele><time>2026-04-17T11:38:41.523Z</time></trkpt><trkpt lat="46.28087" lon="12.3065133"><ele>454.0</ele><time>2026-04-17T11:38:42.523Z</time></trkpt><trkpt lat="46.2808617" lon="12.3068017"><ele>455.33333333333337</ele><time>2026-04-17T11:38:43.522Z</time></trkpt><trkpt lat="46.2808683" lon="12.3070833"><ele>456.66666666666663</ele><time>2026-04-17T11:38:44.524Z</time></trkpt><trkpt lat="46.28088" lon="12.30734"><ele>458.0</ele><time>2026-04-17T11:38:45.523Z</time></trkpt><trkpt lat="46.2808933" lon="12.3075533"><ele>458.0</ele><time>2026-04-17T11:38:46.521Z</time></trkpt><trkpt lat="46.2808967" lon="12.3077367"><ele>458.0</ele><time>2026-04-17T11:38:47.522Z</time></trkpt><trkpt lat="46.2808817" lon="12.3079033"><ele>458.0</ele><time>2026-04-17T11:38:48.522Z</time></trkpt><trkpt lat="46.2808467" lon="12.308065"><ele>458.0</ele><time>2026-04-17T11:38:49.523Z</time></trkpt><trkpt lat="46.2807817" lon="12.30823"><ele>456.0</ele><time>2026-04-17T11:38:50.522Z</time></trkpt><trkpt lat="46.2806783" lon="12.3084033"><ele>454.0</ele><time>2026-04-17T11:38:51.523Z</time></trkpt><trkpt lat="46.2805517" lon="12.3085767"><ele>452.0</ele><time>2026-04-17T11:38:52.522Z</time></trkpt><trkpt lat="46.2804217" lon="12.3087467"><ele>450.3333333333333</ele><time>2026-04-17T11:38:53.522Z</time></trkpt><trkpt lat="46.2802983" lon="12.3089083"><ele>448.66666666666663</ele><time>2026-04-17T11:38:54.523Z</time></trkpt><trkpt lat="46.280185" lon="12.30905"><ele>447.0</ele><time>2026-04-17T11:38:55.524Z</time></trkpt><trkpt lat="46.2800717" lon="12.3091633"><ele>447.0</ele><time>2026-04-17T11:38:56.526Z</time></trkpt><trkpt lat="46.2799533" lon="12.3092283"><ele>447.0</ele><time>2026-04-17T11:38:57.523Z</time></trkpt><trkpt lat="46.2798183" lon="12.3092417"><ele>447.0</ele><time>2026-04-17T11:38:58.524Z</time></trkpt><trkpt lat="46.2796667" lon="12.30921"><ele>447.0</ele><time>2026-04-17T11:38:59.523Z</time></trkpt><trkpt lat="46.2795017" lon="12.3091483"><ele>449.66666666666663</ele><time>2026-04-17T11:39:00.523Z</time></trkpt><trkpt lat="46.2793283" lon="12.309085"><ele>452.3333333333333</ele><time>2026-04-17T11:39:01.524Z</time></trkpt><trkpt lat="46.2791517" lon="12.3090217"><ele>455.0</ele><time>2026-04-17T11:39:02.521Z</time></trkpt><trkpt lat="46.2789783" lon="12.3089583"><ele>452.0</ele><time>2026-04-17T11:39:03.523Z</time></trkpt><trkpt lat="46.2788117" lon="12.3089067"><ele>449.0</ele><time>2026-04-17T11:39:04.521Z</time></trkpt><trkpt lat="46.27866" lon="12.3088833"><ele>446.0</ele><time>2026-04-17T11:39:05.523Z</time></trkpt><trkpt lat="46.2785233" lon="12.3089"><ele>447.25</ele><time>2026-04-17T11:39:06.523Z</time></trkpt><trkpt lat="46.2783933" lon="12.308945"><ele>448.5</ele><time>2026-04-17T11:39:07.523Z</time></trkpt><trkpt lat="46.27827" lon="12.3090217"><ele>449.75</ele><time>2026-04-17T11:39:08.524Z</time></trkpt><trkpt lat="46.2781483" lon="12.309135"><ele>451.0</ele><time>2026-04-17T11:39:09.523Z</time></trkpt><trkpt lat="46.27803" lon="12.3092783"><ele>451.0</ele><time>2026-04-17T11:39:10.521Z</time></trkpt><trkpt lat="46.2779117" lon="12.3094383"><ele>451.0</ele><time>2026-04-17T11:39:11.523Z</time></trkpt><trkpt lat="46.2777967" lon="12.3095883"><ele>451.0</ele><time>2026-04-17T11:39:12.522Z</time></trkpt><trkpt lat="46.27768" lon="12.3097117"><ele>453.5</ele><time>2026-04-17T11:39:13.524Z</time></trkpt><trkpt lat="46.2775633" lon="12.3098"><ele>456.0</ele><time>2026-04-17T11:39:14.522Z</time></trkpt><trkpt lat="46.2774483" lon="12.3098733"><ele>458.5</ele><time>2026-04-17T11:39:15.523Z</time></trkpt><trkpt lat="46.2773517" lon="12.3099617"><ele>461.0</ele><time>2026-04-17T11:39:16.523Z</time></trkpt><trkpt lat="46.27726" lon="12.3100817"><ele>461.0</ele><time>2026-04-17T11:39:17.523Z</time></trkpt><trkpt lat="46.2771633" lon="12.310205"><ele>461.0</ele><time>2026-04-17T11:39:18.522Z</time></trkpt><trkpt lat="46.2770617" lon="12.3103367"><ele>461.0</ele><time>2026-04-17T11:39:19.522Z</time></trkpt><trkpt lat="46.2769617" lon="12.3104733"><ele>461.0</ele><time>2026-04-17T11:39:20.524Z</time></trkpt><trkpt lat="46.2768683" lon="12.3105983"><ele>462.20000000000005</ele><time>2026-04-17T11:39:21.522Z</time></trkpt><trkpt lat="46.2767767" lon="12.3107067"><ele>463.40000000000003</ele><time>2026-04-17T11:39:22.523Z</time></trkpt><trkpt lat="46.27668" lon="12.31081"><ele>464.6</ele><time>2026-04-17T11:39:23.521Z</time></trkpt><trkpt lat="46.2765883" lon="12.3108967"><ele>465.8</ele><time>2026-04-17T11:39:24.522Z</time></trkpt><trkpt lat="46.2765083" lon="12.3109683"><ele>467.0</ele><time>2026-04-17T11:39:25.522Z</time></trkpt><trkpt lat="46.2764433" lon="12.3110083"><ele>467.16666666666663</ele><time>2026-04-17T11:39:26.523Z</time></trkpt><trkpt lat="46.276375" lon="12.3110217"><ele>467.3333333333333</ele><time>2026-04-17T11:39:27.523Z</time></trkpt><trkpt lat="46.2763017" lon="12.3110217"><ele>467.5</ele><time>2026-04-17T11:39:28.521Z</time></trkpt><trkpt lat="46.27623" lon="12.3109933"><ele>467.66666666666663</ele><time>2026-04-17T11:39:29.523Z</time></trkpt><trkpt lat="46.2761717" lon="12.3109217"><ele>467.8333333333333</ele><time>2026-04-17T11:39:30.522Z</time></trkpt><trkpt lat="46.27611" lon="12.3108417"><ele>468.0</ele><time>2026-04-17T11:39:31.523Z</time></trkpt><trkpt lat="46.2760467" lon="12.3107583"><ele>468.0</ele><time>2026-04-17T11:39:32.523Z</time></trkpt><trkpt lat="46.2759717" lon="12.31068"><ele>467.99999999999994</ele><time>2026-04-17T11:39:33.523Z</time></trkpt><trkpt lat="46.2758867" lon="12.31062"><ele>467.99999999999994</ele><time>2026-04-17T11:39:34.522Z</time></trkpt><trkpt lat="46.2758117" lon="12.3105433"><ele>468.0</ele><time>2026-04-17T11:39:35.523Z</time></trkpt><trkpt lat="46.2757383" lon="12.3104483"><ele>468.0</ele><time>2026-04-17T11:39:36.523Z</time></trkpt><trkpt lat="46.275645" lon="12.3103517"><ele>466.0</ele><time>2026-04-17T11:39:37.523Z</time></trkpt><trkpt lat="46.27554" lon="12.310255"><ele>463.99999999999994</ele><time>2026-04-17T11:39:38.523Z</time></trkpt><trkpt lat="46.2754417" lon="12.3101667"><ele>461.99999999999994</ele><time>2026-04-17T11:39:39.522Z</time></trkpt><trkpt lat="46.2753517" lon="12.310085"><ele>460.0</ele><time>2026-04-17T11:39:40.522Z</time></trkpt><trkpt lat="46.275265" lon="12.3100083"><ele>458.0</ele><time>2026-04-17T11:39:41.522Z</time></trkpt><trkpt lat="46.2751767" lon="12.3099233"><ele>458.0</ele><time>2026-04-17T11:39:42.522Z</time></trkpt><trkpt lat="46.2750833" lon="12.3098367"><ele>457.99999999999994</ele><time>2026-04-17T11:39:43.523Z</time></trkpt><trkpt lat="46.2749967" lon="12.3097433"><ele>457.99999999999994</ele><time>2026-04-17T11:39:44.523Z</time></trkpt><trkpt lat="46.27491" lon="12.3096517"><ele>458.0</ele><time>2026-04-17T11:39:45.524Z</time></trkpt><trkpt lat="46.2748283" lon="12.309565"><ele>458.0</ele><time>2026-04-17T11:39:46.523Z</time></trkpt><trkpt lat="46.27475" lon="12.3094783"><ele>455.8333333333333</ele><time>2026-04-17T11:39:47.523Z</time></trkpt><trkpt lat="46.2746767" lon="12.3093867"><ele>453.66666666666663</ele><time>2026-04-17T11:39:48.523Z</time></trkpt><trkpt lat="46.2746183" lon="12.3092867"><ele>451.5</ele><time>2026-04-17T11:39:49.523Z</time></trkpt><trkpt lat="46.2745833" lon="12.3091733"><ele>449.33333333333337</ele><time>2026-04-17T11:39:50.524Z</time></trkpt><trkpt lat="46.274575" lon="12.3090583"><ele>447.1666666666667</ele><time>2026-04-17T11:39:51.522Z</time></trkpt><trkpt lat="46.2745917" lon="12.3089617"><ele>445.0</ele><time>2026-04-17T11:39:52.523Z</time></trkpt><trkpt lat="46.2746933" lon="12.3088367"><ele>445.0</ele><time>2026-04-17T11:39:54.523Z</time></trkpt><trkpt lat="46.274785" lon="12.3087783"><ele>445.0</ele><time>2026-04-17T11:39:55.522Z</time></trkpt><trkpt lat="46.274915" lon="12.308705"><ele>445.0</ele><time>2026-04-17T11:39:56.524Z</time></trkpt><trkpt lat="46.2750467" lon="12.3086183"><ele>445.0</ele><time>2026-04-17T11:39:57.523Z</time></trkpt><trkpt lat="46.2751867" lon="12.308525"><ele>445.0</ele><time>2026-04-17T11:39:58.522Z</time></trkpt><trkpt lat="46.2753317" lon="12.30843"><ele>445.0</ele><time>2026-04-17T11:39:59.522Z</time></trkpt><trkpt lat="46.275485" lon="12.3083433"><ele>445.0</ele><time>2026-04-17T11:40:00.523Z</time></trkpt><trkpt lat="46.2756333" lon="12.3082783"><ele>447.5</ele><time>2026-04-17T11:40:01.523Z</time></trkpt><trkpt lat="46.2757817" lon="12.3082533"><ele>450.0</ele><time>2026-04-17T11:40:02.523Z</time></trkpt><trkpt lat="46.2759233" lon="12.30826"><ele>452.5</ele><time>2026-04-17T11:40:03.522Z</time></trkpt><trkpt lat="46.2760617" lon="12.30832"><ele>455.0</ele><time>2026-04-17T11:40:04.523Z</time></trkpt><trkpt lat="46.2761783" lon="12.3084033"><ele>455.0</ele><time>2026-04-17T11:40:05.523Z</time></trkpt><trkpt lat="46.2762783" lon="12.3085067"><ele>455.0</ele><time>2026-04-17T11:40:06.523Z</time></trkpt><trkpt lat="46.27636" lon="12.3086117"><ele>455.0</ele><time>2026-04-17T11:40:07.524Z</time></trkpt><trkpt lat="46.2764333" lon="12.3087183"><ele>455.0</ele><time>2026-04-17T11:40:08.522Z</time></trkpt><trkpt lat="46.2765033" lon="12.30882"><ele>455.0</ele><time>2026-04-17T11:40:09.522Z</time></trkpt><trkpt lat="46.2765733" lon="12.3089183"><ele>455.8</ele><time>2026-04-17T11:40:10.522Z</time></trkpt><trkpt lat="46.2766433" lon="12.3090183"><ele>456.6</ele><time>2026-04-17T11:40:11.521Z</time></trkpt><trkpt lat="46.2767183" lon="12.30912"><ele>457.4</ele><time>2026-04-17T11:40:12.526Z</time></trkpt><trkpt lat="46.276795" lon="12.3092217"><ele>458.2</ele><time>2026-04-17T11:40:13.521Z</time></trkpt><trkpt lat="46.2768767" lon="12.3093267"><ele>459.0</ele><time>2026-04-17T11:40:14.521Z</time></trkpt><trkpt lat="46.2769583" lon="12.3094317"><ele>459.0</ele><time>2026-04-17T11:40:15.522Z</time></trkpt><trkpt lat="46.2770583" lon="12.3095483"><ele>459.0</ele><time>2026-04-17T11:40:16.52Z</time></trkpt><trkpt lat="46.27718" lon="12.30968"><ele>459.0</ele><time>2026-04-17T11:40:17.521Z</time></trkpt><trkpt lat="46.2773183" lon="12.3098233"><ele>460.66666666666663</ele><time>2026-04-17T11:40:18.521Z</time></trkpt><trkpt lat="46.27747" lon="12.3099733"><ele>462.3333333333333</ele><time>2026-04-17T11:40:19.52Z</time></trkpt><trkpt lat="46.2776367" lon="12.3101333"><ele>464.0</ele><time>2026-04-17T11:40:20.52Z</time></trkpt><trkpt lat="46.2778067" lon="12.310285"><ele>464.0</ele><time>2026-04-17T11:40:21.522Z</time></trkpt><trkpt lat="46.2779783" lon="12.31042"><ele>464.0</ele><time>2026-04-17T11:40:22.52Z</time></trkpt><trkpt lat="46.278155" lon="12.31055"><ele>464.0</ele><time>2026-04-17T11:40:23.522Z</time></trkpt><trkpt lat="46.27833" lon="12.31066"><ele>466.66666666666663</ele><time>2026-04-17T11:40:24.52Z</time></trkpt><trkpt lat="46.2784967" lon="12.310745"><ele>469.33333333333337</ele><time>2026-04-17T11:40:25.521Z</time></trkpt><trkpt lat="46.278665" lon="12.31082"><ele>472.0</ele><time>2026-04-17T11:40:26.521Z</time></trkpt><trkpt lat="46.2788367" lon="12.3108983"><ele>473.0</ele><time>2026-04-17T11:40:27.523Z</time></trkpt><trkpt lat="46.2790033" lon="12.3109783"><ele>474.0</ele><time>2026-04-17T11:40:28.52Z</time></trkpt><trkpt lat="46.27916" lon="12.31106"><ele>475.0</ele><time>2026-04-17T11:40:29.52Z</time></trkpt><trkpt lat="46.2793083" lon="12.3111417"><ele>475.0</ele><time>2026-04-17T11:40:30.521Z</time></trkpt><trkpt lat="46.279445" lon="12.31122"><ele>475.0</ele><time>2026-04-17T11:40:31.521Z</time></trkpt><trkpt lat="46.2795617" lon="12.311295"><ele>475.0</ele><time>2026-04-17T11:40:32.522Z</time></trkpt><trkpt lat="46.27964" lon="12.3113967"><ele>475.0</ele><time>2026-04-17T11:40:33.522Z</time></trkpt><trkpt lat="46.2796783" lon="12.3115183"><ele>478.25</ele><time>2026-04-17T11:40:34.52Z</time></trkpt><trkpt lat="46.279675" lon="12.311635"><ele>481.5</ele><time>2026-04-17T11:40:35.521Z</time></trkpt><trkpt lat="46.279605" lon="12.3117283"><ele>484.75</ele><time>2026-04-17T11:40:36.521Z</time></trkpt><trkpt lat="46.27949" lon="12.31179"><ele>488.0</ele><time>2026-04-17T11:40:37.521Z</time></trkpt><trkpt lat="46.2793183" lon="12.3118183"><ele>488.0</ele><time>2026-04-17T11:40:38.522Z</time></trkpt><trkpt lat="46.279115" lon="12.31183"><ele>488.0</ele><time>2026-04-17T11:40:39.521Z</time></trkpt><trkpt lat="46.2789" lon="12.3118067"><ele>488.0</ele><time>2026-04-17T11:40:40.52Z</time></trkpt><trkpt lat="46.27871" lon="12.3117333"><ele>489.25</ele><time>2026-04-17T11:40:41.521Z</time></trkpt><trkpt lat="46.278555" lon="12.3116283"><ele>490.5</ele><time>2026-04-17T11:40:42.522Z</time></trkpt><trkpt lat="46.2784233" lon="12.3115533"><ele>491.75</ele><time>2026-04-17T11:40:43.522Z</time></trkpt><trkpt lat="46.2783033" lon="12.31154"><ele>493.0</ele><time>2026-04-17T11:40:44.523Z</time></trkpt><trkpt lat="46.2782" lon="12.3115967"><ele>493.0</ele><time>2026-04-17T11:40:45.521Z</time></trkpt><trkpt lat="46.27815" lon="12.31171"><ele>493.0</ele><time>2026-04-17T11:40:46.52Z</time></trkpt><trkpt lat="46.2781617" lon="12.3118367"><ele>493.0</ele><time>2026-04-17T11:40:47.521Z</time></trkpt><trkpt lat="46.2782917" lon="12.3119517"><ele>493.0</ele><time>2026-04-17T11:40:48.521Z</time></trkpt><trkpt lat="46.27847" lon="12.31204"><ele>493.0</ele><time>2026-04-17T11:40:49.522Z</time></trkpt><trkpt lat="46.2787117" lon="12.3121183"><ele>493.0</ele><time>2026-04-17T11:40:50.521Z</time></trkpt><trkpt lat="46.2790133" lon="12.3121817"><ele>490.5</ele><time>2026-04-17T11:40:51.522Z</time></trkpt><trkpt lat="46.2793733" lon="12.3121967"><ele>488.0</ele><time>2026-04-17T11:40:52.521Z</time></trkpt><trkpt lat="46.2797117" lon="12.3122117"><ele>487.5</ele><time>2026-04-17T11:40:53.519Z</time></trkpt><trkpt lat="46.2800167" lon="12.31223"><ele>487.0</ele><time>2026-04-17T11:40:54.521Z</time></trkpt><trkpt lat="46.28028" lon="12.3122583"><ele>492.33333333333337</ele><time>2026-04-17T11:40:55.521Z</time></trkpt><trkpt lat="46.2804933" lon="12.3123017"><ele>497.66666666666663</ele><time>2026-04-17T11:40:56.521Z</time></trkpt><trkpt lat="46.2806583" lon="12.3123617"><ele>503.0</ele><time>2026-04-17T11:40:57.522Z</time></trkpt><trkpt lat="46.280775" lon="12.3124633"><ele>503.0</ele><time>2026-04-17T11:40:58.522Z</time></trkpt><trkpt lat="46.28083" lon="12.3126217"><ele>503.0</ele><time>2026-04-17T11:40:59.522Z</time></trkpt><trkpt lat="46.28083" lon="12.3127917"><ele>503.0</ele><time>2026-04-17T11:41:00.521Z</time></trkpt><trkpt lat="46.2807867" lon="12.31294"><ele>503.0</ele><time>2026-04-17T11:41:01.521Z</time></trkpt><trkpt lat="46.2807033" lon="12.3130517"><ele>516.5</ele><time>2026-04-17T11:41:02.521Z</time></trkpt><trkpt lat="46.2804433" lon="12.3131383"><ele>530.0</ele><time>2026-04-17T11:41:03.521Z</time></trkpt><trkpt lat="46.2801633" lon="12.3132117"><ele>530.0</ele><time>2026-04-17T11:41:04.52Z</time></trkpt><trkpt lat="46.279835" lon="12.31328"><ele>530.0</ele><time>2026-04-17T11:41:05.523Z</time></trkpt><trkpt lat="46.2794633" lon="12.3133483"><ele>531.5</ele><time>2026-04-17T11:41:06.521Z</time></trkpt><trkpt lat="46.27908" lon="12.31342"><ele>533.0</ele><time>2026-04-17T11:41:07.521Z</time></trkpt><trkpt lat="46.2787283" lon="12.3134833"><ele>537.5</ele><time>2026-04-17T11:41:08.521Z</time></trkpt><trkpt lat="46.278475" lon="12.3135417"><ele>542.0</ele><time>2026-04-17T11:41:09.521Z</time></trkpt><trkpt lat="46.2782583" lon="12.3136383"><ele>541.0</ele><time>2026-04-17T11:41:10.521Z</time></trkpt><trkpt lat="46.2780883" lon="12.3138217"><ele>540.0</ele><time>2026-04-17T11:41:11.521Z</time></trkpt><trkpt lat="46.2779183" lon="12.3140633"><ele>540.0</ele><time>2026-04-17T11:41:12.521Z</time></trkpt><trkpt lat="46.2777433" lon="12.3142983"><ele>540.0</ele><time>2026-04-17T11:41:13.522Z</time></trkpt><trkpt lat="46.27754" lon="12.3145083"><ele>540.0</ele><time>2026-04-17T11:41:14.521Z</time></trkpt><trkpt lat="46.27729" lon="12.3146917"><ele>540.0</ele><time>2026-04-17T11:41:15.521Z</time></trkpt><trkpt lat="46.2770033" lon="12.3148483"><ele>552.5</ele><time>2026-04-17T11:41:16.521Z</time></trkpt><trkpt lat="46.2766733" lon="12.3149667"><ele>565.0</ele><time>2026-04-17T11:41:17.52Z</time></trkpt><trkpt lat="46.2763083" lon="12.3150233"><ele>565.0</ele><time>2026-04-17T11:41:18.521Z</time></trkpt><trkpt lat="46.27593" lon="12.3150417"><ele>565.0</ele><time>2026-04-17T11:41:19.521Z</time></trkpt><trkpt lat="46.2755767" lon="12.31506"><ele>567.0</ele><time>2026-04-17T11:41:20.521Z</time></trkpt><trkpt lat="46.2752633" lon="12.3150767"><ele>569.0</ele><time>2026-04-17T11:41:21.52Z</time></trkpt><trkpt lat="46.2749867" lon="12.3150683"><ele>576.5</ele><time>2026-04-17T11:41:22.52Z</time></trkpt><trkpt lat="46.27476" lon="12.31502"><ele>584.0</ele><time>2026-04-17T11:41:23.522Z</time></trkpt><trkpt lat="46.2745167" lon="12.3149117"><ele>584.0</ele><time>2026-04-17T11:41:24.52Z</time></trkpt><trkpt lat="46.27429" lon="12.3147433"><ele>584.0</ele><time>2026-04-17T11:41:25.521Z</time></trkpt><trkpt lat="46.2740867" lon="12.3145417"><ele>582.0</ele><time>2026-04-17T11:41:26.521Z</time></trkpt><trkpt lat="46.2739117" lon="12.31436"><ele>580.0</ele><time>2026-04-17T11:41:27.521Z</time></trkpt><trkpt lat="46.2737667" lon="12.3142117"><ele>578.0</ele><time>2026-04-17T11:41:28.52Z</time></trkpt><trkpt lat="46.273645" lon="12.3141233"><ele>578.0</ele><time>2026-04-17T11:41:29.52Z</time></trkpt><trkpt lat="46.2735267" lon="12.314095"><ele>578.0</ele><time>2026-04-17T11:41:30.521Z</time></trkpt><trkpt lat="46.2734367" lon="12.314155"><ele>578.0</ele><time>2026-04-17T11:41:31.521Z</time></trkpt><trkpt lat="46.2733667" lon="12.314275"><ele>578.0</ele><time>2026-04-17T11:41:32.522Z</time></trkpt><trkpt lat="46.273345" lon="12.314425"><ele>578.0</ele><time>2026-04-17T11:41:33.521Z</time></trkpt><trkpt lat="46.2733783" lon="12.3145817"><ele>578.0</ele><time>2026-04-17T11:41:34.52Z</time></trkpt><trkpt lat="46.2734767" lon="12.3147167"><ele>578.0</ele><time>2026-04-17T11:41:35.522Z</time></trkpt><trkpt lat="46.2736567" lon="12.3148433"><ele>578.0</ele><time>2026-04-17T11:41:36.522Z</time></trkpt><trkpt lat="46.2738833" lon="12.31498"><ele>580.0</ele><time>2026-04-17T11:41:37.521Z</time></trkpt><trkpt lat="46.27409" lon="12.3151083"><ele>582.0</ele><time>2026-04-17T11:41:38.521Z</time></trkpt><trkpt lat="46.2742417" lon="12.3152317"><ele>584.0</ele><time>2026-04-17T11:41:39.52Z</time></trkpt><trkpt lat="46.2743233" lon="12.3153617"><ele>584.0</ele><time>2026-04-17T11:41:40.519Z</time></trkpt><trkpt lat="46.2743483" lon="12.3154917"><ele>584.0</ele><time>2026-04-17T11:41:41.52Z</time></trkpt><trkpt lat="46.2742817" lon="12.3156067"><ele>584.0</ele><time>2026-04-17T11:41:42.52Z</time></trkpt><trkpt lat="46.2742" lon="12.31569"><ele>584.0</ele><time>2026-04-17T11:41:43.52Z</time></trkpt><trkpt lat="46.2740717" lon="12.3156933"><ele>584.0</ele><time>2026-04-17T11:41:44.52Z</time></trkpt><trkpt lat="46.273885" lon="12.3156467"><ele>589.0</ele><time>2026-04-17T11:41:45.519Z</time></trkpt><trkpt lat="46.2737067" lon="12.3155967"><ele>594.0</ele><time>2026-04-17T11:41:46.52Z</time></trkpt><trkpt lat="46.2733" lon="12.31555"><ele>598.5</ele><time>2026-04-17T11:41:47.52Z</time></trkpt><trkpt lat="46.27287" lon="12.315515"><ele>603.0</ele><time>2026-04-17T11:41:48.522Z</time></trkpt><trkpt lat="46.272515" lon="12.31549"><ele>604.0</ele><time>2026-04-17T11:41:49.522Z</time></trkpt><trkpt lat="46.2721817" lon="12.3154133"><ele>605.0</ele><time>2026-04-17T11:41:50.521Z</time></trkpt><trkpt lat="46.2718933" lon="12.3152983"><ele>605.0</ele><time>2026-04-17T11:41:51.521Z</time></trkpt><trkpt lat="46.271645" lon="12.315165"><ele>605.0</ele><time>2026-04-17T11:41:52.521Z</time></trkpt><trkpt lat="46.2714117" lon="12.3150417"><ele>606.3333333333333</ele><time>2026-04-17T11:41:53.521Z</time></trkpt><trkpt lat="46.2712017" lon="12.3149367"><ele>607.6666666666666</ele><time>2026-04-17T11:41:54.522Z</time></trkpt><trkpt lat="46.2710067" lon="12.3148483"><ele>609.0</ele><time>2026-04-17T11:41:55.522Z</time></trkpt><trkpt lat="46.2708517" lon="12.3147933"><ele>609.0</ele><time>2026-04-17T11:41:56.522Z</time></trkpt><trkpt lat="46.2707433" lon="12.314785"><ele>609.0</ele><time>2026-04-17T11:41:57.521Z</time></trkpt><trkpt lat="46.2707233" lon="12.3149483"><ele>609.0</ele><time>2026-04-17T11:41:59.521Z</time></trkpt><trkpt lat="46.2708317" lon="12.3151367"><ele>609.0</ele><time>2026-04-17T11:42:00.521Z</time></trkpt><trkpt lat="46.270835" lon="12.3152683"><ele>609.0</ele><time>2026-04-17T11:42:01.521Z</time></trkpt><trkpt lat="46.2711083" lon="12.3154483"><ele>609.0</ele><time>2026-04-17T11:42:02.521Z</time></trkpt><trkpt lat="46.271285" lon="12.315555"><ele>613.6666666666666</ele><time>2026-04-17T11:42:03.522Z</time></trkpt><trkpt lat="46.2714617" lon="12.3156667"><ele>618.3333333333333</ele><time>2026-04-17T11:42:04.521Z</time></trkpt><trkpt lat="46.27166" lon="12.3157833"><ele>623.0</ele><time>2026-04-17T11:42:05.521Z</time></trkpt><trkpt lat="46.2718583" lon="12.3158717"><ele>623.0</ele><time>2026-04-17T11:42:06.523Z</time></trkpt><trkpt lat="46.27204" lon="12.3159383"><ele>623.0</ele><time>2026-04-17T11:42:07.52Z</time></trkpt><trkpt lat="46.2722017" lon="12.3159917"><ele>623.0</ele><time>2026-04-17T11:42:08.522Z</time></trkpt><trkpt lat="46.2723517" lon="12.3160383"><ele>622.5</ele><time>2026-04-17T11:42:09.521Z</time></trkpt><trkpt lat="46.2724783" lon="12.3160733"><ele>622.0</ele><time>2026-04-17T11:42:10.521Z</time></trkpt><trkpt lat="46.27259" lon="12.316105"><ele>621.5</ele><time>2026-04-17T11:42:11.521Z</time></trkpt><trkpt lat="46.2726867" lon="12.316135"><ele>621.0</ele><time>2026-04-17T11:42:12.523Z</time></trkpt><trkpt lat="46.2727967" lon="12.3161583"><ele>621.0</ele><time>2026-04-17T11:42:13.521Z</time></trkpt><trkpt lat="46.27294" lon="12.31619"><ele>621.0</ele><time>2026-04-17T11:42:14.522Z</time></trkpt><trkpt lat="46.27312" lon="12.3162317"><ele>621.0</ele><time>2026-04-17T11:42:15.522Z</time></trkpt><trkpt lat="46.2733333" lon="12.316295"><ele>624.5</ele><time>2026-04-17T11:42:16.521Z</time></trkpt><trkpt lat="46.2736" lon="12.3163633"><ele>628.0</ele><time>2026-04-17T11:42:17.52Z</time></trkpt><trkpt lat="46.2739017" lon="12.3164417"><ele>630.5</ele><time>2026-04-17T11:42:18.522Z</time></trkpt><trkpt lat="46.27423" lon="12.3165783"><ele>633.0</ele><time>2026-04-17T11:42:19.52Z</time></trkpt><trkpt lat="46.2745583" lon="12.3167417"><ele>633.0</ele><time>2026-04-17T11:42:20.523Z</time></trkpt><trkpt lat="46.2748667" lon="12.3168933"><ele>633.0</ele><time>2026-04-17T11:42:21.522Z</time></trkpt><trkpt lat="46.2751767" lon="12.317035"><ele>633.0</ele><time>2026-04-17T11:42:22.521Z</time></trkpt><trkpt lat="46.275475" lon="12.3171283"><ele>633.0</ele><time>2026-04-17T11:42:23.521Z</time></trkpt><trkpt lat="46.2757433" lon="12.3171967"><ele>632.5</ele><time>2026-04-17T11:42:24.522Z</time></trkpt><trkpt lat="46.275985" lon="12.3172183"><ele>632.0</ele><time>2026-04-17T11:42:25.521Z</time></trkpt><trkpt lat="46.2762333" lon="12.3172"><ele>632.5</ele><time>2026-04-17T11:42:26.523Z</time></trkpt><trkpt lat="46.2765167" lon="12.3172017"><ele>633.0</ele><time>2026-04-17T11:42:27.522Z</time></trkpt><trkpt lat="46.27678" lon="12.3171833"><ele>633.0</ele><time>2026-04-17T11:42:28.522Z</time></trkpt><trkpt lat="46.27699" lon="12.3171567"><ele>633.0</ele><time>2026-04-17T11:42:29.523Z</time></trkpt><trkpt lat="46.2771483" lon="12.31712"><ele>633.0</ele><time>2026-04-17T11:42:30.522Z</time></trkpt><trkpt lat="46.2772617" lon="12.3170717"><ele>633.25</ele><time>2026-04-17T11:42:31.521Z</time></trkpt><trkpt lat="46.27735" lon="12.31708"><ele>633.5</ele><time>2026-04-17T11:42:32.522Z</time></trkpt><trkpt lat="46.2773933" lon="12.3171583"><ele>633.75</ele><time>2026-04-17T11:42:33.521Z</time></trkpt><trkpt lat="46.2773233" lon="12.3172883"><ele>634.0</ele><time>2026-04-17T11:42:35.522Z</time></trkpt><trkpt lat="46.2771367" lon="12.317315"><ele>648.5</ele><time>2026-04-17T11:42:36.523Z</time></trkpt><trkpt lat="46.2769167" lon="12.3173517"><ele>663.0</ele><time>2026-04-17T11:42:37.52Z</time></trkpt><trkpt lat="46.2766517" lon="12.3174067"><ele>659.0</ele><time>2026-04-17T11:42:38.521Z</time></trkpt><trkpt lat="46.2763467" lon="12.3174717"><ele>655.0</ele><time>2026-04-17T11:42:39.522Z</time></trkpt><trkpt lat="46.276035" lon="12.31753"><ele>655.0</ele><time>2026-04-17T11:42:40.521Z</time></trkpt><trkpt lat="46.27572" lon="12.3175633"><ele>655.0</ele><time>2026-04-17T11:42:41.521Z</time></trkpt><trkpt lat="46.2754167" lon="12.3175683"><ele>651.0</ele><time>2026-04-17T11:42:42.522Z</time></trkpt><trkpt lat="46.27512" lon="12.31757"><ele>647.0</ele><time>2026-04-17T11:42:43.522Z</time></trkpt><trkpt lat="46.2748383" lon="12.3175783"><ele>647.0</ele><time>2026-04-17T11:42:44.522Z</time></trkpt><trkpt lat="46.2745783" lon="12.31759"><ele>647.0</ele><time>2026-04-17T11:42:45.521Z</time></trkpt><trkpt lat="46.2743183" lon="12.3175783"><ele>647.0</ele><time>2026-04-17T11:42:46.521Z</time></trkpt><trkpt lat="46.274055" lon="12.3175283"><ele>647.0</ele><time>2026-04-17T11:42:47.521Z</time></trkpt><trkpt lat="46.2738017" lon="12.3174683"><ele>647.0</ele><time>2026-04-17T11:42:48.522Z</time></trkpt><trkpt lat="46.2735583" lon="12.3174117"><ele>647.0</ele><time>2026-04-17T11:42:49.521Z</time></trkpt><trkpt lat="46.27332" lon="12.3173533"><ele>694.5</ele><time>2026-04-17T11:42:50.522Z</time></trkpt><trkpt lat="46.2730867" lon="12.317295"><ele>742.0</ele><time>2026-04-17T11:42:51.521Z</time></trkpt><trkpt lat="46.272865" lon="12.3172433"><ele>713.3333333333334</ele><time>2026-04-17T11:42:52.521Z</time></trkpt><trkpt lat="46.2726583" lon="12.31719"><ele>684.6666666666666</ele><time>2026-04-17T11:42:53.521Z</time></trkpt><trkpt lat="46.272465" lon="12.3171317"><ele>656.0</ele><time>2026-04-17T11:42:54.531Z</time></trkpt><trkpt lat="46.2722783" lon="12.3170733"><ele>660.6666666666666</ele><time>2026-04-17T11:42:55.523Z</time></trkpt><trkpt lat="46.2721067" lon="12.3170267"><ele>665.3333333333334</ele><time>2026-04-17T11:42:56.524Z</time></trkpt><trkpt lat="46.2719533" lon="12.3170267"><ele>670.0</ele><time>2026-04-17T11:42:57.522Z</time></trkpt><trkpt lat="46.2717917" lon="12.317035"><ele>670.0</ele><time>2026-04-17T11:42:58.522Z</time></trkpt><trkpt lat="46.2716433" lon="12.3170667"><ele>670.0</ele><time>2026-04-17T11:42:59.523Z</time></trkpt><trkpt lat="46.271505" lon="12.3170983"><ele>670.0</ele><time>2026-04-17T11:43:00.523Z</time></trkpt><trkpt lat="46.2713717" lon="12.317125"><ele>670.0</ele><time>2026-04-17T11:43:01.522Z</time></trkpt><trkpt lat="46.2712467" lon="12.3171467"><ele>668.0</ele><time>2026-04-17T11:43:02.523Z</time></trkpt><trkpt lat="46.2711317" lon="12.31718"><ele>666.0</ele><time>2026-04-17T11:43:03.523Z</time></trkpt><trkpt lat="46.2710217" lon="12.3172017"><ele>664.0</ele><time>2026-04-17T11:43:04.523Z</time></trkpt><trkpt lat="46.27092" lon="12.3172233"><ele>662.0</ele><time>2026-04-17T11:43:05.523Z</time></trkpt><trkpt lat="46.2708283" lon="12.3172483"><ele>660.0</ele><time>2026-04-17T11:43:06.524Z</time></trkpt><trkpt lat="46.2707433" lon="12.31727"><ele>667.6666666666666</ele><time>2026-04-17T11:43:07.523Z</time></trkpt><trkpt lat="46.2706633" lon="12.3172917"><ele>675.3333333333334</ele><time>2026-04-17T11:43:08.524Z</time></trkpt><trkpt lat="46.2705883" lon="12.3173083"><ele>683.0</ele><time>2026-04-17T11:43:09.524Z</time></trkpt><trkpt lat="46.2705183" lon="12.3173183"><ele>690.6666666666667</ele><time>2026-04-17T11:43:10.523Z</time></trkpt><trkpt lat="46.2704017" lon="12.3173317"><ele>698.3333333333334</ele><time>2026-04-17T11:43:12.524Z</time></trkpt><trkpt lat="46.2703183" lon="12.317345"><ele>706.0</ele><time>2026-04-17T11:43:14.524Z</time></trkpt><trkpt lat="46.27025" lon="12.31736"><ele>706.0</ele><time>2026-04-17T11:43:17.523Z</time></trkpt><trkpt lat="46.2701733" lon="12.31736"><ele>706.0</ele><time>2026-04-17T11:48:40.518Z</time></trkpt><trkpt lat="46.2701167" lon="12.3174283"><ele>706.0</ele><time>2026-04-17T11:48:49.521Z</time></trkpt><trkpt lat="46.2700483" lon="12.3174583"><ele>706.0</ele><time>2026-04-17T11:48:50.521Z</time></trkpt><trkpt lat="46.269965" lon="12.317495"><ele>706.0</ele><time>2026-04-17T11:48:51.521Z</time></trkpt><trkpt lat="46.2698783" lon="12.31754"><ele>706.0</ele><time>2026-04-17T11:48:52.521Z</time></trkpt><trkpt lat="46.269795" lon="12.3175967"><ele>706.0</ele><time>2026-04-17T11:48:53.522Z</time></trkpt><trkpt lat="46.2676167" lon="12.3250333"><ele>710.75</ele><time>2026-04-17T11:49:30.521Z</time></trkpt><trkpt lat="46.2677233" lon="12.3251417"><ele>715.5</ele><time>2026-04-17T11:49:31.523Z</time></trkpt><trkpt lat="46.26785" lon="12.3252117"><ele>720.25</ele><time>2026-04-17T11:49:32.524Z</time></trkpt><trkpt lat="46.267975" lon="12.3252883"><ele>725.0</ele><time>2026-04-17T11:49:33.523Z</time></trkpt><trkpt lat="46.2685883" lon="12.3302117"><ele>725.0</ele><time>2026-04-17T11:49:53.524Z</time></trkpt><trkpt lat="46.26873" lon="12.3304283"><ele>725.0</ele><time>2026-04-17T11:49:54.523Z</time></trkpt><trkpt lat="46.2688817" lon="12.3306367"><ele>725.0</ele><time>2026-04-17T11:49:55.522Z</time></trkpt><trkpt lat="46.269015" lon="12.3308917"><ele>733.5</ele><time>2026-04-17T11:49:56.523Z</time></trkpt><trkpt lat="46.2691333" lon="12.331175"><ele>742.0</ele><time>2026-04-17T11:49:57.522Z</time></trkpt><trkpt lat="46.2692383" lon="12.3314883"><ele>742.0</ele><time>2026-04-17T11:49:58.523Z</time></trkpt><trkpt lat="46.2693383" lon="12.331805"><ele>742.0</ele><time>2026-04-17T11:49:59.523Z</time></trkpt><trkpt lat="46.26942" lon="12.3321117"><ele>740.6666666666667</ele><time>2026-04-17T11:50:00.524Z</time></trkpt><trkpt lat="46.2694667" lon="12.3324067"><ele>739.3333333333334</ele><time>2026-04-17T11:50:01.523Z</time></trkpt><trkpt lat="46.2694883" lon="12.3327067"><ele>738.0</ele><time>2026-04-17T11:50:02.524Z</time></trkpt><trkpt lat="46.2694633" lon="12.33299"><ele>738.0</ele><time>2026-04-17T11:50:03.523Z</time></trkpt><trkpt lat="46.2694467" lon="12.3332283"><ele>738.0</ele><time>2026-04-17T11:50:04.523Z</time></trkpt><trkpt lat="46.2694433" lon="12.3334233"><ele>738.0</ele><time>2026-04-17T11:50:05.522Z</time></trkpt><trkpt lat="46.2694917" lon="12.33356"><ele>738.0</ele><time>2026-04-17T11:50:06.524Z</time></trkpt><trkpt lat="46.269595" lon="12.3336683"><ele>738.0</ele><time>2026-04-17T11:50:07.523Z</time></trkpt><trkpt lat="46.269745" lon="12.3337233"><ele>738.0</ele><time>2026-04-17T11:50:08.524Z</time></trkpt><trkpt lat="46.2699" lon="12.3337567"><ele>738.0</ele><time>2026-04-17T11:50:09.522Z</time></trkpt><trkpt lat="46.270025" lon="12.3338283"><ele>738.0</ele><time>2026-04-17T11:50:10.523Z</time></trkpt><trkpt lat="46.2700933" lon="12.3339667"><ele>754.6666666666667</ele><time>2026-04-17T11:50:11.524Z</time></trkpt><trkpt lat="46.2701083" lon="12.334155"><ele>771.3333333333334</ele><time>2026-04-17T11:50:12.523Z</time></trkpt><trkpt lat="46.2700567" lon="12.3344067"><ele>788.0</ele><time>2026-04-17T11:50:13.523Z</time></trkpt><trkpt lat="46.2699567" lon="12.3347233"><ele>792.6666666666667</ele><time>2026-04-17T11:50:14.523Z</time></trkpt><trkpt lat="46.2698467" lon="12.335005"><ele>797.3333333333333</ele><time>2026-04-17T11:50:15.523Z</time></trkpt><trkpt lat="46.2697317" lon="12.3352217"><ele>802.0</ele><time>2026-04-17T11:50:16.522Z</time></trkpt><trkpt lat="46.2695783" lon="12.3353833"><ele>794.6666666666666</ele><time>2026-04-17T11:50:17.523Z</time></trkpt><trkpt lat="46.2693717" lon="12.3354833"><ele>787.3333333333333</ele><time>2026-04-17T11:50:18.523Z</time></trkpt><trkpt lat="46.2691617" lon="12.3355617"><ele>780.0</ele><time>2026-04-17T11:50:19.523Z</time></trkpt><trkpt lat="46.268985" lon="12.3356833"><ele>775.6666666666666</ele><time>2026-04-17T11:50:20.524Z</time></trkpt><trkpt lat="46.2688333" lon="12.33587"><ele>771.3333333333333</ele><time>2026-04-17T11:50:21.523Z</time></trkpt><trkpt lat="46.2687167" lon="12.3360983"><ele>767.0</ele><time>2026-04-17T11:50:22.523Z</time></trkpt><trkpt lat="46.2686483" lon="12.33637"><ele>771.6666666666666</ele><time>2026-04-17T11:50:23.523Z</time></trkpt><trkpt lat="46.2686483" lon="12.336665"><ele>776.3333333333333</ele><time>2026-04-17T11:50:24.523Z</time></trkpt><trkpt lat="46.26869" lon="12.3369617"><ele>781.0</ele><time>2026-04-17T11:50:25.523Z</time></trkpt><trkpt lat="46.268795" lon="12.3372383"><ele>787.5</ele><time>2026-04-17T11:50:26.525Z</time></trkpt><trkpt lat="46.268945" lon="12.3375133"><ele>794.0</ele><time>2026-04-17T11:50:27.523Z</time></trkpt><trkpt lat="46.2691233" lon="12.3378217"><ele>794.0</ele><time>2026-04-17T11:50:28.522Z</time></trkpt><trkpt lat="46.2693233" lon="12.3381717"><ele>794.0</ele><time>2026-04-17T11:50:29.523Z</time></trkpt><trkpt lat="46.2695317" lon="12.3385383"><ele>795.0</ele><time>2026-04-17T11:50:30.524Z</time></trkpt><trkpt lat="46.2697283" lon="12.338885"><ele>796.0</ele><time>2026-04-17T11:50:31.522Z</time></trkpt><trkpt lat="46.2699033" lon="12.3392017"><ele>796.5</ele><time>2026-04-17T11:50:32.524Z</time></trkpt><trkpt lat="46.2700383" lon="12.3395017"><ele>797.0</ele><time>2026-04-17T11:50:33.523Z</time></trkpt><trkpt lat="46.27012" lon="12.3398133"><ele>797.0</ele><time>2026-04-17T11:50:34.522Z</time></trkpt><trkpt lat="46.270155" lon="12.3401483"><ele>797.0</ele><time>2026-04-17T11:50:35.524Z</time></trkpt><trkpt lat="46.2701517" lon="12.3405217"><ele>801.0</ele><time>2026-04-17T11:50:36.523Z</time></trkpt><trkpt lat="46.270125" lon="12.340935"><ele>805.0</ele><time>2026-04-17T11:50:37.524Z</time></trkpt><trkpt lat="46.2700917" lon="12.3413833"><ele>808.0</ele><time>2026-04-17T11:50:38.525Z</time></trkpt><trkpt lat="46.27006" lon="12.34186"><ele>811.0</ele><time>2026-04-17T11:50:39.524Z</time></trkpt><trkpt lat="46.27002" lon="12.34234"><ele>812.5</ele><time>2026-04-17T11:50:40.523Z</time></trkpt><trkpt lat="46.26997" lon="12.3427767"><ele>814.0</ele><time>2026-04-17T11:50:41.523Z</time></trkpt><trkpt lat="46.2699117" lon="12.3431483"><ele>814.0</ele><time>2026-04-17T11:50:42.523Z</time></trkpt><trkpt lat="46.26985" lon="12.3434817"><ele>814.0</ele><time>2026-04-17T11:50:43.522Z</time></trkpt><trkpt lat="46.269785" lon="12.3438167"><ele>810.5</ele><time>2026-04-17T11:50:44.524Z</time></trkpt><trkpt lat="46.2697233" lon="12.344165"><ele>807.0</ele><time>2026-04-17T11:50:45.523Z</time></trkpt><trkpt lat="46.2696583" lon="12.3445333"><ele>802.0</ele><time>2026-04-17T11:50:46.523Z</time></trkpt><trkpt lat="46.2695917" lon="12.34492"><ele>797.0</ele><time>2026-04-17T11:50:47.525Z</time></trkpt><trkpt lat="46.2695233" lon="12.34533"><ele>798.5</ele><time>2026-04-17T11:50:48.524Z</time></trkpt><trkpt lat="46.2694383" lon="12.3457533"><ele>800.0</ele><time>2026-04-17T11:50:49.524Z</time></trkpt><trkpt lat="46.2693383" lon="12.3461767"><ele>805.5</ele><time>2026-04-17T11:50:50.526Z</time></trkpt><trkpt lat="46.26923" lon="12.34658"><ele>811.0</ele><time>2026-04-17T11:50:51.523Z</time></trkpt><trkpt lat="46.269115" lon="12.3469533"><ele>814.0</ele><time>2026-04-17T11:50:52.523Z</time></trkpt><trkpt lat="46.2689967" lon="12.347295"><ele>817.0</ele><time>2026-04-17T11:50:53.523Z</time></trkpt><trkpt lat="46.2688833" lon="12.3475917"><ele>817.0</ele><time>2026-04-17T11:50:54.524Z</time></trkpt><trkpt lat="46.2687883" lon="12.34784"><ele>817.0</ele><time>2026-04-17T11:50:55.523Z</time></trkpt><trkpt lat="46.2687317" lon="12.3480617"><ele>817.0</ele><time>2026-04-17T11:50:56.523Z</time></trkpt><trkpt lat="46.268715" lon="12.3482783"><ele>808.3333333333333</ele><time>2026-04-17T11:50:57.522Z</time></trkpt><trkpt lat="46.2687467" lon="12.3484933"><ele>799.6666666666667</ele><time>2026-04-17T11:50:58.522Z</time></trkpt><trkpt lat="46.26882" lon="12.3487183"><ele>791.0</ele><time>2026-04-17T11:50:59.526Z</time></trkpt><trkpt lat="46.2689267" lon="12.34898"><ele>801.5</ele><time>2026-04-17T11:51:00.524Z</time></trkpt><trkpt lat="46.2690283" lon="12.3493017"><ele>812.0</ele><time>2026-04-17T11:51:01.524Z</time></trkpt><trkpt lat="46.269125" lon="12.3496817"><ele>809.5</ele><time>2026-04-17T11:51:02.524Z</time></trkpt><trkpt lat="46.2692083" lon="12.3501"><ele>807.0</ele><time>2026-04-17T11:51:03.524Z</time></trkpt><trkpt lat="46.2692917" lon="12.3505133"><ele>802.5</ele><time>2026-04-17T11:51:04.522Z</time></trkpt><trkpt lat="46.2693633" lon="12.3509067"><ele>798.0</ele><time>2026-04-17T11:51:05.523Z</time></trkpt><trkpt lat="46.2694117" lon="12.3512867"><ele>796.0</ele><time>2026-04-17T11:51:06.525Z</time></trkpt><trkpt lat="46.2694233" lon="12.3516683"><ele>794.0</ele><time>2026-04-17T11:51:07.523Z</time></trkpt><trkpt lat="46.2693967" lon="12.352055"><ele>796.5</ele><time>2026-04-17T11:51:08.524Z</time></trkpt><trkpt lat="46.2693533" lon="12.3524183"><ele>799.0</ele><time>2026-04-17T11:51:09.523Z</time></trkpt><trkpt lat="46.2693183" lon="12.3527217"><ele>799.0</ele><time>2026-04-17T11:51:10.523Z</time></trkpt><trkpt lat="46.269315" lon="12.3529633"><ele>799.0</ele><time>2026-04-17T11:51:11.523Z</time></trkpt><trkpt lat="46.269355" lon="12.35316"><ele>799.0</ele><time>2026-04-17T11:51:12.524Z</time></trkpt><trkpt lat="46.2694533" lon="12.3533183"><ele>794.6666666666666</ele><time>2026-04-17T11:51:13.523Z</time></trkpt><trkpt lat="46.26961" lon="12.3534467"><ele>790.3333333333333</ele><time>2026-04-17T11:51:14.523Z</time></trkpt><trkpt lat="46.2698017" lon="12.3535583"><ele>786.0</ele><time>2026-04-17T11:51:15.524Z</time></trkpt><trkpt lat="46.2699767" lon="12.3536983"><ele>789.0</ele><time>2026-04-17T11:51:16.524Z</time></trkpt><trkpt lat="46.2701117" lon="12.353875"><ele>792.0</ele><time>2026-04-17T11:51:17.523Z</time></trkpt><trkpt lat="46.2701933" lon="12.3540567"><ele>795.0</ele><time>2026-04-17T11:51:18.523Z</time></trkpt><trkpt lat="46.2702383" lon="12.3542283"><ele>795.0</ele><time>2026-04-17T11:51:19.523Z</time></trkpt><trkpt lat="46.27027" lon="12.35438"><ele>795.0</ele><time>2026-04-17T11:51:20.522Z</time></trkpt><trkpt lat="46.2702883" lon="12.3545"><ele>795.0</ele><time>2026-04-17T11:51:21.523Z</time></trkpt><trkpt lat="46.270305" lon="12.3545967"><ele>795.0</ele><time>2026-04-17T11:51:22.523Z</time></trkpt><trkpt lat="46.27033" lon="12.3547267"><ele>795.0</ele><time>2026-04-17T11:51:24.523Z</time></trkpt><trkpt lat="46.2703617" lon="12.3548317"><ele>795.0</ele><time>2026-04-17T11:51:27.523Z</time></trkpt><trkpt lat="46.2703317" lon="12.3546267"><ele>795.0</ele><time>2026-04-17T11:51:28.523Z</time></trkpt><trkpt lat="46.27033" lon="12.3543883"><ele>795.0</ele><time>2026-04-17T11:51:29.522Z</time></trkpt><trkpt lat="46.2702817" lon="12.3541983"><ele>795.0</ele><time>2026-04-17T11:51:30.524Z</time></trkpt><trkpt lat="46.270215" lon="12.3540117"><ele>807.3333333333333</ele><time>2026-04-17T11:51:31.523Z</time></trkpt><trkpt lat="46.27012" lon="12.35382"><ele>819.6666666666666</ele><time>2026-04-17T11:51:32.523Z</time></trkpt><trkpt lat="46.269995" lon="12.3536617"><ele>832.0</ele><time>2026-04-17T11:51:33.523Z</time></trkpt><trkpt lat="46.269835" lon="12.3535367"><ele>820.5</ele><time>2026-04-17T11:51:34.523Z</time></trkpt><trkpt lat="46.269675" lon="12.353425"><ele>809.0</ele><time>2026-04-17T11:51:35.523Z</time></trkpt><trkpt lat="46.2695433" lon="12.3533383"><ele>797.5</ele><time>2026-04-17T11:51:36.521Z</time></trkpt><trkpt lat="46.2694567" lon="12.3532667"><ele>786.0</ele><time>2026-04-17T11:51:37.523Z</time></trkpt><trkpt lat="46.2693933" lon="12.353205"><ele>786.0</ele><time>2026-04-17T11:51:38.522Z</time></trkpt><trkpt lat="46.2693283" lon="12.3530983"><ele>786.0</ele><time>2026-04-17T11:51:40.522Z</time></trkpt><trkpt lat="46.2693067" lon="12.35301"><ele>786.0</ele><time>2026-04-17T11:51:42.524Z</time></trkpt><trkpt lat="46.2692583" lon="12.35307"><ele>786.0</ele><time>2026-04-17T11:51:48.523Z</time></trkpt><trkpt lat="46.269305" lon="12.35314"><ele>786.0</ele><time>2026-04-17T12:40:59.52Z</time></trkpt><trkpt lat="46.26939" lon="12.3532483"><ele>786.0</ele><time>2026-04-17T12:41:01.519Z</time></trkpt><trkpt lat="46.2694467" lon="12.3532983"><ele>786.0</ele><time>2026-04-17T12:41:02.52Z</time></trkpt><trkpt lat="46.2695017" lon="12.3533667"><ele>786.0</ele><time>2026-04-17T12:41:03.519Z</time></trkpt><trkpt lat="46.2695667" lon="12.3534367"><ele>786.0</ele><time>2026-04-17T12:41:04.518Z</time></trkpt><trkpt lat="46.26964" lon="12.3534917"><ele>786.0</ele><time>2026-04-17T12:41:05.518Z</time></trkpt><trkpt lat="46.26972" lon="12.3535433"><ele>786.0</ele><time>2026-04-17T12:41:06.517Z</time></trkpt><trkpt lat="46.2697983" lon="12.3535883"><ele>786.0</ele><time>2026-04-17T12:41:07.52Z</time></trkpt><trkpt lat="46.26988" lon="12.353635"><ele>787.8</ele><time>2026-04-17T12:41:08.52Z</time></trkpt><trkpt lat="46.26996" lon="12.3536917"><ele>789.5999999999999</ele><time>2026-04-17T12:41:09.519Z</time></trkpt><trkpt lat="46.270035" lon="12.3537683"><ele>791.4</ele><time>2026-04-17T12:41:10.521Z</time></trkpt><trkpt lat="46.2701017" lon="12.3538567"><ele>793.2</ele><time>2026-04-17T12:41:11.521Z</time></trkpt><trkpt lat="46.2701533" lon="12.3539667"><ele>795.0</ele><time>2026-04-17T12:41:12.519Z</time></trkpt><trkpt lat="46.270195" lon="12.3541017"><ele>795.0</ele><time>2026-04-17T12:41:13.517Z</time></trkpt><trkpt lat="46.27023" lon="12.3542533"><ele>795.0</ele><time>2026-04-17T12:41:14.522Z</time></trkpt><trkpt lat="46.2702667" lon="12.3544183"><ele>795.0</ele><time>2026-04-17T12:41:15.521Z</time></trkpt><trkpt lat="46.2703067" lon="12.3545817"><ele>795.0</ele><time>2026-04-17T12:41:16.52Z</time></trkpt><trkpt lat="46.270355" lon="12.3547483"><ele>788.3333333333333</ele><time>2026-04-17T12:41:17.521Z</time></trkpt><trkpt lat="46.2704067" lon="12.354915"><ele>781.6666666666666</ele><time>2026-04-17T12:41:18.521Z</time></trkpt><trkpt lat="46.27046" lon="12.3550767"><ele>775.0</ele><time>2026-04-17T12:41:19.52Z</time></trkpt><trkpt lat="46.2712033" lon="12.3596217"><ele>773.0</ele><time>2026-04-17T12:41:42.522Z</time></trkpt><trkpt lat="46.27122" lon="12.359755"><ele>771.0</ele><time>2026-04-17T12:41:43.519Z</time></trkpt><trkpt lat="46.2712233" lon="12.359895"><ele>769.0</ele><time>2026-04-17T12:41:44.519Z</time></trkpt><trkpt lat="46.2712217" lon="12.3600433"><ele>767.0</ele><time>2026-04-17T12:41:45.519Z</time></trkpt><trkpt lat="46.2712183" lon="12.3601983"><ele>765.0</ele><time>2026-04-17T12:41:46.521Z</time></trkpt><trkpt lat="46.27122" lon="12.3603467"><ele>765.0</ele><time>2026-04-17T12:41:47.522Z</time></trkpt><trkpt lat="46.2712117" lon="12.3605033"><ele>765.0</ele><time>2026-04-17T12:41:48.521Z</time></trkpt><trkpt lat="46.2711967" lon="12.360655"><ele>765.0</ele><time>2026-04-17T12:41:49.52Z</time></trkpt><trkpt lat="46.2711683" lon="12.3607983"><ele>765.0</ele><time>2026-04-17T12:41:50.521Z</time></trkpt><trkpt lat="46.271125" lon="12.3609333"><ele>765.0</ele><time>2026-04-17T12:41:51.523Z</time></trkpt><trkpt lat="46.2710733" lon="12.36105"><ele>765.4</ele><time>2026-04-17T12:41:52.521Z</time></trkpt><trkpt lat="46.271015" lon="12.3611633"><ele>765.8</ele><time>2026-04-17T12:41:53.521Z</time></trkpt><trkpt lat="46.2709583" lon="12.3612917"><ele>766.2</ele><time>2026-04-17T12:41:54.519Z</time></trkpt><trkpt lat="46.27092" lon="12.36143"><ele>766.6</ele><time>2026-04-17T12:41:55.518Z</time></trkpt><trkpt lat="46.27089" lon="12.36157"><ele>767.0</ele><time>2026-04-17T12:41:56.519Z</time></trkpt><trkpt lat="46.27087" lon="12.3617117"><ele>766.5</ele><time>2026-04-17T12:41:57.521Z</time></trkpt><trkpt lat="46.27085" lon="12.361865"><ele>766.0</ele><time>2026-04-17T12:41:58.521Z</time></trkpt><trkpt lat="46.2708383" lon="12.36203"><ele>765.5</ele><time>2026-04-17T12:41:59.52Z</time></trkpt><trkpt lat="46.2708433" lon="12.3622083"><ele>765.0</ele><time>2026-04-17T12:42:00.523Z</time></trkpt><trkpt lat="46.270875" lon="12.3623867"><ele>765.0</ele><time>2026-04-17T12:42:01.52Z</time></trkpt><trkpt lat="46.2709333" lon="12.3625417"><ele>765.0</ele><time>2026-04-17T12:42:02.522Z</time></trkpt><trkpt lat="46.2710183" lon="12.3626583"><ele>765.0</ele><time>2026-04-17T12:42:03.521Z</time></trkpt><trkpt lat="46.2711367" lon="12.362735"><ele>765.0</ele><time>2026-04-17T12:42:04.52Z</time></trkpt><trkpt lat="46.2712733" lon="12.362795"><ele>765.0</ele><time>2026-04-17T12:42:05.52Z</time></trkpt><trkpt lat="46.27141" lon="12.3628517"><ele>765.0</ele><time>2026-04-17T12:42:06.52Z</time></trkpt><trkpt lat="46.27154" lon="12.36292"><ele>765.0</ele><time>2026-04-17T12:42:07.519Z</time></trkpt><trkpt lat="46.2716667" lon="12.363"><ele>765.0</ele><time>2026-04-17T12:42:08.52Z</time></trkpt><trkpt lat="46.2717883" lon="12.3630883"><ele>765.6</ele><time>2026-04-17T12:42:09.522Z</time></trkpt><trkpt lat="46.2719017" lon="12.36317"><ele>766.2</ele><time>2026-04-17T12:42:10.52Z</time></trkpt><trkpt lat="46.272005" lon="12.3632433"><ele>766.8</ele><time>2026-04-17T12:42:11.519Z</time></trkpt><trkpt lat="46.272095" lon="12.36332"><ele>767.4</ele><time>2026-04-17T12:42:12.519Z</time></trkpt><trkpt lat="46.27217" lon="12.3634133"><ele>768.0</ele><time>2026-04-17T12:42:13.521Z</time></trkpt><trkpt lat="46.2722233" lon="12.3635417"><ele>768.0</ele><time>2026-04-17T12:42:14.52Z</time></trkpt><trkpt lat="46.2722467" lon="12.3637133"><ele>768.0</ele><time>2026-04-17T12:42:15.521Z</time></trkpt><trkpt lat="46.27226" lon="12.3639017"><ele>768.0</ele><time>2026-04-17T12:42:16.519Z</time></trkpt><trkpt lat="46.27227" lon="12.3641"><ele>768.0</ele><time>2026-04-17T12:42:17.519Z</time></trkpt><trkpt lat="46.2722833" lon="12.3643017"><ele>772.75</ele><time>2026-04-17T12:42:18.519Z</time></trkpt><trkpt lat="46.272295" lon="12.3645033"><ele>777.5</ele><time>2026-04-17T12:42:19.522Z</time></trkpt><trkpt lat="46.2723067" lon="12.3647083"><ele>782.25</ele><time>2026-04-17T12:42:20.521Z</time></trkpt><trkpt lat="46.2723183" lon="12.3649133"><ele>787.0</ele><time>2026-04-17T12:42:21.521Z</time></trkpt><trkpt lat="46.2723267" lon="12.3651183"><ele>787.0</ele><time>2026-04-17T12:42:22.518Z</time></trkpt><trkpt lat="46.27234" lon="12.3653217"><ele>787.0</ele><time>2026-04-17T12:42:23.517Z</time></trkpt><trkpt lat="46.2723617" lon="12.3655233"><ele>787.0</ele><time>2026-04-17T12:42:24.522Z</time></trkpt><trkpt lat="46.2723933" lon="12.3657267"><ele>787.0</ele><time>2026-04-17T12:42:25.522Z</time></trkpt><trkpt lat="46.2724317" lon="12.36593"><ele>785.5</ele><time>2026-04-17T12:42:26.522Z</time></trkpt><trkpt lat="46.2724767" lon="12.3661317"><ele>784.0</ele><time>2026-04-17T12:42:27.519Z</time></trkpt><trkpt lat="46.2725183" lon="12.3663317"><ele>782.5</ele><time>2026-04-17T12:42:28.52Z</time></trkpt><trkpt lat="46.2725617" lon="12.366535"><ele>781.0</ele><time>2026-04-17T12:42:29.519Z</time></trkpt><trkpt lat="46.2726067" lon="12.3667367"><ele>779.75</ele><time>2026-04-17T12:42:30.522Z</time></trkpt><trkpt lat="46.272655" lon="12.366935"><ele>778.5</ele><time>2026-04-17T12:42:31.52Z</time></trkpt><trkpt lat="46.2727067" lon="12.367125"><ele>777.25</ele><time>2026-04-17T12:42:32.521Z</time></trkpt><trkpt lat="46.27277" lon="12.3673083"><ele>776.0</ele><time>2026-04-17T12:42:33.519Z</time></trkpt><trkpt lat="46.272845" lon="12.3674817"><ele>775.75</ele><time>2026-04-17T12:42:34.518Z</time></trkpt><trkpt lat="46.2729317" lon="12.3676317"><ele>775.5</ele><time>2026-04-17T12:42:35.521Z</time></trkpt><trkpt lat="46.2730267" lon="12.36774"><ele>775.25</ele><time>2026-04-17T12:42:36.521Z</time></trkpt><trkpt lat="46.2731383" lon="12.3677967"><ele>775.0</ele><time>2026-04-17T12:42:37.521Z</time></trkpt><trkpt lat="46.273255" lon="12.36781"><ele>779.0</ele><time>2026-04-17T12:42:38.519Z</time></trkpt><trkpt lat="46.2733783" lon="12.3678017"><ele>783.0</ele><time>2026-04-17T12:42:39.519Z</time></trkpt><trkpt lat="46.2735" lon="12.36779"><ele>787.0</ele><time>2026-04-17T12:42:40.519Z</time></trkpt><trkpt lat="46.2736117" lon="12.36779"><ele>791.0</ele><time>2026-04-17T12:42:41.521Z</time></trkpt><trkpt lat="46.273715" lon="12.3678317"><ele>791.0</ele><time>2026-04-17T12:42:42.52Z</time></trkpt><trkpt lat="46.273795" lon="12.3679133"><ele>791.0</ele><time>2026-04-17T12:42:43.521Z</time></trkpt><trkpt lat="46.2738467" lon="12.3680333"><ele>791.0</ele><time>2026-04-17T12:42:44.519Z</time></trkpt><trkpt lat="46.27387" lon="12.368175"><ele>791.0</ele><time>2026-04-17T12:42:45.519Z</time></trkpt><trkpt lat="46.273865" lon="12.3683283"><ele>791.0</ele><time>2026-04-17T12:42:46.518Z</time></trkpt><trkpt lat="46.27383" lon="12.3684883"><ele>788.25</ele><time>2026-04-17T12:42:47.521Z</time></trkpt><trkpt lat="46.27378" lon="12.3686533"><ele>785.5</ele><time>2026-04-17T12:42:48.522Z</time></trkpt><trkpt lat="46.2737183" lon="12.3688267"><ele>782.75</ele><time>2026-04-17T12:42:49.518Z</time></trkpt><trkpt lat="46.2736467" lon="12.36901"><ele>780.0</ele><time>2026-04-17T12:42:50.52Z</time></trkpt><trkpt lat="46.2736233" lon="12.3692117"><ele>779.75</ele><time>2026-04-17T12:42:51.519Z</time></trkpt><trkpt lat="46.2736533" lon="12.3694033"><ele>779.5</ele><time>2026-04-17T12:42:52.521Z</time></trkpt><trkpt lat="46.2736483" lon="12.3696017"><ele>779.25</ele><time>2026-04-17T12:42:53.522Z</time></trkpt><trkpt lat="46.2736683" lon="12.369825"><ele>779.0</ele><time>2026-04-17T12:42:54.524Z</time></trkpt><trkpt lat="46.27374" lon="12.3700183"><ele>779.0</ele><time>2026-04-17T12:42:55.519Z</time></trkpt><trkpt lat="46.273825" lon="12.3702083"><ele>779.0</ele><time>2026-04-17T12:42:56.52Z</time></trkpt><trkpt lat="46.273925" lon="12.37039"><ele>779.0</ele><time>2026-04-17T12:42:57.523Z</time></trkpt><trkpt lat="46.274035" lon="12.3705683"><ele>783.6666666666667</ele><time>2026-04-17T12:42:58.521Z</time></trkpt><trkpt lat="46.27415" lon="12.3707467"><ele>788.3333333333333</ele><time>2026-04-17T12:42:59.521Z</time></trkpt><trkpt lat="46.2742583" lon="12.3709217"><ele>793.0</ele><time>2026-04-17T12:43:00.519Z</time></trkpt><trkpt lat="46.2743683" lon="12.3710967"><ele>793.0</ele><time>2026-04-17T12:43:01.52Z</time></trkpt><trkpt lat="46.2744767" lon="12.3712683"><ele>793.0</ele><time>2026-04-17T12:43:02.52Z</time></trkpt><trkpt lat="46.2745817" lon="12.3714417"><ele>793.0</ele><time>2026-04-17T12:43:03.521Z</time></trkpt><trkpt lat="46.27469" lon="12.3716067"><ele>796.0</ele><time>2026-04-17T12:43:04.522Z</time></trkpt><trkpt lat="46.2748033" lon="12.3717617"><ele>799.0</ele><time>2026-04-17T12:43:05.521Z</time></trkpt><trkpt lat="46.2749367" lon="12.3719017"><ele>802.0</ele><time>2026-04-17T12:43:06.519Z</time></trkpt><trkpt lat="46.2750717" lon="12.3720217"><ele>802.0</ele><time>2026-04-17T12:43:07.519Z</time></trkpt><trkpt lat="46.275215" lon="12.372125"><ele>802.0</ele><time>2026-04-17T12:43:08.521Z</time></trkpt><trkpt lat="46.2753617" lon="12.3722083"><ele>802.0</ele><time>2026-04-17T12:43:09.522Z</time></trkpt><trkpt lat="46.2755083" lon="12.3722767"><ele>800.25</ele><time>2026-04-17T12:43:10.521Z</time></trkpt><trkpt lat="46.275655" lon="12.3723333"><ele>798.5</ele><time>2026-04-17T12:43:11.52Z</time></trkpt><trkpt lat="46.2757967" lon="12.37238"><ele>796.75</ele><time>2026-04-17T12:43:12.52Z</time></trkpt><trkpt lat="46.2759383" lon="12.372425"><ele>795.0</ele><time>2026-04-17T12:43:13.519Z</time></trkpt><trkpt lat="46.2760783" lon="12.3724717"><ele>795.0</ele><time>2026-04-17T12:43:14.522Z</time></trkpt><trkpt lat="46.2762183" lon="12.372525"><ele>795.0</ele><time>2026-04-17T12:43:15.521Z</time></trkpt><trkpt lat="46.2763517" lon="12.3725783"><ele>795.0</ele><time>2026-04-17T12:43:16.521Z</time></trkpt><trkpt lat="46.27648" lon="12.3726283"><ele>795.0</ele><time>2026-04-17T12:43:17.518Z</time></trkpt><trkpt lat="46.2766033" lon="12.372695"><ele>794.25</ele><time>2026-04-17T12:43:18.519Z</time></trkpt><trkpt lat="46.2767117" lon="12.3727917"><ele>793.5</ele><time>2026-04-17T12:43:19.522Z</time></trkpt><trkpt lat="46.2768083" lon="12.3729217"><ele>792.75</ele><time>2026-04-17T12:43:20.522Z</time></trkpt><trkpt lat="46.2768917" lon="12.3730883"><ele>792.0</ele><time>2026-04-17T12:43:21.521Z</time></trkpt><trkpt lat="46.2769617" lon="12.3732717"><ele>792.0</ele><time>2026-04-17T12:43:22.521Z</time></trkpt><trkpt lat="46.2770317" lon="12.3734567"><ele>792.0</ele><time>2026-04-17T12:43:23.519Z</time></trkpt><trkpt lat="46.27711" lon="12.3736317"><ele>792.0</ele><time>2026-04-17T12:43:24.52Z</time></trkpt><trkpt lat="46.2772083" lon="12.3737767"><ele>792.0</ele><time>2026-04-17T12:43:25.521Z</time></trkpt><trkpt lat="46.2773167" lon="12.373895"><ele>791.5</ele><time>2026-04-17T12:43:26.521Z</time></trkpt><trkpt lat="46.27743" lon="12.3739833"><ele>791.0</ele><time>2026-04-17T12:43:27.522Z</time></trkpt><trkpt lat="46.27755" lon="12.37404"><ele>790.5</ele><time>2026-04-17T12:43:28.52Z</time></trkpt><trkpt lat="46.27767" lon="12.3740533"><ele>790.0</ele><time>2026-04-17T12:43:29.519Z</time></trkpt><trkpt lat="46.2777933" lon="12.3740233"><ele>790.0</ele><time>2026-04-17T12:43:30.519Z</time></trkpt><trkpt lat="46.2779133" lon="12.3739517"><ele>790.0</ele><time>2026-04-17T12:43:31.521Z</time></trkpt><trkpt lat="46.2780333" lon="12.3738517"><ele>790.0</ele><time>2026-04-17T12:43:32.522Z</time></trkpt><trkpt lat="46.27815" lon="12.373755"><ele>790.0</ele><time>2026-04-17T12:43:33.521Z</time></trkpt><trkpt lat="46.2782567" lon="12.373675"><ele>790.0</ele><time>2026-04-17T12:43:34.52Z</time></trkpt><trkpt lat="46.278365" lon="12.37365"><ele>790.0</ele><time>2026-04-17T12:43:35.518Z</time></trkpt><trkpt lat="46.2784617" lon="12.3736883"><ele>790.0</ele><time>2026-04-17T12:43:36.52Z</time></trkpt><trkpt lat="46.2785467" lon="12.373775"><ele>790.0</ele><time>2026-04-17T12:43:37.521Z</time></trkpt><trkpt lat="46.278615" lon="12.3738983"><ele>790.0</ele><time>2026-04-17T12:43:38.522Z</time></trkpt><trkpt lat="46.2786683" lon="12.3740567"><ele>790.0</ele><time>2026-04-17T12:43:39.519Z</time></trkpt><trkpt lat="46.2787083" lon="12.3742417"><ele>790.0</ele><time>2026-04-17T12:43:40.519Z</time></trkpt><trkpt lat="46.27879" lon="12.37438"><ele>790.0</ele><time>2026-04-17T12:43:41.521Z</time></trkpt><trkpt lat="46.2788367" lon="12.3745467"><ele>790.0</ele><time>2026-04-17T12:43:42.522Z</time></trkpt><trkpt lat="46.278905" lon="12.3747083"><ele>791.0</ele><time>2026-04-17T12:43:43.521Z</time></trkpt><trkpt lat="46.27901" lon="12.37485"><ele>792.0</ele><time>2026-04-17T12:43:44.523Z</time></trkpt><trkpt lat="46.279105" lon="12.3750117"><ele>793.0</ele><time>2026-04-17T12:43:45.519Z</time></trkpt><trkpt lat="46.2792367" lon="12.37512"><ele>794.0</ele><time>2026-04-17T12:43:46.519Z</time></trkpt><trkpt lat="46.2793733" lon="12.3752117"><ele>794.0</ele><time>2026-04-17T12:43:47.521Z</time></trkpt><trkpt lat="46.27952" lon="12.3752883"><ele>794.0</ele><time>2026-04-17T12:43:48.522Z</time></trkpt><trkpt lat="46.2796617" lon="12.37536"><ele>794.0</ele><time>2026-04-17T12:43:49.521Z</time></trkpt><trkpt lat="46.2798033" lon="12.37543"><ele>790.25</ele><time>2026-04-17T12:43:50.52Z</time></trkpt><trkpt lat="46.279945" lon="12.3755017"><ele>786.5</ele><time>2026-04-17T12:43:51.519Z</time></trkpt><trkpt lat="46.2800833" lon="12.3755733"><ele>782.75</ele><time>2026-04-17T12:43:52.52Z</time></trkpt><trkpt lat="46.28022" lon="12.3756333"><ele>779.0</ele><time>2026-04-17T12:43:53.521Z</time></trkpt><trkpt lat="46.2803533" lon="12.375675"><ele>779.0</ele><time>2026-04-17T12:43:54.52Z</time></trkpt><trkpt lat="46.2804833" lon="12.375705"><ele>779.0</ele><time>2026-04-17T12:43:55.521Z</time></trkpt><trkpt lat="46.2806067" lon="12.3757283"><ele>779.0</ele><time>2026-04-17T12:43:56.519Z</time></trkpt><trkpt lat="46.2807183" lon="12.3757433"><ele>779.0</ele><time>2026-04-17T12:43:57.518Z</time></trkpt><trkpt lat="46.2808233" lon="12.375755"><ele>779.6</ele><time>2026-04-17T12:43:58.52Z</time></trkpt><trkpt lat="46.2809217" lon="12.3757483"><ele>780.2</ele><time>2026-04-17T12:43:59.522Z</time></trkpt><trkpt lat="46.281015" lon="12.3756967"><ele>780.8000000000001</ele><time>2026-04-17T12:44:00.523Z</time></trkpt><trkpt lat="46.2811067" lon="12.3756117"><ele>781.4000000000001</ele><time>2026-04-17T12:44:01.521Z</time></trkpt><trkpt lat="46.281195" lon="12.3755167"><ele>782.0</ele><time>2026-04-17T12:44:02.521Z</time></trkpt><trkpt lat="46.281275" lon="12.3754267"><ele>782.0000000000001</ele><time>2026-04-17T12:44:03.521Z</time></trkpt><trkpt lat="46.2813483" lon="12.37536"><ele>782.0</ele><time>2026-04-17T12:44:04.523Z</time></trkpt><trkpt lat="46.2814183" lon="12.3753233"><ele>782.0</ele><time>2026-04-17T12:44:05.522Z</time></trkpt><trkpt lat="46.28149" lon="12.3753217"><ele>782.0</ele><time>2026-04-17T12:44:06.523Z</time></trkpt><trkpt lat="46.2815667" lon="12.3754183"><ele>782.0000000000001</ele><time>2026-04-17T12:44:07.521Z</time></trkpt><trkpt lat="46.2816433" lon="12.3755183"><ele>782.0</ele><time>2026-04-17T12:44:08.52Z</time></trkpt><trkpt lat="46.2817233" lon="12.3756283"><ele>782.0</ele><time>2026-04-17T12:44:09.522Z</time></trkpt><trkpt lat="46.281805" lon="12.3757417"><ele>782.0</ele><time>2026-04-17T12:44:10.521Z</time></trkpt><trkpt lat="46.2818767" lon="12.375875"><ele>782.0</ele><time>2026-04-17T12:44:11.523Z</time></trkpt><trkpt lat="46.28193" lon="12.3760183"><ele>782.0</ele><time>2026-04-17T12:44:12.521Z</time></trkpt><trkpt lat="46.28196" lon="12.3761633"><ele>782.0</ele><time>2026-04-17T12:44:13.521Z</time></trkpt><trkpt lat="46.28196" lon="12.37631"><ele>779.5</ele><time>2026-04-17T12:44:14.52Z</time></trkpt><trkpt lat="46.2819317" lon="12.3764567"><ele>777.0</ele><time>2026-04-17T12:44:15.522Z</time></trkpt><trkpt lat="46.2818867" lon="12.3766167"><ele>774.5</ele><time>2026-04-17T12:44:16.522Z</time></trkpt><trkpt lat="46.2818383" lon="12.3768017"><ele>772.0</ele><time>2026-04-17T12:44:17.522Z</time></trkpt><trkpt lat="46.281795" lon="12.3770167"><ele>774.6666666666666</ele><time>2026-04-17T12:44:18.52Z</time></trkpt><trkpt lat="46.2817567" lon="12.3772517"><ele>777.3333333333333</ele><time>2026-04-17T12:44:19.521Z</time></trkpt><trkpt lat="46.281725" lon="12.3774933"><ele>780.0</ele><time>2026-04-17T12:44:20.522Z</time></trkpt><trkpt lat="46.281695" lon="12.37773"><ele>780.0</ele><time>2026-04-17T12:44:21.522Z</time></trkpt><trkpt lat="46.2816683" lon="12.37796"><ele>780.0</ele><time>2026-04-17T12:44:22.521Z</time></trkpt><trkpt lat="46.2816367" lon="12.3781883"><ele>780.0</ele><time>2026-04-17T12:44:23.521Z</time></trkpt><trkpt lat="46.2815967" lon="12.3784"><ele>776.5</ele><time>2026-04-17T12:44:24.519Z</time></trkpt><trkpt lat="46.2815483" lon="12.3786017"><ele>773.0</ele><time>2026-04-17T12:44:25.52Z</time></trkpt><trkpt lat="46.280095" lon="12.3810833"><ele>773.0</ele><time>2026-04-17T12:44:40.518Z</time></trkpt><trkpt lat="46.279775" lon="12.38115"><ele>773.0</ele><time>2026-04-17T12:44:41.519Z</time></trkpt><trkpt lat="46.2796717" lon="12.38119"><ele>773.0</ele><time>2026-04-17T12:44:42.521Z</time></trkpt><trkpt lat="46.2795683" lon="12.3811883"><ele>773.75</ele><time>2026-04-17T12:44:43.521Z</time></trkpt><trkpt lat="46.27947" lon="12.3811167"><ele>774.5</ele><time>2026-04-17T12:44:44.519Z</time></trkpt><trkpt lat="46.279395" lon="12.38099"><ele>775.25</ele><time>2026-04-17T12:44:45.519Z</time></trkpt><trkpt lat="46.2793" lon="12.380845"><ele>776.0</ele><time>2026-04-17T12:44:46.52Z</time></trkpt><trkpt lat="46.2792033" lon="12.3806933"><ele>776.0</ele><time>2026-04-17T12:44:47.52Z</time></trkpt><trkpt lat="46.2791033" lon="12.3805533"><ele>776.0</ele><time>2026-04-17T12:44:48.522Z</time></trkpt><trkpt lat="46.279015" lon="12.38043"><ele>776.0</ele><time>2026-04-17T12:44:49.52Z</time></trkpt><trkpt lat="46.2789217" lon="12.3803283"><ele>776.0</ele><time>2026-04-17T12:44:50.521Z</time></trkpt><trkpt lat="46.278825" lon="12.3802683"><ele>767.75</ele><time>2026-04-17T12:44:51.518Z</time></trkpt><trkpt lat="46.2787183" lon="12.3802633"><ele>759.5</ele><time>2026-04-17T12:44:52.52Z</time></trkpt><trkpt lat="46.278605" lon="12.380315"><ele>751.25</ele><time>2026-04-17T12:44:53.521Z</time></trkpt><trkpt lat="46.2784817" lon="12.38041"><ele>743.0</ele><time>2026-04-17T12:44:54.521Z</time></trkpt><trkpt lat="46.2783467" lon="12.38051"><ele>743.0</ele><time>2026-04-17T12:44:55.521Z</time></trkpt><trkpt lat="46.2782017" lon="12.38059"><ele>743.0</ele><time>2026-04-17T12:44:56.522Z</time></trkpt><trkpt lat="46.278065" lon="12.38066"><ele>743.0</ele><time>2026-04-17T12:44:57.52Z</time></trkpt><trkpt lat="46.2779317" lon="12.3807417"><ele>743.0</ele><time>2026-04-17T12:44:58.52Z</time></trkpt><trkpt lat="46.2778083" lon="12.380835"><ele>743.0</ele><time>2026-04-17T12:44:59.519Z</time></trkpt><trkpt lat="46.2777067" lon="12.38096"><ele>743.0</ele><time>2026-04-17T12:45:00.522Z</time></trkpt><trkpt lat="46.2776167" lon="12.38112"><ele>743.0</ele><time>2026-04-17T12:45:01.52Z</time></trkpt><trkpt lat="46.277535" lon="12.3813167"><ele>743.0</ele><time>2026-04-17T12:45:02.522Z</time></trkpt><trkpt lat="46.277455" lon="12.3815283"><ele>749.0</ele><time>2026-04-17T12:45:03.521Z</time></trkpt><trkpt lat="46.2773783" lon="12.3817367"><ele>755.0</ele><time>2026-04-17T12:45:04.52Z</time></trkpt><trkpt lat="46.2773133" lon="12.381945"><ele>761.0</ele><time>2026-04-17T12:45:05.521Z</time></trkpt><trkpt lat="46.27727" lon="12.38216"><ele>751.0</ele><time>2026-04-17T12:45:06.522Z</time></trkpt><trkpt lat="46.2772583" lon="12.382385"><ele>741.0</ele><time>2026-04-17T12:45:07.521Z</time></trkpt><trkpt lat="46.2772583" lon="12.382605"><ele>731.0</ele><time>2026-04-17T12:45:08.522Z</time></trkpt><trkpt lat="46.2772517" lon="12.382815"><ele>731.0</ele><time>2026-04-17T12:45:09.52Z</time></trkpt><trkpt lat="46.2772367" lon="12.3830083"><ele>731.0</ele><time>2026-04-17T12:45:10.519Z</time></trkpt><trkpt lat="46.2771967" lon="12.3831833"><ele>731.0</ele><time>2026-04-17T12:45:11.52Z</time></trkpt><trkpt lat="46.2771367" lon="12.38334"><ele>731.0</ele><time>2026-04-17T12:45:12.524Z</time></trkpt><trkpt lat="46.2770667" lon="12.3834933"><ele>732.25</ele><time>2026-04-17T12:45:13.519Z</time></trkpt><trkpt lat="46.277" lon="12.38364"><ele>733.5</ele><time>2026-04-17T12:45:14.524Z</time></trkpt><trkpt lat="46.276935" lon="12.3837833"><ele>734.75</ele><time>2026-04-17T12:45:15.52Z</time></trkpt><trkpt lat="46.2768683" lon="12.3839267"><ele>736.0</ele><time>2026-04-17T12:45:16.519Z</time></trkpt><trkpt lat="46.2768067" lon="12.3840733"><ele>738.0</ele><time>2026-04-17T12:45:17.522Z</time></trkpt><trkpt lat="46.27676" lon="12.3842183"><ele>740.0</ele><time>2026-04-17T12:45:18.521Z</time></trkpt><trkpt lat="46.276735" lon="12.38437"><ele>742.0</ele><time>2026-04-17T12:45:19.521Z</time></trkpt><trkpt lat="46.2767433" lon="12.3845417"><ele>744.0</ele><time>2026-04-17T12:45:20.519Z</time></trkpt><trkpt lat="46.2767767" lon="12.3847333"><ele>744.0</ele><time>2026-04-17T12:45:21.52Z</time></trkpt><trkpt lat="46.2768267" lon="12.3849367"><ele>744.0</ele><time>2026-04-17T12:45:22.52Z</time></trkpt><trkpt lat="46.2768783" lon="12.3851467"><ele>744.0</ele><time>2026-04-17T12:45:23.522Z</time></trkpt><trkpt lat="46.276925" lon="12.3853667"><ele>741.3333333333334</ele><time>2026-04-17T12:45:24.521Z</time></trkpt><trkpt lat="46.2769567" lon="12.3855917"><ele>738.6666666666667</ele><time>2026-04-17T12:45:25.521Z</time></trkpt><trkpt lat="46.27699" lon="12.3858133"><ele>736.0</ele><time>2026-04-17T12:45:26.521Z</time></trkpt><trkpt lat="46.2770467" lon="12.38603"><ele>736.0</ele><time>2026-04-17T12:45:27.519Z</time></trkpt><trkpt lat="46.2771217" lon="12.3862367"><ele>736.0</ele><time>2026-04-17T12:45:28.522Z</time></trkpt><trkpt lat="46.2772017" lon="12.3864333"><ele>736.0</ele><time>2026-04-17T12:45:29.522Z</time></trkpt><trkpt lat="46.2772717" lon="12.3866233"><ele>744.5</ele><time>2026-04-17T12:45:30.522Z</time></trkpt><trkpt lat="46.277325" lon="12.3868117"><ele>753.0</ele><time>2026-04-17T12:45:31.521Z</time></trkpt><trkpt lat="46.2773533" lon="12.387005"><ele>761.5</ele><time>2026-04-17T12:45:32.522Z</time></trkpt><trkpt lat="46.27736" lon="12.3871983"><ele>770.0</ele><time>2026-04-17T12:45:33.522Z</time></trkpt><trkpt lat="46.2773583" lon="12.3873833"><ele>770.0</ele><time>2026-04-17T12:45:34.523Z</time></trkpt><trkpt lat="46.2773533" lon="12.3875617"><ele>770.0</ele><time>2026-04-17T12:45:35.523Z</time></trkpt><trkpt lat="46.2773567" lon="12.3877467"><ele>770.0</ele><time>2026-04-17T12:45:36.523Z</time></trkpt><trkpt lat="46.277375" lon="12.3879383"><ele>770.0</ele><time>2026-04-17T12:45:37.522Z</time></trkpt><trkpt lat="46.2774033" lon="12.3881267"><ele>769.5</ele><time>2026-04-17T12:45:38.522Z</time></trkpt><trkpt lat="46.2774267" lon="12.388315"><ele>769.0</ele><time>2026-04-17T12:45:39.523Z</time></trkpt><trkpt lat="46.2774333" lon="12.3885"><ele>768.5</ele><time>2026-04-17T12:45:40.522Z</time></trkpt><trkpt lat="46.2774367" lon="12.38868"><ele>768.0</ele><time>2026-04-17T12:45:41.523Z</time></trkpt><trkpt lat="46.2774433" lon="12.38886"><ele>766.25</ele><time>2026-04-17T12:45:42.522Z</time></trkpt><trkpt lat="46.2774833" lon="12.38905"><ele>764.5</ele><time>2026-04-17T12:45:43.521Z</time></trkpt><trkpt lat="46.2775383" lon="12.38923"><ele>762.75</ele><time>2026-04-17T12:45:44.521Z</time></trkpt><trkpt lat="46.2775967" lon="12.3894"><ele>761.0</ele><time>2026-04-17T12:45:45.524Z</time></trkpt><trkpt lat="46.2776317" lon="12.3895683"><ele>756.25</ele><time>2026-04-17T12:45:46.524Z</time></trkpt><trkpt lat="46.2776233" lon="12.3897833"><ele>751.5</ele><time>2026-04-17T12:45:47.523Z</time></trkpt><trkpt lat="46.2776433" lon="12.38994"><ele>746.75</ele><time>2026-04-17T12:45:48.521Z</time></trkpt><trkpt lat="46.2777" lon="12.3900733"><ele>742.0</ele><time>2026-04-17T12:45:49.521Z</time></trkpt><trkpt lat="46.2777783" lon="12.3901883"><ele>742.0</ele><time>2026-04-17T12:45:50.523Z</time></trkpt><trkpt lat="46.277915" lon="12.3902433"><ele>742.0</ele><time>2026-04-17T12:45:51.523Z</time></trkpt><trkpt lat="46.2780483" lon="12.39033"><ele>742.0</ele><time>2026-04-17T12:45:52.523Z</time></trkpt><trkpt lat="46.27819" lon="12.3904283"><ele>742.0</ele><time>2026-04-17T12:45:53.521Z</time></trkpt><trkpt lat="46.278335" lon="12.3905567"><ele>747.3333333333334</ele><time>2026-04-17T12:45:54.522Z</time></trkpt><trkpt lat="46.278475" lon="12.390715"><ele>752.6666666666666</ele><time>2026-04-17T12:45:55.522Z</time></trkpt><trkpt lat="46.2786083" lon="12.39091"><ele>758.0</ele><time>2026-04-17T12:45:56.523Z</time></trkpt><trkpt lat="46.2787367" lon="12.3911333"><ele>764.3333333333333</ele><time>2026-04-17T12:45:57.524Z</time></trkpt><trkpt lat="46.2788683" lon="12.3913567"><ele>770.6666666666666</ele><time>2026-04-17T12:45:58.522Z</time></trkpt><trkpt lat="46.27899" lon="12.3915817"><ele>777.0</ele><time>2026-04-17T12:45:59.521Z</time></trkpt><trkpt lat="46.2791067" lon="12.3918017"><ele>777.0</ele><time>2026-04-17T12:46:00.524Z</time></trkpt><trkpt lat="46.279205" lon="12.3920367"><ele>777.0</ele><time>2026-04-17T12:46:01.525Z</time></trkpt><trkpt lat="46.2792883" lon="12.3922883"><ele>777.0</ele><time>2026-04-17T12:46:02.522Z</time></trkpt><trkpt lat="46.2793517" lon="12.392545"><ele>773.0</ele><time>2026-04-17T12:46:03.522Z</time></trkpt><trkpt lat="46.2794117" lon="12.3927933"><ele>769.0</ele><time>2026-04-17T12:46:04.522Z</time></trkpt><trkpt lat="46.2794883" lon="12.3930317"><ele>765.0</ele><time>2026-04-17T12:46:05.521Z</time></trkpt><trkpt lat="46.2795967" lon="12.3932533"><ele>767.6666666666667</ele><time>2026-04-17T12:46:06.522Z</time></trkpt><trkpt lat="46.27973" lon="12.3934683"><ele>770.3333333333334</ele><time>2026-04-17T12:46:07.522Z</time></trkpt><trkpt lat="46.2798767" lon="12.3936817"><ele>773.0</ele><time>2026-04-17T12:46:08.524Z</time></trkpt><trkpt lat="46.2800233" lon="12.39389"><ele>773.0</ele><time>2026-04-17T12:46:09.523Z</time></trkpt><trkpt lat="46.2801717" lon="12.3940983"><ele>773.0</ele><time>2026-04-17T12:46:10.522Z</time></trkpt><trkpt lat="46.2803183" lon="12.394305"><ele>773.0</ele><time>2026-04-17T12:46:11.521Z</time></trkpt><trkpt lat="46.2804617" lon="12.39452"><ele>774.0</ele><time>2026-04-17T12:46:12.523Z</time></trkpt><trkpt lat="46.2806017" lon="12.39475"><ele>775.0</ele><time>2026-04-17T12:46:13.522Z</time></trkpt><trkpt lat="46.2807317" lon="12.3950033"><ele>776.0</ele><time>2026-04-17T12:46:14.522Z</time></trkpt><trkpt lat="46.2808583" lon="12.3952717"><ele>775.0</ele><time>2026-04-17T12:46:15.521Z</time></trkpt><trkpt lat="46.28098" lon="12.39556"><ele>774.0</ele><time>2026-04-17T12:46:16.52Z</time></trkpt><trkpt lat="46.2810967" lon="12.39586"><ele>774.0</ele><time>2026-04-17T12:46:17.52Z</time></trkpt><trkpt lat="46.28121" lon="12.3961717"><ele>774.0</ele><time>2026-04-17T12:46:18.522Z</time></trkpt><trkpt lat="46.28132" lon="12.3964883"><ele>777.5</ele><time>2026-04-17T12:46:19.521Z</time></trkpt><trkpt lat="46.2814283" lon="12.3968"><ele>781.0</ele><time>2026-04-17T12:46:20.521Z</time></trkpt><trkpt lat="46.28153" lon="12.3970983"><ele>783.3333333333333</ele><time>2026-04-17T12:46:21.521Z</time></trkpt><trkpt lat="46.2816383" lon="12.3973767"><ele>785.6666666666667</ele><time>2026-04-17T12:46:22.52Z</time></trkpt><trkpt lat="46.2817683" lon="12.3976283"><ele>788.0</ele><time>2026-04-17T12:46:23.521Z</time></trkpt><trkpt lat="46.2819283" lon="12.397865"><ele>789.0</ele><time>2026-04-17T12:46:24.52Z</time></trkpt><trkpt lat="46.2820983" lon="12.398095"><ele>790.0</ele><time>2026-04-17T12:46:25.521Z</time></trkpt><trkpt lat="46.2822883" lon="12.39833"><ele>790.0</ele><time>2026-04-17T12:46:26.521Z</time></trkpt><trkpt lat="46.2824833" lon="12.3985733"><ele>790.0</ele><time>2026-04-17T12:46:27.521Z</time></trkpt><trkpt lat="46.28268" lon="12.3988233"><ele>794.0</ele><time>2026-04-17T12:46:28.523Z</time></trkpt><trkpt lat="46.28288" lon="12.3990767"><ele>798.0</ele><time>2026-04-17T12:46:29.521Z</time></trkpt><trkpt lat="46.2830783" lon="12.3993283"><ele>801.5</ele><time>2026-04-17T12:46:30.521Z</time></trkpt><trkpt lat="46.2832717" lon="12.3995817"><ele>805.0</ele><time>2026-04-17T12:46:31.521Z</time></trkpt><trkpt lat="46.2834483" lon="12.399835"><ele>805.5</ele><time>2026-04-17T12:46:32.522Z</time></trkpt><trkpt lat="46.2836117" lon="12.4000817"><ele>806.0</ele><time>2026-04-17T12:46:33.521Z</time></trkpt><trkpt lat="46.2837717" lon="12.40031"><ele>807.3333333333334</ele><time>2026-04-17T12:46:34.523Z</time></trkpt><trkpt lat="46.2839317" lon="12.40051"><ele>808.6666666666667</ele><time>2026-04-17T12:46:35.521Z</time></trkpt><trkpt lat="46.2840867" lon="12.4006883"><ele>810.0</ele><time>2026-04-17T12:46:36.521Z</time></trkpt><trkpt lat="46.28423" lon="12.4008717"><ele>810.0</ele><time>2026-04-17T12:46:37.521Z</time></trkpt><trkpt lat="46.2843483" lon="12.4010733"><ele>810.0</ele><time>2026-04-17T12:46:38.522Z</time></trkpt><trkpt lat="46.2844317" lon="12.40129"><ele>810.0</ele><time>2026-04-17T12:46:39.52Z</time></trkpt><trkpt lat="46.284485" lon="12.4015317"><ele>812.0</ele><time>2026-04-17T12:46:40.521Z</time></trkpt><trkpt lat="46.2845167" lon="12.4017967"><ele>814.0</ele><time>2026-04-17T12:46:41.52Z</time></trkpt><trkpt lat="46.284545" lon="12.4020833"><ele>816.0</ele><time>2026-04-17T12:46:42.521Z</time></trkpt><trkpt lat="46.2845967" lon="12.402385"><ele>822.0</ele><time>2026-04-17T12:46:43.521Z</time></trkpt><trkpt lat="46.2846717" lon="12.4026917"><ele>828.0</ele><time>2026-04-17T12:46:44.524Z</time></trkpt><trkpt lat="46.2847467" lon="12.403005"><ele>820.0</ele><time>2026-04-17T12:46:45.521Z</time></trkpt><trkpt lat="46.284825" lon="12.40332"><ele>812.0</ele><time>2026-04-17T12:46:46.522Z</time></trkpt><trkpt lat="46.2849033" lon="12.4036383"><ele>811.0</ele><time>2026-04-17T12:46:47.521Z</time></trkpt><trkpt lat="46.2849833" lon="12.40396"><ele>810.0</ele><time>2026-04-17T12:46:48.521Z</time></trkpt><trkpt lat="46.2850733" lon="12.4042733"><ele>810.0</ele><time>2026-04-17T12:46:49.521Z</time></trkpt><trkpt lat="46.2851833" lon="12.4045767"><ele>810.0</ele><time>2026-04-17T12:46:50.522Z</time></trkpt><trkpt lat="46.2853117" lon="12.4048667"><ele>810.5</ele><time>2026-04-17T12:46:51.521Z</time></trkpt><trkpt lat="46.285445" lon="12.4051433"><ele>811.0</ele><time>2026-04-17T12:46:52.52Z</time></trkpt><trkpt lat="46.285585" lon="12.4054033"><ele>813.0</ele><time>2026-04-17T12:46:53.521Z</time></trkpt><trkpt lat="46.2857383" lon="12.4056483"><ele>815.0</ele><time>2026-04-17T12:46:54.521Z</time></trkpt><trkpt lat="46.2859067" lon="12.4058733"><ele>815.0</ele><time>2026-04-17T12:46:55.521Z</time></trkpt><trkpt lat="46.2860833" lon="12.4060783"><ele>815.0</ele><time>2026-04-17T12:46:56.521Z</time></trkpt><trkpt lat="46.28627" lon="12.4062517"><ele>815.0</ele><time>2026-04-17T12:46:57.521Z</time></trkpt><trkpt lat="46.28645" lon="12.4063867"><ele>815.0</ele><time>2026-04-17T12:46:58.521Z</time></trkpt><trkpt lat="46.2866167" lon="12.4064967"><ele>815.0</ele><time>2026-04-17T12:46:59.522Z</time></trkpt><trkpt lat="46.286755" lon="12.4065883"><ele>815.0</ele><time>2026-04-17T12:47:00.521Z</time></trkpt><trkpt lat="46.28687" lon="12.4066717"><ele>815.0</ele><time>2026-04-17T12:47:01.52Z</time></trkpt><trkpt lat="46.28696" lon="12.40677"><ele>815.0</ele><time>2026-04-17T12:47:02.522Z</time></trkpt><trkpt lat="46.2870067" lon="12.406885"><ele>815.0</ele><time>2026-04-17T12:47:03.521Z</time></trkpt><trkpt lat="46.2870083" lon="12.407005"><ele>815.0</ele><time>2026-04-17T12:47:04.521Z</time></trkpt><trkpt lat="46.28698" lon="12.4071183"><ele>815.0</ele><time>2026-04-17T12:47:05.52Z</time></trkpt><trkpt lat="46.2868933" lon="12.4071667"><ele>815.0</ele><time>2026-04-17T12:47:06.519Z</time></trkpt><trkpt lat="46.286795" lon="12.407155"><ele>815.0</ele><time>2026-04-17T12:47:07.521Z</time></trkpt><trkpt lat="46.28668" lon="12.4071067"><ele>815.0</ele><time>2026-04-17T12:47:08.521Z</time></trkpt><trkpt lat="46.2865383" lon="12.4070667"><ele>815.0</ele><time>2026-04-17T12:47:09.52Z</time></trkpt><trkpt lat="46.28638" lon="12.407065"><ele>814.0</ele><time>2026-04-17T12:47:10.521Z</time></trkpt><trkpt lat="46.2862117" lon="12.4071117"><ele>813.0</ele><time>2026-04-17T12:47:11.521Z</time></trkpt><trkpt lat="46.2860467" lon="12.4072133"><ele>812.0</ele><time>2026-04-17T12:47:12.521Z</time></trkpt><trkpt lat="46.2859083" lon="12.4073717"><ele>815.0</ele><time>2026-04-17T12:47:13.521Z</time></trkpt><trkpt lat="46.2857833" lon="12.40757"><ele>818.0</ele><time>2026-04-17T12:47:14.52Z</time></trkpt><trkpt lat="46.2856617" lon="12.4077817"><ele>821.0</ele><time>2026-04-17T12:47:15.521Z</time></trkpt><trkpt lat="46.285555" lon="12.40799"><ele>830.0</ele><time>2026-04-17T12:47:16.52Z</time></trkpt><trkpt lat="46.28547" lon="12.4082133"><ele>839.0</ele><time>2026-04-17T12:47:17.52Z</time></trkpt><trkpt lat="46.28541" lon="12.40846"><ele>848.0</ele><time>2026-04-17T12:47:18.521Z</time></trkpt><trkpt lat="46.28538" lon="12.4087283"><ele>852.3333333333334</ele><time>2026-04-17T12:47:19.521Z</time></trkpt><trkpt lat="46.2853567" lon="12.4090083"><ele>856.6666666666667</ele><time>2026-04-17T12:47:20.522Z</time></trkpt><trkpt lat="46.28536" lon="12.4093083"><ele>861.0</ele><time>2026-04-17T12:47:21.521Z</time></trkpt><trkpt lat="46.2853733" lon="12.40962"><ele>856.0</ele><time>2026-04-17T12:47:22.52Z</time></trkpt><trkpt lat="46.2854133" lon="12.4099283"><ele>851.0</ele><time>2026-04-17T12:47:23.522Z</time></trkpt><trkpt lat="46.2854767" lon="12.4102233"><ele>846.0</ele><time>2026-04-17T12:47:24.522Z</time></trkpt><trkpt lat="46.28555" lon="12.4105133"><ele>838.0</ele><time>2026-04-17T12:47:25.521Z</time></trkpt><trkpt lat="46.2856183" lon="12.4107917"><ele>830.0</ele><time>2026-04-17T12:47:26.522Z</time></trkpt><trkpt lat="46.2856833" lon="12.4110667"><ele>822.0</ele><time>2026-04-17T12:47:27.521Z</time></trkpt><trkpt lat="46.2857533" lon="12.4113467"><ele>820.6666666666667</ele><time>2026-04-17T12:47:28.522Z</time></trkpt><trkpt lat="46.28583" lon="12.4116317"><ele>819.3333333333334</ele><time>2026-04-17T12:47:29.521Z</time></trkpt><trkpt lat="46.28592" lon="12.4119217"><ele>818.0</ele><time>2026-04-17T12:47:30.521Z</time></trkpt><trkpt lat="46.2860183" lon="12.4122117"><ele>814.3333333333334</ele><time>2026-04-17T12:47:31.522Z</time></trkpt><trkpt lat="46.286105" lon="12.4125033"><ele>810.6666666666667</ele><time>2026-04-17T12:47:32.523Z</time></trkpt><trkpt lat="46.2861617" lon="12.4128017"><ele>807.0</ele><time>2026-04-17T12:47:33.521Z</time></trkpt><trkpt lat="46.28619" lon="12.4131067"><ele>804.6666666666667</ele><time>2026-04-17T12:47:34.52Z</time></trkpt><trkpt lat="46.2861883" lon="12.41341"><ele>802.3333333333334</ele><time>2026-04-17T12:47:35.521Z</time></trkpt><trkpt lat="46.28619" lon="12.4137067"><ele>800.0</ele><time>2026-04-17T12:47:36.522Z</time></trkpt><trkpt lat="46.2862033" lon="12.414015"><ele>800.0</ele><time>2026-04-17T12:47:37.521Z</time></trkpt><trkpt lat="46.28625" lon="12.4143417"><ele>800.0</ele><time>2026-04-17T12:47:38.521Z</time></trkpt><trkpt lat="46.286315" lon="12.4146883"><ele>798.5</ele><time>2026-04-17T12:47:39.52Z</time></trkpt><trkpt lat="46.2863767" lon="12.4150567"><ele>797.0</ele><time>2026-04-17T12:47:40.521Z</time></trkpt><trkpt lat="46.28643" lon="12.415445"><ele>800.0</ele><time>2026-04-17T12:47:41.521Z</time></trkpt><trkpt lat="46.28647" lon="12.4158417"><ele>803.0</ele><time>2026-04-17T12:47:42.521Z</time></trkpt><trkpt lat="46.2864817" lon="12.4162317"><ele>803.5</ele><time>2026-04-17T12:47:43.521Z</time></trkpt><trkpt lat="46.28649" lon="12.4166083"><ele>804.0</ele><time>2026-04-17T12:47:44.521Z</time></trkpt><trkpt lat="46.28649" lon="12.416975"><ele>802.5</ele><time>2026-04-17T12:47:45.521Z</time></trkpt><trkpt lat="46.2864783" lon="12.4173283"><ele>801.0</ele><time>2026-04-17T12:47:46.519Z</time></trkpt><trkpt lat="46.28642" lon="12.4176617"><ele>798.0</ele><time>2026-04-17T12:47:47.521Z</time></trkpt><trkpt lat="46.2863483" lon="12.4179883"><ele>795.0</ele><time>2026-04-17T12:47:48.521Z</time></trkpt><trkpt lat="46.2862733" lon="12.4183017"><ele>795.0</ele><time>2026-04-17T12:47:49.521Z</time></trkpt><trkpt lat="46.28621" lon="12.4185717"><ele>795.0</ele><time>2026-04-17T12:47:50.521Z</time></trkpt><trkpt lat="46.28617" lon="12.4187983"><ele>795.0</ele><time>2026-04-17T12:47:51.521Z</time></trkpt><trkpt lat="46.2861733" lon="12.418995"><ele>793.25</ele><time>2026-04-17T12:47:52.52Z</time></trkpt><trkpt lat="46.2862217" lon="12.4191783"><ele>791.5</ele><time>2026-04-17T12:47:53.521Z</time></trkpt><trkpt lat="46.2863083" lon="12.4193533"><ele>789.75</ele><time>2026-04-17T12:47:54.52Z</time></trkpt><trkpt lat="46.2864117" lon="12.4195283"><ele>788.0</ele><time>2026-04-17T12:47:55.521Z</time></trkpt><trkpt lat="46.2864967" lon="12.4197233"><ele>787.6666666666667</ele><time>2026-04-17T12:47:56.521Z</time></trkpt><trkpt lat="46.286555" lon="12.4199467"><ele>787.3333333333333</ele><time>2026-04-17T12:47:57.522Z</time></trkpt><trkpt lat="46.2866" lon="12.4201733"><ele>787.0</ele><time>2026-04-17T12:47:58.521Z</time></trkpt><trkpt lat="46.286655" lon="12.4203867"><ele>784.0</ele><time>2026-04-17T12:47:59.52Z</time></trkpt><trkpt lat="46.2867283" lon="12.42058"><ele>781.0</ele><time>2026-04-17T12:48:00.521Z</time></trkpt><trkpt lat="46.2868017" lon="12.420765"><ele>778.0</ele><time>2026-04-17T12:48:01.523Z</time></trkpt><trkpt lat="46.28686" lon="12.4209433"><ele>775.0</ele><time>2026-04-17T12:48:02.523Z</time></trkpt><trkpt lat="46.2869" lon="12.42112"><ele>775.0</ele><time>2026-04-17T12:48:03.52Z</time></trkpt><trkpt lat="46.2869117" lon="12.4212867"><ele>775.0</ele><time>2026-04-17T12:48:04.521Z</time></trkpt><trkpt lat="46.2869167" lon="12.4214517"><ele>775.0</ele><time>2026-04-17T12:48:05.521Z</time></trkpt><trkpt lat="46.2869033" lon="12.4216167"><ele>775.0</ele><time>2026-04-17T12:48:06.521Z</time></trkpt><trkpt lat="46.286905" lon="12.4217967"><ele>773.0</ele><time>2026-04-17T12:48:07.522Z</time></trkpt><trkpt lat="46.2869033" lon="12.4219733"><ele>771.0</ele><time>2026-04-17T12:48:08.521Z</time></trkpt><trkpt lat="46.2868933" lon="12.4221467"><ele>769.0</ele><time>2026-04-17T12:48:09.521Z</time></trkpt><trkpt lat="46.2868983" lon="12.422325"><ele>767.0</ele><time>2026-04-17T12:48:10.521Z</time></trkpt><trkpt lat="46.2869133" lon="12.4225017"><ele>764.5</ele><time>2026-04-17T12:48:11.522Z</time></trkpt><trkpt lat="46.2869467" lon="12.42267"><ele>762.0</ele><time>2026-04-17T12:48:12.521Z</time></trkpt><trkpt lat="46.2869783" lon="12.42283"><ele>759.5</ele><time>2026-04-17T12:48:13.521Z</time></trkpt><trkpt lat="46.28702" lon="12.4229883"><ele>757.0</ele><time>2026-04-17T12:48:14.521Z</time></trkpt><trkpt lat="46.28706" lon="12.423135"><ele>758.4000000000001</ele><time>2026-04-17T12:48:15.521Z</time></trkpt><trkpt lat="46.2871017" lon="12.4232767"><ele>759.8000000000001</ele><time>2026-04-17T12:48:16.522Z</time></trkpt><trkpt lat="46.2871367" lon="12.42341"><ele>761.2</ele><time>2026-04-17T12:48:17.52Z</time></trkpt><trkpt lat="46.28717" lon="12.4235367"><ele>762.6</ele><time>2026-04-17T12:48:18.521Z</time></trkpt><trkpt lat="46.2872167" lon="12.4236567"><ele>764.0</ele><time>2026-04-17T12:48:19.52Z</time></trkpt><trkpt lat="46.2872683" lon="12.4237683"><ele>761.7142857142858</ele><time>2026-04-17T12:48:20.522Z</time></trkpt><trkpt lat="46.2873233" lon="12.42387"><ele>759.4285714285713</ele><time>2026-04-17T12:48:21.521Z</time></trkpt><trkpt lat="46.28737" lon="12.4239617"><ele>757.1428571428571</ele><time>2026-04-17T12:48:22.522Z</time></trkpt><trkpt lat="46.2874083" lon="12.424045"><ele>754.8571428571429</ele><time>2026-04-17T12:48:23.522Z</time></trkpt><trkpt lat="46.2874467" lon="12.4241283"><ele>752.5714285714287</ele><time>2026-04-17T12:48:24.521Z</time></trkpt><trkpt lat="46.2874833" lon="12.4242133"><ele>750.2857142857142</ele><time>2026-04-17T12:48:25.52Z</time></trkpt><trkpt lat="46.28751" lon="12.4242967"><ele>748.0</ele><time>2026-04-17T12:48:26.522Z</time></trkpt><trkpt lat="46.28755" lon="12.42443"><ele>748.0</ele><time>2026-04-17T12:48:28.521Z</time></trkpt><trkpt lat="46.28758" lon="12.424545"><ele>748.0</ele><time>2026-04-17T12:48:30.521Z</time></trkpt><trkpt lat="46.2875683" lon="12.42466"><ele>748.0</ele><time>2026-04-17T12:48:32.522Z</time></trkpt><trkpt lat="46.2874983" lon="12.42471"><ele>748.0</ele><time>2026-04-17T12:48:35.519Z</time></trkpt><trkpt lat="46.2874633" lon="12.4245833"><ele>748.0</ele><time>2026-04-17T12:48:37.521Z</time></trkpt><trkpt lat="46.2874617" lon="12.42448"><ele>748.0</ele><time>2026-04-17T12:48:38.522Z</time></trkpt><trkpt lat="46.2874333" lon="12.4243833"><ele>748.0</ele><time>2026-04-17T12:48:39.52Z</time></trkpt><trkpt lat="46.2874167" lon="12.4242783"><ele>748.0</ele><time>2026-04-17T12:48:40.521Z</time></trkpt><trkpt lat="46.2873883" lon="12.4241867"><ele>748.0</ele><time>2026-04-17T12:48:41.521Z</time></trkpt><trkpt lat="46.2873467" lon="12.4241083"><ele>748.0</ele><time>2026-04-17T12:48:42.521Z</time></trkpt><trkpt lat="46.287285" lon="12.4240533"><ele>748.0</ele><time>2026-04-17T12:48:43.519Z</time></trkpt><trkpt lat="46.2872233" lon="12.4240283"><ele>748.0</ele><time>2026-04-17T12:48:44.521Z</time></trkpt><trkpt lat="46.2871567" lon="12.424035"><ele>748.0</ele><time>2026-04-17T12:48:45.521Z</time></trkpt><trkpt lat="46.2870967" lon="12.42408"><ele>747.8</ele><time>2026-04-17T12:48:46.521Z</time></trkpt><trkpt lat="46.2870483" lon="12.424165"><ele>747.5999999999999</ele><time>2026-04-17T12:48:47.522Z</time></trkpt><trkpt lat="46.287015" lon="12.4242833"><ele>747.4000000000001</ele><time>2026-04-17T12:48:48.522Z</time></trkpt><trkpt lat="46.2869967" lon="12.4244117"><ele>747.2</ele><time>2026-04-17T12:48:49.523Z</time></trkpt><trkpt lat="46.28698" lon="12.4245483"><ele>747.0</ele><time>2026-04-17T12:48:50.521Z</time></trkpt><trkpt lat="46.2869717" lon="12.4246967"><ele>747.0</ele><time>2026-04-17T12:48:51.521Z</time></trkpt><trkpt lat="46.2869883" lon="12.4248483"><ele>747.0</ele><time>2026-04-17T12:48:52.522Z</time></trkpt><trkpt lat="46.2870017" lon="12.425"><ele>747.0</ele><time>2026-04-17T12:48:53.522Z</time></trkpt><trkpt lat="46.2869867" lon="12.4251533"><ele>747.0</ele><time>2026-04-17T12:48:54.52Z</time></trkpt><trkpt lat="46.2869717" lon="12.4252967"><ele>747.0</ele><time>2026-04-17T12:48:55.521Z</time></trkpt><trkpt lat="46.286945" lon="12.42544"><ele>745.8</ele><time>2026-04-17T12:48:56.521Z</time></trkpt><trkpt lat="46.2869283" lon="12.4255783"><ele>744.6</ele><time>2026-04-17T12:48:57.521Z</time></trkpt><trkpt lat="46.286895" lon="12.425705"><ele>743.4</ele><time>2026-04-17T12:48:58.521Z</time></trkpt><trkpt lat="46.286835" lon="12.425825"><ele>742.1999999999999</ele><time>2026-04-17T12:48:59.521Z</time></trkpt><trkpt lat="46.2868117" lon="12.425955"><ele>741.0</ele><time>2026-04-17T12:49:00.52Z</time></trkpt><trkpt lat="46.2868083" lon="12.42609"><ele>741.0</ele><time>2026-04-17T12:49:01.521Z</time></trkpt><trkpt lat="46.28682" lon="12.426225"><ele>741.0</ele><time>2026-04-17T12:49:02.524Z</time></trkpt><trkpt lat="46.2868317" lon="12.4263633"><ele>741.0</ele><time>2026-04-17T12:49:03.521Z</time></trkpt><trkpt lat="46.2868683" lon="12.4264767"><ele>741.0</ele><time>2026-04-17T12:49:04.521Z</time></trkpt><trkpt lat="46.2869017" lon="12.42659"><ele>741.0</ele><time>2026-04-17T12:49:05.521Z</time></trkpt><trkpt lat="46.2869417" lon="12.4267067"><ele>741.0</ele><time>2026-04-17T12:49:06.521Z</time></trkpt><trkpt lat="46.2869883" lon="12.4268183"><ele>741.0</ele><time>2026-04-17T12:49:07.521Z</time></trkpt><trkpt lat="46.2870367" lon="12.426935"><ele>741.0</ele><time>2026-04-17T12:49:08.521Z</time></trkpt><trkpt lat="46.2870717" lon="12.4270567"><ele>741.0</ele><time>2026-04-17T12:49:09.521Z</time></trkpt><trkpt lat="46.2871133" lon="12.4271817"><ele>741.0</ele><time>2026-04-17T12:49:10.521Z</time></trkpt><trkpt lat="46.2871517" lon="12.4273117"><ele>741.1999999999999</ele><time>2026-04-17T12:49:11.521Z</time></trkpt><trkpt lat="46.2871683" lon="12.427445"><ele>741.4</ele><time>2026-04-17T12:49:12.521Z</time></trkpt><trkpt lat="46.2871833" lon="12.427585"><ele>741.6</ele><time>2026-04-17T12:49:13.522Z</time></trkpt><trkpt lat="46.2871817" lon="12.4277333"><ele>741.8</ele><time>2026-04-17T12:49:14.521Z</time></trkpt><trkpt lat="46.2871867" lon="12.4278833"><ele>742.0</ele><time>2026-04-17T12:49:15.52Z</time></trkpt><trkpt lat="46.287175" lon="12.4280317"><ele>742.0</ele><time>2026-04-17T12:49:16.521Z</time></trkpt><trkpt lat="46.2871517" lon="12.4281783"><ele>742.0</ele><time>2026-04-17T12:49:17.523Z</time></trkpt><trkpt lat="46.2871333" lon="12.42832"><ele>742.0</ele><time>2026-04-17T12:49:18.522Z</time></trkpt><trkpt lat="46.287105" lon="12.4284517"><ele>742.0</ele><time>2026-04-17T12:49:19.522Z</time></trkpt><trkpt lat="46.28707" lon="12.4285567"><ele>742.0</ele><time>2026-04-17T12:49:20.524Z</time></trkpt><trkpt lat="46.2870333" lon="12.4286433"><ele>742.0</ele><time>2026-04-17T12:49:21.522Z</time></trkpt><trkpt lat="46.2869583" lon="12.4287783"><ele>742.0</ele><time>2026-04-17T12:49:23.521Z</time></trkpt><trkpt lat="46.2869083" lon="12.42891"><ele>742.0</ele><time>2026-04-17T12:49:25.521Z</time></trkpt><trkpt lat="46.2869233" lon="12.4290617"><ele>742.0</ele><time>2026-04-17T12:49:27.521Z</time></trkpt><trkpt lat="46.28704" lon="12.4291117"><ele>742.0</ele><time>2026-04-17T12:49:29.523Z</time></trkpt><trkpt lat="46.2871067" lon="12.4290817"><ele>742.0</ele><time>2026-04-17T12:49:30.521Z</time></trkpt><trkpt lat="46.28716" lon="12.42901"><ele>742.0</ele><time>2026-04-17T12:49:31.52Z</time></trkpt><trkpt lat="46.28718" lon="12.4288967"><ele>742.0</ele><time>2026-04-17T12:49:32.522Z</time></trkpt><trkpt lat="46.2872167" lon="12.4287867"><ele>742.0</ele><time>2026-04-17T12:49:33.521Z</time></trkpt><trkpt lat="46.287255" lon="12.4286667"><ele>742.0</ele><time>2026-04-17T12:49:34.522Z</time></trkpt><trkpt lat="46.2872833" lon="12.4285417"><ele>735.3333333333334</ele><time>2026-04-17T12:49:35.521Z</time></trkpt><trkpt lat="46.28731" lon="12.42842"><ele>728.6666666666667</ele><time>2026-04-17T12:49:36.521Z</time></trkpt><trkpt lat="46.2873417" lon="12.4283233"><ele>722.0</ele><time>2026-04-17T12:49:37.52Z</time></trkpt><trkpt lat="46.2873717" lon="12.4282417"><ele>715.3333333333334</ele><time>2026-04-17T12:49:38.522Z</time></trkpt><trkpt lat="46.2874333" lon="12.4281117"><ele>708.6666666666666</ele><time>2026-04-17T12:49:40.521Z</time></trkpt><trkpt lat="46.2875233" lon="12.428045"><ele>702.0</ele><time>2026-04-17T12:49:42.522Z</time></trkpt><trkpt lat="46.2876317" lon="12.428145"><ele>702.0</ele><time>2026-04-17T12:49:44.522Z</time></trkpt><trkpt lat="46.2876733" lon="12.4282833"><ele>702.0</ele><time>2026-04-17T12:49:45.521Z</time></trkpt><trkpt lat="46.2877267" lon="12.4284133"><ele>702.0</ele><time>2026-04-17T12:49:46.522Z</time></trkpt><trkpt lat="46.2877767" lon="12.4285633"><ele>702.0</ele><time>2026-04-17T12:49:47.521Z</time></trkpt><trkpt lat="46.287825" lon="12.4287167"><ele>702.0</ele><time>2026-04-17T12:49:48.521Z</time></trkpt><trkpt lat="46.28786" lon="12.4288783"><ele>698.75</ele><time>2026-04-17T12:49:49.52Z</time></trkpt><trkpt lat="46.2878967" lon="12.4290367"><ele>695.5</ele><time>2026-04-17T12:49:50.522Z</time></trkpt><trkpt lat="46.287925" lon="12.4292067"><ele>692.25</ele><time>2026-04-17T12:49:51.523Z</time></trkpt><trkpt lat="46.2879183" lon="12.4293783"><ele>689.0</ele><time>2026-04-17T12:49:52.521Z</time></trkpt><trkpt lat="46.287905" lon="12.4295467"><ele>685.0</ele><time>2026-04-17T12:49:53.522Z</time></trkpt><trkpt lat="46.2879117" lon="12.4297217"><ele>681.0</ele><time>2026-04-17T12:49:54.522Z</time></trkpt><trkpt lat="46.2878867" lon="12.429885"><ele>677.0</ele><time>2026-04-17T12:49:55.521Z</time></trkpt><trkpt lat="46.2878583" lon="12.43005"><ele>673.0</ele><time>2026-04-17T12:49:56.52Z</time></trkpt><trkpt lat="46.28781" lon="12.4302033"><ele>673.0</ele><time>2026-04-17T12:49:57.523Z</time></trkpt><trkpt lat="46.28774" lon="12.43034"><ele>673.0</ele><time>2026-04-17T12:49:58.521Z</time></trkpt><trkpt lat="46.2876583" lon="12.4304617"><ele>673.0</ele><time>2026-04-17T12:49:59.521Z</time></trkpt><trkpt lat="46.2875667" lon="12.43057"><ele>673.0</ele><time>2026-04-17T12:50:00.521Z</time></trkpt><trkpt lat="46.2874783" lon="12.43069"><ele>671.75</ele><time>2026-04-17T12:50:01.52Z</time></trkpt><trkpt lat="46.2873867" lon="12.4308283"><ele>670.5</ele><time>2026-04-17T12:50:02.522Z</time></trkpt><trkpt lat="46.28731" lon="12.430985"><ele>669.25</ele><time>2026-04-17T12:50:03.522Z</time></trkpt><trkpt lat="46.287245" lon="12.43116"><ele>668.0</ele><time>2026-04-17T12:50:04.52Z</time></trkpt><trkpt lat="46.28719" lon="12.4313433"><ele>664.75</ele><time>2026-04-17T12:50:05.52Z</time></trkpt><trkpt lat="46.2871417" lon="12.4315367"><ele>661.5</ele><time>2026-04-17T12:50:06.521Z</time></trkpt><trkpt lat="46.287105" lon="12.431735"><ele>658.25</ele><time>2026-04-17T12:50:07.519Z</time></trkpt><trkpt lat="46.2870733" lon="12.4319333"><ele>655.0</ele><time>2026-04-17T12:50:08.521Z</time></trkpt><trkpt lat="46.28705" lon="12.43213"><ele>653.25</ele><time>2026-04-17T12:50:09.52Z</time></trkpt><trkpt lat="46.2870283" lon="12.432325"><ele>651.5</ele><time>2026-04-17T12:50:10.521Z</time></trkpt><trkpt lat="46.2870083" lon="12.4325217"><ele>649.75</ele><time>2026-04-17T12:50:11.521Z</time></trkpt><trkpt lat="46.28699" lon="12.43272"><ele>648.0</ele><time>2026-04-17T12:50:12.52Z</time></trkpt><trkpt lat="46.28697" lon="12.43291"><ele>647.5</ele><time>2026-04-17T12:50:13.52Z</time></trkpt><trkpt lat="46.2869467" lon="12.4331"><ele>647.0</ele><time>2026-04-17T12:50:14.522Z</time></trkpt><trkpt lat="46.2869267" lon="12.433285"><ele>646.5</ele><time>2026-04-17T12:50:15.521Z</time></trkpt><trkpt lat="46.2869067" lon="12.433465"><ele>646.0</ele><time>2026-04-17T12:50:16.522Z</time></trkpt><trkpt lat="46.2868917" lon="12.4336433"><ele>646.25</ele><time>2026-04-17T12:50:17.521Z</time></trkpt><trkpt lat="46.286875" lon="12.4338183"><ele>646.5</ele><time>2026-04-17T12:50:18.521Z</time></trkpt><trkpt lat="46.28686" lon="12.4339883"><ele>646.75</ele><time>2026-04-17T12:50:19.521Z</time></trkpt><trkpt lat="46.2868467" lon="12.4341583"><ele>647.0</ele><time>2026-04-17T12:50:20.522Z</time></trkpt><trkpt lat="46.2868333" lon="12.4343233"><ele>647.0</ele><time>2026-04-17T12:50:21.521Z</time></trkpt><trkpt lat="46.28682" lon="12.4344883"><ele>647.0</ele><time>2026-04-17T12:50:22.52Z</time></trkpt><trkpt lat="46.286805" lon="12.4346633"><ele>647.0</ele><time>2026-04-17T12:50:23.522Z</time></trkpt><trkpt lat="46.28679" lon="12.434845"><ele>647.0</ele><time>2026-04-17T12:50:24.521Z</time></trkpt><trkpt lat="46.2867733" lon="12.4350267"><ele>646.75</ele><time>2026-04-17T12:50:25.521Z</time></trkpt><trkpt lat="46.286755" lon="12.4352083"><ele>646.5</ele><time>2026-04-17T12:50:26.523Z</time></trkpt><trkpt lat="46.28674" lon="12.4353883"><ele>646.25</ele><time>2026-04-17T12:50:27.521Z</time></trkpt><trkpt lat="46.2867233" lon="12.4355667"><ele>646.0</ele><time>2026-04-17T12:50:28.521Z</time></trkpt><trkpt lat="46.2867" lon="12.4357383"><ele>646.0</ele><time>2026-04-17T12:50:29.521Z</time></trkpt><trkpt lat="46.2866917" lon="12.4359067"><ele>646.0</ele><time>2026-04-17T12:50:30.521Z</time></trkpt><trkpt lat="46.2866733" lon="12.43607"><ele>646.0</ele><time>2026-04-17T12:50:31.521Z</time></trkpt><trkpt lat="46.2866683" lon="12.4362283"><ele>646.0</ele><time>2026-04-17T12:50:32.52Z</time></trkpt><trkpt lat="46.2866717" lon="12.4363833"><ele>646.0</ele><time>2026-04-17T12:50:33.521Z</time></trkpt><trkpt lat="46.2866717" lon="12.4365417"><ele>646.0</ele><time>2026-04-17T12:50:34.522Z</time></trkpt><trkpt lat="46.2866783" lon="12.4367017"><ele>646.0</ele><time>2026-04-17T12:50:35.521Z</time></trkpt><trkpt lat="46.28668" lon="12.436865"><ele>646.0</ele><time>2026-04-17T12:50:36.52Z</time></trkpt><trkpt lat="46.2866783" lon="12.4370333"><ele>646.0</ele><time>2026-04-17T12:50:37.523Z</time></trkpt><trkpt lat="46.28668" lon="12.4372067"><ele>646.25</ele><time>2026-04-17T12:50:38.521Z</time></trkpt><trkpt lat="46.2866817" lon="12.437385"><ele>646.5</ele><time>2026-04-17T12:50:39.52Z</time></trkpt><trkpt lat="46.28667" lon="12.4375683"><ele>646.75</ele><time>2026-04-17T12:50:40.52Z</time></trkpt><trkpt lat="46.28665" lon="12.4377533"><ele>647.0</ele><time>2026-04-17T12:50:41.521Z</time></trkpt><trkpt lat="46.2866133" lon="12.4379533"><ele>647.6666666666666</ele><time>2026-04-17T12:50:42.52Z</time></trkpt><trkpt lat="46.286575" lon="12.4381717"><ele>648.3333333333334</ele><time>2026-04-17T12:50:43.522Z</time></trkpt><trkpt lat="46.28653" lon="12.4384"><ele>649.0</ele><time>2026-04-17T12:50:44.521Z</time></trkpt><trkpt lat="46.2864833" lon="12.438635"><ele>648.6666666666667</ele><time>2026-04-17T12:50:45.521Z</time></trkpt><trkpt lat="46.2864317" lon="12.4388767"><ele>648.3333333333334</ele><time>2026-04-17T12:50:46.521Z</time></trkpt><trkpt lat="46.2863833" lon="12.43913"><ele>648.0</ele><time>2026-04-17T12:50:47.521Z</time></trkpt><trkpt lat="46.286335" lon="12.4394017"><ele>644.5</ele><time>2026-04-17T12:50:48.521Z</time></trkpt><trkpt lat="46.286285" lon="12.4397167"><ele>641.0</ele><time>2026-04-17T12:50:49.521Z</time></trkpt><trkpt lat="46.2862233" lon="12.4400717"><ele>640.5</ele><time>2026-04-17T12:50:50.521Z</time></trkpt><trkpt lat="46.28615" lon="12.4404683"><ele>640.0</ele><time>2026-04-17T12:50:51.521Z</time></trkpt><trkpt lat="46.28607" lon="12.4408717"><ele>640.0</ele><time>2026-04-17T12:50:52.521Z</time></trkpt><trkpt lat="46.285985" lon="12.441265"><ele>640.0</ele><time>2026-04-17T12:50:53.521Z</time></trkpt><trkpt lat="46.2858967" lon="12.4416617"><ele>639.0</ele><time>2026-04-17T12:50:54.521Z</time></trkpt><trkpt lat="46.2858117" lon="12.4420633"><ele>638.0</ele><time>2026-04-17T12:50:55.522Z</time></trkpt><trkpt lat="46.2857283" lon="12.4424583"><ele>638.0</ele><time>2026-04-17T12:50:56.521Z</time></trkpt><trkpt lat="46.2856517" lon="12.4428483"><ele>638.0</ele><time>2026-04-17T12:50:57.522Z</time></trkpt><trkpt lat="46.2855733" lon="12.443235"><ele>637.5</ele><time>2026-04-17T12:50:58.52Z</time></trkpt><trkpt lat="46.285495" lon="12.4436167"><ele>637.0</ele><time>2026-04-17T12:50:59.522Z</time></trkpt><trkpt lat="46.2854183" lon="12.4439933"><ele>637.0</ele><time>2026-04-17T12:51:00.521Z</time></trkpt><trkpt lat="46.2853417" lon="12.4443567"><ele>637.0</ele><time>2026-04-17T12:51:01.523Z</time></trkpt><trkpt lat="46.285265" lon="12.4447033"><ele>638.5</ele><time>2026-04-17T12:51:02.522Z</time></trkpt><trkpt lat="46.285175" lon="12.4450183"><ele>640.0</ele><time>2026-04-17T12:51:03.52Z</time></trkpt><trkpt lat="46.2850633" lon="12.4452983"><ele>641.5</ele><time>2026-04-17T12:51:04.521Z</time></trkpt><trkpt lat="46.28492" lon="12.44555"><ele>643.0</ele><time>2026-04-17T12:51:05.522Z</time></trkpt><trkpt lat="46.2847433" lon="12.4457967"><ele>643.0</ele><time>2026-04-17T12:51:06.522Z</time></trkpt><trkpt lat="46.28455" lon="12.4460433"><ele>643.0</ele><time>2026-04-17T12:51:07.52Z</time></trkpt><trkpt lat="46.2843467" lon="12.4463"><ele>644.0</ele><time>2026-04-17T12:51:08.522Z</time></trkpt><trkpt lat="46.2841433" lon="12.4465533"><ele>645.0</ele><time>2026-04-17T12:51:09.521Z</time></trkpt><trkpt lat="46.283945" lon="12.4468017"><ele>644.0</ele><time>2026-04-17T12:51:10.521Z</time></trkpt><trkpt lat="46.28375" lon="12.4470383"><ele>643.0</ele><time>2026-04-17T12:51:11.522Z</time></trkpt><trkpt lat="46.2835583" lon="12.4472583"><ele>642.0</ele><time>2026-04-17T12:51:12.522Z</time></trkpt><trkpt lat="46.283355" lon="12.447455"><ele>641.0</ele><time>2026-04-17T12:51:13.521Z</time></trkpt><trkpt lat="46.2831283" lon="12.4476217"><ele>639.5</ele><time>2026-04-17T12:51:14.523Z</time></trkpt><trkpt lat="46.2828783" lon="12.4477583"><ele>638.0</ele><time>2026-04-17T12:51:15.522Z</time></trkpt><trkpt lat="46.2826217" lon="12.447875"><ele>637.5</ele><time>2026-04-17T12:51:16.521Z</time></trkpt><trkpt lat="46.2823583" lon="12.4479867"><ele>637.0</ele><time>2026-04-17T12:51:17.521Z</time></trkpt><trkpt lat="46.2821017" lon="12.448095"><ele>637.0</ele><time>2026-04-17T12:51:18.521Z</time></trkpt><trkpt lat="46.2818433" lon="12.4482067"><ele>637.0</ele><time>2026-04-17T12:51:19.522Z</time></trkpt><trkpt lat="46.2815867" lon="12.4483433"><ele>635.5</ele><time>2026-04-17T12:51:20.521Z</time></trkpt><trkpt lat="46.28133" lon="12.4485067"><ele>634.0</ele><time>2026-04-17T12:51:21.521Z</time></trkpt><trkpt lat="46.2810767" lon="12.4486933"><ele>633.5</ele><time>2026-04-17T12:51:22.522Z</time></trkpt><trkpt lat="46.2808233" lon="12.4488933"><ele>633.0</ele><time>2026-04-17T12:51:23.523Z</time></trkpt><trkpt lat="46.2805667" lon="12.4490983"><ele>632.0</ele><time>2026-04-17T12:51:24.523Z</time></trkpt><trkpt lat="46.2803117" lon="12.4493067"><ele>631.0</ele><time>2026-04-17T12:51:25.521Z</time></trkpt><trkpt lat="46.2800583" lon="12.4495183"><ele>630.5</ele><time>2026-04-17T12:51:26.522Z</time></trkpt><trkpt lat="46.2798083" lon="12.4497383"><ele>630.0</ele><time>2026-04-17T12:51:27.521Z</time></trkpt><trkpt lat="46.279575" lon="12.4499867"><ele>629.5</ele><time>2026-04-17T12:51:28.521Z</time></trkpt><trkpt lat="46.2793617" lon="12.4502667"><ele>629.0</ele><time>2026-04-17T12:51:29.52Z</time></trkpt><trkpt lat="46.279175" lon="12.4505833"><ele>628.5</ele><time>2026-04-17T12:51:30.522Z</time></trkpt><trkpt lat="46.2790117" lon="12.4509383"><ele>628.0</ele><time>2026-04-17T12:51:31.523Z</time></trkpt><trkpt lat="46.2788617" lon="12.4513233"><ele>625.5</ele><time>2026-04-17T12:51:32.523Z</time></trkpt><trkpt lat="46.278715" lon="12.4517217"><ele>623.0</ele><time>2026-04-17T12:51:33.521Z</time></trkpt><trkpt lat="46.2785667" lon="12.4521267"><ele>622.0</ele><time>2026-04-17T12:51:34.521Z</time></trkpt><trkpt lat="46.2784167" lon="12.452535"><ele>621.0</ele><time>2026-04-17T12:51:35.522Z</time></trkpt><trkpt lat="46.2782683" lon="12.45294"><ele>620.5</ele><time>2026-04-17T12:51:36.523Z</time></trkpt><trkpt lat="46.2781117" lon="12.4533267"><ele>620.0</ele><time>2026-04-17T12:51:37.521Z</time></trkpt><trkpt lat="46.2779367" lon="12.4536817"><ele>618.0</ele><time>2026-04-17T12:51:38.524Z</time></trkpt><trkpt lat="46.27773" lon="12.454015"><ele>616.0</ele><time>2026-04-17T12:51:39.522Z</time></trkpt><trkpt lat="46.2775" lon="12.4543267"><ele>615.5</ele><time>2026-04-17T12:51:40.521Z</time></trkpt><trkpt lat="46.2772517" lon="12.4546183"><ele>615.0</ele><time>2026-04-17T12:51:41.521Z</time></trkpt><trkpt lat="46.27699" lon="12.4549"><ele>614.5</ele><time>2026-04-17T12:51:42.521Z</time></trkpt><trkpt lat="46.2767233" lon="12.45519"><ele>614.0</ele><time>2026-04-17T12:51:43.52Z</time></trkpt><trkpt lat="46.2764533" lon="12.4554783"><ele>611.5</ele><time>2026-04-17T12:51:44.523Z</time></trkpt><trkpt lat="46.2761883" lon="12.45577"><ele>609.0</ele><time>2026-04-17T12:51:45.522Z</time></trkpt><trkpt lat="46.27592" lon="12.456065"><ele>609.5</ele><time>2026-04-17T12:51:46.521Z</time></trkpt><trkpt lat="46.2756567" lon="12.4563567"><ele>610.0</ele><time>2026-04-17T12:51:47.521Z</time></trkpt><trkpt lat="46.2753917" lon="12.4566467"><ele>607.5</ele><time>2026-04-17T12:51:48.523Z</time></trkpt><trkpt lat="46.2751333" lon="12.45693"><ele>605.0</ele><time>2026-04-17T12:51:49.522Z</time></trkpt><trkpt lat="46.27488" lon="12.457205"><ele>603.5</ele><time>2026-04-17T12:51:50.521Z</time></trkpt><trkpt lat="46.2746217" lon="12.4574733"><ele>602.0</ele><time>2026-04-17T12:51:51.522Z</time></trkpt><trkpt lat="46.2743517" lon="12.4577283"><ele>601.0</ele><time>2026-04-17T12:51:52.521Z</time></trkpt><trkpt lat="46.2740633" lon="12.4579567"><ele>600.0</ele><time>2026-04-17T12:51:53.522Z</time></trkpt><trkpt lat="46.2737617" lon="12.4581667"><ele>598.5</ele><time>2026-04-17T12:51:54.521Z</time></trkpt><trkpt lat="46.2734533" lon="12.4583717"><ele>597.0</ele><time>2026-04-17T12:51:55.523Z</time></trkpt><trkpt lat="46.2731417" lon="12.4585817"><ele>595.5</ele><time>2026-04-17T12:51:56.523Z</time></trkpt><trkpt lat="46.2728283" lon="12.4587883"><ele>594.0</ele><time>2026-04-17T12:51:57.523Z</time></trkpt><trkpt lat="46.2725167" lon="12.4589933"><ele>591.5</ele><time>2026-04-17T12:51:58.521Z</time></trkpt><trkpt lat="46.2722117" lon="12.4592017"><ele>589.0</ele><time>2026-04-17T12:51:59.521Z</time></trkpt><trkpt lat="46.2719083" lon="12.4594083"><ele>589.0</ele><time>2026-04-17T12:52:00.523Z</time></trkpt><trkpt lat="46.2716033" lon="12.4596183"><ele>589.0</ele><time>2026-04-17T12:52:01.523Z</time></trkpt><trkpt lat="46.2712933" lon="12.4598267"><ele>589.0</ele><time>2026-04-17T12:52:02.521Z</time></trkpt><trkpt lat="46.2709817" lon="12.4600317"><ele>589.0</ele><time>2026-04-17T12:52:03.521Z</time></trkpt><trkpt lat="46.2706767" lon="12.4602267"><ele>587.0</ele><time>2026-04-17T12:52:04.521Z</time></trkpt><trkpt lat="46.2703867" lon="12.4604267"><ele>585.0</ele><time>2026-04-17T12:52:05.522Z</time></trkpt><trkpt lat="46.2701233" lon="12.4606567"><ele>585.0</ele><time>2026-04-17T12:52:06.521Z</time></trkpt><trkpt lat="46.2698667" lon="12.4609267"><ele>585.0</ele><time>2026-04-17T12:52:07.522Z</time></trkpt><trkpt lat="46.2696117" lon="12.46122"><ele>581.5</ele><time>2026-04-17T12:52:08.522Z</time></trkpt><trkpt lat="46.2693533" lon="12.4615267"><ele>578.0</ele><time>2026-04-17T12:52:09.521Z</time></trkpt><trkpt lat="46.2690917" lon="12.46184"><ele>576.5</ele><time>2026-04-17T12:52:10.521Z</time></trkpt><trkpt lat="46.2688267" lon="12.462155"><ele>575.0</ele><time>2026-04-17T12:52:11.521Z</time></trkpt><trkpt lat="46.2685583" lon="12.4624733"><ele>575.0</ele><time>2026-04-17T12:52:12.521Z</time></trkpt><trkpt lat="46.2682867" lon="12.4627917"><ele>575.0</ele><time>2026-04-17T12:52:13.52Z</time></trkpt><trkpt lat="46.268015" lon="12.4631133"><ele>572.5</ele><time>2026-04-17T12:52:14.522Z</time></trkpt><trkpt lat="46.2677417" lon="12.4634383"><ele>570.0</ele><time>2026-04-17T12:52:15.524Z</time></trkpt><trkpt lat="46.2674667" lon="12.4637617"><ele>566.0</ele><time>2026-04-17T12:52:16.523Z</time></trkpt><trkpt lat="46.2671983" lon="12.4640767"><ele>562.0</ele><time>2026-04-17T12:52:17.523Z</time></trkpt><trkpt lat="46.26694" lon="12.464385"><ele>563.5</ele><time>2026-04-17T12:52:18.523Z</time></trkpt><trkpt lat="46.2666867" lon="12.4646883"><ele>565.0</ele><time>2026-04-17T12:52:19.523Z</time></trkpt><trkpt lat="46.2664333" lon="12.4649917"><ele>563.0</ele><time>2026-04-17T12:52:20.521Z</time></trkpt><trkpt lat="46.2661783" lon="12.46529"><ele>561.0</ele><time>2026-04-17T12:52:21.521Z</time></trkpt><trkpt lat="46.2659167" lon="12.46558"><ele>561.0</ele><time>2026-04-17T12:52:22.521Z</time></trkpt><trkpt lat="46.2656367" lon="12.4658433"><ele>561.0</ele><time>2026-04-17T12:52:23.524Z</time></trkpt><trkpt lat="46.2653417" lon="12.4660767"><ele>560.0</ele><time>2026-04-17T12:52:24.523Z</time></trkpt><trkpt lat="46.2650333" lon="12.4662983"><ele>559.0</ele><time>2026-04-17T12:52:25.523Z</time></trkpt><trkpt lat="46.2647283" lon="12.4665183"><ele>556.0</ele><time>2026-04-17T12:52:26.521Z</time></trkpt><trkpt lat="46.2644333" lon="12.4667333"><ele>553.0</ele><time>2026-04-17T12:52:27.521Z</time></trkpt><trkpt lat="46.2641483" lon="12.46694"><ele>552.0</ele><time>2026-04-17T12:52:28.523Z</time></trkpt><trkpt lat="46.2638717" lon="12.4671383"><ele>551.0</ele><time>2026-04-17T12:52:29.522Z</time></trkpt><trkpt lat="46.2635917" lon="12.4673283"><ele>551.0</ele><time>2026-04-17T12:52:30.521Z</time></trkpt><trkpt lat="46.26331" lon="12.4675133"><ele>551.0</ele><time>2026-04-17T12:52:31.523Z</time></trkpt><trkpt lat="46.2630317" lon="12.4676883"><ele>552.5</ele><time>2026-04-17T12:52:32.521Z</time></trkpt><trkpt lat="46.2627617" lon="12.467855"><ele>554.0</ele><time>2026-04-17T12:52:33.522Z</time></trkpt><trkpt lat="46.2624933" lon="12.4680133"><ele>550.5</ele><time>2026-04-17T12:52:34.522Z</time></trkpt><trkpt lat="46.2622283" lon="12.46817"><ele>547.0</ele><time>2026-04-17T12:52:35.521Z</time></trkpt><trkpt lat="46.2619767" lon="12.4683183"><ele>547.0</ele><time>2026-04-17T12:52:36.521Z</time></trkpt><trkpt lat="46.26174" lon="12.4684617"><ele>547.0</ele><time>2026-04-17T12:52:37.521Z</time></trkpt><trkpt lat="46.2615183" lon="12.4685967"><ele>547.0</ele><time>2026-04-17T12:52:38.521Z</time></trkpt><trkpt lat="46.2613067" lon="12.468725"><ele>547.0</ele><time>2026-04-17T12:52:39.523Z</time></trkpt><trkpt lat="46.2611067" lon="12.4688433"><ele>547.0</ele><time>2026-04-17T12:52:40.52Z</time></trkpt><trkpt lat="46.2609217" lon="12.468955"><ele>546.6666666666667</ele><time>2026-04-17T12:52:41.52Z</time></trkpt><trkpt lat="46.26075" lon="12.46906"><ele>546.3333333333334</ele><time>2026-04-17T12:52:42.523Z</time></trkpt><trkpt lat="46.2605867" lon="12.469155"><ele>546.0</ele><time>2026-04-17T12:52:43.521Z</time></trkpt><trkpt lat="46.2604367" lon="12.4692283"><ele>544.0</ele><time>2026-04-17T12:52:44.524Z</time></trkpt><trkpt lat="46.26029" lon="12.4692617"><ele>542.0</ele><time>2026-04-17T12:52:45.521Z</time></trkpt><trkpt lat="46.2601483" lon="12.4692333"><ele>540.0</ele><time>2026-04-17T12:52:46.521Z</time></trkpt><trkpt lat="46.2600167" lon="12.4691517"><ele>538.0</ele><time>2026-04-17T12:52:47.521Z</time></trkpt><trkpt lat="46.259905" lon="12.4690233"><ele>538.0</ele><time>2026-04-17T12:52:48.523Z</time></trkpt><trkpt lat="46.2597967" lon="12.4688567"><ele>538.0</ele><time>2026-04-17T12:52:49.521Z</time></trkpt><trkpt lat="46.259695" lon="12.468655"><ele>538.0</ele><time>2026-04-17T12:52:50.522Z</time></trkpt><trkpt lat="46.2596133" lon="12.4684267"><ele>538.3333333333334</ele><time>2026-04-17T12:52:51.521Z</time></trkpt><trkpt lat="46.25955" lon="12.46817"><ele>538.6666666666666</ele><time>2026-04-17T12:52:52.521Z</time></trkpt><trkpt lat="46.259505" lon="12.4678883"><ele>539.0</ele><time>2026-04-17T12:52:53.522Z</time></trkpt><trkpt lat="46.25947" lon="12.4675883"><ele>536.3333333333333</ele><time>2026-04-17T12:52:54.52Z</time></trkpt><trkpt lat="46.259435" lon="12.4672933"><ele>533.6666666666666</ele><time>2026-04-17T12:52:55.521Z</time></trkpt><trkpt lat="46.2594033" lon="12.4670117"><ele>531.0</ele><time>2026-04-17T12:52:56.523Z</time></trkpt><trkpt lat="46.2593717" lon="12.466765"><ele>531.0</ele><time>2026-04-17T12:52:57.52Z</time></trkpt><trkpt lat="46.259345" lon="12.4665633"><ele>531.0</ele><time>2026-04-17T12:52:58.522Z</time></trkpt><trkpt lat="46.2593" lon="12.4664133"><ele>531.0</ele><time>2026-04-17T12:52:59.521Z</time></trkpt><trkpt lat="46.2592217" lon="12.4663083"><ele>531.0</ele><time>2026-04-17T12:53:00.522Z</time></trkpt><trkpt lat="46.2591117" lon="12.466245"><ele>530.6666666666666</ele><time>2026-04-17T12:53:01.522Z</time></trkpt><trkpt lat="46.2589667" lon="12.4662367"><ele>530.3333333333333</ele><time>2026-04-17T12:53:02.523Z</time></trkpt><trkpt lat="46.25881" lon="12.4662817"><ele>530.0</ele><time>2026-04-17T12:53:03.52Z</time></trkpt><trkpt lat="46.25864" lon="12.4663567"><ele>530.0</ele><time>2026-04-17T12:53:04.522Z</time></trkpt><trkpt lat="46.2584667" lon="12.4664367"><ele>530.0</ele><time>2026-04-17T12:53:05.52Z</time></trkpt><trkpt lat="46.2582967" lon="12.4665017"><ele>530.0</ele><time>2026-04-17T12:53:06.521Z</time></trkpt><trkpt lat="46.2581133" lon="12.4665333"><ele>528.6666666666666</ele><time>2026-04-17T12:53:07.523Z</time></trkpt><trkpt lat="46.2579183" lon="12.466525"><ele>527.3333333333334</ele><time>2026-04-17T12:53:08.522Z</time></trkpt><trkpt lat="46.2577183" lon="12.4665233"><ele>526.0</ele><time>2026-04-17T12:53:09.521Z</time></trkpt><trkpt lat="46.2575217" lon="12.466525"><ele>526.0</ele><time>2026-04-17T12:53:10.522Z</time></trkpt><trkpt lat="46.257325" lon="12.4665233"><ele>526.0</ele><time>2026-04-17T12:53:11.52Z</time></trkpt><trkpt lat="46.25713" lon="12.4664867"><ele>526.0</ele><time>2026-04-17T12:53:12.521Z</time></trkpt><trkpt lat="46.25694" lon="12.4664083"><ele>526.3333333333334</ele><time>2026-04-17T12:53:13.521Z</time></trkpt><trkpt lat="46.256755" lon="12.4662817"><ele>526.6666666666666</ele><time>2026-04-17T12:53:14.522Z</time></trkpt><trkpt lat="46.2565717" lon="12.4661383"><ele>527.0</ele><time>2026-04-17T12:53:15.523Z</time></trkpt><trkpt lat="46.2563917" lon="12.46599"><ele>524.3333333333333</ele><time>2026-04-17T12:53:16.521Z</time></trkpt><trkpt lat="46.2562217" lon="12.4658483"><ele>521.6666666666666</ele><time>2026-04-17T12:53:17.521Z</time></trkpt><trkpt lat="46.2560667" lon="12.4656983"><ele>519.0</ele><time>2026-04-17T12:53:18.523Z</time></trkpt><trkpt lat="46.2559383" lon="12.4655283"><ele>520.6666666666666</ele><time>2026-04-17T12:53:19.523Z</time></trkpt><trkpt lat="46.255835" lon="12.4653233"><ele>522.3333333333333</ele><time>2026-04-17T12:53:20.523Z</time></trkpt><trkpt lat="46.25575" lon="12.465085"><ele>524.0</ele><time>2026-04-17T12:53:21.521Z</time></trkpt><trkpt lat="46.2556667" lon="12.4648233"><ele>523.6666666666666</ele><time>2026-04-17T12:53:22.521Z</time></trkpt><trkpt lat="46.2555667" lon="12.4645683"><ele>523.3333333333334</ele><time>2026-04-17T12:53:23.521Z</time></trkpt><trkpt lat="46.25545" lon="12.4643433"><ele>523.0</ele><time>2026-04-17T12:53:24.522Z</time></trkpt><trkpt lat="46.2553233" lon="12.4641467"><ele>523.0</ele><time>2026-04-17T12:53:25.521Z</time></trkpt><trkpt lat="46.2551783" lon="12.46399"><ele>523.0</ele><time>2026-04-17T12:53:26.523Z</time></trkpt><trkpt lat="46.2550133" lon="12.4638783"><ele>523.0</ele><time>2026-04-17T12:53:27.521Z</time></trkpt><trkpt lat="46.2548367" lon="12.46382"><ele>522.3333333333334</ele><time>2026-04-17T12:53:28.523Z</time></trkpt><trkpt lat="46.25465" lon="12.463825"><ele>521.6666666666666</ele><time>2026-04-17T12:53:29.521Z</time></trkpt><trkpt lat="46.2544633" lon="12.4638733"><ele>521.0</ele><time>2026-04-17T12:53:30.523Z</time></trkpt><trkpt lat="46.2542867" lon="12.463945"><ele>521.0</ele><time>2026-04-17T12:53:31.523Z</time></trkpt><trkpt lat="46.2541117" lon="12.4639983"><ele>521.0</ele><time>2026-04-17T12:53:32.522Z</time></trkpt><trkpt lat="46.2539383" lon="12.464005"><ele>521.0</ele><time>2026-04-17T12:53:33.521Z</time></trkpt><trkpt lat="46.2537583" lon="12.463965"><ele>518.3333333333333</ele><time>2026-04-17T12:53:34.522Z</time></trkpt><trkpt lat="46.25357" lon="12.4638983"><ele>515.6666666666666</ele><time>2026-04-17T12:53:35.522Z</time></trkpt><trkpt lat="46.253375" lon="12.4638083"><ele>513.0</ele><time>2026-04-17T12:53:36.523Z</time></trkpt><trkpt lat="46.253175" lon="12.4637"><ele>517.3333333333334</ele><time>2026-04-17T12:53:37.522Z</time></trkpt><trkpt lat="46.25297" lon="12.4635783"><ele>521.6666666666667</ele><time>2026-04-17T12:53:38.524Z</time></trkpt><trkpt lat="46.2527617" lon="12.463455"><ele>526.0</ele><time>2026-04-17T12:53:39.523Z</time></trkpt><trkpt lat="46.25255" lon="12.46334"><ele>526.0</ele><time>2026-04-17T12:53:40.52Z</time></trkpt><trkpt lat="46.25233" lon="12.463245"><ele>526.0</ele><time>2026-04-17T12:53:41.521Z</time></trkpt><trkpt lat="46.2521083" lon="12.4631733"><ele>522.3333333333334</ele><time>2026-04-17T12:53:42.523Z</time></trkpt><trkpt lat="46.2518917" lon="12.4631183"><ele>518.6666666666666</ele><time>2026-04-17T12:53:43.521Z</time></trkpt><trkpt lat="46.2516833" lon="12.4630667"><ele>515.0</ele><time>2026-04-17T12:53:44.522Z</time></trkpt><trkpt lat="46.2514867" lon="12.4630117"><ele>516.3333333333333</ele><time>2026-04-17T12:53:45.521Z</time></trkpt><trkpt lat="46.251305" lon="12.46294"><ele>517.6666666666666</ele><time>2026-04-17T12:53:46.521Z</time></trkpt><trkpt lat="46.2511433" lon="12.4628367"><ele>519.0</ele><time>2026-04-17T12:53:47.522Z</time></trkpt><trkpt lat="46.25099" lon="12.4627433"><ele>519.0</ele><time>2026-04-17T12:53:48.522Z</time></trkpt><trkpt lat="46.2508417" lon="12.4626883"><ele>519.0</ele><time>2026-04-17T12:53:49.522Z</time></trkpt><trkpt lat="46.2506933" lon="12.462675"><ele>519.0</ele><time>2026-04-17T12:53:50.522Z</time></trkpt><trkpt lat="46.25055" lon="12.4626983"><ele>519.0</ele><time>2026-04-17T12:53:51.521Z</time></trkpt><trkpt lat="46.2504183" lon="12.462755"><ele>524.5</ele><time>2026-04-17T12:53:52.522Z</time></trkpt><trkpt lat="46.2503117" lon="12.4628517"><ele>530.0</ele><time>2026-04-17T12:53:53.521Z</time></trkpt><trkpt lat="46.2502333" lon="12.462995"><ele>535.5</ele><time>2026-04-17T12:53:54.52Z</time></trkpt><trkpt lat="46.2501783" lon="12.46317"><ele>541.0</ele><time>2026-04-17T12:53:55.523Z</time></trkpt><trkpt lat="46.250135" lon="12.46337"><ele>541.0</ele><time>2026-04-17T12:53:56.523Z</time></trkpt><trkpt lat="46.2500583" lon="12.463565"><ele>541.0</ele><time>2026-04-17T12:53:57.521Z</time></trkpt><trkpt lat="46.24995" lon="12.4637483"><ele>541.0</ele><time>2026-04-17T12:53:58.522Z</time></trkpt><trkpt lat="46.2498283" lon="12.4639383"><ele>555.3333333333334</ele><time>2026-04-17T12:53:59.522Z</time></trkpt><trkpt lat="46.2497167" lon="12.4641583"><ele>569.6666666666666</ele><time>2026-04-17T12:54:00.521Z</time></trkpt><trkpt lat="46.249615" lon="12.4644017"><ele>584.0</ele><time>2026-04-17T12:54:01.522Z</time></trkpt><trkpt lat="46.24953" lon="12.464645"><ele>584.0</ele><time>2026-04-17T12:54:02.523Z</time></trkpt><trkpt lat="46.2494583" lon="12.464875"><ele>584.0</ele><time>2026-04-17T12:54:03.523Z</time></trkpt><trkpt lat="46.249405" lon="12.4651017"><ele>584.0</ele><time>2026-04-17T12:54:04.521Z</time></trkpt><trkpt lat="46.249375" lon="12.4653333"><ele>578.0</ele><time>2026-04-17T12:54:05.522Z</time></trkpt><trkpt lat="46.2493633" lon="12.46558"><ele>572.0</ele><time>2026-04-17T12:54:06.523Z</time></trkpt><trkpt lat="46.24935" lon="12.4658367"><ele>566.0</ele><time>2026-04-17T12:54:07.523Z</time></trkpt><trkpt lat="46.2493367" lon="12.4661083"><ele>561.3333333333333</ele><time>2026-04-17T12:54:08.521Z</time></trkpt><trkpt lat="46.2493183" lon="12.4664"><ele>556.6666666666666</ele><time>2026-04-17T12:54:09.523Z</time></trkpt><trkpt lat="46.2492983" lon="12.4667"><ele>552.0</ele><time>2026-04-17T12:54:10.521Z</time></trkpt><trkpt lat="46.249295" lon="12.4670067"><ele>550.0</ele><time>2026-04-17T12:54:11.521Z</time></trkpt><trkpt lat="46.2493067" lon="12.4678767"><ele>544.6666666666667</ele><time>2026-04-17T12:54:14.523Z</time></trkpt><trkpt lat="46.2492883" lon="12.468155"><ele>539.3333333333334</ele><time>2026-04-17T12:54:15.521Z</time></trkpt><trkpt lat="46.2492467" lon="12.468425"><ele>534.0</ele><time>2026-04-17T12:54:16.522Z</time></trkpt><trkpt lat="46.2492117" lon="12.4687"><ele>529.6666666666666</ele><time>2026-04-17T12:54:17.521Z</time></trkpt><trkpt lat="46.249165" lon="12.4689767"><ele>525.3333333333333</ele><time>2026-04-17T12:54:18.521Z</time></trkpt><trkpt lat="46.249135" lon="12.469245"><ele>521.0</ele><time>2026-04-17T12:54:19.521Z</time></trkpt><trkpt lat="46.2490917" lon="12.46949"><ele>519.0</ele><time>2026-04-17T12:54:20.523Z</time></trkpt><trkpt lat="46.2490167" lon="12.4697033"><ele>517.0</ele><time>2026-04-17T12:54:21.521Z</time></trkpt><trkpt lat="46.2489183" lon="12.4698933"><ele>515.0</ele><time>2026-04-17T12:54:22.521Z</time></trkpt><trkpt lat="46.2488033" lon="12.4700633"><ele>515.0</ele><time>2026-04-17T12:54:23.522Z</time></trkpt><trkpt lat="46.2487" lon="12.47024"><ele>515.0</ele><time>2026-04-17T12:54:24.521Z</time></trkpt><trkpt lat="46.2485917" lon="12.4704167"><ele>515.0</ele><time>2026-04-17T12:54:25.522Z</time></trkpt><trkpt lat="46.2484683" lon="12.4705917"><ele>513.3333333333333</ele><time>2026-04-17T12:54:26.522Z</time></trkpt><trkpt lat="46.2483267" lon="12.4707733"><ele>511.66666666666663</ele><time>2026-04-17T12:54:27.521Z</time></trkpt><trkpt lat="46.248175" lon="12.4709567"><ele>510.0</ele><time>2026-04-17T12:54:28.521Z</time></trkpt><trkpt lat="46.248005" lon="12.471115"><ele>510.0</ele><time>2026-04-17T12:54:29.522Z</time></trkpt><trkpt lat="46.247825" lon="12.4712533"><ele>510.0</ele><time>2026-04-17T12:54:30.522Z</time></trkpt><trkpt lat="46.247635" lon="12.4713617"><ele>510.0</ele><time>2026-04-17T12:54:31.522Z</time></trkpt><trkpt lat="46.2474433" lon="12.4714483"><ele>508.66666666666663</ele><time>2026-04-17T12:54:32.522Z</time></trkpt><trkpt lat="46.2472517" lon="12.4715383"><ele>507.3333333333333</ele><time>2026-04-17T12:54:33.521Z</time></trkpt><trkpt lat="46.2470717" lon="12.4716483"><ele>506.0</ele><time>2026-04-17T12:54:34.521Z</time></trkpt><trkpt lat="46.2468983" lon="12.471795"><ele>506.0</ele><time>2026-04-17T12:54:35.52Z</time></trkpt><trkpt lat="46.2467383" lon="12.47198"><ele>506.0</ele><time>2026-04-17T12:54:36.522Z</time></trkpt><trkpt lat="46.24659" lon="12.4722033"><ele>506.0</ele><time>2026-04-17T12:54:37.521Z</time></trkpt><trkpt lat="46.2464583" lon="12.472455"><ele>505.0</ele><time>2026-04-17T12:54:38.521Z</time></trkpt><trkpt lat="46.2463233" lon="12.472725"><ele>504.0</ele><time>2026-04-17T12:54:39.521Z</time></trkpt><trkpt lat="46.246185" lon="12.4730017"><ele>507.5</ele><time>2026-04-17T12:54:40.52Z</time></trkpt><trkpt lat="46.2460517" lon="12.473285"><ele>511.0</ele><time>2026-04-17T12:54:41.521Z</time></trkpt><trkpt lat="46.2459183" lon="12.4735667"><ele>508.5</ele><time>2026-04-17T12:54:42.521Z</time></trkpt><trkpt lat="46.2457833" lon="12.4738367"><ele>506.0</ele><time>2026-04-17T12:54:43.521Z</time></trkpt><trkpt lat="46.2456533" lon="12.4740983"><ele>508.66666666666663</ele><time>2026-04-17T12:54:44.522Z</time></trkpt><trkpt lat="46.2455283" lon="12.4743583"><ele>511.33333333333337</ele><time>2026-04-17T12:54:45.52Z</time></trkpt><trkpt lat="46.2454033" lon="12.474625"><ele>514.0</ele><time>2026-04-17T12:54:46.521Z</time></trkpt><trkpt lat="46.2452883" lon="12.4749"><ele>514.0</ele><time>2026-04-17T12:54:47.521Z</time></trkpt><trkpt lat="46.2451883" lon="12.475185"><ele>514.0</ele><time>2026-04-17T12:54:48.521Z</time></trkpt><trkpt lat="46.2450933" lon="12.4754733"><ele>514.0</ele><time>2026-04-17T12:54:49.52Z</time></trkpt><trkpt lat="46.2450033" lon="12.475765"><ele>515.6666666666667</ele><time>2026-04-17T12:54:50.523Z</time></trkpt><trkpt lat="46.2449133" lon="12.476045"><ele>517.3333333333334</ele><time>2026-04-17T12:54:51.521Z</time></trkpt><trkpt lat="46.2448267" lon="12.47633"><ele>519.0</ele><time>2026-04-17T12:54:52.522Z</time></trkpt><trkpt lat="46.2447417" lon="12.476605"><ele>519.0</ele><time>2026-04-17T12:54:53.521Z</time></trkpt><trkpt lat="46.2446617" lon="12.47687"><ele>519.0</ele><time>2026-04-17T12:54:54.52Z</time></trkpt><trkpt lat="46.2445867" lon="12.4771367"><ele>519.0</ele><time>2026-04-17T12:54:55.521Z</time></trkpt><trkpt lat="46.2445133" lon="12.4774067"><ele>520.0</ele><time>2026-04-17T12:54:56.522Z</time></trkpt><trkpt lat="46.2444417" lon="12.477695"><ele>521.0</ele><time>2026-04-17T12:54:57.52Z</time></trkpt><trkpt lat="46.244375" lon="12.478"><ele>522.0</ele><time>2026-04-17T12:54:58.521Z</time></trkpt><trkpt lat="46.244315" lon="12.478315"><ele>523.0</ele><time>2026-04-17T12:54:59.523Z</time></trkpt><trkpt lat="46.2442583" lon="12.4786333"><ele>524.0</ele><time>2026-04-17T12:55:00.52Z</time></trkpt><trkpt lat="46.244205" lon="12.47895"><ele>522.0</ele><time>2026-04-17T12:55:01.521Z</time></trkpt><trkpt lat="46.24415" lon="12.479265"><ele>520.0</ele><time>2026-04-17T12:55:02.521Z</time></trkpt><trkpt lat="46.2440967" lon="12.4795767"><ele>518.0</ele><time>2026-04-17T12:55:03.521Z</time></trkpt><trkpt lat="46.2440617" lon="12.4799"><ele>514.0</ele><time>2026-04-17T12:55:04.522Z</time></trkpt><trkpt lat="46.2440017" lon="12.48022"><ele>510.0</ele><time>2026-04-17T12:55:05.521Z</time></trkpt><trkpt lat="46.2439483" lon="12.4805433"><ele>521.6666666666666</ele><time>2026-04-17T12:55:06.521Z</time></trkpt><trkpt lat="46.2439067" lon="12.4808583"><ele>533.3333333333333</ele><time>2026-04-17T12:55:07.521Z</time></trkpt><trkpt lat="46.2438717" lon="12.4811633"><ele>545.0</ele><time>2026-04-17T12:55:08.523Z</time></trkpt><trkpt lat="46.2438433" lon="12.4814717"><ele>545.0</ele><time>2026-04-17T12:55:09.521Z</time></trkpt><trkpt lat="46.2438217" lon="12.4817767"><ele>545.0</ele><time>2026-04-17T12:55:10.52Z</time></trkpt><trkpt lat="46.2438017" lon="12.4820867"><ele>545.0</ele><time>2026-04-17T12:55:11.52Z</time></trkpt><trkpt lat="46.24378" lon="12.48239"><ele>549.3333333333333</ele><time>2026-04-17T12:55:12.521Z</time></trkpt><trkpt lat="46.2437667" lon="12.4826983"><ele>553.6666666666666</ele><time>2026-04-17T12:55:13.521Z</time></trkpt><trkpt lat="46.2437483" lon="12.4830017"><ele>558.0</ele><time>2026-04-17T12:55:14.52Z</time></trkpt><trkpt lat="46.2437233" lon="12.4832933"><ele>558.0</ele><time>2026-04-17T12:55:15.52Z</time></trkpt><trkpt lat="46.2436767" lon="12.4835717"><ele>558.0</ele><time>2026-04-17T12:55:16.519Z</time></trkpt><trkpt lat="46.2436133" lon="12.483845"><ele>558.0</ele><time>2026-04-17T12:55:17.52Z</time></trkpt><trkpt lat="46.243535" lon="12.484115"><ele>549.3333333333334</ele><time>2026-04-17T12:55:18.52Z</time></trkpt><trkpt lat="46.2434517" lon="12.4843867"><ele>540.6666666666667</ele><time>2026-04-17T12:55:19.522Z</time></trkpt><trkpt lat="46.243355" lon="12.4846517"><ele>532.0</ele><time>2026-04-17T12:55:20.52Z</time></trkpt><trkpt lat="46.2432267" lon="12.4849033"><ele>528.0</ele><time>2026-04-17T12:55:21.521Z</time></trkpt><trkpt lat="46.243085" lon="12.4851433"><ele>524.0</ele><time>2026-04-17T12:55:22.52Z</time></trkpt><trkpt lat="46.242935" lon="12.4853483"><ele>520.0</ele><time>2026-04-17T12:55:23.522Z</time></trkpt><trkpt lat="46.242775" lon="12.4855167"><ele>505.5</ele><time>2026-04-17T12:55:24.523Z</time></trkpt><trkpt lat="46.2425667" lon="12.4856383"><ele>491.0</ele><time>2026-04-17T12:55:25.521Z</time></trkpt><trkpt lat="46.2423433" lon="12.48576"><ele>497.5</ele><time>2026-04-17T12:55:26.523Z</time></trkpt><trkpt lat="46.242105" lon="12.48589"><ele>504.0</ele><time>2026-04-17T12:55:27.521Z</time></trkpt><trkpt lat="46.2418533" lon="12.4860183"><ele>504.0</ele><time>2026-04-17T12:55:28.521Z</time></trkpt><trkpt lat="46.241595" lon="12.4861333"><ele>504.0</ele><time>2026-04-17T12:55:29.522Z</time></trkpt><trkpt lat="46.241335" lon="12.4862167"><ele>493.5</ele><time>2026-04-17T12:55:30.523Z</time></trkpt><trkpt lat="46.24107" lon="12.48627"><ele>483.0</ele><time>2026-04-17T12:55:31.521Z</time></trkpt><trkpt lat="46.240795" lon="12.486315"><ele>484.5</ele><time>2026-04-17T12:55:32.522Z</time></trkpt><trkpt lat="46.2405267" lon="12.4863567"><ele>486.0</ele><time>2026-04-17T12:55:33.521Z</time></trkpt><trkpt lat="46.2402717" lon="12.4864"><ele>486.0</ele><time>2026-04-17T12:55:34.522Z</time></trkpt><trkpt lat="46.24004" lon="12.486445"><ele>486.0</ele><time>2026-04-17T12:55:35.522Z</time></trkpt><trkpt lat="46.239835" lon="12.4864983"><ele>486.0</ele><time>2026-04-17T12:55:36.523Z</time></trkpt><trkpt lat="46.2396583" lon="12.4865817"><ele>484.33333333333337</ele><time>2026-04-17T12:55:37.522Z</time></trkpt><trkpt lat="46.2395" lon="12.48671"><ele>482.6666666666667</ele><time>2026-04-17T12:55:38.521Z</time></trkpt><trkpt lat="46.2393467" lon="12.48689"><ele>481.0</ele><time>2026-04-17T12:55:39.522Z</time></trkpt><trkpt lat="46.2391917" lon="12.4871117"><ele>481.0</ele><time>2026-04-17T12:55:40.523Z</time></trkpt><trkpt lat="46.2390317" lon="12.4873433"><ele>481.0</ele><time>2026-04-17T12:55:41.52Z</time></trkpt><trkpt lat="46.2388767" lon="12.4875717"><ele>481.0</ele><time>2026-04-17T12:55:42.521Z</time></trkpt><trkpt lat="46.2387217" lon="12.4877733"><ele>482.33333333333337</ele><time>2026-04-17T12:55:43.521Z</time></trkpt><trkpt lat="46.2385683" lon="12.48794"><ele>483.66666666666663</ele><time>2026-04-17T12:55:44.523Z</time></trkpt><trkpt lat="46.2383933" lon="12.4880517"><ele>485.0</ele><time>2026-04-17T12:55:45.521Z</time></trkpt><trkpt lat="46.2382033" lon="12.4881233"><ele>487.0</ele><time>2026-04-17T12:55:46.523Z</time></trkpt><trkpt lat="46.238015" lon="12.4882017"><ele>489.0</ele><time>2026-04-17T12:55:47.522Z</time></trkpt><trkpt lat="46.2378383" lon="12.488305"><ele>491.0</ele><time>2026-04-17T12:55:48.522Z</time></trkpt><trkpt lat="46.2376583" lon="12.4884267"><ele>491.0</ele><time>2026-04-17T12:55:49.522Z</time></trkpt><trkpt lat="46.2374683" lon="12.48854"><ele>491.0</ele><time>2026-04-17T12:55:50.522Z</time></trkpt><trkpt lat="46.2372717" lon="12.4886417"><ele>491.0</ele><time>2026-04-17T12:55:51.522Z</time></trkpt><trkpt lat="46.2370567" lon="12.4886917"><ele>492.3333333333333</ele><time>2026-04-17T12:55:52.52Z</time></trkpt><trkpt lat="46.2368417" lon="12.4887183"><ele>493.66666666666663</ele><time>2026-04-17T12:55:53.523Z</time></trkpt><trkpt lat="46.23663" lon="12.4886967"><ele>495.0</ele><time>2026-04-17T12:55:54.521Z</time></trkpt><trkpt lat="46.2364133" lon="12.48864"><ele>491.66666666666663</ele><time>2026-04-17T12:55:55.522Z</time></trkpt><trkpt lat="46.2361967" lon="12.4885817"><ele>488.3333333333333</ele><time>2026-04-17T12:55:56.521Z</time></trkpt><trkpt lat="46.2359783" lon="12.4885283"><ele>485.0</ele><time>2026-04-17T12:55:57.522Z</time></trkpt><trkpt lat="46.2357617" lon="12.48848"><ele>483.0</ele><time>2026-04-17T12:55:58.521Z</time></trkpt><trkpt lat="46.2355433" lon="12.488445"><ele>481.0</ele><time>2026-04-17T12:55:59.523Z</time></trkpt><trkpt lat="46.2353183" lon="12.4884383"><ele>479.0</ele><time>2026-04-17T12:56:00.522Z</time></trkpt><trkpt lat="46.23509" lon="12.4884633"><ele>479.0</ele><time>2026-04-17T12:56:01.521Z</time></trkpt><trkpt lat="46.2348667" lon="12.4885233"><ele>479.0</ele><time>2026-04-17T12:56:02.522Z</time></trkpt><trkpt lat="46.2346683" lon="12.4885917"><ele>479.0</ele><time>2026-04-17T12:56:03.521Z</time></trkpt><trkpt lat="46.2344867" lon="12.4886383"><ele>479.3333333333333</ele><time>2026-04-17T12:56:04.519Z</time></trkpt><trkpt lat="46.2343133" lon="12.488635"><ele>479.66666666666663</ele><time>2026-04-17T12:56:05.523Z</time></trkpt><trkpt lat="46.2341367" lon="12.4885833"><ele>480.0</ele><time>2026-04-17T12:56:06.523Z</time></trkpt><trkpt lat="46.2339533" lon="12.4884767"><ele>477.66666666666663</ele><time>2026-04-17T12:56:07.522Z</time></trkpt><trkpt lat="46.2337633" lon="12.4883383"><ele>475.3333333333333</ele><time>2026-04-17T12:56:08.521Z</time></trkpt><trkpt lat="46.2335617" lon="12.4881833"><ele>473.0</ele><time>2026-04-17T12:56:09.522Z</time></trkpt><trkpt lat="46.23336" lon="12.4880317"><ele>474.0</ele><time>2026-04-17T12:56:10.521Z</time></trkpt><trkpt lat="46.2331617" lon="12.4878817"><ele>475.0</ele><time>2026-04-17T12:56:11.52Z</time></trkpt><trkpt lat="46.2329683" lon="12.4877283"><ele>476.0</ele><time>2026-04-17T12:56:12.521Z</time></trkpt><trkpt lat="46.232775" lon="12.4875683"><ele>476.0</ele><time>2026-04-17T12:56:13.521Z</time></trkpt><trkpt lat="46.2325867" lon="12.487395"><ele>476.0</ele><time>2026-04-17T12:56:14.52Z</time></trkpt><trkpt lat="46.232395" lon="12.487215"><ele>474.0</ele><time>2026-04-17T12:56:15.521Z</time></trkpt><trkpt lat="46.2322" lon="12.48704"><ele>472.0</ele><time>2026-04-17T12:56:16.521Z</time></trkpt><trkpt lat="46.2320033" lon="12.486865"><ele>472.0</ele><time>2026-04-17T12:56:17.519Z</time></trkpt><trkpt lat="46.23181" lon="12.4866883"><ele>472.0</ele><time>2026-04-17T12:56:18.521Z</time></trkpt><trkpt lat="46.231625" lon="12.486505"><ele>473.33333333333337</ele><time>2026-04-17T12:56:19.525Z</time></trkpt><trkpt lat="46.2314467" lon="12.486315"><ele>474.66666666666663</ele><time>2026-04-17T12:56:20.523Z</time></trkpt><trkpt lat="46.2312683" lon="12.4861367"><ele>476.0</ele><time>2026-04-17T12:56:21.521Z</time></trkpt><trkpt lat="46.23109" lon="12.4859767"><ele>476.0</ele><time>2026-04-17T12:56:22.521Z</time></trkpt><trkpt lat="46.2309217" lon="12.4858283"><ele>476.0</ele><time>2026-04-17T12:56:23.522Z</time></trkpt><trkpt lat="46.2307533" lon="12.485715"><ele>476.0</ele><time>2026-04-17T12:56:24.523Z</time></trkpt><trkpt lat="46.2305767" lon="12.4856483"><ele>475.3333333333333</ele><time>2026-04-17T12:56:25.521Z</time></trkpt><trkpt lat="46.2303867" lon="12.4856167"><ele>474.66666666666663</ele><time>2026-04-17T12:56:26.522Z</time></trkpt><trkpt lat="46.2301933" lon="12.485615"><ele>474.0</ele><time>2026-04-17T12:56:27.52Z</time></trkpt><trkpt lat="46.23" lon="12.48565"><ele>474.0</ele><time>2026-04-17T12:56:28.523Z</time></trkpt><trkpt lat="46.2298117" lon="12.4857383"><ele>474.0</ele><time>2026-04-17T12:56:29.52Z</time></trkpt><trkpt lat="46.2296183" lon="12.4858683"><ele>474.0</ele><time>2026-04-17T12:56:30.523Z</time></trkpt><trkpt lat="46.22942" lon="12.486005"><ele>475.66666666666663</ele><time>2026-04-17T12:56:31.522Z</time></trkpt><trkpt lat="46.2292183" lon="12.4861367"><ele>477.3333333333333</ele><time>2026-04-17T12:56:32.522Z</time></trkpt><trkpt lat="46.2290083" lon="12.4862617"><ele>479.0</ele><time>2026-04-17T12:56:33.521Z</time></trkpt><trkpt lat="46.228795" lon="12.4863683"><ele>474.3333333333333</ele><time>2026-04-17T12:56:34.522Z</time></trkpt><trkpt lat="46.2285833" lon="12.486455"><ele>469.66666666666663</ele><time>2026-04-17T12:56:35.522Z</time></trkpt><trkpt lat="46.2283733" lon="12.486525"><ele>465.0</ele><time>2026-04-17T12:56:36.521Z</time></trkpt><trkpt lat="46.2281733" lon="12.48658"><ele>468.33333333333337</ele><time>2026-04-17T12:56:37.522Z</time></trkpt><trkpt lat="46.2279867" lon="12.486615"><ele>471.6666666666667</ele><time>2026-04-17T12:56:38.522Z</time></trkpt><trkpt lat="46.2278083" lon="12.4866267"><ele>475.0</ele><time>2026-04-17T12:56:39.523Z</time></trkpt><trkpt lat="46.2276383" lon="12.486625"><ele>475.0</ele><time>2026-04-17T12:56:40.521Z</time></trkpt><trkpt lat="46.22747" lon="12.4866483"><ele>475.0</ele><time>2026-04-17T12:56:41.521Z</time></trkpt><trkpt lat="46.227305" lon="12.4867283"><ele>475.0</ele><time>2026-04-17T12:56:42.523Z</time></trkpt><trkpt lat="46.2271417" lon="12.48686"><ele>473.33333333333337</ele><time>2026-04-17T12:56:43.524Z</time></trkpt><trkpt lat="46.2269667" lon="12.4870167"><ele>471.66666666666663</ele><time>2026-04-17T12:56:44.522Z</time></trkpt><trkpt lat="46.2267883" lon="12.4871817"><ele>470.0</ele><time>2026-04-17T12:56:45.522Z</time></trkpt><trkpt lat="46.2266067" lon="12.487355"><ele>490.5</ele><time>2026-04-17T12:56:46.521Z</time></trkpt><trkpt lat="46.226425" lon="12.4875583"><ele>511.0</ele><time>2026-04-17T12:56:47.521Z</time></trkpt><trkpt lat="46.2262483" lon="12.487795"><ele>491.5</ele><time>2026-04-17T12:56:48.523Z</time></trkpt><trkpt lat="46.22607" lon="12.488055"><ele>472.0</ele><time>2026-04-17T12:56:49.521Z</time></trkpt><trkpt lat="46.2258867" lon="12.4883283"><ele>472.0</ele><time>2026-04-17T12:56:50.523Z</time></trkpt><trkpt lat="46.2257" lon="12.4886033"><ele>472.0</ele><time>2026-04-17T12:56:51.52Z</time></trkpt><trkpt lat="46.2255117" lon="12.4888817"><ele>470.5</ele><time>2026-04-17T12:56:52.522Z</time></trkpt><trkpt lat="46.2253183" lon="12.48916"><ele>469.0</ele><time>2026-04-17T12:56:53.522Z</time></trkpt><trkpt lat="46.2218067" lon="12.4925433"><ele>469.0</ele><time>2026-04-17T12:57:10.522Z</time></trkpt><trkpt lat="46.2215867" lon="12.4927"><ele>469.0</ele><time>2026-04-17T12:57:11.522Z</time></trkpt><trkpt lat="46.2213733" lon="12.4928417"><ele>463.0</ele><time>2026-04-17T12:57:12.524Z</time></trkpt><trkpt lat="46.221155" lon="12.49297"><ele>457.0</ele><time>2026-04-17T12:57:13.521Z</time></trkpt><trkpt lat="46.2209383" lon="12.493115"><ele>457.0</ele><time>2026-04-17T12:57:14.523Z</time></trkpt><trkpt lat="46.2207367" lon="12.4932967"><ele>457.0</ele><time>2026-04-17T12:57:15.521Z</time></trkpt><trkpt lat="46.2205467" lon="12.4935033"><ele>456.0</ele><time>2026-04-17T12:57:16.521Z</time></trkpt><trkpt lat="46.2203667" lon="12.49373"><ele>455.0</ele><time>2026-04-17T12:57:17.522Z</time></trkpt><trkpt lat="46.22019" lon="12.4939583"><ele>455.0</ele><time>2026-04-17T12:57:18.523Z</time></trkpt><trkpt lat="46.220015" lon="12.49418"><ele>455.0</ele><time>2026-04-17T12:57:19.521Z</time></trkpt><trkpt lat="46.2198317" lon="12.49438"><ele>456.66666666666663</ele><time>2026-04-17T12:57:20.523Z</time></trkpt><trkpt lat="46.2196567" lon="12.49457"><ele>458.33333333333337</ele><time>2026-04-17T12:57:21.521Z</time></trkpt><trkpt lat="46.2194867" lon="12.4947733"><ele>460.0</ele><time>2026-04-17T12:57:22.523Z</time></trkpt><trkpt lat="46.219325" lon="12.4950117"><ele>460.0</ele><time>2026-04-17T12:57:23.521Z</time></trkpt><trkpt lat="46.2191683" lon="12.4952783"><ele>460.0</ele><time>2026-04-17T12:57:24.521Z</time></trkpt><trkpt lat="46.2190117" lon="12.4955483"><ele>465.0</ele><time>2026-04-17T12:57:25.523Z</time></trkpt><trkpt lat="46.2188533" lon="12.495815"><ele>470.0</ele><time>2026-04-17T12:57:26.522Z</time></trkpt><trkpt lat="46.2186933" lon="12.4960617"><ele>460.5</ele><time>2026-04-17T12:57:27.521Z</time></trkpt><trkpt lat="46.2185267" lon="12.4962967"><ele>451.0</ele><time>2026-04-17T12:57:28.523Z</time></trkpt><trkpt lat="46.2183617" lon="12.496535"><ele>451.0</ele><time>2026-04-17T12:57:29.522Z</time></trkpt><trkpt lat="46.21821" lon="12.4967833"><ele>451.0</ele><time>2026-04-17T12:57:30.522Z</time></trkpt><trkpt lat="46.21808" lon="12.4970517"><ele>457.33333333333337</ele><time>2026-04-17T12:57:31.521Z</time></trkpt><trkpt lat="46.2179717" lon="12.4973333"><ele>463.66666666666663</ele><time>2026-04-17T12:57:32.522Z</time></trkpt><trkpt lat="46.2178933" lon="12.4976283"><ele>470.0</ele><time>2026-04-17T12:57:33.522Z</time></trkpt><trkpt lat="46.21783" lon="12.4979267"><ele>470.0</ele><time>2026-04-17T12:57:34.522Z</time></trkpt><trkpt lat="46.2177667" lon="12.4982233"><ele>470.0</ele><time>2026-04-17T12:57:35.522Z</time></trkpt><trkpt lat="46.2176917" lon="12.4985133"><ele>470.0</ele><time>2026-04-17T12:57:36.522Z</time></trkpt><trkpt lat="46.2176083" lon="12.4987933"><ele>465.66666666666663</ele><time>2026-04-17T12:57:37.521Z</time></trkpt><trkpt lat="46.2175133" lon="12.4990617"><ele>461.33333333333337</ele><time>2026-04-17T12:57:38.521Z</time></trkpt><trkpt lat="46.217415" lon="12.4993183"><ele>457.0</ele><time>2026-04-17T12:57:39.521Z</time></trkpt><trkpt lat="46.217315" lon="12.4995567"><ele>464.6666666666667</ele><time>2026-04-17T12:57:40.52Z</time></trkpt><trkpt lat="46.217215" lon="12.4997817"><ele>472.33333333333337</ele><time>2026-04-17T12:57:41.521Z</time></trkpt><trkpt lat="46.2171083" lon="12.5000117"><ele>480.0</ele><time>2026-04-17T12:57:42.522Z</time></trkpt><trkpt lat="46.2169833" lon="12.500255"><ele>468.5</ele><time>2026-04-17T12:57:43.521Z</time></trkpt><trkpt lat="46.2168383" lon="12.5005267"><ele>457.0</ele><time>2026-04-17T12:57:44.521Z</time></trkpt><trkpt lat="46.2166783" lon="12.5008117"><ele>457.0</ele><time>2026-04-17T12:57:45.521Z</time></trkpt><trkpt lat="46.2165117" lon="12.5010867"><ele>457.0</ele><time>2026-04-17T12:57:46.523Z</time></trkpt><trkpt lat="46.2163583" lon="12.5013583"><ele>469.0</ele><time>2026-04-17T12:57:47.522Z</time></trkpt><trkpt lat="46.2162183" lon="12.5016433"><ele>481.0</ele><time>2026-04-17T12:57:48.522Z</time></trkpt><trkpt lat="46.2160833" lon="12.5019383"><ele>472.0</ele><time>2026-04-17T12:57:49.522Z</time></trkpt><trkpt lat="46.2159583" lon="12.50225"><ele>463.0</ele><time>2026-04-17T12:57:50.524Z</time></trkpt><trkpt lat="46.2158517" lon="12.50259"><ele>458.0</ele><time>2026-04-17T12:57:51.523Z</time></trkpt><trkpt lat="46.21576" lon="12.5029583"><ele>453.0</ele><time>2026-04-17T12:57:52.521Z</time></trkpt><trkpt lat="46.2156733" lon="12.50335"><ele>477.0</ele><time>2026-04-17T12:57:53.521Z</time></trkpt><trkpt lat="46.2155833" lon="12.50377"><ele>501.0</ele><time>2026-04-17T12:57:54.523Z</time></trkpt><trkpt lat="46.215505" lon="12.5042133"><ele>493.5</ele><time>2026-04-17T12:57:55.521Z</time></trkpt><trkpt lat="46.21543" lon="12.5046783"><ele>486.0</ele><time>2026-04-17T12:57:56.523Z</time></trkpt><trkpt lat="46.215345" lon="12.5051483"><ele>477.5</ele><time>2026-04-17T12:57:57.521Z</time></trkpt><trkpt lat="46.2152383" lon="12.5055983"><ele>469.0</ele><time>2026-04-17T12:57:58.521Z</time></trkpt><trkpt lat="46.215135" lon="12.5060267"><ele>460.5</ele><time>2026-04-17T12:57:59.521Z</time></trkpt><trkpt lat="46.215015" lon="12.5064367"><ele>452.0</ele><time>2026-04-17T12:58:00.521Z</time></trkpt><trkpt lat="46.2148783" lon="12.5068317"><ele>469.0</ele><time>2026-04-17T12:58:01.521Z</time></trkpt><trkpt lat="46.2147417" lon="12.5072233"><ele>486.0</ele><time>2026-04-17T12:58:02.524Z</time></trkpt><trkpt lat="46.2145783" lon="12.5076067"><ele>471.5</ele><time>2026-04-17T12:58:03.521Z</time></trkpt><trkpt lat="46.2144017" lon="12.5079783"><ele>457.0</ele><time>2026-04-17T12:58:04.521Z</time></trkpt><trkpt lat="46.2142283" lon="12.50833"><ele>457.0</ele><time>2026-04-17T12:58:05.52Z</time></trkpt><trkpt lat="46.2140717" lon="12.5086633"><ele>457.0</ele><time>2026-04-17T12:58:06.521Z</time></trkpt><trkpt lat="46.213905" lon="12.5089717"><ele>462.0</ele><time>2026-04-17T12:58:07.521Z</time></trkpt><trkpt lat="46.2137617" lon="12.50926"><ele>467.0</ele><time>2026-04-17T12:58:08.521Z</time></trkpt><trkpt lat="46.21362" lon="12.5095217"><ele>460.0</ele><time>2026-04-17T12:58:09.522Z</time></trkpt><trkpt lat="46.2134833" lon="12.5097667"><ele>453.0</ele><time>2026-04-17T12:58:10.52Z</time></trkpt><trkpt lat="46.21335" lon="12.5099933"><ele>446.0</ele><time>2026-04-17T12:58:11.523Z</time></trkpt><trkpt lat="46.2132033" lon="12.510195"><ele>445.3333333333333</ele><time>2026-04-17T12:58:12.521Z</time></trkpt><trkpt lat="46.2130717" lon="12.5103983"><ele>444.66666666666663</ele><time>2026-04-17T12:58:13.522Z</time></trkpt><trkpt lat="46.2129083" lon="12.5105767"><ele>444.0</ele><time>2026-04-17T12:58:14.522Z</time></trkpt><trkpt lat="46.2127383" lon="12.5107417"><ele>441.0</ele><time>2026-04-17T12:58:15.523Z</time></trkpt><trkpt lat="46.2125917" lon="12.5108917"><ele>438.0</ele><time>2026-04-17T12:58:16.523Z</time></trkpt><trkpt lat="46.21246" lon="12.511015"><ele>435.0</ele><time>2026-04-17T12:58:17.522Z</time></trkpt><trkpt lat="46.2123317" lon="12.5111"><ele>437.5</ele><time>2026-04-17T12:58:18.521Z</time></trkpt><trkpt lat="46.2122133" lon="12.5111417"><ele>440.0</ele><time>2026-04-17T12:58:19.52Z</time></trkpt><trkpt lat="46.2120983" lon="12.51112"><ele>442.5</ele><time>2026-04-17T12:58:20.521Z</time></trkpt><trkpt lat="46.211975" lon="12.5110467"><ele>445.0</ele><time>2026-04-17T12:58:21.523Z</time></trkpt><trkpt lat="46.2118417" lon="12.510905"><ele>445.0</ele><time>2026-04-17T12:58:22.522Z</time></trkpt><trkpt lat="46.211695" lon="12.510715"><ele>445.0</ele><time>2026-04-17T12:58:23.521Z</time></trkpt><trkpt lat="46.2115583" lon="12.5104983"><ele>445.0</ele><time>2026-04-17T12:58:24.522Z</time></trkpt><trkpt lat="46.21141" lon="12.51028"><ele>448.6666666666667</ele><time>2026-04-17T12:58:25.523Z</time></trkpt><trkpt lat="46.2112533" lon="12.51007"><ele>452.33333333333337</ele><time>2026-04-17T12:58:26.524Z</time></trkpt><trkpt lat="46.21109" lon="12.509865"><ele>456.0</ele><time>2026-04-17T12:58:27.523Z</time></trkpt><trkpt lat="46.2109317" lon="12.5096717"><ele>450.0</ele><time>2026-04-17T12:58:28.522Z</time></trkpt><trkpt lat="46.2107817" lon="12.5094883"><ele>444.0</ele><time>2026-04-17T12:58:29.523Z</time></trkpt><trkpt lat="46.2106467" lon="12.50932"><ele>438.0</ele><time>2026-04-17T12:58:30.522Z</time></trkpt><trkpt lat="46.2105183" lon="12.50918"><ele>437.75</ele><time>2026-04-17T12:58:31.522Z</time></trkpt><trkpt lat="46.21039" lon="12.5090767"><ele>437.5</ele><time>2026-04-17T12:58:32.524Z</time></trkpt><trkpt lat="46.2102467" lon="12.5090233"><ele>437.25</ele><time>2026-04-17T12:58:33.522Z</time></trkpt><trkpt lat="46.210105" lon="12.5090233"><ele>437.0</ele><time>2026-04-17T12:58:34.522Z</time></trkpt><trkpt lat="46.2099467" lon="12.5090783"><ele>436.0</ele><time>2026-04-17T12:58:35.521Z</time></trkpt><trkpt lat="46.2097967" lon="12.5092017"><ele>435.0</ele><time>2026-04-17T12:58:36.522Z</time></trkpt><trkpt lat="46.209675" lon="12.50938"><ele>434.0</ele><time>2026-04-17T12:58:37.522Z</time></trkpt><trkpt lat="46.209555" lon="12.509585"><ele>437.3333333333333</ele><time>2026-04-17T12:58:38.522Z</time></trkpt><trkpt lat="46.2094117" lon="12.5097733"><ele>440.66666666666663</ele><time>2026-04-17T12:58:39.519Z</time></trkpt><trkpt lat="46.209255" lon="12.5099417"><ele>444.0</ele><time>2026-04-17T12:58:40.521Z</time></trkpt><trkpt lat="46.2090883" lon="12.5101067"><ele>442.33333333333337</ele><time>2026-04-17T12:58:41.522Z</time></trkpt><trkpt lat="46.2089267" lon="12.510295"><ele>440.6666666666667</ele><time>2026-04-17T12:58:42.521Z</time></trkpt><trkpt lat="46.208765" lon="12.5105033"><ele>439.0</ele><time>2026-04-17T12:58:43.521Z</time></trkpt><trkpt lat="46.208625" lon="12.5107383"><ele>439.0</ele><time>2026-04-17T12:58:44.522Z</time></trkpt><trkpt lat="46.2085033" lon="12.510995"><ele>439.0</ele><time>2026-04-17T12:58:45.521Z</time></trkpt><trkpt lat="46.2083717" lon="12.5112467"><ele>439.0</ele><time>2026-04-17T12:58:46.521Z</time></trkpt><trkpt lat="46.2082217" lon="12.5114817"><ele>438.0</ele><time>2026-04-17T12:58:47.521Z</time></trkpt><trkpt lat="46.208045" lon="12.5116867"><ele>437.0</ele><time>2026-04-17T12:58:48.521Z</time></trkpt><trkpt lat="46.20786" lon="12.5118883"><ele>443.5</ele><time>2026-04-17T12:58:49.522Z</time></trkpt><trkpt lat="46.2076617" lon="12.5120833"><ele>450.0</ele><time>2026-04-17T12:58:50.521Z</time></trkpt><trkpt lat="46.2074467" lon="12.5122683"><ele>442.0</ele><time>2026-04-17T12:58:51.522Z</time></trkpt><trkpt lat="46.20722" lon="12.5124483"><ele>434.0</ele><time>2026-04-17T12:58:52.52Z</time></trkpt><trkpt lat="46.206985" lon="12.5126183"><ele>434.0</ele><time>2026-04-17T12:58:53.523Z</time></trkpt><trkpt lat="46.2067417" lon="12.5127733"><ele>434.0</ele><time>2026-04-17T12:58:54.523Z</time></trkpt><trkpt lat="46.2064783" lon="12.5129067"><ele>442.5</ele><time>2026-04-17T12:58:55.522Z</time></trkpt><trkpt lat="46.20621" lon="12.51303"><ele>451.0</ele><time>2026-04-17T12:58:56.521Z</time></trkpt><trkpt lat="46.2059417" lon="12.5131567"><ele>451.0</ele><time>2026-04-17T12:58:57.521Z</time></trkpt><trkpt lat="46.2056733" lon="12.5132883"><ele>451.0</ele><time>2026-04-17T12:58:58.521Z</time></trkpt><trkpt lat="46.20542" lon="12.513435"><ele>450.0</ele><time>2026-04-17T12:58:59.52Z</time></trkpt><trkpt lat="46.2051867" lon="12.5135867"><ele>449.0</ele><time>2026-04-17T12:59:00.521Z</time></trkpt><trkpt lat="46.2049533" lon="12.5137633"><ele>439.0</ele><time>2026-04-17T12:59:01.523Z</time></trkpt><trkpt lat="46.2047183" lon="12.513965"><ele>429.0</ele><time>2026-04-17T12:59:02.522Z</time></trkpt><trkpt lat="46.204485" lon="12.5141633"><ele>429.0</ele><time>2026-04-17T12:59:03.52Z</time></trkpt><trkpt lat="46.20427" lon="12.5143567"><ele>429.0</ele><time>2026-04-17T12:59:04.52Z</time></trkpt><trkpt lat="46.2040717" lon="12.5145633"><ele>429.5</ele><time>2026-04-17T12:59:05.519Z</time></trkpt><trkpt lat="46.20389" lon="12.5148083"><ele>430.0</ele><time>2026-04-17T12:59:06.52Z</time></trkpt><trkpt lat="46.203705" lon="12.515065"><ele>430.0</ele><time>2026-04-17T12:59:07.523Z</time></trkpt><trkpt lat="46.2035167" lon="12.5153233"><ele>430.0</ele><time>2026-04-17T12:59:08.522Z</time></trkpt><trkpt lat="46.203335" lon="12.5155583"><ele>427.0</ele><time>2026-04-17T12:59:09.522Z</time></trkpt><trkpt lat="46.2031633" lon="12.5157533"><ele>424.0</ele><time>2026-04-17T12:59:10.522Z</time></trkpt><trkpt lat="46.2030033" lon="12.5159133"><ele>421.0</ele><time>2026-04-17T12:59:11.523Z</time></trkpt><trkpt lat="46.2028633" lon="12.5160933"><ele>427.6666666666667</ele><time>2026-04-17T12:59:12.521Z</time></trkpt><trkpt lat="46.2027317" lon="12.5163117"><ele>434.33333333333337</ele><time>2026-04-17T12:59:13.521Z</time></trkpt><trkpt lat="46.2026033" lon="12.516545"><ele>441.0</ele><time>2026-04-17T12:59:14.522Z</time></trkpt><trkpt lat="46.2024583" lon="12.5167667"><ele>437.33333333333337</ele><time>2026-04-17T12:59:15.524Z</time></trkpt><trkpt lat="46.2022967" lon="12.5169783"><ele>433.6666666666667</ele><time>2026-04-17T12:59:16.522Z</time></trkpt><trkpt lat="46.20213" lon="12.51721"><ele>430.0</ele><time>2026-04-17T12:59:17.521Z</time></trkpt><trkpt lat="46.2019717" lon="12.5174817"><ele>429.5</ele><time>2026-04-17T12:59:18.521Z</time></trkpt><trkpt lat="46.2018267" lon="12.5177883"><ele>429.0</ele><time>2026-04-17T12:59:19.521Z</time></trkpt><trkpt lat="46.2016783" lon="12.51811"><ele>426.5</ele><time>2026-04-17T12:59:20.522Z</time></trkpt><trkpt lat="46.2015233" lon="12.5184367"><ele>424.0</ele><time>2026-04-17T12:59:21.522Z</time></trkpt><trkpt lat="46.2013683" lon="12.5187517"><ele>424.0</ele><time>2026-04-17T12:59:22.522Z</time></trkpt><trkpt lat="46.20122" lon="12.519055"><ele>424.0</ele><time>2026-04-17T12:59:23.521Z</time></trkpt><trkpt lat="46.2010817" lon="12.51934"><ele>428.5</ele><time>2026-04-17T12:59:24.521Z</time></trkpt><trkpt lat="46.2009517" lon="12.5196233"><ele>433.0</ele><time>2026-04-17T12:59:25.521Z</time></trkpt><trkpt lat="46.2008417" lon="12.5199233"><ele>433.0</ele><time>2026-04-17T12:59:26.524Z</time></trkpt><trkpt lat="46.2007667" lon="12.520255"><ele>433.0</ele><time>2026-04-17T12:59:27.522Z</time></trkpt><trkpt lat="46.20069" lon="12.5206083"><ele>427.0</ele><time>2026-04-17T12:59:28.521Z</time></trkpt><trkpt lat="46.200615" lon="12.520965"><ele>421.0</ele><time>2026-04-17T12:59:29.522Z</time></trkpt><trkpt lat="46.20054" lon="12.521315"><ele>421.0</ele><time>2026-04-17T12:59:30.522Z</time></trkpt><trkpt lat="46.2004717" lon="12.5216633"><ele>421.0</ele><time>2026-04-17T12:59:31.523Z</time></trkpt><trkpt lat="46.2004" lon="12.5219933"><ele>424.0</ele><time>2026-04-17T12:59:32.521Z</time></trkpt><trkpt lat="46.2003383" lon="12.522315"><ele>427.0</ele><time>2026-04-17T12:59:33.523Z</time></trkpt><trkpt lat="46.2002917" lon="12.5226283"><ele>427.6666666666667</ele><time>2026-04-17T12:59:34.521Z</time></trkpt><trkpt lat="46.2002567" lon="12.5229133"><ele>428.33333333333337</ele><time>2026-04-17T12:59:35.522Z</time></trkpt><trkpt lat="46.2002283" lon="12.5231767"><ele>429.0</ele><time>2026-04-17T12:59:36.52Z</time></trkpt><trkpt lat="46.2002017" lon="12.5234233"><ele>429.0</ele><time>2026-04-17T12:59:37.519Z</time></trkpt><trkpt lat="46.200175" lon="12.5236583"><ele>429.0</ele><time>2026-04-17T12:59:38.522Z</time></trkpt><trkpt lat="46.2001483" lon="12.5238817"><ele>429.0</ele><time>2026-04-17T12:59:39.522Z</time></trkpt><trkpt lat="46.2001133" lon="12.524095"><ele>429.0</ele><time>2026-04-17T12:59:40.521Z</time></trkpt><trkpt lat="46.2000817" lon="12.524305"><ele>429.0</ele><time>2026-04-17T12:59:41.521Z</time></trkpt><trkpt lat="46.2000417" lon="12.524515"><ele>429.0</ele><time>2026-04-17T12:59:42.522Z</time></trkpt><trkpt lat="46.19999" lon="12.5247233"><ele>430.33333333333337</ele><time>2026-04-17T12:59:43.523Z</time></trkpt><trkpt lat="46.1999283" lon="12.5249283"><ele>431.6666666666667</ele><time>2026-04-17T12:59:44.522Z</time></trkpt><trkpt lat="46.199845" lon="12.5251083"><ele>433.0</ele><time>2026-04-17T12:59:45.52Z</time></trkpt><trkpt lat="46.1997367" lon="12.5252633"><ele>429.6666666666667</ele><time>2026-04-17T12:59:46.522Z</time></trkpt><trkpt lat="46.1996183" lon="12.5253983"><ele>426.33333333333337</ele><time>2026-04-17T12:59:47.521Z</time></trkpt><trkpt lat="46.1995033" lon="12.5255383"><ele>423.0</ele><time>2026-04-17T12:59:48.52Z</time></trkpt><trkpt lat="46.1993917" lon="12.5256933"><ele>423.0</ele><time>2026-04-17T12:59:49.522Z</time></trkpt><trkpt lat="46.1993" lon="12.5258783"><ele>423.0</ele><time>2026-04-17T12:59:50.522Z</time></trkpt><trkpt lat="46.1992467" lon="12.526085"><ele>423.0</ele><time>2026-04-17T12:59:51.52Z</time></trkpt><trkpt lat="46.1992367" lon="12.5263017"><ele>421.66666666666663</ele><time>2026-04-17T12:59:52.521Z</time></trkpt><trkpt lat="46.1992567" lon="12.5265283"><ele>420.3333333333333</ele><time>2026-04-17T12:59:53.522Z</time></trkpt><trkpt lat="46.1992983" lon="12.5267717"><ele>419.0</ele><time>2026-04-17T12:59:54.521Z</time></trkpt><trkpt lat="46.1993517" lon="12.5270417"><ele>418.3333333333333</ele><time>2026-04-17T12:59:55.52Z</time></trkpt><trkpt lat="46.1993833" lon="12.5273333"><ele>417.66666666666663</ele><time>2026-04-17T12:59:56.521Z</time></trkpt><trkpt lat="46.1993933" lon="12.5276583"><ele>417.0</ele><time>2026-04-17T12:59:57.522Z</time></trkpt><trkpt lat="46.199385" lon="12.5279983"><ele>419.5</ele><time>2026-04-17T12:59:58.523Z</time></trkpt><trkpt lat="46.199375" lon="12.5283517"><ele>422.0</ele><time>2026-04-17T12:59:59.523Z</time></trkpt><trkpt lat="46.199365" lon="12.528715"><ele>422.0</ele><time>2026-04-17T13:00:00.522Z</time></trkpt><trkpt lat="46.199365" lon="12.52908"><ele>422.0</ele><time>2026-04-17T13:00:01.522Z</time></trkpt><trkpt lat="46.19936" lon="12.5294483"><ele>422.0</ele><time>2026-04-17T13:00:02.523Z</time></trkpt><trkpt lat="46.1993433" lon="12.529815"><ele>422.0</ele><time>2026-04-17T13:00:03.522Z</time></trkpt><trkpt lat="46.19931" lon="12.53017"><ele>421.0</ele><time>2026-04-17T13:00:04.521Z</time></trkpt><trkpt lat="46.1992533" lon="12.5305067"><ele>420.0</ele><time>2026-04-17T13:00:05.523Z</time></trkpt><trkpt lat="46.1991733" lon="12.53082"><ele>420.0</ele><time>2026-04-17T13:00:06.521Z</time></trkpt><trkpt lat="46.19907" lon="12.5311017"><ele>420.0</ele><time>2026-04-17T13:00:07.52Z</time></trkpt><trkpt lat="46.1989167" lon="12.5313483"><ele>420.0</ele><time>2026-04-17T13:00:08.521Z</time></trkpt><trkpt lat="46.1987467" lon="12.531585"><ele>420.0</ele><time>2026-04-17T13:00:09.521Z</time></trkpt><trkpt lat="46.19856" lon="12.5318183"><ele>420.0</ele><time>2026-04-17T13:00:10.521Z</time></trkpt><trkpt lat="46.198355" lon="12.5320317"><ele>420.0</ele><time>2026-04-17T13:00:11.521Z</time></trkpt><trkpt lat="46.198135" lon="12.53223"><ele>414.0</ele><time>2026-04-17T13:00:12.521Z</time></trkpt><trkpt lat="46.1978883" lon="12.5324067"><ele>408.0</ele><time>2026-04-17T13:00:13.522Z</time></trkpt><trkpt lat="46.1976567" lon="12.5325767"><ele>408.0</ele><time>2026-04-17T13:00:14.521Z</time></trkpt><trkpt lat="46.1974333" lon="12.5327417"><ele>408.0</ele><time>2026-04-17T13:00:15.518Z</time></trkpt><trkpt lat="46.197205" lon="12.5329083"><ele>411.5</ele><time>2026-04-17T13:00:16.52Z</time></trkpt><trkpt lat="46.1969917" lon="12.5331017"><ele>415.0</ele><time>2026-04-17T13:00:17.521Z</time></trkpt><trkpt lat="46.1968" lon="12.5333133"><ele>415.0</ele><time>2026-04-17T13:00:18.518Z</time></trkpt><trkpt lat="46.1966383" lon="12.5335483"><ele>415.0</ele><time>2026-04-17T13:00:19.52Z</time></trkpt><trkpt lat="46.1965067" lon="12.5338"><ele>415.0</ele><time>2026-04-17T13:00:20.521Z</time></trkpt><trkpt lat="46.1964167" lon="12.534085"><ele>416.0</ele><time>2026-04-17T13:00:21.523Z</time></trkpt><trkpt lat="46.1963417" lon="12.5344"><ele>417.0</ele><time>2026-04-17T13:00:22.519Z</time></trkpt><trkpt lat="46.19627" lon="12.534735"><ele>417.0</ele><time>2026-04-17T13:00:23.519Z</time></trkpt><trkpt lat="46.1961983" lon="12.5350867"><ele>417.0</ele><time>2026-04-17T13:00:24.521Z</time></trkpt><trkpt lat="46.1961283" lon="12.5354483"><ele>413.5</ele><time>2026-04-17T13:00:25.522Z</time></trkpt><trkpt lat="46.1960583" lon="12.53582"><ele>410.0</ele><time>2026-04-17T13:00:26.521Z</time></trkpt><trkpt lat="46.19599" lon="12.536185"><ele>413.0</ele><time>2026-04-17T13:00:27.521Z</time></trkpt><trkpt lat="46.1959167" lon="12.5365317"><ele>416.0</ele><time>2026-04-17T13:00:28.52Z</time></trkpt><trkpt lat="46.1958217" lon="12.5368367"><ele>414.66666666666663</ele><time>2026-04-17T13:00:29.521Z</time></trkpt><trkpt lat="46.1957" lon="12.5370983"><ele>413.33333333333337</ele><time>2026-04-17T13:00:30.521Z</time></trkpt><trkpt lat="46.1955667" lon="12.5373467"><ele>412.0</ele><time>2026-04-17T13:00:31.522Z</time></trkpt><trkpt lat="46.195465" lon="12.537615"><ele>411.6666666666667</ele><time>2026-04-17T13:00:32.523Z</time></trkpt><trkpt lat="46.1953783" lon="12.53791"><ele>411.33333333333337</ele><time>2026-04-17T13:00:33.521Z</time></trkpt><trkpt lat="46.1952967" lon="12.53821"><ele>411.0</ele><time>2026-04-17T13:00:34.52Z</time></trkpt><trkpt lat="46.1952217" lon="12.5385133"><ele>412.0</ele><time>2026-04-17T13:00:35.521Z</time></trkpt><trkpt lat="46.1951533" lon="12.53882"><ele>413.0</ele><time>2026-04-17T13:00:36.521Z</time></trkpt><trkpt lat="46.1950933" lon="12.5391383"><ele>413.0</ele><time>2026-04-17T13:00:37.521Z</time></trkpt><trkpt lat="46.1950367" lon="12.539465"><ele>413.0</ele><time>2026-04-17T13:00:38.521Z</time></trkpt><trkpt lat="46.194985" lon="12.5398183"><ele>413.5</ele><time>2026-04-17T13:00:39.52Z</time></trkpt><trkpt lat="46.1949333" lon="12.54019"><ele>414.0</ele><time>2026-04-17T13:00:40.52Z</time></trkpt><trkpt lat="46.1948783" lon="12.5405433"><ele>419.0</ele><time>2026-04-17T13:00:41.524Z</time></trkpt><trkpt lat="46.19482" lon="12.5408683"><ele>424.0</ele><time>2026-04-17T13:00:42.522Z</time></trkpt><trkpt lat="46.1947567" lon="12.5411783"><ele>421.0</ele><time>2026-04-17T13:00:43.523Z</time></trkpt><trkpt lat="46.194685" lon="12.54146"><ele>418.0</ele><time>2026-04-17T13:00:44.522Z</time></trkpt><trkpt lat="46.1946133" lon="12.5417167"><ele>415.0</ele><time>2026-04-17T13:00:45.522Z</time></trkpt><trkpt lat="46.194545" lon="12.5419583"><ele>413.0</ele><time>2026-04-17T13:00:46.519Z</time></trkpt><trkpt lat="46.19441" lon="12.542355"><ele>411.0</ele><time>2026-04-17T13:00:48.522Z</time></trkpt><trkpt lat="46.1943383" lon="12.54252"><ele>409.0</ele><time>2026-04-17T13:00:49.521Z</time></trkpt><trkpt lat="46.1942667" lon="12.542655"><ele>410.33333333333337</ele><time>2026-04-17T13:00:50.523Z</time></trkpt><trkpt lat="46.194065" lon="12.5429417"><ele>411.66666666666663</ele><time>2026-04-17T13:00:52.52Z</time></trkpt><trkpt lat="46.193995" lon="12.54315"><ele>413.0</ele><time>2026-04-17T13:00:53.521Z</time></trkpt><trkpt lat="46.1939117" lon="12.5433667"><ele>413.0</ele><time>2026-04-17T13:00:54.521Z</time></trkpt><trkpt lat="46.1938383" lon="12.54356"><ele>413.0</ele><time>2026-04-17T13:00:55.521Z</time></trkpt><trkpt lat="46.1937617" lon="12.5437383"><ele>413.0</ele><time>2026-04-17T13:00:56.521Z</time></trkpt><trkpt lat="46.1937" lon="12.543915"><ele>413.0</ele><time>2026-04-17T13:00:57.522Z</time></trkpt><trkpt lat="46.193645" lon="12.5440783"><ele>412.25</ele><time>2026-04-17T13:00:58.52Z</time></trkpt><trkpt lat="46.1935933" lon="12.5442367"><ele>411.5</ele><time>2026-04-17T13:00:59.52Z</time></trkpt><trkpt lat="46.193535" lon="12.5443917"><ele>410.75</ele><time>2026-04-17T13:01:00.526Z</time></trkpt><trkpt lat="46.1934667" lon="12.544535"><ele>410.0</ele><time>2026-04-17T13:01:01.521Z</time></trkpt><trkpt lat="46.1933967" lon="12.5446683"><ele>408.4</ele><time>2026-04-17T13:01:02.521Z</time></trkpt><trkpt lat="46.1933233" lon="12.5447867"><ele>406.8</ele><time>2026-04-17T13:01:03.522Z</time></trkpt><trkpt lat="46.19325" lon="12.5448933"><ele>405.20000000000005</ele><time>2026-04-17T13:01:04.521Z</time></trkpt><trkpt lat="46.1931767" lon="12.545"><ele>403.6</ele><time>2026-04-17T13:01:05.521Z</time></trkpt><trkpt lat="46.19309" lon="12.5450967"><ele>402.0</ele><time>2026-04-17T13:01:06.521Z</time></trkpt><trkpt lat="46.1930117" lon="12.545185"><ele>402.0</ele><time>2026-04-17T13:01:07.522Z</time></trkpt><trkpt lat="46.1929433" lon="12.5452767"><ele>402.0</ele><time>2026-04-17T13:01:08.521Z</time></trkpt><trkpt lat="46.192885" lon="12.54537"><ele>402.0</ele><time>2026-04-17T13:01:09.521Z</time></trkpt><trkpt lat="46.1928217" lon="12.5454583"><ele>402.0</ele><time>2026-04-17T13:01:10.521Z</time></trkpt><trkpt lat="46.1927433" lon="12.54553"><ele>402.0</ele><time>2026-04-17T13:01:11.523Z</time></trkpt><trkpt lat="46.1926633" lon="12.5455833"><ele>402.0</ele><time>2026-04-17T13:01:12.522Z</time></trkpt><trkpt lat="46.1925883" lon="12.5456417"><ele>405.0</ele><time>2026-04-17T13:01:13.521Z</time></trkpt><trkpt lat="46.1919517" lon="12.546"><ele>405.0</ele><time>2026-04-17T13:01:21.521Z</time></trkpt><trkpt lat="46.1918617" lon="12.5459967"><ele>405.0</ele><time>2026-04-17T13:01:22.52Z</time></trkpt><trkpt lat="46.19177" lon="12.54601"><ele>405.0</ele><time>2026-04-17T13:01:23.521Z</time></trkpt><trkpt lat="46.1917" lon="12.54605"><ele>405.0</ele><time>2026-04-17T13:01:24.521Z</time></trkpt><trkpt lat="46.19162" lon="12.5460983"><ele>405.0</ele><time>2026-04-17T13:01:25.52Z</time></trkpt><trkpt lat="46.191535" lon="12.5461267"><ele>405.0</ele><time>2026-04-17T13:01:26.523Z</time></trkpt><trkpt lat="46.1914483" lon="12.5461733"><ele>405.3333333333333</ele><time>2026-04-17T13:01:27.521Z</time></trkpt><trkpt lat="46.19136" lon="12.5462267"><ele>405.66666666666663</ele><time>2026-04-17T13:01:28.521Z</time></trkpt><trkpt lat="46.1912767" lon="12.546285"><ele>406.0</ele><time>2026-04-17T13:01:29.52Z</time></trkpt><trkpt lat="46.1911967" lon="12.546335"><ele>406.3333333333333</ele><time>2026-04-17T13:01:30.521Z</time></trkpt><trkpt lat="46.1911267" lon="12.5463983"><ele>406.66666666666663</ele><time>2026-04-17T13:01:31.522Z</time></trkpt><trkpt lat="46.1910533" lon="12.5464667"><ele>407.0</ele><time>2026-04-17T13:01:32.523Z</time></trkpt><trkpt lat="46.1909817" lon="12.546545"><ele>406.99999999999994</ele><time>2026-04-17T13:01:33.523Z</time></trkpt><trkpt lat="46.1909233" lon="12.5466417"><ele>407.0</ele><time>2026-04-17T13:01:34.52Z</time></trkpt><trkpt lat="46.190875" lon="12.5467483"><ele>407.0</ele><time>2026-04-17T13:01:35.521Z</time></trkpt><trkpt lat="46.1908333" lon="12.546855"><ele>407.0</ele><time>2026-04-17T13:01:36.523Z</time></trkpt><trkpt lat="46.190795" lon="12.5469683"><ele>406.99999999999994</ele><time>2026-04-17T13:01:37.522Z</time></trkpt><trkpt lat="46.1907567" lon="12.5470817"><ele>407.0</ele><time>2026-04-17T13:01:38.522Z</time></trkpt><trkpt lat="46.190715" lon="12.5471917"><ele>405.20000000000005</ele><time>2026-04-17T13:01:39.523Z</time></trkpt><trkpt lat="46.1906733" lon="12.5473033"><ele>403.4</ele><time>2026-04-17T13:01:40.523Z</time></trkpt><trkpt lat="46.1906183" lon="12.547415"><ele>401.6</ele><time>2026-04-17T13:01:41.522Z</time></trkpt><trkpt lat="46.19056" lon="12.5475217"><ele>399.79999999999995</ele><time>2026-04-17T13:01:42.522Z</time></trkpt><trkpt lat="46.1905" lon="12.54762"><ele>398.0</ele><time>2026-04-17T13:01:43.521Z</time></trkpt><trkpt lat="46.190445" lon="12.5477233"><ele>398.0</ele><time>2026-04-17T13:01:44.524Z</time></trkpt><trkpt lat="46.19039" lon="12.5478433"><ele>398.0</ele><time>2026-04-17T13:01:45.523Z</time></trkpt><trkpt lat="46.190335" lon="12.5479767"><ele>398.0</ele><time>2026-04-17T13:01:46.52Z</time></trkpt><trkpt lat="46.1902933" lon="12.5481233"><ele>398.0</ele><time>2026-04-17T13:01:47.522Z</time></trkpt><trkpt lat="46.190265" lon="12.5482717"><ele>398.0</ele><time>2026-04-17T13:01:48.522Z</time></trkpt><trkpt lat="46.1902383" lon="12.54842"><ele>399.5</ele><time>2026-04-17T13:01:49.521Z</time></trkpt><trkpt lat="46.19022" lon="12.5485783"><ele>401.0</ele><time>2026-04-17T13:01:50.521Z</time></trkpt><trkpt lat="46.190195" lon="12.54875"><ele>402.5</ele><time>2026-04-17T13:01:51.524Z</time></trkpt><trkpt lat="46.190165" lon="12.5489183"><ele>404.0</ele><time>2026-04-17T13:01:52.522Z</time></trkpt><trkpt lat="46.1901417" lon="12.5490883"><ele>404.2</ele><time>2026-04-17T13:01:53.521Z</time></trkpt><trkpt lat="46.19013" lon="12.5492483"><ele>404.4</ele><time>2026-04-17T13:01:54.522Z</time></trkpt><trkpt lat="46.1901283" lon="12.5493983"><ele>404.6</ele><time>2026-04-17T13:01:55.522Z</time></trkpt><trkpt lat="46.1901317" lon="12.5495417"><ele>404.8</ele><time>2026-04-17T13:01:56.523Z</time></trkpt><trkpt lat="46.1901333" lon="12.5497"><ele>405.0</ele><time>2026-04-17T13:01:57.521Z</time></trkpt><trkpt lat="46.1901367" lon="12.54987"><ele>405.25</ele><time>2026-04-17T13:01:58.522Z</time></trkpt><trkpt lat="46.190135" lon="12.55004"><ele>405.5</ele><time>2026-04-17T13:01:59.522Z</time></trkpt><trkpt lat="46.1901183" lon="12.55021"><ele>405.75</ele><time>2026-04-17T13:02:00.521Z</time></trkpt><trkpt lat="46.1900933" lon="12.550375"><ele>406.0</ele><time>2026-04-17T13:02:01.522Z</time></trkpt><trkpt lat="46.1900667" lon="12.5505317"><ele>407.0</ele><time>2026-04-17T13:02:02.524Z</time></trkpt><trkpt lat="46.190035" lon="12.5506883"><ele>408.0</ele><time>2026-04-17T13:02:03.521Z</time></trkpt><trkpt lat="46.1900117" lon="12.5508517"><ele>409.0</ele><time>2026-04-17T13:02:04.522Z</time></trkpt><trkpt lat="46.1900017" lon="12.5510217"><ele>410.0</ele><time>2026-04-17T13:02:05.521Z</time></trkpt><trkpt lat="46.190005" lon="12.551195"><ele>410.0</ele><time>2026-04-17T13:02:06.523Z</time></trkpt><trkpt lat="46.1900183" lon="12.5513683"><ele>410.0</ele><time>2026-04-17T13:02:07.522Z</time></trkpt><trkpt lat="46.1900333" lon="12.5515417"><ele>410.0</ele><time>2026-04-17T13:02:08.522Z</time></trkpt><trkpt lat="46.1900533" lon="12.5517183"><ele>410.0</ele><time>2026-04-17T13:02:09.52Z</time></trkpt><trkpt lat="46.1900733" lon="12.5518967"><ele>409.0</ele><time>2026-04-17T13:02:10.521Z</time></trkpt><trkpt lat="46.1900933" lon="12.55208"><ele>408.0</ele><time>2026-04-17T13:02:11.522Z</time></trkpt><trkpt lat="46.1901133" lon="12.5522617"><ele>407.0</ele><time>2026-04-17T13:02:12.521Z</time></trkpt><trkpt lat="46.1901333" lon="12.55244"><ele>406.0</ele><time>2026-04-17T13:02:13.522Z</time></trkpt><trkpt lat="46.1901517" lon="12.552615"><ele>406.0</ele><time>2026-04-17T13:02:14.522Z</time></trkpt><trkpt lat="46.1901683" lon="12.55279"><ele>406.0</ele><time>2026-04-17T13:02:15.522Z</time></trkpt><trkpt lat="46.1901833" lon="12.5529617"><ele>406.0</ele><time>2026-04-17T13:02:16.52Z</time></trkpt><trkpt lat="46.1902" lon="12.553135"><ele>406.0</ele><time>2026-04-17T13:02:17.521Z</time></trkpt><trkpt lat="46.1902133" lon="12.5533083"><ele>405.5</ele><time>2026-04-17T13:02:18.522Z</time></trkpt><trkpt lat="46.19023" lon="12.55348"><ele>405.0</ele><time>2026-04-17T13:02:19.521Z</time></trkpt><trkpt lat="46.1902467" lon="12.553655"><ele>404.5</ele><time>2026-04-17T13:02:20.522Z</time></trkpt><trkpt lat="46.190265" lon="12.5538333"><ele>404.0</ele><time>2026-04-17T13:02:21.522Z</time></trkpt><trkpt lat="46.190285" lon="12.5540067"><ele>403.2</ele><time>2026-04-17T13:02:22.521Z</time></trkpt><trkpt lat="46.1903033" lon="12.5541717"><ele>402.4</ele><time>2026-04-17T13:02:23.522Z</time></trkpt><trkpt lat="46.1903167" lon="12.55433"><ele>401.6</ele><time>2026-04-17T13:02:24.521Z</time></trkpt><trkpt lat="46.1903333" lon="12.554485"><ele>400.8</ele><time>2026-04-17T13:02:25.521Z</time></trkpt><trkpt lat="46.1903483" lon="12.5546433"><ele>400.0</ele><time>2026-04-17T13:02:26.523Z</time></trkpt><trkpt lat="46.190365" lon="12.5547983"><ele>399.8</ele><time>2026-04-17T13:02:27.521Z</time></trkpt><trkpt lat="46.1903783" lon="12.5549567"><ele>399.6</ele><time>2026-04-17T13:02:28.522Z</time></trkpt><trkpt lat="46.190395" lon="12.555115"><ele>399.4</ele><time>2026-04-17T13:02:29.521Z</time></trkpt><trkpt lat="46.190405" lon="12.5552783"><ele>399.2</ele><time>2026-04-17T13:02:30.521Z</time></trkpt><trkpt lat="46.1904133" lon="12.5554433"><ele>399.0</ele><time>2026-04-17T13:02:31.522Z</time></trkpt><trkpt lat="46.19042" lon="12.5556033"><ele>399.0</ele><time>2026-04-17T13:02:32.523Z</time></trkpt><trkpt lat="46.1904333" lon="12.5557633"><ele>399.0</ele><time>2026-04-17T13:02:33.521Z</time></trkpt><trkpt lat="46.1904517" lon="12.555925"><ele>399.0</ele><time>2026-04-17T13:02:34.521Z</time></trkpt><trkpt lat="46.19047" lon="12.55608"><ele>399.0</ele><time>2026-04-17T13:02:35.522Z</time></trkpt><trkpt lat="46.1904867" lon="12.5562283"><ele>399.0</ele><time>2026-04-17T13:02:36.522Z</time></trkpt><trkpt lat="46.1904983" lon="12.55636"><ele>399.0</ele><time>2026-04-17T13:02:37.522Z</time></trkpt><trkpt lat="46.1905067" lon="12.5564867"><ele>399.0</ele><time>2026-04-17T13:02:38.522Z</time></trkpt><trkpt lat="46.19052" lon="12.5566133"><ele>399.0</ele><time>2026-04-17T13:02:39.521Z</time></trkpt><trkpt lat="46.190535" lon="12.5567367"><ele>399.0</ele><time>2026-04-17T13:02:40.521Z</time></trkpt><trkpt lat="46.19055" lon="12.5568467"><ele>399.0</ele><time>2026-04-17T13:02:41.521Z</time></trkpt><trkpt lat="46.1905567" lon="12.55695"><ele>399.0</ele><time>2026-04-17T13:02:42.522Z</time></trkpt><trkpt lat="46.1905717" lon="12.55705"><ele>398.8333333333333</ele><time>2026-04-17T13:02:43.521Z</time></trkpt><trkpt lat="46.1905517" lon="12.5571517"><ele>398.66666666666663</ele><time>2026-04-17T13:02:44.523Z</time></trkpt><trkpt lat="46.190565" lon="12.557245"><ele>398.5</ele><time>2026-04-17T13:02:45.523Z</time></trkpt><trkpt lat="46.1905967" lon="12.5573433"><ele>398.3333333333333</ele><time>2026-04-17T13:02:46.521Z</time></trkpt><trkpt lat="46.19062" lon="12.55746"><ele>398.16666666666663</ele><time>2026-04-17T13:02:47.522Z</time></trkpt><trkpt lat="46.1906433" lon="12.55758"><ele>398.0</ele><time>2026-04-17T13:02:48.523Z</time></trkpt><trkpt lat="46.1906617" lon="12.5576933"><ele>397.99999999999994</ele><time>2026-04-17T13:02:49.523Z</time></trkpt><trkpt lat="46.1906583" lon="12.5578083"><ele>398.0</ele><time>2026-04-17T13:02:50.522Z</time></trkpt><trkpt lat="46.1906617" lon="12.5579183"><ele>398.0</ele><time>2026-04-17T13:02:51.521Z</time></trkpt><trkpt lat="46.1906667" lon="12.5580233"><ele>398.0</ele><time>2026-04-17T13:02:52.524Z</time></trkpt><trkpt lat="46.1906567" lon="12.5581283"><ele>397.99999999999994</ele><time>2026-04-17T13:02:53.523Z</time></trkpt><trkpt lat="46.1906583" lon="12.5582367"><ele>398.0</ele><time>2026-04-17T13:02:54.521Z</time></trkpt><trkpt lat="46.19066" lon="12.55835"><ele>398.16666666666663</ele><time>2026-04-17T13:02:55.523Z</time></trkpt><trkpt lat="46.1906617" lon="12.5584683"><ele>398.3333333333333</ele><time>2026-04-17T13:02:56.521Z</time></trkpt><trkpt lat="46.190675" lon="12.5585883"><ele>398.5</ele><time>2026-04-17T13:02:57.521Z</time></trkpt><trkpt lat="46.1906917" lon="12.558695"><ele>398.66666666666663</ele><time>2026-04-17T13:02:58.521Z</time></trkpt><trkpt lat="46.1907133" lon="12.5587867"><ele>398.8333333333333</ele><time>2026-04-17T13:02:59.521Z</time></trkpt><trkpt lat="46.19074" lon="12.5589417"><ele>399.0</ele><time>2026-04-17T13:03:01.521Z</time></trkpt><trkpt lat="46.1907633" lon="12.55908"><ele>401.6</ele><time>2026-04-17T13:03:03.521Z</time></trkpt><trkpt lat="46.1907733" lon="12.559215"><ele>404.2</ele><time>2026-04-17T13:03:05.523Z</time></trkpt><trkpt lat="46.1907617" lon="12.559325"><ele>406.8</ele><time>2026-04-17T13:03:07.522Z</time></trkpt><trkpt lat="46.1907517" lon="12.5594617"><ele>409.40000000000003</ele><time>2026-04-17T13:03:09.519Z</time></trkpt><trkpt lat="46.19076" lon="12.5596167"><ele>412.0</ele><time>2026-04-17T13:03:11.521Z</time></trkpt><trkpt lat="46.1908017" lon="12.55979"><ele>412.20000000000005</ele><time>2026-04-17T13:03:13.521Z</time></trkpt><trkpt lat="46.1908183" lon="12.5599583"><ele>412.4</ele><time>2026-04-17T13:03:15.521Z</time></trkpt><trkpt lat="46.1908183" lon="12.5601417"><ele>412.6</ele><time>2026-04-17T13:03:17.521Z</time></trkpt><trkpt lat="46.1908233" lon="12.5602433"><ele>412.79999999999995</ele><time>2026-04-17T13:03:18.521Z</time></trkpt><trkpt lat="46.1908333" lon="12.5603433"><ele>413.0</ele><time>2026-04-17T13:03:19.52Z</time></trkpt><trkpt lat="46.190825" lon="12.5604417"><ele>412.99999999999994</ele><time>2026-04-17T13:03:20.523Z</time></trkpt><trkpt lat="46.19082" lon="12.5605417"><ele>413.0</ele><time>2026-04-17T13:03:21.521Z</time></trkpt><trkpt lat="46.1908217" lon="12.5606483"><ele>413.0</ele><time>2026-04-17T13:03:22.521Z</time></trkpt><trkpt lat="46.1908183" lon="12.560755"><ele>413.0</ele><time>2026-04-17T13:03:23.523Z</time></trkpt><trkpt lat="46.1908317" lon="12.5608717"><ele>412.99999999999994</ele><time>2026-04-17T13:03:24.522Z</time></trkpt><trkpt lat="46.1908483" lon="12.560995"><ele>413.0</ele><time>2026-04-17T13:03:25.522Z</time></trkpt><trkpt lat="46.1908417" lon="12.5611167"><ele>412.3333333333333</ele><time>2026-04-17T13:03:26.523Z</time></trkpt><trkpt lat="46.1908433" lon="12.5612417"><ele>411.66666666666663</ele><time>2026-04-17T13:03:27.521Z</time></trkpt><trkpt lat="46.19084" lon="12.5613617"><ele>411.0</ele><time>2026-04-17T13:03:28.521Z</time></trkpt><trkpt lat="46.1908433" lon="12.5614767"><ele>410.33333333333337</ele><time>2026-04-17T13:03:29.521Z</time></trkpt><trkpt lat="46.1908383" lon="12.5615883"><ele>409.6666666666667</ele><time>2026-04-17T13:03:30.521Z</time></trkpt><trkpt lat="46.1908283" lon="12.5617"><ele>409.0</ele><time>2026-04-17T13:03:31.521Z</time></trkpt><trkpt lat="46.190825" lon="12.56182"><ele>409.00000000000006</ele><time>2026-04-17T13:03:32.523Z</time></trkpt><trkpt lat="46.190825" lon="12.5619383"><ele>409.0</ele><time>2026-04-17T13:03:33.521Z</time></trkpt><trkpt lat="46.19083" lon="12.562055"><ele>409.0</ele><time>2026-04-17T13:03:34.52Z</time></trkpt><trkpt lat="46.1908467" lon="12.5621733"><ele>409.0</ele><time>2026-04-17T13:03:35.521Z</time></trkpt><trkpt lat="46.1908717" lon="12.562295"><ele>409.00000000000006</ele><time>2026-04-17T13:03:36.522Z</time></trkpt><trkpt lat="46.1908933" lon="12.5624233"><ele>409.0</ele><time>2026-04-17T13:03:37.522Z</time></trkpt><trkpt lat="46.19092" lon="12.5625583"><ele>408.2</ele><time>2026-04-17T13:03:38.522Z</time></trkpt><trkpt lat="46.19094" lon="12.56269"><ele>407.4</ele><time>2026-04-17T13:03:39.52Z</time></trkpt><trkpt lat="46.1909583" lon="12.5628133"><ele>406.6</ele><time>2026-04-17T13:03:40.521Z</time></trkpt><trkpt lat="46.190975" lon="12.562935"><ele>405.8</ele><time>2026-04-17T13:03:41.521Z</time></trkpt><trkpt lat="46.1909983" lon="12.5630633"><ele>405.0</ele><time>2026-04-17T13:03:42.52Z</time></trkpt><trkpt lat="46.19102" lon="12.5631967"><ele>405.0</ele><time>2026-04-17T13:03:43.52Z</time></trkpt><trkpt lat="46.191045" lon="12.5633333"><ele>405.0</ele><time>2026-04-17T13:03:44.522Z</time></trkpt><trkpt lat="46.1910783" lon="12.5634633"><ele>405.0</ele><time>2026-04-17T13:03:45.521Z</time></trkpt><trkpt lat="46.191105" lon="12.5635917"><ele>405.0</ele><time>2026-04-17T13:03:46.519Z</time></trkpt><trkpt lat="46.1911233" lon="12.5637217"><ele>405.0</ele><time>2026-04-17T13:03:47.522Z</time></trkpt><trkpt lat="46.1911583" lon="12.5638567"><ele>405.2</ele><time>2026-04-17T13:03:48.521Z</time></trkpt><trkpt lat="46.1911833" lon="12.5640033"><ele>405.4</ele><time>2026-04-17T13:03:49.521Z</time></trkpt><trkpt lat="46.19121" lon="12.564155"><ele>405.6</ele><time>2026-04-17T13:03:50.523Z</time></trkpt><trkpt lat="46.191235" lon="12.564305"><ele>405.8</ele><time>2026-04-17T13:03:51.521Z</time></trkpt><trkpt lat="46.1912633" lon="12.564455"><ele>406.0</ele><time>2026-04-17T13:03:52.522Z</time></trkpt><trkpt lat="46.1912917" lon="12.5646067"><ele>405.6</ele><time>2026-04-17T13:03:53.523Z</time></trkpt><trkpt lat="46.19132" lon="12.5647633"><ele>405.20000000000005</ele><time>2026-04-17T13:03:54.521Z</time></trkpt><trkpt lat="46.1913467" lon="12.5649233"><ele>404.79999999999995</ele><time>2026-04-17T13:03:55.523Z</time></trkpt><trkpt lat="46.1913733" lon="12.56508"><ele>404.4</ele><time>2026-04-17T13:03:56.523Z</time></trkpt><trkpt lat="46.1913983" lon="12.5652317"><ele>404.0</ele><time>2026-04-17T13:03:57.522Z</time></trkpt><trkpt lat="46.1914133" lon="12.5653867"><ele>402.79999999999995</ele><time>2026-04-17T13:03:58.521Z</time></trkpt><trkpt lat="46.1914133" lon="12.5655467"><ele>401.59999999999997</ele><time>2026-04-17T13:03:59.522Z</time></trkpt><trkpt lat="46.1914033" lon="12.5657067"><ele>400.4</ele><time>2026-04-17T13:04:00.52Z</time></trkpt><trkpt lat="46.1913867" lon="12.5658633"><ele>399.2</ele><time>2026-04-17T13:04:01.524Z</time></trkpt><trkpt lat="46.1913667" lon="12.5660133"><ele>398.0</ele><time>2026-04-17T13:04:02.522Z</time></trkpt><trkpt lat="46.1913483" lon="12.5661617"><ele>397.49999999999994</ele><time>2026-04-17T13:04:03.521Z</time></trkpt><trkpt lat="46.1913283" lon="12.5663033"><ele>397.0</ele><time>2026-04-17T13:04:04.521Z</time></trkpt><trkpt lat="46.1913083" lon="12.56644"><ele>396.5</ele><time>2026-04-17T13:04:05.522Z</time></trkpt><trkpt lat="46.1912917" lon="12.5665633"><ele>396.0</ele><time>2026-04-17T13:04:06.521Z</time></trkpt><trkpt lat="46.1912733" lon="12.5666767"><ele>395.49999999999994</ele><time>2026-04-17T13:04:07.521Z</time></trkpt><trkpt lat="46.1912633" lon="12.566785"><ele>395.0</ele><time>2026-04-17T13:04:08.522Z</time></trkpt><trkpt lat="46.1912617" lon="12.5668967"><ele>394.99999999999994</ele><time>2026-04-17T13:04:09.523Z</time></trkpt><trkpt lat="46.1912667" lon="12.567005"><ele>395.0</ele><time>2026-04-17T13:04:10.523Z</time></trkpt><trkpt lat="46.1912933" lon="12.5671067"><ele>395.0</ele><time>2026-04-17T13:04:11.519Z</time></trkpt><trkpt lat="46.1913417" lon="12.5671933"><ele>395.0</ele><time>2026-04-17T13:04:12.521Z</time></trkpt><trkpt lat="46.191395" lon="12.56727"><ele>394.99999999999994</ele><time>2026-04-17T13:04:13.522Z</time></trkpt><trkpt lat="46.19145" lon="12.5673417"><ele>395.0</ele><time>2026-04-17T13:04:14.524Z</time></trkpt><trkpt lat="46.1915017" lon="12.5674167"><ele>397.99999999999994</ele><time>2026-04-17T13:04:15.522Z</time></trkpt><trkpt lat="46.1915467" lon="12.5674983"><ele>401.0</ele><time>2026-04-17T13:04:16.521Z</time></trkpt><trkpt lat="46.19158" lon="12.567595"><ele>404.0</ele><time>2026-04-17T13:04:17.524Z</time></trkpt><trkpt lat="46.1916033" lon="12.5677083"><ele>407.0</ele><time>2026-04-17T13:04:18.522Z</time></trkpt><trkpt lat="46.1916167" lon="12.5678283"><ele>409.99999999999994</ele><time>2026-04-17T13:04:19.522Z</time></trkpt><trkpt lat="46.1916267" lon="12.5679467"><ele>413.0</ele><time>2026-04-17T13:04:20.522Z</time></trkpt><trkpt lat="46.19163" lon="12.5680533"><ele>413.14285714285717</ele><time>2026-04-17T13:04:21.522Z</time></trkpt><trkpt lat="46.19163" lon="12.5681583"><ele>413.2857142857143</ele><time>2026-04-17T13:04:22.523Z</time></trkpt><trkpt lat="46.1916233" lon="12.5682617"><ele>413.42857142857144</ele><time>2026-04-17T13:04:23.521Z</time></trkpt><trkpt lat="46.191605" lon="12.568355"><ele>413.57142857142856</ele><time>2026-04-17T13:04:24.523Z</time></trkpt><trkpt lat="46.1915733" lon="12.5684433"><ele>413.7142857142857</ele><time>2026-04-17T13:04:25.522Z</time></trkpt><trkpt lat="46.1915183" lon="12.5685133"><ele>413.8571428571429</ele><time>2026-04-17T13:04:26.523Z</time></trkpt><trkpt lat="46.1914533" lon="12.5685667"><ele>414.0</ele><time>2026-04-17T13:04:27.522Z</time></trkpt><trkpt lat="46.1913783" lon="12.56861"><ele>412.8333333333333</ele><time>2026-04-17T13:04:28.521Z</time></trkpt><trkpt lat="46.191305" lon="12.56864"><ele>411.66666666666663</ele><time>2026-04-17T13:04:29.523Z</time></trkpt><trkpt lat="46.1912367" lon="12.568675"><ele>410.5</ele><time>2026-04-17T13:04:30.524Z</time></trkpt><trkpt lat="46.1911733" lon="12.5687383"><ele>409.3333333333333</ele><time>2026-04-17T13:04:31.524Z</time></trkpt><trkpt lat="46.191125" lon="12.5688283"><ele>408.16666666666663</ele><time>2026-04-17T13:04:32.523Z</time></trkpt><trkpt lat="46.1910883" lon="12.568945"><ele>407.0</ele><time>2026-04-17T13:04:33.523Z</time></trkpt><trkpt lat="46.1910717" lon="12.56908"><ele>407.0</ele><time>2026-04-17T13:04:34.52Z</time></trkpt><trkpt lat="46.191065" lon="12.569215"><ele>407.0</ele><time>2026-04-17T13:04:35.522Z</time></trkpt><trkpt lat="46.1910633" lon="12.5693533"><ele>407.0</ele><time>2026-04-17T13:04:36.522Z</time></trkpt><trkpt lat="46.1910667" lon="12.5695"><ele>407.0</ele><time>2026-04-17T13:04:37.522Z</time></trkpt><trkpt lat="46.1910483" lon="12.5696367"><ele>407.0</ele><time>2026-04-17T13:04:38.523Z</time></trkpt><trkpt lat="46.191025" lon="12.56977"><ele>407.20000000000005</ele><time>2026-04-17T13:04:39.522Z</time></trkpt><trkpt lat="46.1909983" lon="12.5699017"><ele>407.4</ele><time>2026-04-17T13:04:40.522Z</time></trkpt><trkpt lat="46.1909717" lon="12.5700333"><ele>407.6</ele><time>2026-04-17T13:04:41.522Z</time></trkpt><trkpt lat="46.190945" lon="12.57017"><ele>407.79999999999995</ele><time>2026-04-17T13:04:42.52Z</time></trkpt><trkpt lat="46.190925" lon="12.57031"><ele>408.0</ele><time>2026-04-17T13:04:43.522Z</time></trkpt><trkpt lat="46.1909117" lon="12.570445"><ele>408.1666666666667</ele><time>2026-04-17T13:04:44.521Z</time></trkpt><trkpt lat="46.190905" lon="12.5705817"><ele>408.33333333333337</ele><time>2026-04-17T13:04:45.524Z</time></trkpt><trkpt lat="46.1909083" lon="12.5707167"><ele>408.5</ele><time>2026-04-17T13:04:46.521Z</time></trkpt><trkpt lat="46.1909217" lon="12.5708433"><ele>408.6666666666667</ele><time>2026-04-17T13:04:47.523Z</time></trkpt><trkpt lat="46.1909367" lon="12.570965"><ele>408.83333333333337</ele><time>2026-04-17T13:04:48.522Z</time></trkpt><trkpt lat="46.19095" lon="12.5710817"><ele>409.0</ele><time>2026-04-17T13:04:49.522Z</time></trkpt><trkpt lat="46.1909567" lon="12.571195"><ele>409.1666666666667</ele><time>2026-04-17T13:04:50.521Z</time></trkpt><trkpt lat="46.1909467" lon="12.57131"><ele>409.33333333333337</ele><time>2026-04-17T13:04:51.521Z</time></trkpt><trkpt lat="46.19092" lon="12.57142"><ele>409.5</ele><time>2026-04-17T13:04:52.522Z</time></trkpt><trkpt lat="46.190885" lon="12.5715283"><ele>409.66666666666663</ele><time>2026-04-17T13:04:53.523Z</time></trkpt><trkpt lat="46.1908533" lon="12.5716367"><ele>409.8333333333333</ele><time>2026-04-17T13:04:54.523Z</time></trkpt><trkpt lat="46.1908267" lon="12.5717533"><ele>410.0</ele><time>2026-04-17T13:04:55.521Z</time></trkpt><trkpt lat="46.1908133" lon="12.5718767"><ele>409.99999999999994</ele><time>2026-04-17T13:04:56.522Z</time></trkpt><trkpt lat="46.19081" lon="12.572005"><ele>410.0</ele><time>2026-04-17T13:04:57.523Z</time></trkpt><trkpt lat="46.1908217" lon="12.57213"><ele>410.0</ele><time>2026-04-17T13:04:58.52Z</time></trkpt><trkpt lat="46.19083" lon="12.57226"><ele>410.0</ele><time>2026-04-17T13:04:59.522Z</time></trkpt><trkpt lat="46.1908533" lon="12.5723833"><ele>409.99999999999994</ele><time>2026-04-17T13:05:00.521Z</time></trkpt><trkpt lat="46.190895" lon="12.5724933"><ele>410.0</ele><time>2026-04-17T13:05:01.523Z</time></trkpt><trkpt lat="46.190945" lon="12.572585"><ele>409.66666666666663</ele><time>2026-04-17T13:05:02.524Z</time></trkpt><trkpt lat="46.191005" lon="12.5726667"><ele>409.3333333333333</ele><time>2026-04-17T13:05:03.522Z</time></trkpt><trkpt lat="46.191065" lon="12.5727467"><ele>409.0</ele><time>2026-04-17T13:05:04.52Z</time></trkpt><trkpt lat="46.1911367" lon="12.57281"><ele>408.66666666666663</ele><time>2026-04-17T13:05:05.522Z</time></trkpt><trkpt lat="46.1912167" lon="12.57288"><ele>408.3333333333333</ele><time>2026-04-17T13:05:06.523Z</time></trkpt><trkpt lat="46.1913" lon="12.5729467"><ele>408.0</ele><time>2026-04-17T13:05:07.521Z</time></trkpt><trkpt lat="46.191385" lon="12.57301"><ele>406.8333333333333</ele><time>2026-04-17T13:05:08.522Z</time></trkpt><trkpt lat="46.191465" lon="12.5730683"><ele>405.66666666666663</ele><time>2026-04-17T13:05:09.522Z</time></trkpt><trkpt lat="46.1915383" lon="12.5731233"><ele>404.5</ele><time>2026-04-17T13:05:10.523Z</time></trkpt><trkpt lat="46.1916067" lon="12.5731783"><ele>403.3333333333333</ele><time>2026-04-17T13:05:11.521Z</time></trkpt><trkpt lat="46.1916683" lon="12.573235"><ele>402.16666666666663</ele><time>2026-04-17T13:05:12.521Z</time></trkpt><trkpt lat="46.191725" lon="12.5732967"><ele>401.0</ele><time>2026-04-17T13:05:13.522Z</time></trkpt><trkpt lat="46.1917733" lon="12.57337"><ele>403.49999999999994</ele><time>2026-04-17T13:05:14.521Z</time></trkpt><trkpt lat="46.1918167" lon="12.573465"><ele>406.0</ele><time>2026-04-17T13:05:15.524Z</time></trkpt><trkpt lat="46.1918483" lon="12.5735767"><ele>408.5</ele><time>2026-04-17T13:05:16.52Z</time></trkpt><trkpt lat="46.1918567" lon="12.5736883"><ele>411.0</ele><time>2026-04-17T13:05:17.521Z</time></trkpt><trkpt lat="46.191845" lon="12.5737967"><ele>413.49999999999994</ele><time>2026-04-17T13:05:18.519Z</time></trkpt><trkpt lat="46.1918233" lon="12.573895"><ele>416.0</ele><time>2026-04-17T13:05:19.52Z</time></trkpt><trkpt lat="46.191795" lon="12.57398"><ele>415.99999999999994</ele><time>2026-04-17T13:05:20.522Z</time></trkpt><trkpt lat="46.1917567" lon="12.5740567"><ele>416.0</ele><time>2026-04-17T13:05:21.52Z</time></trkpt><trkpt lat="46.1917017" lon="12.574125"><ele>416.0</ele><time>2026-04-17T13:05:22.52Z</time></trkpt><trkpt lat="46.1916383" lon="12.5741867"><ele>416.0</ele><time>2026-04-17T13:05:23.52Z</time></trkpt><trkpt lat="46.1915633" lon="12.574225"><ele>415.99999999999994</ele><time>2026-04-17T13:05:24.52Z</time></trkpt><trkpt lat="46.1914817" lon="12.5742467"><ele>416.0</ele><time>2026-04-17T13:05:25.523Z</time></trkpt><trkpt lat="46.1913967" lon="12.57424"><ele>413.8</ele><time>2026-04-17T13:05:26.524Z</time></trkpt><trkpt lat="46.1913117" lon="12.5742417"><ele>411.6</ele><time>2026-04-17T13:05:27.522Z</time></trkpt><trkpt lat="46.1912233" lon="12.5742517"><ele>409.4</ele><time>2026-04-17T13:05:28.521Z</time></trkpt><trkpt lat="46.1911317" lon="12.5742667"><ele>407.2</ele><time>2026-04-17T13:05:29.524Z</time></trkpt><trkpt lat="46.1910417" lon="12.5743033"><ele>405.0</ele><time>2026-04-17T13:05:30.522Z</time></trkpt><trkpt lat="46.1909633" lon="12.5743767"><ele>405.0</ele><time>2026-04-17T13:05:31.522Z</time></trkpt><trkpt lat="46.19088" lon="12.5744633"><ele>405.0</ele><time>2026-04-17T13:05:32.522Z</time></trkpt><trkpt lat="46.1908183" lon="12.5745783"><ele>405.0</ele><time>2026-04-17T13:05:33.521Z</time></trkpt><trkpt lat="46.19077" lon="12.57471"><ele>405.0</ele><time>2026-04-17T13:05:34.522Z</time></trkpt><trkpt lat="46.190735" lon="12.574845"><ele>405.0</ele><time>2026-04-17T13:05:35.524Z</time></trkpt><trkpt lat="46.190695" lon="12.5749733"><ele>402.4</ele><time>2026-04-17T13:05:36.523Z</time></trkpt><trkpt lat="46.1906633" lon="12.57511"><ele>399.8</ele><time>2026-04-17T13:05:37.522Z</time></trkpt><trkpt lat="46.1906167" lon="12.575245"><ele>397.20000000000005</ele><time>2026-04-17T13:05:38.522Z</time></trkpt><trkpt lat="46.1905767" lon="12.5753867"><ele>394.6</ele><time>2026-04-17T13:05:39.524Z</time></trkpt><trkpt lat="46.1905433" lon="12.5755267"><ele>392.0</ele><time>2026-04-17T13:05:40.522Z</time></trkpt><trkpt lat="46.1905117" lon="12.5756617"><ele>392.0</ele><time>2026-04-17T13:05:41.522Z</time></trkpt><trkpt lat="46.190475" lon="12.5757817"><ele>392.0</ele><time>2026-04-17T13:05:42.523Z</time></trkpt><trkpt lat="46.190445" lon="12.5759"><ele>392.0</ele><time>2026-04-17T13:05:43.523Z</time></trkpt><trkpt lat="46.190435" lon="12.5760317"><ele>392.0</ele><time>2026-04-17T13:05:44.523Z</time></trkpt><trkpt lat="46.19043" lon="12.57617"><ele>392.0</ele><time>2026-04-17T13:05:45.522Z</time></trkpt><trkpt lat="46.1904467" lon="12.5763067"><ele>392.0</ele><time>2026-04-17T13:05:46.521Z</time></trkpt><trkpt lat="46.1904867" lon="12.5764433"><ele>392.0</ele><time>2026-04-17T13:05:47.522Z</time></trkpt><trkpt lat="46.19054" lon="12.5765767"><ele>392.0</ele><time>2026-04-17T13:05:48.523Z</time></trkpt><trkpt lat="46.1905867" lon="12.57672"><ele>392.0</ele><time>2026-04-17T13:05:49.523Z</time></trkpt><trkpt lat="46.1906383" lon="12.5768717"><ele>392.0</ele><time>2026-04-17T13:05:50.522Z</time></trkpt><trkpt lat="46.1906983" lon="12.577025"><ele>394.75</ele><time>2026-04-17T13:05:51.522Z</time></trkpt><trkpt lat="46.1907633" lon="12.5771783"><ele>397.5</ele><time>2026-04-17T13:05:52.522Z</time></trkpt><trkpt lat="46.19083" lon="12.5773333"><ele>400.25</ele><time>2026-04-17T13:05:53.523Z</time></trkpt><trkpt lat="46.1909033" lon="12.577495"><ele>403.0</ele><time>2026-04-17T13:05:54.522Z</time></trkpt><trkpt lat="46.1909817" lon="12.5776667"><ele>403.0</ele><time>2026-04-17T13:05:55.524Z</time></trkpt><trkpt lat="46.19106" lon="12.57784"><ele>403.0</ele><time>2026-04-17T13:05:56.524Z</time></trkpt><trkpt lat="46.1911367" lon="12.5780133"><ele>403.0</ele><time>2026-04-17T13:05:57.524Z</time></trkpt><trkpt lat="46.19121" lon="12.5781867"><ele>403.0</ele><time>2026-04-17T13:05:58.524Z</time></trkpt><trkpt lat="46.19128" lon="12.5783617"><ele>402.5</ele><time>2026-04-17T13:05:59.522Z</time></trkpt><trkpt lat="46.1913483" lon="12.57854"><ele>402.0</ele><time>2026-04-17T13:06:00.522Z</time></trkpt><trkpt lat="46.1914133" lon="12.5787233"><ele>401.5</ele><time>2026-04-17T13:06:01.524Z</time></trkpt><trkpt lat="46.1914783" lon="12.5789133"><ele>401.0</ele><time>2026-04-17T13:06:02.522Z</time></trkpt><trkpt lat="46.1915433" lon="12.579105"><ele>402.75</ele><time>2026-04-17T13:06:03.524Z</time></trkpt><trkpt lat="46.1916017" lon="12.5792983"><ele>404.5</ele><time>2026-04-17T13:06:04.52Z</time></trkpt><trkpt lat="46.1916533" lon="12.5794967"><ele>406.25</ele><time>2026-04-17T13:06:05.522Z</time></trkpt><trkpt lat="46.1916983" lon="12.579695"><ele>408.0</ele><time>2026-04-17T13:06:06.521Z</time></trkpt><trkpt lat="46.1917417" lon="12.579895"><ele>408.0</ele><time>2026-04-17T13:06:07.522Z</time></trkpt><trkpt lat="46.1917867" lon="12.5801017"><ele>408.0</ele><time>2026-04-17T13:06:08.524Z</time></trkpt><trkpt lat="46.19183" lon="12.5803083"><ele>408.0</ele><time>2026-04-17T13:06:09.522Z</time></trkpt><trkpt lat="46.1918667" lon="12.5805083"><ele>408.0</ele><time>2026-04-17T13:06:10.522Z</time></trkpt><trkpt lat="46.1918967" lon="12.5807167"><ele>408.0</ele><time>2026-04-17T13:06:11.521Z</time></trkpt><trkpt lat="46.1919217" lon="12.5809317"><ele>408.0</ele><time>2026-04-17T13:06:12.522Z</time></trkpt><trkpt lat="46.191945" lon="12.58116"><ele>408.0</ele><time>2026-04-17T13:06:13.521Z</time></trkpt><trkpt lat="46.191965" lon="12.5814033"><ele>408.33333333333337</ele><time>2026-04-17T13:06:14.522Z</time></trkpt><trkpt lat="46.1919817" lon="12.58165"><ele>408.6666666666667</ele><time>2026-04-17T13:06:15.522Z</time></trkpt><trkpt lat="46.191995" lon="12.5819033"><ele>409.0</ele><time>2026-04-17T13:06:16.522Z</time></trkpt><trkpt lat="46.1920033" lon="12.5821583"><ele>410.33333333333337</ele><time>2026-04-17T13:06:17.522Z</time></trkpt><trkpt lat="46.1920117" lon="12.5824083"><ele>411.66666666666663</ele><time>2026-04-17T13:06:18.524Z</time></trkpt><trkpt lat="46.19202" lon="12.5826583"><ele>413.0</ele><time>2026-04-17T13:06:19.522Z</time></trkpt><trkpt lat="46.1920267" lon="12.58291"><ele>401.0</ele><time>2026-04-17T13:06:20.523Z</time></trkpt><trkpt lat="46.194145" lon="12.595655"><ele>401.0</ele><time>2026-04-17T13:06:59.522Z</time></trkpt><trkpt lat="46.1942683" lon="12.5959883"><ele>401.0</ele><time>2026-04-17T13:07:00.522Z</time></trkpt><trkpt lat="46.1943967" lon="12.5963233"><ele>402.5</ele><time>2026-04-17T13:07:01.523Z</time></trkpt><trkpt lat="46.1945417" lon="12.5966717"><ele>404.0</ele><time>2026-04-17T13:07:02.521Z</time></trkpt><trkpt lat="46.19466" lon="12.59701"><ele>404.0</ele><time>2026-04-17T13:07:03.522Z</time></trkpt><trkpt lat="46.1947817" lon="12.5973433"><ele>404.0</ele><time>2026-04-17T13:07:04.525Z</time></trkpt><trkpt lat="46.1948933" lon="12.5976717"><ele>400.0</ele><time>2026-04-17T13:07:05.522Z</time></trkpt><trkpt lat="46.195005" lon="12.598"><ele>396.0</ele><time>2026-04-17T13:07:06.522Z</time></trkpt><trkpt lat="46.1951133" lon="12.5983383"><ele>394.0</ele><time>2026-04-17T13:07:07.523Z</time></trkpt><trkpt lat="46.1952133" lon="12.59868"><ele>392.0</ele><time>2026-04-17T13:07:08.522Z</time></trkpt><trkpt lat="46.19531" lon="12.5990283"><ele>392.0</ele><time>2026-04-17T13:07:09.521Z</time></trkpt><trkpt lat="46.1953933" lon="12.599385"><ele>392.0</ele><time>2026-04-17T13:07:10.523Z</time></trkpt><trkpt lat="46.1954667" lon="12.5997483"><ele>393.5</ele><time>2026-04-17T13:07:11.522Z</time></trkpt><trkpt lat="46.1955267" lon="12.600125"><ele>395.0</ele><time>2026-04-17T13:07:12.522Z</time></trkpt><trkpt lat="46.1955783" lon="12.6005067"><ele>396.5</ele><time>2026-04-17T13:07:13.521Z</time></trkpt><trkpt lat="46.1956183" lon="12.60089"><ele>398.0</ele><time>2026-04-17T13:07:14.521Z</time></trkpt><trkpt lat="46.1956533" lon="12.601265"><ele>411.0</ele><time>2026-04-17T13:07:15.523Z</time></trkpt><trkpt lat="46.1958233" lon="12.6035933"><ele>409.0</ele><time>2026-04-17T13:07:21.518Z</time></trkpt><trkpt lat="46.1957283" lon="12.603955"><ele>407.0</ele><time>2026-04-17T13:07:22.522Z</time></trkpt><trkpt lat="46.1956383" lon="12.6043333"><ele>416.0</ele><time>2026-04-17T13:07:23.522Z</time></trkpt><trkpt lat="46.1955767" lon="12.6047067"><ele>425.0</ele><time>2026-04-17T13:07:24.522Z</time></trkpt><trkpt lat="46.1955117" lon="12.6050683"><ele>426.0</ele><time>2026-04-17T13:07:25.523Z</time></trkpt><trkpt lat="46.1954417" lon="12.605425"><ele>427.0</ele><time>2026-04-17T13:07:26.522Z</time></trkpt><trkpt lat="46.1953617" lon="12.6057733"><ele>427.0</ele><time>2026-04-17T13:07:27.522Z</time></trkpt><trkpt lat="46.195275" lon="12.6061133"><ele>427.0</ele><time>2026-04-17T13:07:28.522Z</time></trkpt><trkpt lat="46.19518" lon="12.6064467"><ele>429.5</ele><time>2026-04-17T13:07:29.522Z</time></trkpt><trkpt lat="46.1950867" lon="12.6067733"><ele>432.0</ele><time>2026-04-17T13:07:30.523Z</time></trkpt><trkpt lat="46.165155" lon="12.6338083"><ele>383.5</ele><time>2026-04-17T13:09:31.519Z</time></trkpt><trkpt lat="46.1651" lon="12.6341833"><ele>335.0</ele><time>2026-04-17T13:09:32.523Z</time></trkpt><trkpt lat="46.1650617" lon="12.634585"><ele>335.0</ele><time>2026-04-17T13:09:33.521Z</time></trkpt><trkpt lat="46.1650233" lon="12.6349933"><ele>335.0</ele><time>2026-04-17T13:09:34.521Z</time></trkpt><trkpt lat="46.1649783" lon="12.6354017"><ele>336.5</ele><time>2026-04-17T13:09:35.521Z</time></trkpt><trkpt lat="46.1649367" lon="12.6358133"><ele>338.0</ele><time>2026-04-17T13:09:36.522Z</time></trkpt><trkpt lat="46.1649083" lon="12.6362333"><ele>333.0</ele><time>2026-04-17T13:09:37.522Z</time></trkpt><trkpt lat="46.1648867" lon="12.6366583"><ele>328.0</ele><time>2026-04-17T13:09:38.523Z</time></trkpt><trkpt lat="46.1648733" lon="12.63708"><ele>326.5</ele><time>2026-04-17T13:09:39.521Z</time></trkpt><trkpt lat="46.1648717" lon="12.6375067"><ele>325.0</ele><time>2026-04-17T13:09:40.522Z</time></trkpt><trkpt lat="46.1648783" lon="12.637935"><ele>325.0</ele><time>2026-04-17T13:09:41.522Z</time></trkpt><trkpt lat="46.1648883" lon="12.6383533"><ele>325.0</ele><time>2026-04-17T13:09:42.523Z</time></trkpt><trkpt lat="46.1648983" lon="12.638755"><ele>326.5</ele><time>2026-04-17T13:09:43.523Z</time></trkpt><trkpt lat="46.1649133" lon="12.6391433"><ele>328.0</ele><time>2026-04-17T13:09:44.522Z</time></trkpt><trkpt lat="46.1649217" lon="12.6395333"><ele>335.0</ele><time>2026-04-17T13:09:45.525Z</time></trkpt><trkpt lat="46.1649317" lon="12.6399267"><ele>342.0</ele><time>2026-04-17T13:09:46.521Z</time></trkpt><trkpt lat="46.1649433" lon="12.6403283"><ele>344.0</ele><time>2026-04-17T13:09:47.523Z</time></trkpt><trkpt lat="46.16496" lon="12.6407417"><ele>346.0</ele><time>2026-04-17T13:09:48.522Z</time></trkpt><trkpt lat="46.164975" lon="12.6411583"><ele>347.0</ele><time>2026-04-17T13:09:49.522Z</time></trkpt><trkpt lat="46.1649883" lon="12.6415733"><ele>348.0</ele><time>2026-04-17T13:09:50.523Z</time></trkpt><trkpt lat="46.165" lon="12.64199"><ele>348.5</ele><time>2026-04-17T13:09:51.523Z</time></trkpt><trkpt lat="46.1650133" lon="12.642405"><ele>349.0</ele><time>2026-04-17T13:09:52.523Z</time></trkpt><trkpt lat="46.1650217" lon="12.642815"><ele>349.0</ele><time>2026-04-17T13:09:53.522Z</time></trkpt><trkpt lat="46.165025" lon="12.643225"><ele>349.0</ele><time>2026-04-17T13:09:54.521Z</time></trkpt><trkpt lat="46.1650333" lon="12.6436367"><ele>349.5</ele><time>2026-04-17T13:09:55.522Z</time></trkpt><trkpt lat="46.1650417" lon="12.6440517"><ele>350.0</ele><time>2026-04-17T13:09:56.522Z</time></trkpt><trkpt lat="46.1650517" lon="12.64447"><ele>352.0</ele><time>2026-04-17T13:09:57.523Z</time></trkpt><trkpt lat="46.16506" lon="12.6448883"><ele>354.0</ele><time>2026-04-17T13:09:58.521Z</time></trkpt><trkpt lat="46.1650683" lon="12.6453083"><ele>354.0</ele><time>2026-04-17T13:09:59.521Z</time></trkpt><trkpt lat="46.1650783" lon="12.6457317"><ele>354.0</ele><time>2026-04-17T13:10:00.522Z</time></trkpt><trkpt lat="46.165085" lon="12.6461433"><ele>351.5</ele><time>2026-04-17T13:10:01.521Z</time></trkpt><trkpt lat="46.1650883" lon="12.6465417"><ele>349.0</ele><time>2026-04-17T13:10:02.522Z</time></trkpt><trkpt lat="46.1650717" lon="12.6469367"><ele>349.0</ele><time>2026-04-17T13:10:03.52Z</time></trkpt><trkpt lat="46.1650317" lon="12.6473367"><ele>349.0</ele><time>2026-04-17T13:10:04.523Z</time></trkpt><trkpt lat="46.1649817" lon="12.6477433"><ele>348.5</ele><time>2026-04-17T13:10:05.52Z</time></trkpt><trkpt lat="46.16493" lon="12.648155"><ele>348.0</ele><time>2026-04-17T13:10:06.522Z</time></trkpt><trkpt lat="46.164885" lon="12.64857"><ele>382.0</ele><time>2026-04-17T13:10:07.522Z</time></trkpt><trkpt lat="46.1648417" lon="12.648985"><ele>416.0</ele><time>2026-04-17T13:10:08.522Z</time></trkpt><trkpt lat="46.164795" lon="12.6493983"><ele>416.0</ele><time>2026-04-17T13:10:09.521Z</time></trkpt><trkpt lat="46.164755" lon="12.649795"><ele>416.0</ele><time>2026-04-17T13:10:10.521Z</time></trkpt><trkpt lat="46.1647217" lon="12.6501767"><ele>421.5</ele><time>2026-04-17T13:10:11.523Z</time></trkpt><trkpt lat="46.164705" lon="12.65054"><ele>427.0</ele><time>2026-04-17T13:10:12.522Z</time></trkpt><trkpt lat="46.1647083" lon="12.650885"><ele>429.33333333333337</ele><time>2026-04-17T13:10:13.523Z</time></trkpt><trkpt lat="46.1647267" lon="12.6512117"><ele>431.66666666666663</ele><time>2026-04-17T13:10:14.523Z</time></trkpt><trkpt lat="46.1647667" lon="12.6515217"><ele>434.0</ele><time>2026-04-17T13:10:15.521Z</time></trkpt><trkpt lat="46.1648067" lon="12.6518167"><ele>431.66666666666663</ele><time>2026-04-17T13:10:16.523Z</time></trkpt><trkpt lat="46.1648417" lon="12.6520883"><ele>429.33333333333337</ele><time>2026-04-17T13:10:17.522Z</time></trkpt><trkpt lat="46.164865" lon="12.6523383"><ele>427.0</ele><time>2026-04-17T13:10:18.522Z</time></trkpt><trkpt lat="46.1648533" lon="12.652565"><ele>427.0</ele><time>2026-04-17T13:10:19.522Z</time></trkpt><trkpt lat="46.1648067" lon="12.652775"><ele>427.0</ele><time>2026-04-17T13:10:20.524Z</time></trkpt><trkpt lat="46.1647667" lon="12.65298"><ele>427.0</ele><time>2026-04-17T13:10:21.522Z</time></trkpt><trkpt lat="46.16311" lon="12.65642"><ele>410.40000000000003</ele><time>2026-04-17T13:10:36.523Z</time></trkpt><trkpt lat="46.1629967" lon="12.6564783"><ele>393.80000000000007</ele><time>2026-04-17T13:10:37.521Z</time></trkpt><trkpt lat="46.1628933" lon="12.656485"><ele>377.2</ele><time>2026-04-17T13:10:38.521Z</time></trkpt><trkpt lat="46.162785" lon="12.6564633"><ele>360.6</ele><time>2026-04-17T13:10:39.522Z</time></trkpt><trkpt lat="46.16269" lon="12.65645"><ele>344.0</ele><time>2026-04-17T13:10:40.521Z</time></trkpt><trkpt lat="46.1626067" lon="12.65648"><ele>344.0</ele><time>2026-04-17T13:10:41.521Z</time></trkpt><trkpt lat="46.1625583" lon="12.6565617"><ele>344.0</ele><time>2026-04-17T13:10:42.521Z</time></trkpt><trkpt lat="46.1625317" lon="12.6566583"><ele>344.0</ele><time>2026-04-17T13:10:43.523Z</time></trkpt><trkpt lat="46.1625717" lon="12.6567917"><ele>344.0</ele><time>2026-04-17T13:10:44.523Z</time></trkpt><trkpt lat="46.1626617" lon="12.656935"><ele>344.0</ele><time>2026-04-17T13:10:45.521Z</time></trkpt><trkpt lat="46.1627933" lon="12.6570767"><ele>344.33333333333337</ele><time>2026-04-17T13:10:46.521Z</time></trkpt><trkpt lat="46.162935" lon="12.657205"><ele>344.6666666666667</ele><time>2026-04-17T13:10:47.522Z</time></trkpt><trkpt lat="46.16308" lon="12.6573217"><ele>345.0</ele><time>2026-04-17T13:10:48.525Z</time></trkpt><trkpt lat="46.16321" lon="12.657445"><ele>345.0</ele><time>2026-04-17T13:10:49.522Z</time></trkpt><trkpt lat="46.1633183" lon="12.6575883"><ele>345.0</ele><time>2026-04-17T13:10:50.522Z</time></trkpt><trkpt lat="46.1633967" lon="12.65776"><ele>345.0</ele><time>2026-04-17T13:10:51.521Z</time></trkpt><trkpt lat="46.1634433" lon="12.6579633"><ele>345.0</ele><time>2026-04-17T13:10:52.521Z</time></trkpt><trkpt lat="46.1634583" lon="12.658185"><ele>342.0</ele><time>2026-04-17T13:10:53.522Z</time></trkpt><trkpt lat="46.1634517" lon="12.658425"><ele>339.0</ele><time>2026-04-17T13:10:54.522Z</time></trkpt><trkpt lat="46.1634317" lon="12.6586667"><ele>336.0</ele><time>2026-04-17T13:10:55.524Z</time></trkpt><trkpt lat="46.1633983" lon="12.658905"><ele>333.6666666666667</ele><time>2026-04-17T13:10:56.523Z</time></trkpt><trkpt lat="46.16336" lon="12.6591333"><ele>331.33333333333337</ele><time>2026-04-17T13:10:57.521Z</time></trkpt><trkpt lat="46.16332" lon="12.6593567"><ele>329.0</ele><time>2026-04-17T13:10:58.522Z</time></trkpt><trkpt lat="46.163285" lon="12.6595817"><ele>327.5</ele><time>2026-04-17T13:10:59.523Z</time></trkpt><trkpt lat="46.163255" lon="12.6598"><ele>326.0</ele><time>2026-04-17T13:11:00.521Z</time></trkpt><trkpt lat="46.163225" lon="12.6600117"><ele>324.5</ele><time>2026-04-17T13:11:01.522Z</time></trkpt><trkpt lat="46.163195" lon="12.6602117"><ele>323.0</ele><time>2026-04-17T13:11:02.522Z</time></trkpt><trkpt lat="46.1631667" lon="12.6604017"><ele>322.4</ele><time>2026-04-17T13:11:03.524Z</time></trkpt><trkpt lat="46.1631417" lon="12.6605733"><ele>321.79999999999995</ele><time>2026-04-17T13:11:04.524Z</time></trkpt><trkpt lat="46.1631167" lon="12.6607267"><ele>321.2</ele><time>2026-04-17T13:11:05.524Z</time></trkpt><trkpt lat="46.1630967" lon="12.66087"><ele>320.6</ele><time>2026-04-17T13:11:06.522Z</time></trkpt><trkpt lat="46.163075" lon="12.661005"><ele>320.0</ele><time>2026-04-17T13:11:07.523Z</time></trkpt><trkpt lat="46.1630383" lon="12.6611233"><ele>319.75</ele><time>2026-04-17T13:11:08.522Z</time></trkpt><trkpt lat="46.1629833" lon="12.6612283"><ele>319.5</ele><time>2026-04-17T13:11:09.522Z</time></trkpt><trkpt lat="46.1629083" lon="12.6613233"><ele>319.25</ele><time>2026-04-17T13:11:10.523Z</time></trkpt><trkpt lat="46.1627917" lon="12.6613983"><ele>319.0</ele><time>2026-04-17T13:11:11.521Z</time></trkpt><trkpt lat="46.1626683" lon="12.6614783"><ele>319.0</ele><time>2026-04-17T13:11:12.522Z</time></trkpt><trkpt lat="46.1625433" lon="12.66157"><ele>319.0</ele><time>2026-04-17T13:11:13.522Z</time></trkpt><trkpt lat="46.162415" lon="12.6616733"><ele>319.0</ele><time>2026-04-17T13:11:14.522Z</time></trkpt><trkpt lat="46.16228" lon="12.6617817"><ele>319.0</ele><time>2026-04-17T13:11:15.521Z</time></trkpt><trkpt lat="46.1621417" lon="12.6618883"><ele>319.0</ele><time>2026-04-17T13:11:16.521Z</time></trkpt><trkpt lat="46.1620033" lon="12.661985"><ele>319.0</ele><time>2026-04-17T13:11:17.521Z</time></trkpt><trkpt lat="46.1618767" lon="12.6620617"><ele>319.0</ele><time>2026-04-17T13:11:18.524Z</time></trkpt><trkpt lat="46.1617633" lon="12.6621233"><ele>319.0</ele><time>2026-04-17T13:11:19.522Z</time></trkpt><trkpt lat="46.1616683" lon="12.662175"><ele>319.0</ele><time>2026-04-17T13:11:20.521Z</time></trkpt><trkpt lat="46.1615767" lon="12.6622183"><ele>319.0</ele><time>2026-04-17T13:11:21.519Z</time></trkpt><trkpt lat="46.161485" lon="12.6622567"><ele>319.0</ele><time>2026-04-17T13:11:22.521Z</time></trkpt><trkpt lat="46.1613967" lon="12.6623"><ele>319.0</ele><time>2026-04-17T13:11:23.523Z</time></trkpt><trkpt lat="46.1613067" lon="12.6623517"><ele>319.0</ele><time>2026-04-17T13:11:24.522Z</time></trkpt><trkpt lat="46.1612167" lon="12.6623967"><ele>318.59999999999997</ele><time>2026-04-17T13:11:25.521Z</time></trkpt><trkpt lat="46.1611283" lon="12.6624333"><ele>318.2</ele><time>2026-04-17T13:11:26.523Z</time></trkpt><trkpt lat="46.1610433" lon="12.662475"><ele>317.79999999999995</ele><time>2026-04-17T13:11:27.522Z</time></trkpt><trkpt lat="46.1609467" lon="12.662515"><ele>317.4</ele><time>2026-04-17T13:11:28.522Z</time></trkpt><trkpt lat="46.1608467" lon="12.6625667"><ele>317.0</ele><time>2026-04-17T13:11:29.522Z</time></trkpt><trkpt lat="46.160735" lon="12.6626183"><ele>317.2</ele><time>2026-04-17T13:11:30.521Z</time></trkpt><trkpt lat="46.1606217" lon="12.6626583"><ele>317.4</ele><time>2026-04-17T13:11:31.522Z</time></trkpt><trkpt lat="46.160515" lon="12.662695"><ele>317.6</ele><time>2026-04-17T13:11:32.522Z</time></trkpt><trkpt lat="46.1604083" lon="12.66273"><ele>317.8</ele><time>2026-04-17T13:11:33.522Z</time></trkpt><trkpt lat="46.1603033" lon="12.66277"><ele>318.0</ele><time>2026-04-17T13:11:34.523Z</time></trkpt><trkpt lat="46.160195" lon="12.6628167"><ele>317.5</ele><time>2026-04-17T13:11:35.521Z</time></trkpt><trkpt lat="46.1600767" lon="12.662865"><ele>317.0</ele><time>2026-04-17T13:11:36.522Z</time></trkpt><trkpt lat="46.1599517" lon="12.662905"><ele>316.5</ele><time>2026-04-17T13:11:37.522Z</time></trkpt><trkpt lat="46.159825" lon="12.6629433"><ele>316.0</ele><time>2026-04-17T13:11:38.523Z</time></trkpt><trkpt lat="46.1596983" lon="12.6629783"><ele>315.75</ele><time>2026-04-17T13:11:39.524Z</time></trkpt><trkpt lat="46.1595733" lon="12.6630133"><ele>315.5</ele><time>2026-04-17T13:11:40.522Z</time></trkpt><trkpt lat="46.15945" lon="12.6630417"><ele>315.25</ele><time>2026-04-17T13:11:41.521Z</time></trkpt><trkpt lat="46.159325" lon="12.6630733"><ele>315.0</ele><time>2026-04-17T13:11:42.522Z</time></trkpt><trkpt lat="46.159195" lon="12.6631117"><ele>315.0</ele><time>2026-04-17T13:11:43.522Z</time></trkpt><trkpt lat="46.1590617" lon="12.6631533"><ele>315.0</ele><time>2026-04-17T13:11:44.522Z</time></trkpt><trkpt lat="46.15893" lon="12.6631967"><ele>315.0</ele><time>2026-04-17T13:11:45.521Z</time></trkpt><trkpt lat="46.1588067" lon="12.66324"><ele>315.0</ele><time>2026-04-17T13:11:46.522Z</time></trkpt><trkpt lat="46.1586933" lon="12.663285"><ele>314.4</ele><time>2026-04-17T13:11:47.521Z</time></trkpt><trkpt lat="46.15858" lon="12.66332"><ele>313.8</ele><time>2026-04-17T13:11:48.521Z</time></trkpt><trkpt lat="46.1584767" lon="12.66336"><ele>313.2</ele><time>2026-04-17T13:11:49.522Z</time></trkpt><trkpt lat="46.1583783" lon="12.6634083"><ele>312.6</ele><time>2026-04-17T13:11:50.522Z</time></trkpt><trkpt lat="46.1582933" lon="12.6634667"><ele>312.0</ele><time>2026-04-17T13:11:51.523Z</time></trkpt><trkpt lat="46.158205" lon="12.66352"><ele>312.0</ele><time>2026-04-17T13:11:52.52Z</time></trkpt><trkpt lat="46.1581117" lon="12.6635783"><ele>312.0</ele><time>2026-04-17T13:11:53.521Z</time></trkpt><trkpt lat="46.15801" lon="12.66362"><ele>312.0</ele><time>2026-04-17T13:11:54.522Z</time></trkpt><trkpt lat="46.1578883" lon="12.6636517"><ele>312.0</ele><time>2026-04-17T13:11:55.522Z</time></trkpt><trkpt lat="46.1577617" lon="12.6636783"><ele>312.0</ele><time>2026-04-17T13:11:56.521Z</time></trkpt><trkpt lat="46.1576317" lon="12.6637033"><ele>312.0</ele><time>2026-04-17T13:11:57.521Z</time></trkpt><trkpt lat="46.1575017" lon="12.6637267"><ele>312.0</ele><time>2026-04-17T13:11:58.522Z</time></trkpt><trkpt lat="46.157365" lon="12.66374"><ele>312.0</ele><time>2026-04-17T13:11:59.524Z</time></trkpt><trkpt lat="46.157225" lon="12.6637433"><ele>311.75</ele><time>2026-04-17T13:12:00.521Z</time></trkpt><trkpt lat="46.15708" lon="12.66374"><ele>311.5</ele><time>2026-04-17T13:12:01.522Z</time></trkpt><trkpt lat="46.1569383" lon="12.6637233"><ele>311.25</ele><time>2026-04-17T13:12:02.521Z</time></trkpt><trkpt lat="46.156805" lon="12.6636983"><ele>311.0</ele><time>2026-04-17T13:12:03.521Z</time></trkpt><trkpt lat="46.1566833" lon="12.6636683"><ele>311.0</ele><time>2026-04-17T13:12:04.52Z</time></trkpt><trkpt lat="46.1565717" lon="12.663635"><ele>311.0</ele><time>2026-04-17T13:12:05.522Z</time></trkpt><trkpt lat="46.1564633" lon="12.6636017"><ele>311.0</ele><time>2026-04-17T13:12:06.522Z</time></trkpt><trkpt lat="46.15636" lon="12.6635667"><ele>311.0</ele><time>2026-04-17T13:12:07.52Z</time></trkpt><trkpt lat="46.1562583" lon="12.6635367"><ele>311.0</ele><time>2026-04-17T13:12:08.521Z</time></trkpt><trkpt lat="46.156155" lon="12.6635033"><ele>310.5</ele><time>2026-04-17T13:12:09.523Z</time></trkpt><trkpt lat="46.1560417" lon="12.6634633"><ele>310.0</ele><time>2026-04-17T13:12:10.52Z</time></trkpt><trkpt lat="46.1559217" lon="12.66342"><ele>309.5</ele><time>2026-04-17T13:12:11.522Z</time></trkpt><trkpt lat="46.1557917" lon="12.6633767"><ele>309.0</ele><time>2026-04-17T13:12:12.521Z</time></trkpt><trkpt lat="46.1556633" lon="12.6633317"><ele>308.75</ele><time>2026-04-17T13:12:13.521Z</time></trkpt><trkpt lat="46.1555367" lon="12.6632867"><ele>308.5</ele><time>2026-04-17T13:12:14.522Z</time></trkpt><trkpt lat="46.1554133" lon="12.663245"><ele>308.25</ele><time>2026-04-17T13:12:15.523Z</time></trkpt><trkpt lat="46.1552883" lon="12.6632"><ele>308.0</ele><time>2026-04-17T13:12:16.522Z</time></trkpt><trkpt lat="46.1551583" lon="12.663155"><ele>308.0</ele><time>2026-04-17T13:12:17.522Z</time></trkpt><trkpt lat="46.1550233" lon="12.6631117"><ele>308.0</ele><time>2026-04-17T13:12:18.522Z</time></trkpt><trkpt lat="46.1548917" lon="12.6630633"><ele>308.0</ele><time>2026-04-17T13:12:19.523Z</time></trkpt><trkpt lat="46.1547567" lon="12.6630167"><ele>308.0</ele><time>2026-04-17T13:12:20.522Z</time></trkpt><trkpt lat="46.154625" lon="12.6629683"><ele>308.0</ele><time>2026-04-17T13:12:21.522Z</time></trkpt><trkpt lat="46.1544883" lon="12.662915"><ele>308.0</ele><time>2026-04-17T13:12:22.522Z</time></trkpt><trkpt lat="46.1543467" lon="12.662855"><ele>308.0</ele><time>2026-04-17T13:12:23.521Z</time></trkpt><trkpt lat="46.1542033" lon="12.662785"><ele>308.0</ele><time>2026-04-17T13:12:24.522Z</time></trkpt><trkpt lat="46.15406" lon="12.6627083"><ele>307.25</ele><time>2026-04-17T13:12:25.524Z</time></trkpt><trkpt lat="46.1539217" lon="12.6626317"><ele>306.5</ele><time>2026-04-17T13:12:26.521Z</time></trkpt><trkpt lat="46.1537917" lon="12.66255"><ele>305.75</ele><time>2026-04-17T13:12:27.52Z</time></trkpt><trkpt lat="46.1536617" lon="12.66247"><ele>305.0</ele><time>2026-04-17T13:12:28.521Z</time></trkpt><trkpt lat="46.1535317" lon="12.6623883"><ele>305.0</ele><time>2026-04-17T13:12:29.521Z</time></trkpt><trkpt lat="46.1534017" lon="12.6623067"><ele>305.0</ele><time>2026-04-17T13:12:30.52Z</time></trkpt><trkpt lat="46.1532733" lon="12.6622267"><ele>305.0</ele><time>2026-04-17T13:12:31.52Z</time></trkpt><trkpt lat="46.1531567" lon="12.6621533"><ele>305.0</ele><time>2026-04-17T13:12:32.521Z</time></trkpt><trkpt lat="46.1530533" lon="12.662085"><ele>304.8</ele><time>2026-04-17T13:12:33.52Z</time></trkpt><trkpt lat="46.1529567" lon="12.6620233"><ele>304.6</ele><time>2026-04-17T13:12:34.52Z</time></trkpt><trkpt lat="46.1528667" lon="12.661965"><ele>304.4</ele><time>2026-04-17T13:12:35.526Z</time></trkpt><trkpt lat="46.1527867" lon="12.661905"><ele>304.2</ele><time>2026-04-17T13:12:36.52Z</time></trkpt><trkpt lat="46.15272" lon="12.6618367"><ele>304.0</ele><time>2026-04-17T13:12:37.521Z</time></trkpt><trkpt lat="46.1526717" lon="12.66175"><ele>304.0</ele><time>2026-04-17T13:12:38.521Z</time></trkpt><trkpt lat="46.1526317" lon="12.6616617"><ele>304.0</ele><time>2026-04-17T13:12:39.522Z</time></trkpt><trkpt lat="46.152585" lon="12.6615967"><ele>304.0</ele><time>2026-04-17T13:12:40.52Z</time></trkpt><trkpt lat="46.152465" lon="12.661595"><ele>304.0</ele><time>2026-04-17T13:12:42.521Z</time></trkpt><trkpt lat="46.1524167" lon="12.6616633"><ele>304.0</ele><time>2026-04-17T13:12:43.521Z</time></trkpt><trkpt lat="46.1523833" lon="12.66176"><ele>304.0</ele><time>2026-04-17T13:12:44.521Z</time></trkpt><trkpt lat="46.15236" lon="12.6618683"><ele>303.59999999999997</ele><time>2026-04-17T13:12:45.521Z</time></trkpt><trkpt lat="46.1523367" lon="12.6619733"><ele>303.2</ele><time>2026-04-17T13:12:46.521Z</time></trkpt><trkpt lat="46.1522883" lon="12.6620833"><ele>302.79999999999995</ele><time>2026-04-17T13:12:47.522Z</time></trkpt><trkpt lat="46.1522083" lon="12.6622"><ele>302.4</ele><time>2026-04-17T13:12:48.521Z</time></trkpt><trkpt lat="46.15211" lon="12.662315"><ele>302.0</ele><time>2026-04-17T13:12:49.521Z</time></trkpt><trkpt lat="46.1520083" lon="12.66242"><ele>302.0</ele><time>2026-04-17T13:12:50.524Z</time></trkpt><trkpt lat="46.1518983" lon="12.6625267"><ele>302.0</ele><time>2026-04-17T13:12:51.522Z</time></trkpt><trkpt lat="46.1517833" lon="12.6626317"><ele>302.0</ele><time>2026-04-17T13:12:52.522Z</time></trkpt><trkpt lat="46.1516567" lon="12.6627317"><ele>302.0</ele><time>2026-04-17T13:12:53.522Z</time></trkpt><trkpt lat="46.151515" lon="12.6628383"><ele>302.0</ele><time>2026-04-17T13:12:54.522Z</time></trkpt><trkpt lat="46.15136" lon="12.6629533"><ele>302.0</ele><time>2026-04-17T13:12:55.523Z</time></trkpt><trkpt lat="46.151185" lon="12.6630883"><ele>302.0</ele><time>2026-04-17T13:12:56.522Z</time></trkpt><trkpt lat="46.1509867" lon="12.66324"><ele>302.0</ele><time>2026-04-17T13:12:57.521Z</time></trkpt><trkpt lat="46.15077" lon="12.6634017"><ele>302.0</ele><time>2026-04-17T13:12:58.521Z</time></trkpt><trkpt lat="46.1505433" lon="12.6635633"><ele>301.0</ele><time>2026-04-17T13:12:59.522Z</time></trkpt><trkpt lat="46.15031" lon="12.6637233"><ele>300.0</ele><time>2026-04-17T13:13:00.523Z</time></trkpt><trkpt lat="46.150085" lon="12.6638783"><ele>300.5</ele><time>2026-04-17T13:13:01.521Z</time></trkpt><trkpt lat="46.14986" lon="12.6640333"><ele>301.0</ele><time>2026-04-17T13:13:02.522Z</time></trkpt><trkpt lat="46.149635" lon="12.6641967"><ele>301.0</ele><time>2026-04-17T13:13:03.523Z</time></trkpt><trkpt lat="46.1494117" lon="12.6643617"><ele>301.0</ele><time>2026-04-17T13:13:04.521Z</time></trkpt><trkpt lat="46.14919" lon="12.6645267"><ele>299.5</ele><time>2026-04-17T13:13:05.522Z</time></trkpt><trkpt lat="46.1489733" lon="12.664685"><ele>298.0</ele><time>2026-04-17T13:13:06.521Z</time></trkpt><trkpt lat="46.1487667" lon="12.6648367"><ele>298.0</ele><time>2026-04-17T13:13:07.522Z</time></trkpt><trkpt lat="46.1485683" lon="12.664985"><ele>298.0</ele><time>2026-04-17T13:13:08.524Z</time></trkpt><trkpt lat="46.1483833" lon="12.6651317"><ele>298.0</ele><time>2026-04-17T13:13:09.522Z</time></trkpt><trkpt lat="46.148225" lon="12.6652767"><ele>298.0</ele><time>2026-04-17T13:13:10.521Z</time></trkpt><trkpt lat="46.148085" lon="12.665425"><ele>298.0</ele><time>2026-04-17T13:13:11.522Z</time></trkpt><trkpt lat="46.1479567" lon="12.665585"><ele>298.0</ele><time>2026-04-17T13:13:12.522Z</time></trkpt><trkpt lat="46.147835" lon="12.665755"><ele>298.0</ele><time>2026-04-17T13:13:13.521Z</time></trkpt><trkpt lat="46.1477233" lon="12.6659383"><ele>298.0</ele><time>2026-04-17T13:13:14.521Z</time></trkpt><trkpt lat="46.1476183" lon="12.666135"><ele>298.0</ele><time>2026-04-17T13:13:15.521Z</time></trkpt><trkpt lat="46.1475267" lon="12.666345"><ele>297.66666666666663</ele><time>2026-04-17T13:13:16.521Z</time></trkpt><trkpt lat="46.1474517" lon="12.6665517"><ele>297.3333333333333</ele><time>2026-04-17T13:13:17.521Z</time></trkpt><trkpt lat="46.14739" lon="12.6667517"><ele>297.0</ele><time>2026-04-17T13:13:18.522Z</time></trkpt><trkpt lat="46.14734" lon="12.666955"><ele>296.75</ele><time>2026-04-17T13:13:19.521Z</time></trkpt><trkpt lat="46.1472967" lon="12.6671633"><ele>296.5</ele><time>2026-04-17T13:13:20.521Z</time></trkpt><trkpt lat="46.1472617" lon="12.6673717"><ele>296.25</ele><time>2026-04-17T13:13:21.522Z</time></trkpt><trkpt lat="46.1472317" lon="12.6675733"><ele>296.0</ele><time>2026-04-17T13:13:22.521Z</time></trkpt><trkpt lat="46.147205" lon="12.6677633"><ele>296.0</ele><time>2026-04-17T13:13:23.522Z</time></trkpt><trkpt lat="46.14718" lon="12.6679433"><ele>296.0</ele><time>2026-04-17T13:13:24.521Z</time></trkpt><trkpt lat="46.1471567" lon="12.66811"><ele>296.0</ele><time>2026-04-17T13:13:25.522Z</time></trkpt><trkpt lat="46.1471233" lon="12.6682683"><ele>296.0</ele><time>2026-04-17T13:13:26.522Z</time></trkpt><trkpt lat="46.1470767" lon="12.6684117"><ele>296.0</ele><time>2026-04-17T13:13:27.522Z</time></trkpt><trkpt lat="46.147015" lon="12.6685333"><ele>296.0</ele><time>2026-04-17T13:13:28.521Z</time></trkpt><trkpt lat="46.1469367" lon="12.66863"><ele>296.0</ele><time>2026-04-17T13:13:29.521Z</time></trkpt><trkpt lat="46.14684" lon="12.6687067"><ele>296.0</ele><time>2026-04-17T13:13:30.52Z</time></trkpt><trkpt lat="46.146725" lon="12.6687517"><ele>296.0</ele><time>2026-04-17T13:13:31.522Z</time></trkpt><trkpt lat="46.1466033" lon="12.6687617"><ele>296.0</ele><time>2026-04-17T13:13:32.521Z</time></trkpt><trkpt lat="46.1464833" lon="12.6687283"><ele>296.0</ele><time>2026-04-17T13:13:33.52Z</time></trkpt><trkpt lat="46.14637" lon="12.6686433"><ele>296.0</ele><time>2026-04-17T13:13:34.521Z</time></trkpt><trkpt lat="46.14626" lon="12.66852"><ele>296.0</ele><time>2026-04-17T13:13:35.521Z</time></trkpt><trkpt lat="46.14614" lon="12.6683667"><ele>296.0</ele><time>2026-04-17T13:13:36.52Z</time></trkpt><trkpt lat="46.1459967" lon="12.6681983"><ele>296.0</ele><time>2026-04-17T13:13:37.521Z</time></trkpt><trkpt lat="46.1458333" lon="12.668025"><ele>296.0</ele><time>2026-04-17T13:13:38.521Z</time></trkpt><trkpt lat="46.1456517" lon="12.6678417"><ele>297.0</ele><time>2026-04-17T13:13:39.521Z</time></trkpt><trkpt lat="46.1454633" lon="12.66765"><ele>298.0</ele><time>2026-04-17T13:13:40.521Z</time></trkpt><trkpt lat="46.14527" lon="12.6674567"><ele>298.0</ele><time>2026-04-17T13:13:41.52Z</time></trkpt><trkpt lat="46.1450683" lon="12.66727"><ele>298.0</ele><time>2026-04-17T13:13:42.521Z</time></trkpt><trkpt lat="46.144855" lon="12.6670817"><ele>296.0</ele><time>2026-04-17T13:13:43.52Z</time></trkpt><trkpt lat="46.1446283" lon="12.6668933"><ele>294.0</ele><time>2026-04-17T13:13:44.522Z</time></trkpt><trkpt lat="46.1443933" lon="12.6667033"><ele>294.0</ele><time>2026-04-17T13:13:45.522Z</time></trkpt><trkpt lat="46.1441483" lon="12.6665133"><ele>294.0</ele><time>2026-04-17T13:13:46.521Z</time></trkpt><trkpt lat="46.143895" lon="12.666325"><ele>294.0</ele><time>2026-04-17T13:13:47.521Z</time></trkpt><trkpt lat="46.1436383" lon="12.6661383"><ele>294.0</ele><time>2026-04-17T13:13:48.521Z</time></trkpt><trkpt lat="46.1433767" lon="12.6659483"><ele>293.0</ele><time>2026-04-17T13:13:49.521Z</time></trkpt><trkpt lat="46.14312" lon="12.66576"><ele>292.0</ele><time>2026-04-17T13:13:50.521Z</time></trkpt><trkpt lat="46.1428633" lon="12.6655783"><ele>292.0</ele><time>2026-04-17T13:13:51.521Z</time></trkpt><trkpt lat="46.142605" lon="12.6654067"><ele>292.0</ele><time>2026-04-17T13:13:52.521Z</time></trkpt><trkpt lat="46.1423467" lon="12.66524"><ele>291.0</ele><time>2026-04-17T13:13:53.522Z</time></trkpt><trkpt lat="46.1420833" lon="12.6650833"><ele>290.0</ele><time>2026-04-17T13:13:54.521Z</time></trkpt><trkpt lat="46.14182" lon="12.6649333"><ele>290.0</ele><time>2026-04-17T13:13:55.52Z</time></trkpt><trkpt lat="46.1415633" lon="12.6647933"><ele>290.0</ele><time>2026-04-17T13:13:56.521Z</time></trkpt><trkpt lat="46.1413083" lon="12.6646633"><ele>289.5</ele><time>2026-04-17T13:13:57.52Z</time></trkpt><trkpt lat="46.1410533" lon="12.6645433"><ele>289.0</ele><time>2026-04-17T13:13:58.52Z</time></trkpt><trkpt lat="46.1407967" lon="12.66443"><ele>290.0</ele><time>2026-04-17T13:13:59.52Z</time></trkpt><trkpt lat="46.1405367" lon="12.6643217"><ele>291.0</ele><time>2026-04-17T13:14:00.521Z</time></trkpt><trkpt lat="46.1402717" lon="12.66422"><ele>291.0</ele><time>2026-04-17T13:14:01.52Z</time></trkpt><trkpt lat="46.14" lon="12.664125"><ele>291.0</ele><time>2026-04-17T13:14:02.522Z</time></trkpt><trkpt lat="46.1397233" lon="12.66403"><ele>289.0</ele><time>2026-04-17T13:14:03.52Z</time></trkpt><trkpt lat="46.1394433" lon="12.663935"><ele>287.0</ele><time>2026-04-17T13:14:04.52Z</time></trkpt><trkpt lat="46.1391583" lon="12.6638417"><ele>286.5</ele><time>2026-04-17T13:14:05.521Z</time></trkpt><trkpt lat="46.1388717" lon="12.6637467"><ele>286.0</ele><time>2026-04-17T13:14:06.521Z</time></trkpt><trkpt lat="46.1385867" lon="12.6636467"><ele>286.0</ele><time>2026-04-17T13:14:07.52Z</time></trkpt><trkpt lat="46.138305" lon="12.663545"><ele>286.0</ele><time>2026-04-17T13:14:08.522Z</time></trkpt><trkpt lat="46.1380283" lon="12.66344"><ele>286.0</ele><time>2026-04-17T13:14:09.521Z</time></trkpt><trkpt lat="46.1377517" lon="12.66333"><ele>286.0</ele><time>2026-04-17T13:14:10.52Z</time></trkpt><trkpt lat="46.13747" lon="12.6632117"><ele>285.5</ele><time>2026-04-17T13:14:11.521Z</time></trkpt><trkpt lat="46.1371883" lon="12.6630833"><ele>285.0</ele><time>2026-04-17T13:14:12.521Z</time></trkpt><trkpt lat="46.136905" lon="12.6629533"><ele>285.0</ele><time>2026-04-17T13:14:13.52Z</time></trkpt><trkpt lat="46.1366217" lon="12.6628133"><ele>285.0</ele><time>2026-04-17T13:14:14.521Z</time></trkpt><trkpt lat="46.13634" lon="12.6626683"><ele>284.0</ele><time>2026-04-17T13:14:15.52Z</time></trkpt><trkpt lat="46.1360583" lon="12.6625167"><ele>283.0</ele><time>2026-04-17T13:14:16.52Z</time></trkpt><trkpt lat="46.1357783" lon="12.6623617"><ele>281.0</ele><time>2026-04-17T13:14:17.519Z</time></trkpt><trkpt lat="46.1355033" lon="12.662205"><ele>279.0</ele><time>2026-04-17T13:14:18.52Z</time></trkpt><trkpt lat="46.1352267" lon="12.6620517"><ele>279.5</ele><time>2026-04-17T13:14:19.521Z</time></trkpt><trkpt lat="46.134955" lon="12.6619"><ele>280.0</ele><time>2026-04-17T13:14:20.522Z</time></trkpt><trkpt lat="46.134685" lon="12.6617417"><ele>279.0</ele><time>2026-04-17T13:14:21.521Z</time></trkpt><trkpt lat="46.1344133" lon="12.66158"><ele>278.0</ele><time>2026-04-17T13:14:22.52Z</time></trkpt><trkpt lat="46.13414" lon="12.66141"><ele>278.0</ele><time>2026-04-17T13:14:23.521Z</time></trkpt><trkpt lat="46.1338617" lon="12.6612317"><ele>278.0</ele><time>2026-04-17T13:14:24.52Z</time></trkpt><trkpt lat="46.133585" lon="12.6610433"><ele>278.0</ele><time>2026-04-17T13:14:25.52Z</time></trkpt><trkpt lat="46.13331" lon="12.6608483"><ele>278.0</ele><time>2026-04-17T13:14:26.522Z</time></trkpt><trkpt lat="46.1330417" lon="12.6606567"><ele>277.5</ele><time>2026-04-17T13:14:27.52Z</time></trkpt><trkpt lat="46.1327833" lon="12.660465"><ele>277.0</ele><time>2026-04-17T13:14:28.52Z</time></trkpt><trkpt lat="46.13253" lon="12.660275"><ele>276.5</ele><time>2026-04-17T13:14:29.521Z</time></trkpt><trkpt lat="46.132285" lon="12.6600883"><ele>276.0</ele><time>2026-04-17T13:14:30.521Z</time></trkpt><trkpt lat="46.1320417" lon="12.6599017"><ele>276.0</ele><time>2026-04-17T13:14:31.521Z</time></trkpt><trkpt lat="46.1317967" lon="12.6597117"><ele>276.0</ele><time>2026-04-17T13:14:32.521Z</time></trkpt><trkpt lat="46.1315467" lon="12.6595217"><ele>275.5</ele><time>2026-04-17T13:14:33.52Z</time></trkpt><trkpt lat="46.1312967" lon="12.6593333"><ele>275.0</ele><time>2026-04-17T13:14:34.526Z</time></trkpt><trkpt lat="46.1310433" lon="12.659145"><ele>275.0</ele><time>2026-04-17T13:14:35.52Z</time></trkpt><trkpt lat="46.130785" lon="12.65896"><ele>275.0</ele><time>2026-04-17T13:14:36.52Z</time></trkpt><trkpt lat="46.130525" lon="12.65878"><ele>274.0</ele><time>2026-04-17T13:14:37.52Z</time></trkpt><trkpt lat="46.1302567" lon="12.6586117"><ele>273.0</ele><time>2026-04-17T13:14:38.52Z</time></trkpt><trkpt lat="46.1299817" lon="12.6584633"><ele>271.5</ele><time>2026-04-17T13:14:39.521Z</time></trkpt><trkpt lat="46.129705" lon="12.6583333"><ele>270.0</ele><time>2026-04-17T13:14:40.521Z</time></trkpt><trkpt lat="46.1294183" lon="12.65822"><ele>270.0</ele><time>2026-04-17T13:14:41.52Z</time></trkpt><trkpt lat="46.129125" lon="12.65813"><ele>270.0</ele><time>2026-04-17T13:14:42.52Z</time></trkpt><trkpt lat="46.1288167" lon="12.6580617"><ele>269.0</ele><time>2026-04-17T13:14:43.52Z</time></trkpt><trkpt lat="46.1284967" lon="12.6580133"><ele>268.0</ele><time>2026-04-17T13:14:44.521Z</time></trkpt><trkpt lat="46.1281667" lon="12.6579683"><ele>267.5</ele><time>2026-04-17T13:14:45.52Z</time></trkpt><trkpt lat="46.127835" lon="12.65792"><ele>267.0</ele><time>2026-04-17T13:14:46.52Z</time></trkpt><trkpt lat="46.1275083" lon="12.657865"><ele>266.5</ele><time>2026-04-17T13:14:47.521Z</time></trkpt><trkpt lat="46.1271867" lon="12.6578033"><ele>266.0</ele><time>2026-04-17T13:14:48.521Z</time></trkpt><trkpt lat="46.1268617" lon="12.657745"><ele>265.5</ele><time>2026-04-17T13:14:49.52Z</time></trkpt><trkpt lat="46.1265367" lon="12.6576933"><ele>265.0</ele><time>2026-04-17T13:14:50.522Z</time></trkpt><trkpt lat="46.1262183" lon="12.6576417"><ele>265.0</ele><time>2026-04-17T13:14:51.52Z</time></trkpt><trkpt lat="46.1259083" lon="12.6575833"><ele>265.0</ele><time>2026-04-17T13:14:52.521Z</time></trkpt><trkpt lat="46.125605" lon="12.657525"><ele>264.0</ele><time>2026-04-17T13:14:53.52Z</time></trkpt><trkpt lat="46.1253133" lon="12.6574667"><ele>263.0</ele><time>2026-04-17T13:14:54.52Z</time></trkpt><trkpt lat="46.125035" lon="12.6574067"><ele>262.0</ele><time>2026-04-17T13:14:55.52Z</time></trkpt><trkpt lat="46.1247583" lon="12.6573483"><ele>261.0</ele><time>2026-04-17T13:14:56.521Z</time></trkpt><trkpt lat="46.12448" lon="12.6572883"><ele>261.0</ele><time>2026-04-17T13:14:57.521Z</time></trkpt><trkpt lat="46.1242033" lon="12.65723"><ele>261.0</ele><time>2026-04-17T13:14:58.522Z</time></trkpt><trkpt lat="46.12393" lon="12.65717"><ele>260.0</ele><time>2026-04-17T13:14:59.521Z</time></trkpt><trkpt lat="46.1236583" lon="12.6571083"><ele>259.0</ele><time>2026-04-17T13:15:00.521Z</time></trkpt><trkpt lat="46.12338" lon="12.65705"><ele>258.5</ele><time>2026-04-17T13:15:01.521Z</time></trkpt><trkpt lat="46.1231017" lon="12.6569883"><ele>258.0</ele><time>2026-04-17T13:15:02.522Z</time></trkpt><trkpt lat="46.1228217" lon="12.6569283"><ele>257.0</ele><time>2026-04-17T13:15:03.521Z</time></trkpt><trkpt lat="46.1225533" lon="12.65687"><ele>256.0</ele><time>2026-04-17T13:15:04.521Z</time></trkpt><trkpt lat="46.122295" lon="12.6568117"><ele>256.0</ele><time>2026-04-17T13:15:05.52Z</time></trkpt><trkpt lat="46.1220467" lon="12.6567567"><ele>256.0</ele><time>2026-04-17T13:15:06.522Z</time></trkpt><trkpt lat="46.12181" lon="12.6567017"><ele>256.0</ele><time>2026-04-17T13:15:07.523Z</time></trkpt><trkpt lat="46.121585" lon="12.6566467"><ele>256.0</ele><time>2026-04-17T13:15:08.521Z</time></trkpt><trkpt lat="46.1213633" lon="12.6565933"><ele>255.33333333333331</ele><time>2026-04-17T13:15:09.52Z</time></trkpt><trkpt lat="46.12114" lon="12.656545"><ele>254.66666666666669</ele><time>2026-04-17T13:15:10.52Z</time></trkpt><trkpt lat="46.1209183" lon="12.6565017"><ele>254.0</ele><time>2026-04-17T13:15:11.521Z</time></trkpt><trkpt lat="46.1207" lon="12.6564567"><ele>253.66666666666669</ele><time>2026-04-17T13:15:12.52Z</time></trkpt><trkpt lat="46.1204867" lon="12.65641"><ele>253.33333333333331</ele><time>2026-04-17T13:15:13.521Z</time></trkpt><trkpt lat="46.1202767" lon="12.6563633"><ele>253.0</ele><time>2026-04-17T13:15:14.522Z</time></trkpt><trkpt lat="46.1200683" lon="12.6563117"><ele>252.66666666666666</ele><time>2026-04-17T13:15:15.52Z</time></trkpt><trkpt lat="46.1198567" lon="12.6562617"><ele>252.33333333333331</ele><time>2026-04-17T13:15:16.52Z</time></trkpt><trkpt lat="46.1196483" lon="12.656215"><ele>252.0</ele><time>2026-04-17T13:15:17.52Z</time></trkpt><trkpt lat="46.1194467" lon="12.6561683"><ele>252.0</ele><time>2026-04-17T13:15:18.521Z</time></trkpt><trkpt lat="46.1192467" lon="12.6561233"><ele>252.0</ele><time>2026-04-17T13:15:19.52Z</time></trkpt><trkpt lat="46.1190433" lon="12.6560783"><ele>252.0</ele><time>2026-04-17T13:15:20.521Z</time></trkpt><trkpt lat="46.1188417" lon="12.6560333"><ele>251.66666666666669</ele><time>2026-04-17T13:15:21.521Z</time></trkpt><trkpt lat="46.1186467" lon="12.65599"><ele>251.33333333333334</ele><time>2026-04-17T13:15:22.519Z</time></trkpt><trkpt lat="46.118455" lon="12.6559483"><ele>251.0</ele><time>2026-04-17T13:15:23.52Z</time></trkpt><trkpt lat="46.1182683" lon="12.6559033"><ele>250.66666666666669</ele><time>2026-04-17T13:15:24.52Z</time></trkpt><trkpt lat="46.1180783" lon="12.6558617"><ele>250.33333333333331</ele><time>2026-04-17T13:15:25.52Z</time></trkpt><trkpt lat="46.1178833" lon="12.6558167"><ele>250.0</ele><time>2026-04-17T13:15:26.523Z</time></trkpt><trkpt lat="46.1176833" lon="12.6557683"><ele>250.0</ele><time>2026-04-17T13:15:27.519Z</time></trkpt><trkpt lat="46.1174817" lon="12.655705"><ele>250.0</ele><time>2026-04-17T13:15:28.521Z</time></trkpt><trkpt lat="46.1172783" lon="12.6556333"><ele>250.0</ele><time>2026-04-17T13:15:29.52Z</time></trkpt><trkpt lat="46.1170733" lon="12.6555617"><ele>249.66666666666666</ele><time>2026-04-17T13:15:30.522Z</time></trkpt><trkpt lat="46.1168567" lon="12.6554933"><ele>249.33333333333331</ele><time>2026-04-17T13:15:31.521Z</time></trkpt><trkpt lat="46.1166433" lon="12.655425"><ele>249.0</ele><time>2026-04-17T13:15:32.522Z</time></trkpt><trkpt lat="46.11643" lon="12.6553583"><ele>248.0</ele><time>2026-04-17T13:15:33.521Z</time></trkpt><trkpt lat="46.1162067" lon="12.6552933"><ele>247.0</ele><time>2026-04-17T13:15:34.521Z</time></trkpt><trkpt lat="46.1159633" lon="12.65523"><ele>246.5</ele><time>2026-04-17T13:15:35.52Z</time></trkpt><trkpt lat="46.1156983" lon="12.6551483"><ele>246.0</ele><time>2026-04-17T13:15:36.521Z</time></trkpt><trkpt lat="46.1154217" lon="12.6550567"><ele>246.0</ele><time>2026-04-17T13:15:37.521Z</time></trkpt><trkpt lat="46.115135" lon="12.65495"><ele>246.0</ele><time>2026-04-17T13:15:38.521Z</time></trkpt><trkpt lat="46.11484" lon="12.6548383"><ele>245.0</ele><time>2026-04-17T13:15:39.521Z</time></trkpt><trkpt lat="46.1145317" lon="12.6547283"><ele>244.0</ele><time>2026-04-17T13:15:40.52Z</time></trkpt><trkpt lat="46.1142183" lon="12.6546217"><ele>243.0</ele><time>2026-04-17T13:15:41.52Z</time></trkpt><trkpt lat="46.1139067" lon="12.6545183"><ele>242.0</ele><time>2026-04-17T13:15:42.519Z</time></trkpt><trkpt lat="46.1135983" lon="12.654415"><ele>241.5</ele><time>2026-04-17T13:15:43.52Z</time></trkpt><trkpt lat="46.113295" lon="12.654315"><ele>241.0</ele><time>2026-04-17T13:15:44.521Z</time></trkpt><trkpt lat="46.1130067" lon="12.6542183"><ele>240.0</ele><time>2026-04-17T13:15:45.52Z</time></trkpt><trkpt lat="46.112725" lon="12.6541267"><ele>239.0</ele><time>2026-04-17T13:15:46.519Z</time></trkpt><trkpt lat="46.112445" lon="12.6540333"><ele>238.5</ele><time>2026-04-17T13:15:47.519Z</time></trkpt><trkpt lat="46.1121583" lon="12.65394"><ele>238.0</ele><time>2026-04-17T13:15:48.52Z</time></trkpt><trkpt lat="46.11187" lon="12.6538583"><ele>238.0</ele><time>2026-04-17T13:15:49.52Z</time></trkpt><trkpt lat="46.111575" lon="12.65379"><ele>238.0</ele><time>2026-04-17T13:15:50.521Z</time></trkpt><trkpt lat="46.1112767" lon="12.65374"><ele>237.5</ele><time>2026-04-17T13:15:51.52Z</time></trkpt><trkpt lat="46.1109733" lon="12.653695"><ele>237.0</ele><time>2026-04-17T13:15:52.52Z</time></trkpt><trkpt lat="46.1106667" lon="12.6536567"><ele>237.0</ele><time>2026-04-17T13:15:53.52Z</time></trkpt><trkpt lat="46.110355" lon="12.65362"><ele>237.0</ele><time>2026-04-17T13:15:54.519Z</time></trkpt><trkpt lat="46.1100433" lon="12.6535783"><ele>236.0</ele><time>2026-04-17T13:15:55.52Z</time></trkpt><trkpt lat="46.10973" lon="12.6535367"><ele>235.0</ele><time>2026-04-17T13:15:56.521Z</time></trkpt><trkpt lat="46.109415" lon="12.6534967"><ele>235.0</ele><time>2026-04-17T13:15:57.519Z</time></trkpt><trkpt lat="46.1090983" lon="12.65346"><ele>235.0</ele><time>2026-04-17T13:15:58.52Z</time></trkpt><trkpt lat="46.1087783" lon="12.6534217"><ele>234.5</ele><time>2026-04-17T13:15:59.518Z</time></trkpt><trkpt lat="46.1084567" lon="12.6533833"><ele>234.0</ele><time>2026-04-17T13:16:00.519Z</time></trkpt><trkpt lat="46.1081383" lon="12.6533467"><ele>233.0</ele><time>2026-04-17T13:16:01.519Z</time></trkpt><trkpt lat="46.1078217" lon="12.6533033"><ele>232.0</ele><time>2026-04-17T13:16:02.521Z</time></trkpt><trkpt lat="46.10751" lon="12.6532633"><ele>230.5</ele><time>2026-04-17T13:16:03.52Z</time></trkpt><trkpt lat="46.107195" lon="12.6532217"><ele>229.0</ele><time>2026-04-17T13:16:04.519Z</time></trkpt><trkpt lat="46.1068867" lon="12.6531817"><ele>229.0</ele><time>2026-04-17T13:16:05.52Z</time></trkpt><trkpt lat="46.1065783" lon="12.6531383"><ele>229.0</ele><time>2026-04-17T13:16:06.52Z</time></trkpt><trkpt lat="46.1062683" lon="12.6530967"><ele>229.5</ele><time>2026-04-17T13:16:07.519Z</time></trkpt><trkpt lat="46.1059633" lon="12.6530533"><ele>230.0</ele><time>2026-04-17T13:16:08.521Z</time></trkpt><trkpt lat="46.1056717" lon="12.6530067"><ele>229.0</ele><time>2026-04-17T13:16:09.519Z</time></trkpt><trkpt lat="46.1053767" lon="12.6529817"><ele>228.0</ele><time>2026-04-17T13:16:10.52Z</time></trkpt><trkpt lat="46.1050783" lon="12.6527917"><ele>228.0</ele><time>2026-04-17T13:16:11.52Z</time></trkpt><trkpt lat="46.1048067" lon="12.65269"><ele>228.0</ele><time>2026-04-17T13:16:12.521Z</time></trkpt><trkpt lat="46.1045217" lon="12.6525683"><ele>228.0</ele><time>2026-04-17T13:16:13.52Z</time></trkpt><trkpt lat="46.1042367" lon="12.6524383"><ele>228.0</ele><time>2026-04-17T13:16:14.52Z</time></trkpt><trkpt lat="46.1039517" lon="12.65231"><ele>226.5</ele><time>2026-04-17T13:16:15.52Z</time></trkpt><trkpt lat="46.1036583" lon="12.6521833"><ele>225.0</ele><time>2026-04-17T13:16:16.519Z</time></trkpt><trkpt lat="46.1033683" lon="12.6520633"><ele>224.5</ele><time>2026-04-17T13:16:17.52Z</time></trkpt><trkpt lat="46.103075" lon="12.6519617"><ele>224.0</ele><time>2026-04-17T13:16:18.52Z</time></trkpt><trkpt lat="46.1027717" lon="12.6518867"><ele>224.0</ele><time>2026-04-17T13:16:19.518Z</time></trkpt><trkpt lat="46.1024617" lon="12.6518283"><ele>224.0</ele><time>2026-04-17T13:16:20.521Z</time></trkpt><trkpt lat="46.1021483" lon="12.65178"><ele>224.0</ele><time>2026-04-17T13:16:21.52Z</time></trkpt><trkpt lat="46.1018367" lon="12.6517333"><ele>224.0</ele><time>2026-04-17T13:16:22.52Z</time></trkpt><trkpt lat="46.1015383" lon="12.6516883"><ele>223.0</ele><time>2026-04-17T13:16:23.52Z</time></trkpt><trkpt lat="46.1012533" lon="12.6516417"><ele>222.0</ele><time>2026-04-17T13:16:24.52Z</time></trkpt><trkpt lat="46.1009717" lon="12.6516067"><ele>221.5</ele><time>2026-04-17T13:16:25.52Z</time></trkpt><trkpt lat="46.100685" lon="12.65159"><ele>221.0</ele><time>2026-04-17T13:16:26.521Z</time></trkpt><trkpt lat="46.10039" lon="12.6515883"><ele>221.0</ele><time>2026-04-17T13:16:27.52Z</time></trkpt><trkpt lat="46.1000917" lon="12.6515867"><ele>221.0</ele><time>2026-04-17T13:16:28.52Z</time></trkpt><trkpt lat="46.0997883" lon="12.6515933"><ele>219.5</ele><time>2026-04-17T13:16:29.52Z</time></trkpt><trkpt lat="46.0994767" lon="12.6515967"><ele>218.0</ele><time>2026-04-17T13:16:30.52Z</time></trkpt><trkpt lat="46.0991583" lon="12.6515967"><ele>216.5</ele><time>2026-04-17T13:16:31.52Z</time></trkpt><trkpt lat="46.098835" lon="12.651595"><ele>215.0</ele><time>2026-04-17T13:16:32.519Z</time></trkpt><trkpt lat="46.098505" lon="12.6515983"><ele>215.5</ele><time>2026-04-17T13:16:33.519Z</time></trkpt><trkpt lat="46.0981733" lon="12.6516017"><ele>216.0</ele><time>2026-04-17T13:16:34.52Z</time></trkpt><trkpt lat="46.0978483" lon="12.6516067"><ele>216.0</ele><time>2026-04-17T13:16:35.519Z</time></trkpt><trkpt lat="46.0975383" lon="12.6516067"><ele>216.0</ele><time>2026-04-17T13:16:36.519Z</time></trkpt><trkpt lat="46.0972383" lon="12.651605"><ele>215.0</ele><time>2026-04-17T13:16:37.52Z</time></trkpt><trkpt lat="46.0969417" lon="12.6516"><ele>214.0</ele><time>2026-04-17T13:16:38.52Z</time></trkpt><trkpt lat="46.0966433" lon="12.6516033"><ele>214.0</ele><time>2026-04-17T13:16:39.52Z</time></trkpt><trkpt lat="46.0963517" lon="12.6516033"><ele>214.0</ele><time>2026-04-17T13:16:40.519Z</time></trkpt><trkpt lat="46.0960733" lon="12.6516083"><ele>214.0</ele><time>2026-04-17T13:16:41.52Z</time></trkpt><trkpt lat="46.0957983" lon="12.651625"><ele>214.0</ele><time>2026-04-17T13:16:42.52Z</time></trkpt><trkpt lat="46.095515" lon="12.65167"><ele>213.0</ele><time>2026-04-17T13:16:43.519Z</time></trkpt><trkpt lat="46.0952267" lon="12.6517317"><ele>212.0</ele><time>2026-04-17T13:16:44.52Z</time></trkpt><trkpt lat="46.0949467" lon="12.6517917"><ele>211.5</ele><time>2026-04-17T13:16:45.519Z</time></trkpt><trkpt lat="46.0946783" lon="12.65185"><ele>211.0</ele><time>2026-04-17T13:16:46.519Z</time></trkpt><trkpt lat="46.09442" lon="12.651905"><ele>210.0</ele><time>2026-04-17T13:16:47.52Z</time></trkpt><trkpt lat="46.094175" lon="12.6519717"><ele>209.0</ele><time>2026-04-17T13:16:48.519Z</time></trkpt><trkpt lat="46.0939267" lon="12.6520417"><ele>208.5</ele><time>2026-04-17T13:16:49.52Z</time></trkpt><trkpt lat="46.093685" lon="12.652095"><ele>208.0</ele><time>2026-04-17T13:16:50.52Z</time></trkpt><trkpt lat="46.0934617" lon="12.6521333"><ele>207.66666666666666</ele><time>2026-04-17T13:16:51.519Z</time></trkpt><trkpt lat="46.0932467" lon="12.6521633"><ele>207.33333333333331</ele><time>2026-04-17T13:16:52.52Z</time></trkpt><trkpt lat="46.093035" lon="12.65219"><ele>207.0</ele><time>2026-04-17T13:16:53.52Z</time></trkpt><trkpt lat="46.0928183" lon="12.6522117"><ele>207.0</ele><time>2026-04-17T13:16:54.521Z</time></trkpt><trkpt lat="46.0925883" lon="12.6522317"><ele>207.0</ele><time>2026-04-17T13:16:55.52Z</time></trkpt><trkpt lat="46.09234" lon="12.652245"><ele>207.0</ele><time>2026-04-17T13:16:56.523Z</time></trkpt><trkpt lat="46.09208" lon="12.6522467"><ele>207.0</ele><time>2026-04-17T13:16:57.52Z</time></trkpt><trkpt lat="46.0918067" lon="12.65225"><ele>206.5</ele><time>2026-04-17T13:16:58.52Z</time></trkpt><trkpt lat="46.091515" lon="12.6522633"><ele>206.0</ele><time>2026-04-17T13:16:59.52Z</time></trkpt><trkpt lat="46.0912067" lon="12.65227"><ele>206.0</ele><time>2026-04-17T13:17:00.519Z</time></trkpt><trkpt lat="46.0908883" lon="12.6522667"><ele>206.0</ele><time>2026-04-17T13:17:01.519Z</time></trkpt><trkpt lat="46.090575" lon="12.6522633"><ele>205.5</ele><time>2026-04-17T13:17:02.521Z</time></trkpt><trkpt lat="46.0902783" lon="12.6522717"><ele>205.0</ele><time>2026-04-17T13:17:03.519Z</time></trkpt><trkpt lat="46.0899833" lon="12.65228"><ele>203.5</ele><time>2026-04-17T13:17:04.519Z</time></trkpt><trkpt lat="46.089685" lon="12.65229"><ele>202.0</ele><time>2026-04-17T13:17:05.52Z</time></trkpt><trkpt lat="46.08938" lon="12.6522933"><ele>201.0</ele><time>2026-04-17T13:17:06.519Z</time></trkpt><trkpt lat="46.089075" lon="12.6523017"><ele>200.0</ele><time>2026-04-17T13:17:07.52Z</time></trkpt><trkpt lat="46.0887717" lon="12.6523117"><ele>200.0</ele><time>2026-04-17T13:17:08.52Z</time></trkpt><trkpt lat="46.08847" lon="12.65232"><ele>200.0</ele><time>2026-04-17T13:17:09.519Z</time></trkpt><trkpt lat="46.0881717" lon="12.6523267"><ele>199.0</ele><time>2026-04-17T13:17:10.519Z</time></trkpt><trkpt lat="46.08788" lon="12.6523333"><ele>198.0</ele><time>2026-04-17T13:17:11.519Z</time></trkpt><trkpt lat="46.0876" lon="12.6523383"><ele>198.0</ele><time>2026-04-17T13:17:12.52Z</time></trkpt><trkpt lat="46.0873317" lon="12.6523433"><ele>198.0</ele><time>2026-04-17T13:17:13.52Z</time></trkpt><trkpt lat="46.0870733" lon="12.6523567"><ele>198.0</ele><time>2026-04-17T13:17:14.521Z</time></trkpt><trkpt lat="46.0868183" lon="12.6523683"><ele>198.0</ele><time>2026-04-17T13:17:15.519Z</time></trkpt><trkpt lat="46.08657" lon="12.652375"><ele>198.0</ele><time>2026-04-17T13:17:16.52Z</time></trkpt><trkpt lat="46.0863283" lon="12.6523817"><ele>198.0</ele><time>2026-04-17T13:17:17.519Z</time></trkpt><trkpt lat="46.0861" lon="12.652385"><ele>198.0</ele><time>2026-04-17T13:17:18.518Z</time></trkpt><trkpt lat="46.085875" lon="12.6523917"><ele>198.0</ele><time>2026-04-17T13:17:19.519Z</time></trkpt><trkpt lat="46.0856517" lon="12.652395"><ele>198.0</ele><time>2026-04-17T13:17:20.521Z</time></trkpt><trkpt lat="46.0854317" lon="12.6523983"><ele>197.66666666666669</ele><time>2026-04-17T13:17:21.52Z</time></trkpt><trkpt lat="46.085215" lon="12.6524067"><ele>197.33333333333334</ele><time>2026-04-17T13:17:22.519Z</time></trkpt><trkpt lat="46.085005" lon="12.6524133"><ele>197.0</ele><time>2026-04-17T13:17:23.519Z</time></trkpt><trkpt lat="46.0848017" lon="12.6524217"><ele>196.66666666666669</ele><time>2026-04-17T13:17:24.52Z</time></trkpt><trkpt lat="46.0846083" lon="12.652425"><ele>196.33333333333331</ele><time>2026-04-17T13:17:25.52Z</time></trkpt><trkpt lat="46.0844233" lon="12.6524283"><ele>196.0</ele><time>2026-04-17T13:17:26.521Z</time></trkpt><trkpt lat="46.0842433" lon="12.6524317"><ele>195.33333333333331</ele><time>2026-04-17T13:17:27.52Z</time></trkpt><trkpt lat="46.08407" lon="12.6524383"><ele>194.66666666666669</ele><time>2026-04-17T13:17:28.519Z</time></trkpt><trkpt lat="46.0839067" lon="12.652445"><ele>194.0</ele><time>2026-04-17T13:17:29.52Z</time></trkpt><trkpt lat="46.0837533" lon="12.6524517"><ele>194.0</ele><time>2026-04-17T13:17:30.519Z</time></trkpt><trkpt lat="46.0836217" lon="12.652455"><ele>194.0</ele><time>2026-04-17T13:17:31.52Z</time></trkpt><trkpt lat="46.0835083" lon="12.65246"><ele>194.0</ele><time>2026-04-17T13:17:32.523Z</time></trkpt><trkpt lat="46.0834033" lon="12.65246"><ele>194.0</ele><time>2026-04-17T13:17:33.52Z</time></trkpt><trkpt lat="46.0833083" lon="12.6524517"><ele>194.0</ele><time>2026-04-17T13:17:34.52Z</time></trkpt><trkpt lat="46.0832233" lon="12.6524117"><ele>193.83333333333334</ele><time>2026-04-17T13:17:35.52Z</time></trkpt><trkpt lat="46.0831467" lon="12.6523317"><ele>193.66666666666669</ele><time>2026-04-17T13:17:36.52Z</time></trkpt><trkpt lat="46.08307" lon="12.652235"><ele>193.5</ele><time>2026-04-17T13:17:37.52Z</time></trkpt><trkpt lat="46.0829917" lon="12.6521517"><ele>193.33333333333331</ele><time>2026-04-17T13:17:38.52Z</time></trkpt><trkpt lat="46.0829167" lon="12.6520983"><ele>193.16666666666666</ele><time>2026-04-17T13:17:39.52Z</time></trkpt><trkpt lat="46.0828533" lon="12.6520767"><ele>193.0</ele><time>2026-04-17T13:17:40.518Z</time></trkpt><trkpt lat="46.0827383" lon="12.65208"><ele>193.0</ele><time>2026-04-17T13:17:42.52Z</time></trkpt><trkpt lat="46.0826333" lon="12.6521433"><ele>193.0</ele><time>2026-04-17T13:17:44.521Z</time></trkpt><trkpt lat="46.0825417" lon="12.65225"><ele>193.0</ele><time>2026-04-17T13:17:46.519Z</time></trkpt><trkpt lat="46.082475" lon="12.6524017"><ele>193.0</ele><time>2026-04-17T13:17:48.52Z</time></trkpt><trkpt lat="46.082455" lon="12.652495"><ele>193.0</ele><time>2026-04-17T13:17:49.519Z</time></trkpt><trkpt lat="46.0824483" lon="12.6525883"><ele>192.99999999999997</ele><time>2026-04-17T13:17:50.521Z</time></trkpt><trkpt lat="46.0824517" lon="12.6526867"><ele>193.0</ele><time>2026-04-17T13:17:51.522Z</time></trkpt><trkpt lat="46.0824717" lon="12.6527933"><ele>193.0</ele><time>2026-04-17T13:17:52.52Z</time></trkpt><trkpt lat="46.0824983" lon="12.6528967"><ele>193.0</ele><time>2026-04-17T13:17:53.521Z</time></trkpt><trkpt lat="46.0825233" lon="12.6530017"><ele>192.99999999999997</ele><time>2026-04-17T13:17:54.524Z</time></trkpt><trkpt lat="46.0825383" lon="12.6531183"><ele>193.0</ele><time>2026-04-17T13:17:55.521Z</time></trkpt><trkpt lat="46.0825317" lon="12.6532383"><ele>192.75</ele><time>2026-04-17T13:17:56.521Z</time></trkpt><trkpt lat="46.0825017" lon="12.65336"><ele>192.5</ele><time>2026-04-17T13:17:57.521Z</time></trkpt><trkpt lat="46.08245" lon="12.6535133"><ele>192.25</ele><time>2026-04-17T13:17:58.519Z</time></trkpt><trkpt lat="46.0823783" lon="12.6537"><ele>192.0</ele><time>2026-04-17T13:17:59.521Z</time></trkpt><trkpt lat="46.0822917" lon="12.6539133"><ele>191.66666666666666</ele><time>2026-04-17T13:18:00.52Z</time></trkpt><trkpt lat="46.0821967" lon="12.65414"><ele>191.33333333333331</ele><time>2026-04-17T13:18:01.519Z</time></trkpt><trkpt lat="46.0820967" lon="12.6543733"><ele>191.0</ele><time>2026-04-17T13:18:02.52Z</time></trkpt><trkpt lat="46.0819883" lon="12.6546067"><ele>191.0</ele><time>2026-04-17T13:18:03.52Z</time></trkpt><trkpt lat="46.0818717" lon="12.6548533"><ele>191.0</ele><time>2026-04-17T13:18:04.52Z</time></trkpt><trkpt lat="46.08175" lon="12.6551233"><ele>191.0</ele><time>2026-04-17T13:18:05.52Z</time></trkpt><trkpt lat="46.08163" lon="12.6554033"><ele>190.0</ele><time>2026-04-17T13:18:06.522Z</time></trkpt><trkpt lat="46.0815117" lon="12.6556833"><ele>189.0</ele><time>2026-04-17T13:18:07.521Z</time></trkpt><trkpt lat="46.0813883" lon="12.6559633"><ele>188.5</ele><time>2026-04-17T13:18:08.52Z</time></trkpt><trkpt lat="46.0812567" lon="12.65624"><ele>188.0</ele><time>2026-04-17T13:18:09.52Z</time></trkpt><trkpt lat="46.0811167" lon="12.65651"><ele>188.0</ele><time>2026-04-17T13:18:10.52Z</time></trkpt><trkpt lat="46.08097" lon="12.6567767"><ele>188.0</ele><time>2026-04-17T13:18:11.521Z</time></trkpt><trkpt lat="46.0808183" lon="12.6570317"><ele>188.5</ele><time>2026-04-17T13:18:12.519Z</time></trkpt><trkpt lat="46.0806583" lon="12.6572817"><ele>189.0</ele><time>2026-04-17T13:18:13.52Z</time></trkpt><trkpt lat="46.0804917" lon="12.657525"><ele>189.0</ele><time>2026-04-17T13:18:14.521Z</time></trkpt><trkpt lat="46.08032" lon="12.65776"><ele>189.0</ele><time>2026-04-17T13:18:15.52Z</time></trkpt><trkpt lat="46.0801483" lon="12.6579833"><ele>189.5</ele><time>2026-04-17T13:18:16.521Z</time></trkpt><trkpt lat="46.0799717" lon="12.6581967"><ele>190.0</ele><time>2026-04-17T13:18:17.521Z</time></trkpt><trkpt lat="46.0797917" lon="12.6584"><ele>188.0</ele><time>2026-04-17T13:18:18.521Z</time></trkpt><trkpt lat="46.0796033" lon="12.6585933"><ele>186.0</ele><time>2026-04-17T13:18:19.519Z</time></trkpt><trkpt lat="46.079405" lon="12.6587817"><ele>186.0</ele><time>2026-04-17T13:18:20.521Z</time></trkpt><trkpt lat="46.079205" lon="12.6589633"><ele>186.0</ele><time>2026-04-17T13:18:21.522Z</time></trkpt><trkpt lat="46.0789983" lon="12.6591383"><ele>188.5</ele><time>2026-04-17T13:18:22.519Z</time></trkpt><trkpt lat="46.0787917" lon="12.6593017"><ele>191.0</ele><time>2026-04-17T13:18:23.521Z</time></trkpt><trkpt lat="46.07858" lon="12.6594483"><ele>190.5</ele><time>2026-04-17T13:18:24.521Z</time></trkpt><trkpt lat="46.0783683" lon="12.6595833"><ele>190.0</ele><time>2026-04-17T13:18:25.521Z</time></trkpt><trkpt lat="46.0781567" lon="12.6597083"><ele>188.0</ele><time>2026-04-17T13:18:26.522Z</time></trkpt><trkpt lat="46.077945" lon="12.65982"><ele>186.0</ele><time>2026-04-17T13:18:27.52Z</time></trkpt><trkpt lat="46.0777317" lon="12.65992"><ele>186.0</ele><time>2026-04-17T13:18:28.52Z</time></trkpt><trkpt lat="46.0775133" lon="12.66001"><ele>186.0</ele><time>2026-04-17T13:18:29.52Z</time></trkpt><trkpt lat="46.0772917" lon="12.660085"><ele>186.0</ele><time>2026-04-17T13:18:30.522Z</time></trkpt><trkpt lat="46.077065" lon="12.6601517"><ele>186.0</ele><time>2026-04-17T13:18:31.52Z</time></trkpt><trkpt lat="46.076835" lon="12.6602117"><ele>185.0</ele><time>2026-04-17T13:18:32.522Z</time></trkpt><trkpt lat="46.0765983" lon="12.66026"><ele>184.0</ele><time>2026-04-17T13:18:33.52Z</time></trkpt><trkpt lat="46.0763583" lon="12.6602933"><ele>184.0</ele><time>2026-04-17T13:18:34.52Z</time></trkpt><trkpt lat="46.0761133" lon="12.6603183"><ele>184.0</ele><time>2026-04-17T13:18:35.521Z</time></trkpt><trkpt lat="46.0758683" lon="12.6603333"><ele>182.5</ele><time>2026-04-17T13:18:36.521Z</time></trkpt><trkpt lat="46.0756233" lon="12.6603333"><ele>181.0</ele><time>2026-04-17T13:18:37.52Z</time></trkpt><trkpt lat="46.0753783" lon="12.6603217"><ele>181.0</ele><time>2026-04-17T13:18:38.521Z</time></trkpt><trkpt lat="46.0751333" lon="12.660295"><ele>181.0</ele><time>2026-04-17T13:18:39.52Z</time></trkpt><trkpt lat="46.0748883" lon="12.6602583"><ele>180.0</ele><time>2026-04-17T13:18:40.519Z</time></trkpt><trkpt lat="46.074645" lon="12.6602117"><ele>179.0</ele><time>2026-04-17T13:18:41.52Z</time></trkpt><trkpt lat="46.0744" lon="12.660155"><ele>179.0</ele><time>2026-04-17T13:18:42.52Z</time></trkpt><trkpt lat="46.07415" lon="12.6600833"><ele>179.0</ele><time>2026-04-17T13:18:43.52Z</time></trkpt><trkpt lat="46.0738983" lon="12.6600067"><ele>178.0</ele><time>2026-04-17T13:18:44.521Z</time></trkpt><trkpt lat="46.0736467" lon="12.6599233"><ele>177.0</ele><time>2026-04-17T13:18:45.52Z</time></trkpt><trkpt lat="46.0733933" lon="12.6598317"><ele>177.5</ele><time>2026-04-17T13:18:46.52Z</time></trkpt><trkpt lat="46.07314" lon="12.6597367"><ele>178.0</ele><time>2026-04-17T13:18:47.52Z</time></trkpt><trkpt lat="46.072885" lon="12.6596367"><ele>178.0</ele><time>2026-04-17T13:18:48.52Z</time></trkpt><trkpt lat="46.0726267" lon="12.6595333"><ele>178.0</ele><time>2026-04-17T13:18:49.52Z</time></trkpt><trkpt lat="46.0723667" lon="12.6594267"><ele>176.5</ele><time>2026-04-17T13:18:50.521Z</time></trkpt><trkpt lat="46.0721033" lon="12.6593233"><ele>175.0</ele><time>2026-04-17T13:18:51.52Z</time></trkpt><trkpt lat="46.071835" lon="12.65922"><ele>174.5</ele><time>2026-04-17T13:18:52.52Z</time></trkpt><trkpt lat="46.0715617" lon="12.6591167"><ele>174.0</ele><time>2026-04-17T13:18:53.52Z</time></trkpt><trkpt lat="46.0712867" lon="12.6590133"><ele>174.0</ele><time>2026-04-17T13:18:54.519Z</time></trkpt><trkpt lat="46.0710133" lon="12.6589083"><ele>174.0</ele><time>2026-04-17T13:18:55.52Z</time></trkpt><trkpt lat="46.0707333" lon="12.658805"><ele>173.0</ele><time>2026-04-17T13:18:56.52Z</time></trkpt><trkpt lat="46.0704583" lon="12.6587017"><ele>172.0</ele><time>2026-04-17T13:18:57.52Z</time></trkpt><trkpt lat="46.0701833" lon="12.6586"><ele>171.5</ele><time>2026-04-17T13:18:58.52Z</time></trkpt><trkpt lat="46.0699117" lon="12.6584933"><ele>171.0</ele><time>2026-04-17T13:18:59.52Z</time></trkpt><trkpt lat="46.06964" lon="12.6583833"><ele>171.0</ele><time>2026-04-17T13:19:00.519Z</time></trkpt><trkpt lat="46.069365" lon="12.6582733"><ele>171.0</ele><time>2026-04-17T13:19:01.52Z</time></trkpt><trkpt lat="46.0690883" lon="12.65816"><ele>170.0</ele><time>2026-04-17T13:19:02.519Z</time></trkpt><trkpt lat="46.0688067" lon="12.6580483"><ele>169.0</ele><time>2026-04-17T13:19:03.519Z</time></trkpt><trkpt lat="46.0685217" lon="12.6579367"><ele>168.5</ele><time>2026-04-17T13:19:04.519Z</time></trkpt><trkpt lat="46.068235" lon="12.657825"><ele>168.0</ele><time>2026-04-17T13:19:05.52Z</time></trkpt><trkpt lat="46.0679517" lon="12.657715"><ele>167.5</ele><time>2026-04-17T13:19:06.518Z</time></trkpt><trkpt lat="46.0676767" lon="12.6576083"><ele>167.0</ele><time>2026-04-17T13:19:07.519Z</time></trkpt><trkpt lat="46.0674067" lon="12.6575"><ele>165.5</ele><time>2026-04-17T13:19:08.521Z</time></trkpt><trkpt lat="46.06714" lon="12.6573917"><ele>164.0</ele><time>2026-04-17T13:19:09.52Z</time></trkpt><trkpt lat="46.066875" lon="12.657285"><ele>163.5</ele><time>2026-04-17T13:19:10.519Z</time></trkpt><trkpt lat="46.0666083" lon="12.65718"><ele>163.0</ele><time>2026-04-17T13:19:11.519Z</time></trkpt><trkpt lat="46.0663383" lon="12.6570783"><ele>163.0</ele><time>2026-04-17T13:19:12.519Z</time></trkpt><trkpt lat="46.0660717" lon="12.656975"><ele>163.0</ele><time>2026-04-17T13:19:13.519Z</time></trkpt><trkpt lat="46.0658067" lon="12.6568733"><ele>163.0</ele><time>2026-04-17T13:19:14.521Z</time></trkpt><trkpt lat="46.06554" lon="12.6567733"><ele>163.0</ele><time>2026-04-17T13:19:15.52Z</time></trkpt><trkpt lat="46.06527" lon="12.656665"><ele>163.0</ele><time>2026-04-17T13:19:16.519Z</time></trkpt><trkpt lat="46.0649967" lon="12.6565567"><ele>163.0</ele><time>2026-04-17T13:19:17.519Z</time></trkpt><trkpt lat="46.0647233" lon="12.65645"><ele>162.5</ele><time>2026-04-17T13:19:18.52Z</time></trkpt><trkpt lat="46.0644517" lon="12.6563417"><ele>162.0</ele><time>2026-04-17T13:19:19.52Z</time></trkpt><trkpt lat="46.06418" lon="12.6562333"><ele>161.0</ele><time>2026-04-17T13:19:20.521Z</time></trkpt><trkpt lat="46.0639117" lon="12.656125"><ele>160.0</ele><time>2026-04-17T13:19:21.52Z</time></trkpt><trkpt lat="46.0636517" lon="12.6560183"><ele>159.5</ele><time>2026-04-17T13:19:22.52Z</time></trkpt><trkpt lat="46.0633917" lon="12.6559117"><ele>159.0</ele><time>2026-04-17T13:19:23.52Z</time></trkpt><trkpt lat="46.0631333" lon="12.6558017"><ele>159.0</ele><time>2026-04-17T13:19:24.52Z</time></trkpt><trkpt lat="46.0628767" lon="12.6556933"><ele>159.0</ele><time>2026-04-17T13:19:25.52Z</time></trkpt><trkpt lat="46.062625" lon="12.6555867"><ele>157.5</ele><time>2026-04-17T13:19:26.521Z</time></trkpt><trkpt lat="46.0623783" lon="12.6554883"><ele>156.0</ele><time>2026-04-17T13:19:27.52Z</time></trkpt><trkpt lat="46.0621333" lon="12.6553933"><ele>156.0</ele><time>2026-04-17T13:19:28.52Z</time></trkpt><trkpt lat="46.0618867" lon="12.6553083"><ele>156.0</ele><time>2026-04-17T13:19:29.518Z</time></trkpt><trkpt lat="46.0616367" lon="12.65523"><ele>156.0</ele><time>2026-04-17T13:19:30.52Z</time></trkpt><trkpt lat="46.0613867" lon="12.655165"><ele>156.0</ele><time>2026-04-17T13:19:31.519Z</time></trkpt><trkpt lat="46.06114" lon="12.655115"><ele>156.0</ele><time>2026-04-17T13:19:32.521Z</time></trkpt><trkpt lat="46.0608883" lon="12.6550717"><ele>156.0</ele><time>2026-04-17T13:19:33.52Z</time></trkpt><trkpt lat="46.060635" lon="12.655045"><ele>156.0</ele><time>2026-04-17T13:19:34.52Z</time></trkpt><trkpt lat="46.060375" lon="12.6550383"><ele>156.0</ele><time>2026-04-17T13:19:35.521Z</time></trkpt><trkpt lat="46.060115" lon="12.6550483"><ele>155.5</ele><time>2026-04-17T13:19:36.52Z</time></trkpt><trkpt lat="46.0598533" lon="12.65508"><ele>155.0</ele><time>2026-04-17T13:19:37.52Z</time></trkpt><trkpt lat="46.0595817" lon="12.6551317"><ele>155.0</ele><time>2026-04-17T13:19:38.521Z</time></trkpt><trkpt lat="46.059305" lon="12.65519"><ele>155.0</ele><time>2026-04-17T13:19:39.52Z</time></trkpt><trkpt lat="46.0590233" lon="12.6552483"><ele>154.0</ele><time>2026-04-17T13:19:40.521Z</time></trkpt><trkpt lat="46.05874" lon="12.6553067"><ele>153.0</ele><time>2026-04-17T13:19:41.52Z</time></trkpt><trkpt lat="46.0584583" lon="12.655365"><ele>152.0</ele><time>2026-04-17T13:19:42.523Z</time></trkpt><trkpt lat="46.058175" lon="12.6554217"><ele>151.0</ele><time>2026-04-17T13:19:43.521Z</time></trkpt><trkpt lat="46.0578933" lon="12.655475"><ele>151.0</ele><time>2026-04-17T13:19:44.52Z</time></trkpt><trkpt lat="46.0576167" lon="12.6555283"><ele>151.0</ele><time>2026-04-17T13:19:45.52Z</time></trkpt><trkpt lat="46.0573517" lon="12.6555783"><ele>150.5</ele><time>2026-04-17T13:19:46.52Z</time></trkpt><trkpt lat="46.0571017" lon="12.6556233"><ele>150.0</ele><time>2026-04-17T13:19:47.52Z</time></trkpt><trkpt lat="46.0568683" lon="12.6556667"><ele>150.0</ele><time>2026-04-17T13:19:48.521Z</time></trkpt><trkpt lat="46.0566483" lon="12.65571"><ele>150.0</ele><time>2026-04-17T13:19:49.52Z</time></trkpt><trkpt lat="46.0564383" lon="12.65575"><ele>150.0</ele><time>2026-04-17T13:19:50.521Z</time></trkpt><trkpt lat="46.0562417" lon="12.6557883"><ele>149.66666666666666</ele><time>2026-04-17T13:19:51.519Z</time></trkpt><trkpt lat="46.0560533" lon="12.6558283"><ele>149.33333333333331</ele><time>2026-04-17T13:19:52.52Z</time></trkpt><trkpt lat="46.0558683" lon="12.655875"><ele>149.0</ele><time>2026-04-17T13:19:53.52Z</time></trkpt><trkpt lat="46.055685" lon="12.65593"><ele>149.0</ele><time>2026-04-17T13:19:54.52Z</time></trkpt><trkpt lat="46.055505" lon="12.656"><ele>149.0</ele><time>2026-04-17T13:19:55.519Z</time></trkpt><trkpt lat="46.05533" lon="12.6560767"><ele>149.0</ele><time>2026-04-17T13:19:56.521Z</time></trkpt><trkpt lat="46.0551667" lon="12.656155"><ele>148.66666666666666</ele><time>2026-04-17T13:19:57.521Z</time></trkpt><trkpt lat="46.0550133" lon="12.6562367"><ele>148.33333333333334</ele><time>2026-04-17T13:19:58.52Z</time></trkpt><trkpt lat="46.054865" lon="12.656315"><ele>148.0</ele><time>2026-04-17T13:19:59.52Z</time></trkpt><trkpt lat="46.0547283" lon="12.65639"><ele>148.0</ele><time>2026-04-17T13:20:00.521Z</time></trkpt><trkpt lat="46.0546" lon="12.6564617"><ele>148.0</ele><time>2026-04-17T13:20:01.52Z</time></trkpt><trkpt lat="46.0544783" lon="12.65653"><ele>148.0</ele><time>2026-04-17T13:20:02.519Z</time></trkpt><trkpt lat="46.054375" lon="12.6565817"><ele>148.0</ele><time>2026-04-17T13:20:03.522Z</time></trkpt><trkpt lat="46.054305" lon="12.6566133"><ele>148.0</ele><time>2026-04-17T13:20:04.52Z</time></trkpt><trkpt lat="46.0542283" lon="12.6566367"><ele>148.0</ele><time>2026-04-17T13:20:06.523Z</time></trkpt><trkpt lat="46.05414" lon="12.6566167"><ele>148.0</ele><time>2026-04-17T13:20:12.52Z</time></trkpt><trkpt lat="46.0540717" lon="12.656585"><ele>148.0</ele><time>2026-04-17T13:20:13.52Z</time></trkpt><trkpt lat="46.0539783" lon="12.6565433"><ele>148.0</ele><time>2026-04-17T13:20:14.52Z</time></trkpt><trkpt lat="46.0538833" lon="12.65654"><ele>148.0</ele><time>2026-04-17T13:20:15.52Z</time></trkpt><trkpt lat="46.0537867" lon="12.656595"><ele>148.0</ele><time>2026-04-17T13:20:16.52Z</time></trkpt><trkpt lat="46.0536917" lon="12.656705"><ele>148.0</ele><time>2026-04-17T13:20:17.521Z</time></trkpt><trkpt lat="46.0535917" lon="12.6568317"><ele>148.0</ele><time>2026-04-17T13:20:18.52Z</time></trkpt><trkpt lat="46.053475" lon="12.6569483"><ele>148.0</ele><time>2026-04-17T13:20:19.521Z</time></trkpt><trkpt lat="46.0533283" lon="12.6570383"><ele>147.33333333333334</ele><time>2026-04-17T13:20:20.521Z</time></trkpt><trkpt lat="46.0531583" lon="12.65711"><ele>146.66666666666666</ele><time>2026-04-17T13:20:21.52Z</time></trkpt><trkpt lat="46.0529783" lon="12.6571633"><ele>146.0</ele><time>2026-04-17T13:20:22.518Z</time></trkpt><trkpt lat="46.0527917" lon="12.6572117"><ele>146.0</ele><time>2026-04-17T13:20:23.52Z</time></trkpt><trkpt lat="46.0526017" lon="12.65726"><ele>146.0</ele><time>2026-04-17T13:20:24.52Z</time></trkpt><trkpt lat="46.05241" lon="12.6573117"><ele>146.0</ele><time>2026-04-17T13:20:25.519Z</time></trkpt><trkpt lat="46.0522117" lon="12.6573633"><ele>145.0</ele><time>2026-04-17T13:20:26.52Z</time></trkpt><trkpt lat="46.0520067" lon="12.657415"><ele>144.0</ele><time>2026-04-17T13:20:27.521Z</time></trkpt><trkpt lat="46.0517983" lon="12.65747"><ele>143.0</ele><time>2026-04-17T13:20:28.52Z</time></trkpt><trkpt lat="46.0515833" lon="12.657525"><ele>143.0</ele><time>2026-04-17T13:20:29.52Z</time></trkpt><trkpt lat="46.0513667" lon="12.6575817"><ele>143.0</ele><time>2026-04-17T13:20:30.521Z</time></trkpt><trkpt lat="46.05115" lon="12.6576383"><ele>143.0</ele><time>2026-04-17T13:20:31.521Z</time></trkpt><trkpt lat="46.0509333" lon="12.6576917"><ele>142.66666666666666</ele><time>2026-04-17T13:20:32.52Z</time></trkpt><trkpt lat="46.0507183" lon="12.6577417"><ele>142.33333333333334</ele><time>2026-04-17T13:20:33.521Z</time></trkpt><trkpt lat="46.0505033" lon="12.6577867"><ele>142.0</ele><time>2026-04-17T13:20:34.52Z</time></trkpt><trkpt lat="46.05029" lon="12.65782"><ele>142.0</ele><time>2026-04-17T13:20:35.521Z</time></trkpt><trkpt lat="46.0500767" lon="12.6578467"><ele>142.0</ele><time>2026-04-17T13:20:36.52Z</time></trkpt><trkpt lat="46.0498617" lon="12.6578683"><ele>142.0</ele><time>2026-04-17T13:20:37.521Z</time></trkpt><trkpt lat="46.049645" lon="12.6578833"><ele>141.66666666666669</ele><time>2026-04-17T13:20:38.522Z</time></trkpt><trkpt lat="46.0494267" lon="12.6579"><ele>141.33333333333334</ele><time>2026-04-17T13:20:39.521Z</time></trkpt><trkpt lat="46.0492067" lon="12.6579133"><ele>141.0</ele><time>2026-04-17T13:20:40.521Z</time></trkpt><trkpt lat="46.048985" lon="12.6579267"><ele>140.66666666666666</ele><time>2026-04-17T13:20:41.521Z</time></trkpt><trkpt lat="46.0487617" lon="12.6579367"><ele>140.33333333333331</ele><time>2026-04-17T13:20:42.521Z</time></trkpt><trkpt lat="46.0485367" lon="12.6579467"><ele>140.0</ele><time>2026-04-17T13:20:43.52Z</time></trkpt><trkpt lat="46.0483117" lon="12.6579583"><ele>140.0</ele><time>2026-04-17T13:20:44.521Z</time></trkpt><trkpt lat="46.0480883" lon="12.6579667"><ele>140.0</ele><time>2026-04-17T13:20:45.52Z</time></trkpt><trkpt lat="46.0478633" lon="12.6579767"><ele>140.0</ele><time>2026-04-17T13:20:46.52Z</time></trkpt><trkpt lat="46.0476367" lon="12.6579917"><ele>138.5</ele><time>2026-04-17T13:20:47.521Z</time></trkpt><trkpt lat="46.0474067" lon="12.6580067"><ele>137.0</ele><time>2026-04-17T13:20:48.521Z</time></trkpt><trkpt lat="46.0471767" lon="12.6580167"><ele>137.0</ele><time>2026-04-17T13:20:49.52Z</time></trkpt><trkpt lat="46.0469433" lon="12.6580183"><ele>137.0</ele><time>2026-04-17T13:20:50.52Z</time></trkpt><trkpt lat="46.04671" lon="12.6579917"><ele>136.0</ele><time>2026-04-17T13:20:51.52Z</time></trkpt><trkpt lat="46.0464717" lon="12.6579367"><ele>135.0</ele><time>2026-04-17T13:20:52.52Z</time></trkpt><trkpt lat="46.0462333" lon="12.6578667"><ele>135.0</ele><time>2026-04-17T13:20:53.52Z</time></trkpt><trkpt lat="46.0459983" lon="12.6577917"><ele>135.0</ele><time>2026-04-17T13:20:54.522Z</time></trkpt><trkpt lat="46.0457667" lon="12.657715"><ele>134.0</ele><time>2026-04-17T13:20:55.521Z</time></trkpt><trkpt lat="46.045535" lon="12.6576383"><ele>133.0</ele><time>2026-04-17T13:20:56.521Z</time></trkpt><trkpt lat="46.0453" lon="12.65756"><ele>133.0</ele><time>2026-04-17T13:20:57.519Z</time></trkpt><trkpt lat="46.045065" lon="12.6574833"><ele>133.0</ele><time>2026-04-17T13:20:58.52Z</time></trkpt><trkpt lat="46.044835" lon="12.65741"><ele>133.66666666666669</ele><time>2026-04-17T13:20:59.521Z</time></trkpt><trkpt lat="46.0446183" lon="12.6573383"><ele>134.33333333333334</ele><time>2026-04-17T13:21:00.52Z</time></trkpt><trkpt lat="46.0444083" lon="12.65727"><ele>135.0</ele><time>2026-04-17T13:21:01.519Z</time></trkpt><trkpt lat="46.0442083" lon="12.6572033"><ele>135.33333333333334</ele><time>2026-04-17T13:21:02.52Z</time></trkpt><trkpt lat="46.0440117" lon="12.65714"><ele>135.66666666666669</ele><time>2026-04-17T13:21:03.521Z</time></trkpt><trkpt lat="46.0438167" lon="12.657075"><ele>136.0</ele><time>2026-04-17T13:21:04.52Z</time></trkpt><trkpt lat="46.043625" lon="12.6570133"><ele>135.66666666666669</ele><time>2026-04-17T13:21:05.519Z</time></trkpt><trkpt lat="46.0434333" lon="12.65695"><ele>135.33333333333334</ele><time>2026-04-17T13:21:06.52Z</time></trkpt><trkpt lat="46.04325" lon="12.656885"><ele>135.0</ele><time>2026-04-17T13:21:07.519Z</time></trkpt><trkpt lat="46.04308" lon="12.656815"><ele>134.5</ele><time>2026-04-17T13:21:08.52Z</time></trkpt><trkpt lat="46.04293" lon="12.6567417"><ele>134.0</ele><time>2026-04-17T13:21:09.52Z</time></trkpt><trkpt lat="46.0428017" lon="12.6566667"><ele>133.5</ele><time>2026-04-17T13:21:10.52Z</time></trkpt><trkpt lat="46.0426883" lon="12.6565933"><ele>133.0</ele><time>2026-04-17T13:21:11.519Z</time></trkpt><trkpt lat="46.04259" lon="12.6565283"><ele>133.0</ele><time>2026-04-17T13:21:12.519Z</time></trkpt><trkpt lat="46.0425117" lon="12.6564717"><ele>133.0</ele><time>2026-04-17T13:21:13.519Z</time></trkpt><trkpt lat="46.04245" lon="12.656425"><ele>133.0</ele><time>2026-04-17T13:21:14.519Z</time></trkpt><trkpt lat="46.0423733" lon="12.6563633"><ele>133.0</ele><time>2026-04-17T13:21:16.519Z</time></trkpt><trkpt lat="46.04231" lon="12.6563033"><ele>133.0</ele><time>2026-04-17T13:21:19.52Z</time></trkpt><trkpt lat="46.0422517" lon="12.6562333"><ele>133.0</ele><time>2026-04-17T13:21:21.52Z</time></trkpt><trkpt lat="46.04216" lon="12.6561067"><ele>132.66666666666669</ele><time>2026-04-17T13:21:23.52Z</time></trkpt><trkpt lat="46.0421033" lon="12.65604"><ele>132.33333333333334</ele><time>2026-04-17T13:21:24.52Z</time></trkpt><trkpt lat="46.0420367" lon="12.6559917"><ele>132.0</ele><time>2026-04-17T13:21:25.52Z</time></trkpt><trkpt lat="46.0419667" lon="12.65591"><ele>131.66666666666666</ele><time>2026-04-17T13:21:26.522Z</time></trkpt><trkpt lat="46.04186" lon="12.6559067"><ele>131.33333333333331</ele><time>2026-04-17T13:21:27.521Z</time></trkpt><trkpt lat="46.04179" lon="12.6559467"><ele>131.0</ele><time>2026-04-17T13:21:28.519Z</time></trkpt><trkpt lat="46.0416467" lon="12.6559767"><ele>130.83333333333331</ele><time>2026-04-17T13:21:30.521Z</time></trkpt><trkpt lat="46.04159" lon="12.6560717"><ele>130.66666666666666</ele><time>2026-04-17T13:21:31.521Z</time></trkpt><trkpt lat="46.0415317" lon="12.6561817"><ele>130.5</ele><time>2026-04-17T13:21:33.518Z</time></trkpt><trkpt lat="46.041475" lon="12.6562567"><ele>130.33333333333334</ele><time>2026-04-17T13:21:34.521Z</time></trkpt><trkpt lat="46.0414267" lon="12.65636"><ele>130.16666666666669</ele><time>2026-04-17T13:21:36.52Z</time></trkpt><trkpt lat="46.0413583" lon="12.656365"><ele>130.0</ele><time>2026-04-17T13:21:37.52Z</time></trkpt><trkpt lat="46.0412633" lon="12.6563733"><ele>130.0</ele><time>2026-04-17T13:21:38.521Z</time></trkpt><trkpt lat="46.0411767" lon="12.65639"><ele>130.0</ele><time>2026-04-17T13:21:39.52Z</time></trkpt><trkpt lat="46.0411" lon="12.656345"><ele>130.0</ele><time>2026-04-17T13:21:40.52Z</time></trkpt><trkpt lat="46.041005" lon="12.656285"><ele>130.0</ele><time>2026-04-17T13:21:41.52Z</time></trkpt><trkpt lat="46.0408983" lon="12.65622"><ele>130.0</ele><time>2026-04-17T13:21:42.52Z</time></trkpt><trkpt lat="46.0407817" lon="12.6561567"><ele>130.25</ele><time>2026-04-17T13:21:43.52Z</time></trkpt><trkpt lat="46.0406533" lon="12.656095"><ele>130.5</ele><time>2026-04-17T13:21:44.52Z</time></trkpt><trkpt lat="46.0405267" lon="12.6560417"><ele>130.75</ele><time>2026-04-17T13:21:45.52Z</time></trkpt><trkpt lat="46.0404033" lon="12.655995"><ele>131.0</ele><time>2026-04-17T13:21:46.521Z</time></trkpt><trkpt lat="46.040285" lon="12.655955"><ele>131.0</ele><time>2026-04-17T13:21:47.52Z</time></trkpt><trkpt lat="46.040165" lon="12.655915"><ele>131.0</ele><time>2026-04-17T13:21:48.52Z</time></trkpt><trkpt lat="46.0400483" lon="12.655875"><ele>131.0</ele><time>2026-04-17T13:21:49.52Z</time></trkpt><trkpt lat="46.039935" lon="12.6558383"><ele>131.0</ele><time>2026-04-17T13:21:50.521Z</time></trkpt><trkpt lat="46.0398133" lon="12.6557967"><ele>130.33333333333331</ele><time>2026-04-17T13:21:51.52Z</time></trkpt><trkpt lat="46.0396733" lon="12.6557617"><ele>129.66666666666666</ele><time>2026-04-17T13:21:52.52Z</time></trkpt><trkpt lat="46.0395183" lon="12.6557217"><ele>129.0</ele><time>2026-04-17T13:21:53.52Z</time></trkpt><trkpt lat="46.0393433" lon="12.6556733"><ele>129.0</ele><time>2026-04-17T13:21:54.522Z</time></trkpt><trkpt lat="46.0391633" lon="12.65562"><ele>129.0</ele><time>2026-04-17T13:21:55.521Z</time></trkpt><trkpt lat="46.0389817" lon="12.6555583"><ele>129.0</ele><time>2026-04-17T13:21:56.52Z</time></trkpt><trkpt lat="46.0388017" lon="12.6554933"><ele>128.66666666666666</ele><time>2026-04-17T13:21:57.521Z</time></trkpt><trkpt lat="46.0386233" lon="12.6554333"><ele>128.33333333333331</ele><time>2026-04-17T13:21:58.52Z</time></trkpt><trkpt lat="46.0384467" lon="12.6553767"><ele>128.0</ele><time>2026-04-17T13:21:59.521Z</time></trkpt><trkpt lat="46.0382667" lon="12.655315"><ele>127.66666666666666</ele><time>2026-04-17T13:22:00.519Z</time></trkpt><trkpt lat="46.038075" lon="12.65525"><ele>127.33333333333334</ele><time>2026-04-17T13:22:01.52Z</time></trkpt><trkpt lat="46.0378667" lon="12.6551817"><ele>127.0</ele><time>2026-04-17T13:22:02.519Z</time></trkpt><trkpt lat="46.0376467" lon="12.6551117"><ele>127.0</ele><time>2026-04-17T13:22:03.52Z</time></trkpt><trkpt lat="46.0374217" lon="12.655035"><ele>127.0</ele><time>2026-04-17T13:22:04.52Z</time></trkpt><trkpt lat="46.03718" lon="12.6549583"><ele>127.0</ele><time>2026-04-17T13:22:05.52Z</time></trkpt><trkpt lat="46.03691" lon="12.6548717"><ele>127.0</ele><time>2026-04-17T13:22:06.52Z</time></trkpt><trkpt lat="46.0366133" lon="12.6547733"><ele>126.5</ele><time>2026-04-17T13:22:07.52Z</time></trkpt><trkpt lat="46.03629" lon="12.6546433"><ele>126.0</ele><time>2026-04-17T13:22:08.521Z</time></trkpt><trkpt lat="46.0359717" lon="12.6544983"><ele>125.5</ele><time>2026-04-17T13:22:09.521Z</time></trkpt><trkpt lat="46.035675" lon="12.6543633"><ele>125.0</ele><time>2026-04-17T13:22:10.52Z</time></trkpt><trkpt lat="46.0354067" lon="12.6542467"><ele>125.0</ele><time>2026-04-17T13:22:11.521Z</time></trkpt><trkpt lat="46.035155" lon="12.6541417"><ele>125.0</ele><time>2026-04-17T13:22:12.52Z</time></trkpt><trkpt lat="46.0349133" lon="12.6540417"><ele>124.0</ele><time>2026-04-17T13:22:13.52Z</time></trkpt><trkpt lat="46.0346817" lon="12.653945"><ele>123.0</ele><time>2026-04-17T13:22:14.52Z</time></trkpt><trkpt lat="46.03446" lon="12.65385"><ele>123.0</ele><time>2026-04-17T13:22:15.52Z</time></trkpt><trkpt lat="46.0342433" lon="12.6537567"><ele>123.0</ele><time>2026-04-17T13:22:16.519Z</time></trkpt><trkpt lat="46.0340183" lon="12.653665"><ele>122.0</ele><time>2026-04-17T13:22:17.519Z</time></trkpt><trkpt lat="46.0337867" lon="12.6535767"><ele>121.0</ele><time>2026-04-17T13:22:18.52Z</time></trkpt><trkpt lat="46.0335483" lon="12.6534817"><ele>121.0</ele><time>2026-04-17T13:22:19.52Z</time></trkpt><trkpt lat="46.033305" lon="12.653385"><ele>121.0</ele><time>2026-04-17T13:22:20.521Z</time></trkpt><trkpt lat="46.0330567" lon="12.6532833"><ele>121.0</ele><time>2026-04-17T13:22:21.52Z</time></trkpt><trkpt lat="46.0328033" lon="12.6531783"><ele>121.0</ele><time>2026-04-17T13:22:22.52Z</time></trkpt><trkpt lat="46.0325467" lon="12.653075"><ele>120.5</ele><time>2026-04-17T13:22:23.521Z</time></trkpt><trkpt lat="46.0322833" lon="12.652985"><ele>120.0</ele><time>2026-04-17T13:22:24.52Z</time></trkpt><trkpt lat="46.0320133" lon="12.6529133"><ele>120.0</ele><time>2026-04-17T13:22:25.519Z</time></trkpt><trkpt lat="46.0317383" lon="12.6528617"><ele>120.0</ele><time>2026-04-17T13:22:26.521Z</time></trkpt><trkpt lat="46.031455" lon="12.652825"><ele>119.5</ele><time>2026-04-17T13:22:27.52Z</time></trkpt><trkpt lat="46.031165" lon="12.6527933"><ele>119.0</ele><time>2026-04-17T13:22:28.52Z</time></trkpt><trkpt lat="46.0308733" lon="12.6527683"><ele>118.5</ele><time>2026-04-17T13:22:29.52Z</time></trkpt><trkpt lat="46.0305833" lon="12.6527383"><ele>118.0</ele><time>2026-04-17T13:22:30.52Z</time></trkpt><trkpt lat="46.0302917" lon="12.65271"><ele>118.0</ele><time>2026-04-17T13:22:31.521Z</time></trkpt><trkpt lat="46.0299967" lon="12.6526933"><ele>118.0</ele><time>2026-04-17T13:22:32.52Z</time></trkpt><trkpt lat="46.0297017" lon="12.6526983"><ele>117.0</ele><time>2026-04-17T13:22:33.52Z</time></trkpt><trkpt lat="46.0294067" lon="12.6527267"><ele>116.0</ele><time>2026-04-17T13:22:34.52Z</time></trkpt><trkpt lat="46.0291133" lon="12.6527617"><ele>115.5</ele><time>2026-04-17T13:22:35.52Z</time></trkpt><trkpt lat="46.0288283" lon="12.6527983"><ele>115.0</ele><time>2026-04-17T13:22:36.52Z</time></trkpt><trkpt lat="46.0285433" lon="12.6528317"><ele>114.5</ele><time>2026-04-17T13:22:37.521Z</time></trkpt><trkpt lat="46.0282617" lon="12.6528633"><ele>114.0</ele><time>2026-04-17T13:22:38.522Z</time></trkpt><trkpt lat="46.0279817" lon="12.6528917"><ele>114.0</ele><time>2026-04-17T13:22:39.521Z</time></trkpt><trkpt lat="46.0276867" lon="12.6529033"><ele>114.0</ele><time>2026-04-17T13:22:40.52Z</time></trkpt><trkpt lat="46.0273833" lon="12.6529317"><ele>114.5</ele><time>2026-04-17T13:22:41.52Z</time></trkpt><trkpt lat="46.027125" lon="12.652965"><ele>115.0</ele><time>2026-04-17T13:22:42.519Z</time></trkpt><trkpt lat="46.0268617" lon="12.6529583"><ele>113.5</ele><time>2026-04-17T13:22:43.52Z</time></trkpt><trkpt lat="46.02659" lon="12.65296"><ele>112.0</ele><time>2026-04-17T13:22:44.52Z</time></trkpt><trkpt lat="46.0263217" lon="12.6529617"><ele>112.0</ele><time>2026-04-17T13:22:45.52Z</time></trkpt><trkpt lat="46.02606" lon="12.652965"><ele>112.0</ele><time>2026-04-17T13:22:46.52Z</time></trkpt><trkpt lat="46.0258" lon="12.65297"><ele>111.5</ele><time>2026-04-17T13:22:47.521Z</time></trkpt><trkpt lat="46.0255417" lon="12.65297"><ele>111.0</ele><time>2026-04-17T13:22:48.52Z</time></trkpt><trkpt lat="46.02528" lon="12.6529617"><ele>111.0</ele><time>2026-04-17T13:22:49.519Z</time></trkpt><trkpt lat="46.0250217" lon="12.6529483"><ele>111.0</ele><time>2026-04-17T13:22:50.521Z</time></trkpt><trkpt lat="46.0247633" lon="12.652935"><ele>110.0</ele><time>2026-04-17T13:22:51.52Z</time></trkpt><trkpt lat="46.0245067" lon="12.6529167"><ele>109.0</ele><time>2026-04-17T13:22:52.52Z</time></trkpt><trkpt lat="46.0242483" lon="12.6528983"><ele>109.5</ele><time>2026-04-17T13:22:53.52Z</time></trkpt><trkpt lat="46.0239883" lon="12.65288"><ele>110.0</ele><time>2026-04-17T13:22:54.52Z</time></trkpt><trkpt lat="46.02373" lon="12.6528683"><ele>110.0</ele><time>2026-04-17T13:22:55.52Z</time></trkpt><trkpt lat="46.0234733" lon="12.652855"><ele>110.0</ele><time>2026-04-17T13:22:56.52Z</time></trkpt><trkpt lat="46.0232267" lon="12.652845"><ele>109.0</ele><time>2026-04-17T13:22:57.52Z</time></trkpt><trkpt lat="46.0229933" lon="12.6528333"><ele>108.0</ele><time>2026-04-17T13:22:58.52Z</time></trkpt><trkpt lat="46.02277" lon="12.6528167"><ele>108.0</ele><time>2026-04-17T13:22:59.519Z</time></trkpt><trkpt lat="46.0225583" lon="12.6527933"><ele>108.0</ele><time>2026-04-17T13:23:00.52Z</time></trkpt><trkpt lat="46.0223483" lon="12.6527633"><ele>108.0</ele><time>2026-04-17T13:23:01.519Z</time></trkpt><trkpt lat="46.0221467" lon="12.6527283"><ele>107.33333333333334</ele><time>2026-04-17T13:23:02.52Z</time></trkpt><trkpt lat="46.0219567" lon="12.6526817"><ele>106.66666666666667</ele><time>2026-04-17T13:23:03.52Z</time></trkpt><trkpt lat="46.02178" lon="12.65262"><ele>106.0</ele><time>2026-04-17T13:23:04.52Z</time></trkpt><trkpt lat="46.0216233" lon="12.652555"><ele>105.75</ele><time>2026-04-17T13:23:05.52Z</time></trkpt><trkpt lat="46.0214833" lon="12.652485"><ele>105.5</ele><time>2026-04-17T13:23:06.52Z</time></trkpt><trkpt lat="46.021365" lon="12.6524133"><ele>105.25</ele><time>2026-04-17T13:23:07.521Z</time></trkpt><trkpt lat="46.02127" lon="12.65232"><ele>105.0</ele><time>2026-04-17T13:23:08.522Z</time></trkpt><trkpt lat="46.0212017" lon="12.6521933"><ele>105.0</ele><time>2026-04-17T13:23:09.521Z</time></trkpt><trkpt lat="46.021145" lon="12.652035"><ele>105.0</ele><time>2026-04-17T13:23:10.52Z</time></trkpt><trkpt lat="46.02108" lon="12.651875"><ele>105.0</ele><time>2026-04-17T13:23:11.522Z</time></trkpt><trkpt lat="46.0209983" lon="12.65175"><ele>105.0</ele><time>2026-04-17T13:23:12.521Z</time></trkpt><trkpt lat="46.02089" lon="12.6516767"><ele>104.5</ele><time>2026-04-17T13:23:13.521Z</time></trkpt><trkpt lat="46.0207717" lon="12.6516233"><ele>104.0</ele><time>2026-04-17T13:23:14.52Z</time></trkpt><trkpt lat="46.02066" lon="12.651545"><ele>103.5</ele><time>2026-04-17T13:23:15.52Z</time></trkpt><trkpt lat="46.020565" lon="12.651405"><ele>103.0</ele><time>2026-04-17T13:23:16.52Z</time></trkpt><trkpt lat="46.0204767" lon="12.6512"><ele>102.66666666666667</ele><time>2026-04-17T13:23:17.52Z</time></trkpt><trkpt lat="46.0203983" lon="12.65095"><ele>102.33333333333334</ele><time>2026-04-17T13:23:18.52Z</time></trkpt><trkpt lat="46.02032" lon="12.6506667"><ele>102.0</ele><time>2026-04-17T13:23:19.519Z</time></trkpt><trkpt lat="46.0202367" lon="12.6503517"><ele>101.5</ele><time>2026-04-17T13:23:20.52Z</time></trkpt><trkpt lat="46.020145" lon="12.6500133"><ele>101.0</ele><time>2026-04-17T13:23:21.52Z</time></trkpt><trkpt lat="46.0200483" lon="12.6496567"><ele>101.5</ele><time>2026-04-17T13:23:22.52Z</time></trkpt><trkpt lat="46.01995" lon="12.6492883"><ele>102.0</ele><time>2026-04-17T13:23:23.52Z</time></trkpt><trkpt lat="46.0198483" lon="12.64892"><ele>102.0</ele><time>2026-04-17T13:23:24.519Z</time></trkpt><trkpt lat="46.0197433" lon="12.6485417"><ele>102.0</ele><time>2026-04-17T13:23:25.52Z</time></trkpt><trkpt lat="46.01964" lon="12.6481567"><ele>102.0</ele><time>2026-04-17T13:23:26.52Z</time></trkpt><trkpt lat="46.0195317" lon="12.647765"><ele>102.0</ele><time>2026-04-17T13:23:27.52Z</time></trkpt><trkpt lat="46.0194233" lon="12.64737"><ele>102.0</ele><time>2026-04-17T13:23:28.52Z</time></trkpt><trkpt lat="46.019315" lon="12.6469783"><ele>102.0</ele><time>2026-04-17T13:23:29.521Z</time></trkpt><trkpt lat="46.019205" lon="12.646585"><ele>101.5</ele><time>2026-04-17T13:23:30.521Z</time></trkpt><trkpt lat="46.0190967" lon="12.64619"><ele>101.0</ele><time>2026-04-17T13:23:31.52Z</time></trkpt><trkpt lat="46.0189883" lon="12.6458017"><ele>102.0</ele><time>2026-04-17T13:23:32.521Z</time></trkpt><trkpt lat="46.0188817" lon="12.6454117"><ele>103.0</ele><time>2026-04-17T13:23:33.52Z</time></trkpt><trkpt lat="46.0187717" lon="12.6450233"><ele>103.0</ele><time>2026-04-17T13:23:34.52Z</time></trkpt><trkpt lat="46.01866" lon="12.6446383"><ele>103.0</ele><time>2026-04-17T13:23:35.52Z</time></trkpt><trkpt lat="46.018545" lon="12.644255"><ele>102.5</ele><time>2026-04-17T13:23:36.52Z</time></trkpt><trkpt lat="46.0184233" lon="12.643875"><ele>102.0</ele><time>2026-04-17T13:23:37.52Z</time></trkpt><trkpt lat="46.0182983" lon="12.643495"><ele>101.5</ele><time>2026-04-17T13:23:38.52Z</time></trkpt><trkpt lat="46.0181983" lon="12.6430917"><ele>101.0</ele><time>2026-04-17T13:23:39.52Z</time></trkpt><trkpt lat="46.0180367" lon="12.64269"><ele>101.0</ele><time>2026-04-17T13:23:40.52Z</time></trkpt><trkpt lat="46.0178867" lon="12.6423633"><ele>101.0</ele><time>2026-04-17T13:23:41.52Z</time></trkpt><trkpt lat="46.0177717" lon="12.6419783"><ele>101.0</ele><time>2026-04-17T13:23:42.52Z</time></trkpt><trkpt lat="46.017645" lon="12.6415567"><ele>101.0</ele><time>2026-04-17T13:23:43.521Z</time></trkpt><trkpt lat="46.0175017" lon="12.6411817"><ele>101.0</ele><time>2026-04-17T13:23:44.521Z</time></trkpt><trkpt lat="46.017365" lon="12.640835"><ele>101.0</ele><time>2026-04-17T13:23:45.519Z</time></trkpt><trkpt lat="46.0172883" lon="12.640455"><ele>101.0</ele><time>2026-04-17T13:23:46.52Z</time></trkpt><trkpt lat="46.0171383" lon="12.6401"><ele>101.0</ele><time>2026-04-17T13:23:47.522Z</time></trkpt><trkpt lat="46.0169933" lon="12.6397517"><ele>101.0</ele><time>2026-04-17T13:23:48.52Z</time></trkpt><trkpt lat="46.0168583" lon="12.6394067"><ele>101.0</ele><time>2026-04-17T13:23:49.52Z</time></trkpt><trkpt lat="46.0167433" lon="12.6390533"><ele>100.0</ele><time>2026-04-17T13:23:50.521Z</time></trkpt><trkpt lat="46.0166283" lon="12.6387067"><ele>99.0</ele><time>2026-04-17T13:23:51.52Z</time></trkpt><trkpt lat="46.0165117" lon="12.6383633"><ele>99.0</ele><time>2026-04-17T13:23:52.52Z</time></trkpt><trkpt lat="46.0163983" lon="12.638025"><ele>99.0</ele><time>2026-04-17T13:23:53.521Z</time></trkpt><trkpt lat="46.0162867" lon="12.63769"><ele>99.5</ele><time>2026-04-17T13:23:54.522Z</time></trkpt><trkpt lat="46.0161767" lon="12.637365"><ele>100.0</ele><time>2026-04-17T13:23:55.52Z</time></trkpt><trkpt lat="46.0160683" lon="12.637045"><ele>99.5</ele><time>2026-04-17T13:23:56.522Z</time></trkpt><trkpt lat="46.01596" lon="12.6367383"><ele>99.0</ele><time>2026-04-17T13:23:57.519Z</time></trkpt><trkpt lat="46.0158533" lon="12.6364333"><ele>98.0</ele><time>2026-04-17T13:23:58.52Z</time></trkpt><trkpt lat="46.0157483" lon="12.6361267"><ele>97.0</ele><time>2026-04-17T13:23:59.52Z</time></trkpt><trkpt lat="46.0156433" lon="12.6358183"><ele>97.0</ele><time>2026-04-17T13:24:00.52Z</time></trkpt><trkpt lat="46.0155417" lon="12.6355133"><ele>97.0</ele><time>2026-04-17T13:24:01.519Z</time></trkpt><trkpt lat="46.01544" lon="12.6352133"><ele>97.5</ele><time>2026-04-17T13:24:02.522Z</time></trkpt><trkpt lat="46.0153367" lon="12.6349133"><ele>98.0</ele><time>2026-04-17T13:24:03.521Z</time></trkpt><trkpt lat="46.015235" lon="12.6346133"><ele>98.5</ele><time>2026-04-17T13:24:04.521Z</time></trkpt><trkpt lat="46.0151333" lon="12.634315"><ele>99.0</ele><time>2026-04-17T13:24:05.52Z</time></trkpt><trkpt lat="46.0150317" lon="12.63402"><ele>98.0</ele><time>2026-04-17T13:24:06.522Z</time></trkpt><trkpt lat="46.0149317" lon="12.6337267"><ele>97.0</ele><time>2026-04-17T13:24:07.522Z</time></trkpt><trkpt lat="46.0148317" lon="12.6334367"><ele>97.0</ele><time>2026-04-17T13:24:08.521Z</time></trkpt><trkpt lat="46.0147333" lon="12.6331467"><ele>97.0</ele><time>2026-04-17T13:24:09.52Z</time></trkpt><trkpt lat="46.0146433" lon="12.6328633"><ele>97.0</ele><time>2026-04-17T13:24:10.52Z</time></trkpt><trkpt lat="46.01456" lon="12.6325917"><ele>97.0</ele><time>2026-04-17T13:24:11.52Z</time></trkpt><trkpt lat="46.0144783" lon="12.6323217"><ele>97.0</ele><time>2026-04-17T13:24:12.523Z</time></trkpt><trkpt lat="46.01439" lon="12.632045"><ele>97.0</ele><time>2026-04-17T13:24:13.521Z</time></trkpt><trkpt lat="46.0142917" lon="12.6317383"><ele>98.0</ele><time>2026-04-17T13:24:14.523Z</time></trkpt><trkpt lat="46.0141967" lon="12.6314033"><ele>99.0</ele><time>2026-04-17T13:24:15.52Z</time></trkpt><trkpt lat="46.0141017" lon="12.6310383"><ele>98.5</ele><time>2026-04-17T13:24:16.52Z</time></trkpt><trkpt lat="46.0140017" lon="12.630655"><ele>98.0</ele><time>2026-04-17T13:24:17.522Z</time></trkpt><trkpt lat="46.01389" lon="12.6302667"><ele>98.0</ele><time>2026-04-17T13:24:18.521Z</time></trkpt><trkpt lat="46.0137733" lon="12.6298667"><ele>98.0</ele><time>2026-04-17T13:24:19.521Z</time></trkpt><trkpt lat="46.0136583" lon="12.6294667"><ele>99.5</ele><time>2026-04-17T13:24:20.521Z</time></trkpt><trkpt lat="46.0135517" lon="12.6290883"><ele>101.0</ele><time>2026-04-17T13:24:21.521Z</time></trkpt><trkpt lat="46.0134467" lon="12.6287267"><ele>100.5</ele><time>2026-04-17T13:24:22.52Z</time></trkpt><trkpt lat="46.0133483" lon="12.6283867"><ele>100.0</ele><time>2026-04-17T13:24:23.52Z</time></trkpt><trkpt lat="46.0132683" lon="12.628055"><ele>99.0</ele><time>2026-04-17T13:24:24.522Z</time></trkpt><trkpt lat="46.01321" lon="12.6277233"><ele>98.0</ele><time>2026-04-17T13:24:25.524Z</time></trkpt><trkpt lat="46.0131733" lon="12.6273833"><ele>98.0</ele><time>2026-04-17T13:24:26.522Z</time></trkpt><trkpt lat="46.0131617" lon="12.6270433"><ele>98.0</ele><time>2026-04-17T13:24:27.523Z</time></trkpt><trkpt lat="46.0131683" lon="12.6267167"><ele>98.33333333333333</ele><time>2026-04-17T13:24:28.522Z</time></trkpt><trkpt lat="46.0131767" lon="12.6264067"><ele>98.66666666666666</ele><time>2026-04-17T13:24:29.52Z</time></trkpt><trkpt lat="46.0131917" lon="12.626115"><ele>99.0</ele><time>2026-04-17T13:24:30.52Z</time></trkpt><trkpt lat="46.0132067" lon="12.6258283"><ele>99.0</ele><time>2026-04-17T13:24:31.522Z</time></trkpt><trkpt lat="46.0132233" lon="12.6255533"><ele>99.0</ele><time>2026-04-17T13:24:32.521Z</time></trkpt><trkpt lat="46.0132317" lon="12.62528"><ele>99.0</ele><time>2026-04-17T13:24:33.522Z</time></trkpt><trkpt lat="46.01324" lon="12.6250033"><ele>99.0</ele><time>2026-04-17T13:24:34.521Z</time></trkpt><trkpt lat="46.013245" lon="12.6247317"><ele>99.0</ele><time>2026-04-17T13:24:35.522Z</time></trkpt><trkpt lat="46.0132517" lon="12.6244783"><ele>99.0</ele><time>2026-04-17T13:24:36.522Z</time></trkpt><trkpt lat="46.0132617" lon="12.624245"><ele>99.0</ele><time>2026-04-17T13:24:37.521Z</time></trkpt><trkpt lat="46.0132733" lon="12.6240483"><ele>99.0</ele><time>2026-04-17T13:24:38.523Z</time></trkpt><trkpt lat="46.0132833" lon="12.623885"><ele>99.0</ele><time>2026-04-17T13:24:39.521Z</time></trkpt><trkpt lat="46.0132967" lon="12.62375"><ele>99.0</ele><time>2026-04-17T13:24:40.521Z</time></trkpt><trkpt lat="46.0133117" lon="12.6236367"><ele>99.0</ele><time>2026-04-17T13:24:41.521Z</time></trkpt><trkpt lat="46.0133317" lon="12.62355"><ele>99.16666666666667</ele><time>2026-04-17T13:24:42.52Z</time></trkpt><trkpt lat="46.013365" lon="12.6234683"><ele>99.33333333333334</ele><time>2026-04-17T13:24:43.522Z</time></trkpt><trkpt lat="46.0133933" lon="12.6233833"><ele>99.5</ele><time>2026-04-17T13:24:44.524Z</time></trkpt><trkpt lat="46.0133817" lon="12.6232317"><ele>99.66666666666667</ele><time>2026-04-17T13:24:46.519Z</time></trkpt><trkpt lat="46.0133017" lon="12.623235"><ele>99.83333333333334</ele><time>2026-04-17T13:24:47.52Z</time></trkpt><trkpt lat="46.0132133" lon="12.6232767"><ele>100.0</ele><time>2026-04-17T13:24:48.521Z</time></trkpt><trkpt lat="46.013105" lon="12.6233467"><ele>99.0</ele><time>2026-04-17T13:24:49.523Z</time></trkpt><trkpt lat="46.012955" lon="12.6234217"><ele>98.0</ele><time>2026-04-17T13:24:50.521Z</time></trkpt><trkpt lat="46.0127833" lon="12.6234883"><ele>97.0</ele><time>2026-04-17T13:24:51.521Z</time></trkpt><trkpt lat="46.0125983" lon="12.6235567"><ele>97.0</ele><time>2026-04-17T13:24:52.52Z</time></trkpt><trkpt lat="46.0124017" lon="12.62363"><ele>97.0</ele><time>2026-04-17T13:24:53.521Z</time></trkpt><trkpt lat="46.0122" lon="12.623705"><ele>97.0</ele><time>2026-04-17T13:24:54.522Z</time></trkpt><trkpt lat="46.0119967" lon="12.6237817"><ele>97.33333333333334</ele><time>2026-04-17T13:24:55.521Z</time></trkpt><trkpt lat="46.0117933" lon="12.6238583"><ele>97.66666666666666</ele><time>2026-04-17T13:24:56.522Z</time></trkpt><trkpt lat="46.0115883" lon="12.6239367"><ele>98.0</ele><time>2026-04-17T13:24:57.521Z</time></trkpt><trkpt lat="46.01138" lon="12.624015"><ele>97.33333333333333</ele><time>2026-04-17T13:24:58.521Z</time></trkpt><trkpt lat="46.0111667" lon="12.6240883"><ele>96.66666666666666</ele><time>2026-04-17T13:24:59.521Z</time></trkpt><trkpt lat="46.010955" lon="12.624165"><ele>96.0</ele><time>2026-04-17T13:25:00.52Z</time></trkpt><trkpt lat="46.0107467" lon="12.62424"><ele>96.0</ele><time>2026-04-17T13:25:01.521Z</time></trkpt><trkpt lat="46.0105417" lon="12.6243167"><ele>96.0</ele><time>2026-04-17T13:25:02.522Z</time></trkpt><trkpt lat="46.0103333" lon="12.6243933"><ele>96.0</ele><time>2026-04-17T13:25:03.52Z</time></trkpt><trkpt lat="46.0101267" lon="12.62447"><ele>95.33333333333333</ele><time>2026-04-17T13:25:04.52Z</time></trkpt><trkpt lat="46.00992" lon="12.624545"><ele>94.66666666666666</ele><time>2026-04-17T13:25:05.522Z</time></trkpt><trkpt lat="46.0097167" lon="12.6246217"><ele>94.0</ele><time>2026-04-17T13:25:06.523Z</time></trkpt><trkpt lat="46.0095117" lon="12.6246983"><ele>94.0</ele><time>2026-04-17T13:25:07.521Z</time></trkpt><trkpt lat="46.0093067" lon="12.6247733"><ele>94.0</ele><time>2026-04-17T13:25:08.521Z</time></trkpt><trkpt lat="46.0091033" lon="12.6248483"><ele>94.0</ele><time>2026-04-17T13:25:09.521Z</time></trkpt><trkpt lat="46.0088983" lon="12.62492"><ele>94.0</ele><time>2026-04-17T13:25:10.521Z</time></trkpt><trkpt lat="46.008695" lon="12.624995"><ele>94.0</ele><time>2026-04-17T13:25:11.521Z</time></trkpt><trkpt lat="46.00849" lon="12.62507"><ele>94.0</ele><time>2026-04-17T13:25:12.521Z</time></trkpt><trkpt lat="46.0082817" lon="12.6251467"><ele>93.66666666666666</ele><time>2026-04-17T13:25:13.521Z</time></trkpt><trkpt lat="46.0080733" lon="12.62522"><ele>93.33333333333333</ele><time>2026-04-17T13:25:14.52Z</time></trkpt><trkpt lat="46.0078617" lon="12.6252967"><ele>93.0</ele><time>2026-04-17T13:25:15.521Z</time></trkpt><trkpt lat="46.0076467" lon="12.625375"><ele>93.0</ele><time>2026-04-17T13:25:16.523Z</time></trkpt><trkpt lat="46.0074367" lon="12.6254533"><ele>93.0</ele><time>2026-04-17T13:25:17.522Z</time></trkpt><trkpt lat="46.0072267" lon="12.6255317"><ele>93.0</ele><time>2026-04-17T13:25:18.521Z</time></trkpt><trkpt lat="46.0070133" lon="12.6256117"><ele>93.0</ele><time>2026-04-17T13:25:19.519Z</time></trkpt><trkpt lat="46.0067967" lon="12.6256917"><ele>93.0</ele><time>2026-04-17T13:25:20.521Z</time></trkpt><trkpt lat="46.0065833" lon="12.6257683"><ele>93.0</ele><time>2026-04-17T13:25:21.521Z</time></trkpt><trkpt lat="46.0063733" lon="12.6258483"><ele>92.0</ele><time>2026-04-17T13:25:22.521Z</time></trkpt><trkpt lat="46.00616" lon="12.62593"><ele>91.0</ele><time>2026-04-17T13:25:23.52Z</time></trkpt><trkpt lat="46.0059417" lon="12.6260167"><ele>90.0</ele><time>2026-04-17T13:25:24.521Z</time></trkpt><trkpt lat="46.0057317" lon="12.626095"><ele>88.5</ele><time>2026-04-17T13:25:25.521Z</time></trkpt><trkpt lat="46.005515" lon="12.6261683"><ele>87.0</ele><time>2026-04-17T13:25:26.522Z</time></trkpt><trkpt lat="46.0052917" lon="12.6262417"><ele>87.0</ele><time>2026-04-17T13:25:27.521Z</time></trkpt><trkpt lat="46.00507" lon="12.6263167"><ele>87.0</ele><time>2026-04-17T13:25:28.521Z</time></trkpt><trkpt lat="46.0048567" lon="12.6263967"><ele>87.0</ele><time>2026-04-17T13:25:29.521Z</time></trkpt><trkpt lat="46.0046467" lon="12.626475"><ele>87.0</ele><time>2026-04-17T13:25:30.521Z</time></trkpt><trkpt lat="46.004445" lon="12.6265483"><ele>87.0</ele><time>2026-04-17T13:25:31.521Z</time></trkpt><trkpt lat="46.0042567" lon="12.62662"><ele>87.0</ele><time>2026-04-17T13:25:32.522Z</time></trkpt><trkpt lat="46.0040783" lon="12.6266833"><ele>87.0</ele><time>2026-04-17T13:25:33.521Z</time></trkpt><trkpt lat="46.0039083" lon="12.6267383"><ele>87.0</ele><time>2026-04-17T13:25:34.521Z</time></trkpt><trkpt lat="46.00375" lon="12.6267817"><ele>87.0</ele><time>2026-04-17T13:25:35.52Z</time></trkpt><trkpt lat="46.0036" lon="12.6268133"><ele>87.0</ele><time>2026-04-17T13:25:36.521Z</time></trkpt><trkpt lat="46.0034617" lon="12.6268333"><ele>87.0</ele><time>2026-04-17T13:25:37.522Z</time></trkpt><trkpt lat="46.0033417" lon="12.626845"><ele>87.0</ele><time>2026-04-17T13:25:38.522Z</time></trkpt><trkpt lat="46.0032683" lon="12.62685"><ele>87.0</ele><time>2026-04-17T13:25:39.52Z</time></trkpt><trkpt lat="46.0031967" lon="12.6268433"><ele>87.0</ele><time>2026-04-17T13:25:42.52Z</time></trkpt><trkpt lat="46.0031333" lon="12.626765"><ele>86.5</ele><time>2026-04-17T13:25:46.52Z</time></trkpt><trkpt lat="46.0030083" lon="12.626675"><ele>86.0</ele><time>2026-04-17T13:25:48.52Z</time></trkpt><trkpt lat="46.0029067" lon="12.6266517"><ele>85.5</ele><time>2026-04-17T13:25:49.52Z</time></trkpt><trkpt lat="46.0027933" lon="12.6266083"><ele>85.0</ele><time>2026-04-17T13:25:50.523Z</time></trkpt><trkpt lat="46.0026633" lon="12.6265183"><ele>85.0</ele><time>2026-04-17T13:25:51.522Z</time></trkpt><trkpt lat="46.0025267" lon="12.626405"><ele>85.0</ele><time>2026-04-17T13:25:52.52Z</time></trkpt><trkpt lat="46.0023667" lon="12.6263167"><ele>85.0</ele><time>2026-04-17T13:25:53.521Z</time></trkpt><trkpt lat="46.0021833" lon="12.6262567"><ele>84.0</ele><time>2026-04-17T13:25:54.521Z</time></trkpt><trkpt lat="46.001975" lon="12.62622"><ele>83.0</ele><time>2026-04-17T13:25:55.521Z</time></trkpt><trkpt lat="46.0017567" lon="12.62619"><ele>82.0</ele><time>2026-04-17T13:25:56.523Z</time></trkpt><trkpt lat="46.00154" lon="12.6261583"><ele>82.0</ele><time>2026-04-17T13:25:57.522Z</time></trkpt><trkpt lat="46.0013283" lon="12.6261317"><ele>82.0</ele><time>2026-04-17T13:25:58.52Z</time></trkpt><trkpt lat="46.0011167" lon="12.6261"><ele>82.0</ele><time>2026-04-17T13:25:59.521Z</time></trkpt><trkpt lat="46.0009117" lon="12.6260683"><ele>81.66666666666666</ele><time>2026-04-17T13:26:00.523Z</time></trkpt><trkpt lat="46.0007067" lon="12.62603"><ele>81.33333333333333</ele><time>2026-04-17T13:26:01.521Z</time></trkpt><trkpt lat="46.0005067" lon="12.625995"><ele>81.0</ele><time>2026-04-17T13:26:02.523Z</time></trkpt><trkpt lat="46.000315" lon="12.6259633"><ele>81.0</ele><time>2026-04-17T13:26:03.52Z</time></trkpt><trkpt lat="46.0001367" lon="12.625935"><ele>81.0</ele><time>2026-04-17T13:26:04.521Z</time></trkpt><trkpt lat="45.9999817" lon="12.6259117"><ele>81.0</ele><time>2026-04-17T13:26:05.522Z</time></trkpt><trkpt lat="45.999855" lon="12.62589"><ele>81.0</ele><time>2026-04-17T13:26:06.523Z</time></trkpt><trkpt lat="45.999755" lon="12.6258533"><ele>81.0</ele><time>2026-04-17T13:26:07.521Z</time></trkpt><trkpt lat="45.99969" lon="12.6258"><ele>81.0</ele><time>2026-04-17T13:26:08.521Z</time></trkpt><trkpt lat="45.9996717" lon="12.6256217"><ele>81.0</ele><time>2026-04-17T13:26:10.52Z</time></trkpt><trkpt lat="45.9996933" lon="12.6254767"><ele>81.0</ele><time>2026-04-17T13:26:11.521Z</time></trkpt><trkpt lat="45.999715" lon="12.6252833"><ele>81.25</ele><time>2026-04-17T13:26:12.521Z</time></trkpt><trkpt lat="45.99973" lon="12.6250783"><ele>81.5</ele><time>2026-04-17T13:26:13.522Z</time></trkpt><trkpt lat="45.9997467" lon="12.6248617"><ele>81.75</ele><time>2026-04-17T13:26:14.522Z</time></trkpt><trkpt lat="45.9997583" lon="12.624645"><ele>82.0</ele><time>2026-04-17T13:26:15.521Z</time></trkpt><trkpt lat="45.9997667" lon="12.6244383"><ele>82.0</ele><time>2026-04-17T13:26:16.521Z</time></trkpt><trkpt lat="45.9997733" lon="12.6242383"><ele>82.0</ele><time>2026-04-17T13:26:17.52Z</time></trkpt><trkpt lat="45.99978" lon="12.624045"><ele>82.0</ele><time>2026-04-17T13:26:18.52Z</time></trkpt><trkpt lat="45.9997883" lon="12.6238433"><ele>82.0</ele><time>2026-04-17T13:26:19.52Z</time></trkpt><trkpt lat="45.9998067" lon="12.6236217"><ele>82.0</ele><time>2026-04-17T13:26:20.521Z</time></trkpt><trkpt lat="45.9998317" lon="12.6233833"><ele>82.0</ele><time>2026-04-17T13:26:21.519Z</time></trkpt><trkpt lat="45.9998683" lon="12.6231267"><ele>82.0</ele><time>2026-04-17T13:26:22.519Z</time></trkpt><trkpt lat="45.9999133" lon="12.6228517"><ele>82.33333333333333</ele><time>2026-04-17T13:26:23.52Z</time></trkpt><trkpt lat="45.99996" lon="12.62256"><ele>82.66666666666667</ele><time>2026-04-17T13:26:24.52Z</time></trkpt><trkpt lat="46.0000033" lon="12.6222567"><ele>83.0</ele><time>2026-04-17T13:26:25.52Z</time></trkpt><trkpt lat="46.000045" lon="12.621945"><ele>83.33333333333334</ele><time>2026-04-17T13:26:26.52Z</time></trkpt><trkpt lat="46.00008" lon="12.6216267"><ele>83.66666666666667</ele><time>2026-04-17T13:26:27.521Z</time></trkpt><trkpt lat="46.000105" lon="12.6213117"><ele>84.0</ele><time>2026-04-17T13:26:28.522Z</time></trkpt><trkpt lat="46.0001217" lon="12.6210033"><ele>84.0</ele><time>2026-04-17T13:26:29.522Z</time></trkpt><trkpt lat="46.0001333" lon="12.620705"><ele>84.0</ele><time>2026-04-17T13:26:30.52Z</time></trkpt><trkpt lat="46.0001417" lon="12.6204117"><ele>84.0</ele><time>2026-04-17T13:26:31.52Z</time></trkpt><trkpt lat="46.000145" lon="12.62011"><ele>84.0</ele><time>2026-04-17T13:26:32.522Z</time></trkpt><trkpt lat="46.00014" lon="12.619805"><ele>84.0</ele><time>2026-04-17T13:26:33.526Z</time></trkpt><trkpt lat="46.0001283" lon="12.6194933"><ele>84.0</ele><time>2026-04-17T13:26:34.52Z</time></trkpt><trkpt lat="46.000115" lon="12.6191733"><ele>84.0</ele><time>2026-04-17T13:26:35.521Z</time></trkpt><trkpt lat="46.0001" lon="12.6188683"><ele>84.0</ele><time>2026-04-17T13:26:36.521Z</time></trkpt><trkpt lat="46.000085" lon="12.6185817"><ele>84.0</ele><time>2026-04-17T13:26:37.521Z</time></trkpt><trkpt lat="46.000075" lon="12.6183133"><ele>84.0</ele><time>2026-04-17T13:26:38.521Z</time></trkpt><trkpt lat="46.0000717" lon="12.61807"><ele>84.0</ele><time>2026-04-17T13:26:39.521Z</time></trkpt><trkpt lat="46.0000717" lon="12.6178783"><ele>84.0</ele><time>2026-04-17T13:26:40.523Z</time></trkpt><trkpt lat="46.000075" lon="12.617745"><ele>84.0</ele><time>2026-04-17T13:26:41.522Z</time></trkpt><trkpt lat="46.0000717" lon="12.6176467"><ele>83.75</ele><time>2026-04-17T13:26:42.521Z</time></trkpt><trkpt lat="46.00002" lon="12.6175933"><ele>83.5</ele><time>2026-04-17T13:26:52.519Z</time></trkpt><trkpt lat="45.9998967" lon="12.6175817"><ele>83.25</ele><time>2026-04-17T13:26:53.519Z</time></trkpt><trkpt lat="45.99976" lon="12.6175917"><ele>83.0</ele><time>2026-04-17T13:26:54.519Z</time></trkpt><trkpt lat="45.9996033" lon="12.61763"><ele>83.0</ele><time>2026-04-17T13:26:55.521Z</time></trkpt><trkpt lat="45.9994183" lon="12.6176717"><ele>83.0</ele><time>2026-04-17T13:26:56.524Z</time></trkpt><trkpt lat="45.999235" lon="12.6177083"><ele>83.0</ele><time>2026-04-17T13:26:57.523Z</time></trkpt><trkpt lat="45.9990517" lon="12.6177433"><ele>82.66666666666667</ele><time>2026-04-17T13:26:58.52Z</time></trkpt><trkpt lat="45.9988733" lon="12.61778"><ele>82.33333333333333</ele><time>2026-04-17T13:26:59.52Z</time></trkpt><trkpt lat="45.9986983" lon="12.6178183"><ele>82.0</ele><time>2026-04-17T13:27:00.521Z</time></trkpt><trkpt lat="45.9985183" lon="12.6178667"><ele>82.0</ele><time>2026-04-17T13:27:01.523Z</time></trkpt><trkpt lat="45.998335" lon="12.6179267"><ele>82.0</ele><time>2026-04-17T13:27:02.521Z</time></trkpt><trkpt lat="45.9981517" lon="12.618"><ele>82.0</ele><time>2026-04-17T13:27:03.52Z</time></trkpt><trkpt lat="45.9979817" lon="12.6180733"><ele>81.5</ele><time>2026-04-17T13:27:04.52Z</time></trkpt><trkpt lat="45.9978267" lon="12.6181417"><ele>81.0</ele><time>2026-04-17T13:27:05.52Z</time></trkpt><trkpt lat="45.9976833" lon="12.618205"><ele>80.5</ele><time>2026-04-17T13:27:06.521Z</time></trkpt><trkpt lat="45.9975517" lon="12.61826"><ele>80.0</ele><time>2026-04-17T13:27:07.521Z</time></trkpt><trkpt lat="45.9974317" lon="12.6183117"><ele>80.0</ele><time>2026-04-17T13:27:08.521Z</time></trkpt><trkpt lat="45.9973167" lon="12.61835"><ele>80.0</ele><time>2026-04-17T13:27:09.521Z</time></trkpt><trkpt lat="45.9972017" lon="12.61837"><ele>80.0</ele><time>2026-04-17T13:27:10.522Z</time></trkpt><trkpt lat="45.9970783" lon="12.61838"><ele>80.0</ele><time>2026-04-17T13:27:11.522Z</time></trkpt><trkpt lat="45.9969533" lon="12.6183783"><ele>80.0</ele><time>2026-04-17T13:27:12.524Z</time></trkpt><trkpt lat="45.996815" lon="12.618365"><ele>80.0</ele><time>2026-04-17T13:27:13.521Z</time></trkpt><trkpt lat="45.99666" lon="12.6183333"><ele>80.0</ele><time>2026-04-17T13:27:14.523Z</time></trkpt><trkpt lat="45.99649" lon="12.61828"><ele>80.33333333333334</ele><time>2026-04-17T13:27:15.522Z</time></trkpt><trkpt lat="45.9963067" lon="12.6182183"><ele>80.66666666666667</ele><time>2026-04-17T13:27:16.521Z</time></trkpt><trkpt lat="45.9961183" lon="12.6181533"><ele>81.0</ele><time>2026-04-17T13:27:17.521Z</time></trkpt><trkpt lat="45.9959367" lon="12.6181017"><ele>80.33333333333333</ele><time>2026-04-17T13:27:18.522Z</time></trkpt><trkpt lat="45.9957567" lon="12.6180467"><ele>79.66666666666666</ele><time>2026-04-17T13:27:19.521Z</time></trkpt><trkpt lat="45.995575" lon="12.6179817"><ele>79.0</ele><time>2026-04-17T13:27:20.522Z</time></trkpt><trkpt lat="45.995395" lon="12.6179083"><ele>79.0</ele><time>2026-04-17T13:27:21.52Z</time></trkpt><trkpt lat="45.995225" lon="12.6178367"><ele>79.0</ele><time>2026-04-17T13:27:22.52Z</time></trkpt><trkpt lat="45.9950783" lon="12.6177683"><ele>79.0</ele><time>2026-04-17T13:27:23.52Z</time></trkpt><trkpt lat="45.9949667" lon="12.61771"><ele>78.60000000000001</ele><time>2026-04-17T13:27:24.52Z</time></trkpt><trkpt lat="45.994885" lon="12.6176433"><ele>78.2</ele><time>2026-04-17T13:27:25.52Z</time></trkpt><trkpt lat="45.9948333" lon="12.61756"><ele>77.80000000000001</ele><time>2026-04-17T13:27:26.523Z</time></trkpt><trkpt lat="45.994795" lon="12.6174083"><ele>77.4</ele><time>2026-04-17T13:27:28.521Z</time></trkpt><trkpt lat="45.9946967" lon="12.6172683"><ele>77.0</ele><time>2026-04-17T13:27:36.52Z</time></trkpt><trkpt lat="45.994625" lon="12.6172483"><ele>77.0</ele><time>2026-04-17T13:27:37.52Z</time></trkpt><trkpt lat="45.9945333" lon="12.617255"><ele>77.0</ele><time>2026-04-17T13:27:38.522Z</time></trkpt><trkpt lat="45.9944233" lon="12.6172533"><ele>77.0</ele><time>2026-04-17T13:27:39.52Z</time></trkpt><trkpt lat="45.99429" lon="12.6172967"><ele>77.0</ele><time>2026-04-17T13:27:40.521Z</time></trkpt><trkpt lat="45.9941517" lon="12.6173417"><ele>76.75</ele><time>2026-04-17T13:27:41.52Z</time></trkpt><trkpt lat="45.9940333" lon="12.617325"><ele>76.5</ele><time>2026-04-17T13:27:42.522Z</time></trkpt><trkpt lat="45.9939033" lon="12.6173"><ele>76.25</ele><time>2026-04-17T13:27:43.522Z</time></trkpt><trkpt lat="45.9937667" lon="12.6172683"><ele>76.0</ele><time>2026-04-17T13:27:44.521Z</time></trkpt><trkpt lat="45.99363" lon="12.617225"><ele>76.0</ele><time>2026-04-17T13:27:45.52Z</time></trkpt><trkpt lat="45.9934883" lon="12.6171717"><ele>76.0</ele><time>2026-04-17T13:27:46.52Z</time></trkpt><trkpt lat="45.993345" lon="12.61711"><ele>76.0</ele><time>2026-04-17T13:27:47.521Z</time></trkpt><trkpt lat="45.993195" lon="12.61705"><ele>75.33333333333333</ele><time>2026-04-17T13:27:48.519Z</time></trkpt><trkpt lat="45.9930417" lon="12.6169883"><ele>74.66666666666667</ele><time>2026-04-17T13:27:49.521Z</time></trkpt><trkpt lat="45.9928833" lon="12.6169233"><ele>74.0</ele><time>2026-04-17T13:27:50.521Z</time></trkpt><trkpt lat="45.99272" lon="12.6168567"><ele>74.0</ele><time>2026-04-17T13:27:51.52Z</time></trkpt><trkpt lat="45.9925517" lon="12.61679"><ele>74.0</ele><time>2026-04-17T13:27:52.521Z</time></trkpt><trkpt lat="45.9923783" lon="12.61672"><ele>74.0</ele><time>2026-04-17T13:27:53.521Z</time></trkpt><trkpt lat="45.9922017" lon="12.6166483"><ele>73.33333333333334</ele><time>2026-04-17T13:27:54.521Z</time></trkpt><trkpt lat="45.9920267" lon="12.6165733"><ele>72.66666666666667</ele><time>2026-04-17T13:27:55.521Z</time></trkpt><trkpt lat="45.99185" lon="12.6165067"><ele>72.0</ele><time>2026-04-17T13:27:56.522Z</time></trkpt><trkpt lat="45.9916733" lon="12.61645"><ele>71.66666666666667</ele><time>2026-04-17T13:27:57.521Z</time></trkpt><trkpt lat="45.9914967" lon="12.6164033"><ele>71.33333333333334</ele><time>2026-04-17T13:27:58.524Z</time></trkpt><trkpt lat="45.991325" lon="12.616365"><ele>71.0</ele><time>2026-04-17T13:27:59.521Z</time></trkpt><trkpt lat="45.991155" lon="12.6163283"><ele>71.0</ele><time>2026-04-17T13:28:00.521Z</time></trkpt><trkpt lat="45.9909883" lon="12.616295"><ele>71.0</ele><time>2026-04-17T13:28:01.521Z</time></trkpt><trkpt lat="45.99083" lon="12.6162683"><ele>71.0</ele><time>2026-04-17T13:28:02.521Z</time></trkpt><trkpt lat="45.9906767" lon="12.616245"><ele>70.33333333333334</ele><time>2026-04-17T13:28:03.521Z</time></trkpt><trkpt lat="45.9905233" lon="12.6162233"><ele>69.66666666666667</ele><time>2026-04-17T13:28:04.52Z</time></trkpt><trkpt lat="45.9903683" lon="12.6162033"><ele>69.0</ele><time>2026-04-17T13:28:05.521Z</time></trkpt><trkpt lat="45.9902083" lon="12.6161833"><ele>69.0</ele><time>2026-04-17T13:28:06.522Z</time></trkpt><trkpt lat="45.9900483" lon="12.616165"><ele>69.0</ele><time>2026-04-17T13:28:07.523Z</time></trkpt><trkpt lat="45.9898933" lon="12.6161433"><ele>69.0</ele><time>2026-04-17T13:28:08.522Z</time></trkpt><trkpt lat="45.9897467" lon="12.6161217"><ele>69.0</ele><time>2026-04-17T13:28:09.521Z</time></trkpt><trkpt lat="45.9896067" lon="12.6161"><ele>69.0</ele><time>2026-04-17T13:28:10.52Z</time></trkpt><trkpt lat="45.989465" lon="12.6160833"><ele>69.0</ele><time>2026-04-17T13:28:11.522Z</time></trkpt><trkpt lat="45.989315" lon="12.616065"><ele>69.0</ele><time>2026-04-17T13:28:12.522Z</time></trkpt><trkpt lat="45.9891633" lon="12.6160467"><ele>69.0</ele><time>2026-04-17T13:28:13.522Z</time></trkpt><trkpt lat="45.98901" lon="12.6160267"><ele>69.0</ele><time>2026-04-17T13:28:14.523Z</time></trkpt><trkpt lat="45.988855" lon="12.6160083"><ele>69.0</ele><time>2026-04-17T13:28:15.523Z</time></trkpt><trkpt lat="45.9887033" lon="12.615995"><ele>69.0</ele><time>2026-04-17T13:28:16.522Z</time></trkpt><trkpt lat="45.9885533" lon="12.6159867"><ele>69.0</ele><time>2026-04-17T13:28:17.521Z</time></trkpt><trkpt lat="45.9884083" lon="12.6159883"><ele>69.0</ele><time>2026-04-17T13:28:18.524Z</time></trkpt><trkpt lat="45.988265" lon="12.615995"><ele>69.0</ele><time>2026-04-17T13:28:19.521Z</time></trkpt><trkpt lat="45.9881183" lon="12.6160067"><ele>68.25</ele><time>2026-04-17T13:28:20.524Z</time></trkpt><trkpt lat="45.9879683" lon="12.616025"><ele>67.5</ele><time>2026-04-17T13:28:21.521Z</time></trkpt><trkpt lat="45.9878217" lon="12.6160517"><ele>66.75</ele><time>2026-04-17T13:28:22.52Z</time></trkpt><trkpt lat="45.98768" lon="12.6160867"><ele>66.0</ele><time>2026-04-17T13:28:23.52Z</time></trkpt><trkpt lat="45.9875433" lon="12.616115"><ele>66.0</ele><time>2026-04-17T13:28:24.521Z</time></trkpt><trkpt lat="45.9874067" lon="12.61614"><ele>66.0</ele><time>2026-04-17T13:28:25.522Z</time></trkpt><trkpt lat="45.9872717" lon="12.6161683"><ele>66.0</ele><time>2026-04-17T13:28:26.52Z</time></trkpt><trkpt lat="45.9871317" lon="12.6162033"><ele>66.0</ele><time>2026-04-17T13:28:27.522Z</time></trkpt><trkpt lat="45.9869833" lon="12.6162417"><ele>65.33333333333333</ele><time>2026-04-17T13:28:28.521Z</time></trkpt><trkpt lat="45.9868283" lon="12.6162833"><ele>64.66666666666666</ele><time>2026-04-17T13:28:29.521Z</time></trkpt><trkpt lat="45.9866683" lon="12.6163217"><ele>64.0</ele><time>2026-04-17T13:28:30.521Z</time></trkpt><trkpt lat="45.9865067" lon="12.616355"><ele>64.0</ele><time>2026-04-17T13:28:31.521Z</time></trkpt><trkpt lat="45.9863433" lon="12.616385"><ele>64.0</ele><time>2026-04-17T13:28:32.523Z</time></trkpt><trkpt lat="45.9861783" lon="12.616415"><ele>64.0</ele><time>2026-04-17T13:28:33.522Z</time></trkpt><trkpt lat="45.9860083" lon="12.61644"><ele>63.666666666666664</ele><time>2026-04-17T13:28:34.52Z</time></trkpt><trkpt lat="45.985835" lon="12.6164633"><ele>63.33333333333333</ele><time>2026-04-17T13:28:35.521Z</time></trkpt><trkpt lat="45.98566" lon="12.6164833"><ele>63.0</ele><time>2026-04-17T13:28:36.522Z</time></trkpt><trkpt lat="45.985485" lon="12.6164983"><ele>63.0</ele><time>2026-04-17T13:28:37.521Z</time></trkpt><trkpt lat="45.9853133" lon="12.61651"><ele>63.0</ele><time>2026-04-17T13:28:38.522Z</time></trkpt><trkpt lat="45.9851383" lon="12.6165167"><ele>63.0</ele><time>2026-04-17T13:28:39.521Z</time></trkpt><trkpt lat="45.9849667" lon="12.616525"><ele>62.66666666666667</ele><time>2026-04-17T13:28:40.52Z</time></trkpt><trkpt lat="45.9847933" lon="12.6165317"><ele>62.333333333333336</ele><time>2026-04-17T13:28:41.521Z</time></trkpt><trkpt lat="45.98462" lon="12.6165383"><ele>62.0</ele><time>2026-04-17T13:28:42.521Z</time></trkpt><trkpt lat="45.9844467" lon="12.616545"><ele>62.0</ele><time>2026-04-17T13:28:43.521Z</time></trkpt><trkpt lat="45.984275" lon="12.6165517"><ele>62.0</ele><time>2026-04-17T13:28:44.521Z</time></trkpt><trkpt lat="45.9840983" lon="12.6165583"><ele>62.0</ele><time>2026-04-17T13:28:45.521Z</time></trkpt><trkpt lat="45.9839283" lon="12.616565"><ele>62.0</ele><time>2026-04-17T13:28:46.521Z</time></trkpt><trkpt lat="45.9837533" lon="12.6165667"><ele>62.0</ele><time>2026-04-17T13:28:47.521Z</time></trkpt><trkpt lat="45.98358" lon="12.616565"><ele>62.0</ele><time>2026-04-17T13:28:48.521Z</time></trkpt><trkpt lat="45.9834083" lon="12.616555"><ele>61.333333333333336</ele><time>2026-04-17T13:28:49.521Z</time></trkpt><trkpt lat="45.9832367" lon="12.616545"><ele>60.66666666666667</ele><time>2026-04-17T13:28:50.522Z</time></trkpt><trkpt lat="45.9830583" lon="12.616535"><ele>60.0</ele><time>2026-04-17T13:28:51.52Z</time></trkpt><trkpt lat="45.98289" lon="12.6165233"><ele>60.0</ele><time>2026-04-17T13:28:52.521Z</time></trkpt><trkpt lat="45.9827283" lon="12.616515"><ele>60.0</ele><time>2026-04-17T13:28:53.522Z</time></trkpt><trkpt lat="45.982575" lon="12.61651"><ele>60.0</ele><time>2026-04-17T13:28:54.522Z</time></trkpt><trkpt lat="45.98242" lon="12.6165017"><ele>59.33333333333333</ele><time>2026-04-17T13:28:55.522Z</time></trkpt><trkpt lat="45.9822567" lon="12.616485"><ele>58.666666666666664</ele><time>2026-04-17T13:28:56.522Z</time></trkpt><trkpt lat="45.9820883" lon="12.6164533"><ele>58.0</ele><time>2026-04-17T13:28:57.521Z</time></trkpt><trkpt lat="45.9819167" lon="12.6164117"><ele>58.0</ele><time>2026-04-17T13:28:58.52Z</time></trkpt><trkpt lat="45.98174" lon="12.6163667"><ele>58.0</ele><time>2026-04-17T13:28:59.522Z</time></trkpt><trkpt lat="45.9815667" lon="12.616325"><ele>58.0</ele><time>2026-04-17T13:29:00.522Z</time></trkpt><trkpt lat="45.98139" lon="12.61628"><ele>58.0</ele><time>2026-04-17T13:29:01.523Z</time></trkpt><trkpt lat="45.981215" lon="12.616235"><ele>58.0</ele><time>2026-04-17T13:29:02.522Z</time></trkpt><trkpt lat="45.9810367" lon="12.6161933"><ele>58.0</ele><time>2026-04-17T13:29:03.521Z</time></trkpt><trkpt lat="45.9808567" lon="12.61615"><ele>58.0</ele><time>2026-04-17T13:29:04.519Z</time></trkpt><trkpt lat="45.98068" lon="12.61611"><ele>58.0</ele><time>2026-04-17T13:29:05.521Z</time></trkpt><trkpt lat="45.980505" lon="12.616065"><ele>58.0</ele><time>2026-04-17T13:29:06.52Z</time></trkpt><trkpt lat="45.9803283" lon="12.6160217"><ele>58.0</ele><time>2026-04-17T13:29:07.521Z</time></trkpt><trkpt lat="45.9801583" lon="12.615975"><ele>58.0</ele><time>2026-04-17T13:29:08.522Z</time></trkpt><trkpt lat="45.9799967" lon="12.61593"><ele>58.0</ele><time>2026-04-17T13:29:09.521Z</time></trkpt><trkpt lat="45.9798417" lon="12.615885"><ele>57.666666666666664</ele><time>2026-04-17T13:29:10.52Z</time></trkpt><trkpt lat="45.9796867" lon="12.61584"><ele>57.33333333333333</ele><time>2026-04-17T13:29:11.521Z</time></trkpt><trkpt lat="45.9795283" lon="12.6157933"><ele>57.0</ele><time>2026-04-17T13:29:12.522Z</time></trkpt><trkpt lat="45.97937" lon="12.6157483"><ele>57.0</ele><time>2026-04-17T13:29:13.523Z</time></trkpt><trkpt lat="45.9792083" lon="12.6156983"><ele>57.0</ele><time>2026-04-17T13:29:14.522Z</time></trkpt><trkpt lat="45.9790483" lon="12.6156517"><ele>57.0</ele><time>2026-04-17T13:29:15.523Z</time></trkpt><trkpt lat="45.9788917" lon="12.6156067"><ele>55.66666666666667</ele><time>2026-04-17T13:29:16.52Z</time></trkpt><trkpt lat="45.9787417" lon="12.6155617"><ele>54.333333333333336</ele><time>2026-04-17T13:29:17.521Z</time></trkpt><trkpt lat="45.9785917" lon="12.615515"><ele>53.0</ele><time>2026-04-17T13:29:18.522Z</time></trkpt><trkpt lat="45.9784417" lon="12.6154733"><ele>52.75</ele><time>2026-04-17T13:29:19.522Z</time></trkpt><trkpt lat="45.9783" lon="12.6154333"><ele>52.5</ele><time>2026-04-17T13:29:20.522Z</time></trkpt><trkpt lat="45.9781683" lon="12.6153983"><ele>52.25</ele><time>2026-04-17T13:29:21.521Z</time></trkpt><trkpt lat="45.9780433" lon="12.615365"><ele>52.0</ele><time>2026-04-17T13:29:22.52Z</time></trkpt><trkpt lat="45.9779217" lon="12.6153317"><ele>52.0</ele><time>2026-04-17T13:29:23.521Z</time></trkpt><trkpt lat="45.9778033" lon="12.6152983"><ele>52.0</ele><time>2026-04-17T13:29:24.521Z</time></trkpt><trkpt lat="45.9776817" lon="12.6152617"><ele>52.0</ele><time>2026-04-17T13:29:25.522Z</time></trkpt><trkpt lat="45.9775583" lon="12.615225"><ele>52.0</ele><time>2026-04-17T13:29:26.522Z</time></trkpt><trkpt lat="45.9774267" lon="12.615185"><ele>52.0</ele><time>2026-04-17T13:29:27.522Z</time></trkpt><trkpt lat="45.97729" lon="12.6151483"><ele>52.0</ele><time>2026-04-17T13:29:28.521Z</time></trkpt><trkpt lat="45.9771483" lon="12.6151083"><ele>52.0</ele><time>2026-04-17T13:29:29.521Z</time></trkpt><trkpt lat="45.9770067" lon="12.615065"><ele>52.0</ele><time>2026-04-17T13:29:30.524Z</time></trkpt><trkpt lat="45.97686" lon="12.6150217"><ele>52.0</ele><time>2026-04-17T13:29:31.521Z</time></trkpt><trkpt lat="45.9767117" lon="12.614975"><ele>52.0</ele><time>2026-04-17T13:29:32.523Z</time></trkpt><trkpt lat="45.9765583" lon="12.61493"><ele>52.0</ele><time>2026-04-17T13:29:33.523Z</time></trkpt><trkpt lat="45.9764033" lon="12.6148817"><ele>51.33333333333333</ele><time>2026-04-17T13:29:34.521Z</time></trkpt><trkpt lat="45.9762467" lon="12.6148317"><ele>50.66666666666667</ele><time>2026-04-17T13:29:35.522Z</time></trkpt><trkpt lat="45.9760917" lon="12.6147817"><ele>50.0</ele><time>2026-04-17T13:29:36.52Z</time></trkpt><trkpt lat="45.975935" lon="12.6147367"><ele>49.66666666666667</ele><time>2026-04-17T13:29:37.521Z</time></trkpt><trkpt lat="45.9757833" lon="12.6146933"><ele>49.33333333333333</ele><time>2026-04-17T13:29:38.523Z</time></trkpt><trkpt lat="45.9756333" lon="12.6146517"><ele>49.0</ele><time>2026-04-17T13:29:39.521Z</time></trkpt><trkpt lat="45.97549" lon="12.6146083"><ele>49.0</ele><time>2026-04-17T13:29:40.521Z</time></trkpt><trkpt lat="45.9753517" lon="12.61457"><ele>49.0</ele><time>2026-04-17T13:29:41.52Z</time></trkpt><trkpt lat="45.97522" lon="12.6145367"><ele>49.0</ele><time>2026-04-17T13:29:42.52Z</time></trkpt><trkpt lat="45.9750967" lon="12.6145033"><ele>49.0</ele><time>2026-04-17T13:29:43.52Z</time></trkpt><trkpt lat="45.97497" lon="12.6144733"><ele>48.75</ele><time>2026-04-17T13:29:44.521Z</time></trkpt><trkpt lat="45.974845" lon="12.61444"><ele>48.5</ele><time>2026-04-17T13:29:45.519Z</time></trkpt><trkpt lat="45.97472" lon="12.6144033"><ele>48.25</ele><time>2026-04-17T13:29:46.518Z</time></trkpt><trkpt lat="45.9745917" lon="12.614365"><ele>48.0</ele><time>2026-04-17T13:29:47.52Z</time></trkpt><trkpt lat="45.9744583" lon="12.614325"><ele>48.0</ele><time>2026-04-17T13:29:48.52Z</time></trkpt><trkpt lat="45.9743283" lon="12.6142833"><ele>48.0</ele><time>2026-04-17T13:29:49.521Z</time></trkpt><trkpt lat="45.9742033" lon="12.61424"><ele>48.0</ele><time>2026-04-17T13:29:50.52Z</time></trkpt><trkpt lat="45.974085" lon="12.6142"><ele>48.0</ele><time>2026-04-17T13:29:51.52Z</time></trkpt><trkpt lat="45.97397" lon="12.61416"><ele>47.8</ele><time>2026-04-17T13:29:52.52Z</time></trkpt><trkpt lat="45.9738633" lon="12.6141217"><ele>47.599999999999994</ele><time>2026-04-17T13:29:53.519Z</time></trkpt><trkpt lat="45.973765" lon="12.614085"><ele>47.400000000000006</ele><time>2026-04-17T13:29:54.519Z</time></trkpt><trkpt lat="45.9736717" lon="12.6140517"><ele>47.2</ele><time>2026-04-17T13:29:55.52Z</time></trkpt><trkpt lat="45.973585" lon="12.61402"><ele>47.0</ele><time>2026-04-17T13:29:56.521Z</time></trkpt><trkpt lat="45.9735017" lon="12.6139917"><ele>47.0</ele><time>2026-04-17T13:29:57.519Z</time></trkpt><trkpt lat="45.97343" lon="12.61397"><ele>47.0</ele><time>2026-04-17T13:29:58.519Z</time></trkpt><trkpt lat="45.973365" lon="12.6139533"><ele>47.0</ele><time>2026-04-17T13:29:59.52Z</time></trkpt><trkpt lat="45.9732733" lon="12.6139233"><ele>47.0</ele><time>2026-04-17T13:30:01.522Z</time></trkpt><trkpt lat="45.973195" lon="12.6138833"><ele>47.0</ele><time>2026-04-17T13:30:07.521Z</time></trkpt><trkpt lat="45.973085" lon="12.6138183"><ele>47.0</ele><time>2026-04-17T13:30:09.52Z</time></trkpt><trkpt lat="45.97302" lon="12.61381"><ele>46.8</ele><time>2026-04-17T13:30:10.52Z</time></trkpt><trkpt lat="45.9729383" lon="12.613835"><ele>46.6</ele><time>2026-04-17T13:30:11.521Z</time></trkpt><trkpt lat="45.9727717" lon="12.6137367"><ele>46.4</ele><time>2026-04-17T13:30:13.521Z</time></trkpt><trkpt lat="45.9726633" lon="12.6137417"><ele>46.199999999999996</ele><time>2026-04-17T13:30:14.522Z</time></trkpt><trkpt lat="45.972595" lon="12.6137367"><ele>46.0</ele><time>2026-04-17T13:30:15.52Z</time></trkpt><trkpt lat="45.9725067" lon="12.6136817"><ele>46.0</ele><time>2026-04-17T13:30:16.52Z</time></trkpt><trkpt lat="45.9724083" lon="12.6136683"><ele>46.0</ele><time>2026-04-17T13:30:17.524Z</time></trkpt><trkpt lat="45.9723033" lon="12.6136517"><ele>46.0</ele><time>2026-04-17T13:30:18.522Z</time></trkpt><trkpt lat="45.9722" lon="12.6136333"><ele>46.0</ele><time>2026-04-17T13:30:19.521Z</time></trkpt><trkpt lat="45.9720933" lon="12.613615"><ele>46.0</ele><time>2026-04-17T13:30:20.521Z</time></trkpt><trkpt lat="45.9719783" lon="12.613595"><ele>45.5</ele><time>2026-04-17T13:30:21.52Z</time></trkpt><trkpt lat="45.97186" lon="12.6135667"><ele>45.0</ele><time>2026-04-17T13:30:22.52Z</time></trkpt><trkpt lat="45.97174" lon="12.6135383"><ele>44.5</ele><time>2026-04-17T13:30:23.52Z</time></trkpt><trkpt lat="45.9716183" lon="12.6135117"><ele>44.0</ele><time>2026-04-17T13:30:24.52Z</time></trkpt><trkpt lat="45.9714917" lon="12.613485"><ele>44.0</ele><time>2026-04-17T13:30:25.519Z</time></trkpt><trkpt lat="45.9713617" lon="12.6134533"><ele>44.0</ele><time>2026-04-17T13:30:26.521Z</time></trkpt><trkpt lat="45.9712283" lon="12.61343"><ele>44.0</ele><time>2026-04-17T13:30:27.52Z</time></trkpt><trkpt lat="45.9710983" lon="12.6134117"><ele>44.0</ele><time>2026-04-17T13:30:28.52Z</time></trkpt><trkpt lat="45.97097" lon="12.6134"><ele>43.75</ele><time>2026-04-17T13:30:29.521Z</time></trkpt><trkpt lat="45.9708417" lon="12.6133867"><ele>43.5</ele><time>2026-04-17T13:30:30.52Z</time></trkpt><trkpt lat="45.9707117" lon="12.61338"><ele>43.25</ele><time>2026-04-17T13:30:31.52Z</time></trkpt><trkpt lat="45.9705817" lon="12.6133783"><ele>43.0</ele><time>2026-04-17T13:30:32.521Z</time></trkpt><trkpt lat="45.9704533" lon="12.6133833"><ele>43.0</ele><time>2026-04-17T13:30:33.52Z</time></trkpt><trkpt lat="45.9703267" lon="12.613395"><ele>43.0</ele><time>2026-04-17T13:30:34.52Z</time></trkpt><trkpt lat="45.9702067" lon="12.61341"><ele>43.0</ele><time>2026-04-17T13:30:35.52Z</time></trkpt><trkpt lat="45.9700883" lon="12.6134283"><ele>43.0</ele><time>2026-04-17T13:30:36.52Z</time></trkpt><trkpt lat="45.9699733" lon="12.6134483"><ele>42.833333333333336</ele><time>2026-04-17T13:30:37.52Z</time></trkpt><trkpt lat="45.96987" lon="12.6134667"><ele>42.66666666666667</ele><time>2026-04-17T13:30:38.52Z</time></trkpt><trkpt lat="45.9697917" lon="12.6134817"><ele>42.5</ele><time>2026-04-17T13:30:39.52Z</time></trkpt><trkpt lat="45.969725" lon="12.613495"><ele>42.333333333333336</ele><time>2026-04-17T13:30:40.52Z</time></trkpt><trkpt lat="45.969655" lon="12.6135133"><ele>42.166666666666664</ele><time>2026-04-17T13:30:41.52Z</time></trkpt><trkpt lat="45.9695733" lon="12.613535"><ele>42.0</ele><time>2026-04-17T13:30:42.52Z</time></trkpt><trkpt lat="45.9694867" lon="12.6135617"><ele>42.0</ele><time>2026-04-17T13:30:43.521Z</time></trkpt><trkpt lat="45.9693967" lon="12.6135817"><ele>42.0</ele><time>2026-04-17T13:30:44.521Z</time></trkpt><trkpt lat="45.969305" lon="12.6135917"><ele>42.0</ele><time>2026-04-17T13:30:45.52Z</time></trkpt><trkpt lat="45.9692183" lon="12.6135967"><ele>42.0</ele><time>2026-04-17T13:30:46.52Z</time></trkpt><trkpt lat="45.9691433" lon="12.6135983"><ele>42.0</ele><time>2026-04-17T13:30:47.521Z</time></trkpt><trkpt lat="45.969075" lon="12.6135983"><ele>42.0</ele><time>2026-04-17T13:30:48.52Z</time></trkpt><trkpt lat="45.9689983" lon="12.6135883"><ele>41.8</ele><time>2026-04-17T13:30:50.519Z</time></trkpt><trkpt lat="45.96894" lon="12.6135433"><ele>41.6</ele><time>2026-04-17T13:30:53.522Z</time></trkpt><trkpt lat="45.9688467" lon="12.6133933"><ele>41.4</ele><time>2026-04-17T13:30:55.52Z</time></trkpt><trkpt lat="45.968805" lon="12.61327"><ele>41.199999999999996</ele><time>2026-04-17T13:30:56.522Z</time></trkpt><trkpt lat="45.96879" lon="12.61311"><ele>41.0</ele><time>2026-04-17T13:30:57.52Z</time></trkpt><trkpt lat="45.9687883" lon="12.6129383"><ele>41.199999999999996</ele><time>2026-04-17T13:30:58.521Z</time></trkpt><trkpt lat="45.9688017" lon="12.6127683"><ele>41.4</ele><time>2026-04-17T13:30:59.52Z</time></trkpt><trkpt lat="45.9688167" lon="12.6126133"><ele>41.6</ele><time>2026-04-17T13:31:00.52Z</time></trkpt><trkpt lat="45.9688283" lon="12.6124717"><ele>41.8</ele><time>2026-04-17T13:31:01.52Z</time></trkpt><trkpt lat="45.9688383" lon="12.6123533"><ele>42.0</ele><time>2026-04-17T13:31:02.522Z</time></trkpt><trkpt lat="45.96885" lon="12.6122533"><ele>42.0</ele><time>2026-04-17T13:31:03.521Z</time></trkpt><trkpt lat="45.9688633" lon="12.6120933"><ele>42.0</ele><time>2026-04-17T13:31:05.522Z</time></trkpt><trkpt lat="45.9688767" lon="12.611965"><ele>42.0</ele><time>2026-04-17T13:31:07.522Z</time></trkpt><trkpt lat="45.96891" lon="12.611835"><ele>42.0</ele><time>2026-04-17T13:31:09.522Z</time></trkpt><trkpt lat="45.968945" lon="12.611755"><ele>42.0</ele><time>2026-04-17T13:31:10.521Z</time></trkpt><trkpt lat="45.9689783" lon="12.6116717"><ele>42.0</ele><time>2026-04-17T13:31:11.52Z</time></trkpt><trkpt lat="45.9689833" lon="12.6115017"><ele>42.166666666666664</ele><time>2026-04-17T13:31:13.52Z</time></trkpt><trkpt lat="45.968945" lon="12.611425"><ele>42.333333333333336</ele><time>2026-04-17T13:31:14.521Z</time></trkpt><trkpt lat="45.9688967" lon="12.611345"><ele>42.5</ele><time>2026-04-17T13:31:15.52Z</time></trkpt><trkpt lat="45.9688433" lon="12.6112583"><ele>42.66666666666667</ele><time>2026-04-17T13:31:16.521Z</time></trkpt><trkpt lat="45.96875" lon="12.61122"><ele>42.833333333333336</ele><time>2026-04-17T13:31:17.52Z</time></trkpt><trkpt lat="45.9686633" lon="12.6112117"><ele>43.0</ele><time>2026-04-17T13:31:18.521Z</time></trkpt><trkpt lat="45.9685467" lon="12.6112133"><ele>43.0</ele><time>2026-04-17T13:31:19.52Z</time></trkpt><trkpt lat="45.968415" lon="12.61122"><ele>43.0</ele><time>2026-04-17T13:31:20.521Z</time></trkpt><trkpt lat="45.9682733" lon="12.6112317"><ele>43.0</ele><time>2026-04-17T13:31:21.519Z</time></trkpt><trkpt lat="45.9681217" lon="12.611245"><ele>43.0</ele><time>2026-04-17T13:31:22.52Z</time></trkpt><trkpt lat="45.9679633" lon="12.6112567"><ele>42.66666666666667</ele><time>2026-04-17T13:31:23.521Z</time></trkpt><trkpt lat="45.9678017" lon="12.61127"><ele>42.333333333333336</ele><time>2026-04-17T13:31:24.522Z</time></trkpt><trkpt lat="45.9676367" lon="12.611285"><ele>42.0</ele><time>2026-04-17T13:31:25.52Z</time></trkpt><trkpt lat="45.9674667" lon="12.6112983"><ele>41.333333333333336</ele><time>2026-04-17T13:31:26.521Z</time></trkpt><trkpt lat="45.96729" lon="12.611305"><ele>40.66666666666667</ele><time>2026-04-17T13:31:27.52Z</time></trkpt><trkpt lat="45.96711" lon="12.611325"><ele>40.0</ele><time>2026-04-17T13:31:28.52Z</time></trkpt><trkpt lat="45.9669333" lon="12.6113317"><ele>40.0</ele><time>2026-04-17T13:31:29.52Z</time></trkpt><trkpt lat="45.9667733" lon="12.6113383"><ele>40.0</ele><time>2026-04-17T13:31:30.52Z</time></trkpt><trkpt lat="45.9666217" lon="12.6113417"><ele>40.0</ele><time>2026-04-17T13:31:31.52Z</time></trkpt><trkpt lat="45.9664883" lon="12.611335"><ele>40.0</ele><time>2026-04-17T13:31:32.521Z</time></trkpt><trkpt lat="45.966365" lon="12.6113333"><ele>39.8</ele><time>2026-04-17T13:31:33.52Z</time></trkpt><trkpt lat="45.966255" lon="12.6113267"><ele>39.6</ele><time>2026-04-17T13:31:34.52Z</time></trkpt><trkpt lat="45.9661533" lon="12.6113267"><ele>39.4</ele><time>2026-04-17T13:31:35.52Z</time></trkpt><trkpt lat="45.9660533" lon="12.6113267"><ele>39.2</ele><time>2026-04-17T13:31:36.521Z</time></trkpt><trkpt lat="45.9659517" lon="12.6113317"><ele>39.0</ele><time>2026-04-17T13:31:37.519Z</time></trkpt><trkpt lat="45.9658367" lon="12.6113367"><ele>38.75</ele><time>2026-04-17T13:31:38.521Z</time></trkpt><trkpt lat="45.9657083" lon="12.6113433"><ele>38.5</ele><time>2026-04-17T13:31:39.521Z</time></trkpt><trkpt lat="45.9655733" lon="12.6113533"><ele>38.25</ele><time>2026-04-17T13:31:40.521Z</time></trkpt><trkpt lat="45.96543" lon="12.611365"><ele>38.0</ele><time>2026-04-17T13:31:41.521Z</time></trkpt><trkpt lat="45.9652767" lon="12.611375"><ele>38.0</ele><time>2026-04-17T13:31:42.521Z</time></trkpt><trkpt lat="45.9651383" lon="12.6113833"><ele>38.0</ele><time>2026-04-17T13:31:43.519Z</time></trkpt><trkpt lat="45.9650133" lon="12.6113917"><ele>38.0</ele><time>2026-04-17T13:31:44.521Z</time></trkpt><trkpt lat="45.9649017" lon="12.611395"><ele>38.0</ele><time>2026-04-17T13:31:45.521Z</time></trkpt><trkpt lat="45.9648" lon="12.611395"><ele>37.75</ele><time>2026-04-17T13:31:46.52Z</time></trkpt><trkpt lat="45.9647017" lon="12.6113983"><ele>37.5</ele><time>2026-04-17T13:31:47.519Z</time></trkpt><trkpt lat="45.9645883" lon="12.6114133"><ele>37.25</ele><time>2026-04-17T13:31:48.52Z</time></trkpt><trkpt lat="45.9644633" lon="12.611425"><ele>37.0</ele><time>2026-04-17T13:31:49.52Z</time></trkpt><trkpt lat="45.9643467" lon="12.6114283"><ele>37.0</ele><time>2026-04-17T13:31:50.523Z</time></trkpt><trkpt lat="45.9642567" lon="12.6114217"><ele>37.0</ele><time>2026-04-17T13:31:51.52Z</time></trkpt><trkpt lat="45.9641883" lon="12.6114033"><ele>37.0</ele><time>2026-04-17T13:31:52.521Z</time></trkpt><trkpt lat="45.96413" lon="12.6113367"><ele>37.0</ele><time>2026-04-17T13:31:54.522Z</time></trkpt><trkpt lat="45.9642117" lon="12.6112867"><ele>37.0</ele><time>2026-04-17T13:31:56.522Z</time></trkpt><trkpt lat="45.9643217" lon="12.611295"><ele>37.0</ele><time>2026-04-17T13:31:58.519Z</time></trkpt><trkpt lat="45.9644167" lon="12.6112933"><ele>37.0</ele><time>2026-04-17T13:32:00.521Z</time></trkpt><trkpt lat="45.9645017" lon="12.611265"><ele>37.0</ele><time>2026-04-17T13:32:02.521Z</time></trkpt><trkpt lat="45.9645667" lon="12.61117"><ele>37.0</ele><time>2026-04-17T13:32:04.521Z</time></trkpt><trkpt lat="45.964595" lon="12.6110383"><ele>37.0</ele><time>2026-04-17T13:32:06.521Z</time></trkpt><trkpt lat="45.9645867" lon="12.610935"><ele>37.0</ele><time>2026-04-17T13:32:08.522Z</time></trkpt><trkpt lat="45.9645883" lon="12.6099667"><ele>38.0</ele><time>2026-04-17T13:35:01.118Z</time></trkpt></trkseg></trk></gpx>